<?xml version="1.0" encoding="UTF-8" standalone="no" ?>
<gpx xmlns="http://www.topografix.com/GPX/1/1" xmlns:xsi="http://www.w3.org/2001/XMLSchema-instance" xsi:schemaLocation="http://www.topografix.com/GPX/1/1 http://www.topografix.com/GPX/1/1/gpx.xsd" version="1.1" creator="VisuGPX - https://www.visugpx.com">
  <metadata>
    <name>Samu's Cup 2019</name>
    <desc><![CDATA[régate des SAMU de France
port de Saint Mandrier sur mer
cagnard 16 Garches 2
embarcation Dufour 410
équipage Bruno Fred Cécile Coralyne Sophie Jean Marc Christian
belle météo sur la semaine 
1 BMS 28/05 pas de sortie
14ème/26
détail samuscup.fr]]></desc>
  </metadata>
  <trk>
    <name><![CDATA[Tracé actuel: 25 MAI 2019 18:32]]></name>
    <trkseg>
      <trkpt lat="43.08876" lon="5.92071">
        <ele>0.62</ele>
        <time>2019-05-25T16:32:35Z</time>
      </trkpt>
      <trkpt lat="43.08888" lon="5.92062">
        <ele>-2.27</ele>
        <time>2019-05-25T16:32:45Z</time>
      </trkpt>
      <trkpt lat="43.08902" lon="5.92059">
        <ele>0.14</ele>
        <time>2019-05-25T16:32:57Z</time>
      </trkpt>
      <trkpt lat="43.0891" lon="5.92057">
        <ele>-0.34</ele>
        <time>2019-05-25T16:33:03Z</time>
      </trkpt>
      <trkpt lat="43.08931" lon="5.9205">
        <ele>-0.82</ele>
        <time>2019-05-25T16:33:18Z</time>
      </trkpt>
      <trkpt lat="43.08949" lon="5.92037">
        <ele>0.14</ele>
        <time>2019-05-25T16:33:32Z</time>
      </trkpt>
      <trkpt lat="43.0897" lon="5.92016">
        <ele>-2.75</ele>
        <time>2019-05-25T16:33:47Z</time>
      </trkpt>
      <trkpt lat="43.08985" lon="5.92002">
        <ele>-4.67</ele>
        <time>2019-05-25T16:33:56Z</time>
      </trkpt>
      <trkpt lat="43.08999" lon="5.91984">
        <ele>-7.07</ele>
        <time>2019-05-25T16:34:08Z</time>
      </trkpt>
      <trkpt lat="43.09019" lon="5.91962">
        <ele>-6.11</ele>
        <time>2019-05-25T16:34:21Z</time>
      </trkpt>
      <trkpt lat="43.09044" lon="5.91938">
        <ele>-5.15</ele>
        <time>2019-05-25T16:34:35Z</time>
      </trkpt>
      <trkpt lat="43.09077" lon="5.91906">
        <ele>-2.27</ele>
        <time>2019-05-25T16:34:53Z</time>
      </trkpt>
      <trkpt lat="43.0911" lon="5.91875">
        <ele>-2.75</ele>
        <time>2019-05-25T16:35:11Z</time>
      </trkpt>
      <trkpt lat="43.09138" lon="5.91853">
        <ele>-2.75</ele>
        <time>2019-05-25T16:35:22Z</time>
      </trkpt>
      <trkpt lat="43.09159" lon="5.91837">
        <ele>-3.71</ele>
        <time>2019-05-25T16:35:33Z</time>
      </trkpt>
      <trkpt lat="43.09192" lon="5.91808">
        <ele>-1.3</ele>
        <time>2019-05-25T16:35:52Z</time>
      </trkpt>
      <trkpt lat="43.09198" lon="5.91797">
        <ele>-2.75</ele>
        <time>2019-05-25T16:35:57Z</time>
      </trkpt>
      <trkpt lat="43.09202" lon="5.91793">
        <ele>-3.23</ele>
        <time>2019-05-25T16:36:01Z</time>
      </trkpt>
      <trkpt lat="43.09217" lon="5.91778">
        <ele>-4.67</ele>
        <time>2019-05-25T16:36:11Z</time>
      </trkpt>
      <trkpt lat="43.09238" lon="5.9176">
        <ele>-2.75</ele>
        <time>2019-05-25T16:36:25Z</time>
      </trkpt>
      <trkpt lat="43.0926" lon="5.91749">
        <ele>-1.79</ele>
        <time>2019-05-25T16:36:38Z</time>
      </trkpt>
      <trkpt lat="43.09275" lon="5.91769">
        <ele>-3.71</ele>
        <time>2019-05-25T16:36:52Z</time>
      </trkpt>
      <trkpt lat="43.09287" lon="5.91799">
        <ele>-2.75</ele>
        <time>2019-05-25T16:37:09Z</time>
      </trkpt>
      <trkpt lat="43.09294" lon="5.91822">
        <ele>-4.19</ele>
        <time>2019-05-25T16:37:23Z</time>
      </trkpt>
      <trkpt lat="43.09305" lon="5.91865">
        <ele>-2.27</ele>
        <time>2019-05-25T16:37:50Z</time>
      </trkpt>
      <trkpt lat="43.09309" lon="5.91893">
        <ele>-3.71</ele>
        <time>2019-05-25T16:38:07Z</time>
      </trkpt>
      <trkpt lat="43.09307" lon="5.91926">
        <ele>-2.27</ele>
        <time>2019-05-25T16:38:26Z</time>
      </trkpt>
      <trkpt lat="43.09303" lon="5.91955">
        <ele>-3.23</ele>
        <time>2019-05-25T16:38:43Z</time>
      </trkpt>
      <trkpt lat="43.09292" lon="5.91986">
        <ele>-4.67</ele>
        <time>2019-05-25T16:39:03Z</time>
      </trkpt>
      <trkpt lat="43.09276" lon="5.92014">
        <ele>-2.75</ele>
        <time>2019-05-25T16:39:26Z</time>
      </trkpt>
      <trkpt lat="43.09262" lon="5.92035">
        <ele>-3.71</ele>
        <time>2019-05-25T16:39:45Z</time>
      </trkpt>
      <trkpt lat="43.09243" lon="5.9206">
        <ele>-3.23</ele>
        <time>2019-05-25T16:40:10Z</time>
      </trkpt>
      <trkpt lat="43.09237" lon="5.92067">
        <ele>-3.71</ele>
        <time>2019-05-25T16:40:17Z</time>
      </trkpt>
      <trkpt lat="43.09215" lon="5.92084">
        <ele>-4.19</ele>
        <time>2019-05-25T16:40:40Z</time>
      </trkpt>
      <trkpt lat="43.09188" lon="5.92097">
        <ele>-3.71</ele>
        <time>2019-05-25T16:41:06Z</time>
      </trkpt>
      <trkpt lat="43.09157" lon="5.92102">
        <ele>-2.75</ele>
        <time>2019-05-25T16:41:32Z</time>
      </trkpt>
      <trkpt lat="43.09129" lon="5.92099">
        <ele>-3.71</ele>
        <time>2019-05-25T16:41:55Z</time>
      </trkpt>
      <trkpt lat="43.09104" lon="5.92106">
        <ele>-2.27</ele>
        <time>2019-05-25T16:42:16Z</time>
      </trkpt>
      <trkpt lat="43.09076" lon="5.92114">
        <ele>-2.75</ele>
        <time>2019-05-25T16:42:40Z</time>
      </trkpt>
      <trkpt lat="43.09053" lon="5.92123">
        <ele>-3.23</ele>
        <time>2019-05-25T16:43:03Z</time>
      </trkpt>
      <trkpt lat="43.09039" lon="5.92119">
        <ele>-3.23</ele>
        <time>2019-05-25T16:43:20Z</time>
      </trkpt>
      <trkpt lat="43.09043" lon="5.92103">
        <ele>-3.71</ele>
        <time>2019-05-25T16:43:36Z</time>
      </trkpt>
      <trkpt lat="43.09049" lon="5.9208">
        <ele>-1.79</ele>
        <time>2019-05-25T16:43:56Z</time>
      </trkpt>
      <trkpt lat="43.09058" lon="5.92051">
        <ele>-1.79</ele>
        <time>2019-05-25T16:44:22Z</time>
      </trkpt>
      <trkpt lat="43.09062" lon="5.92037">
        <ele>-2.75</ele>
        <time>2019-05-25T16:44:35Z</time>
      </trkpt>
      <trkpt lat="43.09072" lon="5.92013">
        <ele>-2.75</ele>
        <time>2019-05-25T16:44:57Z</time>
      </trkpt>
      <trkpt lat="43.09075" lon="5.92">
        <ele>-2.75</ele>
        <time>2019-05-25T16:45:08Z</time>
      </trkpt>
      <trkpt lat="43.0908" lon="5.91956">
        <ele>-3.23</ele>
        <time>2019-05-25T16:45:34Z</time>
      </trkpt>
      <trkpt lat="43.09086" lon="5.91909">
        <ele>-2.75</ele>
        <time>2019-05-25T16:45:54Z</time>
      </trkpt>
      <trkpt lat="43.09092" lon="5.91862">
        <ele>-2.27</ele>
        <time>2019-05-25T16:46:12Z</time>
      </trkpt>
      <trkpt lat="43.09093" lon="5.91828">
        <ele>-2.75</ele>
        <time>2019-05-25T16:46:25Z</time>
      </trkpt>
      <trkpt lat="43.09094" lon="5.9182">
        <ele>-2.75</ele>
        <time>2019-05-25T16:46:28Z</time>
      </trkpt>
      <trkpt lat="43.09098" lon="5.9178">
        <ele>-3.23</ele>
        <time>2019-05-25T16:46:43Z</time>
      </trkpt>
      <trkpt lat="43.09102" lon="5.91738">
        <ele>-2.75</ele>
        <time>2019-05-25T16:46:59Z</time>
      </trkpt>
      <trkpt lat="43.09106" lon="5.917">
        <ele>-2.27</ele>
        <time>2019-05-25T16:47:13Z</time>
      </trkpt>
      <trkpt lat="43.09111" lon="5.91661">
        <ele>-2.27</ele>
        <time>2019-05-25T16:47:28Z</time>
      </trkpt>
      <trkpt lat="43.09116" lon="5.91609">
        <ele>-2.27</ele>
        <time>2019-05-25T16:47:48Z</time>
      </trkpt>
      <trkpt lat="43.09112" lon="5.91582">
        <ele>-3.23</ele>
        <time>2019-05-25T16:48:02Z</time>
      </trkpt>
      <trkpt lat="43.09106" lon="5.91586">
        <ele>-3.71</ele>
        <time>2019-05-25T16:48:07Z</time>
      </trkpt>
      <trkpt lat="43.09102" lon="5.91591">
        <ele>-4.19</ele>
        <time>2019-05-25T16:48:11Z</time>
      </trkpt>
      <trkpt lat="43.09095" lon="5.91598">
        <ele>-4.19</ele>
        <time>2019-05-25T16:48:18Z</time>
      </trkpt>
      <trkpt lat="43.0909" lon="5.91602">
        <ele>-3.71</ele>
        <time>2019-05-25T16:48:22Z</time>
      </trkpt>
      <trkpt lat="43.09079" lon="5.91617">
        <ele>-3.71</ele>
        <time>2019-05-25T16:48:34Z</time>
      </trkpt>
      <trkpt lat="43.09069" lon="5.91628">
        <ele>-4.19</ele>
        <time>2019-05-25T16:48:43Z</time>
      </trkpt>
      <trkpt lat="43.0905" lon="5.91651">
        <ele>-5.15</ele>
        <time>2019-05-25T16:48:59Z</time>
      </trkpt>
      <trkpt lat="43.09029" lon="5.91671">
        <ele>-4.19</ele>
        <time>2019-05-25T16:49:15Z</time>
      </trkpt>
      <trkpt lat="43.09012" lon="5.91687">
        <ele>-3.71</ele>
        <time>2019-05-25T16:49:25Z</time>
      </trkpt>
      <trkpt lat="43.08989" lon="5.91692">
        <ele>-2.75</ele>
        <time>2019-05-25T16:49:42Z</time>
      </trkpt>
      <trkpt lat="43.0898" lon="5.91694">
        <ele>-1.79</ele>
        <time>2019-05-25T16:49:50Z</time>
      </trkpt>
      <trkpt lat="43.08969" lon="5.91696">
        <ele>-1.3</ele>
        <time>2019-05-25T16:50:01Z</time>
      </trkpt>
      <trkpt lat="43.08965" lon="5.91698">
        <ele>-1.79</ele>
        <time>2019-05-25T16:50:05Z</time>
      </trkpt>
      <trkpt lat="43.08948" lon="5.917">
        <ele>-2.27</ele>
        <time>2019-05-25T16:50:23Z</time>
      </trkpt>
      <trkpt lat="43.08943" lon="5.917">
        <ele>-3.23</ele>
        <time>2019-05-25T16:50:31Z</time>
      </trkpt>
      <trkpt lat="43.0894" lon="5.91701">
        <ele>-1.79</ele>
        <time>2019-05-25T16:50:41Z</time>
      </trkpt>
      <trkpt lat="43.08933" lon="5.91696">
        <ele>-2.27</ele>
        <time>2019-05-25T16:50:58Z</time>
      </trkpt>
      <trkpt lat="43.08927" lon="5.91692">
        <ele>-2.27</ele>
        <time>2019-05-25T16:51:20Z</time>
      </trkpt>
      <trkpt lat="43.08922" lon="5.91691">
        <ele>-0.34</ele>
        <time>2019-05-25T16:51:37Z</time>
      </trkpt>
      <trkpt lat="43.08917" lon="5.91691">
        <ele>-0.82</ele>
        <time>2019-05-25T16:51:55Z</time>
      </trkpt>
      <trkpt lat="43.08915" lon="5.9169">
        <ele>-0.82</ele>
        <time>2019-05-25T16:52:12Z</time>
      </trkpt>
      <trkpt lat="43.08905" lon="5.91686">
        <ele>-0.82</ele>
        <time>2019-05-25T16:52:31Z</time>
      </trkpt>
      <trkpt lat="43.08894" lon="5.91693">
        <ele>-0.82</ele>
        <time>2019-05-25T16:52:49Z</time>
      </trkpt>
      <trkpt lat="43.08891" lon="5.91702">
        <ele>-1.79</ele>
        <time>2019-05-25T16:52:58Z</time>
      </trkpt>
      <trkpt lat="43.08888" lon="5.91713">
        <ele>-1.3</ele>
        <time>2019-05-25T16:53:12Z</time>
      </trkpt>
      <trkpt lat="43.08875" lon="5.91741">
        <ele>-0.82</ele>
        <time>2019-05-25T16:53:29Z</time>
      </trkpt>
      <trkpt lat="43.08863" lon="5.91783">
        <ele>-1.3</ele>
        <time>2019-05-25T16:53:47Z</time>
      </trkpt>
      <trkpt lat="43.08849" lon="5.91821">
        <ele>-1.79</ele>
        <time>2019-05-25T16:54:02Z</time>
      </trkpt>
      <trkpt lat="43.08848" lon="5.91826">
        <ele>-2.27</ele>
        <time>2019-05-25T16:54:04Z</time>
      </trkpt>
      <trkpt lat="43.08844" lon="5.91839">
        <ele>-1.3</ele>
        <time>2019-05-25T16:54:09Z</time>
      </trkpt>
      <trkpt lat="43.08827" lon="5.91884">
        <ele>-0.82</ele>
        <time>2019-05-25T16:54:27Z</time>
      </trkpt>
      <trkpt lat="43.08809" lon="5.91917">
        <ele>-1.3</ele>
        <time>2019-05-25T16:54:42Z</time>
      </trkpt>
      <trkpt lat="43.08793" lon="5.91948">
        <ele>-2.27</ele>
        <time>2019-05-25T16:54:56Z</time>
      </trkpt>
      <trkpt lat="43.08774" lon="5.91981">
        <ele>-2.27</ele>
        <time>2019-05-25T16:55:12Z</time>
      </trkpt>
      <trkpt lat="43.08756" lon="5.9201">
        <ele>-0.34</ele>
        <time>2019-05-25T16:55:27Z</time>
      </trkpt>
      <trkpt lat="43.08736" lon="5.92045">
        <ele>0.14</ele>
        <time>2019-05-25T16:55:45Z</time>
      </trkpt>
      <trkpt lat="43.08718" lon="5.92078">
        <ele>-3.23</ele>
        <time>2019-05-25T16:56:01Z</time>
      </trkpt>
      <trkpt lat="43.08689" lon="5.92125">
        <ele>-5.63</ele>
        <time>2019-05-25T16:56:27Z</time>
      </trkpt>
      <trkpt lat="43.08662" lon="5.92168">
        <ele>-2.27</ele>
        <time>2019-05-25T16:56:51Z</time>
      </trkpt>
      <trkpt lat="43.08646" lon="5.92189">
        <ele>-3.23</ele>
        <time>2019-05-25T16:57:04Z</time>
      </trkpt>
      <trkpt lat="43.08629" lon="5.92206">
        <ele>-4.19</ele>
        <time>2019-05-25T16:57:16Z</time>
      </trkpt>
      <trkpt lat="43.08607" lon="5.92235">
        <ele>-2.75</ele>
        <time>2019-05-25T16:57:33Z</time>
      </trkpt>
      <trkpt lat="43.08585" lon="5.92255">
        <ele>-3.23</ele>
        <time>2019-05-25T16:57:48Z</time>
      </trkpt>
      <trkpt lat="43.08563" lon="5.92275">
        <ele>-2.75</ele>
        <time>2019-05-25T16:58:03Z</time>
      </trkpt>
      <trkpt lat="43.0854" lon="5.9229">
        <ele>-2.75</ele>
        <time>2019-05-25T16:58:18Z</time>
      </trkpt>
      <trkpt lat="43.08524" lon="5.923">
        <ele>-3.23</ele>
        <time>2019-05-25T16:58:29Z</time>
      </trkpt>
      <trkpt lat="43.08502" lon="5.92314">
        <ele>-3.23</ele>
        <time>2019-05-25T16:58:43Z</time>
      </trkpt>
      <trkpt lat="43.08481" lon="5.92332">
        <ele>-1.79</ele>
        <time>2019-05-25T16:58:58Z</time>
      </trkpt>
      <trkpt lat="43.08459" lon="5.92348">
        <ele>-0.82</ele>
        <time>2019-05-25T16:59:13Z</time>
      </trkpt>
      <trkpt lat="43.08442" lon="5.9236">
        <ele>-1.3</ele>
        <time>2019-05-25T16:59:24Z</time>
      </trkpt>
      <trkpt lat="43.08432" lon="5.92367">
        <ele>-1.3</ele>
        <time>2019-05-25T16:59:31Z</time>
      </trkpt>
      <trkpt lat="43.08419" lon="5.92376">
        <ele>-1.3</ele>
        <time>2019-05-25T16:59:40Z</time>
      </trkpt>
      <trkpt lat="43.08391" lon="5.92394">
        <ele>-1.79</ele>
        <time>2019-05-25T16:59:57Z</time>
      </trkpt>
      <trkpt lat="43.08368" lon="5.92404">
        <ele>-2.27</ele>
        <time>2019-05-25T17:00:12Z</time>
      </trkpt>
      <trkpt lat="43.08341" lon="5.92411">
        <ele>-0.82</ele>
        <time>2019-05-25T17:00:30Z</time>
      </trkpt>
      <trkpt lat="43.08335" lon="5.92415">
        <ele>0.62</ele>
        <time>2019-05-25T17:00:47Z</time>
      </trkpt>
      <trkpt lat="43.08335" lon="5.92415">
        <ele>0.14</ele>
        <time>2019-05-25T17:01:08Z</time>
      </trkpt>
      <trkpt lat="43.0831" lon="5.92423">
        <ele>0.14</ele>
        <time>2019-05-25T17:01:26Z</time>
      </trkpt>
      <trkpt lat="43.08265" lon="5.92438">
        <ele>0.14</ele>
        <time>2019-05-25T17:01:51Z</time>
      </trkpt>
      <trkpt lat="43.08221" lon="5.92449">
        <ele>1.58</ele>
        <time>2019-05-25T17:02:17Z</time>
      </trkpt>
      <trkpt lat="43.08181" lon="5.92462">
        <ele>0.62</ele>
        <time>2019-05-25T17:02:44Z</time>
      </trkpt>
      <trkpt lat="43.08151" lon="5.92472">
        <ele>0.14</ele>
        <time>2019-05-25T17:03:05Z</time>
      </trkpt>
      <trkpt lat="43.08105" lon="5.92484">
        <ele>1.1</ele>
        <time>2019-05-25T17:03:37Z</time>
      </trkpt>
      <trkpt lat="43.08059" lon="5.92495">
        <ele>1.1</ele>
        <time>2019-05-25T17:04:13Z</time>
      </trkpt>
      <trkpt lat="43.08039" lon="5.92486">
        <ele>0.62</ele>
        <time>2019-05-25T17:04:34Z</time>
      </trkpt>
      <trkpt lat="43.08037" lon="5.92477">
        <ele>0.62</ele>
        <time>2019-05-25T17:04:40Z</time>
      </trkpt>
      <trkpt lat="43.08027" lon="5.92453">
        <ele>3.02</ele>
        <time>2019-05-25T17:05:01Z</time>
      </trkpt>
      <trkpt lat="43.08024" lon="5.92445">
        <ele>2.06</ele>
        <time>2019-05-25T17:05:07Z</time>
      </trkpt>
      <trkpt lat="43.08021" lon="5.92441">
        <ele>1.58</ele>
        <time>2019-05-25T17:05:11Z</time>
      </trkpt>
      <trkpt lat="43.08018" lon="5.92431">
        <ele>0.62</ele>
        <time>2019-05-25T17:05:26Z</time>
      </trkpt>
      <trkpt lat="43.08016" lon="5.92429">
        <ele>1.1</ele>
        <time>2019-05-25T17:05:46Z</time>
      </trkpt>
      <trkpt lat="43.08018" lon="5.92423">
        <ele>1.58</ele>
        <time>2019-05-25T17:06:00Z</time>
      </trkpt>
      <trkpt lat="43.0802" lon="5.92416">
        <ele>1.1</ele>
        <time>2019-05-25T17:06:12Z</time>
      </trkpt>
      <trkpt lat="43.08021" lon="5.92411">
        <ele>2.06</ele>
        <time>2019-05-25T17:06:39Z</time>
      </trkpt>
      <trkpt lat="43.0802" lon="5.92414">
        <ele>2.06</ele>
        <time>2019-05-25T17:07:08Z</time>
      </trkpt>
      <trkpt lat="43.08015" lon="5.9243">
        <ele>2.54</ele>
        <time>2019-05-25T17:07:37Z</time>
      </trkpt>
      <trkpt lat="43.08017" lon="5.92428">
        <ele>3.02</ele>
        <time>2019-05-25T17:08:03Z</time>
      </trkpt>
      <trkpt lat="43.08013" lon="5.92431">
        <ele>3.02</ele>
        <time>2019-05-25T17:08:33Z</time>
      </trkpt>
      <trkpt lat="43.08006" lon="5.92436">
        <ele>4.46</ele>
        <time>2019-05-25T17:09:08Z</time>
      </trkpt>
      <trkpt lat="43.08006" lon="5.92436">
        <ele>3.98</ele>
        <time>2019-05-25T17:09:43Z</time>
      </trkpt>
      <trkpt lat="43.08005" lon="5.92436">
        <ele>3.02</ele>
        <time>2019-05-25T17:10:25Z</time>
      </trkpt>
      <trkpt lat="43.08005" lon="5.92436">
        <ele>2.54</ele>
        <time>2019-05-25T17:10:57Z</time>
      </trkpt>
      <trkpt lat="43.08005" lon="5.92437">
        <ele>2.54</ele>
        <time>2019-05-25T17:11:36Z</time>
      </trkpt>
      <trkpt lat="43.08005" lon="5.92437">
        <ele>2.54</ele>
        <time>2019-05-25T17:12:09Z</time>
      </trkpt>
      <trkpt lat="43.08005" lon="5.92438">
        <ele>2.54</ele>
        <time>2019-05-25T17:12:42Z</time>
      </trkpt>
      <trkpt lat="43.08005" lon="5.92437">
        <ele>2.54</ele>
        <time>2019-05-25T17:13:16Z</time>
      </trkpt>
      <trkpt lat="43.08006" lon="5.92437">
        <ele>3.02</ele>
        <time>2019-05-25T17:13:48Z</time>
      </trkpt>
      <trkpt lat="43.08006" lon="5.92437">
        <ele>3.02</ele>
        <time>2019-05-25T17:14:19Z</time>
      </trkpt>
      <trkpt lat="43.08004" lon="5.92437">
        <ele>3.5</ele>
        <time>2019-05-25T17:14:52Z</time>
      </trkpt>
      <trkpt lat="43.08005" lon="5.92437">
        <ele>3.5</ele>
        <time>2019-05-25T17:15:18Z</time>
      </trkpt>
      <trkpt lat="43.08005" lon="5.92437">
        <ele>3.5</ele>
        <time>2019-05-25T17:15:48Z</time>
      </trkpt>
      <trkpt lat="43.08005" lon="5.92436">
        <ele>3.5</ele>
        <time>2019-05-25T17:16:14Z</time>
      </trkpt>
      <trkpt lat="43.08005" lon="5.92436">
        <ele>2.54</ele>
        <time>2019-05-25T17:16:39Z</time>
      </trkpt>
      <trkpt lat="43.08005" lon="5.92438">
        <ele>2.06</ele>
        <time>2019-05-25T17:17:10Z</time>
      </trkpt>
      <trkpt lat="43.08005" lon="5.92436">
        <ele>2.54</ele>
        <time>2019-05-25T17:17:41Z</time>
      </trkpt>
      <trkpt lat="43.08005" lon="5.92436">
        <ele>3.98</ele>
        <time>2019-05-25T17:18:10Z</time>
      </trkpt>
      <trkpt lat="43.08005" lon="5.92436">
        <ele>5.42</ele>
        <time>2019-05-25T17:18:40Z</time>
      </trkpt>
      <trkpt lat="43.08005" lon="5.92437">
        <ele>5.42</ele>
        <time>2019-05-25T17:19:12Z</time>
      </trkpt>
      <trkpt lat="43.08004" lon="5.92437">
        <ele>4.94</ele>
        <time>2019-05-25T17:19:44Z</time>
      </trkpt>
      <trkpt lat="43.08005" lon="5.92437">
        <ele>4.94</ele>
        <time>2019-05-25T17:20:14Z</time>
      </trkpt>
      <trkpt lat="43.08005" lon="5.92437">
        <ele>3.98</ele>
        <time>2019-05-25T17:20:49Z</time>
      </trkpt>
      <trkpt lat="43.08004" lon="5.92437">
        <ele>3.98</ele>
        <time>2019-05-25T17:21:20Z</time>
      </trkpt>
      <trkpt lat="43.08005" lon="5.92438">
        <ele>3.5</ele>
        <time>2019-05-25T17:21:54Z</time>
      </trkpt>
      <trkpt lat="43.08005" lon="5.92437">
        <ele>3.98</ele>
        <time>2019-05-25T17:22:31Z</time>
      </trkpt>
      <trkpt lat="43.08005" lon="5.92436">
        <ele>3.98</ele>
        <time>2019-05-25T17:23:07Z</time>
      </trkpt>
      <trkpt lat="43.08005" lon="5.92436">
        <ele>4.46</ele>
        <time>2019-05-25T17:23:33Z</time>
      </trkpt>
      <trkpt lat="43.08005" lon="5.92437">
        <ele>4.46</ele>
        <time>2019-05-25T17:24:02Z</time>
      </trkpt>
      <trkpt lat="43.08005" lon="5.92437">
        <ele>4.94</ele>
        <time>2019-05-25T17:24:29Z</time>
      </trkpt>
      <trkpt lat="43.08004" lon="5.92438">
        <ele>5.42</ele>
        <time>2019-05-25T17:25:00Z</time>
      </trkpt>
      <trkpt lat="43.08006" lon="5.92437">
        <ele>3.98</ele>
        <time>2019-05-25T17:25:31Z</time>
      </trkpt>
      <trkpt lat="43.08006" lon="5.92437">
        <ele>3.98</ele>
        <time>2019-05-25T17:26:14Z</time>
      </trkpt>
      <trkpt lat="43.08005" lon="5.92438">
        <ele>4.46</ele>
        <time>2019-05-25T17:26:43Z</time>
      </trkpt>
      <trkpt lat="43.08005" lon="5.92438">
        <ele>4.46</ele>
        <time>2019-05-25T17:27:12Z</time>
      </trkpt>
      <trkpt lat="43.08005" lon="5.92438">
        <ele>4.46</ele>
        <time>2019-05-25T17:27:46Z</time>
      </trkpt>
      <trkpt lat="43.08005" lon="5.92438">
        <ele>3.98</ele>
        <time>2019-05-25T17:28:15Z</time>
      </trkpt>
      <trkpt lat="43.08005" lon="5.92437">
        <ele>2.54</ele>
        <time>2019-05-25T17:28:49Z</time>
      </trkpt>
      <trkpt lat="43.08006" lon="5.92437">
        <ele>3.02</ele>
        <time>2019-05-25T17:29:24Z</time>
      </trkpt>
      <trkpt lat="43.08006" lon="5.92438">
        <ele>3.5</ele>
        <time>2019-05-25T17:29:54Z</time>
      </trkpt>
      <trkpt lat="43.08006" lon="5.92438">
        <ele>3.98</ele>
        <time>2019-05-25T17:30:24Z</time>
      </trkpt>
      <trkpt lat="43.08006" lon="5.92437">
        <ele>3.98</ele>
        <time>2019-05-25T17:30:56Z</time>
      </trkpt>
      <trkpt lat="43.08007" lon="5.92437">
        <ele>3.02</ele>
        <time>2019-05-25T17:31:25Z</time>
      </trkpt>
      <trkpt lat="43.08006" lon="5.92438">
        <ele>2.06</ele>
        <time>2019-05-25T17:31:50Z</time>
      </trkpt>
      <trkpt lat="43.08006" lon="5.92437">
        <ele>1.58</ele>
        <time>2019-05-25T17:32:22Z</time>
      </trkpt>
      <trkpt lat="43.08007" lon="5.92438">
        <ele>1.1</ele>
        <time>2019-05-25T17:32:52Z</time>
      </trkpt>
      <trkpt lat="43.08006" lon="5.92438">
        <ele>2.06</ele>
        <time>2019-05-25T17:33:18Z</time>
      </trkpt>
      <trkpt lat="43.08006" lon="5.92438">
        <ele>3.5</ele>
        <time>2019-05-25T17:33:53Z</time>
      </trkpt>
      <trkpt lat="43.08006" lon="5.92438">
        <ele>3.02</ele>
        <time>2019-05-25T17:34:27Z</time>
      </trkpt>
      <trkpt lat="43.08006" lon="5.92437">
        <ele>3.5</ele>
        <time>2019-05-25T17:35:11Z</time>
      </trkpt>
      <trkpt lat="43.08007" lon="5.92437">
        <ele>4.46</ele>
        <time>2019-05-25T17:35:46Z</time>
      </trkpt>
      <trkpt lat="43.08007" lon="5.92437">
        <ele>3.5</ele>
        <time>2019-05-25T17:36:29Z</time>
      </trkpt>
      <trkpt lat="43.08007" lon="5.92437">
        <ele>3.5</ele>
        <time>2019-05-25T17:37:03Z</time>
      </trkpt>
      <trkpt lat="43.08007" lon="5.92437">
        <ele>3.02</ele>
        <time>2019-05-25T17:37:37Z</time>
      </trkpt>
      <trkpt lat="43.08006" lon="5.92438">
        <ele>3.02</ele>
        <time>2019-05-25T17:38:11Z</time>
      </trkpt>
      <trkpt lat="43.08005" lon="5.92437">
        <ele>3.98</ele>
        <time>2019-05-25T17:38:44Z</time>
      </trkpt>
      <trkpt lat="43.08005" lon="5.92438">
        <ele>4.46</ele>
        <time>2019-05-25T17:39:16Z</time>
      </trkpt>
      <trkpt lat="43.08006" lon="5.92438">
        <ele>4.46</ele>
        <time>2019-05-25T17:39:46Z</time>
      </trkpt>
      <trkpt lat="43.08005" lon="5.92438">
        <ele>4.94</ele>
        <time>2019-05-25T17:40:16Z</time>
      </trkpt>
      <trkpt lat="43.08005" lon="5.92438">
        <ele>4.46</ele>
        <time>2019-05-25T17:40:39Z</time>
      </trkpt>
    </trkseg>
  </trk>
  <trk>
    <name><![CDATA[Tracé actuel: 26 MAI 2019 12:03]]></name>
    <trkseg>
      <trkpt lat="43.08006" lon="5.92434">
        <ele>3.5</ele>
        <time>2019-05-26T10:03:56Z</time>
      </trkpt>
      <trkpt lat="43.08009" lon="5.92438">
        <ele>0.14</ele>
        <time>2019-05-26T10:04:29Z</time>
      </trkpt>
      <trkpt lat="43.08007" lon="5.92439">
        <ele>-1.3</ele>
        <time>2019-05-26T10:05:03Z</time>
      </trkpt>
      <trkpt lat="43.08007" lon="5.92441">
        <ele>2.54</ele>
        <time>2019-05-26T10:05:28Z</time>
      </trkpt>
      <trkpt lat="43.08009" lon="5.92441">
        <ele>3.98</ele>
        <time>2019-05-26T10:06:04Z</time>
      </trkpt>
      <trkpt lat="43.08009" lon="5.92441">
        <ele>2.54</ele>
        <time>2019-05-26T10:06:36Z</time>
      </trkpt>
      <trkpt lat="43.08017" lon="5.9244">
        <ele>3.02</ele>
        <time>2019-05-26T10:07:01Z</time>
      </trkpt>
      <trkpt lat="43.08023" lon="5.92445">
        <ele>3.02</ele>
        <time>2019-05-26T10:07:11Z</time>
      </trkpt>
      <trkpt lat="43.08037" lon="5.92482">
        <ele>3.98</ele>
        <time>2019-05-26T10:07:36Z</time>
      </trkpt>
      <trkpt lat="43.08071" lon="5.92502">
        <ele>2.06</ele>
        <time>2019-05-26T10:08:02Z</time>
      </trkpt>
      <trkpt lat="43.08125" lon="5.92504">
        <ele>1.1</ele>
        <time>2019-05-26T10:08:30Z</time>
      </trkpt>
      <trkpt lat="43.08187" lon="5.92504">
        <ele>1.1</ele>
        <time>2019-05-26T10:09:04Z</time>
      </trkpt>
      <trkpt lat="43.08255" lon="5.92493">
        <ele>0.14</ele>
        <time>2019-05-26T10:09:43Z</time>
      </trkpt>
      <trkpt lat="43.08301" lon="5.92495">
        <ele>-0.82</ele>
        <time>2019-05-26T10:10:10Z</time>
      </trkpt>
      <trkpt lat="43.08353" lon="5.92499">
        <ele>-0.34</ele>
        <time>2019-05-26T10:10:42Z</time>
      </trkpt>
      <trkpt lat="43.08391" lon="5.92501">
        <ele>-0.34</ele>
        <time>2019-05-26T10:11:06Z</time>
      </trkpt>
      <trkpt lat="43.08443" lon="5.92495">
        <ele>-1.3</ele>
        <time>2019-05-26T10:11:39Z</time>
      </trkpt>
      <trkpt lat="43.08487" lon="5.92482">
        <ele>-1.79</ele>
        <time>2019-05-26T10:12:06Z</time>
      </trkpt>
      <trkpt lat="43.08528" lon="5.92459">
        <ele>-1.3</ele>
        <time>2019-05-26T10:12:33Z</time>
      </trkpt>
      <trkpt lat="43.08567" lon="5.92434">
        <ele>-0.82</ele>
        <time>2019-05-26T10:12:59Z</time>
      </trkpt>
      <trkpt lat="43.08608" lon="5.92426">
        <ele>-0.82</ele>
        <time>2019-05-26T10:13:25Z</time>
      </trkpt>
      <trkpt lat="43.08648" lon="5.92429">
        <ele>-1.79</ele>
        <time>2019-05-26T10:13:51Z</time>
      </trkpt>
      <trkpt lat="43.08666" lon="5.92482">
        <ele>-0.82</ele>
        <time>2019-05-26T10:14:15Z</time>
      </trkpt>
      <trkpt lat="43.08684" lon="5.92556">
        <ele>0.14</ele>
        <time>2019-05-26T10:14:44Z</time>
      </trkpt>
      <trkpt lat="43.08719" lon="5.92617">
        <ele>-0.82</ele>
        <time>2019-05-26T10:15:14Z</time>
      </trkpt>
      <trkpt lat="43.08757" lon="5.92675">
        <ele>-3.23</ele>
        <time>2019-05-26T10:15:43Z</time>
      </trkpt>
      <trkpt lat="43.08805" lon="5.92733">
        <ele>-1.3</ele>
        <time>2019-05-26T10:16:16Z</time>
      </trkpt>
      <trkpt lat="43.08839" lon="5.92773">
        <ele>-0.34</ele>
        <time>2019-05-26T10:16:41Z</time>
      </trkpt>
      <trkpt lat="43.0888" lon="5.92816">
        <ele>-2.27</ele>
        <time>2019-05-26T10:17:11Z</time>
      </trkpt>
      <trkpt lat="43.0891" lon="5.92851">
        <ele>-2.75</ele>
        <time>2019-05-26T10:17:33Z</time>
      </trkpt>
      <trkpt lat="43.08949" lon="5.92885">
        <ele>-3.23</ele>
        <time>2019-05-26T10:17:58Z</time>
      </trkpt>
      <trkpt lat="43.08988" lon="5.92924">
        <ele>-2.75</ele>
        <time>2019-05-26T10:18:24Z</time>
      </trkpt>
      <trkpt lat="43.09019" lon="5.92966">
        <ele>-3.23</ele>
        <time>2019-05-26T10:18:48Z</time>
      </trkpt>
      <trkpt lat="43.09052" lon="5.93017">
        <ele>-3.23</ele>
        <time>2019-05-26T10:19:14Z</time>
      </trkpt>
      <trkpt lat="43.09084" lon="5.93072">
        <ele>-2.27</ele>
        <time>2019-05-26T10:19:41Z</time>
      </trkpt>
      <trkpt lat="43.09106" lon="5.93112">
        <ele>-2.27</ele>
        <time>2019-05-26T10:20:00Z</time>
      </trkpt>
      <trkpt lat="43.09133" lon="5.93164">
        <ele>-1.3</ele>
        <time>2019-05-26T10:20:24Z</time>
      </trkpt>
      <trkpt lat="43.09167" lon="5.93212">
        <ele>-3.23</ele>
        <time>2019-05-26T10:20:50Z</time>
      </trkpt>
      <trkpt lat="43.09201" lon="5.93262">
        <ele>-3.23</ele>
        <time>2019-05-26T10:21:18Z</time>
      </trkpt>
      <trkpt lat="43.09226" lon="5.93292">
        <ele>-2.75</ele>
        <time>2019-05-26T10:21:38Z</time>
      </trkpt>
      <trkpt lat="43.09258" lon="5.93277">
        <ele>-1.79</ele>
        <time>2019-05-26T10:21:59Z</time>
      </trkpt>
      <trkpt lat="43.09299" lon="5.93245">
        <ele>-1.3</ele>
        <time>2019-05-26T10:22:25Z</time>
      </trkpt>
      <trkpt lat="43.09332" lon="5.93216">
        <ele>-0.82</ele>
        <time>2019-05-26T10:22:45Z</time>
      </trkpt>
      <trkpt lat="43.0937" lon="5.93187">
        <ele>-0.34</ele>
        <time>2019-05-26T10:23:06Z</time>
      </trkpt>
      <trkpt lat="43.09413" lon="5.93157">
        <ele>0.14</ele>
        <time>2019-05-26T10:23:30Z</time>
      </trkpt>
      <trkpt lat="43.09455" lon="5.93127">
        <ele>-0.34</ele>
        <time>2019-05-26T10:23:54Z</time>
      </trkpt>
      <trkpt lat="43.09498" lon="5.931">
        <ele>0.62</ele>
        <time>2019-05-26T10:24:17Z</time>
      </trkpt>
      <trkpt lat="43.09536" lon="5.93065">
        <ele>-0.82</ele>
        <time>2019-05-26T10:24:37Z</time>
      </trkpt>
      <trkpt lat="43.09579" lon="5.93036">
        <ele>-1.3</ele>
        <time>2019-05-26T10:24:57Z</time>
      </trkpt>
      <trkpt lat="43.0959" lon="5.93076">
        <ele>-2.27</ele>
        <time>2019-05-26T10:25:11Z</time>
      </trkpt>
      <trkpt lat="43.09599" lon="5.93166">
        <ele>-2.27</ele>
        <time>2019-05-26T10:25:34Z</time>
      </trkpt>
      <trkpt lat="43.09611" lon="5.93266">
        <ele>-1.79</ele>
        <time>2019-05-26T10:25:57Z</time>
      </trkpt>
      <trkpt lat="43.0963" lon="5.93319">
        <ele>-1.79</ele>
        <time>2019-05-26T10:26:13Z</time>
      </trkpt>
      <trkpt lat="43.09654" lon="5.93292">
        <ele>-1.79</ele>
        <time>2019-05-26T10:26:27Z</time>
      </trkpt>
      <trkpt lat="43.09696" lon="5.93248">
        <ele>-1.3</ele>
        <time>2019-05-26T10:26:49Z</time>
      </trkpt>
      <trkpt lat="43.09752" lon="5.93189">
        <ele>-2.27</ele>
        <time>2019-05-26T10:27:14Z</time>
      </trkpt>
      <trkpt lat="43.09782" lon="5.93177">
        <ele>-1.79</ele>
        <time>2019-05-26T10:27:30Z</time>
      </trkpt>
      <trkpt lat="43.0979" lon="5.93226">
        <ele>-1.3</ele>
        <time>2019-05-26T10:27:47Z</time>
      </trkpt>
      <trkpt lat="43.09786" lon="5.9331">
        <ele>-0.82</ele>
        <time>2019-05-26T10:28:12Z</time>
      </trkpt>
      <trkpt lat="43.09761" lon="5.93384">
        <ele>-1.79</ele>
        <time>2019-05-26T10:28:35Z</time>
      </trkpt>
      <trkpt lat="43.09727" lon="5.93437">
        <ele>-0.82</ele>
        <time>2019-05-26T10:28:55Z</time>
      </trkpt>
      <trkpt lat="43.09682" lon="5.93492">
        <ele>-1.79</ele>
        <time>2019-05-26T10:29:20Z</time>
      </trkpt>
      <trkpt lat="43.09641" lon="5.9354">
        <ele>-1.79</ele>
        <time>2019-05-26T10:29:43Z</time>
      </trkpt>
      <trkpt lat="43.09623" lon="5.93585">
        <ele>-1.79</ele>
        <time>2019-05-26T10:30:00Z</time>
      </trkpt>
      <trkpt lat="43.09632" lon="5.93667">
        <ele>-1.3</ele>
        <time>2019-05-26T10:30:23Z</time>
      </trkpt>
      <trkpt lat="43.09654" lon="5.93754">
        <ele>-0.82</ele>
        <time>2019-05-26T10:30:45Z</time>
      </trkpt>
      <trkpt lat="43.09672" lon="5.93827">
        <ele>-0.34</ele>
        <time>2019-05-26T10:31:05Z</time>
      </trkpt>
      <trkpt lat="43.09688" lon="5.93913">
        <ele>-1.3</ele>
        <time>2019-05-26T10:31:28Z</time>
      </trkpt>
      <trkpt lat="43.09705" lon="5.94007">
        <ele>-1.3</ele>
        <time>2019-05-26T10:31:51Z</time>
      </trkpt>
      <trkpt lat="43.09722" lon="5.94101">
        <ele>-1.3</ele>
        <time>2019-05-26T10:32:14Z</time>
      </trkpt>
      <trkpt lat="43.09738" lon="5.94179">
        <ele>-1.3</ele>
        <time>2019-05-26T10:32:34Z</time>
      </trkpt>
      <trkpt lat="43.09753" lon="5.9427">
        <ele>-1.79</ele>
        <time>2019-05-26T10:32:56Z</time>
      </trkpt>
      <trkpt lat="43.09758" lon="5.94346">
        <ele>-2.27</ele>
        <time>2019-05-26T10:33:15Z</time>
      </trkpt>
      <trkpt lat="43.09754" lon="5.94428">
        <ele>-1.79</ele>
        <time>2019-05-26T10:33:36Z</time>
      </trkpt>
      <trkpt lat="43.09752" lon="5.94491">
        <ele>-0.82</ele>
        <time>2019-05-26T10:33:54Z</time>
      </trkpt>
      <trkpt lat="43.09752" lon="5.94556">
        <ele>-1.79</ele>
        <time>2019-05-26T10:34:14Z</time>
      </trkpt>
      <trkpt lat="43.09759" lon="5.94617">
        <ele>-2.27</ele>
        <time>2019-05-26T10:34:33Z</time>
      </trkpt>
      <trkpt lat="43.09772" lon="5.94686">
        <ele>-2.27</ele>
        <time>2019-05-26T10:34:52Z</time>
      </trkpt>
      <trkpt lat="43.09791" lon="5.94755">
        <ele>-2.27</ele>
        <time>2019-05-26T10:35:10Z</time>
      </trkpt>
      <trkpt lat="43.09814" lon="5.94745">
        <ele>-1.79</ele>
        <time>2019-05-26T10:35:22Z</time>
      </trkpt>
      <trkpt lat="43.09837" lon="5.94692">
        <ele>-2.27</ele>
        <time>2019-05-26T10:35:41Z</time>
      </trkpt>
      <trkpt lat="43.09843" lon="5.94601">
        <ele>-1.79</ele>
        <time>2019-05-26T10:36:05Z</time>
      </trkpt>
      <trkpt lat="43.09851" lon="5.94516">
        <ele>-1.3</ele>
        <time>2019-05-26T10:36:29Z</time>
      </trkpt>
      <trkpt lat="43.09855" lon="5.94446">
        <ele>-1.3</ele>
        <time>2019-05-26T10:36:48Z</time>
      </trkpt>
      <trkpt lat="43.09859" lon="5.94358">
        <ele>-1.3</ele>
        <time>2019-05-26T10:37:13Z</time>
      </trkpt>
      <trkpt lat="43.09862" lon="5.94268">
        <ele>-1.79</ele>
        <time>2019-05-26T10:37:38Z</time>
      </trkpt>
      <trkpt lat="43.09875" lon="5.94186">
        <ele>-0.82</ele>
        <time>2019-05-26T10:37:59Z</time>
      </trkpt>
      <trkpt lat="43.09879" lon="5.94102">
        <ele>-0.82</ele>
        <time>2019-05-26T10:38:20Z</time>
      </trkpt>
      <trkpt lat="43.09878" lon="5.94027">
        <ele>-1.3</ele>
        <time>2019-05-26T10:38:42Z</time>
      </trkpt>
      <trkpt lat="43.09884" lon="5.93965">
        <ele>-0.82</ele>
        <time>2019-05-26T10:39:03Z</time>
      </trkpt>
      <trkpt lat="43.09903" lon="5.93961">
        <ele>-1.3</ele>
        <time>2019-05-26T10:39:19Z</time>
      </trkpt>
      <trkpt lat="43.09918" lon="5.93993">
        <ele>-2.27</ele>
        <time>2019-05-26T10:39:41Z</time>
      </trkpt>
      <trkpt lat="43.09919" lon="5.94048">
        <ele>-3.23</ele>
        <time>2019-05-26T10:40:01Z</time>
      </trkpt>
      <trkpt lat="43.09915" lon="5.94114">
        <ele>-2.27</ele>
        <time>2019-05-26T10:40:21Z</time>
      </trkpt>
      <trkpt lat="43.09916" lon="5.94195">
        <ele>-1.79</ele>
        <time>2019-05-26T10:40:43Z</time>
      </trkpt>
      <trkpt lat="43.09913" lon="5.94265">
        <ele>-2.27</ele>
        <time>2019-05-26T10:41:02Z</time>
      </trkpt>
      <trkpt lat="43.09903" lon="5.94328">
        <ele>-2.27</ele>
        <time>2019-05-26T10:41:20Z</time>
      </trkpt>
      <trkpt lat="43.09894" lon="5.94401">
        <ele>-1.79</ele>
        <time>2019-05-26T10:41:42Z</time>
      </trkpt>
      <trkpt lat="43.09888" lon="5.94463">
        <ele>-1.3</ele>
        <time>2019-05-26T10:42:01Z</time>
      </trkpt>
      <trkpt lat="43.09878" lon="5.94537">
        <ele>-1.79</ele>
        <time>2019-05-26T10:42:24Z</time>
      </trkpt>
      <trkpt lat="43.09869" lon="5.94591">
        <ele>-1.79</ele>
        <time>2019-05-26T10:42:40Z</time>
      </trkpt>
      <trkpt lat="43.09864" lon="5.94656">
        <ele>-0.82</ele>
        <time>2019-05-26T10:42:58Z</time>
      </trkpt>
      <trkpt lat="43.09856" lon="5.94743">
        <ele>-0.82</ele>
        <time>2019-05-26T10:43:19Z</time>
      </trkpt>
      <trkpt lat="43.09869" lon="5.94793">
        <ele>-0.82</ele>
        <time>2019-05-26T10:43:34Z</time>
      </trkpt>
      <trkpt lat="43.09887" lon="5.9478">
        <ele>-0.34</ele>
        <time>2019-05-26T10:43:47Z</time>
      </trkpt>
      <trkpt lat="43.09888" lon="5.94719">
        <ele>-0.34</ele>
        <time>2019-05-26T10:44:08Z</time>
      </trkpt>
      <trkpt lat="43.09877" lon="5.9463">
        <ele>-0.34</ele>
        <time>2019-05-26T10:44:32Z</time>
      </trkpt>
      <trkpt lat="43.09852" lon="5.94544">
        <ele>0.62</ele>
        <time>2019-05-26T10:44:57Z</time>
      </trkpt>
      <trkpt lat="43.09831" lon="5.94474">
        <ele>1.1</ele>
        <time>2019-05-26T10:45:18Z</time>
      </trkpt>
      <trkpt lat="43.09832" lon="5.94379">
        <ele>1.58</ele>
        <time>2019-05-26T10:45:42Z</time>
      </trkpt>
      <trkpt lat="43.09839" lon="5.94288">
        <ele>2.06</ele>
        <time>2019-05-26T10:46:06Z</time>
      </trkpt>
      <trkpt lat="43.09847" lon="5.94207">
        <ele>2.54</ele>
        <time>2019-05-26T10:46:29Z</time>
      </trkpt>
      <trkpt lat="43.09851" lon="5.94121">
        <ele>1.1</ele>
        <time>2019-05-26T10:46:53Z</time>
      </trkpt>
      <trkpt lat="43.09857" lon="5.94062">
        <ele>1.1</ele>
        <time>2019-05-26T10:47:12Z</time>
      </trkpt>
      <trkpt lat="43.0988" lon="5.94051">
        <ele>0.14</ele>
        <time>2019-05-26T10:47:27Z</time>
      </trkpt>
      <trkpt lat="43.09889" lon="5.94022">
        <ele>0.14</ele>
        <time>2019-05-26T10:47:45Z</time>
      </trkpt>
      <trkpt lat="43.09883" lon="5.93967">
        <ele>-0.82</ele>
        <time>2019-05-26T10:48:06Z</time>
      </trkpt>
      <trkpt lat="43.09868" lon="5.93903">
        <ele>1.1</ele>
        <time>2019-05-26T10:48:27Z</time>
      </trkpt>
      <trkpt lat="43.09854" lon="5.93841">
        <ele>0.14</ele>
        <time>2019-05-26T10:48:49Z</time>
      </trkpt>
      <trkpt lat="43.0986" lon="5.93794">
        <ele>-0.34</ele>
        <time>2019-05-26T10:49:06Z</time>
      </trkpt>
      <trkpt lat="43.09882" lon="5.93782">
        <ele>-0.82</ele>
        <time>2019-05-26T10:49:23Z</time>
      </trkpt>
      <trkpt lat="43.09883" lon="5.93753">
        <ele>0.14</ele>
        <time>2019-05-26T10:49:40Z</time>
      </trkpt>
      <trkpt lat="43.09873" lon="5.937">
        <ele>1.1</ele>
        <time>2019-05-26T10:50:04Z</time>
      </trkpt>
      <trkpt lat="43.09866" lon="5.93645">
        <ele>1.1</ele>
        <time>2019-05-26T10:50:24Z</time>
      </trkpt>
      <trkpt lat="43.09886" lon="5.93647">
        <ele>-0.34</ele>
        <time>2019-05-26T10:50:39Z</time>
      </trkpt>
      <trkpt lat="43.09897" lon="5.93675">
        <ele>-0.34</ele>
        <time>2019-05-26T10:50:57Z</time>
      </trkpt>
      <trkpt lat="43.09891" lon="5.93724">
        <ele>-0.34</ele>
        <time>2019-05-26T10:51:19Z</time>
      </trkpt>
      <trkpt lat="43.09887" lon="5.93773">
        <ele>0.62</ele>
        <time>2019-05-26T10:51:40Z</time>
      </trkpt>
      <trkpt lat="43.09883" lon="5.93818">
        <ele>0.62</ele>
        <time>2019-05-26T10:52:02Z</time>
      </trkpt>
      <trkpt lat="43.0988" lon="5.93873">
        <ele>1.1</ele>
        <time>2019-05-26T10:52:26Z</time>
      </trkpt>
      <trkpt lat="43.09876" lon="5.93949">
        <ele>0.62</ele>
        <time>2019-05-26T10:52:49Z</time>
      </trkpt>
      <trkpt lat="43.09867" lon="5.94026">
        <ele>-0.82</ele>
        <time>2019-05-26T10:53:13Z</time>
      </trkpt>
      <trkpt lat="43.09856" lon="5.94078">
        <ele>-0.82</ele>
        <time>2019-05-26T10:53:34Z</time>
      </trkpt>
      <trkpt lat="43.09847" lon="5.94126">
        <ele>-1.3</ele>
        <time>2019-05-26T10:53:56Z</time>
      </trkpt>
      <trkpt lat="43.09846" lon="5.94174">
        <ele>-1.79</ele>
        <time>2019-05-26T10:54:15Z</time>
      </trkpt>
      <trkpt lat="43.09861" lon="5.94193">
        <ele>-0.82</ele>
        <time>2019-05-26T10:54:27Z</time>
      </trkpt>
      <trkpt lat="43.09859" lon="5.94166">
        <ele>-0.34</ele>
        <time>2019-05-26T10:54:39Z</time>
      </trkpt>
      <trkpt lat="43.09842" lon="5.94108">
        <ele>-0.34</ele>
        <time>2019-05-26T10:55:02Z</time>
      </trkpt>
      <trkpt lat="43.0983" lon="5.94053">
        <ele>-0.82</ele>
        <time>2019-05-26T10:55:24Z</time>
      </trkpt>
      <trkpt lat="43.09822" lon="5.93989">
        <ele>-0.82</ele>
        <time>2019-05-26T10:55:50Z</time>
      </trkpt>
      <trkpt lat="43.09824" lon="5.9394">
        <ele>0.62</ele>
        <time>2019-05-26T10:56:12Z</time>
      </trkpt>
      <trkpt lat="43.09818" lon="5.93894">
        <ele>-0.34</ele>
        <time>2019-05-26T10:56:35Z</time>
      </trkpt>
      <trkpt lat="43.09817" lon="5.93855">
        <ele>0.14</ele>
        <time>2019-05-26T10:56:58Z</time>
      </trkpt>
      <trkpt lat="43.09839" lon="5.9386">
        <ele>-1.3</ele>
        <time>2019-05-26T10:57:16Z</time>
      </trkpt>
      <trkpt lat="43.09884" lon="5.93878">
        <ele>-0.34</ele>
        <time>2019-05-26T10:57:46Z</time>
      </trkpt>
      <trkpt lat="43.09904" lon="5.93908">
        <ele>-0.34</ele>
        <time>2019-05-26T10:58:07Z</time>
      </trkpt>
      <trkpt lat="43.09887" lon="5.93952">
        <ele>-1.3</ele>
        <time>2019-05-26T10:58:23Z</time>
      </trkpt>
      <trkpt lat="43.09853" lon="5.94012">
        <ele>-1.79</ele>
        <time>2019-05-26T10:58:44Z</time>
      </trkpt>
      <trkpt lat="43.09817" lon="5.94037">
        <ele>-0.34</ele>
        <time>2019-05-26T10:59:00Z</time>
      </trkpt>
      <trkpt lat="43.09787" lon="5.94009">
        <ele>-1.3</ele>
        <time>2019-05-26T10:59:19Z</time>
      </trkpt>
      <trkpt lat="43.09764" lon="5.93962">
        <ele>-1.79</ele>
        <time>2019-05-26T10:59:41Z</time>
      </trkpt>
      <trkpt lat="43.0973" lon="5.93912">
        <ele>-2.27</ele>
        <time>2019-05-26T11:00:05Z</time>
      </trkpt>
      <trkpt lat="43.09693" lon="5.93857">
        <ele>-3.23</ele>
        <time>2019-05-26T11:00:30Z</time>
      </trkpt>
      <trkpt lat="43.09664" lon="5.93806">
        <ele>-3.23</ele>
        <time>2019-05-26T11:00:53Z</time>
      </trkpt>
      <trkpt lat="43.09629" lon="5.93743">
        <ele>-3.23</ele>
        <time>2019-05-26T11:01:21Z</time>
      </trkpt>
      <trkpt lat="43.096" lon="5.9369">
        <ele>-2.75</ele>
        <time>2019-05-26T11:01:44Z</time>
      </trkpt>
      <trkpt lat="43.09587" lon="5.93636">
        <ele>-2.75</ele>
        <time>2019-05-26T11:02:05Z</time>
      </trkpt>
      <trkpt lat="43.09574" lon="5.93576">
        <ele>-2.27</ele>
        <time>2019-05-26T11:02:31Z</time>
      </trkpt>
      <trkpt lat="43.0958" lon="5.93557">
        <ele>-1.79</ele>
        <time>2019-05-26T11:02:46Z</time>
      </trkpt>
      <trkpt lat="43.09606" lon="5.93569">
        <ele>-2.27</ele>
        <time>2019-05-26T11:03:07Z</time>
      </trkpt>
      <trkpt lat="43.09646" lon="5.93582">
        <ele>-3.23</ele>
        <time>2019-05-26T11:03:31Z</time>
      </trkpt>
      <trkpt lat="43.09685" lon="5.93611">
        <ele>-3.71</ele>
        <time>2019-05-26T11:03:53Z</time>
      </trkpt>
      <trkpt lat="43.09736" lon="5.93654">
        <ele>-3.23</ele>
        <time>2019-05-26T11:04:18Z</time>
      </trkpt>
      <trkpt lat="43.09782" lon="5.93706">
        <ele>-1.79</ele>
        <time>2019-05-26T11:04:43Z</time>
      </trkpt>
      <trkpt lat="43.09822" lon="5.93752">
        <ele>-0.34</ele>
        <time>2019-05-26T11:05:07Z</time>
      </trkpt>
      <trkpt lat="43.09858" lon="5.93794">
        <ele>-0.34</ele>
        <time>2019-05-26T11:05:29Z</time>
      </trkpt>
      <trkpt lat="43.09902" lon="5.93842">
        <ele>0.14</ele>
        <time>2019-05-26T11:05:58Z</time>
      </trkpt>
      <trkpt lat="43.09937" lon="5.93884">
        <ele>0.62</ele>
        <time>2019-05-26T11:06:26Z</time>
      </trkpt>
      <trkpt lat="43.09966" lon="5.93917">
        <ele>0.62</ele>
        <time>2019-05-26T11:06:50Z</time>
      </trkpt>
      <trkpt lat="43.09996" lon="5.93953">
        <ele>0.62</ele>
        <time>2019-05-26T11:07:16Z</time>
      </trkpt>
      <trkpt lat="43.1002" lon="5.9398">
        <ele>-0.34</ele>
        <time>2019-05-26T11:07:40Z</time>
      </trkpt>
      <trkpt lat="43.10043" lon="5.94006">
        <ele>-0.34</ele>
        <time>2019-05-26T11:08:04Z</time>
      </trkpt>
      <trkpt lat="43.10063" lon="5.9403">
        <ele>-0.34</ele>
        <time>2019-05-26T11:08:28Z</time>
      </trkpt>
      <trkpt lat="43.10094" lon="5.94061">
        <ele>-2.27</ele>
        <time>2019-05-26T11:08:57Z</time>
      </trkpt>
      <trkpt lat="43.10118" lon="5.94091">
        <ele>-2.27</ele>
        <time>2019-05-26T11:09:20Z</time>
      </trkpt>
      <trkpt lat="43.10144" lon="5.94125">
        <ele>-1.79</ele>
        <time>2019-05-26T11:09:44Z</time>
      </trkpt>
      <trkpt lat="43.10167" lon="5.94163">
        <ele>-1.79</ele>
        <time>2019-05-26T11:10:06Z</time>
      </trkpt>
      <trkpt lat="43.10194" lon="5.94208">
        <ele>-1.3</ele>
        <time>2019-05-26T11:10:30Z</time>
      </trkpt>
      <trkpt lat="43.1021" lon="5.94244">
        <ele>-0.82</ele>
        <time>2019-05-26T11:10:50Z</time>
      </trkpt>
      <trkpt lat="43.10202" lon="5.94272">
        <ele>-0.34</ele>
        <time>2019-05-26T11:11:07Z</time>
      </trkpt>
      <trkpt lat="43.10182" lon="5.943">
        <ele>-0.82</ele>
        <time>2019-05-26T11:11:30Z</time>
      </trkpt>
      <trkpt lat="43.10162" lon="5.94322">
        <ele>-1.3</ele>
        <time>2019-05-26T11:11:52Z</time>
      </trkpt>
      <trkpt lat="43.10138" lon="5.94349">
        <ele>-1.79</ele>
        <time>2019-05-26T11:12:18Z</time>
      </trkpt>
      <trkpt lat="43.10114" lon="5.94376">
        <ele>-1.79</ele>
        <time>2019-05-26T11:12:44Z</time>
      </trkpt>
      <trkpt lat="43.10097" lon="5.94395">
        <ele>-1.3</ele>
        <time>2019-05-26T11:13:04Z</time>
      </trkpt>
      <trkpt lat="43.10075" lon="5.94418">
        <ele>-0.34</ele>
        <time>2019-05-26T11:13:30Z</time>
      </trkpt>
      <trkpt lat="43.10058" lon="5.94437">
        <ele>0.14</ele>
        <time>2019-05-26T11:13:54Z</time>
      </trkpt>
      <trkpt lat="43.10042" lon="5.94452">
        <ele>-0.82</ele>
        <time>2019-05-26T11:14:18Z</time>
      </trkpt>
      <trkpt lat="43.10028" lon="5.94469">
        <ele>0.14</ele>
        <time>2019-05-26T11:14:42Z</time>
      </trkpt>
      <trkpt lat="43.10013" lon="5.94485">
        <ele>-0.34</ele>
        <time>2019-05-26T11:15:10Z</time>
      </trkpt>
      <trkpt lat="43.10001" lon="5.94497">
        <ele>-0.82</ele>
        <time>2019-05-26T11:15:34Z</time>
      </trkpt>
      <trkpt lat="43.0999" lon="5.9451">
        <ele>-0.34</ele>
        <time>2019-05-26T11:15:59Z</time>
      </trkpt>
      <trkpt lat="43.09977" lon="5.94524">
        <ele>-0.82</ele>
        <time>2019-05-26T11:16:27Z</time>
      </trkpt>
      <trkpt lat="43.09966" lon="5.94537">
        <ele>-1.3</ele>
        <time>2019-05-26T11:16:54Z</time>
      </trkpt>
      <trkpt lat="43.09954" lon="5.94549">
        <ele>-1.3</ele>
        <time>2019-05-26T11:17:22Z</time>
      </trkpt>
      <trkpt lat="43.09945" lon="5.94561">
        <ele>-2.27</ele>
        <time>2019-05-26T11:17:50Z</time>
      </trkpt>
      <trkpt lat="43.09942" lon="5.94564">
        <ele>-1.3</ele>
        <time>2019-05-26T11:18:12Z</time>
      </trkpt>
      <trkpt lat="43.09939" lon="5.94569">
        <ele>-2.27</ele>
        <time>2019-05-26T11:18:35Z</time>
      </trkpt>
      <trkpt lat="43.09937" lon="5.94573">
        <ele>-2.75</ele>
        <time>2019-05-26T11:18:55Z</time>
      </trkpt>
      <trkpt lat="43.09934" lon="5.94578">
        <ele>-3.23</ele>
        <time>2019-05-26T11:19:20Z</time>
      </trkpt>
      <trkpt lat="43.09931" lon="5.94584">
        <ele>-2.27</ele>
        <time>2019-05-26T11:19:45Z</time>
      </trkpt>
      <trkpt lat="43.09915" lon="5.94607">
        <ele>-3.23</ele>
        <time>2019-05-26T11:20:07Z</time>
      </trkpt>
      <trkpt lat="43.09887" lon="5.94634">
        <ele>-1.79</ele>
        <time>2019-05-26T11:20:30Z</time>
      </trkpt>
      <trkpt lat="43.09867" lon="5.94661">
        <ele>-0.82</ele>
        <time>2019-05-26T11:21:00Z</time>
      </trkpt>
      <trkpt lat="43.09852" lon="5.94683">
        <ele>-0.82</ele>
        <time>2019-05-26T11:21:26Z</time>
      </trkpt>
      <trkpt lat="43.09837" lon="5.94704">
        <ele>-0.34</ele>
        <time>2019-05-26T11:21:50Z</time>
      </trkpt>
      <trkpt lat="43.09822" lon="5.94726">
        <ele>-0.34</ele>
        <time>2019-05-26T11:22:14Z</time>
      </trkpt>
      <trkpt lat="43.09805" lon="5.94749">
        <ele>-0.82</ele>
        <time>2019-05-26T11:22:40Z</time>
      </trkpt>
      <trkpt lat="43.09792" lon="5.94769">
        <ele>-0.82</ele>
        <time>2019-05-26T11:23:04Z</time>
      </trkpt>
      <trkpt lat="43.09782" lon="5.94789">
        <ele>-0.34</ele>
        <time>2019-05-26T11:23:28Z</time>
      </trkpt>
      <trkpt lat="43.09773" lon="5.94805">
        <ele>-0.34</ele>
        <time>2019-05-26T11:23:52Z</time>
      </trkpt>
      <trkpt lat="43.09765" lon="5.94819">
        <ele>-1.79</ele>
        <time>2019-05-26T11:24:16Z</time>
      </trkpt>
      <trkpt lat="43.09755" lon="5.94835">
        <ele>-1.3</ele>
        <time>2019-05-26T11:24:42Z</time>
      </trkpt>
      <trkpt lat="43.09743" lon="5.94852">
        <ele>0.62</ele>
        <time>2019-05-26T11:25:09Z</time>
      </trkpt>
      <trkpt lat="43.09734" lon="5.94865">
        <ele>0.62</ele>
        <time>2019-05-26T11:25:35Z</time>
      </trkpt>
      <trkpt lat="43.09724" lon="5.94878">
        <ele>0.62</ele>
        <time>2019-05-26T11:26:01Z</time>
      </trkpt>
      <trkpt lat="43.09715" lon="5.94892">
        <ele>-0.34</ele>
        <time>2019-05-26T11:26:27Z</time>
      </trkpt>
      <trkpt lat="43.09706" lon="5.94904">
        <ele>-0.82</ele>
        <time>2019-05-26T11:26:55Z</time>
      </trkpt>
      <trkpt lat="43.09698" lon="5.9492">
        <ele>-2.27</ele>
        <time>2019-05-26T11:27:26Z</time>
      </trkpt>
      <trkpt lat="43.0969" lon="5.94937">
        <ele>-3.23</ele>
        <time>2019-05-26T11:27:51Z</time>
      </trkpt>
      <trkpt lat="43.09678" lon="5.94957">
        <ele>-2.27</ele>
        <time>2019-05-26T11:28:23Z</time>
      </trkpt>
      <trkpt lat="43.09668" lon="5.94977">
        <ele>-1.3</ele>
        <time>2019-05-26T11:28:50Z</time>
      </trkpt>
      <trkpt lat="43.0966" lon="5.94992">
        <ele>-2.27</ele>
        <time>2019-05-26T11:29:14Z</time>
      </trkpt>
      <trkpt lat="43.0965" lon="5.95005">
        <ele>-1.79</ele>
        <time>2019-05-26T11:29:40Z</time>
      </trkpt>
      <trkpt lat="43.09642" lon="5.95019">
        <ele>-1.79</ele>
        <time>2019-05-26T11:30:03Z</time>
      </trkpt>
      <trkpt lat="43.09633" lon="5.95031">
        <ele>-1.79</ele>
        <time>2019-05-26T11:30:26Z</time>
      </trkpt>
      <trkpt lat="43.09625" lon="5.95044">
        <ele>-1.79</ele>
        <time>2019-05-26T11:30:49Z</time>
      </trkpt>
      <trkpt lat="43.09616" lon="5.95061">
        <ele>-1.79</ele>
        <time>2019-05-26T11:31:13Z</time>
      </trkpt>
      <trkpt lat="43.09601" lon="5.9509">
        <ele>-2.27</ele>
        <time>2019-05-26T11:31:44Z</time>
      </trkpt>
      <trkpt lat="43.09586" lon="5.95116">
        <ele>-2.27</ele>
        <time>2019-05-26T11:32:12Z</time>
      </trkpt>
      <trkpt lat="43.09571" lon="5.9514">
        <ele>-1.79</ele>
        <time>2019-05-26T11:32:38Z</time>
      </trkpt>
      <trkpt lat="43.09555" lon="5.95165">
        <ele>-2.27</ele>
        <time>2019-05-26T11:33:05Z</time>
      </trkpt>
      <trkpt lat="43.09541" lon="5.95191">
        <ele>-2.27</ele>
        <time>2019-05-26T11:33:28Z</time>
      </trkpt>
      <trkpt lat="43.09526" lon="5.95213">
        <ele>-1.3</ele>
        <time>2019-05-26T11:33:51Z</time>
      </trkpt>
      <trkpt lat="43.09508" lon="5.95243">
        <ele>-2.27</ele>
        <time>2019-05-26T11:34:18Z</time>
      </trkpt>
      <trkpt lat="43.09493" lon="5.95265">
        <ele>-1.79</ele>
        <time>2019-05-26T11:34:40Z</time>
      </trkpt>
      <trkpt lat="43.09476" lon="5.95292">
        <ele>-2.27</ele>
        <time>2019-05-26T11:35:05Z</time>
      </trkpt>
      <trkpt lat="43.09459" lon="5.95317">
        <ele>-1.79</ele>
        <time>2019-05-26T11:35:28Z</time>
      </trkpt>
      <trkpt lat="43.09445" lon="5.95338">
        <ele>-1.3</ele>
        <time>2019-05-26T11:35:48Z</time>
      </trkpt>
      <trkpt lat="43.09426" lon="5.95367">
        <ele>-1.79</ele>
        <time>2019-05-26T11:36:14Z</time>
      </trkpt>
      <trkpt lat="43.0941" lon="5.95392">
        <ele>-0.34</ele>
        <time>2019-05-26T11:36:36Z</time>
      </trkpt>
      <trkpt lat="43.09391" lon="5.95424">
        <ele>-0.82</ele>
        <time>2019-05-26T11:37:01Z</time>
      </trkpt>
      <trkpt lat="43.09372" lon="5.95457">
        <ele>-1.79</ele>
        <time>2019-05-26T11:37:26Z</time>
      </trkpt>
      <trkpt lat="43.09356" lon="5.95488">
        <ele>-1.79</ele>
        <time>2019-05-26T11:37:51Z</time>
      </trkpt>
      <trkpt lat="43.0934" lon="5.95518">
        <ele>-1.79</ele>
        <time>2019-05-26T11:38:19Z</time>
      </trkpt>
      <trkpt lat="43.09328" lon="5.9554">
        <ele>-1.79</ele>
        <time>2019-05-26T11:38:43Z</time>
      </trkpt>
      <trkpt lat="43.0932" lon="5.95557">
        <ele>-1.79</ele>
        <time>2019-05-26T11:39:03Z</time>
      </trkpt>
      <trkpt lat="43.09313" lon="5.95571">
        <ele>-1.3</ele>
        <time>2019-05-26T11:39:26Z</time>
      </trkpt>
      <trkpt lat="43.09307" lon="5.95583">
        <ele>-1.3</ele>
        <time>2019-05-26T11:39:46Z</time>
      </trkpt>
      <trkpt lat="43.09299" lon="5.95593">
        <ele>-0.82</ele>
        <time>2019-05-26T11:40:11Z</time>
      </trkpt>
      <trkpt lat="43.09293" lon="5.95603">
        <ele>-0.34</ele>
        <time>2019-05-26T11:40:36Z</time>
      </trkpt>
      <trkpt lat="43.0929" lon="5.95612">
        <ele>-0.34</ele>
        <time>2019-05-26T11:40:59Z</time>
      </trkpt>
      <trkpt lat="43.09288" lon="5.95619">
        <ele>-0.82</ele>
        <time>2019-05-26T11:41:24Z</time>
      </trkpt>
      <trkpt lat="43.09286" lon="5.95625">
        <ele>-0.82</ele>
        <time>2019-05-26T11:41:45Z</time>
      </trkpt>
      <trkpt lat="43.09285" lon="5.9563">
        <ele>-0.34</ele>
        <time>2019-05-26T11:42:03Z</time>
      </trkpt>
      <trkpt lat="43.09283" lon="5.95636">
        <ele>0.14</ele>
        <time>2019-05-26T11:42:20Z</time>
      </trkpt>
      <trkpt lat="43.09281" lon="5.95641">
        <ele>-0.34</ele>
        <time>2019-05-26T11:42:38Z</time>
      </trkpt>
      <trkpt lat="43.0928" lon="5.95644">
        <ele>-0.82</ele>
        <time>2019-05-26T11:42:58Z</time>
      </trkpt>
      <trkpt lat="43.09279" lon="5.95648">
        <ele>-1.3</ele>
        <time>2019-05-26T11:43:18Z</time>
      </trkpt>
      <trkpt lat="43.09278" lon="5.95652">
        <ele>-0.82</ele>
        <time>2019-05-26T11:43:40Z</time>
      </trkpt>
      <trkpt lat="43.09276" lon="5.95658">
        <ele>-0.82</ele>
        <time>2019-05-26T11:44:05Z</time>
      </trkpt>
      <trkpt lat="43.09274" lon="5.95662">
        <ele>-0.82</ele>
        <time>2019-05-26T11:44:25Z</time>
      </trkpt>
      <trkpt lat="43.09271" lon="5.95669">
        <ele>-0.34</ele>
        <time>2019-05-26T11:44:44Z</time>
      </trkpt>
      <trkpt lat="43.09269" lon="5.95672">
        <ele>-0.82</ele>
        <time>2019-05-26T11:45:04Z</time>
      </trkpt>
      <trkpt lat="43.09267" lon="5.95679">
        <ele>0.14</ele>
        <time>2019-05-26T11:45:26Z</time>
      </trkpt>
      <trkpt lat="43.09266" lon="5.95684">
        <ele>1.1</ele>
        <time>2019-05-26T11:45:45Z</time>
      </trkpt>
      <trkpt lat="43.09263" lon="5.95692">
        <ele>1.58</ele>
        <time>2019-05-26T11:46:08Z</time>
      </trkpt>
      <trkpt lat="43.09258" lon="5.95705">
        <ele>0.62</ele>
        <time>2019-05-26T11:46:35Z</time>
      </trkpt>
      <trkpt lat="43.09253" lon="5.95713">
        <ele>0.14</ele>
        <time>2019-05-26T11:47:00Z</time>
      </trkpt>
      <trkpt lat="43.09247" lon="5.95723">
        <ele>-0.34</ele>
        <time>2019-05-26T11:47:29Z</time>
      </trkpt>
      <trkpt lat="43.09242" lon="5.95729">
        <ele>0.62</ele>
        <time>2019-05-26T11:47:58Z</time>
      </trkpt>
      <trkpt lat="43.09236" lon="5.95738">
        <ele>-0.34</ele>
        <time>2019-05-26T11:48:22Z</time>
      </trkpt>
      <trkpt lat="43.09232" lon="5.95744">
        <ele>-1.3</ele>
        <time>2019-05-26T11:48:43Z</time>
      </trkpt>
      <trkpt lat="43.09227" lon="5.95753">
        <ele>-0.34</ele>
        <time>2019-05-26T11:49:08Z</time>
      </trkpt>
      <trkpt lat="43.09223" lon="5.95759">
        <ele>-0.34</ele>
        <time>2019-05-26T11:49:30Z</time>
      </trkpt>
      <trkpt lat="43.09218" lon="5.95768">
        <ele>-0.82</ele>
        <time>2019-05-26T11:49:56Z</time>
      </trkpt>
      <trkpt lat="43.09215" lon="5.95773">
        <ele>-0.82</ele>
        <time>2019-05-26T11:50:20Z</time>
      </trkpt>
      <trkpt lat="43.09212" lon="5.95777">
        <ele>-1.3</ele>
        <time>2019-05-26T11:50:48Z</time>
      </trkpt>
      <trkpt lat="43.09211" lon="5.9578">
        <ele>-1.79</ele>
        <time>2019-05-26T11:51:13Z</time>
      </trkpt>
      <trkpt lat="43.09207" lon="5.95786">
        <ele>-2.75</ele>
        <time>2019-05-26T11:51:35Z</time>
      </trkpt>
      <trkpt lat="43.09203" lon="5.95793">
        <ele>-3.71</ele>
        <time>2019-05-26T11:52:01Z</time>
      </trkpt>
      <trkpt lat="43.09199" lon="5.95801">
        <ele>-4.19</ele>
        <time>2019-05-26T11:52:27Z</time>
      </trkpt>
      <trkpt lat="43.09195" lon="5.9581">
        <ele>-4.19</ele>
        <time>2019-05-26T11:52:53Z</time>
      </trkpt>
      <trkpt lat="43.0919" lon="5.95821">
        <ele>-5.15</ele>
        <time>2019-05-26T11:53:18Z</time>
      </trkpt>
      <trkpt lat="43.09189" lon="5.95829">
        <ele>-5.15</ele>
        <time>2019-05-26T11:53:40Z</time>
      </trkpt>
      <trkpt lat="43.09187" lon="5.95835">
        <ele>-6.11</ele>
        <time>2019-05-26T11:53:58Z</time>
      </trkpt>
      <trkpt lat="43.09182" lon="5.95844">
        <ele>-7.07</ele>
        <time>2019-05-26T11:54:22Z</time>
      </trkpt>
      <trkpt lat="43.09173" lon="5.95857">
        <ele>-7.07</ele>
        <time>2019-05-26T11:54:39Z</time>
      </trkpt>
      <trkpt lat="43.09149" lon="5.95879">
        <ele>-5.63</ele>
        <time>2019-05-26T11:55:02Z</time>
      </trkpt>
      <trkpt lat="43.0913" lon="5.95897">
        <ele>-3.71</ele>
        <time>2019-05-26T11:55:25Z</time>
      </trkpt>
      <trkpt lat="43.09117" lon="5.95912">
        <ele>-2.75</ele>
        <time>2019-05-26T11:55:47Z</time>
      </trkpt>
      <trkpt lat="43.09102" lon="5.95925">
        <ele>-2.27</ele>
        <time>2019-05-26T11:56:12Z</time>
      </trkpt>
      <trkpt lat="43.09089" lon="5.95932">
        <ele>-2.27</ele>
        <time>2019-05-26T11:56:32Z</time>
      </trkpt>
      <trkpt lat="43.09074" lon="5.9594">
        <ele>-2.27</ele>
        <time>2019-05-26T11:56:56Z</time>
      </trkpt>
      <trkpt lat="43.09061" lon="5.95948">
        <ele>-2.75</ele>
        <time>2019-05-26T11:57:15Z</time>
      </trkpt>
      <trkpt lat="43.09047" lon="5.95953">
        <ele>-2.27</ele>
        <time>2019-05-26T11:57:34Z</time>
      </trkpt>
      <trkpt lat="43.09029" lon="5.95958">
        <ele>-1.3</ele>
        <time>2019-05-26T11:57:59Z</time>
      </trkpt>
      <trkpt lat="43.09011" lon="5.95967">
        <ele>-1.3</ele>
        <time>2019-05-26T11:58:24Z</time>
      </trkpt>
      <trkpt lat="43.08999" lon="5.95975">
        <ele>-1.79</ele>
        <time>2019-05-26T11:58:45Z</time>
      </trkpt>
      <trkpt lat="43.08986" lon="5.95985">
        <ele>-1.3</ele>
        <time>2019-05-26T11:59:08Z</time>
      </trkpt>
      <trkpt lat="43.08973" lon="5.95994">
        <ele>-2.27</ele>
        <time>2019-05-26T11:59:31Z</time>
      </trkpt>
      <trkpt lat="43.0896" lon="5.96003">
        <ele>-0.82</ele>
        <time>2019-05-26T11:59:53Z</time>
      </trkpt>
      <trkpt lat="43.08946" lon="5.96014">
        <ele>0.62</ele>
        <time>2019-05-26T12:00:19Z</time>
      </trkpt>
      <trkpt lat="43.08936" lon="5.96023">
        <ele>0.62</ele>
        <time>2019-05-26T12:00:39Z</time>
      </trkpt>
      <trkpt lat="43.08925" lon="5.96032">
        <ele>1.1</ele>
        <time>2019-05-26T12:01:03Z</time>
      </trkpt>
      <trkpt lat="43.08914" lon="5.96044">
        <ele>-0.82</ele>
        <time>2019-05-26T12:01:26Z</time>
      </trkpt>
      <trkpt lat="43.08901" lon="5.96055">
        <ele>-0.34</ele>
        <time>2019-05-26T12:01:46Z</time>
      </trkpt>
      <trkpt lat="43.08886" lon="5.96068">
        <ele>-1.3</ele>
        <time>2019-05-26T12:02:08Z</time>
      </trkpt>
      <trkpt lat="43.08867" lon="5.96081">
        <ele>-1.79</ele>
        <time>2019-05-26T12:02:31Z</time>
      </trkpt>
      <trkpt lat="43.08847" lon="5.96094">
        <ele>-2.27</ele>
        <time>2019-05-26T12:02:54Z</time>
      </trkpt>
      <trkpt lat="43.08831" lon="5.96105">
        <ele>-1.3</ele>
        <time>2019-05-26T12:03:14Z</time>
      </trkpt>
      <trkpt lat="43.08811" lon="5.9612">
        <ele>-1.79</ele>
        <time>2019-05-26T12:03:39Z</time>
      </trkpt>
      <trkpt lat="43.08795" lon="5.96129">
        <ele>-1.3</ele>
        <time>2019-05-26T12:03:59Z</time>
      </trkpt>
      <trkpt lat="43.08782" lon="5.9614">
        <ele>-1.79</ele>
        <time>2019-05-26T12:04:20Z</time>
      </trkpt>
      <trkpt lat="43.08768" lon="5.96152">
        <ele>-2.27</ele>
        <time>2019-05-26T12:04:40Z</time>
      </trkpt>
      <trkpt lat="43.0875" lon="5.96167">
        <ele>-1.3</ele>
        <time>2019-05-26T12:05:05Z</time>
      </trkpt>
      <trkpt lat="43.0873" lon="5.96177">
        <ele>-0.82</ele>
        <time>2019-05-26T12:05:30Z</time>
      </trkpt>
      <trkpt lat="43.08715" lon="5.96184">
        <ele>-0.82</ele>
        <time>2019-05-26T12:05:50Z</time>
      </trkpt>
      <trkpt lat="43.08699" lon="5.96198">
        <ele>-1.79</ele>
        <time>2019-05-26T12:06:16Z</time>
      </trkpt>
      <trkpt lat="43.08682" lon="5.96208">
        <ele>-0.82</ele>
        <time>2019-05-26T12:06:39Z</time>
      </trkpt>
      <trkpt lat="43.08666" lon="5.96217">
        <ele>-1.3</ele>
        <time>2019-05-26T12:07:00Z</time>
      </trkpt>
      <trkpt lat="43.08651" lon="5.96227">
        <ele>-1.3</ele>
        <time>2019-05-26T12:07:22Z</time>
      </trkpt>
      <trkpt lat="43.08635" lon="5.96235">
        <ele>-0.82</ele>
        <time>2019-05-26T12:07:45Z</time>
      </trkpt>
      <trkpt lat="43.08617" lon="5.96243">
        <ele>-0.82</ele>
        <time>2019-05-26T12:08:11Z</time>
      </trkpt>
      <trkpt lat="43.08604" lon="5.96251">
        <ele>-1.3</ele>
        <time>2019-05-26T12:08:33Z</time>
      </trkpt>
      <trkpt lat="43.08589" lon="5.96261">
        <ele>-1.3</ele>
        <time>2019-05-26T12:08:55Z</time>
      </trkpt>
      <trkpt lat="43.08571" lon="5.96269">
        <ele>-0.82</ele>
        <time>2019-05-26T12:09:18Z</time>
      </trkpt>
      <trkpt lat="43.0855" lon="5.96274">
        <ele>-1.3</ele>
        <time>2019-05-26T12:09:41Z</time>
      </trkpt>
      <trkpt lat="43.08532" lon="5.96278">
        <ele>-1.3</ele>
        <time>2019-05-26T12:09:59Z</time>
      </trkpt>
      <trkpt lat="43.0851" lon="5.96277">
        <ele>-0.34</ele>
        <time>2019-05-26T12:10:25Z</time>
      </trkpt>
      <trkpt lat="43.08492" lon="5.9628">
        <ele>-0.82</ele>
        <time>2019-05-26T12:10:46Z</time>
      </trkpt>
      <trkpt lat="43.08473" lon="5.96284">
        <ele>-0.82</ele>
        <time>2019-05-26T12:11:07Z</time>
      </trkpt>
      <trkpt lat="43.0845" lon="5.96285">
        <ele>-0.82</ele>
        <time>2019-05-26T12:11:32Z</time>
      </trkpt>
      <trkpt lat="43.08428" lon="5.96288">
        <ele>-0.82</ele>
        <time>2019-05-26T12:11:54Z</time>
      </trkpt>
      <trkpt lat="43.08405" lon="5.96291">
        <ele>-0.82</ele>
        <time>2019-05-26T12:12:18Z</time>
      </trkpt>
      <trkpt lat="43.08387" lon="5.96296">
        <ele>-1.3</ele>
        <time>2019-05-26T12:12:40Z</time>
      </trkpt>
      <trkpt lat="43.08373" lon="5.963">
        <ele>-1.3</ele>
        <time>2019-05-26T12:12:58Z</time>
      </trkpt>
      <trkpt lat="43.08359" lon="5.96304">
        <ele>-1.79</ele>
        <time>2019-05-26T12:13:16Z</time>
      </trkpt>
      <trkpt lat="43.08343" lon="5.96309">
        <ele>-1.79</ele>
        <time>2019-05-26T12:13:35Z</time>
      </trkpt>
      <trkpt lat="43.08328" lon="5.96314">
        <ele>-1.79</ele>
        <time>2019-05-26T12:13:53Z</time>
      </trkpt>
      <trkpt lat="43.08311" lon="5.96318">
        <ele>-1.79</ele>
        <time>2019-05-26T12:14:13Z</time>
      </trkpt>
      <trkpt lat="43.08289" lon="5.96324">
        <ele>-0.34</ele>
        <time>2019-05-26T12:14:38Z</time>
      </trkpt>
      <trkpt lat="43.08267" lon="5.96329">
        <ele>-0.34</ele>
        <time>2019-05-26T12:15:03Z</time>
      </trkpt>
      <trkpt lat="43.08248" lon="5.96332">
        <ele>-0.34</ele>
        <time>2019-05-26T12:15:25Z</time>
      </trkpt>
      <trkpt lat="43.0823" lon="5.96334">
        <ele>0.14</ele>
        <time>2019-05-26T12:15:48Z</time>
      </trkpt>
      <trkpt lat="43.08218" lon="5.96337">
        <ele>-0.82</ele>
        <time>2019-05-26T12:16:09Z</time>
      </trkpt>
      <trkpt lat="43.08208" lon="5.9634">
        <ele>-0.82</ele>
        <time>2019-05-26T12:16:26Z</time>
      </trkpt>
      <trkpt lat="43.08196" lon="5.96343">
        <ele>-0.34</ele>
        <time>2019-05-26T12:16:45Z</time>
      </trkpt>
      <trkpt lat="43.08186" lon="5.96347">
        <ele>-1.3</ele>
        <time>2019-05-26T12:17:04Z</time>
      </trkpt>
      <trkpt lat="43.08173" lon="5.96351">
        <ele>-0.34</ele>
        <time>2019-05-26T12:17:26Z</time>
      </trkpt>
      <trkpt lat="43.08162" lon="5.96354">
        <ele>0.14</ele>
        <time>2019-05-26T12:17:48Z</time>
      </trkpt>
      <trkpt lat="43.08148" lon="5.96359">
        <ele>1.58</ele>
        <time>2019-05-26T12:18:12Z</time>
      </trkpt>
      <trkpt lat="43.08133" lon="5.96364">
        <ele>-0.34</ele>
        <time>2019-05-26T12:18:33Z</time>
      </trkpt>
      <trkpt lat="43.08117" lon="5.96367">
        <ele>-0.34</ele>
        <time>2019-05-26T12:18:55Z</time>
      </trkpt>
      <trkpt lat="43.08102" lon="5.96372">
        <ele>0.14</ele>
        <time>2019-05-26T12:19:16Z</time>
      </trkpt>
      <trkpt lat="43.08085" lon="5.96376">
        <ele>-0.82</ele>
        <time>2019-05-26T12:19:36Z</time>
      </trkpt>
      <trkpt lat="43.08067" lon="5.96378">
        <ele>-0.82</ele>
        <time>2019-05-26T12:19:59Z</time>
      </trkpt>
      <trkpt lat="43.08049" lon="5.9638">
        <ele>-0.34</ele>
        <time>2019-05-26T12:20:21Z</time>
      </trkpt>
      <trkpt lat="43.08032" lon="5.96386">
        <ele>-0.34</ele>
        <time>2019-05-26T12:20:45Z</time>
      </trkpt>
      <trkpt lat="43.08016" lon="5.96395">
        <ele>-0.82</ele>
        <time>2019-05-26T12:21:08Z</time>
      </trkpt>
      <trkpt lat="43.07999" lon="5.96404">
        <ele>-1.3</ele>
        <time>2019-05-26T12:21:29Z</time>
      </trkpt>
      <trkpt lat="43.07982" lon="5.96413">
        <ele>-2.75</ele>
        <time>2019-05-26T12:21:52Z</time>
      </trkpt>
      <trkpt lat="43.07969" lon="5.96423">
        <ele>-2.75</ele>
        <time>2019-05-26T12:22:13Z</time>
      </trkpt>
      <trkpt lat="43.07957" lon="5.96434">
        <ele>-2.75</ele>
        <time>2019-05-26T12:22:33Z</time>
      </trkpt>
      <trkpt lat="43.07936" lon="5.96448">
        <ele>-1.79</ele>
        <time>2019-05-26T12:23:02Z</time>
      </trkpt>
      <trkpt lat="43.07934" lon="5.9645">
        <ele>-1.79</ele>
        <time>2019-05-26T12:23:04Z</time>
      </trkpt>
      <trkpt lat="43.07912" lon="5.9646">
        <ele>-1.3</ele>
        <time>2019-05-26T12:23:29Z</time>
      </trkpt>
      <trkpt lat="43.07906" lon="5.96448">
        <ele>-0.34</ele>
        <time>2019-05-26T12:23:48Z</time>
      </trkpt>
      <trkpt lat="43.07904" lon="5.96428">
        <ele>-1.3</ele>
        <time>2019-05-26T12:24:08Z</time>
      </trkpt>
      <trkpt lat="43.079" lon="5.9641">
        <ele>-0.82</ele>
        <time>2019-05-26T12:24:27Z</time>
      </trkpt>
      <trkpt lat="43.07898" lon="5.96394">
        <ele>-0.82</ele>
        <time>2019-05-26T12:24:45Z</time>
      </trkpt>
      <trkpt lat="43.07897" lon="5.96375">
        <ele>-0.34</ele>
        <time>2019-05-26T12:25:04Z</time>
      </trkpt>
      <trkpt lat="43.07894" lon="5.96356">
        <ele>-0.82</ele>
        <time>2019-05-26T12:25:22Z</time>
      </trkpt>
      <trkpt lat="43.07891" lon="5.96332">
        <ele>0.62</ele>
        <time>2019-05-26T12:25:45Z</time>
      </trkpt>
      <trkpt lat="43.07891" lon="5.9631">
        <ele>0.62</ele>
        <time>2019-05-26T12:26:04Z</time>
      </trkpt>
      <trkpt lat="43.07891" lon="5.96309">
        <ele>0.62</ele>
        <time>2019-05-26T12:26:05Z</time>
      </trkpt>
      <trkpt lat="43.0789" lon="5.96283">
        <ele>0.62</ele>
        <time>2019-05-26T12:26:25Z</time>
      </trkpt>
      <trkpt lat="43.07889" lon="5.96257">
        <ele>1.58</ele>
        <time>2019-05-26T12:26:44Z</time>
      </trkpt>
      <trkpt lat="43.07882" lon="5.96239">
        <ele>1.1</ele>
        <time>2019-05-26T12:27:02Z</time>
      </trkpt>
      <trkpt lat="43.07867" lon="5.96241">
        <ele>1.1</ele>
        <time>2019-05-26T12:27:22Z</time>
      </trkpt>
      <trkpt lat="43.07858" lon="5.96243">
        <ele>1.58</ele>
        <time>2019-05-26T12:27:32Z</time>
      </trkpt>
      <trkpt lat="43.07832" lon="5.96246">
        <ele>1.58</ele>
        <time>2019-05-26T12:27:55Z</time>
      </trkpt>
      <trkpt lat="43.07807" lon="5.9625">
        <ele>2.06</ele>
        <time>2019-05-26T12:28:14Z</time>
      </trkpt>
      <trkpt lat="43.07779" lon="5.96252">
        <ele>2.54</ele>
        <time>2019-05-26T12:28:33Z</time>
      </trkpt>
      <trkpt lat="43.07752" lon="5.96254">
        <ele>2.06</ele>
        <time>2019-05-26T12:28:51Z</time>
      </trkpt>
      <trkpt lat="43.07721" lon="5.96257">
        <ele>2.54</ele>
        <time>2019-05-26T12:29:09Z</time>
      </trkpt>
      <trkpt lat="43.07682" lon="5.9626">
        <ele>2.06</ele>
        <time>2019-05-26T12:29:30Z</time>
      </trkpt>
      <trkpt lat="43.07648" lon="5.96263">
        <ele>2.06</ele>
        <time>2019-05-26T12:29:49Z</time>
      </trkpt>
      <trkpt lat="43.07615" lon="5.96267">
        <ele>2.54</ele>
        <time>2019-05-26T12:30:07Z</time>
      </trkpt>
      <trkpt lat="43.0758" lon="5.96272">
        <ele>3.5</ele>
        <time>2019-05-26T12:30:26Z</time>
      </trkpt>
      <trkpt lat="43.07545" lon="5.96279">
        <ele>3.5</ele>
        <time>2019-05-26T12:30:45Z</time>
      </trkpt>
      <trkpt lat="43.07509" lon="5.96285">
        <ele>3.02</ele>
        <time>2019-05-26T12:31:03Z</time>
      </trkpt>
      <trkpt lat="43.07465" lon="5.96295">
        <ele>3.02</ele>
        <time>2019-05-26T12:31:24Z</time>
      </trkpt>
      <trkpt lat="43.07428" lon="5.96301">
        <ele>2.54</ele>
        <time>2019-05-26T12:31:40Z</time>
      </trkpt>
      <trkpt lat="43.07387" lon="5.96305">
        <ele>1.1</ele>
        <time>2019-05-26T12:31:58Z</time>
      </trkpt>
      <trkpt lat="43.07338" lon="5.9631">
        <ele>0.14</ele>
        <time>2019-05-26T12:32:19Z</time>
      </trkpt>
      <trkpt lat="43.07292" lon="5.96311">
        <ele>0.14</ele>
        <time>2019-05-26T12:32:39Z</time>
      </trkpt>
      <trkpt lat="43.07246" lon="5.96313">
        <ele>0.62</ele>
        <time>2019-05-26T12:32:59Z</time>
      </trkpt>
      <trkpt lat="43.07206" lon="5.96313">
        <ele>0.62</ele>
        <time>2019-05-26T12:33:17Z</time>
      </trkpt>
      <trkpt lat="43.07167" lon="5.96313">
        <ele>0.62</ele>
        <time>2019-05-26T12:33:35Z</time>
      </trkpt>
      <trkpt lat="43.07127" lon="5.96312">
        <ele>0.14</ele>
        <time>2019-05-26T12:33:54Z</time>
      </trkpt>
      <trkpt lat="43.07089" lon="5.9631">
        <ele>-0.34</ele>
        <time>2019-05-26T12:34:12Z</time>
      </trkpt>
      <trkpt lat="43.07051" lon="5.96309">
        <ele>-1.79</ele>
        <time>2019-05-26T12:34:30Z</time>
      </trkpt>
      <trkpt lat="43.07013" lon="5.96305">
        <ele>-1.79</ele>
        <time>2019-05-26T12:34:48Z</time>
      </trkpt>
      <trkpt lat="43.06974" lon="5.963">
        <ele>-2.27</ele>
        <time>2019-05-26T12:35:07Z</time>
      </trkpt>
      <trkpt lat="43.06944" lon="5.96296">
        <ele>-2.27</ele>
        <time>2019-05-26T12:35:22Z</time>
      </trkpt>
      <trkpt lat="43.06913" lon="5.96293">
        <ele>-1.79</ele>
        <time>2019-05-26T12:35:37Z</time>
      </trkpt>
      <trkpt lat="43.06899" lon="5.96285">
        <ele>-1.3</ele>
        <time>2019-05-26T12:35:47Z</time>
      </trkpt>
      <trkpt lat="43.069" lon="5.96272">
        <ele>-1.3</ele>
        <time>2019-05-26T12:35:55Z</time>
      </trkpt>
      <trkpt lat="43.06902" lon="5.96247">
        <ele>-1.79</ele>
        <time>2019-05-26T12:36:11Z</time>
      </trkpt>
      <trkpt lat="43.06906" lon="5.96217">
        <ele>-3.23</ele>
        <time>2019-05-26T12:36:29Z</time>
      </trkpt>
      <trkpt lat="43.06915" lon="5.96178">
        <ele>-5.15</ele>
        <time>2019-05-26T12:36:50Z</time>
      </trkpt>
      <trkpt lat="43.06924" lon="5.96146">
        <ele>-4.67</ele>
        <time>2019-05-26T12:37:06Z</time>
      </trkpt>
      <trkpt lat="43.06933" lon="5.96116">
        <ele>-3.71</ele>
        <time>2019-05-26T12:37:20Z</time>
      </trkpt>
      <trkpt lat="43.06943" lon="5.96079">
        <ele>-4.19</ele>
        <time>2019-05-26T12:37:35Z</time>
      </trkpt>
      <trkpt lat="43.06954" lon="5.9604">
        <ele>-5.15</ele>
        <time>2019-05-26T12:37:51Z</time>
      </trkpt>
      <trkpt lat="43.06966" lon="5.95996">
        <ele>-4.19</ele>
        <time>2019-05-26T12:38:08Z</time>
      </trkpt>
      <trkpt lat="43.06978" lon="5.95946">
        <ele>-4.67</ele>
        <time>2019-05-26T12:38:27Z</time>
      </trkpt>
      <trkpt lat="43.06989" lon="5.959">
        <ele>-4.19</ele>
        <time>2019-05-26T12:38:45Z</time>
      </trkpt>
      <trkpt lat="43.07" lon="5.95859">
        <ele>-2.75</ele>
        <time>2019-05-26T12:39:01Z</time>
      </trkpt>
      <trkpt lat="43.07012" lon="5.95819">
        <ele>-4.19</ele>
        <time>2019-05-26T12:39:17Z</time>
      </trkpt>
      <trkpt lat="43.0703" lon="5.95772">
        <ele>-3.71</ele>
        <time>2019-05-26T12:39:35Z</time>
      </trkpt>
      <trkpt lat="43.07045" lon="5.95734">
        <ele>-3.71</ele>
        <time>2019-05-26T12:39:49Z</time>
      </trkpt>
      <trkpt lat="43.07062" lon="5.95684">
        <ele>-3.71</ele>
        <time>2019-05-26T12:40:06Z</time>
      </trkpt>
      <trkpt lat="43.07053" lon="5.95665">
        <ele>-2.75</ele>
        <time>2019-05-26T12:40:16Z</time>
      </trkpt>
      <trkpt lat="43.07023" lon="5.95661">
        <ele>-2.27</ele>
        <time>2019-05-26T12:40:34Z</time>
      </trkpt>
      <trkpt lat="43.06995" lon="5.95652">
        <ele>-2.75</ele>
        <time>2019-05-26T12:40:51Z</time>
      </trkpt>
      <trkpt lat="43.0696" lon="5.95639">
        <ele>-3.71</ele>
        <time>2019-05-26T12:41:12Z</time>
      </trkpt>
      <trkpt lat="43.06921" lon="5.95629">
        <ele>-3.23</ele>
        <time>2019-05-26T12:41:33Z</time>
      </trkpt>
      <trkpt lat="43.06879" lon="5.95622">
        <ele>-3.71</ele>
        <time>2019-05-26T12:41:55Z</time>
      </trkpt>
      <trkpt lat="43.06844" lon="5.95616">
        <ele>-3.71</ele>
        <time>2019-05-26T12:42:13Z</time>
      </trkpt>
      <trkpt lat="43.06806" lon="5.95614">
        <ele>-3.23</ele>
        <time>2019-05-26T12:42:32Z</time>
      </trkpt>
      <trkpt lat="43.06767" lon="5.95607">
        <ele>-3.23</ele>
        <time>2019-05-26T12:42:50Z</time>
      </trkpt>
      <trkpt lat="43.06728" lon="5.95593">
        <ele>-3.23</ele>
        <time>2019-05-26T12:43:09Z</time>
      </trkpt>
      <trkpt lat="43.06689" lon="5.95577">
        <ele>-4.19</ele>
        <time>2019-05-26T12:43:28Z</time>
      </trkpt>
      <trkpt lat="43.06657" lon="5.95566">
        <ele>-4.67</ele>
        <time>2019-05-26T12:43:44Z</time>
      </trkpt>
      <trkpt lat="43.06616" lon="5.95558">
        <ele>-3.71</ele>
        <time>2019-05-26T12:44:03Z</time>
      </trkpt>
      <trkpt lat="43.06583" lon="5.95555">
        <ele>-3.71</ele>
        <time>2019-05-26T12:44:17Z</time>
      </trkpt>
      <trkpt lat="43.06542" lon="5.95542">
        <ele>-3.71</ele>
        <time>2019-05-26T12:44:34Z</time>
      </trkpt>
      <trkpt lat="43.06495" lon="5.95524">
        <ele>-3.71</ele>
        <time>2019-05-26T12:44:55Z</time>
      </trkpt>
      <trkpt lat="43.06465" lon="5.95511">
        <ele>-4.19</ele>
        <time>2019-05-26T12:45:10Z</time>
      </trkpt>
      <trkpt lat="43.06428" lon="5.95497">
        <ele>-4.67</ele>
        <time>2019-05-26T12:45:30Z</time>
      </trkpt>
      <trkpt lat="43.06395" lon="5.95488">
        <ele>-4.67</ele>
        <time>2019-05-26T12:45:48Z</time>
      </trkpt>
      <trkpt lat="43.06361" lon="5.95478">
        <ele>-4.67</ele>
        <time>2019-05-26T12:46:06Z</time>
      </trkpt>
      <trkpt lat="43.06323" lon="5.95462">
        <ele>-5.15</ele>
        <time>2019-05-26T12:46:24Z</time>
      </trkpt>
      <trkpt lat="43.06282" lon="5.95445">
        <ele>-5.63</ele>
        <time>2019-05-26T12:46:43Z</time>
      </trkpt>
      <trkpt lat="43.06245" lon="5.95432">
        <ele>-5.63</ele>
        <time>2019-05-26T12:47:00Z</time>
      </trkpt>
      <trkpt lat="43.06201" lon="5.95415">
        <ele>-5.63</ele>
        <time>2019-05-26T12:47:20Z</time>
      </trkpt>
      <trkpt lat="43.06158" lon="5.95394">
        <ele>-5.15</ele>
        <time>2019-05-26T12:47:41Z</time>
      </trkpt>
      <trkpt lat="43.06125" lon="5.9538">
        <ele>-5.15</ele>
        <time>2019-05-26T12:47:58Z</time>
      </trkpt>
      <trkpt lat="43.06096" lon="5.95365">
        <ele>-5.15</ele>
        <time>2019-05-26T12:48:14Z</time>
      </trkpt>
      <trkpt lat="43.06069" lon="5.95351">
        <ele>-5.15</ele>
        <time>2019-05-26T12:48:30Z</time>
      </trkpt>
      <trkpt lat="43.06067" lon="5.9533">
        <ele>-5.63</ele>
        <time>2019-05-26T12:48:45Z</time>
      </trkpt>
      <trkpt lat="43.06076" lon="5.95302">
        <ele>-3.23</ele>
        <time>2019-05-26T12:49:03Z</time>
      </trkpt>
      <trkpt lat="43.06087" lon="5.95276">
        <ele>-2.75</ele>
        <time>2019-05-26T12:49:19Z</time>
      </trkpt>
      <trkpt lat="43.06095" lon="5.95248">
        <ele>-2.27</ele>
        <time>2019-05-26T12:49:34Z</time>
      </trkpt>
      <trkpt lat="43.06105" lon="5.95217">
        <ele>-1.3</ele>
        <time>2019-05-26T12:49:51Z</time>
      </trkpt>
      <trkpt lat="43.06118" lon="5.95186">
        <ele>-2.27</ele>
        <time>2019-05-26T12:50:07Z</time>
      </trkpt>
      <trkpt lat="43.06129" lon="5.9515">
        <ele>-1.79</ele>
        <time>2019-05-26T12:50:24Z</time>
      </trkpt>
      <trkpt lat="43.06141" lon="5.95121">
        <ele>-2.27</ele>
        <time>2019-05-26T12:50:39Z</time>
      </trkpt>
      <trkpt lat="43.06158" lon="5.95084">
        <ele>-2.27</ele>
        <time>2019-05-26T12:50:57Z</time>
      </trkpt>
      <trkpt lat="43.06177" lon="5.95044">
        <ele>-3.71</ele>
        <time>2019-05-26T12:51:15Z</time>
      </trkpt>
      <trkpt lat="43.06198" lon="5.95002">
        <ele>-4.67</ele>
        <time>2019-05-26T12:51:34Z</time>
      </trkpt>
      <trkpt lat="43.06212" lon="5.94971">
        <ele>-4.67</ele>
        <time>2019-05-26T12:51:48Z</time>
      </trkpt>
      <trkpt lat="43.06229" lon="5.94933">
        <ele>-3.23</ele>
        <time>2019-05-26T12:52:05Z</time>
      </trkpt>
      <trkpt lat="43.06242" lon="5.94895">
        <ele>-2.75</ele>
        <time>2019-05-26T12:52:23Z</time>
      </trkpt>
      <trkpt lat="43.06255" lon="5.94861">
        <ele>-2.75</ele>
        <time>2019-05-26T12:52:39Z</time>
      </trkpt>
      <trkpt lat="43.0627" lon="5.94823">
        <ele>-2.75</ele>
        <time>2019-05-26T12:52:57Z</time>
      </trkpt>
      <trkpt lat="43.06285" lon="5.94787">
        <ele>-2.27</ele>
        <time>2019-05-26T12:53:15Z</time>
      </trkpt>
      <trkpt lat="43.063" lon="5.9475">
        <ele>-2.27</ele>
        <time>2019-05-26T12:53:32Z</time>
      </trkpt>
      <trkpt lat="43.06315" lon="5.94711">
        <ele>-2.75</ele>
        <time>2019-05-26T12:53:50Z</time>
      </trkpt>
      <trkpt lat="43.06328" lon="5.94672">
        <ele>-2.27</ele>
        <time>2019-05-26T12:54:09Z</time>
      </trkpt>
      <trkpt lat="43.06343" lon="5.94636">
        <ele>-3.23</ele>
        <time>2019-05-26T12:54:26Z</time>
      </trkpt>
      <trkpt lat="43.0636" lon="5.94597">
        <ele>-2.75</ele>
        <time>2019-05-26T12:54:45Z</time>
      </trkpt>
      <trkpt lat="43.06375" lon="5.9456">
        <ele>-2.27</ele>
        <time>2019-05-26T12:55:02Z</time>
      </trkpt>
      <trkpt lat="43.06392" lon="5.94522">
        <ele>-2.75</ele>
        <time>2019-05-26T12:55:20Z</time>
      </trkpt>
      <trkpt lat="43.06408" lon="5.94484">
        <ele>-2.27</ele>
        <time>2019-05-26T12:55:38Z</time>
      </trkpt>
      <trkpt lat="43.06427" lon="5.94443">
        <ele>-3.23</ele>
        <time>2019-05-26T12:55:56Z</time>
      </trkpt>
      <trkpt lat="43.06444" lon="5.94405">
        <ele>-2.27</ele>
        <time>2019-05-26T12:56:12Z</time>
      </trkpt>
      <trkpt lat="43.06461" lon="5.94369">
        <ele>-4.19</ele>
        <time>2019-05-26T12:56:27Z</time>
      </trkpt>
      <trkpt lat="43.06483" lon="5.94317">
        <ele>-3.71</ele>
        <time>2019-05-26T12:56:49Z</time>
      </trkpt>
      <trkpt lat="43.06499" lon="5.94281">
        <ele>-3.71</ele>
        <time>2019-05-26T12:57:04Z</time>
      </trkpt>
      <trkpt lat="43.06519" lon="5.94238">
        <ele>-3.71</ele>
        <time>2019-05-26T12:57:23Z</time>
      </trkpt>
      <trkpt lat="43.06534" lon="5.94203">
        <ele>-3.23</ele>
        <time>2019-05-26T12:57:38Z</time>
      </trkpt>
      <trkpt lat="43.06552" lon="5.94167">
        <ele>-3.23</ele>
        <time>2019-05-26T12:57:54Z</time>
      </trkpt>
      <trkpt lat="43.06569" lon="5.9413">
        <ele>-4.19</ele>
        <time>2019-05-26T12:58:11Z</time>
      </trkpt>
      <trkpt lat="43.06589" lon="5.94091">
        <ele>-4.19</ele>
        <time>2019-05-26T12:58:30Z</time>
      </trkpt>
      <trkpt lat="43.06602" lon="5.94055">
        <ele>-4.19</ele>
        <time>2019-05-26T12:58:47Z</time>
      </trkpt>
      <trkpt lat="43.06618" lon="5.94021">
        <ele>-4.67</ele>
        <time>2019-05-26T12:59:03Z</time>
      </trkpt>
      <trkpt lat="43.06634" lon="5.93992">
        <ele>-3.71</ele>
        <time>2019-05-26T12:59:16Z</time>
      </trkpt>
      <trkpt lat="43.06656" lon="5.9395">
        <ele>-3.71</ele>
        <time>2019-05-26T12:59:34Z</time>
      </trkpt>
      <trkpt lat="43.06677" lon="5.93905">
        <ele>-3.71</ele>
        <time>2019-05-26T12:59:52Z</time>
      </trkpt>
      <trkpt lat="43.06691" lon="5.93872">
        <ele>-3.71</ele>
        <time>2019-05-26T13:00:05Z</time>
      </trkpt>
      <trkpt lat="43.06708" lon="5.93832">
        <ele>-2.75</ele>
        <time>2019-05-26T13:00:20Z</time>
      </trkpt>
      <trkpt lat="43.06728" lon="5.93781">
        <ele>-2.75</ele>
        <time>2019-05-26T13:00:38Z</time>
      </trkpt>
      <trkpt lat="43.06745" lon="5.93727">
        <ele>-3.23</ele>
        <time>2019-05-26T13:00:57Z</time>
      </trkpt>
      <trkpt lat="43.06758" lon="5.93681">
        <ele>-4.67</ele>
        <time>2019-05-26T13:01:13Z</time>
      </trkpt>
      <trkpt lat="43.0677" lon="5.93633">
        <ele>-4.67</ele>
        <time>2019-05-26T13:01:31Z</time>
      </trkpt>
      <trkpt lat="43.06784" lon="5.93592">
        <ele>-4.19</ele>
        <time>2019-05-26T13:01:49Z</time>
      </trkpt>
      <trkpt lat="43.06808" lon="5.93547">
        <ele>-3.23</ele>
        <time>2019-05-26T13:02:09Z</time>
      </trkpt>
      <trkpt lat="43.06829" lon="5.93499">
        <ele>-2.75</ele>
        <time>2019-05-26T13:02:26Z</time>
      </trkpt>
      <trkpt lat="43.06848" lon="5.93443">
        <ele>-1.3</ele>
        <time>2019-05-26T13:02:44Z</time>
      </trkpt>
      <trkpt lat="43.06863" lon="5.93392">
        <ele>-1.79</ele>
        <time>2019-05-26T13:03:00Z</time>
      </trkpt>
      <trkpt lat="43.06873" lon="5.93354">
        <ele>-3.23</ele>
        <time>2019-05-26T13:03:12Z</time>
      </trkpt>
      <trkpt lat="43.06883" lon="5.93313">
        <ele>-2.75</ele>
        <time>2019-05-26T13:03:25Z</time>
      </trkpt>
      <trkpt lat="43.06897" lon="5.93263">
        <ele>-3.71</ele>
        <time>2019-05-26T13:03:41Z</time>
      </trkpt>
      <trkpt lat="43.06915" lon="5.93202">
        <ele>-4.19</ele>
        <time>2019-05-26T13:04:00Z</time>
      </trkpt>
      <trkpt lat="43.06934" lon="5.93143">
        <ele>-3.23</ele>
        <time>2019-05-26T13:04:19Z</time>
      </trkpt>
      <trkpt lat="43.06948" lon="5.93096">
        <ele>-3.23</ele>
        <time>2019-05-26T13:04:34Z</time>
      </trkpt>
      <trkpt lat="43.06928" lon="5.93086">
        <ele>-2.27</ele>
        <time>2019-05-26T13:04:47Z</time>
      </trkpt>
      <trkpt lat="43.06895" lon="5.93078">
        <ele>-1.79</ele>
        <time>2019-05-26T13:05:08Z</time>
      </trkpt>
      <trkpt lat="43.06855" lon="5.93069">
        <ele>-1.79</ele>
        <time>2019-05-26T13:05:30Z</time>
      </trkpt>
      <trkpt lat="43.06826" lon="5.93067">
        <ele>-2.27</ele>
        <time>2019-05-26T13:05:46Z</time>
      </trkpt>
      <trkpt lat="43.06796" lon="5.93065">
        <ele>-3.71</ele>
        <time>2019-05-26T13:06:02Z</time>
      </trkpt>
      <trkpt lat="43.06765" lon="5.93066">
        <ele>-3.23</ele>
        <time>2019-05-26T13:06:18Z</time>
      </trkpt>
      <trkpt lat="43.06725" lon="5.93065">
        <ele>-3.71</ele>
        <time>2019-05-26T13:06:37Z</time>
      </trkpt>
      <trkpt lat="43.06695" lon="5.93061">
        <ele>-4.67</ele>
        <time>2019-05-26T13:06:52Z</time>
      </trkpt>
      <trkpt lat="43.06667" lon="5.93062">
        <ele>-3.71</ele>
        <time>2019-05-26T13:07:07Z</time>
      </trkpt>
      <trkpt lat="43.06637" lon="5.93061">
        <ele>-2.75</ele>
        <time>2019-05-26T13:07:24Z</time>
      </trkpt>
      <trkpt lat="43.06606" lon="5.93063">
        <ele>-1.79</ele>
        <time>2019-05-26T13:07:41Z</time>
      </trkpt>
      <trkpt lat="43.06578" lon="5.93064">
        <ele>-1.79</ele>
        <time>2019-05-26T13:07:57Z</time>
      </trkpt>
      <trkpt lat="43.06548" lon="5.93067">
        <ele>-2.27</ele>
        <time>2019-05-26T13:08:14Z</time>
      </trkpt>
      <trkpt lat="43.06517" lon="5.93074">
        <ele>-3.23</ele>
        <time>2019-05-26T13:08:31Z</time>
      </trkpt>
      <trkpt lat="43.06488" lon="5.93079">
        <ele>-3.71</ele>
        <time>2019-05-26T13:08:47Z</time>
      </trkpt>
      <trkpt lat="43.06461" lon="5.93084">
        <ele>-3.71</ele>
        <time>2019-05-26T13:09:02Z</time>
      </trkpt>
      <trkpt lat="43.06436" lon="5.93088">
        <ele>-3.23</ele>
        <time>2019-05-26T13:09:16Z</time>
      </trkpt>
      <trkpt lat="43.064" lon="5.93095">
        <ele>-3.71</ele>
        <time>2019-05-26T13:09:35Z</time>
      </trkpt>
      <trkpt lat="43.06369" lon="5.93098">
        <ele>-1.79</ele>
        <time>2019-05-26T13:09:51Z</time>
      </trkpt>
      <trkpt lat="43.06337" lon="5.93105">
        <ele>-1.3</ele>
        <time>2019-05-26T13:10:08Z</time>
      </trkpt>
      <trkpt lat="43.06294" lon="5.93112">
        <ele>-1.3</ele>
        <time>2019-05-26T13:10:28Z</time>
      </trkpt>
      <trkpt lat="43.06256" lon="5.93117">
        <ele>-1.3</ele>
        <time>2019-05-26T13:10:44Z</time>
      </trkpt>
      <trkpt lat="43.06222" lon="5.93121">
        <ele>-0.34</ele>
        <time>2019-05-26T13:10:58Z</time>
      </trkpt>
      <trkpt lat="43.06181" lon="5.93125">
        <ele>0.62</ele>
        <time>2019-05-26T13:11:14Z</time>
      </trkpt>
      <trkpt lat="43.06136" lon="5.93123">
        <ele>-0.82</ele>
        <time>2019-05-26T13:11:31Z</time>
      </trkpt>
      <trkpt lat="43.06093" lon="5.9312">
        <ele>-1.79</ele>
        <time>2019-05-26T13:11:48Z</time>
      </trkpt>
      <trkpt lat="43.06042" lon="5.93119">
        <ele>-1.79</ele>
        <time>2019-05-26T13:12:09Z</time>
      </trkpt>
      <trkpt lat="43.06016" lon="5.93115">
        <ele>-1.79</ele>
        <time>2019-05-26T13:12:21Z</time>
      </trkpt>
      <trkpt lat="43.06018" lon="5.93105">
        <ele>-1.79</ele>
        <time>2019-05-26T13:12:27Z</time>
      </trkpt>
      <trkpt lat="43.06028" lon="5.93076">
        <ele>-2.75</ele>
        <time>2019-05-26T13:12:42Z</time>
      </trkpt>
      <trkpt lat="43.06038" lon="5.93042">
        <ele>-3.23</ele>
        <time>2019-05-26T13:12:56Z</time>
      </trkpt>
      <trkpt lat="43.0605" lon="5.92993">
        <ele>-4.67</ele>
        <time>2019-05-26T13:13:14Z</time>
      </trkpt>
      <trkpt lat="43.06059" lon="5.92947">
        <ele>-4.67</ele>
        <time>2019-05-26T13:13:31Z</time>
      </trkpt>
      <trkpt lat="43.06069" lon="5.92902">
        <ele>-4.67</ele>
        <time>2019-05-26T13:13:47Z</time>
      </trkpt>
      <trkpt lat="43.0608" lon="5.9285">
        <ele>-4.67</ele>
        <time>2019-05-26T13:14:06Z</time>
      </trkpt>
      <trkpt lat="43.06088" lon="5.92809">
        <ele>-5.15</ele>
        <time>2019-05-26T13:14:21Z</time>
      </trkpt>
      <trkpt lat="43.06097" lon="5.92761">
        <ele>-4.67</ele>
        <time>2019-05-26T13:14:38Z</time>
      </trkpt>
      <trkpt lat="43.06106" lon="5.9271">
        <ele>-5.15</ele>
        <time>2019-05-26T13:14:56Z</time>
      </trkpt>
      <trkpt lat="43.06117" lon="5.92656">
        <ele>-5.63</ele>
        <time>2019-05-26T13:15:15Z</time>
      </trkpt>
      <trkpt lat="43.06126" lon="5.92607">
        <ele>-4.67</ele>
        <time>2019-05-26T13:15:32Z</time>
      </trkpt>
      <trkpt lat="43.06131" lon="5.92568">
        <ele>-4.67</ele>
        <time>2019-05-26T13:15:46Z</time>
      </trkpt>
      <trkpt lat="43.06139" lon="5.9252">
        <ele>-4.19</ele>
        <time>2019-05-26T13:16:04Z</time>
      </trkpt>
      <trkpt lat="43.06146" lon="5.9248">
        <ele>-4.67</ele>
        <time>2019-05-26T13:16:19Z</time>
      </trkpt>
      <trkpt lat="43.06153" lon="5.92443">
        <ele>-4.67</ele>
        <time>2019-05-26T13:16:33Z</time>
      </trkpt>
      <trkpt lat="43.06159" lon="5.92409">
        <ele>-5.15</ele>
        <time>2019-05-26T13:16:46Z</time>
      </trkpt>
      <trkpt lat="43.06167" lon="5.92363">
        <ele>-4.67</ele>
        <time>2019-05-26T13:17:03Z</time>
      </trkpt>
      <trkpt lat="43.06173" lon="5.92329">
        <ele>-4.67</ele>
        <time>2019-05-26T13:17:16Z</time>
      </trkpt>
      <trkpt lat="43.06179" lon="5.92295">
        <ele>-4.67</ele>
        <time>2019-05-26T13:17:30Z</time>
      </trkpt>
      <trkpt lat="43.06188" lon="5.92256">
        <ele>-4.19</ele>
        <time>2019-05-26T13:17:46Z</time>
      </trkpt>
      <trkpt lat="43.06195" lon="5.92219">
        <ele>-5.15</ele>
        <time>2019-05-26T13:18:02Z</time>
      </trkpt>
      <trkpt lat="43.06202" lon="5.92182">
        <ele>-4.19</ele>
        <time>2019-05-26T13:18:19Z</time>
      </trkpt>
      <trkpt lat="43.0621" lon="5.92146">
        <ele>-4.19</ele>
        <time>2019-05-26T13:18:36Z</time>
      </trkpt>
      <trkpt lat="43.06219" lon="5.92101">
        <ele>-4.19</ele>
        <time>2019-05-26T13:18:56Z</time>
      </trkpt>
      <trkpt lat="43.06228" lon="5.92063">
        <ele>-3.71</ele>
        <time>2019-05-26T13:19:12Z</time>
      </trkpt>
      <trkpt lat="43.06239" lon="5.92015">
        <ele>-4.67</ele>
        <time>2019-05-26T13:19:31Z</time>
      </trkpt>
      <trkpt lat="43.0625" lon="5.9197">
        <ele>-3.71</ele>
        <time>2019-05-26T13:19:49Z</time>
      </trkpt>
      <trkpt lat="43.06264" lon="5.91917">
        <ele>-3.23</ele>
        <time>2019-05-26T13:20:10Z</time>
      </trkpt>
      <trkpt lat="43.06276" lon="5.91874">
        <ele>-2.75</ele>
        <time>2019-05-26T13:20:27Z</time>
      </trkpt>
      <trkpt lat="43.06284" lon="5.9184">
        <ele>-3.23</ele>
        <time>2019-05-26T13:20:42Z</time>
      </trkpt>
      <trkpt lat="43.06298" lon="5.91796">
        <ele>-3.23</ele>
        <time>2019-05-26T13:21:02Z</time>
      </trkpt>
      <trkpt lat="43.06309" lon="5.91758">
        <ele>-3.23</ele>
        <time>2019-05-26T13:21:19Z</time>
      </trkpt>
      <trkpt lat="43.06323" lon="5.9171">
        <ele>-3.23</ele>
        <time>2019-05-26T13:21:39Z</time>
      </trkpt>
      <trkpt lat="43.06333" lon="5.91663">
        <ele>-3.23</ele>
        <time>2019-05-26T13:21:58Z</time>
      </trkpt>
      <trkpt lat="43.06342" lon="5.91618">
        <ele>-3.23</ele>
        <time>2019-05-26T13:22:18Z</time>
      </trkpt>
      <trkpt lat="43.06351" lon="5.91575">
        <ele>-2.27</ele>
        <time>2019-05-26T13:22:38Z</time>
      </trkpt>
      <trkpt lat="43.0636" lon="5.9153">
        <ele>-2.75</ele>
        <time>2019-05-26T13:22:59Z</time>
      </trkpt>
      <trkpt lat="43.06366" lon="5.91498">
        <ele>-3.23</ele>
        <time>2019-05-26T13:23:14Z</time>
      </trkpt>
      <trkpt lat="43.06373" lon="5.91463">
        <ele>-2.75</ele>
        <time>2019-05-26T13:23:30Z</time>
      </trkpt>
      <trkpt lat="43.0638" lon="5.91426">
        <ele>-3.71</ele>
        <time>2019-05-26T13:23:48Z</time>
      </trkpt>
      <trkpt lat="43.06387" lon="5.91393">
        <ele>-3.23</ele>
        <time>2019-05-26T13:24:05Z</time>
      </trkpt>
      <trkpt lat="43.06393" lon="5.91362">
        <ele>-3.23</ele>
        <time>2019-05-26T13:24:21Z</time>
      </trkpt>
      <trkpt lat="43.06399" lon="5.9133">
        <ele>-3.23</ele>
        <time>2019-05-26T13:24:40Z</time>
      </trkpt>
      <trkpt lat="43.06405" lon="5.913">
        <ele>-2.75</ele>
        <time>2019-05-26T13:24:58Z</time>
      </trkpt>
      <trkpt lat="43.0641" lon="5.9127">
        <ele>-3.23</ele>
        <time>2019-05-26T13:25:17Z</time>
      </trkpt>
      <trkpt lat="43.06416" lon="5.91245">
        <ele>-2.75</ele>
        <time>2019-05-26T13:25:33Z</time>
      </trkpt>
      <trkpt lat="43.06421" lon="5.91219">
        <ele>-3.23</ele>
        <time>2019-05-26T13:25:49Z</time>
      </trkpt>
      <trkpt lat="43.06425" lon="5.91195">
        <ele>-3.23</ele>
        <time>2019-05-26T13:26:03Z</time>
      </trkpt>
      <trkpt lat="43.06431" lon="5.9116">
        <ele>-3.23</ele>
        <time>2019-05-26T13:26:22Z</time>
      </trkpt>
      <trkpt lat="43.06436" lon="5.91129">
        <ele>-2.75</ele>
        <time>2019-05-26T13:26:38Z</time>
      </trkpt>
      <trkpt lat="43.06444" lon="5.91092">
        <ele>-2.27</ele>
        <time>2019-05-26T13:26:57Z</time>
      </trkpt>
      <trkpt lat="43.06451" lon="5.91056">
        <ele>-2.75</ele>
        <time>2019-05-26T13:27:16Z</time>
      </trkpt>
      <trkpt lat="43.06459" lon="5.91014">
        <ele>-2.75</ele>
        <time>2019-05-26T13:27:38Z</time>
      </trkpt>
      <trkpt lat="43.06463" lon="5.90985">
        <ele>-2.27</ele>
        <time>2019-05-26T13:27:53Z</time>
      </trkpt>
      <trkpt lat="43.06471" lon="5.90949">
        <ele>-2.27</ele>
        <time>2019-05-26T13:28:11Z</time>
      </trkpt>
      <trkpt lat="43.06479" lon="5.90912">
        <ele>-1.3</ele>
        <time>2019-05-26T13:28:28Z</time>
      </trkpt>
      <trkpt lat="43.06487" lon="5.90874">
        <ele>-0.34</ele>
        <time>2019-05-26T13:28:44Z</time>
      </trkpt>
      <trkpt lat="43.06496" lon="5.90826">
        <ele>-0.82</ele>
        <time>2019-05-26T13:29:03Z</time>
      </trkpt>
      <trkpt lat="43.06503" lon="5.9078">
        <ele>-2.27</ele>
        <time>2019-05-26T13:29:22Z</time>
      </trkpt>
      <trkpt lat="43.06509" lon="5.9074">
        <ele>-2.75</ele>
        <time>2019-05-26T13:29:40Z</time>
      </trkpt>
      <trkpt lat="43.06514" lon="5.90705">
        <ele>-3.23</ele>
        <time>2019-05-26T13:29:56Z</time>
      </trkpt>
      <trkpt lat="43.06518" lon="5.9067">
        <ele>-3.71</ele>
        <time>2019-05-26T13:30:12Z</time>
      </trkpt>
      <trkpt lat="43.06522" lon="5.90629">
        <ele>-3.23</ele>
        <time>2019-05-26T13:30:32Z</time>
      </trkpt>
      <trkpt lat="43.06527" lon="5.90591">
        <ele>-3.23</ele>
        <time>2019-05-26T13:30:50Z</time>
      </trkpt>
      <trkpt lat="43.06533" lon="5.90551">
        <ele>-3.71</ele>
        <time>2019-05-26T13:31:10Z</time>
      </trkpt>
      <trkpt lat="43.06538" lon="5.9052">
        <ele>-3.23</ele>
        <time>2019-05-26T13:31:27Z</time>
      </trkpt>
      <trkpt lat="43.06542" lon="5.90487">
        <ele>-3.23</ele>
        <time>2019-05-26T13:31:44Z</time>
      </trkpt>
      <trkpt lat="43.06547" lon="5.90455">
        <ele>-4.67</ele>
        <time>2019-05-26T13:32:02Z</time>
      </trkpt>
      <trkpt lat="43.06547" lon="5.90449">
        <ele>-4.67</ele>
        <time>2019-05-26T13:32:05Z</time>
      </trkpt>
      <trkpt lat="43.06539" lon="5.9044">
        <ele>-2.75</ele>
        <time>2019-05-26T13:32:16Z</time>
      </trkpt>
      <trkpt lat="43.06518" lon="5.9044">
        <ele>-3.23</ele>
        <time>2019-05-26T13:32:35Z</time>
      </trkpt>
      <trkpt lat="43.06512" lon="5.90431">
        <ele>-3.23</ele>
        <time>2019-05-26T13:32:53Z</time>
      </trkpt>
      <trkpt lat="43.06517" lon="5.90414">
        <ele>-3.23</ele>
        <time>2019-05-26T13:33:13Z</time>
      </trkpt>
      <trkpt lat="43.0652" lon="5.90397">
        <ele>-2.75</ele>
        <time>2019-05-26T13:33:31Z</time>
      </trkpt>
      <trkpt lat="43.06524" lon="5.9038">
        <ele>-3.23</ele>
        <time>2019-05-26T13:33:47Z</time>
      </trkpt>
      <trkpt lat="43.06527" lon="5.9036">
        <ele>-3.23</ele>
        <time>2019-05-26T13:34:06Z</time>
      </trkpt>
      <trkpt lat="43.06531" lon="5.90341">
        <ele>-2.75</ele>
        <time>2019-05-26T13:34:23Z</time>
      </trkpt>
      <trkpt lat="43.06536" lon="5.90318">
        <ele>-3.23</ele>
        <time>2019-05-26T13:34:41Z</time>
      </trkpt>
      <trkpt lat="43.06541" lon="5.90293">
        <ele>-2.75</ele>
        <time>2019-05-26T13:34:59Z</time>
      </trkpt>
      <trkpt lat="43.06546" lon="5.90265">
        <ele>-2.75</ele>
        <time>2019-05-26T13:35:17Z</time>
      </trkpt>
      <trkpt lat="43.06551" lon="5.90233">
        <ele>-2.27</ele>
        <time>2019-05-26T13:35:37Z</time>
      </trkpt>
      <trkpt lat="43.06556" lon="5.90198">
        <ele>-1.79</ele>
        <time>2019-05-26T13:35:57Z</time>
      </trkpt>
      <trkpt lat="43.06563" lon="5.90161">
        <ele>-1.79</ele>
        <time>2019-05-26T13:36:16Z</time>
      </trkpt>
      <trkpt lat="43.06569" lon="5.90128">
        <ele>-2.27</ele>
        <time>2019-05-26T13:36:32Z</time>
      </trkpt>
      <trkpt lat="43.06577" lon="5.90083">
        <ele>-3.23</ele>
        <time>2019-05-26T13:36:53Z</time>
      </trkpt>
      <trkpt lat="43.06582" lon="5.90052">
        <ele>-3.23</ele>
        <time>2019-05-26T13:37:08Z</time>
      </trkpt>
      <trkpt lat="43.06588" lon="5.90014">
        <ele>-3.71</ele>
        <time>2019-05-26T13:37:27Z</time>
      </trkpt>
      <trkpt lat="43.06597" lon="5.89967">
        <ele>-4.19</ele>
        <time>2019-05-26T13:37:48Z</time>
      </trkpt>
      <trkpt lat="43.06606" lon="5.89914">
        <ele>-4.19</ele>
        <time>2019-05-26T13:38:10Z</time>
      </trkpt>
      <trkpt lat="43.06606" lon="5.89868">
        <ele>-3.71</ele>
        <time>2019-05-26T13:38:30Z</time>
      </trkpt>
      <trkpt lat="43.06605" lon="5.89832">
        <ele>-4.19</ele>
        <time>2019-05-26T13:38:49Z</time>
      </trkpt>
      <trkpt lat="43.06609" lon="5.89799">
        <ele>-3.23</ele>
        <time>2019-05-26T13:39:09Z</time>
      </trkpt>
      <trkpt lat="43.0661" lon="5.8977">
        <ele>-4.19</ele>
        <time>2019-05-26T13:39:29Z</time>
      </trkpt>
      <trkpt lat="43.06612" lon="5.89744">
        <ele>-3.71</ele>
        <time>2019-05-26T13:39:48Z</time>
      </trkpt>
      <trkpt lat="43.06614" lon="5.89718">
        <ele>-3.71</ele>
        <time>2019-05-26T13:40:10Z</time>
      </trkpt>
      <trkpt lat="43.06618" lon="5.89694">
        <ele>-3.23</ele>
        <time>2019-05-26T13:40:31Z</time>
      </trkpt>
      <trkpt lat="43.06623" lon="5.8967">
        <ele>-2.27</ele>
        <time>2019-05-26T13:40:54Z</time>
      </trkpt>
      <trkpt lat="43.06628" lon="5.8965">
        <ele>-2.27</ele>
        <time>2019-05-26T13:41:12Z</time>
      </trkpt>
      <trkpt lat="43.06631" lon="5.89639">
        <ele>-1.79</ele>
        <time>2019-05-26T13:41:22Z</time>
      </trkpt>
      <trkpt lat="43.06639" lon="5.89617">
        <ele>-1.79</ele>
        <time>2019-05-26T13:41:41Z</time>
      </trkpt>
      <trkpt lat="43.06651" lon="5.89592">
        <ele>-1.79</ele>
        <time>2019-05-26T13:42:00Z</time>
      </trkpt>
      <trkpt lat="43.06663" lon="5.89561">
        <ele>-1.3</ele>
        <time>2019-05-26T13:42:21Z</time>
      </trkpt>
      <trkpt lat="43.0667" lon="5.89534">
        <ele>-1.79</ele>
        <time>2019-05-26T13:42:38Z</time>
      </trkpt>
      <trkpt lat="43.06678" lon="5.89504">
        <ele>-1.79</ele>
        <time>2019-05-26T13:42:56Z</time>
      </trkpt>
      <trkpt lat="43.06691" lon="5.89464">
        <ele>-0.34</ele>
        <time>2019-05-26T13:43:19Z</time>
      </trkpt>
      <trkpt lat="43.06701" lon="5.89433">
        <ele>-0.34</ele>
        <time>2019-05-26T13:43:37Z</time>
      </trkpt>
      <trkpt lat="43.06713" lon="5.89393">
        <ele>-0.34</ele>
        <time>2019-05-26T13:44:00Z</time>
      </trkpt>
      <trkpt lat="43.06719" lon="5.89356">
        <ele>-0.82</ele>
        <time>2019-05-26T13:44:20Z</time>
      </trkpt>
      <trkpt lat="43.06723" lon="5.89323">
        <ele>-0.82</ele>
        <time>2019-05-26T13:44:39Z</time>
      </trkpt>
      <trkpt lat="43.06727" lon="5.89287">
        <ele>-0.82</ele>
        <time>2019-05-26T13:45:01Z</time>
      </trkpt>
      <trkpt lat="43.06732" lon="5.89261">
        <ele>-1.79</ele>
        <time>2019-05-26T13:45:18Z</time>
      </trkpt>
      <trkpt lat="43.06741" lon="5.8923">
        <ele>-1.79</ele>
        <time>2019-05-26T13:45:39Z</time>
      </trkpt>
      <trkpt lat="43.0675" lon="5.89203">
        <ele>-1.3</ele>
        <time>2019-05-26T13:45:57Z</time>
      </trkpt>
      <trkpt lat="43.06757" lon="5.89175">
        <ele>-1.3</ele>
        <time>2019-05-26T13:46:16Z</time>
      </trkpt>
      <trkpt lat="43.06765" lon="5.89143">
        <ele>-0.82</ele>
        <time>2019-05-26T13:46:37Z</time>
      </trkpt>
      <trkpt lat="43.06771" lon="5.89112">
        <ele>-1.79</ele>
        <time>2019-05-26T13:46:56Z</time>
      </trkpt>
      <trkpt lat="43.06779" lon="5.89084">
        <ele>-1.3</ele>
        <time>2019-05-26T13:47:13Z</time>
      </trkpt>
      <trkpt lat="43.06792" lon="5.89047">
        <ele>-0.82</ele>
        <time>2019-05-26T13:47:37Z</time>
      </trkpt>
      <trkpt lat="43.06795" lon="5.89015">
        <ele>-0.34</ele>
        <time>2019-05-26T13:47:56Z</time>
      </trkpt>
      <trkpt lat="43.06796" lon="5.88982">
        <ele>-0.34</ele>
        <time>2019-05-26T13:48:17Z</time>
      </trkpt>
      <trkpt lat="43.06796" lon="5.88953">
        <ele>-0.34</ele>
        <time>2019-05-26T13:48:36Z</time>
      </trkpt>
      <trkpt lat="43.06793" lon="5.88919">
        <ele>-0.34</ele>
        <time>2019-05-26T13:48:58Z</time>
      </trkpt>
      <trkpt lat="43.0679" lon="5.88888">
        <ele>-0.34</ele>
        <time>2019-05-26T13:49:19Z</time>
      </trkpt>
      <trkpt lat="43.06789" lon="5.88862">
        <ele>0.14</ele>
        <time>2019-05-26T13:49:40Z</time>
      </trkpt>
      <trkpt lat="43.06788" lon="5.88837">
        <ele>-0.34</ele>
        <time>2019-05-26T13:50:01Z</time>
      </trkpt>
      <trkpt lat="43.06784" lon="5.88816">
        <ele>-1.3</ele>
        <time>2019-05-26T13:50:23Z</time>
      </trkpt>
      <trkpt lat="43.0678" lon="5.88797">
        <ele>-1.79</ele>
        <time>2019-05-26T13:50:44Z</time>
      </trkpt>
      <trkpt lat="43.06773" lon="5.88784">
        <ele>-2.27</ele>
        <time>2019-05-26T13:51:05Z</time>
      </trkpt>
      <trkpt lat="43.06767" lon="5.88784">
        <ele>-3.23</ele>
        <time>2019-05-26T13:51:25Z</time>
      </trkpt>
      <trkpt lat="43.06761" lon="5.88793">
        <ele>-3.71</ele>
        <time>2019-05-26T13:51:45Z</time>
      </trkpt>
      <trkpt lat="43.06752" lon="5.88801">
        <ele>-3.71</ele>
        <time>2019-05-26T13:52:03Z</time>
      </trkpt>
      <trkpt lat="43.06741" lon="5.88808">
        <ele>-4.67</ele>
        <time>2019-05-26T13:52:21Z</time>
      </trkpt>
      <trkpt lat="43.06731" lon="5.88815">
        <ele>-4.19</ele>
        <time>2019-05-26T13:52:38Z</time>
      </trkpt>
      <trkpt lat="43.06717" lon="5.88823">
        <ele>-3.71</ele>
        <time>2019-05-26T13:52:57Z</time>
      </trkpt>
      <trkpt lat="43.06704" lon="5.88837">
        <ele>-2.75</ele>
        <time>2019-05-26T13:53:16Z</time>
      </trkpt>
      <trkpt lat="43.06689" lon="5.8885">
        <ele>-2.75</ele>
        <time>2019-05-26T13:53:36Z</time>
      </trkpt>
      <trkpt lat="43.06688" lon="5.88851">
        <ele>-2.75</ele>
        <time>2019-05-26T13:53:38Z</time>
      </trkpt>
      <trkpt lat="43.06672" lon="5.88857">
        <ele>-2.75</ele>
        <time>2019-05-26T13:53:56Z</time>
      </trkpt>
      <trkpt lat="43.06656" lon="5.88868">
        <ele>-2.27</ele>
        <time>2019-05-26T13:54:20Z</time>
      </trkpt>
      <trkpt lat="43.06646" lon="5.88873">
        <ele>-3.23</ele>
        <time>2019-05-26T13:54:40Z</time>
      </trkpt>
      <trkpt lat="43.06637" lon="5.88881">
        <ele>-3.23</ele>
        <time>2019-05-26T13:54:59Z</time>
      </trkpt>
      <trkpt lat="43.06627" lon="5.88894">
        <ele>-2.27</ele>
        <time>2019-05-26T13:55:19Z</time>
      </trkpt>
      <trkpt lat="43.06614" lon="5.88902">
        <ele>-2.27</ele>
        <time>2019-05-26T13:55:37Z</time>
      </trkpt>
      <trkpt lat="43.06603" lon="5.88908">
        <ele>-3.23</ele>
        <time>2019-05-26T13:55:53Z</time>
      </trkpt>
      <trkpt lat="43.06594" lon="5.88909">
        <ele>-3.23</ele>
        <time>2019-05-26T13:56:11Z</time>
      </trkpt>
      <trkpt lat="43.06587" lon="5.88917">
        <ele>-3.23</ele>
        <time>2019-05-26T13:56:29Z</time>
      </trkpt>
      <trkpt lat="43.06583" lon="5.88933">
        <ele>-1.79</ele>
        <time>2019-05-26T13:56:45Z</time>
      </trkpt>
      <trkpt lat="43.0658" lon="5.88953">
        <ele>-1.3</ele>
        <time>2019-05-26T13:57:03Z</time>
      </trkpt>
      <trkpt lat="43.06579" lon="5.88961">
        <ele>-0.82</ele>
        <time>2019-05-26T13:57:10Z</time>
      </trkpt>
      <trkpt lat="43.06579" lon="5.88986">
        <ele>-0.34</ele>
        <time>2019-05-26T13:57:29Z</time>
      </trkpt>
      <trkpt lat="43.0658" lon="5.89007">
        <ele>-1.3</ele>
        <time>2019-05-26T13:57:44Z</time>
      </trkpt>
      <trkpt lat="43.06584" lon="5.89032">
        <ele>-1.79</ele>
        <time>2019-05-26T13:58:02Z</time>
      </trkpt>
      <trkpt lat="43.0659" lon="5.89064">
        <ele>-1.79</ele>
        <time>2019-05-26T13:58:25Z</time>
      </trkpt>
      <trkpt lat="43.06592" lon="5.89086">
        <ele>-0.82</ele>
        <time>2019-05-26T13:58:41Z</time>
      </trkpt>
      <trkpt lat="43.06595" lon="5.89116">
        <ele>-0.82</ele>
        <time>2019-05-26T13:59:01Z</time>
      </trkpt>
      <trkpt lat="43.06596" lon="5.89142">
        <ele>-0.34</ele>
        <time>2019-05-26T13:59:18Z</time>
      </trkpt>
      <trkpt lat="43.06602" lon="5.89173">
        <ele>-0.82</ele>
        <time>2019-05-26T13:59:37Z</time>
      </trkpt>
      <trkpt lat="43.06605" lon="5.89204">
        <ele>0.14</ele>
        <time>2019-05-26T13:59:56Z</time>
      </trkpt>
      <trkpt lat="43.06605" lon="5.89206">
        <ele>0.14</ele>
        <time>2019-05-26T13:59:57Z</time>
      </trkpt>
      <trkpt lat="43.06606" lon="5.89215">
        <ele>0.14</ele>
        <time>2019-05-26T14:00:02Z</time>
      </trkpt>
      <trkpt lat="43.0661" lon="5.89243">
        <ele>-0.34</ele>
        <time>2019-05-26T14:00:18Z</time>
      </trkpt>
      <trkpt lat="43.06613" lon="5.89276">
        <ele>0.14</ele>
        <time>2019-05-26T14:00:36Z</time>
      </trkpt>
      <trkpt lat="43.06612" lon="5.89314">
        <ele>-0.34</ele>
        <time>2019-05-26T14:00:56Z</time>
      </trkpt>
      <trkpt lat="43.06611" lon="5.89356">
        <ele>-0.34</ele>
        <time>2019-05-26T14:01:17Z</time>
      </trkpt>
      <trkpt lat="43.06608" lon="5.894">
        <ele>0.14</ele>
        <time>2019-05-26T14:01:37Z</time>
      </trkpt>
      <trkpt lat="43.06602" lon="5.89432">
        <ele>1.58</ele>
        <time>2019-05-26T14:01:52Z</time>
      </trkpt>
      <trkpt lat="43.06599" lon="5.89442">
        <ele>2.06</ele>
        <time>2019-05-26T14:01:57Z</time>
      </trkpt>
      <trkpt lat="43.06588" lon="5.89481">
        <ele>2.54</ele>
        <time>2019-05-26T14:02:15Z</time>
      </trkpt>
      <trkpt lat="43.06582" lon="5.89517">
        <ele>1.58</ele>
        <time>2019-05-26T14:02:31Z</time>
      </trkpt>
      <trkpt lat="43.06577" lon="5.89567">
        <ele>0.14</ele>
        <time>2019-05-26T14:02:53Z</time>
      </trkpt>
      <trkpt lat="43.06576" lon="5.89599">
        <ele>-0.34</ele>
        <time>2019-05-26T14:03:07Z</time>
      </trkpt>
      <trkpt lat="43.06573" lon="5.8964">
        <ele>-1.79</ele>
        <time>2019-05-26T14:03:26Z</time>
      </trkpt>
      <trkpt lat="43.06572" lon="5.89681">
        <ele>-1.3</ele>
        <time>2019-05-26T14:03:43Z</time>
      </trkpt>
      <trkpt lat="43.06561" lon="5.89721">
        <ele>-1.3</ele>
        <time>2019-05-26T14:03:59Z</time>
      </trkpt>
      <trkpt lat="43.06552" lon="5.89768">
        <ele>-1.79</ele>
        <time>2019-05-26T14:04:17Z</time>
      </trkpt>
      <trkpt lat="43.06543" lon="5.89809">
        <ele>-2.27</ele>
        <time>2019-05-26T14:04:35Z</time>
      </trkpt>
      <trkpt lat="43.06537" lon="5.8985">
        <ele>-2.27</ele>
        <time>2019-05-26T14:04:53Z</time>
      </trkpt>
      <trkpt lat="43.06536" lon="5.89891">
        <ele>-1.79</ele>
        <time>2019-05-26T14:05:11Z</time>
      </trkpt>
      <trkpt lat="43.06538" lon="5.89924">
        <ele>-1.3</ele>
        <time>2019-05-26T14:05:26Z</time>
      </trkpt>
      <trkpt lat="43.0654" lon="5.89963">
        <ele>-1.3</ele>
        <time>2019-05-26T14:05:44Z</time>
      </trkpt>
      <trkpt lat="43.0654" lon="5.90006">
        <ele>-0.82</ele>
        <time>2019-05-26T14:06:04Z</time>
      </trkpt>
      <trkpt lat="43.06543" lon="5.90038">
        <ele>-0.34</ele>
        <time>2019-05-26T14:06:19Z</time>
      </trkpt>
      <trkpt lat="43.06547" lon="5.90078">
        <ele>0.14</ele>
        <time>2019-05-26T14:06:38Z</time>
      </trkpt>
      <trkpt lat="43.06541" lon="5.90116">
        <ele>0.14</ele>
        <time>2019-05-26T14:06:55Z</time>
      </trkpt>
      <trkpt lat="43.06535" lon="5.90128">
        <ele>-0.34</ele>
        <time>2019-05-26T14:07:03Z</time>
      </trkpt>
      <trkpt lat="43.06529" lon="5.90117">
        <ele>-0.34</ele>
        <time>2019-05-26T14:07:17Z</time>
      </trkpt>
      <trkpt lat="43.06545" lon="5.90097">
        <ele>-0.82</ele>
        <time>2019-05-26T14:07:33Z</time>
      </trkpt>
      <trkpt lat="43.06572" lon="5.90069">
        <ele>-0.82</ele>
        <time>2019-05-26T14:07:52Z</time>
      </trkpt>
      <trkpt lat="43.06605" lon="5.90058">
        <ele>-1.3</ele>
        <time>2019-05-26T14:08:07Z</time>
      </trkpt>
      <trkpt lat="43.06647" lon="5.90052">
        <ele>-1.79</ele>
        <time>2019-05-26T14:08:24Z</time>
      </trkpt>
      <trkpt lat="43.06701" lon="5.9002">
        <ele>-1.3</ele>
        <time>2019-05-26T14:08:48Z</time>
      </trkpt>
      <trkpt lat="43.06737" lon="5.90001">
        <ele>-1.79</ele>
        <time>2019-05-26T14:09:08Z</time>
      </trkpt>
      <trkpt lat="43.06766" lon="5.89984">
        <ele>-1.79</ele>
        <time>2019-05-26T14:09:26Z</time>
      </trkpt>
      <trkpt lat="43.06793" lon="5.89973">
        <ele>-1.79</ele>
        <time>2019-05-26T14:09:44Z</time>
      </trkpt>
      <trkpt lat="43.0682" lon="5.89961">
        <ele>-1.79</ele>
        <time>2019-05-26T14:10:02Z</time>
      </trkpt>
      <trkpt lat="43.06847" lon="5.89941">
        <ele>-2.27</ele>
        <time>2019-05-26T14:10:22Z</time>
      </trkpt>
      <trkpt lat="43.06866" lon="5.89917">
        <ele>-2.27</ele>
        <time>2019-05-26T14:10:39Z</time>
      </trkpt>
      <trkpt lat="43.06888" lon="5.89884">
        <ele>-2.27</ele>
        <time>2019-05-26T14:11:00Z</time>
      </trkpt>
      <trkpt lat="43.06919" lon="5.89855">
        <ele>-2.75</ele>
        <time>2019-05-26T14:11:24Z</time>
      </trkpt>
      <trkpt lat="43.06947" lon="5.89834">
        <ele>-1.3</ele>
        <time>2019-05-26T14:11:46Z</time>
      </trkpt>
      <trkpt lat="43.06978" lon="5.89824">
        <ele>-1.79</ele>
        <time>2019-05-26T14:12:09Z</time>
      </trkpt>
      <trkpt lat="43.06982" lon="5.89846">
        <ele>-1.79</ele>
        <time>2019-05-26T14:12:25Z</time>
      </trkpt>
      <trkpt lat="43.0698" lon="5.89848">
        <ele>-2.27</ele>
        <time>2019-05-26T14:12:27Z</time>
      </trkpt>
      <trkpt lat="43.06961" lon="5.89846">
        <ele>-2.27</ele>
        <time>2019-05-26T14:12:47Z</time>
      </trkpt>
      <trkpt lat="43.06942" lon="5.89848">
        <ele>-2.27</ele>
        <time>2019-05-26T14:13:05Z</time>
      </trkpt>
      <trkpt lat="43.06921" lon="5.89868">
        <ele>-2.27</ele>
        <time>2019-05-26T14:13:21Z</time>
      </trkpt>
      <trkpt lat="43.06896" lon="5.89892">
        <ele>-2.27</ele>
        <time>2019-05-26T14:13:36Z</time>
      </trkpt>
      <trkpt lat="43.06873" lon="5.8991">
        <ele>-2.75</ele>
        <time>2019-05-26T14:13:50Z</time>
      </trkpt>
      <trkpt lat="43.06847" lon="5.89929">
        <ele>-3.23</ele>
        <time>2019-05-26T14:14:06Z</time>
      </trkpt>
      <trkpt lat="43.06818" lon="5.89957">
        <ele>-1.79</ele>
        <time>2019-05-26T14:14:24Z</time>
      </trkpt>
      <trkpt lat="43.06789" lon="5.89973">
        <ele>-3.23</ele>
        <time>2019-05-26T14:14:41Z</time>
      </trkpt>
      <trkpt lat="43.06765" lon="5.89985">
        <ele>-3.71</ele>
        <time>2019-05-26T14:14:57Z</time>
      </trkpt>
      <trkpt lat="43.06742" lon="5.9">
        <ele>-4.67</ele>
        <time>2019-05-26T14:15:12Z</time>
      </trkpt>
      <trkpt lat="43.06719" lon="5.90021">
        <ele>-4.19</ele>
        <time>2019-05-26T14:15:27Z</time>
      </trkpt>
      <trkpt lat="43.0669" lon="5.90044">
        <ele>-4.67</ele>
        <time>2019-05-26T14:15:45Z</time>
      </trkpt>
      <trkpt lat="43.06666" lon="5.9007">
        <ele>-3.71</ele>
        <time>2019-05-26T14:16:02Z</time>
      </trkpt>
      <trkpt lat="43.06642" lon="5.90086">
        <ele>-4.19</ele>
        <time>2019-05-26T14:16:19Z</time>
      </trkpt>
      <trkpt lat="43.06622" lon="5.9008">
        <ele>-3.23</ele>
        <time>2019-05-26T14:16:34Z</time>
      </trkpt>
      <trkpt lat="43.06607" lon="5.90067">
        <ele>-3.23</ele>
        <time>2019-05-26T14:16:50Z</time>
      </trkpt>
      <trkpt lat="43.06604" lon="5.90066">
        <ele>-3.23</ele>
        <time>2019-05-26T14:16:54Z</time>
      </trkpt>
      <trkpt lat="43.06588" lon="5.90084">
        <ele>-4.67</ele>
        <time>2019-05-26T14:17:10Z</time>
      </trkpt>
      <trkpt lat="43.06583" lon="5.90091">
        <ele>-4.67</ele>
        <time>2019-05-26T14:17:14Z</time>
      </trkpt>
      <trkpt lat="43.06584" lon="5.9012">
        <ele>-3.23</ele>
        <time>2019-05-26T14:17:27Z</time>
      </trkpt>
      <trkpt lat="43.06608" lon="5.90123">
        <ele>-2.75</ele>
        <time>2019-05-26T14:17:42Z</time>
      </trkpt>
      <trkpt lat="43.06638" lon="5.90127">
        <ele>-1.3</ele>
        <time>2019-05-26T14:18:00Z</time>
      </trkpt>
      <trkpt lat="43.06672" lon="5.9011">
        <ele>-1.79</ele>
        <time>2019-05-26T14:18:20Z</time>
      </trkpt>
      <trkpt lat="43.06709" lon="5.90089">
        <ele>-1.3</ele>
        <time>2019-05-26T14:18:42Z</time>
      </trkpt>
      <trkpt lat="43.06737" lon="5.90082">
        <ele>-2.27</ele>
        <time>2019-05-26T14:18:58Z</time>
      </trkpt>
      <trkpt lat="43.0678" lon="5.9007">
        <ele>-1.79</ele>
        <time>2019-05-26T14:19:20Z</time>
      </trkpt>
      <trkpt lat="43.06815" lon="5.9005">
        <ele>-1.3</ele>
        <time>2019-05-26T14:19:41Z</time>
      </trkpt>
      <trkpt lat="43.06844" lon="5.90031">
        <ele>-0.82</ele>
        <time>2019-05-26T14:20:01Z</time>
      </trkpt>
      <trkpt lat="43.0687" lon="5.90025">
        <ele>-1.79</ele>
        <time>2019-05-26T14:20:21Z</time>
      </trkpt>
      <trkpt lat="43.06897" lon="5.90028">
        <ele>-1.79</ele>
        <time>2019-05-26T14:20:38Z</time>
      </trkpt>
      <trkpt lat="43.06926" lon="5.90025">
        <ele>-1.3</ele>
        <time>2019-05-26T14:20:54Z</time>
      </trkpt>
      <trkpt lat="43.06958" lon="5.90015">
        <ele>-1.79</ele>
        <time>2019-05-26T14:21:14Z</time>
      </trkpt>
      <trkpt lat="43.06984" lon="5.89994">
        <ele>-2.27</ele>
        <time>2019-05-26T14:21:32Z</time>
      </trkpt>
      <trkpt lat="43.06972" lon="5.89973">
        <ele>-1.79</ele>
        <time>2019-05-26T14:21:47Z</time>
      </trkpt>
      <trkpt lat="43.06948" lon="5.89956">
        <ele>-1.79</ele>
        <time>2019-05-26T14:22:05Z</time>
      </trkpt>
      <trkpt lat="43.0693" lon="5.89936">
        <ele>-1.3</ele>
        <time>2019-05-26T14:22:24Z</time>
      </trkpt>
      <trkpt lat="43.06907" lon="5.89933">
        <ele>-2.27</ele>
        <time>2019-05-26T14:22:43Z</time>
      </trkpt>
      <trkpt lat="43.06881" lon="5.89947">
        <ele>-3.23</ele>
        <time>2019-05-26T14:23:01Z</time>
      </trkpt>
      <trkpt lat="43.06861" lon="5.89931">
        <ele>-0.82</ele>
        <time>2019-05-26T14:23:19Z</time>
      </trkpt>
      <trkpt lat="43.06836" lon="5.89929">
        <ele>-1.79</ele>
        <time>2019-05-26T14:23:36Z</time>
      </trkpt>
      <trkpt lat="43.06813" lon="5.89943">
        <ele>-2.27</ele>
        <time>2019-05-26T14:23:49Z</time>
      </trkpt>
      <trkpt lat="43.06787" lon="5.89924">
        <ele>-1.3</ele>
        <time>2019-05-26T14:24:04Z</time>
      </trkpt>
      <trkpt lat="43.06761" lon="5.89923">
        <ele>-2.27</ele>
        <time>2019-05-26T14:24:16Z</time>
      </trkpt>
      <trkpt lat="43.06738" lon="5.89948">
        <ele>-2.27</ele>
        <time>2019-05-26T14:24:30Z</time>
      </trkpt>
      <trkpt lat="43.0671" lon="5.89963">
        <ele>-3.23</ele>
        <time>2019-05-26T14:24:44Z</time>
      </trkpt>
      <trkpt lat="43.06684" lon="5.89953">
        <ele>-2.75</ele>
        <time>2019-05-26T14:24:58Z</time>
      </trkpt>
      <trkpt lat="43.06648" lon="5.89911">
        <ele>-2.27</ele>
        <time>2019-05-26T14:25:18Z</time>
      </trkpt>
      <trkpt lat="43.06619" lon="5.89848">
        <ele>-1.3</ele>
        <time>2019-05-26T14:25:39Z</time>
      </trkpt>
      <trkpt lat="43.06603" lon="5.89795">
        <ele>-0.82</ele>
        <time>2019-05-26T14:25:58Z</time>
      </trkpt>
      <trkpt lat="43.06592" lon="5.89761">
        <ele>-0.34</ele>
        <time>2019-05-26T14:26:13Z</time>
      </trkpt>
      <trkpt lat="43.06576" lon="5.89723">
        <ele>-0.82</ele>
        <time>2019-05-26T14:26:30Z</time>
      </trkpt>
      <trkpt lat="43.06562" lon="5.89688">
        <ele>-0.82</ele>
        <time>2019-05-26T14:26:46Z</time>
      </trkpt>
      <trkpt lat="43.06545" lon="5.89655">
        <ele>-1.3</ele>
        <time>2019-05-26T14:27:03Z</time>
      </trkpt>
      <trkpt lat="43.06524" lon="5.89612">
        <ele>-1.3</ele>
        <time>2019-05-26T14:27:21Z</time>
      </trkpt>
      <trkpt lat="43.0651" lon="5.89566">
        <ele>-0.82</ele>
        <time>2019-05-26T14:27:38Z</time>
      </trkpt>
      <trkpt lat="43.06499" lon="5.89526">
        <ele>0.14</ele>
        <time>2019-05-26T14:27:55Z</time>
      </trkpt>
      <trkpt lat="43.06482" lon="5.89521">
        <ele>-2.27</ele>
        <time>2019-05-26T14:28:06Z</time>
      </trkpt>
      <trkpt lat="43.06481" lon="5.89551">
        <ele>-2.27</ele>
        <time>2019-05-26T14:28:19Z</time>
      </trkpt>
      <trkpt lat="43.06511" lon="5.89557">
        <ele>-2.27</ele>
        <time>2019-05-26T14:28:35Z</time>
      </trkpt>
      <trkpt lat="43.06537" lon="5.89556">
        <ele>-1.3</ele>
        <time>2019-05-26T14:28:48Z</time>
      </trkpt>
      <trkpt lat="43.06536" lon="5.89545">
        <ele>-1.79</ele>
        <time>2019-05-26T14:28:54Z</time>
      </trkpt>
      <trkpt lat="43.06518" lon="5.89518">
        <ele>-1.3</ele>
        <time>2019-05-26T14:29:11Z</time>
      </trkpt>
      <trkpt lat="43.06497" lon="5.89488">
        <ele>-1.3</ele>
        <time>2019-05-26T14:29:27Z</time>
      </trkpt>
      <trkpt lat="43.06492" lon="5.89485">
        <ele>-1.3</ele>
        <time>2019-05-26T14:29:30Z</time>
      </trkpt>
      <trkpt lat="43.0646" lon="5.8951">
        <ele>-2.27</ele>
        <time>2019-05-26T14:29:45Z</time>
      </trkpt>
      <trkpt lat="43.06443" lon="5.89547">
        <ele>-2.27</ele>
        <time>2019-05-26T14:29:58Z</time>
      </trkpt>
      <trkpt lat="43.06428" lon="5.89598">
        <ele>-0.82</ele>
        <time>2019-05-26T14:30:15Z</time>
      </trkpt>
      <trkpt lat="43.06412" lon="5.89653">
        <ele>0.14</ele>
        <time>2019-05-26T14:30:32Z</time>
      </trkpt>
      <trkpt lat="43.06403" lon="5.89702">
        <ele>0.14</ele>
        <time>2019-05-26T14:30:48Z</time>
      </trkpt>
      <trkpt lat="43.06398" lon="5.89753">
        <ele>-0.34</ele>
        <time>2019-05-26T14:31:05Z</time>
      </trkpt>
      <trkpt lat="43.06394" lon="5.89803">
        <ele>-1.3</ele>
        <time>2019-05-26T14:31:21Z</time>
      </trkpt>
      <trkpt lat="43.0639" lon="5.89857">
        <ele>-3.23</ele>
        <time>2019-05-26T14:31:37Z</time>
      </trkpt>
      <trkpt lat="43.06381" lon="5.89916">
        <ele>-2.27</ele>
        <time>2019-05-26T14:31:55Z</time>
      </trkpt>
      <trkpt lat="43.06369" lon="5.89983">
        <ele>-0.34</ele>
        <time>2019-05-26T14:32:15Z</time>
      </trkpt>
      <trkpt lat="43.06361" lon="5.90038">
        <ele>0.14</ele>
        <time>2019-05-26T14:32:31Z</time>
      </trkpt>
      <trkpt lat="43.06355" lon="5.90091">
        <ele>1.1</ele>
        <time>2019-05-26T14:32:46Z</time>
      </trkpt>
      <trkpt lat="43.06351" lon="5.90132">
        <ele>1.1</ele>
        <time>2019-05-26T14:32:58Z</time>
      </trkpt>
      <trkpt lat="43.06346" lon="5.9019">
        <ele>0.62</ele>
        <time>2019-05-26T14:33:15Z</time>
      </trkpt>
      <trkpt lat="43.06341" lon="5.90245">
        <ele>1.1</ele>
        <time>2019-05-26T14:33:31Z</time>
      </trkpt>
      <trkpt lat="43.06336" lon="5.90302">
        <ele>0.14</ele>
        <time>2019-05-26T14:33:48Z</time>
      </trkpt>
      <trkpt lat="43.0633" lon="5.90347">
        <ele>0.62</ele>
        <time>2019-05-26T14:34:02Z</time>
      </trkpt>
      <trkpt lat="43.06322" lon="5.90403">
        <ele>1.1</ele>
        <time>2019-05-26T14:34:19Z</time>
      </trkpt>
      <trkpt lat="43.06314" lon="5.90463">
        <ele>0.14</ele>
        <time>2019-05-26T14:34:37Z</time>
      </trkpt>
      <trkpt lat="43.06306" lon="5.90519">
        <ele>-0.34</ele>
        <time>2019-05-26T14:34:54Z</time>
      </trkpt>
      <trkpt lat="43.06298" lon="5.90583">
        <ele>0.62</ele>
        <time>2019-05-26T14:35:14Z</time>
      </trkpt>
      <trkpt lat="43.06294" lon="5.90635">
        <ele>-0.34</ele>
        <time>2019-05-26T14:35:31Z</time>
      </trkpt>
      <trkpt lat="43.06291" lon="5.90693">
        <ele>-0.82</ele>
        <time>2019-05-26T14:35:49Z</time>
      </trkpt>
      <trkpt lat="43.06286" lon="5.90761">
        <ele>-0.82</ele>
        <time>2019-05-26T14:36:11Z</time>
      </trkpt>
      <trkpt lat="43.0628" lon="5.90812">
        <ele>0.62</ele>
        <time>2019-05-26T14:36:27Z</time>
      </trkpt>
      <trkpt lat="43.06275" lon="5.90853">
        <ele>0.62</ele>
        <time>2019-05-26T14:36:40Z</time>
      </trkpt>
      <trkpt lat="43.06266" lon="5.90908">
        <ele>0.14</ele>
        <time>2019-05-26T14:36:57Z</time>
      </trkpt>
      <trkpt lat="43.06264" lon="5.90953">
        <ele>0.14</ele>
        <time>2019-05-26T14:37:11Z</time>
      </trkpt>
      <trkpt lat="43.06263" lon="5.91001">
        <ele>-0.34</ele>
        <time>2019-05-26T14:37:26Z</time>
      </trkpt>
      <trkpt lat="43.06259" lon="5.91055">
        <ele>-0.34</ele>
        <time>2019-05-26T14:37:43Z</time>
      </trkpt>
      <trkpt lat="43.06261" lon="5.91103">
        <ele>-0.34</ele>
        <time>2019-05-26T14:37:59Z</time>
      </trkpt>
      <trkpt lat="43.06262" lon="5.91151">
        <ele>-0.82</ele>
        <time>2019-05-26T14:38:15Z</time>
      </trkpt>
      <trkpt lat="43.06263" lon="5.91198">
        <ele>-1.3</ele>
        <time>2019-05-26T14:38:31Z</time>
      </trkpt>
      <trkpt lat="43.06267" lon="5.9125">
        <ele>-1.3</ele>
        <time>2019-05-26T14:38:50Z</time>
      </trkpt>
      <trkpt lat="43.06269" lon="5.91303">
        <ele>-0.82</ele>
        <time>2019-05-26T14:39:09Z</time>
      </trkpt>
      <trkpt lat="43.0627" lon="5.91349">
        <ele>-0.82</ele>
        <time>2019-05-26T14:39:26Z</time>
      </trkpt>
      <trkpt lat="43.06266" lon="5.91399">
        <ele>-0.82</ele>
        <time>2019-05-26T14:39:44Z</time>
      </trkpt>
      <trkpt lat="43.06261" lon="5.91452">
        <ele>-1.3</ele>
        <time>2019-05-26T14:40:04Z</time>
      </trkpt>
      <trkpt lat="43.06255" lon="5.91497">
        <ele>-0.82</ele>
        <time>2019-05-26T14:40:21Z</time>
      </trkpt>
      <trkpt lat="43.06252" lon="5.91556">
        <ele>-0.34</ele>
        <time>2019-05-26T14:40:42Z</time>
      </trkpt>
      <trkpt lat="43.06249" lon="5.91607">
        <ele>-0.82</ele>
        <time>2019-05-26T14:41:00Z</time>
      </trkpt>
      <trkpt lat="43.06246" lon="5.91655">
        <ele>-0.82</ele>
        <time>2019-05-26T14:41:17Z</time>
      </trkpt>
      <trkpt lat="43.06243" lon="5.917">
        <ele>-0.34</ele>
        <time>2019-05-26T14:41:34Z</time>
      </trkpt>
      <trkpt lat="43.06239" lon="5.91741">
        <ele>-0.34</ele>
        <time>2019-05-26T14:41:51Z</time>
      </trkpt>
      <trkpt lat="43.06235" lon="5.91774">
        <ele>-0.82</ele>
        <time>2019-05-26T14:42:06Z</time>
      </trkpt>
      <trkpt lat="43.0623" lon="5.91807">
        <ele>0.14</ele>
        <time>2019-05-26T14:42:23Z</time>
      </trkpt>
      <trkpt lat="43.06225" lon="5.91848">
        <ele>1.1</ele>
        <time>2019-05-26T14:42:43Z</time>
      </trkpt>
      <trkpt lat="43.06223" lon="5.91864">
        <ele>0.62</ele>
        <time>2019-05-26T14:42:52Z</time>
      </trkpt>
      <trkpt lat="43.06223" lon="5.91892">
        <ele>-0.34</ele>
        <time>2019-05-26T14:43:07Z</time>
      </trkpt>
      <trkpt lat="43.06226" lon="5.91924">
        <ele>-1.3</ele>
        <time>2019-05-26T14:43:26Z</time>
      </trkpt>
      <trkpt lat="43.06228" lon="5.91952">
        <ele>-2.27</ele>
        <time>2019-05-26T14:43:42Z</time>
      </trkpt>
      <trkpt lat="43.06233" lon="5.91981">
        <ele>-1.79</ele>
        <time>2019-05-26T14:44:00Z</time>
      </trkpt>
      <trkpt lat="43.06239" lon="5.92007">
        <ele>-2.27</ele>
        <time>2019-05-26T14:44:16Z</time>
      </trkpt>
      <trkpt lat="43.06243" lon="5.92033">
        <ele>-1.3</ele>
        <time>2019-05-26T14:44:33Z</time>
      </trkpt>
      <trkpt lat="43.06246" lon="5.9206">
        <ele>-0.34</ele>
        <time>2019-05-26T14:44:50Z</time>
      </trkpt>
      <trkpt lat="43.0625" lon="5.92089">
        <ele>-0.34</ele>
        <time>2019-05-26T14:45:08Z</time>
      </trkpt>
      <trkpt lat="43.06256" lon="5.92113">
        <ele>0.14</ele>
        <time>2019-05-26T14:45:23Z</time>
      </trkpt>
      <trkpt lat="43.06259" lon="5.92123">
        <ele>-0.34</ele>
        <time>2019-05-26T14:45:29Z</time>
      </trkpt>
      <trkpt lat="43.06261" lon="5.92133">
        <ele>-0.34</ele>
        <time>2019-05-26T14:45:35Z</time>
      </trkpt>
      <trkpt lat="43.06265" lon="5.92164">
        <ele>0.62</ele>
        <time>2019-05-26T14:45:54Z</time>
      </trkpt>
      <trkpt lat="43.0627" lon="5.92196">
        <ele>-0.82</ele>
        <time>2019-05-26T14:46:12Z</time>
      </trkpt>
      <trkpt lat="43.06277" lon="5.92227">
        <ele>-0.82</ele>
        <time>2019-05-26T14:46:30Z</time>
      </trkpt>
      <trkpt lat="43.06283" lon="5.9226">
        <ele>-0.82</ele>
        <time>2019-05-26T14:46:48Z</time>
      </trkpt>
      <trkpt lat="43.06288" lon="5.92286">
        <ele>-0.34</ele>
        <time>2019-05-26T14:47:02Z</time>
      </trkpt>
      <trkpt lat="43.06295" lon="5.92313">
        <ele>-0.82</ele>
        <time>2019-05-26T14:47:18Z</time>
      </trkpt>
      <trkpt lat="43.06303" lon="5.92348">
        <ele>-1.3</ele>
        <time>2019-05-26T14:47:38Z</time>
      </trkpt>
      <trkpt lat="43.06309" lon="5.92382">
        <ele>-0.82</ele>
        <time>2019-05-26T14:47:58Z</time>
      </trkpt>
      <trkpt lat="43.06316" lon="5.92413">
        <ele>-0.82</ele>
        <time>2019-05-26T14:48:16Z</time>
      </trkpt>
      <trkpt lat="43.06326" lon="5.92447">
        <ele>0.62</ele>
        <time>2019-05-26T14:48:36Z</time>
      </trkpt>
      <trkpt lat="43.06331" lon="5.92479">
        <ele>0.14</ele>
        <time>2019-05-26T14:48:54Z</time>
      </trkpt>
      <trkpt lat="43.06338" lon="5.92517">
        <ele>-0.34</ele>
        <time>2019-05-26T14:49:16Z</time>
      </trkpt>
      <trkpt lat="43.06345" lon="5.92544">
        <ele>-0.34</ele>
        <time>2019-05-26T14:49:33Z</time>
      </trkpt>
      <trkpt lat="43.06352" lon="5.92576">
        <ele>-0.34</ele>
        <time>2019-05-26T14:49:51Z</time>
      </trkpt>
      <trkpt lat="43.06359" lon="5.92605">
        <ele>0.62</ele>
        <time>2019-05-26T14:50:08Z</time>
      </trkpt>
      <trkpt lat="43.06365" lon="5.92633">
        <ele>0.62</ele>
        <time>2019-05-26T14:50:24Z</time>
      </trkpt>
      <trkpt lat="43.0637" lon="5.92662">
        <ele>1.1</ele>
        <time>2019-05-26T14:50:38Z</time>
      </trkpt>
      <trkpt lat="43.06372" lon="5.92699">
        <ele>0.14</ele>
        <time>2019-05-26T14:50:53Z</time>
      </trkpt>
      <trkpt lat="43.06375" lon="5.9274">
        <ele>-0.82</ele>
        <time>2019-05-26T14:51:09Z</time>
      </trkpt>
      <trkpt lat="43.06379" lon="5.92782">
        <ele>-0.34</ele>
        <time>2019-05-26T14:51:25Z</time>
      </trkpt>
      <trkpt lat="43.06381" lon="5.92824">
        <ele>-0.34</ele>
        <time>2019-05-26T14:51:41Z</time>
      </trkpt>
      <trkpt lat="43.06383" lon="5.92865">
        <ele>0.62</ele>
        <time>2019-05-26T14:51:57Z</time>
      </trkpt>
      <trkpt lat="43.06385" lon="5.92908">
        <ele>1.1</ele>
        <time>2019-05-26T14:52:12Z</time>
      </trkpt>
      <trkpt lat="43.06386" lon="5.92958">
        <ele>0.14</ele>
        <time>2019-05-26T14:52:30Z</time>
      </trkpt>
      <trkpt lat="43.06385" lon="5.93004">
        <ele>1.1</ele>
        <time>2019-05-26T14:52:47Z</time>
      </trkpt>
      <trkpt lat="43.06384" lon="5.9304">
        <ele>0.62</ele>
        <time>2019-05-26T14:53:02Z</time>
      </trkpt>
      <trkpt lat="43.06392" lon="5.9307">
        <ele>0.62</ele>
        <time>2019-05-26T14:53:17Z</time>
      </trkpt>
      <trkpt lat="43.06395" lon="5.93103">
        <ele>0.62</ele>
        <time>2019-05-26T14:53:32Z</time>
      </trkpt>
      <trkpt lat="43.06398" lon="5.93148">
        <ele>-0.34</ele>
        <time>2019-05-26T14:53:49Z</time>
      </trkpt>
      <trkpt lat="43.06399" lon="5.93193">
        <ele>-0.34</ele>
        <time>2019-05-26T14:54:05Z</time>
      </trkpt>
      <trkpt lat="43.06401" lon="5.9324">
        <ele>-0.82</ele>
        <time>2019-05-26T14:54:20Z</time>
      </trkpt>
      <trkpt lat="43.06401" lon="5.93292">
        <ele>-1.3</ele>
        <time>2019-05-26T14:54:37Z</time>
      </trkpt>
      <trkpt lat="43.06401" lon="5.93347">
        <ele>-0.82</ele>
        <time>2019-05-26T14:54:53Z</time>
      </trkpt>
      <trkpt lat="43.06402" lon="5.93411">
        <ele>-1.3</ele>
        <time>2019-05-26T14:55:11Z</time>
      </trkpt>
      <trkpt lat="43.06403" lon="5.93471">
        <ele>-0.82</ele>
        <time>2019-05-26T14:55:28Z</time>
      </trkpt>
      <trkpt lat="43.06404" lon="5.93527">
        <ele>0.14</ele>
        <time>2019-05-26T14:55:44Z</time>
      </trkpt>
      <trkpt lat="43.06406" lon="5.93582">
        <ele>0.14</ele>
        <time>2019-05-26T14:56:00Z</time>
      </trkpt>
      <trkpt lat="43.06407" lon="5.93648">
        <ele>-0.34</ele>
        <time>2019-05-26T14:56:19Z</time>
      </trkpt>
      <trkpt lat="43.06411" lon="5.93704">
        <ele>-1.3</ele>
        <time>2019-05-26T14:56:36Z</time>
      </trkpt>
      <trkpt lat="43.06416" lon="5.93761">
        <ele>-1.3</ele>
        <time>2019-05-26T14:56:53Z</time>
      </trkpt>
      <trkpt lat="43.06421" lon="5.93811">
        <ele>-1.79</ele>
        <time>2019-05-26T14:57:08Z</time>
      </trkpt>
      <trkpt lat="43.06427" lon="5.93863">
        <ele>-2.75</ele>
        <time>2019-05-26T14:57:24Z</time>
      </trkpt>
      <trkpt lat="43.06433" lon="5.93907">
        <ele>-2.75</ele>
        <time>2019-05-26T14:57:38Z</time>
      </trkpt>
      <trkpt lat="43.06441" lon="5.93962">
        <ele>-2.75</ele>
        <time>2019-05-26T14:57:55Z</time>
      </trkpt>
      <trkpt lat="43.06449" lon="5.9402">
        <ele>-2.75</ele>
        <time>2019-05-26T14:58:13Z</time>
      </trkpt>
      <trkpt lat="43.06456" lon="5.94087">
        <ele>-3.23</ele>
        <time>2019-05-26T14:58:33Z</time>
      </trkpt>
      <trkpt lat="43.06464" lon="5.94157">
        <ele>-3.71</ele>
        <time>2019-05-26T14:58:53Z</time>
      </trkpt>
      <trkpt lat="43.06474" lon="5.94217">
        <ele>-3.71</ele>
        <time>2019-05-26T14:59:10Z</time>
      </trkpt>
      <trkpt lat="43.06486" lon="5.94275">
        <ele>-3.23</ele>
        <time>2019-05-26T14:59:28Z</time>
      </trkpt>
      <trkpt lat="43.06499" lon="5.94334">
        <ele>-2.75</ele>
        <time>2019-05-26T14:59:47Z</time>
      </trkpt>
      <trkpt lat="43.06509" lon="5.94383">
        <ele>-2.27</ele>
        <time>2019-05-26T15:00:03Z</time>
      </trkpt>
      <trkpt lat="43.06518" lon="5.94428">
        <ele>-1.3</ele>
        <time>2019-05-26T15:00:18Z</time>
      </trkpt>
      <trkpt lat="43.06525" lon="5.9447">
        <ele>-1.3</ele>
        <time>2019-05-26T15:00:34Z</time>
      </trkpt>
      <trkpt lat="43.06533" lon="5.94517">
        <ele>-1.79</ele>
        <time>2019-05-26T15:00:51Z</time>
      </trkpt>
      <trkpt lat="43.06545" lon="5.94564">
        <ele>-1.79</ele>
        <time>2019-05-26T15:01:07Z</time>
      </trkpt>
      <trkpt lat="43.06557" lon="5.94605">
        <ele>-1.79</ele>
        <time>2019-05-26T15:01:21Z</time>
      </trkpt>
      <trkpt lat="43.06571" lon="5.9465">
        <ele>-1.3</ele>
        <time>2019-05-26T15:01:37Z</time>
      </trkpt>
      <trkpt lat="43.06584" lon="5.94698">
        <ele>-1.79</ele>
        <time>2019-05-26T15:01:53Z</time>
      </trkpt>
      <trkpt lat="43.06598" lon="5.94749">
        <ele>-1.79</ele>
        <time>2019-05-26T15:02:09Z</time>
      </trkpt>
      <trkpt lat="43.06618" lon="5.94802">
        <ele>-2.27</ele>
        <time>2019-05-26T15:02:28Z</time>
      </trkpt>
      <trkpt lat="43.06635" lon="5.94846">
        <ele>-1.3</ele>
        <time>2019-05-26T15:02:44Z</time>
      </trkpt>
      <trkpt lat="43.06654" lon="5.94884">
        <ele>-1.3</ele>
        <time>2019-05-26T15:02:58Z</time>
      </trkpt>
      <trkpt lat="43.06675" lon="5.94921">
        <ele>-0.82</ele>
        <time>2019-05-26T15:03:12Z</time>
      </trkpt>
      <trkpt lat="43.06697" lon="5.94961">
        <ele>-1.79</ele>
        <time>2019-05-26T15:03:27Z</time>
      </trkpt>
      <trkpt lat="43.0672" lon="5.95001">
        <ele>-2.75</ele>
        <time>2019-05-26T15:03:42Z</time>
      </trkpt>
      <trkpt lat="43.06745" lon="5.95042">
        <ele>-3.71</ele>
        <time>2019-05-26T15:03:59Z</time>
      </trkpt>
      <trkpt lat="43.06763" lon="5.95072">
        <ele>-3.71</ele>
        <time>2019-05-26T15:04:11Z</time>
      </trkpt>
      <trkpt lat="43.06792" lon="5.95115">
        <ele>-3.23</ele>
        <time>2019-05-26T15:04:30Z</time>
      </trkpt>
      <trkpt lat="43.06817" lon="5.95151">
        <ele>-3.23</ele>
        <time>2019-05-26T15:04:47Z</time>
      </trkpt>
      <trkpt lat="43.06841" lon="5.95184">
        <ele>-3.23</ele>
        <time>2019-05-26T15:05:02Z</time>
      </trkpt>
      <trkpt lat="43.06872" lon="5.95226">
        <ele>-3.71</ele>
        <time>2019-05-26T15:05:22Z</time>
      </trkpt>
      <trkpt lat="43.06898" lon="5.95259">
        <ele>-3.23</ele>
        <time>2019-05-26T15:05:39Z</time>
      </trkpt>
      <trkpt lat="43.06921" lon="5.95287">
        <ele>-2.75</ele>
        <time>2019-05-26T15:05:54Z</time>
      </trkpt>
      <trkpt lat="43.06949" lon="5.95321">
        <ele>-2.75</ele>
        <time>2019-05-26T15:06:12Z</time>
      </trkpt>
      <trkpt lat="43.06976" lon="5.95357">
        <ele>-3.23</ele>
        <time>2019-05-26T15:06:30Z</time>
      </trkpt>
      <trkpt lat="43.07001" lon="5.95388">
        <ele>-3.23</ele>
        <time>2019-05-26T15:06:46Z</time>
      </trkpt>
      <trkpt lat="43.0703" lon="5.95421">
        <ele>-2.75</ele>
        <time>2019-05-26T15:07:04Z</time>
      </trkpt>
      <trkpt lat="43.07058" lon="5.95448">
        <ele>-3.23</ele>
        <time>2019-05-26T15:07:20Z</time>
      </trkpt>
      <trkpt lat="43.07096" lon="5.95489">
        <ele>-2.75</ele>
        <time>2019-05-26T15:07:42Z</time>
      </trkpt>
      <trkpt lat="43.07129" lon="5.95524">
        <ele>-2.75</ele>
        <time>2019-05-26T15:08:00Z</time>
      </trkpt>
      <trkpt lat="43.07167" lon="5.95563">
        <ele>-3.23</ele>
        <time>2019-05-26T15:08:20Z</time>
      </trkpt>
      <trkpt lat="43.07199" lon="5.95598">
        <ele>-2.75</ele>
        <time>2019-05-26T15:08:37Z</time>
      </trkpt>
      <trkpt lat="43.07235" lon="5.95635">
        <ele>-3.23</ele>
        <time>2019-05-26T15:08:55Z</time>
      </trkpt>
      <trkpt lat="43.07271" lon="5.95673">
        <ele>-2.75</ele>
        <time>2019-05-26T15:09:13Z</time>
      </trkpt>
      <trkpt lat="43.07302" lon="5.95707">
        <ele>-3.23</ele>
        <time>2019-05-26T15:09:29Z</time>
      </trkpt>
      <trkpt lat="43.07333" lon="5.95743">
        <ele>-3.23</ele>
        <time>2019-05-26T15:09:46Z</time>
      </trkpt>
      <trkpt lat="43.07374" lon="5.95787">
        <ele>-3.23</ele>
        <time>2019-05-26T15:10:07Z</time>
      </trkpt>
      <trkpt lat="43.07403" lon="5.95817">
        <ele>-2.75</ele>
        <time>2019-05-26T15:10:22Z</time>
      </trkpt>
      <trkpt lat="43.07435" lon="5.95846">
        <ele>-1.3</ele>
        <time>2019-05-26T15:10:38Z</time>
      </trkpt>
      <trkpt lat="43.07467" lon="5.95874">
        <ele>-0.82</ele>
        <time>2019-05-26T15:10:55Z</time>
      </trkpt>
      <trkpt lat="43.075" lon="5.959">
        <ele>-1.79</ele>
        <time>2019-05-26T15:11:12Z</time>
      </trkpt>
      <trkpt lat="43.07535" lon="5.95925">
        <ele>-2.27</ele>
        <time>2019-05-26T15:11:30Z</time>
      </trkpt>
      <trkpt lat="43.07575" lon="5.95952">
        <ele>-2.75</ele>
        <time>2019-05-26T15:11:50Z</time>
      </trkpt>
      <trkpt lat="43.0761" lon="5.95958">
        <ele>-2.75</ele>
        <time>2019-05-26T15:12:06Z</time>
      </trkpt>
      <trkpt lat="43.0766" lon="5.95928">
        <ele>-2.75</ele>
        <time>2019-05-26T15:12:28Z</time>
      </trkpt>
      <trkpt lat="43.07704" lon="5.95891">
        <ele>-3.71</ele>
        <time>2019-05-26T15:12:46Z</time>
      </trkpt>
      <trkpt lat="43.07753" lon="5.95851">
        <ele>-4.19</ele>
        <time>2019-05-26T15:13:06Z</time>
      </trkpt>
      <trkpt lat="43.07795" lon="5.95817">
        <ele>-4.19</ele>
        <time>2019-05-26T15:13:24Z</time>
      </trkpt>
      <trkpt lat="43.0784" lon="5.95772">
        <ele>-4.19</ele>
        <time>2019-05-26T15:13:45Z</time>
      </trkpt>
      <trkpt lat="43.07875" lon="5.95727">
        <ele>-3.71</ele>
        <time>2019-05-26T15:14:03Z</time>
      </trkpt>
      <trkpt lat="43.07899" lon="5.95684">
        <ele>-2.75</ele>
        <time>2019-05-26T15:14:18Z</time>
      </trkpt>
      <trkpt lat="43.07939" lon="5.95639">
        <ele>-2.27</ele>
        <time>2019-05-26T15:14:38Z</time>
      </trkpt>
      <trkpt lat="43.07981" lon="5.95603">
        <ele>-2.75</ele>
        <time>2019-05-26T15:14:58Z</time>
      </trkpt>
      <trkpt lat="43.08015" lon="5.95565">
        <ele>-2.27</ele>
        <time>2019-05-26T15:15:18Z</time>
      </trkpt>
      <trkpt lat="43.08043" lon="5.95538">
        <ele>-2.75</ele>
        <time>2019-05-26T15:15:35Z</time>
      </trkpt>
      <trkpt lat="43.08086" lon="5.95491">
        <ele>-1.79</ele>
        <time>2019-05-26T15:15:58Z</time>
      </trkpt>
      <trkpt lat="43.08131" lon="5.95441">
        <ele>-2.27</ele>
        <time>2019-05-26T15:16:22Z</time>
      </trkpt>
      <trkpt lat="43.08176" lon="5.95396">
        <ele>-1.79</ele>
        <time>2019-05-26T15:16:45Z</time>
      </trkpt>
      <trkpt lat="43.0821" lon="5.9535">
        <ele>-2.27</ele>
        <time>2019-05-26T15:17:05Z</time>
      </trkpt>
      <trkpt lat="43.08248" lon="5.95316">
        <ele>-1.79</ele>
        <time>2019-05-26T15:17:25Z</time>
      </trkpt>
      <trkpt lat="43.08281" lon="5.95285">
        <ele>-1.79</ele>
        <time>2019-05-26T15:17:44Z</time>
      </trkpt>
      <trkpt lat="43.08312" lon="5.95251">
        <ele>-2.75</ele>
        <time>2019-05-26T15:18:03Z</time>
      </trkpt>
      <trkpt lat="43.0835" lon="5.95211">
        <ele>-1.3</ele>
        <time>2019-05-26T15:18:23Z</time>
      </trkpt>
      <trkpt lat="43.08395" lon="5.9517">
        <ele>-2.27</ele>
        <time>2019-05-26T15:18:46Z</time>
      </trkpt>
      <trkpt lat="43.08429" lon="5.95142">
        <ele>-2.75</ele>
        <time>2019-05-26T15:19:04Z</time>
      </trkpt>
      <trkpt lat="43.08466" lon="5.95112">
        <ele>-2.27</ele>
        <time>2019-05-26T15:19:25Z</time>
      </trkpt>
      <trkpt lat="43.08497" lon="5.95078">
        <ele>-1.79</ele>
        <time>2019-05-26T15:19:45Z</time>
      </trkpt>
      <trkpt lat="43.08536" lon="5.95034">
        <ele>-2.75</ele>
        <time>2019-05-26T15:20:09Z</time>
      </trkpt>
      <trkpt lat="43.0858" lon="5.94985">
        <ele>-3.71</ele>
        <time>2019-05-26T15:20:32Z</time>
      </trkpt>
      <trkpt lat="43.08629" lon="5.94931">
        <ele>-3.71</ele>
        <time>2019-05-26T15:20:58Z</time>
      </trkpt>
      <trkpt lat="43.08663" lon="5.94889">
        <ele>-3.71</ele>
        <time>2019-05-26T15:21:20Z</time>
      </trkpt>
      <trkpt lat="43.08689" lon="5.94846">
        <ele>-3.23</ele>
        <time>2019-05-26T15:21:40Z</time>
      </trkpt>
      <trkpt lat="43.08718" lon="5.94804">
        <ele>-3.71</ele>
        <time>2019-05-26T15:22:02Z</time>
      </trkpt>
      <trkpt lat="43.08746" lon="5.94768">
        <ele>-5.15</ele>
        <time>2019-05-26T15:22:24Z</time>
      </trkpt>
      <trkpt lat="43.08774" lon="5.94735">
        <ele>-5.15</ele>
        <time>2019-05-26T15:22:48Z</time>
      </trkpt>
      <trkpt lat="43.08796" lon="5.94709">
        <ele>-4.19</ele>
        <time>2019-05-26T15:23:11Z</time>
      </trkpt>
      <trkpt lat="43.08819" lon="5.94686">
        <ele>-2.27</ele>
        <time>2019-05-26T15:23:37Z</time>
      </trkpt>
      <trkpt lat="43.08836" lon="5.94667">
        <ele>-2.75</ele>
        <time>2019-05-26T15:23:58Z</time>
      </trkpt>
      <trkpt lat="43.08853" lon="5.94648">
        <ele>-2.75</ele>
        <time>2019-05-26T15:24:22Z</time>
      </trkpt>
      <trkpt lat="43.08869" lon="5.94635">
        <ele>-1.79</ele>
        <time>2019-05-26T15:24:44Z</time>
      </trkpt>
      <trkpt lat="43.08884" lon="5.94622">
        <ele>-0.82</ele>
        <time>2019-05-26T15:25:08Z</time>
      </trkpt>
      <trkpt lat="43.08897" lon="5.9461">
        <ele>0.14</ele>
        <time>2019-05-26T15:25:33Z</time>
      </trkpt>
      <trkpt lat="43.0891" lon="5.946">
        <ele>0.14</ele>
        <time>2019-05-26T15:25:54Z</time>
      </trkpt>
      <trkpt lat="43.08921" lon="5.9459">
        <ele>-1.79</ele>
        <time>2019-05-26T15:26:16Z</time>
      </trkpt>
      <trkpt lat="43.08932" lon="5.94578">
        <ele>-4.19</ele>
        <time>2019-05-26T15:26:40Z</time>
      </trkpt>
      <trkpt lat="43.08942" lon="5.94563">
        <ele>-4.67</ele>
        <time>2019-05-26T15:27:06Z</time>
      </trkpt>
      <trkpt lat="43.08954" lon="5.94553">
        <ele>-1.3</ele>
        <time>2019-05-26T15:27:30Z</time>
      </trkpt>
      <trkpt lat="43.08964" lon="5.94542">
        <ele>-1.79</ele>
        <time>2019-05-26T15:27:51Z</time>
      </trkpt>
      <trkpt lat="43.08981" lon="5.94522">
        <ele>-2.27</ele>
        <time>2019-05-26T15:28:19Z</time>
      </trkpt>
      <trkpt lat="43.09002" lon="5.94496">
        <ele>-3.23</ele>
        <time>2019-05-26T15:28:43Z</time>
      </trkpt>
      <trkpt lat="43.0903" lon="5.94462">
        <ele>-3.23</ele>
        <time>2019-05-26T15:29:07Z</time>
      </trkpt>
      <trkpt lat="43.09068" lon="5.94424">
        <ele>-2.75</ele>
        <time>2019-05-26T15:29:37Z</time>
      </trkpt>
      <trkpt lat="43.09094" lon="5.94399">
        <ele>-1.3</ele>
        <time>2019-05-26T15:29:59Z</time>
      </trkpt>
      <trkpt lat="43.09122" lon="5.94372">
        <ele>-1.79</ele>
        <time>2019-05-26T15:30:22Z</time>
      </trkpt>
      <trkpt lat="43.09159" lon="5.94337">
        <ele>-1.79</ele>
        <time>2019-05-26T15:30:45Z</time>
      </trkpt>
      <trkpt lat="43.09201" lon="5.94299">
        <ele>-1.3</ele>
        <time>2019-05-26T15:31:07Z</time>
      </trkpt>
      <trkpt lat="43.09253" lon="5.94251">
        <ele>-1.3</ele>
        <time>2019-05-26T15:31:32Z</time>
      </trkpt>
      <trkpt lat="43.09303" lon="5.94197">
        <ele>-1.79</ele>
        <time>2019-05-26T15:31:57Z</time>
      </trkpt>
      <trkpt lat="43.09343" lon="5.9414">
        <ele>-2.75</ele>
        <time>2019-05-26T15:32:18Z</time>
      </trkpt>
      <trkpt lat="43.09382" lon="5.94085">
        <ele>-2.27</ele>
        <time>2019-05-26T15:32:38Z</time>
      </trkpt>
      <trkpt lat="43.09423" lon="5.94028">
        <ele>-2.75</ele>
        <time>2019-05-26T15:32:58Z</time>
      </trkpt>
      <trkpt lat="43.09472" lon="5.93971">
        <ele>-2.75</ele>
        <time>2019-05-26T15:33:21Z</time>
      </trkpt>
      <trkpt lat="43.09534" lon="5.93909">
        <ele>-3.23</ele>
        <time>2019-05-26T15:33:50Z</time>
      </trkpt>
      <trkpt lat="43.09587" lon="5.9386">
        <ele>-2.75</ele>
        <time>2019-05-26T15:34:14Z</time>
      </trkpt>
      <trkpt lat="43.09635" lon="5.93817">
        <ele>-0.82</ele>
        <time>2019-05-26T15:34:37Z</time>
      </trkpt>
      <trkpt lat="43.0969" lon="5.93765">
        <ele>-0.82</ele>
        <time>2019-05-26T15:35:04Z</time>
      </trkpt>
      <trkpt lat="43.09742" lon="5.93712">
        <ele>-1.3</ele>
        <time>2019-05-26T15:35:29Z</time>
      </trkpt>
      <trkpt lat="43.09798" lon="5.93658">
        <ele>-1.79</ele>
        <time>2019-05-26T15:35:56Z</time>
      </trkpt>
      <trkpt lat="43.0984" lon="5.93612">
        <ele>-1.3</ele>
        <time>2019-05-26T15:36:17Z</time>
      </trkpt>
      <trkpt lat="43.09855" lon="5.93553">
        <ele>-2.75</ele>
        <time>2019-05-26T15:36:39Z</time>
      </trkpt>
      <trkpt lat="43.09858" lon="5.93482">
        <ele>-3.23</ele>
        <time>2019-05-26T15:37:04Z</time>
      </trkpt>
      <trkpt lat="43.09846" lon="5.93416">
        <ele>-2.75</ele>
        <time>2019-05-26T15:37:27Z</time>
      </trkpt>
      <trkpt lat="43.09822" lon="5.93364">
        <ele>-1.3</ele>
        <time>2019-05-26T15:37:48Z</time>
      </trkpt>
      <trkpt lat="43.09792" lon="5.93325">
        <ele>-0.82</ele>
        <time>2019-05-26T15:38:07Z</time>
      </trkpt>
      <trkpt lat="43.09745" lon="5.93281">
        <ele>-1.3</ele>
        <time>2019-05-26T15:38:33Z</time>
      </trkpt>
      <trkpt lat="43.09707" lon="5.9325">
        <ele>-1.3</ele>
        <time>2019-05-26T15:38:53Z</time>
      </trkpt>
      <trkpt lat="43.09674" lon="5.93226">
        <ele>-1.79</ele>
        <time>2019-05-26T15:39:14Z</time>
      </trkpt>
      <trkpt lat="43.09654" lon="5.93203">
        <ele>-0.34</ele>
        <time>2019-05-26T15:39:37Z</time>
      </trkpt>
      <trkpt lat="43.09644" lon="5.93181">
        <ele>-1.3</ele>
        <time>2019-05-26T15:39:56Z</time>
      </trkpt>
      <trkpt lat="43.09635" lon="5.93155">
        <ele>-0.82</ele>
        <time>2019-05-26T15:40:20Z</time>
      </trkpt>
      <trkpt lat="43.09606" lon="5.93138">
        <ele>-1.79</ele>
        <time>2019-05-26T15:40:38Z</time>
      </trkpt>
      <trkpt lat="43.09562" lon="5.93108">
        <ele>-1.79</ele>
        <time>2019-05-26T15:40:57Z</time>
      </trkpt>
      <trkpt lat="43.09513" lon="5.93076">
        <ele>-2.27</ele>
        <time>2019-05-26T15:41:17Z</time>
      </trkpt>
      <trkpt lat="43.09472" lon="5.93048">
        <ele>-2.27</ele>
        <time>2019-05-26T15:41:36Z</time>
      </trkpt>
      <trkpt lat="43.09416" lon="5.93006">
        <ele>-1.79</ele>
        <time>2019-05-26T15:42:04Z</time>
      </trkpt>
      <trkpt lat="43.09369" lon="5.92974">
        <ele>-1.79</ele>
        <time>2019-05-26T15:42:27Z</time>
      </trkpt>
      <trkpt lat="43.09326" lon="5.92942">
        <ele>-1.79</ele>
        <time>2019-05-26T15:42:49Z</time>
      </trkpt>
      <trkpt lat="43.0927" lon="5.92907">
        <ele>-2.75</ele>
        <time>2019-05-26T15:43:17Z</time>
      </trkpt>
      <trkpt lat="43.09225" lon="5.92876">
        <ele>-2.27</ele>
        <time>2019-05-26T15:43:39Z</time>
      </trkpt>
      <trkpt lat="43.09167" lon="5.92829">
        <ele>-2.75</ele>
        <time>2019-05-26T15:44:09Z</time>
      </trkpt>
      <trkpt lat="43.0912" lon="5.92796">
        <ele>-2.75</ele>
        <time>2019-05-26T15:44:34Z</time>
      </trkpt>
      <trkpt lat="43.09082" lon="5.92776">
        <ele>-3.23</ele>
        <time>2019-05-26T15:44:56Z</time>
      </trkpt>
      <trkpt lat="43.09026" lon="5.92756">
        <ele>-4.19</ele>
        <time>2019-05-26T15:45:21Z</time>
      </trkpt>
      <trkpt lat="43.08975" lon="5.92733">
        <ele>-3.71</ele>
        <time>2019-05-26T15:45:45Z</time>
      </trkpt>
      <trkpt lat="43.08923" lon="5.92708">
        <ele>-5.63</ele>
        <time>2019-05-26T15:46:11Z</time>
      </trkpt>
      <trkpt lat="43.08877" lon="5.9269">
        <ele>-4.19</ele>
        <time>2019-05-26T15:46:37Z</time>
      </trkpt>
      <trkpt lat="43.08841" lon="5.92677">
        <ele>-3.71</ele>
        <time>2019-05-26T15:47:00Z</time>
      </trkpt>
      <trkpt lat="43.08791" lon="5.92657">
        <ele>-4.19</ele>
        <time>2019-05-26T15:47:28Z</time>
      </trkpt>
      <trkpt lat="43.08754" lon="5.92638">
        <ele>-5.63</ele>
        <time>2019-05-26T15:47:54Z</time>
      </trkpt>
      <trkpt lat="43.08724" lon="5.92623">
        <ele>-5.63</ele>
        <time>2019-05-26T15:48:22Z</time>
      </trkpt>
      <trkpt lat="43.08689" lon="5.92609">
        <ele>-3.71</ele>
        <time>2019-05-26T15:48:52Z</time>
      </trkpt>
      <trkpt lat="43.08645" lon="5.92586">
        <ele>-5.15</ele>
        <time>2019-05-26T15:49:20Z</time>
      </trkpt>
      <trkpt lat="43.086" lon="5.92561">
        <ele>-4.19</ele>
        <time>2019-05-26T15:49:45Z</time>
      </trkpt>
      <trkpt lat="43.08552" lon="5.92535">
        <ele>-6.11</ele>
        <time>2019-05-26T15:50:12Z</time>
      </trkpt>
      <trkpt lat="43.08501" lon="5.92509">
        <ele>-5.63</ele>
        <time>2019-05-26T15:50:41Z</time>
      </trkpt>
      <trkpt lat="43.08458" lon="5.92488">
        <ele>-4.19</ele>
        <time>2019-05-26T15:51:08Z</time>
      </trkpt>
      <trkpt lat="43.08426" lon="5.92474">
        <ele>-3.23</ele>
        <time>2019-05-26T15:51:36Z</time>
      </trkpt>
      <trkpt lat="43.08398" lon="5.92467">
        <ele>-3.71</ele>
        <time>2019-05-26T15:52:00Z</time>
      </trkpt>
      <trkpt lat="43.08362" lon="5.9247">
        <ele>-3.71</ele>
        <time>2019-05-26T15:52:24Z</time>
      </trkpt>
      <trkpt lat="43.08308" lon="5.92474">
        <ele>-3.71</ele>
        <time>2019-05-26T15:52:56Z</time>
      </trkpt>
      <trkpt lat="43.08261" lon="5.92474">
        <ele>-5.63</ele>
        <time>2019-05-26T15:53:28Z</time>
      </trkpt>
      <trkpt lat="43.08221" lon="5.92478">
        <ele>-5.63</ele>
        <time>2019-05-26T15:53:54Z</time>
      </trkpt>
      <trkpt lat="43.08175" lon="5.92483">
        <ele>-5.63</ele>
        <time>2019-05-26T15:54:27Z</time>
      </trkpt>
      <trkpt lat="43.08145" lon="5.92488">
        <ele>-4.19</ele>
        <time>2019-05-26T15:55:01Z</time>
      </trkpt>
      <trkpt lat="43.08119" lon="5.92494">
        <ele>-3.23</ele>
        <time>2019-05-26T15:55:38Z</time>
      </trkpt>
      <trkpt lat="43.081" lon="5.925">
        <ele>-2.27</ele>
        <time>2019-05-26T15:56:07Z</time>
      </trkpt>
      <trkpt lat="43.08072" lon="5.92503">
        <ele>-4.67</ele>
        <time>2019-05-26T15:56:36Z</time>
      </trkpt>
      <trkpt lat="43.08026" lon="5.92513">
        <ele>-3.71</ele>
        <time>2019-05-26T15:57:07Z</time>
      </trkpt>
      <trkpt lat="43.08023" lon="5.92521">
        <ele>-2.27</ele>
        <time>2019-05-26T15:57:26Z</time>
      </trkpt>
      <trkpt lat="43.08036" lon="5.92498">
        <ele>-0.82</ele>
        <time>2019-05-26T15:57:53Z</time>
      </trkpt>
      <trkpt lat="43.08036" lon="5.92491">
        <ele>-0.82</ele>
        <time>2019-05-26T15:57:58Z</time>
      </trkpt>
      <trkpt lat="43.08032" lon="5.92455">
        <ele>-1.79</ele>
        <time>2019-05-26T15:58:25Z</time>
      </trkpt>
      <trkpt lat="43.0804" lon="5.92439">
        <ele>-0.82</ele>
        <time>2019-05-26T15:58:51Z</time>
      </trkpt>
      <trkpt lat="43.0804" lon="5.92439">
        <ele>0.14</ele>
        <time>2019-05-26T15:59:27Z</time>
      </trkpt>
      <trkpt lat="43.0804" lon="5.9244">
        <ele>0.14</ele>
        <time>2019-05-26T16:00:02Z</time>
      </trkpt>
      <trkpt lat="43.0804" lon="5.92439">
        <ele>-0.34</ele>
        <time>2019-05-26T16:00:45Z</time>
      </trkpt>
      <trkpt lat="43.0804" lon="5.92439">
        <ele>-1.3</ele>
        <time>2019-05-26T16:01:22Z</time>
      </trkpt>
      <trkpt lat="43.0804" lon="5.92439">
        <ele>-1.79</ele>
        <time>2019-05-26T16:01:54Z</time>
      </trkpt>
      <trkpt lat="43.0804" lon="5.92439">
        <ele>-2.27</ele>
        <time>2019-05-26T16:02:27Z</time>
      </trkpt>
      <trkpt lat="43.0804" lon="5.92439">
        <ele>-2.27</ele>
        <time>2019-05-26T16:03:01Z</time>
      </trkpt>
      <trkpt lat="43.0804" lon="5.92439">
        <ele>-2.75</ele>
        <time>2019-05-26T16:03:36Z</time>
      </trkpt>
      <trkpt lat="43.0804" lon="5.92439">
        <ele>-3.23</ele>
        <time>2019-05-26T16:04:09Z</time>
      </trkpt>
      <trkpt lat="43.08041" lon="5.92439">
        <ele>-2.75</ele>
        <time>2019-05-26T16:04:35Z</time>
      </trkpt>
      <trkpt lat="43.08041" lon="5.92439">
        <ele>-1.79</ele>
        <time>2019-05-26T16:05:04Z</time>
      </trkpt>
      <trkpt lat="43.0804" lon="5.92439">
        <ele>-0.82</ele>
        <time>2019-05-26T16:05:40Z</time>
      </trkpt>
      <trkpt lat="43.0804" lon="5.92439">
        <ele>-0.82</ele>
        <time>2019-05-26T16:06:17Z</time>
      </trkpt>
      <trkpt lat="43.08041" lon="5.92439">
        <ele>-0.82</ele>
        <time>2019-05-26T16:06:53Z</time>
      </trkpt>
      <trkpt lat="43.0804" lon="5.92439">
        <ele>-0.34</ele>
        <time>2019-05-26T16:07:26Z</time>
      </trkpt>
      <trkpt lat="43.0804" lon="5.92439">
        <ele>-0.82</ele>
        <time>2019-05-26T16:07:57Z</time>
      </trkpt>
      <trkpt lat="43.08041" lon="5.92439">
        <ele>-0.82</ele>
        <time>2019-05-26T16:08:28Z</time>
      </trkpt>
      <trkpt lat="43.08041" lon="5.92438">
        <ele>-1.3</ele>
        <time>2019-05-26T16:09:02Z</time>
      </trkpt>
      <trkpt lat="43.08041" lon="5.92439">
        <ele>-0.82</ele>
        <time>2019-05-26T16:09:33Z</time>
      </trkpt>
      <trkpt lat="43.08041" lon="5.92439">
        <ele>-0.34</ele>
        <time>2019-05-26T16:10:00Z</time>
      </trkpt>
      <trkpt lat="43.08041" lon="5.9244">
        <ele>0.14</ele>
        <time>2019-05-26T16:10:35Z</time>
      </trkpt>
      <trkpt lat="43.0804" lon="5.9244">
        <ele>0.62</ele>
        <time>2019-05-26T16:11:07Z</time>
      </trkpt>
      <trkpt lat="43.0804" lon="5.92441">
        <ele>1.1</ele>
        <time>2019-05-26T16:11:43Z</time>
      </trkpt>
      <trkpt lat="43.0804" lon="5.9244">
        <ele>1.58</ele>
        <time>2019-05-26T16:12:17Z</time>
      </trkpt>
      <trkpt lat="43.08041" lon="5.9244">
        <ele>2.06</ele>
        <time>2019-05-26T16:12:51Z</time>
      </trkpt>
      <trkpt lat="43.08041" lon="5.9244">
        <ele>2.06</ele>
        <time>2019-05-26T16:13:23Z</time>
      </trkpt>
      <trkpt lat="43.08042" lon="5.9244">
        <ele>2.54</ele>
        <time>2019-05-26T16:13:46Z</time>
      </trkpt>
      <trkpt lat="43.08042" lon="5.92439">
        <ele>2.54</ele>
        <time>2019-05-26T16:14:18Z</time>
      </trkpt>
      <trkpt lat="43.08042" lon="5.92439">
        <ele>2.54</ele>
        <time>2019-05-26T16:14:48Z</time>
      </trkpt>
      <trkpt lat="43.08042" lon="5.92439">
        <ele>3.02</ele>
        <time>2019-05-26T16:15:21Z</time>
      </trkpt>
      <trkpt lat="43.08042" lon="5.92439">
        <ele>2.54</ele>
        <time>2019-05-26T16:15:36Z</time>
      </trkpt>
    </trkseg>
  </trk>
  <trk>
    <name><![CDATA[Tracé actuel: 27 MAI 2019 09:41]]></name>
    <trkseg>
      <trkpt lat="43.07984" lon="5.92552">
        <ele>-105.61</ele>
        <time>2019-05-27T07:41:52Z</time>
      </trkpt>
      <trkpt lat="43.07979" lon="5.92557">
        <ele>-106.57</ele>
        <time>2019-05-27T07:42:04Z</time>
      </trkpt>
      <trkpt lat="43.07979" lon="5.92558">
        <ele>-108.49</ele>
        <time>2019-05-27T07:42:19Z</time>
      </trkpt>
      <trkpt lat="43.07979" lon="5.92558">
        <ele>-108.49</ele>
        <time>2019-05-27T07:42:23Z</time>
      </trkpt>
      <trkpt lat="43.07979" lon="5.92559">
        <ele>-110.89</ele>
        <time>2019-05-27T07:42:37Z</time>
      </trkpt>
      <trkpt lat="43.07979" lon="5.92559">
        <ele>-111.38</ele>
        <time>2019-05-27T07:42:53Z</time>
      </trkpt>
      <trkpt lat="43.0798" lon="5.92557">
        <ele>-110.89</ele>
        <time>2019-05-27T07:43:05Z</time>
      </trkpt>
      <trkpt lat="43.07978" lon="5.92557">
        <ele>-111.86</ele>
        <time>2019-05-27T07:43:16Z</time>
      </trkpt>
      <trkpt lat="43.07966" lon="5.9248">
        <ele>-84.46</ele>
        <time>2019-05-27T07:43:34Z</time>
      </trkpt>
      <trkpt lat="43.07989" lon="5.92464">
        <ele>-33.03</ele>
        <time>2019-05-27T07:44:02Z</time>
      </trkpt>
      <trkpt lat="43.08013" lon="5.92455">
        <ele>-13.32</ele>
        <time>2019-05-27T07:44:25Z</time>
      </trkpt>
      <trkpt lat="43.0802" lon="5.92452">
        <ele>-7.55</ele>
        <time>2019-05-27T07:44:42Z</time>
      </trkpt>
      <trkpt lat="43.0802" lon="5.92463">
        <ele>-5.15</ele>
        <time>2019-05-27T07:44:56Z</time>
      </trkpt>
      <trkpt lat="43.08033" lon="5.92495">
        <ele>-3.23</ele>
        <time>2019-05-27T07:45:21Z</time>
      </trkpt>
      <trkpt lat="43.08069" lon="5.92501">
        <ele>2.54</ele>
        <time>2019-05-27T07:45:44Z</time>
      </trkpt>
      <trkpt lat="43.08107" lon="5.92506">
        <ele>2.06</ele>
        <time>2019-05-27T07:46:10Z</time>
      </trkpt>
      <trkpt lat="43.0815" lon="5.92507">
        <ele>2.06</ele>
        <time>2019-05-27T07:46:39Z</time>
      </trkpt>
      <trkpt lat="43.08197" lon="5.92512">
        <ele>2.06</ele>
        <time>2019-05-27T07:47:10Z</time>
      </trkpt>
      <trkpt lat="43.08238" lon="5.92527">
        <ele>1.1</ele>
        <time>2019-05-27T07:47:37Z</time>
      </trkpt>
      <trkpt lat="43.08278" lon="5.92541">
        <ele>2.06</ele>
        <time>2019-05-27T07:48:01Z</time>
      </trkpt>
      <trkpt lat="43.08321" lon="5.92566">
        <ele>1.58</ele>
        <time>2019-05-27T07:48:27Z</time>
      </trkpt>
      <trkpt lat="43.08357" lon="5.92596">
        <ele>1.58</ele>
        <time>2019-05-27T07:48:51Z</time>
      </trkpt>
      <trkpt lat="43.08377" lon="5.92625">
        <ele>1.58</ele>
        <time>2019-05-27T07:49:07Z</time>
      </trkpt>
      <trkpt lat="43.08401" lon="5.92656">
        <ele>2.54</ele>
        <time>2019-05-27T07:49:25Z</time>
      </trkpt>
      <trkpt lat="43.08435" lon="5.92693">
        <ele>2.06</ele>
        <time>2019-05-27T07:49:46Z</time>
      </trkpt>
      <trkpt lat="43.08471" lon="5.92739">
        <ele>2.06</ele>
        <time>2019-05-27T07:50:08Z</time>
      </trkpt>
      <trkpt lat="43.08505" lon="5.92779">
        <ele>3.02</ele>
        <time>2019-05-27T07:50:28Z</time>
      </trkpt>
      <trkpt lat="43.08524" lon="5.92805">
        <ele>3.02</ele>
        <time>2019-05-27T07:50:40Z</time>
      </trkpt>
      <trkpt lat="43.08548" lon="5.92838">
        <ele>3.5</ele>
        <time>2019-05-27T07:50:55Z</time>
      </trkpt>
      <trkpt lat="43.0858" lon="5.92871">
        <ele>3.02</ele>
        <time>2019-05-27T07:51:13Z</time>
      </trkpt>
      <trkpt lat="43.08621" lon="5.92905">
        <ele>2.54</ele>
        <time>2019-05-27T07:51:34Z</time>
      </trkpt>
      <trkpt lat="43.08654" lon="5.92939">
        <ele>3.5</ele>
        <time>2019-05-27T07:51:54Z</time>
      </trkpt>
      <trkpt lat="43.08681" lon="5.92966">
        <ele>3.02</ele>
        <time>2019-05-27T07:52:12Z</time>
      </trkpt>
      <trkpt lat="43.08706" lon="5.92994">
        <ele>3.02</ele>
        <time>2019-05-27T07:52:31Z</time>
      </trkpt>
      <trkpt lat="43.08732" lon="5.93021">
        <ele>3.02</ele>
        <time>2019-05-27T07:52:51Z</time>
      </trkpt>
      <trkpt lat="43.08754" lon="5.93043">
        <ele>2.54</ele>
        <time>2019-05-27T07:53:09Z</time>
      </trkpt>
      <trkpt lat="43.08778" lon="5.9307">
        <ele>2.54</ele>
        <time>2019-05-27T07:53:29Z</time>
      </trkpt>
      <trkpt lat="43.08805" lon="5.93101">
        <ele>2.06</ele>
        <time>2019-05-27T07:53:53Z</time>
      </trkpt>
      <trkpt lat="43.0883" lon="5.93134">
        <ele>2.06</ele>
        <time>2019-05-27T07:54:15Z</time>
      </trkpt>
      <trkpt lat="43.08853" lon="5.93176">
        <ele>3.02</ele>
        <time>2019-05-27T07:54:39Z</time>
      </trkpt>
      <trkpt lat="43.08872" lon="5.93211">
        <ele>3.02</ele>
        <time>2019-05-27T07:54:59Z</time>
      </trkpt>
      <trkpt lat="43.08889" lon="5.93254">
        <ele>2.54</ele>
        <time>2019-05-27T07:55:21Z</time>
      </trkpt>
      <trkpt lat="43.08906" lon="5.93299">
        <ele>2.06</ele>
        <time>2019-05-27T07:55:44Z</time>
      </trkpt>
      <trkpt lat="43.08925" lon="5.93361">
        <ele>1.58</ele>
        <time>2019-05-27T07:56:15Z</time>
      </trkpt>
      <trkpt lat="43.08941" lon="5.93423">
        <ele>2.54</ele>
        <time>2019-05-27T07:56:45Z</time>
      </trkpt>
      <trkpt lat="43.08958" lon="5.93475">
        <ele>1.1</ele>
        <time>2019-05-27T07:57:11Z</time>
      </trkpt>
      <trkpt lat="43.08979" lon="5.93502">
        <ele>1.1</ele>
        <time>2019-05-27T07:57:29Z</time>
      </trkpt>
      <trkpt lat="43.09007" lon="5.93533">
        <ele>2.06</ele>
        <time>2019-05-27T07:57:52Z</time>
      </trkpt>
      <trkpt lat="43.09037" lon="5.93564">
        <ele>2.06</ele>
        <time>2019-05-27T07:58:15Z</time>
      </trkpt>
      <trkpt lat="43.09062" lon="5.93602">
        <ele>1.1</ele>
        <time>2019-05-27T07:58:36Z</time>
      </trkpt>
      <trkpt lat="43.0909" lon="5.93662">
        <ele>0.62</ele>
        <time>2019-05-27T07:59:03Z</time>
      </trkpt>
      <trkpt lat="43.09122" lon="5.9373">
        <ele>1.1</ele>
        <time>2019-05-27T07:59:32Z</time>
      </trkpt>
      <trkpt lat="43.09147" lon="5.93787">
        <ele>1.58</ele>
        <time>2019-05-27T07:59:56Z</time>
      </trkpt>
      <trkpt lat="43.09173" lon="5.93834">
        <ele>1.1</ele>
        <time>2019-05-27T08:00:17Z</time>
      </trkpt>
      <trkpt lat="43.09203" lon="5.93893">
        <ele>1.58</ele>
        <time>2019-05-27T08:00:43Z</time>
      </trkpt>
      <trkpt lat="43.09235" lon="5.93944">
        <ele>2.54</ele>
        <time>2019-05-27T08:01:07Z</time>
      </trkpt>
      <trkpt lat="43.09273" lon="5.93996">
        <ele>1.58</ele>
        <time>2019-05-27T08:01:34Z</time>
      </trkpt>
      <trkpt lat="43.09313" lon="5.94036">
        <ele>0.14</ele>
        <time>2019-05-27T08:01:59Z</time>
      </trkpt>
      <trkpt lat="43.09353" lon="5.94063">
        <ele>0.14</ele>
        <time>2019-05-27T08:02:21Z</time>
      </trkpt>
      <trkpt lat="43.09393" lon="5.94095">
        <ele>-0.34</ele>
        <time>2019-05-27T08:02:44Z</time>
      </trkpt>
      <trkpt lat="43.09438" lon="5.94127">
        <ele>0.14</ele>
        <time>2019-05-27T08:03:09Z</time>
      </trkpt>
      <trkpt lat="43.0948" lon="5.94155">
        <ele>0.62</ele>
        <time>2019-05-27T08:03:33Z</time>
      </trkpt>
      <trkpt lat="43.09512" lon="5.9418">
        <ele>0.62</ele>
        <time>2019-05-27T08:03:52Z</time>
      </trkpt>
      <trkpt lat="43.09554" lon="5.94215">
        <ele>1.58</ele>
        <time>2019-05-27T08:04:17Z</time>
      </trkpt>
      <trkpt lat="43.09596" lon="5.94239">
        <ele>1.1</ele>
        <time>2019-05-27T08:04:40Z</time>
      </trkpt>
      <trkpt lat="43.09629" lon="5.94259">
        <ele>1.58</ele>
        <time>2019-05-27T08:04:59Z</time>
      </trkpt>
      <trkpt lat="43.09671" lon="5.94283">
        <ele>2.06</ele>
        <time>2019-05-27T08:05:23Z</time>
      </trkpt>
      <trkpt lat="43.09716" lon="5.94317">
        <ele>1.1</ele>
        <time>2019-05-27T08:05:50Z</time>
      </trkpt>
      <trkpt lat="43.09747" lon="5.9434">
        <ele>1.1</ele>
        <time>2019-05-27T08:06:09Z</time>
      </trkpt>
      <trkpt lat="43.09785" lon="5.94369">
        <ele>1.1</ele>
        <time>2019-05-27T08:06:32Z</time>
      </trkpt>
      <trkpt lat="43.0983" lon="5.94408">
        <ele>1.58</ele>
        <time>2019-05-27T08:07:00Z</time>
      </trkpt>
      <trkpt lat="43.09866" lon="5.94443">
        <ele>1.1</ele>
        <time>2019-05-27T08:07:23Z</time>
      </trkpt>
      <trkpt lat="43.09903" lon="5.94482">
        <ele>0.14</ele>
        <time>2019-05-27T08:07:48Z</time>
      </trkpt>
      <trkpt lat="43.09938" lon="5.94528">
        <ele>0.62</ele>
        <time>2019-05-27T08:08:14Z</time>
      </trkpt>
      <trkpt lat="43.09967" lon="5.94573">
        <ele>0.62</ele>
        <time>2019-05-27T08:08:37Z</time>
      </trkpt>
      <trkpt lat="43.10001" lon="5.94631">
        <ele>0.14</ele>
        <time>2019-05-27T08:09:06Z</time>
      </trkpt>
      <trkpt lat="43.10033" lon="5.94682">
        <ele>1.1</ele>
        <time>2019-05-27T08:09:32Z</time>
      </trkpt>
      <trkpt lat="43.10061" lon="5.94724">
        <ele>1.1</ele>
        <time>2019-05-27T08:09:54Z</time>
      </trkpt>
      <trkpt lat="43.10097" lon="5.94781">
        <ele>0.62</ele>
        <time>2019-05-27T08:10:23Z</time>
      </trkpt>
      <trkpt lat="43.10127" lon="5.94834">
        <ele>0.62</ele>
        <time>2019-05-27T08:10:49Z</time>
      </trkpt>
      <trkpt lat="43.10156" lon="5.94886">
        <ele>0.62</ele>
        <time>2019-05-27T08:11:14Z</time>
      </trkpt>
      <trkpt lat="43.1018" lon="5.94936">
        <ele>1.1</ele>
        <time>2019-05-27T08:11:37Z</time>
      </trkpt>
      <trkpt lat="43.10189" lon="5.94988">
        <ele>1.1</ele>
        <time>2019-05-27T08:11:59Z</time>
      </trkpt>
      <trkpt lat="43.10205" lon="5.95018">
        <ele>1.58</ele>
        <time>2019-05-27T08:12:17Z</time>
      </trkpt>
      <trkpt lat="43.10227" lon="5.95044">
        <ele>1.58</ele>
        <time>2019-05-27T08:12:38Z</time>
      </trkpt>
      <trkpt lat="43.10256" lon="5.9507">
        <ele>1.58</ele>
        <time>2019-05-27T08:13:04Z</time>
      </trkpt>
      <trkpt lat="43.10263" lon="5.95102">
        <ele>1.58</ele>
        <time>2019-05-27T08:13:23Z</time>
      </trkpt>
      <trkpt lat="43.10271" lon="5.95148">
        <ele>2.06</ele>
        <time>2019-05-27T08:13:51Z</time>
      </trkpt>
      <trkpt lat="43.10296" lon="5.95171">
        <ele>1.58</ele>
        <time>2019-05-27T08:14:15Z</time>
      </trkpt>
      <trkpt lat="43.10325" lon="5.95187">
        <ele>1.1</ele>
        <time>2019-05-27T08:14:40Z</time>
      </trkpt>
      <trkpt lat="43.1035" lon="5.95196">
        <ele>2.06</ele>
        <time>2019-05-27T08:15:00Z</time>
      </trkpt>
      <trkpt lat="43.10356" lon="5.95194">
        <ele>2.06</ele>
        <time>2019-05-27T08:15:05Z</time>
      </trkpt>
      <trkpt lat="43.10365" lon="5.95183">
        <ele>2.54</ele>
        <time>2019-05-27T08:15:15Z</time>
      </trkpt>
      <trkpt lat="43.10361" lon="5.95156">
        <ele>3.5</ele>
        <time>2019-05-27T08:15:37Z</time>
      </trkpt>
      <trkpt lat="43.10343" lon="5.95162">
        <ele>3.5</ele>
        <time>2019-05-27T08:15:56Z</time>
      </trkpt>
      <trkpt lat="43.10317" lon="5.95201">
        <ele>2.54</ele>
        <time>2019-05-27T08:16:17Z</time>
      </trkpt>
      <trkpt lat="43.10282" lon="5.95255">
        <ele>2.54</ele>
        <time>2019-05-27T08:16:38Z</time>
      </trkpt>
      <trkpt lat="43.10249" lon="5.95306">
        <ele>3.02</ele>
        <time>2019-05-27T08:16:57Z</time>
      </trkpt>
      <trkpt lat="43.10219" lon="5.95382">
        <ele>2.06</ele>
        <time>2019-05-27T08:17:19Z</time>
      </trkpt>
      <trkpt lat="43.10183" lon="5.95464">
        <ele>1.58</ele>
        <time>2019-05-27T08:17:43Z</time>
      </trkpt>
      <trkpt lat="43.1014" lon="5.95536">
        <ele>2.54</ele>
        <time>2019-05-27T08:18:06Z</time>
      </trkpt>
      <trkpt lat="43.10101" lon="5.95577">
        <ele>3.02</ele>
        <time>2019-05-27T08:18:23Z</time>
      </trkpt>
      <trkpt lat="43.10054" lon="5.95639">
        <ele>3.5</ele>
        <time>2019-05-27T08:18:44Z</time>
      </trkpt>
      <trkpt lat="43.09998" lon="5.95712">
        <ele>3.5</ele>
        <time>2019-05-27T08:19:12Z</time>
      </trkpt>
      <trkpt lat="43.09943" lon="5.95783">
        <ele>3.02</ele>
        <time>2019-05-27T08:19:43Z</time>
      </trkpt>
      <trkpt lat="43.09896" lon="5.95839">
        <ele>3.5</ele>
        <time>2019-05-27T08:20:09Z</time>
      </trkpt>
      <trkpt lat="43.09843" lon="5.95885">
        <ele>2.54</ele>
        <time>2019-05-27T08:20:35Z</time>
      </trkpt>
      <trkpt lat="43.09797" lon="5.95925">
        <ele>3.02</ele>
        <time>2019-05-27T08:20:57Z</time>
      </trkpt>
      <trkpt lat="43.09758" lon="5.95958">
        <ele>3.5</ele>
        <time>2019-05-27T08:21:16Z</time>
      </trkpt>
      <trkpt lat="43.09714" lon="5.95997">
        <ele>3.02</ele>
        <time>2019-05-27T08:21:38Z</time>
      </trkpt>
      <trkpt lat="43.09668" lon="5.9605">
        <ele>3.5</ele>
        <time>2019-05-27T08:22:03Z</time>
      </trkpt>
      <trkpt lat="43.09623" lon="5.96105">
        <ele>3.98</ele>
        <time>2019-05-27T08:22:28Z</time>
      </trkpt>
      <trkpt lat="43.09572" lon="5.96168">
        <ele>3.5</ele>
        <time>2019-05-27T08:22:56Z</time>
      </trkpt>
      <trkpt lat="43.09527" lon="5.96228">
        <ele>3.02</ele>
        <time>2019-05-27T08:23:22Z</time>
      </trkpt>
      <trkpt lat="43.09487" lon="5.96281">
        <ele>3.02</ele>
        <time>2019-05-27T08:23:45Z</time>
      </trkpt>
      <trkpt lat="43.09447" lon="5.96334">
        <ele>3.02</ele>
        <time>2019-05-27T08:24:08Z</time>
      </trkpt>
      <trkpt lat="43.094" lon="5.96396">
        <ele>2.54</ele>
        <time>2019-05-27T08:24:35Z</time>
      </trkpt>
      <trkpt lat="43.09354" lon="5.96456">
        <ele>2.54</ele>
        <time>2019-05-27T08:25:01Z</time>
      </trkpt>
      <trkpt lat="43.09309" lon="5.96517">
        <ele>3.02</ele>
        <time>2019-05-27T08:25:27Z</time>
      </trkpt>
      <trkpt lat="43.09264" lon="5.96578">
        <ele>3.02</ele>
        <time>2019-05-27T08:25:53Z</time>
      </trkpt>
      <trkpt lat="43.09216" lon="5.96644">
        <ele>2.54</ele>
        <time>2019-05-27T08:26:20Z</time>
      </trkpt>
      <trkpt lat="43.09173" lon="5.96707">
        <ele>3.02</ele>
        <time>2019-05-27T08:26:43Z</time>
      </trkpt>
      <trkpt lat="43.09131" lon="5.96773">
        <ele>3.02</ele>
        <time>2019-05-27T08:27:06Z</time>
      </trkpt>
      <trkpt lat="43.09086" lon="5.96851">
        <ele>2.54</ele>
        <time>2019-05-27T08:27:32Z</time>
      </trkpt>
      <trkpt lat="43.09039" lon="5.96936">
        <ele>2.54</ele>
        <time>2019-05-27T08:28:00Z</time>
      </trkpt>
      <trkpt lat="43.09003" lon="5.97001">
        <ele>2.54</ele>
        <time>2019-05-27T08:28:21Z</time>
      </trkpt>
      <trkpt lat="43.08968" lon="5.97062">
        <ele>2.06</ele>
        <time>2019-05-27T08:28:41Z</time>
      </trkpt>
      <trkpt lat="43.08929" lon="5.97133">
        <ele>2.06</ele>
        <time>2019-05-27T08:29:04Z</time>
      </trkpt>
      <trkpt lat="43.08895" lon="5.97195">
        <ele>2.06</ele>
        <time>2019-05-27T08:29:24Z</time>
      </trkpt>
      <trkpt lat="43.08861" lon="5.97256">
        <ele>3.02</ele>
        <time>2019-05-27T08:29:44Z</time>
      </trkpt>
      <trkpt lat="43.08837" lon="5.97299">
        <ele>2.54</ele>
        <time>2019-05-27T08:29:58Z</time>
      </trkpt>
      <trkpt lat="43.08804" lon="5.97357">
        <ele>2.06</ele>
        <time>2019-05-27T08:30:17Z</time>
      </trkpt>
      <trkpt lat="43.08771" lon="5.97416">
        <ele>2.06</ele>
        <time>2019-05-27T08:30:36Z</time>
      </trkpt>
      <trkpt lat="43.08742" lon="5.97468">
        <ele>2.06</ele>
        <time>2019-05-27T08:30:53Z</time>
      </trkpt>
      <trkpt lat="43.08713" lon="5.97521">
        <ele>1.58</ele>
        <time>2019-05-27T08:31:10Z</time>
      </trkpt>
      <trkpt lat="43.08681" lon="5.97577">
        <ele>2.06</ele>
        <time>2019-05-27T08:31:28Z</time>
      </trkpt>
      <trkpt lat="43.0865" lon="5.97632">
        <ele>2.54</ele>
        <time>2019-05-27T08:31:46Z</time>
      </trkpt>
      <trkpt lat="43.08617" lon="5.97692">
        <ele>1.58</ele>
        <time>2019-05-27T08:32:05Z</time>
      </trkpt>
      <trkpt lat="43.08581" lon="5.97753">
        <ele>2.06</ele>
        <time>2019-05-27T08:32:25Z</time>
      </trkpt>
      <trkpt lat="43.08543" lon="5.97821">
        <ele>2.06</ele>
        <time>2019-05-27T08:32:47Z</time>
      </trkpt>
      <trkpt lat="43.085" lon="5.97895">
        <ele>2.06</ele>
        <time>2019-05-27T08:33:11Z</time>
      </trkpt>
      <trkpt lat="43.08469" lon="5.97951">
        <ele>2.06</ele>
        <time>2019-05-27T08:33:29Z</time>
      </trkpt>
      <trkpt lat="43.08438" lon="5.98007">
        <ele>2.54</ele>
        <time>2019-05-27T08:33:47Z</time>
      </trkpt>
      <trkpt lat="43.0841" lon="5.98056">
        <ele>2.06</ele>
        <time>2019-05-27T08:34:03Z</time>
      </trkpt>
      <trkpt lat="43.08376" lon="5.98116">
        <ele>2.54</ele>
        <time>2019-05-27T08:34:22Z</time>
      </trkpt>
      <trkpt lat="43.08348" lon="5.98166">
        <ele>3.02</ele>
        <time>2019-05-27T08:34:38Z</time>
      </trkpt>
      <trkpt lat="43.08314" lon="5.98227">
        <ele>3.02</ele>
        <time>2019-05-27T08:34:58Z</time>
      </trkpt>
      <trkpt lat="43.08282" lon="5.98282">
        <ele>3.02</ele>
        <time>2019-05-27T08:35:16Z</time>
      </trkpt>
      <trkpt lat="43.08245" lon="5.98347">
        <ele>2.54</ele>
        <time>2019-05-27T08:35:37Z</time>
      </trkpt>
      <trkpt lat="43.08216" lon="5.98399">
        <ele>2.54</ele>
        <time>2019-05-27T08:35:54Z</time>
      </trkpt>
      <trkpt lat="43.08184" lon="5.98454">
        <ele>3.02</ele>
        <time>2019-05-27T08:36:12Z</time>
      </trkpt>
      <trkpt lat="43.08147" lon="5.98517">
        <ele>2.54</ele>
        <time>2019-05-27T08:36:33Z</time>
      </trkpt>
      <trkpt lat="43.0812" lon="5.98563">
        <ele>3.02</ele>
        <time>2019-05-27T08:36:48Z</time>
      </trkpt>
      <trkpt lat="43.08084" lon="5.98625">
        <ele>2.54</ele>
        <time>2019-05-27T08:37:09Z</time>
      </trkpt>
      <trkpt lat="43.08054" lon="5.98676">
        <ele>2.06</ele>
        <time>2019-05-27T08:37:26Z</time>
      </trkpt>
      <trkpt lat="43.08017" lon="5.98739">
        <ele>2.06</ele>
        <time>2019-05-27T08:37:47Z</time>
      </trkpt>
      <trkpt lat="43.07981" lon="5.98798">
        <ele>1.58</ele>
        <time>2019-05-27T08:38:07Z</time>
      </trkpt>
      <trkpt lat="43.07951" lon="5.98849">
        <ele>1.58</ele>
        <time>2019-05-27T08:38:24Z</time>
      </trkpt>
      <trkpt lat="43.07923" lon="5.98898">
        <ele>1.58</ele>
        <time>2019-05-27T08:38:40Z</time>
      </trkpt>
      <trkpt lat="43.07894" lon="5.98946">
        <ele>1.58</ele>
        <time>2019-05-27T08:38:56Z</time>
      </trkpt>
      <trkpt lat="43.0786" lon="5.99003">
        <ele>1.58</ele>
        <time>2019-05-27T08:39:15Z</time>
      </trkpt>
      <trkpt lat="43.0783" lon="5.99054">
        <ele>2.54</ele>
        <time>2019-05-27T08:39:32Z</time>
      </trkpt>
      <trkpt lat="43.07798" lon="5.99108">
        <ele>2.06</ele>
        <time>2019-05-27T08:39:50Z</time>
      </trkpt>
      <trkpt lat="43.07766" lon="5.99161">
        <ele>2.06</ele>
        <time>2019-05-27T08:40:08Z</time>
      </trkpt>
      <trkpt lat="43.07735" lon="5.99216">
        <ele>1.58</ele>
        <time>2019-05-27T08:40:26Z</time>
      </trkpt>
      <trkpt lat="43.07705" lon="5.99267">
        <ele>1.58</ele>
        <time>2019-05-27T08:40:43Z</time>
      </trkpt>
      <trkpt lat="43.07674" lon="5.99321">
        <ele>0.62</ele>
        <time>2019-05-27T08:41:01Z</time>
      </trkpt>
      <trkpt lat="43.07639" lon="5.99382">
        <ele>0.62</ele>
        <time>2019-05-27T08:41:21Z</time>
      </trkpt>
      <trkpt lat="43.07607" lon="5.99439">
        <ele>1.1</ele>
        <time>2019-05-27T08:41:40Z</time>
      </trkpt>
      <trkpt lat="43.07576" lon="5.99493">
        <ele>1.1</ele>
        <time>2019-05-27T08:41:58Z</time>
      </trkpt>
      <trkpt lat="43.07545" lon="5.99547">
        <ele>1.1</ele>
        <time>2019-05-27T08:42:16Z</time>
      </trkpt>
      <trkpt lat="43.07511" lon="5.99607">
        <ele>1.1</ele>
        <time>2019-05-27T08:42:36Z</time>
      </trkpt>
      <trkpt lat="43.07484" lon="5.99656">
        <ele>1.1</ele>
        <time>2019-05-27T08:42:52Z</time>
      </trkpt>
      <trkpt lat="43.07447" lon="5.99721">
        <ele>0.62</ele>
        <time>2019-05-27T08:43:13Z</time>
      </trkpt>
      <trkpt lat="43.07413" lon="5.99782">
        <ele>0.62</ele>
        <time>2019-05-27T08:43:33Z</time>
      </trkpt>
      <trkpt lat="43.07378" lon="5.99842">
        <ele>0.62</ele>
        <time>2019-05-27T08:43:53Z</time>
      </trkpt>
      <trkpt lat="43.07347" lon="5.99898">
        <ele>1.1</ele>
        <time>2019-05-27T08:44:11Z</time>
      </trkpt>
      <trkpt lat="43.07316" lon="5.99954">
        <ele>1.1</ele>
        <time>2019-05-27T08:44:29Z</time>
      </trkpt>
      <trkpt lat="43.07284" lon="6.0001">
        <ele>1.58</ele>
        <time>2019-05-27T08:44:47Z</time>
      </trkpt>
      <trkpt lat="43.07251" lon="6.00069">
        <ele>1.58</ele>
        <time>2019-05-27T08:45:06Z</time>
      </trkpt>
      <trkpt lat="43.07218" lon="6.00128">
        <ele>1.58</ele>
        <time>2019-05-27T08:45:25Z</time>
      </trkpt>
      <trkpt lat="43.07182" lon="6.00193">
        <ele>1.58</ele>
        <time>2019-05-27T08:45:46Z</time>
      </trkpt>
      <trkpt lat="43.07152" lon="6.00246">
        <ele>1.58</ele>
        <time>2019-05-27T08:46:03Z</time>
      </trkpt>
      <trkpt lat="43.07124" lon="6.00296">
        <ele>1.58</ele>
        <time>2019-05-27T08:46:19Z</time>
      </trkpt>
      <trkpt lat="43.07091" lon="6.00356">
        <ele>1.58</ele>
        <time>2019-05-27T08:46:38Z</time>
      </trkpt>
      <trkpt lat="43.07065" lon="6.00402">
        <ele>1.58</ele>
        <time>2019-05-27T08:46:53Z</time>
      </trkpt>
      <trkpt lat="43.07037" lon="6.00455">
        <ele>1.1</ele>
        <time>2019-05-27T08:47:10Z</time>
      </trkpt>
      <trkpt lat="43.06995" lon="6.0053">
        <ele>2.06</ele>
        <time>2019-05-27T08:47:34Z</time>
      </trkpt>
      <trkpt lat="43.06961" lon="6.00591">
        <ele>2.06</ele>
        <time>2019-05-27T08:47:54Z</time>
      </trkpt>
      <trkpt lat="43.06931" lon="6.00644">
        <ele>2.06</ele>
        <time>2019-05-27T08:48:11Z</time>
      </trkpt>
      <trkpt lat="43.06901" lon="6.00696">
        <ele>2.06</ele>
        <time>2019-05-27T08:48:28Z</time>
      </trkpt>
      <trkpt lat="43.06871" lon="6.00753">
        <ele>2.06</ele>
        <time>2019-05-27T08:48:46Z</time>
      </trkpt>
      <trkpt lat="43.06838" lon="6.00811">
        <ele>1.58</ele>
        <time>2019-05-27T08:49:05Z</time>
      </trkpt>
      <trkpt lat="43.06802" lon="6.00879">
        <ele>1.58</ele>
        <time>2019-05-27T08:49:27Z</time>
      </trkpt>
      <trkpt lat="43.06769" lon="6.00937">
        <ele>2.06</ele>
        <time>2019-05-27T08:49:46Z</time>
      </trkpt>
      <trkpt lat="43.0674" lon="6.00989">
        <ele>3.02</ele>
        <time>2019-05-27T08:50:03Z</time>
      </trkpt>
      <trkpt lat="43.06709" lon="6.01044">
        <ele>2.54</ele>
        <time>2019-05-27T08:50:21Z</time>
      </trkpt>
      <trkpt lat="43.0668" lon="6.011">
        <ele>2.54</ele>
        <time>2019-05-27T08:50:39Z</time>
      </trkpt>
      <trkpt lat="43.06654" lon="6.01149">
        <ele>2.06</ele>
        <time>2019-05-27T08:50:55Z</time>
      </trkpt>
      <trkpt lat="43.06628" lon="6.01198">
        <ele>2.06</ele>
        <time>2019-05-27T08:51:11Z</time>
      </trkpt>
      <trkpt lat="43.06604" lon="6.01244">
        <ele>1.58</ele>
        <time>2019-05-27T08:51:26Z</time>
      </trkpt>
      <trkpt lat="43.06577" lon="6.01297">
        <ele>1.58</ele>
        <time>2019-05-27T08:51:43Z</time>
      </trkpt>
      <trkpt lat="43.06553" lon="6.01343">
        <ele>1.58</ele>
        <time>2019-05-27T08:51:58Z</time>
      </trkpt>
      <trkpt lat="43.06519" lon="6.01408">
        <ele>2.06</ele>
        <time>2019-05-27T08:52:19Z</time>
      </trkpt>
      <trkpt lat="43.06487" lon="6.01469">
        <ele>2.06</ele>
        <time>2019-05-27T08:52:39Z</time>
      </trkpt>
      <trkpt lat="43.06457" lon="6.01529">
        <ele>1.58</ele>
        <time>2019-05-27T08:52:58Z</time>
      </trkpt>
      <trkpt lat="43.06433" lon="6.01576">
        <ele>2.06</ele>
        <time>2019-05-27T08:53:13Z</time>
      </trkpt>
      <trkpt lat="43.06402" lon="6.01636">
        <ele>2.06</ele>
        <time>2019-05-27T08:53:32Z</time>
      </trkpt>
      <trkpt lat="43.0637" lon="6.01696">
        <ele>2.06</ele>
        <time>2019-05-27T08:53:51Z</time>
      </trkpt>
      <trkpt lat="43.06341" lon="6.01757">
        <ele>2.54</ele>
        <time>2019-05-27T08:54:10Z</time>
      </trkpt>
      <trkpt lat="43.06318" lon="6.01801">
        <ele>3.02</ele>
        <time>2019-05-27T08:54:24Z</time>
      </trkpt>
      <trkpt lat="43.06292" lon="6.01851">
        <ele>3.02</ele>
        <time>2019-05-27T08:54:40Z</time>
      </trkpt>
      <trkpt lat="43.06261" lon="6.01911">
        <ele>3.02</ele>
        <time>2019-05-27T08:54:59Z</time>
      </trkpt>
      <trkpt lat="43.06227" lon="6.01977">
        <ele>2.54</ele>
        <time>2019-05-27T08:55:20Z</time>
      </trkpt>
      <trkpt lat="43.06199" lon="6.02031">
        <ele>2.54</ele>
        <time>2019-05-27T08:55:37Z</time>
      </trkpt>
      <trkpt lat="43.06164" lon="6.02101">
        <ele>2.54</ele>
        <time>2019-05-27T08:55:59Z</time>
      </trkpt>
      <trkpt lat="43.06135" lon="6.02159">
        <ele>2.06</ele>
        <time>2019-05-27T08:56:17Z</time>
      </trkpt>
      <trkpt lat="43.06103" lon="6.02222">
        <ele>2.54</ele>
        <time>2019-05-27T08:56:37Z</time>
      </trkpt>
      <trkpt lat="43.06078" lon="6.02273">
        <ele>2.54</ele>
        <time>2019-05-27T08:56:53Z</time>
      </trkpt>
      <trkpt lat="43.0605" lon="6.02326">
        <ele>2.54</ele>
        <time>2019-05-27T08:57:10Z</time>
      </trkpt>
      <trkpt lat="43.06028" lon="6.0237">
        <ele>2.54</ele>
        <time>2019-05-27T08:57:24Z</time>
      </trkpt>
      <trkpt lat="43.06005" lon="6.02417">
        <ele>3.02</ele>
        <time>2019-05-27T08:57:39Z</time>
      </trkpt>
      <trkpt lat="43.05974" lon="6.02477">
        <ele>2.54</ele>
        <time>2019-05-27T08:57:58Z</time>
      </trkpt>
      <trkpt lat="43.05939" lon="6.02546">
        <ele>1.58</ele>
        <time>2019-05-27T08:58:20Z</time>
      </trkpt>
      <trkpt lat="43.0591" lon="6.02599">
        <ele>2.06</ele>
        <time>2019-05-27T08:58:37Z</time>
      </trkpt>
      <trkpt lat="43.05882" lon="6.02656">
        <ele>2.06</ele>
        <time>2019-05-27T08:58:55Z</time>
      </trkpt>
      <trkpt lat="43.05853" lon="6.02717">
        <ele>2.06</ele>
        <time>2019-05-27T08:59:14Z</time>
      </trkpt>
      <trkpt lat="43.05827" lon="6.02768">
        <ele>2.54</ele>
        <time>2019-05-27T08:59:29Z</time>
      </trkpt>
      <trkpt lat="43.05802" lon="6.02816">
        <ele>2.54</ele>
        <time>2019-05-27T08:59:43Z</time>
      </trkpt>
      <trkpt lat="43.05771" lon="6.02877">
        <ele>2.54</ele>
        <time>2019-05-27T09:00:00Z</time>
      </trkpt>
      <trkpt lat="43.05744" lon="6.02933">
        <ele>2.06</ele>
        <time>2019-05-27T09:00:16Z</time>
      </trkpt>
      <trkpt lat="43.05709" lon="6.02999">
        <ele>2.54</ele>
        <time>2019-05-27T09:00:35Z</time>
      </trkpt>
      <trkpt lat="43.0568" lon="6.03054">
        <ele>2.54</ele>
        <time>2019-05-27T09:00:51Z</time>
      </trkpt>
      <trkpt lat="43.05654" lon="6.03108">
        <ele>2.54</ele>
        <time>2019-05-27T09:01:06Z</time>
      </trkpt>
      <trkpt lat="43.05627" lon="6.03161">
        <ele>2.06</ele>
        <time>2019-05-27T09:01:21Z</time>
      </trkpt>
      <trkpt lat="43.05601" lon="6.03211">
        <ele>2.54</ele>
        <time>2019-05-27T09:01:35Z</time>
      </trkpt>
      <trkpt lat="43.05575" lon="6.03264">
        <ele>2.06</ele>
        <time>2019-05-27T09:01:50Z</time>
      </trkpt>
      <trkpt lat="43.05547" lon="6.03322">
        <ele>1.58</ele>
        <time>2019-05-27T09:02:06Z</time>
      </trkpt>
      <trkpt lat="43.05518" lon="6.03378">
        <ele>0.62</ele>
        <time>2019-05-27T09:02:22Z</time>
      </trkpt>
      <trkpt lat="43.05485" lon="6.03444">
        <ele>-0.34</ele>
        <time>2019-05-27T09:02:41Z</time>
      </trkpt>
      <trkpt lat="43.05453" lon="6.03508">
        <ele>-0.82</ele>
        <time>2019-05-27T09:02:59Z</time>
      </trkpt>
      <trkpt lat="43.05422" lon="6.03568">
        <ele>-1.79</ele>
        <time>2019-05-27T09:03:16Z</time>
      </trkpt>
      <trkpt lat="43.05391" lon="6.03629">
        <ele>-1.79</ele>
        <time>2019-05-27T09:03:33Z</time>
      </trkpt>
      <trkpt lat="43.05366" lon="6.03678">
        <ele>-1.79</ele>
        <time>2019-05-27T09:03:46Z</time>
      </trkpt>
      <trkpt lat="43.05337" lon="6.03734">
        <ele>-1.3</ele>
        <time>2019-05-27T09:04:02Z</time>
      </trkpt>
      <trkpt lat="43.0531" lon="6.03786">
        <ele>-0.82</ele>
        <time>2019-05-27T09:04:17Z</time>
      </trkpt>
      <trkpt lat="43.05282" lon="6.03842">
        <ele>-0.82</ele>
        <time>2019-05-27T09:04:33Z</time>
      </trkpt>
      <trkpt lat="43.0525" lon="6.03904">
        <ele>-0.82</ele>
        <time>2019-05-27T09:04:51Z</time>
      </trkpt>
      <trkpt lat="43.05218" lon="6.03966">
        <ele>-1.3</ele>
        <time>2019-05-27T09:05:09Z</time>
      </trkpt>
      <trkpt lat="43.05184" lon="6.04036">
        <ele>-0.82</ele>
        <time>2019-05-27T09:05:29Z</time>
      </trkpt>
      <trkpt lat="43.05152" lon="6.04098">
        <ele>-1.3</ele>
        <time>2019-05-27T09:05:47Z</time>
      </trkpt>
      <trkpt lat="43.05124" lon="6.04153">
        <ele>-0.34</ele>
        <time>2019-05-27T09:06:03Z</time>
      </trkpt>
      <trkpt lat="43.0509" lon="6.0422">
        <ele>-0.34</ele>
        <time>2019-05-27T09:06:22Z</time>
      </trkpt>
      <trkpt lat="43.0506" lon="6.0428">
        <ele>-0.82</ele>
        <time>2019-05-27T09:06:39Z</time>
      </trkpt>
      <trkpt lat="43.05028" lon="6.04342">
        <ele>-0.82</ele>
        <time>2019-05-27T09:06:57Z</time>
      </trkpt>
      <trkpt lat="43.04996" lon="6.04405">
        <ele>-0.34</ele>
        <time>2019-05-27T09:07:15Z</time>
      </trkpt>
      <trkpt lat="43.04969" lon="6.04456">
        <ele>-0.34</ele>
        <time>2019-05-27T09:07:30Z</time>
      </trkpt>
      <trkpt lat="43.04935" lon="6.04522">
        <ele>-0.34</ele>
        <time>2019-05-27T09:07:49Z</time>
      </trkpt>
      <trkpt lat="43.04909" lon="6.04571">
        <ele>-0.82</ele>
        <time>2019-05-27T09:08:03Z</time>
      </trkpt>
      <trkpt lat="43.04881" lon="6.04626">
        <ele>-0.82</ele>
        <time>2019-05-27T09:08:19Z</time>
      </trkpt>
      <trkpt lat="43.0485" lon="6.04685">
        <ele>-0.34</ele>
        <time>2019-05-27T09:08:36Z</time>
      </trkpt>
      <trkpt lat="43.04823" lon="6.04737">
        <ele>-0.82</ele>
        <time>2019-05-27T09:08:51Z</time>
      </trkpt>
      <trkpt lat="43.04797" lon="6.04789">
        <ele>0.14</ele>
        <time>2019-05-27T09:09:06Z</time>
      </trkpt>
      <trkpt lat="43.04766" lon="6.04848">
        <ele>-0.82</ele>
        <time>2019-05-27T09:09:23Z</time>
      </trkpt>
      <trkpt lat="43.04742" lon="6.04897">
        <ele>-0.34</ele>
        <time>2019-05-27T09:09:37Z</time>
      </trkpt>
      <trkpt lat="43.04715" lon="6.04948">
        <ele>-0.82</ele>
        <time>2019-05-27T09:09:52Z</time>
      </trkpt>
      <trkpt lat="43.04682" lon="6.05014">
        <ele>-1.79</ele>
        <time>2019-05-27T09:10:11Z</time>
      </trkpt>
      <trkpt lat="43.04654" lon="6.05069">
        <ele>-1.79</ele>
        <time>2019-05-27T09:10:27Z</time>
      </trkpt>
      <trkpt lat="43.04623" lon="6.05132">
        <ele>-1.79</ele>
        <time>2019-05-27T09:10:45Z</time>
      </trkpt>
      <trkpt lat="43.0459" lon="6.05197">
        <ele>-0.82</ele>
        <time>2019-05-27T09:11:04Z</time>
      </trkpt>
      <trkpt lat="43.0456" lon="6.05255">
        <ele>-0.82</ele>
        <time>2019-05-27T09:11:21Z</time>
      </trkpt>
      <trkpt lat="43.04537" lon="6.053">
        <ele>-0.82</ele>
        <time>2019-05-27T09:11:34Z</time>
      </trkpt>
      <trkpt lat="43.04506" lon="6.05363">
        <ele>-0.34</ele>
        <time>2019-05-27T09:11:52Z</time>
      </trkpt>
      <trkpt lat="43.04481" lon="6.05415">
        <ele>0.62</ele>
        <time>2019-05-27T09:12:07Z</time>
      </trkpt>
      <trkpt lat="43.04456" lon="6.05467">
        <ele>0.62</ele>
        <time>2019-05-27T09:12:22Z</time>
      </trkpt>
      <trkpt lat="43.0443" lon="6.05519">
        <ele>0.14</ele>
        <time>2019-05-27T09:12:37Z</time>
      </trkpt>
      <trkpt lat="43.04412" lon="6.05556">
        <ele>0.14</ele>
        <time>2019-05-27T09:12:48Z</time>
      </trkpt>
      <trkpt lat="43.0438" lon="6.05622">
        <ele>1.58</ele>
        <time>2019-05-27T09:13:07Z</time>
      </trkpt>
      <trkpt lat="43.04355" lon="6.05673">
        <ele>2.06</ele>
        <time>2019-05-27T09:13:22Z</time>
      </trkpt>
      <trkpt lat="43.04326" lon="6.05732">
        <ele>2.06</ele>
        <time>2019-05-27T09:13:39Z</time>
      </trkpt>
      <trkpt lat="43.043" lon="6.05782">
        <ele>2.06</ele>
        <time>2019-05-27T09:13:54Z</time>
      </trkpt>
      <trkpt lat="43.04277" lon="6.0583">
        <ele>3.02</ele>
        <time>2019-05-27T09:14:08Z</time>
      </trkpt>
      <trkpt lat="43.04249" lon="6.05887">
        <ele>3.5</ele>
        <time>2019-05-27T09:14:25Z</time>
      </trkpt>
      <trkpt lat="43.04225" lon="6.0594">
        <ele>3.98</ele>
        <time>2019-05-27T09:14:40Z</time>
      </trkpt>
      <trkpt lat="43.04202" lon="6.05986">
        <ele>3.02</ele>
        <time>2019-05-27T09:14:54Z</time>
      </trkpt>
      <trkpt lat="43.04182" lon="6.06026">
        <ele>3.02</ele>
        <time>2019-05-27T09:15:06Z</time>
      </trkpt>
      <trkpt lat="43.04154" lon="6.06084">
        <ele>3.5</ele>
        <time>2019-05-27T09:15:23Z</time>
      </trkpt>
      <trkpt lat="43.04127" lon="6.06139">
        <ele>3.5</ele>
        <time>2019-05-27T09:15:39Z</time>
      </trkpt>
      <trkpt lat="43.04103" lon="6.06186">
        <ele>2.54</ele>
        <time>2019-05-27T09:15:53Z</time>
      </trkpt>
      <trkpt lat="43.04082" lon="6.06227">
        <ele>2.54</ele>
        <time>2019-05-27T09:16:05Z</time>
      </trkpt>
      <trkpt lat="43.04055" lon="6.0628">
        <ele>3.02</ele>
        <time>2019-05-27T09:16:22Z</time>
      </trkpt>
      <trkpt lat="43.04027" lon="6.06337">
        <ele>3.02</ele>
        <time>2019-05-27T09:16:39Z</time>
      </trkpt>
      <trkpt lat="43.03993" lon="6.06404">
        <ele>2.06</ele>
        <time>2019-05-27T09:16:59Z</time>
      </trkpt>
      <trkpt lat="43.03964" lon="6.06462">
        <ele>2.06</ele>
        <time>2019-05-27T09:17:16Z</time>
      </trkpt>
      <trkpt lat="43.03935" lon="6.06522">
        <ele>2.06</ele>
        <time>2019-05-27T09:17:34Z</time>
      </trkpt>
      <trkpt lat="43.03905" lon="6.06578">
        <ele>1.58</ele>
        <time>2019-05-27T09:17:51Z</time>
      </trkpt>
      <trkpt lat="43.03875" lon="6.06639">
        <ele>2.06</ele>
        <time>2019-05-27T09:18:09Z</time>
      </trkpt>
      <trkpt lat="43.03848" lon="6.06694">
        <ele>1.58</ele>
        <time>2019-05-27T09:18:25Z</time>
      </trkpt>
      <trkpt lat="43.03819" lon="6.06751">
        <ele>2.06</ele>
        <time>2019-05-27T09:18:42Z</time>
      </trkpt>
      <trkpt lat="43.0379" lon="6.06812">
        <ele>2.06</ele>
        <time>2019-05-27T09:19:00Z</time>
      </trkpt>
      <trkpt lat="43.03763" lon="6.06866">
        <ele>2.06</ele>
        <time>2019-05-27T09:19:16Z</time>
      </trkpt>
      <trkpt lat="43.03738" lon="6.06916">
        <ele>1.58</ele>
        <time>2019-05-27T09:19:31Z</time>
      </trkpt>
      <trkpt lat="43.03708" lon="6.06972">
        <ele>1.58</ele>
        <time>2019-05-27T09:19:48Z</time>
      </trkpt>
      <trkpt lat="43.03686" lon="6.07014">
        <ele>1.1</ele>
        <time>2019-05-27T09:20:00Z</time>
      </trkpt>
      <trkpt lat="43.0366" lon="6.07063">
        <ele>1.1</ele>
        <time>2019-05-27T09:20:15Z</time>
      </trkpt>
      <trkpt lat="43.03628" lon="6.07124">
        <ele>1.1</ele>
        <time>2019-05-27T09:20:33Z</time>
      </trkpt>
      <trkpt lat="43.03597" lon="6.07183">
        <ele>0.62</ele>
        <time>2019-05-27T09:20:51Z</time>
      </trkpt>
      <trkpt lat="43.03564" lon="6.07242">
        <ele>0.62</ele>
        <time>2019-05-27T09:21:09Z</time>
      </trkpt>
      <trkpt lat="43.0354" lon="6.07284">
        <ele>1.1</ele>
        <time>2019-05-27T09:21:22Z</time>
      </trkpt>
      <trkpt lat="43.03513" lon="6.07335">
        <ele>1.58</ele>
        <time>2019-05-27T09:21:37Z</time>
      </trkpt>
      <trkpt lat="43.03479" lon="6.07397">
        <ele>1.1</ele>
        <time>2019-05-27T09:21:56Z</time>
      </trkpt>
      <trkpt lat="43.0345" lon="6.07451">
        <ele>1.1</ele>
        <time>2019-05-27T09:22:12Z</time>
      </trkpt>
      <trkpt lat="43.03426" lon="6.07498">
        <ele>1.1</ele>
        <time>2019-05-27T09:22:26Z</time>
      </trkpt>
      <trkpt lat="43.03404" lon="6.07538">
        <ele>1.1</ele>
        <time>2019-05-27T09:22:39Z</time>
      </trkpt>
      <trkpt lat="43.03375" lon="6.07589">
        <ele>0.14</ele>
        <time>2019-05-27T09:22:56Z</time>
      </trkpt>
      <trkpt lat="43.03349" lon="6.07638">
        <ele>0.62</ele>
        <time>2019-05-27T09:23:13Z</time>
      </trkpt>
      <trkpt lat="43.03326" lon="6.07681">
        <ele>1.58</ele>
        <time>2019-05-27T09:23:28Z</time>
      </trkpt>
      <trkpt lat="43.03307" lon="6.07717">
        <ele>0.62</ele>
        <time>2019-05-27T09:23:40Z</time>
      </trkpt>
      <trkpt lat="43.03284" lon="6.0776">
        <ele>1.1</ele>
        <time>2019-05-27T09:23:55Z</time>
      </trkpt>
      <trkpt lat="43.0326" lon="6.07803">
        <ele>1.58</ele>
        <time>2019-05-27T09:24:10Z</time>
      </trkpt>
      <trkpt lat="43.03237" lon="6.07848">
        <ele>1.58</ele>
        <time>2019-05-27T09:24:24Z</time>
      </trkpt>
      <trkpt lat="43.03211" lon="6.07898">
        <ele>1.58</ele>
        <time>2019-05-27T09:24:38Z</time>
      </trkpt>
      <trkpt lat="43.03185" lon="6.07949">
        <ele>1.1</ele>
        <time>2019-05-27T09:24:52Z</time>
      </trkpt>
      <trkpt lat="43.03155" lon="6.08004">
        <ele>1.1</ele>
        <time>2019-05-27T09:25:07Z</time>
      </trkpt>
      <trkpt lat="43.0313" lon="6.08053">
        <ele>1.1</ele>
        <time>2019-05-27T09:25:20Z</time>
      </trkpt>
      <trkpt lat="43.03107" lon="6.08096">
        <ele>2.06</ele>
        <time>2019-05-27T09:25:32Z</time>
      </trkpt>
      <trkpt lat="43.03084" lon="6.0814">
        <ele>2.54</ele>
        <time>2019-05-27T09:25:44Z</time>
      </trkpt>
      <trkpt lat="43.03056" lon="6.0819">
        <ele>1.58</ele>
        <time>2019-05-27T09:25:58Z</time>
      </trkpt>
      <trkpt lat="43.0303" lon="6.08241">
        <ele>1.58</ele>
        <time>2019-05-27T09:26:12Z</time>
      </trkpt>
      <trkpt lat="43.0301" lon="6.08278">
        <ele>1.58</ele>
        <time>2019-05-27T09:26:23Z</time>
      </trkpt>
      <trkpt lat="43.02982" lon="6.08332">
        <ele>1.58</ele>
        <time>2019-05-27T09:26:38Z</time>
      </trkpt>
      <trkpt lat="43.0295" lon="6.08394">
        <ele>2.06</ele>
        <time>2019-05-27T09:26:55Z</time>
      </trkpt>
      <trkpt lat="43.02924" lon="6.08448">
        <ele>2.06</ele>
        <time>2019-05-27T09:27:10Z</time>
      </trkpt>
      <trkpt lat="43.02899" lon="6.08504">
        <ele>3.02</ele>
        <time>2019-05-27T09:27:25Z</time>
      </trkpt>
      <trkpt lat="43.02879" lon="6.08549">
        <ele>2.54</ele>
        <time>2019-05-27T09:27:37Z</time>
      </trkpt>
      <trkpt lat="43.02856" lon="6.086">
        <ele>2.54</ele>
        <time>2019-05-27T09:27:50Z</time>
      </trkpt>
      <trkpt lat="43.02829" lon="6.0866">
        <ele>2.06</ele>
        <time>2019-05-27T09:28:06Z</time>
      </trkpt>
      <trkpt lat="43.02807" lon="6.0871">
        <ele>2.06</ele>
        <time>2019-05-27T09:28:19Z</time>
      </trkpt>
      <trkpt lat="43.02784" lon="6.08763">
        <ele>2.54</ele>
        <time>2019-05-27T09:28:33Z</time>
      </trkpt>
      <trkpt lat="43.02756" lon="6.08828">
        <ele>3.02</ele>
        <time>2019-05-27T09:28:50Z</time>
      </trkpt>
      <trkpt lat="43.0273" lon="6.08887">
        <ele>3.02</ele>
        <time>2019-05-27T09:29:06Z</time>
      </trkpt>
      <trkpt lat="43.02709" lon="6.08935">
        <ele>2.06</ele>
        <time>2019-05-27T09:29:19Z</time>
      </trkpt>
      <trkpt lat="43.02692" lon="6.08973">
        <ele>2.54</ele>
        <time>2019-05-27T09:29:29Z</time>
      </trkpt>
      <trkpt lat="43.02671" lon="6.09023">
        <ele>3.02</ele>
        <time>2019-05-27T09:29:42Z</time>
      </trkpt>
      <trkpt lat="43.02648" lon="6.09074">
        <ele>3.02</ele>
        <time>2019-05-27T09:29:56Z</time>
      </trkpt>
      <trkpt lat="43.02624" lon="6.09131">
        <ele>2.06</ele>
        <time>2019-05-27T09:30:11Z</time>
      </trkpt>
      <trkpt lat="43.02602" lon="6.09181">
        <ele>1.58</ele>
        <time>2019-05-27T09:30:24Z</time>
      </trkpt>
      <trkpt lat="43.02578" lon="6.09237">
        <ele>2.54</ele>
        <time>2019-05-27T09:30:39Z</time>
      </trkpt>
      <trkpt lat="43.02553" lon="6.09291">
        <ele>2.06</ele>
        <time>2019-05-27T09:30:53Z</time>
      </trkpt>
      <trkpt lat="43.0253" lon="6.09345">
        <ele>2.06</ele>
        <time>2019-05-27T09:31:07Z</time>
      </trkpt>
      <trkpt lat="43.02504" lon="6.09401">
        <ele>2.06</ele>
        <time>2019-05-27T09:31:22Z</time>
      </trkpt>
      <trkpt lat="43.02478" lon="6.09462">
        <ele>2.06</ele>
        <time>2019-05-27T09:31:38Z</time>
      </trkpt>
      <trkpt lat="43.02455" lon="6.09515">
        <ele>2.06</ele>
        <time>2019-05-27T09:31:52Z</time>
      </trkpt>
      <trkpt lat="43.02433" lon="6.09564">
        <ele>2.06</ele>
        <time>2019-05-27T09:32:05Z</time>
      </trkpt>
      <trkpt lat="43.0241" lon="6.09612">
        <ele>2.06</ele>
        <time>2019-05-27T09:32:18Z</time>
      </trkpt>
      <trkpt lat="43.02382" lon="6.09675">
        <ele>2.06</ele>
        <time>2019-05-27T09:32:35Z</time>
      </trkpt>
      <trkpt lat="43.02356" lon="6.09732">
        <ele>2.54</ele>
        <time>2019-05-27T09:32:50Z</time>
      </trkpt>
      <trkpt lat="43.0233" lon="6.09787">
        <ele>3.02</ele>
        <time>2019-05-27T09:33:05Z</time>
      </trkpt>
      <trkpt lat="43.02308" lon="6.09839">
        <ele>2.54</ele>
        <time>2019-05-27T09:33:18Z</time>
      </trkpt>
      <trkpt lat="43.02279" lon="6.09906">
        <ele>1.58</ele>
        <time>2019-05-27T09:33:36Z</time>
      </trkpt>
      <trkpt lat="43.02255" lon="6.09965">
        <ele>2.06</ele>
        <time>2019-05-27T09:33:51Z</time>
      </trkpt>
      <trkpt lat="43.02234" lon="6.1002">
        <ele>2.06</ele>
        <time>2019-05-27T09:34:05Z</time>
      </trkpt>
      <trkpt lat="43.02212" lon="6.10079">
        <ele>2.06</ele>
        <time>2019-05-27T09:34:20Z</time>
      </trkpt>
      <trkpt lat="43.02187" lon="6.10149">
        <ele>1.58</ele>
        <time>2019-05-27T09:34:37Z</time>
      </trkpt>
      <trkpt lat="43.02171" lon="6.10196">
        <ele>1.58</ele>
        <time>2019-05-27T09:34:49Z</time>
      </trkpt>
      <trkpt lat="43.02152" lon="6.10248">
        <ele>2.06</ele>
        <time>2019-05-27T09:35:02Z</time>
      </trkpt>
      <trkpt lat="43.02128" lon="6.10313">
        <ele>2.06</ele>
        <time>2019-05-27T09:35:18Z</time>
      </trkpt>
      <trkpt lat="43.02106" lon="6.1038">
        <ele>1.58</ele>
        <time>2019-05-27T09:35:35Z</time>
      </trkpt>
      <trkpt lat="43.02087" lon="6.10434">
        <ele>3.02</ele>
        <time>2019-05-27T09:35:48Z</time>
      </trkpt>
      <trkpt lat="43.02069" lon="6.10489">
        <ele>3.02</ele>
        <time>2019-05-27T09:36:02Z</time>
      </trkpt>
      <trkpt lat="43.02048" lon="6.10544">
        <ele>3.02</ele>
        <time>2019-05-27T09:36:16Z</time>
      </trkpt>
      <trkpt lat="43.02023" lon="6.10616">
        <ele>2.06</ele>
        <time>2019-05-27T09:36:34Z</time>
      </trkpt>
      <trkpt lat="43.01998" lon="6.10687">
        <ele>1.58</ele>
        <time>2019-05-27T09:36:52Z</time>
      </trkpt>
      <trkpt lat="43.01976" lon="6.10754">
        <ele>1.58</ele>
        <time>2019-05-27T09:37:09Z</time>
      </trkpt>
      <trkpt lat="43.01952" lon="6.10827">
        <ele>2.06</ele>
        <time>2019-05-27T09:37:27Z</time>
      </trkpt>
      <trkpt lat="43.01936" lon="6.10883">
        <ele>2.06</ele>
        <time>2019-05-27T09:37:41Z</time>
      </trkpt>
      <trkpt lat="43.01922" lon="6.10942">
        <ele>2.54</ele>
        <time>2019-05-27T09:37:55Z</time>
      </trkpt>
      <trkpt lat="43.01905" lon="6.11008">
        <ele>2.06</ele>
        <time>2019-05-27T09:38:11Z</time>
      </trkpt>
      <trkpt lat="43.0189" lon="6.11073">
        <ele>2.06</ele>
        <time>2019-05-27T09:38:27Z</time>
      </trkpt>
      <trkpt lat="43.01874" lon="6.11135">
        <ele>1.58</ele>
        <time>2019-05-27T09:38:42Z</time>
      </trkpt>
      <trkpt lat="43.01855" lon="6.11214">
        <ele>2.06</ele>
        <time>2019-05-27T09:39:01Z</time>
      </trkpt>
      <trkpt lat="43.0184" lon="6.11272">
        <ele>1.58</ele>
        <time>2019-05-27T09:39:15Z</time>
      </trkpt>
      <trkpt lat="43.01827" lon="6.1133">
        <ele>1.58</ele>
        <time>2019-05-27T09:39:29Z</time>
      </trkpt>
      <trkpt lat="43.01814" lon="6.11386">
        <ele>2.06</ele>
        <time>2019-05-27T09:39:43Z</time>
      </trkpt>
      <trkpt lat="43.01803" lon="6.11437">
        <ele>1.58</ele>
        <time>2019-05-27T09:39:55Z</time>
      </trkpt>
      <trkpt lat="43.01785" lon="6.11507">
        <ele>2.06</ele>
        <time>2019-05-27T09:40:12Z</time>
      </trkpt>
      <trkpt lat="43.01768" lon="6.11576">
        <ele>1.58</ele>
        <time>2019-05-27T09:40:29Z</time>
      </trkpt>
      <trkpt lat="43.01752" lon="6.11644">
        <ele>0.62</ele>
        <time>2019-05-27T09:40:45Z</time>
      </trkpt>
      <trkpt lat="43.01741" lon="6.11692">
        <ele>-0.34</ele>
        <time>2019-05-27T09:40:57Z</time>
      </trkpt>
      <trkpt lat="43.01724" lon="6.11763">
        <ele>0.62</ele>
        <time>2019-05-27T09:41:14Z</time>
      </trkpt>
      <trkpt lat="43.0171" lon="6.11825">
        <ele>1.58</ele>
        <time>2019-05-27T09:41:29Z</time>
      </trkpt>
      <trkpt lat="43.01692" lon="6.119">
        <ele>0.14</ele>
        <time>2019-05-27T09:41:47Z</time>
      </trkpt>
      <trkpt lat="43.01679" lon="6.11957">
        <ele>0.14</ele>
        <time>2019-05-27T09:42:01Z</time>
      </trkpt>
      <trkpt lat="43.01662" lon="6.12023">
        <ele>-0.34</ele>
        <time>2019-05-27T09:42:17Z</time>
      </trkpt>
      <trkpt lat="43.01648" lon="6.12085">
        <ele>0.62</ele>
        <time>2019-05-27T09:42:32Z</time>
      </trkpt>
      <trkpt lat="43.01635" lon="6.12147">
        <ele>0.14</ele>
        <time>2019-05-27T09:42:47Z</time>
      </trkpt>
      <trkpt lat="43.01618" lon="6.12215">
        <ele>0.62</ele>
        <time>2019-05-27T09:43:04Z</time>
      </trkpt>
      <trkpt lat="43.01604" lon="6.12273">
        <ele>1.1</ele>
        <time>2019-05-27T09:43:18Z</time>
      </trkpt>
      <trkpt lat="43.01589" lon="6.1234">
        <ele>0.62</ele>
        <time>2019-05-27T09:43:34Z</time>
      </trkpt>
      <trkpt lat="43.01573" lon="6.12404">
        <ele>1.1</ele>
        <time>2019-05-27T09:43:49Z</time>
      </trkpt>
      <trkpt lat="43.01558" lon="6.1248">
        <ele>0.14</ele>
        <time>2019-05-27T09:44:07Z</time>
      </trkpt>
      <trkpt lat="43.0154" lon="6.12551">
        <ele>0.14</ele>
        <time>2019-05-27T09:44:24Z</time>
      </trkpt>
      <trkpt lat="43.01528" lon="6.12604">
        <ele>0.14</ele>
        <time>2019-05-27T09:44:36Z</time>
      </trkpt>
      <trkpt lat="43.01517" lon="6.12654">
        <ele>-0.82</ele>
        <time>2019-05-27T09:44:48Z</time>
      </trkpt>
      <trkpt lat="43.01503" lon="6.12715">
        <ele>-0.34</ele>
        <time>2019-05-27T09:45:03Z</time>
      </trkpt>
      <trkpt lat="43.01488" lon="6.12776">
        <ele>-0.34</ele>
        <time>2019-05-27T09:45:18Z</time>
      </trkpt>
      <trkpt lat="43.01474" lon="6.12843">
        <ele>0.14</ele>
        <time>2019-05-27T09:45:34Z</time>
      </trkpt>
      <trkpt lat="43.01456" lon="6.12915">
        <ele>-0.34</ele>
        <time>2019-05-27T09:45:51Z</time>
      </trkpt>
      <trkpt lat="43.0144" lon="6.12986">
        <ele>0.14</ele>
        <time>2019-05-27T09:46:08Z</time>
      </trkpt>
      <trkpt lat="43.01423" lon="6.1306">
        <ele>0.14</ele>
        <time>2019-05-27T09:46:26Z</time>
      </trkpt>
      <trkpt lat="43.01409" lon="6.13125">
        <ele>0.62</ele>
        <time>2019-05-27T09:46:42Z</time>
      </trkpt>
      <trkpt lat="43.01394" lon="6.13185">
        <ele>0.14</ele>
        <time>2019-05-27T09:46:57Z</time>
      </trkpt>
      <trkpt lat="43.01383" lon="6.13232">
        <ele>0.14</ele>
        <time>2019-05-27T09:47:09Z</time>
      </trkpt>
      <trkpt lat="43.01369" lon="6.13284">
        <ele>-0.34</ele>
        <time>2019-05-27T09:47:22Z</time>
      </trkpt>
      <trkpt lat="43.01358" lon="6.13333">
        <ele>1.1</ele>
        <time>2019-05-27T09:47:35Z</time>
      </trkpt>
      <trkpt lat="43.01345" lon="6.13385">
        <ele>1.58</ele>
        <time>2019-05-27T09:47:48Z</time>
      </trkpt>
      <trkpt lat="43.01331" lon="6.13441">
        <ele>0.62</ele>
        <time>2019-05-27T09:48:03Z</time>
      </trkpt>
      <trkpt lat="43.01315" lon="6.13501">
        <ele>0.14</ele>
        <time>2019-05-27T09:48:19Z</time>
      </trkpt>
      <trkpt lat="43.01298" lon="6.13561">
        <ele>0.14</ele>
        <time>2019-05-27T09:48:35Z</time>
      </trkpt>
      <trkpt lat="43.01285" lon="6.13616">
        <ele>1.1</ele>
        <time>2019-05-27T09:48:49Z</time>
      </trkpt>
      <trkpt lat="43.01272" lon="6.1367">
        <ele>0.62</ele>
        <time>2019-05-27T09:49:03Z</time>
      </trkpt>
      <trkpt lat="43.01257" lon="6.13727">
        <ele>0.62</ele>
        <time>2019-05-27T09:49:18Z</time>
      </trkpt>
      <trkpt lat="43.01251" lon="6.13791">
        <ele>0.14</ele>
        <time>2019-05-27T09:49:34Z</time>
      </trkpt>
      <trkpt lat="43.01246" lon="6.13857">
        <ele>1.58</ele>
        <time>2019-05-27T09:49:51Z</time>
      </trkpt>
      <trkpt lat="43.01239" lon="6.13917">
        <ele>2.06</ele>
        <time>2019-05-27T09:50:06Z</time>
      </trkpt>
      <trkpt lat="43.01236" lon="6.13983">
        <ele>1.1</ele>
        <time>2019-05-27T09:50:23Z</time>
      </trkpt>
      <trkpt lat="43.01233" lon="6.14031">
        <ele>2.06</ele>
        <time>2019-05-27T09:50:35Z</time>
      </trkpt>
      <trkpt lat="43.01231" lon="6.14084">
        <ele>2.06</ele>
        <time>2019-05-27T09:50:48Z</time>
      </trkpt>
      <trkpt lat="43.01223" lon="6.14151">
        <ele>1.58</ele>
        <time>2019-05-27T09:51:05Z</time>
      </trkpt>
      <trkpt lat="43.01213" lon="6.14219">
        <ele>0.14</ele>
        <time>2019-05-27T09:51:22Z</time>
      </trkpt>
      <trkpt lat="43.01206" lon="6.14279">
        <ele>-0.34</ele>
        <time>2019-05-27T09:51:37Z</time>
      </trkpt>
      <trkpt lat="43.01194" lon="6.14332">
        <ele>-0.34</ele>
        <time>2019-05-27T09:51:51Z</time>
      </trkpt>
      <trkpt lat="43.01183" lon="6.14377">
        <ele>0.14</ele>
        <time>2019-05-27T09:52:03Z</time>
      </trkpt>
      <trkpt lat="43.01173" lon="6.14434">
        <ele>-0.82</ele>
        <time>2019-05-27T09:52:18Z</time>
      </trkpt>
      <trkpt lat="43.01163" lon="6.14493">
        <ele>0.14</ele>
        <time>2019-05-27T09:52:34Z</time>
      </trkpt>
      <trkpt lat="43.01154" lon="6.14547">
        <ele>-0.34</ele>
        <time>2019-05-27T09:52:48Z</time>
      </trkpt>
      <trkpt lat="43.01147" lon="6.14603">
        <ele>0.14</ele>
        <time>2019-05-27T09:53:02Z</time>
      </trkpt>
      <trkpt lat="43.0114" lon="6.14659">
        <ele>0.62</ele>
        <time>2019-05-27T09:53:17Z</time>
      </trkpt>
      <trkpt lat="43.0113" lon="6.14717">
        <ele>0.14</ele>
        <time>2019-05-27T09:53:33Z</time>
      </trkpt>
      <trkpt lat="43.0112" lon="6.14766">
        <ele>0.14</ele>
        <time>2019-05-27T09:53:47Z</time>
      </trkpt>
      <trkpt lat="43.01113" lon="6.14816">
        <ele>0.62</ele>
        <time>2019-05-27T09:54:01Z</time>
      </trkpt>
      <trkpt lat="43.01105" lon="6.14867">
        <ele>1.1</ele>
        <time>2019-05-27T09:54:15Z</time>
      </trkpt>
      <trkpt lat="43.01098" lon="6.14921">
        <ele>1.1</ele>
        <time>2019-05-27T09:54:30Z</time>
      </trkpt>
      <trkpt lat="43.01093" lon="6.14966">
        <ele>0.62</ele>
        <time>2019-05-27T09:54:42Z</time>
      </trkpt>
      <trkpt lat="43.01082" lon="6.15016">
        <ele>0.62</ele>
        <time>2019-05-27T09:54:57Z</time>
      </trkpt>
      <trkpt lat="43.0107" lon="6.15057">
        <ele>0.62</ele>
        <time>2019-05-27T09:55:09Z</time>
      </trkpt>
      <trkpt lat="43.01061" lon="6.15108">
        <ele>0.14</ele>
        <time>2019-05-27T09:55:23Z</time>
      </trkpt>
      <trkpt lat="43.01057" lon="6.15153">
        <ele>0.14</ele>
        <time>2019-05-27T09:55:36Z</time>
      </trkpt>
      <trkpt lat="43.01053" lon="6.15197">
        <ele>0.62</ele>
        <time>2019-05-27T09:55:48Z</time>
      </trkpt>
      <trkpt lat="43.01048" lon="6.1526">
        <ele>0.62</ele>
        <time>2019-05-27T09:56:05Z</time>
      </trkpt>
      <trkpt lat="43.01046" lon="6.15301">
        <ele>-0.34</ele>
        <time>2019-05-27T09:56:16Z</time>
      </trkpt>
      <trkpt lat="43.01038" lon="6.15354">
        <ele>-0.82</ele>
        <time>2019-05-27T09:56:31Z</time>
      </trkpt>
      <trkpt lat="43.0103" lon="6.15418">
        <ele>-1.79</ele>
        <time>2019-05-27T09:56:48Z</time>
      </trkpt>
      <trkpt lat="43.01025" lon="6.15481">
        <ele>-2.27</ele>
        <time>2019-05-27T09:57:05Z</time>
      </trkpt>
      <trkpt lat="43.01023" lon="6.15529">
        <ele>-2.75</ele>
        <time>2019-05-27T09:57:18Z</time>
      </trkpt>
      <trkpt lat="43.01017" lon="6.15601">
        <ele>-1.79</ele>
        <time>2019-05-27T09:57:37Z</time>
      </trkpt>
      <trkpt lat="43.0101" lon="6.15655">
        <ele>-1.3</ele>
        <time>2019-05-27T09:57:51Z</time>
      </trkpt>
      <trkpt lat="43.01" lon="6.15691">
        <ele>-1.79</ele>
        <time>2019-05-27T09:58:03Z</time>
      </trkpt>
      <trkpt lat="43.00987" lon="6.15731">
        <ele>-1.3</ele>
        <time>2019-05-27T09:58:16Z</time>
      </trkpt>
      <trkpt lat="43.00977" lon="6.1578">
        <ele>-0.82</ele>
        <time>2019-05-27T09:58:30Z</time>
      </trkpt>
      <trkpt lat="43.0097" lon="6.15835">
        <ele>-1.3</ele>
        <time>2019-05-27T09:58:46Z</time>
      </trkpt>
      <trkpt lat="43.00957" lon="6.15881">
        <ele>-0.82</ele>
        <time>2019-05-27T09:58:59Z</time>
      </trkpt>
      <trkpt lat="43.00939" lon="6.15944">
        <ele>-0.82</ele>
        <time>2019-05-27T09:59:16Z</time>
      </trkpt>
      <trkpt lat="43.00931" lon="6.16001">
        <ele>-0.34</ele>
        <time>2019-05-27T09:59:30Z</time>
      </trkpt>
      <trkpt lat="43.00928" lon="6.16052">
        <ele>-0.82</ele>
        <time>2019-05-27T09:59:43Z</time>
      </trkpt>
      <trkpt lat="43.00924" lon="6.16103">
        <ele>-2.27</ele>
        <time>2019-05-27T09:59:56Z</time>
      </trkpt>
      <trkpt lat="43.00911" lon="6.16143">
        <ele>-2.27</ele>
        <time>2019-05-27T10:00:08Z</time>
      </trkpt>
      <trkpt lat="43.0089" lon="6.16163">
        <ele>-0.82</ele>
        <time>2019-05-27T10:00:21Z</time>
      </trkpt>
      <trkpt lat="43.00873" lon="6.16182">
        <ele>-0.34</ele>
        <time>2019-05-27T10:00:34Z</time>
      </trkpt>
      <trkpt lat="43.00853" lon="6.1623">
        <ele>-0.34</ele>
        <time>2019-05-27T10:00:47Z</time>
      </trkpt>
      <trkpt lat="43.0084" lon="6.16294">
        <ele>-0.34</ele>
        <time>2019-05-27T10:01:01Z</time>
      </trkpt>
      <trkpt lat="43.00821" lon="6.16333">
        <ele>-0.34</ele>
        <time>2019-05-27T10:01:13Z</time>
      </trkpt>
      <trkpt lat="43.00798" lon="6.16345">
        <ele>-0.34</ele>
        <time>2019-05-27T10:01:25Z</time>
      </trkpt>
      <trkpt lat="43.00772" lon="6.16355">
        <ele>-0.82</ele>
        <time>2019-05-27T10:01:41Z</time>
      </trkpt>
      <trkpt lat="43.00748" lon="6.16377">
        <ele>-1.3</ele>
        <time>2019-05-27T10:01:56Z</time>
      </trkpt>
      <trkpt lat="43.00744" lon="6.16381">
        <ele>-0.82</ele>
        <time>2019-05-27T10:01:58Z</time>
      </trkpt>
      <trkpt lat="43.00719" lon="6.1639">
        <ele>-1.79</ele>
        <time>2019-05-27T10:02:10Z</time>
      </trkpt>
      <trkpt lat="43.00692" lon="6.16402">
        <ele>-1.3</ele>
        <time>2019-05-27T10:02:23Z</time>
      </trkpt>
      <trkpt lat="43.00658" lon="6.16422">
        <ele>-0.82</ele>
        <time>2019-05-27T10:02:40Z</time>
      </trkpt>
      <trkpt lat="43.00623" lon="6.16451">
        <ele>-1.3</ele>
        <time>2019-05-27T10:02:59Z</time>
      </trkpt>
      <trkpt lat="43.00594" lon="6.16483">
        <ele>-0.82</ele>
        <time>2019-05-27T10:03:16Z</time>
      </trkpt>
      <trkpt lat="43.00557" lon="6.16513">
        <ele>-0.82</ele>
        <time>2019-05-27T10:03:35Z</time>
      </trkpt>
      <trkpt lat="43.00527" lon="6.16544">
        <ele>-0.34</ele>
        <time>2019-05-27T10:03:52Z</time>
      </trkpt>
      <trkpt lat="43.00492" lon="6.16583">
        <ele>-0.34</ele>
        <time>2019-05-27T10:04:13Z</time>
      </trkpt>
      <trkpt lat="43.00462" lon="6.16601">
        <ele>-0.82</ele>
        <time>2019-05-27T10:04:33Z</time>
      </trkpt>
      <trkpt lat="43.00434" lon="6.16596">
        <ele>-1.79</ele>
        <time>2019-05-27T10:04:54Z</time>
      </trkpt>
      <trkpt lat="43.00419" lon="6.1658">
        <ele>-2.75</ele>
        <time>2019-05-27T10:05:11Z</time>
      </trkpt>
      <trkpt lat="43.00399" lon="6.16563">
        <ele>-2.27</ele>
        <time>2019-05-27T10:05:32Z</time>
      </trkpt>
      <trkpt lat="43.00376" lon="6.16545">
        <ele>-1.3</ele>
        <time>2019-05-27T10:05:56Z</time>
      </trkpt>
      <trkpt lat="43.00353" lon="6.16529">
        <ele>-1.3</ele>
        <time>2019-05-27T10:06:20Z</time>
      </trkpt>
      <trkpt lat="43.0035" lon="6.16528">
        <ele>-1.3</ele>
        <time>2019-05-27T10:06:40Z</time>
      </trkpt>
      <trkpt lat="43.00351" lon="6.1653">
        <ele>-1.79</ele>
        <time>2019-05-27T10:07:06Z</time>
      </trkpt>
      <trkpt lat="43.00352" lon="6.16533">
        <ele>-1.79</ele>
        <time>2019-05-27T10:07:32Z</time>
      </trkpt>
      <trkpt lat="43.00353" lon="6.16534">
        <ele>-1.3</ele>
        <time>2019-05-27T10:07:59Z</time>
      </trkpt>
      <trkpt lat="43.00352" lon="6.16535">
        <ele>-1.79</ele>
        <time>2019-05-27T10:08:22Z</time>
      </trkpt>
      <trkpt lat="43.00351" lon="6.16533">
        <ele>-1.79</ele>
        <time>2019-05-27T10:08:47Z</time>
      </trkpt>
      <trkpt lat="43.00351" lon="6.16532">
        <ele>-1.79</ele>
        <time>2019-05-27T10:09:08Z</time>
      </trkpt>
      <trkpt lat="43.0035" lon="6.16533">
        <ele>-1.3</ele>
        <time>2019-05-27T10:09:31Z</time>
      </trkpt>
      <trkpt lat="43.0035" lon="6.16535">
        <ele>-1.3</ele>
        <time>2019-05-27T10:09:55Z</time>
      </trkpt>
      <trkpt lat="43.0035" lon="6.16537">
        <ele>-1.3</ele>
        <time>2019-05-27T10:10:20Z</time>
      </trkpt>
      <trkpt lat="43.00348" lon="6.16539">
        <ele>-2.27</ele>
        <time>2019-05-27T10:10:42Z</time>
      </trkpt>
      <trkpt lat="43.00349" lon="6.1654">
        <ele>-2.27</ele>
        <time>2019-05-27T10:11:03Z</time>
      </trkpt>
      <trkpt lat="43.00349" lon="6.16541">
        <ele>-1.79</ele>
        <time>2019-05-27T10:11:30Z</time>
      </trkpt>
      <trkpt lat="43.00349" lon="6.1654">
        <ele>-0.82</ele>
        <time>2019-05-27T10:11:52Z</time>
      </trkpt>
      <trkpt lat="43.0035" lon="6.16539">
        <ele>-0.82</ele>
        <time>2019-05-27T10:12:17Z</time>
      </trkpt>
      <trkpt lat="43.0035" lon="6.16539">
        <ele>-0.82</ele>
        <time>2019-05-27T10:12:34Z</time>
      </trkpt>
      <trkpt lat="43.0035" lon="6.16539">
        <ele>-1.3</ele>
        <time>2019-05-27T10:12:53Z</time>
      </trkpt>
      <trkpt lat="43.0035" lon="6.16538">
        <ele>-0.82</ele>
        <time>2019-05-27T10:13:16Z</time>
      </trkpt>
      <trkpt lat="43.0035" lon="6.16537">
        <ele>-0.82</ele>
        <time>2019-05-27T10:13:42Z</time>
      </trkpt>
      <trkpt lat="43.00351" lon="6.16537">
        <ele>-0.82</ele>
        <time>2019-05-27T10:13:57Z</time>
      </trkpt>
      <trkpt lat="43.01353" lon="6.16646">
        <ele>2.06</ele>
        <time>2019-05-27T12:05:32Z</time>
      </trkpt>
      <trkpt lat="43.01379" lon="6.16655">
        <ele>2.54</ele>
        <time>2019-05-27T12:05:45Z</time>
      </trkpt>
      <trkpt lat="43.01412" lon="6.16656">
        <ele>1.58</ele>
        <time>2019-05-27T12:06:01Z</time>
      </trkpt>
      <trkpt lat="43.01452" lon="6.16668">
        <ele>1.1</ele>
        <time>2019-05-27T12:06:19Z</time>
      </trkpt>
      <trkpt lat="43.01486" lon="6.16671">
        <ele>1.1</ele>
        <time>2019-05-27T12:06:33Z</time>
      </trkpt>
      <trkpt lat="43.01519" lon="6.16678">
        <ele>1.1</ele>
        <time>2019-05-27T12:06:47Z</time>
      </trkpt>
      <trkpt lat="43.01553" lon="6.16679">
        <ele>0.62</ele>
        <time>2019-05-27T12:07:02Z</time>
      </trkpt>
      <trkpt lat="43.01584" lon="6.16692">
        <ele>1.1</ele>
        <time>2019-05-27T12:07:18Z</time>
      </trkpt>
      <trkpt lat="43.01621" lon="6.16708">
        <ele>1.1</ele>
        <time>2019-05-27T12:07:35Z</time>
      </trkpt>
      <trkpt lat="43.01662" lon="6.1674">
        <ele>2.06</ele>
        <time>2019-05-27T12:07:53Z</time>
      </trkpt>
      <trkpt lat="43.01701" lon="6.16765">
        <ele>1.58</ele>
        <time>2019-05-27T12:08:12Z</time>
      </trkpt>
      <trkpt lat="43.01732" lon="6.16778">
        <ele>1.1</ele>
        <time>2019-05-27T12:08:27Z</time>
      </trkpt>
      <trkpt lat="43.01758" lon="6.16787">
        <ele>1.58</ele>
        <time>2019-05-27T12:08:41Z</time>
      </trkpt>
      <trkpt lat="43.01784" lon="6.16771">
        <ele>2.06</ele>
        <time>2019-05-27T12:08:57Z</time>
      </trkpt>
      <trkpt lat="43.0181" lon="6.16753">
        <ele>1.1</ele>
        <time>2019-05-27T12:09:12Z</time>
      </trkpt>
      <trkpt lat="43.01833" lon="6.16739">
        <ele>1.1</ele>
        <time>2019-05-27T12:09:26Z</time>
      </trkpt>
      <trkpt lat="43.01854" lon="6.16723">
        <ele>1.1</ele>
        <time>2019-05-27T12:09:39Z</time>
      </trkpt>
      <trkpt lat="43.01873" lon="6.16696">
        <ele>1.1</ele>
        <time>2019-05-27T12:09:53Z</time>
      </trkpt>
      <trkpt lat="43.01897" lon="6.16669">
        <ele>1.1</ele>
        <time>2019-05-27T12:10:09Z</time>
      </trkpt>
      <trkpt lat="43.01923" lon="6.16642">
        <ele>0.62</ele>
        <time>2019-05-27T12:10:26Z</time>
      </trkpt>
      <trkpt lat="43.01941" lon="6.16616">
        <ele>0.62</ele>
        <time>2019-05-27T12:10:39Z</time>
      </trkpt>
      <trkpt lat="43.01963" lon="6.16587">
        <ele>1.1</ele>
        <time>2019-05-27T12:10:53Z</time>
      </trkpt>
      <trkpt lat="43.01988" lon="6.16559">
        <ele>1.1</ele>
        <time>2019-05-27T12:11:08Z</time>
      </trkpt>
      <trkpt lat="43.02018" lon="6.16532">
        <ele>0.62</ele>
        <time>2019-05-27T12:11:25Z</time>
      </trkpt>
      <trkpt lat="43.02042" lon="6.16523">
        <ele>1.1</ele>
        <time>2019-05-27T12:11:38Z</time>
      </trkpt>
      <trkpt lat="43.02069" lon="6.16511">
        <ele>2.06</ele>
        <time>2019-05-27T12:11:54Z</time>
      </trkpt>
      <trkpt lat="43.02098" lon="6.16495">
        <ele>1.58</ele>
        <time>2019-05-27T12:12:12Z</time>
      </trkpt>
      <trkpt lat="43.02125" lon="6.1647">
        <ele>1.58</ele>
        <time>2019-05-27T12:12:29Z</time>
      </trkpt>
      <trkpt lat="43.02154" lon="6.16454">
        <ele>1.58</ele>
        <time>2019-05-27T12:12:46Z</time>
      </trkpt>
      <trkpt lat="43.02189" lon="6.16446">
        <ele>1.58</ele>
        <time>2019-05-27T12:13:04Z</time>
      </trkpt>
      <trkpt lat="43.02223" lon="6.16441">
        <ele>2.06</ele>
        <time>2019-05-27T12:13:21Z</time>
      </trkpt>
      <trkpt lat="43.02256" lon="6.16448">
        <ele>1.58</ele>
        <time>2019-05-27T12:13:37Z</time>
      </trkpt>
      <trkpt lat="43.0229" lon="6.1646">
        <ele>1.58</ele>
        <time>2019-05-27T12:13:53Z</time>
      </trkpt>
      <trkpt lat="43.02323" lon="6.16465">
        <ele>1.58</ele>
        <time>2019-05-27T12:14:09Z</time>
      </trkpt>
      <trkpt lat="43.02348" lon="6.16474">
        <ele>1.58</ele>
        <time>2019-05-27T12:14:24Z</time>
      </trkpt>
      <trkpt lat="43.02375" lon="6.16497">
        <ele>1.1</ele>
        <time>2019-05-27T12:14:43Z</time>
      </trkpt>
      <trkpt lat="43.02405" lon="6.16526">
        <ele>1.58</ele>
        <time>2019-05-27T12:15:01Z</time>
      </trkpt>
      <trkpt lat="43.02447" lon="6.16571">
        <ele>2.06</ele>
        <time>2019-05-27T12:15:23Z</time>
      </trkpt>
      <trkpt lat="43.02482" lon="6.16625">
        <ele>2.06</ele>
        <time>2019-05-27T12:15:43Z</time>
      </trkpt>
      <trkpt lat="43.02507" lon="6.16673">
        <ele>3.02</ele>
        <time>2019-05-27T12:16:01Z</time>
      </trkpt>
      <trkpt lat="43.02527" lon="6.16724">
        <ele>2.06</ele>
        <time>2019-05-27T12:16:19Z</time>
      </trkpt>
      <trkpt lat="43.02554" lon="6.16784">
        <ele>2.06</ele>
        <time>2019-05-27T12:16:39Z</time>
      </trkpt>
      <trkpt lat="43.02579" lon="6.16841">
        <ele>2.54</ele>
        <time>2019-05-27T12:16:56Z</time>
      </trkpt>
      <trkpt lat="43.02605" lon="6.16889">
        <ele>2.54</ele>
        <time>2019-05-27T12:17:11Z</time>
      </trkpt>
      <trkpt lat="43.02637" lon="6.1694">
        <ele>2.06</ele>
        <time>2019-05-27T12:17:27Z</time>
      </trkpt>
      <trkpt lat="43.02668" lon="6.16976">
        <ele>1.58</ele>
        <time>2019-05-27T12:17:42Z</time>
      </trkpt>
      <trkpt lat="43.02701" lon="6.17001">
        <ele>0.62</ele>
        <time>2019-05-27T12:17:58Z</time>
      </trkpt>
      <trkpt lat="43.02741" lon="6.1704">
        <ele>0.62</ele>
        <time>2019-05-27T12:18:17Z</time>
      </trkpt>
      <trkpt lat="43.02777" lon="6.17075">
        <ele>1.1</ele>
        <time>2019-05-27T12:18:33Z</time>
      </trkpt>
      <trkpt lat="43.02796" lon="6.17128">
        <ele>1.58</ele>
        <time>2019-05-27T12:18:49Z</time>
      </trkpt>
      <trkpt lat="43.02794" lon="6.17197">
        <ele>2.54</ele>
        <time>2019-05-27T12:19:07Z</time>
      </trkpt>
      <trkpt lat="43.02793" lon="6.17256">
        <ele>3.02</ele>
        <time>2019-05-27T12:19:23Z</time>
      </trkpt>
      <trkpt lat="43.02791" lon="6.17317">
        <ele>3.98</ele>
        <time>2019-05-27T12:19:40Z</time>
      </trkpt>
      <trkpt lat="43.02791" lon="6.17366">
        <ele>4.94</ele>
        <time>2019-05-27T12:19:54Z</time>
      </trkpt>
      <trkpt lat="43.02798" lon="6.17409">
        <ele>5.42</ele>
        <time>2019-05-27T12:20:07Z</time>
      </trkpt>
      <trkpt lat="43.028" lon="6.17481">
        <ele>4.94</ele>
        <time>2019-05-27T12:20:25Z</time>
      </trkpt>
      <trkpt lat="43.0278" lon="6.17505">
        <ele>3.98</ele>
        <time>2019-05-27T12:20:36Z</time>
      </trkpt>
      <trkpt lat="43.02766" lon="6.17477">
        <ele>2.54</ele>
        <time>2019-05-27T12:20:50Z</time>
      </trkpt>
      <trkpt lat="43.02756" lon="6.17417">
        <ele>2.54</ele>
        <time>2019-05-27T12:21:05Z</time>
      </trkpt>
      <trkpt lat="43.02759" lon="6.17356">
        <ele>3.5</ele>
        <time>2019-05-27T12:21:18Z</time>
      </trkpt>
      <trkpt lat="43.02772" lon="6.17302">
        <ele>3.5</ele>
        <time>2019-05-27T12:21:33Z</time>
      </trkpt>
      <trkpt lat="43.02782" lon="6.17264">
        <ele>3.5</ele>
        <time>2019-05-27T12:21:46Z</time>
      </trkpt>
      <trkpt lat="43.0279" lon="6.17224">
        <ele>3.98</ele>
        <time>2019-05-27T12:22:00Z</time>
      </trkpt>
      <trkpt lat="43.028" lon="6.17191">
        <ele>3.5</ele>
        <time>2019-05-27T12:22:14Z</time>
      </trkpt>
      <trkpt lat="43.02805" lon="6.17151">
        <ele>4.46</ele>
        <time>2019-05-27T12:22:31Z</time>
      </trkpt>
      <trkpt lat="43.02803" lon="6.17103">
        <ele>4.46</ele>
        <time>2019-05-27T12:22:50Z</time>
      </trkpt>
      <trkpt lat="43.02797" lon="6.1704">
        <ele>3.5</ele>
        <time>2019-05-27T12:23:09Z</time>
      </trkpt>
      <trkpt lat="43.02799" lon="6.16965">
        <ele>3.5</ele>
        <time>2019-05-27T12:23:28Z</time>
      </trkpt>
      <trkpt lat="43.02809" lon="6.16913">
        <ele>3.5</ele>
        <time>2019-05-27T12:23:42Z</time>
      </trkpt>
      <trkpt lat="43.02803" lon="6.16859">
        <ele>2.06</ele>
        <time>2019-05-27T12:23:59Z</time>
      </trkpt>
      <trkpt lat="43.02787" lon="6.16872">
        <ele>1.58</ele>
        <time>2019-05-27T12:24:12Z</time>
      </trkpt>
      <trkpt lat="43.02776" lon="6.16922">
        <ele>2.06</ele>
        <time>2019-05-27T12:24:27Z</time>
      </trkpt>
      <trkpt lat="43.02764" lon="6.16975">
        <ele>2.54</ele>
        <time>2019-05-27T12:24:42Z</time>
      </trkpt>
      <trkpt lat="43.02754" lon="6.17036">
        <ele>2.54</ele>
        <time>2019-05-27T12:24:57Z</time>
      </trkpt>
      <trkpt lat="43.02753" lon="6.17096">
        <ele>2.54</ele>
        <time>2019-05-27T12:25:11Z</time>
      </trkpt>
      <trkpt lat="43.02748" lon="6.17168">
        <ele>2.06</ele>
        <time>2019-05-27T12:25:28Z</time>
      </trkpt>
      <trkpt lat="43.02754" lon="6.17235">
        <ele>2.06</ele>
        <time>2019-05-27T12:25:45Z</time>
      </trkpt>
      <trkpt lat="43.02766" lon="6.1729">
        <ele>1.58</ele>
        <time>2019-05-27T12:26:01Z</time>
      </trkpt>
      <trkpt lat="43.02777" lon="6.17325">
        <ele>2.06</ele>
        <time>2019-05-27T12:26:14Z</time>
      </trkpt>
      <trkpt lat="43.02808" lon="6.17333">
        <ele>3.02</ele>
        <time>2019-05-27T12:26:31Z</time>
      </trkpt>
      <trkpt lat="43.02835" lon="6.17322">
        <ele>1.1</ele>
        <time>2019-05-27T12:26:49Z</time>
      </trkpt>
      <trkpt lat="43.02859" lon="6.17307">
        <ele>0.14</ele>
        <time>2019-05-27T12:27:05Z</time>
      </trkpt>
      <trkpt lat="43.02889" lon="6.17295">
        <ele>0.62</ele>
        <time>2019-05-27T12:27:25Z</time>
      </trkpt>
      <trkpt lat="43.02917" lon="6.17285">
        <ele>0.14</ele>
        <time>2019-05-27T12:27:44Z</time>
      </trkpt>
      <trkpt lat="43.02939" lon="6.17277">
        <ele>-0.82</ele>
        <time>2019-05-27T12:27:59Z</time>
      </trkpt>
      <trkpt lat="43.02962" lon="6.17274">
        <ele>0.14</ele>
        <time>2019-05-27T12:28:14Z</time>
      </trkpt>
      <trkpt lat="43.02963" lon="6.173">
        <ele>1.1</ele>
        <time>2019-05-27T12:28:28Z</time>
      </trkpt>
      <trkpt lat="43.02948" lon="6.17326">
        <ele>1.58</ele>
        <time>2019-05-27T12:28:45Z</time>
      </trkpt>
      <trkpt lat="43.02924" lon="6.17358">
        <ele>2.54</ele>
        <time>2019-05-27T12:29:04Z</time>
      </trkpt>
      <trkpt lat="43.02904" lon="6.17375">
        <ele>2.06</ele>
        <time>2019-05-27T12:29:21Z</time>
      </trkpt>
      <trkpt lat="43.02888" lon="6.17385">
        <ele>1.58</ele>
        <time>2019-05-27T12:29:41Z</time>
      </trkpt>
      <trkpt lat="43.02886" lon="6.17383">
        <ele>1.58</ele>
        <time>2019-05-27T12:29:45Z</time>
      </trkpt>
      <trkpt lat="43.02882" lon="6.17348">
        <ele>4.46</ele>
        <time>2019-05-27T12:30:02Z</time>
      </trkpt>
      <trkpt lat="43.02888" lon="6.17311">
        <ele>4.46</ele>
        <time>2019-05-27T12:30:15Z</time>
      </trkpt>
      <trkpt lat="43.02902" lon="6.17269">
        <ele>4.94</ele>
        <time>2019-05-27T12:30:29Z</time>
      </trkpt>
      <trkpt lat="43.02919" lon="6.1722">
        <ele>5.42</ele>
        <time>2019-05-27T12:30:45Z</time>
      </trkpt>
      <trkpt lat="43.02927" lon="6.17164">
        <ele>6.39</ele>
        <time>2019-05-27T12:31:00Z</time>
      </trkpt>
      <trkpt lat="43.02945" lon="6.17124">
        <ele>6.87</ele>
        <time>2019-05-27T12:31:13Z</time>
      </trkpt>
      <trkpt lat="43.02969" lon="6.17098">
        <ele>4.46</ele>
        <time>2019-05-27T12:31:26Z</time>
      </trkpt>
      <trkpt lat="43.02974" lon="6.17056">
        <ele>4.94</ele>
        <time>2019-05-27T12:31:38Z</time>
      </trkpt>
      <trkpt lat="43.02972" lon="6.17004">
        <ele>4.46</ele>
        <time>2019-05-27T12:31:52Z</time>
      </trkpt>
      <trkpt lat="43.02959" lon="6.16951">
        <ele>2.06</ele>
        <time>2019-05-27T12:32:07Z</time>
      </trkpt>
      <trkpt lat="43.02949" lon="6.16886">
        <ele>2.06</ele>
        <time>2019-05-27T12:32:24Z</time>
      </trkpt>
      <trkpt lat="43.02934" lon="6.16829">
        <ele>2.06</ele>
        <time>2019-05-27T12:32:42Z</time>
      </trkpt>
      <trkpt lat="43.0292" lon="6.1678">
        <ele>0.62</ele>
        <time>2019-05-27T12:32:57Z</time>
      </trkpt>
      <trkpt lat="43.02897" lon="6.16736">
        <ele>1.58</ele>
        <time>2019-05-27T12:33:14Z</time>
      </trkpt>
      <trkpt lat="43.02891" lon="6.16694">
        <ele>0.62</ele>
        <time>2019-05-27T12:33:27Z</time>
      </trkpt>
      <trkpt lat="43.02895" lon="6.16656">
        <ele>1.58</ele>
        <time>2019-05-27T12:33:40Z</time>
      </trkpt>
      <trkpt lat="43.02884" lon="6.16621">
        <ele>1.1</ele>
        <time>2019-05-27T12:33:54Z</time>
      </trkpt>
      <trkpt lat="43.02869" lon="6.16573">
        <ele>0.62</ele>
        <time>2019-05-27T12:34:13Z</time>
      </trkpt>
      <trkpt lat="43.02855" lon="6.16531">
        <ele>0.14</ele>
        <time>2019-05-27T12:34:30Z</time>
      </trkpt>
      <trkpt lat="43.02854" lon="6.16527">
        <ele>0.14</ele>
        <time>2019-05-27T12:34:32Z</time>
      </trkpt>
      <trkpt lat="43.02859" lon="6.16487">
        <ele>0.62</ele>
        <time>2019-05-27T12:34:48Z</time>
      </trkpt>
      <trkpt lat="43.02835" lon="6.16457">
        <ele>-0.34</ele>
        <time>2019-05-27T12:35:06Z</time>
      </trkpt>
      <trkpt lat="43.02806" lon="6.16415">
        <ele>0.14</ele>
        <time>2019-05-27T12:35:23Z</time>
      </trkpt>
      <trkpt lat="43.0278" lon="6.1635">
        <ele>-0.34</ele>
        <time>2019-05-27T12:35:41Z</time>
      </trkpt>
      <trkpt lat="43.02752" lon="6.16282">
        <ele>-0.34</ele>
        <time>2019-05-27T12:35:59Z</time>
      </trkpt>
      <trkpt lat="43.0272" lon="6.16204">
        <ele>-0.34</ele>
        <time>2019-05-27T12:36:20Z</time>
      </trkpt>
      <trkpt lat="43.02684" lon="6.16128">
        <ele>-0.34</ele>
        <time>2019-05-27T12:36:40Z</time>
      </trkpt>
      <trkpt lat="43.0266" lon="6.16068">
        <ele>-0.82</ele>
        <time>2019-05-27T12:36:55Z</time>
      </trkpt>
      <trkpt lat="43.02639" lon="6.16002">
        <ele>-0.82</ele>
        <time>2019-05-27T12:37:12Z</time>
      </trkpt>
      <trkpt lat="43.0261" lon="6.15921">
        <ele>-0.34</ele>
        <time>2019-05-27T12:37:32Z</time>
      </trkpt>
      <trkpt lat="43.02584" lon="6.15851">
        <ele>-0.34</ele>
        <time>2019-05-27T12:37:49Z</time>
      </trkpt>
      <trkpt lat="43.02546" lon="6.15767">
        <ele>-0.34</ele>
        <time>2019-05-27T12:38:11Z</time>
      </trkpt>
      <trkpt lat="43.02503" lon="6.157">
        <ele>0.14</ele>
        <time>2019-05-27T12:38:31Z</time>
      </trkpt>
      <trkpt lat="43.02463" lon="6.15643">
        <ele>-1.3</ele>
        <time>2019-05-27T12:38:49Z</time>
      </trkpt>
      <trkpt lat="43.0242" lon="6.15591">
        <ele>-1.79</ele>
        <time>2019-05-27T12:39:07Z</time>
      </trkpt>
      <trkpt lat="43.02379" lon="6.15541">
        <ele>-1.79</ele>
        <time>2019-05-27T12:39:24Z</time>
      </trkpt>
      <trkpt lat="43.02342" lon="6.1549">
        <ele>-1.3</ele>
        <time>2019-05-27T12:39:42Z</time>
      </trkpt>
      <trkpt lat="43.02309" lon="6.15444">
        <ele>-0.82</ele>
        <time>2019-05-27T12:39:59Z</time>
      </trkpt>
      <trkpt lat="43.02278" lon="6.15392">
        <ele>-1.3</ele>
        <time>2019-05-27T12:40:17Z</time>
      </trkpt>
      <trkpt lat="43.02251" lon="6.15351">
        <ele>-0.82</ele>
        <time>2019-05-27T12:40:32Z</time>
      </trkpt>
      <trkpt lat="43.0221" lon="6.15296">
        <ele>-1.3</ele>
        <time>2019-05-27T12:40:53Z</time>
      </trkpt>
      <trkpt lat="43.02174" lon="6.15252">
        <ele>-1.3</ele>
        <time>2019-05-27T12:41:10Z</time>
      </trkpt>
      <trkpt lat="43.02143" lon="6.15212">
        <ele>-1.3</ele>
        <time>2019-05-27T12:41:25Z</time>
      </trkpt>
      <trkpt lat="43.02114" lon="6.15172">
        <ele>-2.27</ele>
        <time>2019-05-27T12:41:39Z</time>
      </trkpt>
      <trkpt lat="43.02099" lon="6.15196">
        <ele>-2.27</ele>
        <time>2019-05-27T12:41:53Z</time>
      </trkpt>
      <trkpt lat="43.02085" lon="6.15237">
        <ele>-1.3</ele>
        <time>2019-05-27T12:42:09Z</time>
      </trkpt>
      <trkpt lat="43.02071" lon="6.15275">
        <ele>-1.3</ele>
        <time>2019-05-27T12:42:22Z</time>
      </trkpt>
      <trkpt lat="43.02062" lon="6.15273">
        <ele>-1.3</ele>
        <time>2019-05-27T12:42:28Z</time>
      </trkpt>
      <trkpt lat="43.02044" lon="6.15235">
        <ele>-0.82</ele>
        <time>2019-05-27T12:42:46Z</time>
      </trkpt>
      <trkpt lat="43.02026" lon="6.15206">
        <ele>-0.82</ele>
        <time>2019-05-27T12:42:59Z</time>
      </trkpt>
      <trkpt lat="43.01993" lon="6.15164">
        <ele>-0.82</ele>
        <time>2019-05-27T12:43:17Z</time>
      </trkpt>
      <trkpt lat="43.01962" lon="6.15124">
        <ele>-1.3</ele>
        <time>2019-05-27T12:43:33Z</time>
      </trkpt>
      <trkpt lat="43.0193" lon="6.15081">
        <ele>-0.82</ele>
        <time>2019-05-27T12:43:50Z</time>
      </trkpt>
      <trkpt lat="43.01904" lon="6.15044">
        <ele>0.14</ele>
        <time>2019-05-27T12:44:03Z</time>
      </trkpt>
      <trkpt lat="43.01873" lon="6.14997">
        <ele>0.62</ele>
        <time>2019-05-27T12:44:19Z</time>
      </trkpt>
      <trkpt lat="43.0184" lon="6.14955">
        <ele>0.14</ele>
        <time>2019-05-27T12:44:35Z</time>
      </trkpt>
      <trkpt lat="43.01807" lon="6.14909">
        <ele>-0.34</ele>
        <time>2019-05-27T12:44:52Z</time>
      </trkpt>
      <trkpt lat="43.01772" lon="6.14863">
        <ele>-1.79</ele>
        <time>2019-05-27T12:45:08Z</time>
      </trkpt>
      <trkpt lat="43.01745" lon="6.14816">
        <ele>-0.82</ele>
        <time>2019-05-27T12:45:22Z</time>
      </trkpt>
      <trkpt lat="43.01711" lon="6.14764">
        <ele>-0.82</ele>
        <time>2019-05-27T12:45:38Z</time>
      </trkpt>
      <trkpt lat="43.01676" lon="6.14713">
        <ele>-1.3</ele>
        <time>2019-05-27T12:45:54Z</time>
      </trkpt>
      <trkpt lat="43.01652" lon="6.14687">
        <ele>-0.82</ele>
        <time>2019-05-27T12:46:05Z</time>
      </trkpt>
      <trkpt lat="43.0162" lon="6.14651">
        <ele>-0.82</ele>
        <time>2019-05-27T12:46:20Z</time>
      </trkpt>
      <trkpt lat="43.01591" lon="6.14619">
        <ele>-1.79</ele>
        <time>2019-05-27T12:46:34Z</time>
      </trkpt>
      <trkpt lat="43.01561" lon="6.14593">
        <ele>-1.3</ele>
        <time>2019-05-27T12:46:48Z</time>
      </trkpt>
      <trkpt lat="43.01533" lon="6.14566">
        <ele>-1.3</ele>
        <time>2019-05-27T12:47:02Z</time>
      </trkpt>
      <trkpt lat="43.01512" lon="6.14538">
        <ele>-0.82</ele>
        <time>2019-05-27T12:47:15Z</time>
      </trkpt>
      <trkpt lat="43.01491" lon="6.1451">
        <ele>-0.82</ele>
        <time>2019-05-27T12:47:27Z</time>
      </trkpt>
      <trkpt lat="43.01466" lon="6.14476">
        <ele>-1.3</ele>
        <time>2019-05-27T12:47:40Z</time>
      </trkpt>
      <trkpt lat="43.01446" lon="6.14443">
        <ele>-0.82</ele>
        <time>2019-05-27T12:47:53Z</time>
      </trkpt>
      <trkpt lat="43.01442" lon="6.14408">
        <ele>-0.82</ele>
        <time>2019-05-27T12:48:04Z</time>
      </trkpt>
      <trkpt lat="43.01443" lon="6.14366">
        <ele>-0.34</ele>
        <time>2019-05-27T12:48:17Z</time>
      </trkpt>
      <trkpt lat="43.01447" lon="6.14336">
        <ele>-0.34</ele>
        <time>2019-05-27T12:48:28Z</time>
      </trkpt>
      <trkpt lat="43.01453" lon="6.14303">
        <ele>0.14</ele>
        <time>2019-05-27T12:48:41Z</time>
      </trkpt>
      <trkpt lat="43.01457" lon="6.14276">
        <ele>-0.34</ele>
        <time>2019-05-27T12:48:51Z</time>
      </trkpt>
      <trkpt lat="43.01463" lon="6.1425">
        <ele>0.14</ele>
        <time>2019-05-27T12:49:02Z</time>
      </trkpt>
      <trkpt lat="43.01468" lon="6.14219">
        <ele>0.62</ele>
        <time>2019-05-27T12:49:14Z</time>
      </trkpt>
      <trkpt lat="43.01471" lon="6.14188">
        <ele>0.14</ele>
        <time>2019-05-27T12:49:26Z</time>
      </trkpt>
      <trkpt lat="43.01472" lon="6.14151">
        <ele>0.62</ele>
        <time>2019-05-27T12:49:39Z</time>
      </trkpt>
      <trkpt lat="43.01475" lon="6.14112">
        <ele>-0.34</ele>
        <time>2019-05-27T12:49:52Z</time>
      </trkpt>
      <trkpt lat="43.0148" lon="6.14069">
        <ele>-0.82</ele>
        <time>2019-05-27T12:50:06Z</time>
      </trkpt>
      <trkpt lat="43.01487" lon="6.14037">
        <ele>1.1</ele>
        <time>2019-05-27T12:50:17Z</time>
      </trkpt>
      <trkpt lat="43.01496" lon="6.14004">
        <ele>1.1</ele>
        <time>2019-05-27T12:50:29Z</time>
      </trkpt>
      <trkpt lat="43.01503" lon="6.13962">
        <ele>0.62</ele>
        <time>2019-05-27T12:50:43Z</time>
      </trkpt>
      <trkpt lat="43.01508" lon="6.13915">
        <ele>-0.34</ele>
        <time>2019-05-27T12:50:58Z</time>
      </trkpt>
      <trkpt lat="43.0151" lon="6.13871">
        <ele>-1.3</ele>
        <time>2019-05-27T12:51:12Z</time>
      </trkpt>
      <trkpt lat="43.01511" lon="6.13831">
        <ele>-0.82</ele>
        <time>2019-05-27T12:51:25Z</time>
      </trkpt>
      <trkpt lat="43.01509" lon="6.13794">
        <ele>1.1</ele>
        <time>2019-05-27T12:51:37Z</time>
      </trkpt>
      <trkpt lat="43.01507" lon="6.13746">
        <ele>1.58</ele>
        <time>2019-05-27T12:51:51Z</time>
      </trkpt>
      <trkpt lat="43.01505" lon="6.13691">
        <ele>1.1</ele>
        <time>2019-05-27T12:52:06Z</time>
      </trkpt>
      <trkpt lat="43.01505" lon="6.13651">
        <ele>-0.82</ele>
        <time>2019-05-27T12:52:17Z</time>
      </trkpt>
      <trkpt lat="43.01506" lon="6.13609">
        <ele>-0.34</ele>
        <time>2019-05-27T12:52:29Z</time>
      </trkpt>
      <trkpt lat="43.01508" lon="6.13592">
        <ele>-0.82</ele>
        <time>2019-05-27T12:52:34Z</time>
      </trkpt>
      <trkpt lat="43.01511" lon="6.13555">
        <ele>-1.3</ele>
        <time>2019-05-27T12:52:45Z</time>
      </trkpt>
      <trkpt lat="43.01512" lon="6.13511">
        <ele>0.62</ele>
        <time>2019-05-27T12:53:00Z</time>
      </trkpt>
      <trkpt lat="43.01511" lon="6.13472">
        <ele>-2.27</ele>
        <time>2019-05-27T12:53:13Z</time>
      </trkpt>
      <trkpt lat="43.01508" lon="6.13431">
        <ele>-5.63</ele>
        <time>2019-05-27T12:53:26Z</time>
      </trkpt>
      <trkpt lat="43.01507" lon="6.13382">
        <ele>-4.67</ele>
        <time>2019-05-27T12:53:41Z</time>
      </trkpt>
      <trkpt lat="43.01506" lon="6.13342">
        <ele>-2.75</ele>
        <time>2019-05-27T12:53:54Z</time>
      </trkpt>
      <trkpt lat="43.01507" lon="6.13305">
        <ele>-2.75</ele>
        <time>2019-05-27T12:54:06Z</time>
      </trkpt>
      <trkpt lat="43.01505" lon="6.13286">
        <ele>-3.71</ele>
        <time>2019-05-27T12:54:12Z</time>
      </trkpt>
      <trkpt lat="43.01503" lon="6.13249">
        <ele>-3.23</ele>
        <time>2019-05-27T12:54:24Z</time>
      </trkpt>
      <trkpt lat="43.01504" lon="6.13203">
        <ele>-1.79</ele>
        <time>2019-05-27T12:54:40Z</time>
      </trkpt>
      <trkpt lat="43.01504" lon="6.13159">
        <ele>-0.82</ele>
        <time>2019-05-27T12:54:55Z</time>
      </trkpt>
      <trkpt lat="43.01502" lon="6.13098">
        <ele>0.14</ele>
        <time>2019-05-27T12:55:13Z</time>
      </trkpt>
      <trkpt lat="43.01501" lon="6.13049">
        <ele>-0.34</ele>
        <time>2019-05-27T12:55:27Z</time>
      </trkpt>
      <trkpt lat="43.01503" lon="6.13002">
        <ele>-1.3</ele>
        <time>2019-05-27T12:55:40Z</time>
      </trkpt>
      <trkpt lat="43.01511" lon="6.12947">
        <ele>-0.82</ele>
        <time>2019-05-27T12:55:56Z</time>
      </trkpt>
      <trkpt lat="43.01517" lon="6.12907">
        <ele>-1.79</ele>
        <time>2019-05-27T12:56:10Z</time>
      </trkpt>
      <trkpt lat="43.0152" lon="6.12867">
        <ele>-1.3</ele>
        <time>2019-05-27T12:56:24Z</time>
      </trkpt>
      <trkpt lat="43.01526" lon="6.1282">
        <ele>-1.79</ele>
        <time>2019-05-27T12:56:40Z</time>
      </trkpt>
      <trkpt lat="43.01538" lon="6.12779">
        <ele>-1.3</ele>
        <time>2019-05-27T12:56:56Z</time>
      </trkpt>
      <trkpt lat="43.01541" lon="6.12747">
        <ele>-1.3</ele>
        <time>2019-05-27T12:57:09Z</time>
      </trkpt>
      <trkpt lat="43.01544" lon="6.12696">
        <ele>-0.82</ele>
        <time>2019-05-27T12:57:27Z</time>
      </trkpt>
      <trkpt lat="43.01549" lon="6.12645">
        <ele>1.1</ele>
        <time>2019-05-27T12:57:46Z</time>
      </trkpt>
      <trkpt lat="43.01552" lon="6.12601">
        <ele>1.58</ele>
        <time>2019-05-27T12:58:02Z</time>
      </trkpt>
      <trkpt lat="43.01553" lon="6.12559">
        <ele>3.5</ele>
        <time>2019-05-27T12:58:17Z</time>
      </trkpt>
      <trkpt lat="43.01554" lon="6.12522">
        <ele>2.54</ele>
        <time>2019-05-27T12:58:31Z</time>
      </trkpt>
      <trkpt lat="43.01555" lon="6.12486">
        <ele>-0.34</ele>
        <time>2019-05-27T12:58:45Z</time>
      </trkpt>
      <trkpt lat="43.01561" lon="6.12437">
        <ele>-0.82</ele>
        <time>2019-05-27T12:59:02Z</time>
      </trkpt>
      <trkpt lat="43.01561" lon="6.12391">
        <ele>0.62</ele>
        <time>2019-05-27T12:59:16Z</time>
      </trkpt>
      <trkpt lat="43.01562" lon="6.12345">
        <ele>1.1</ele>
        <time>2019-05-27T12:59:30Z</time>
      </trkpt>
      <trkpt lat="43.01561" lon="6.12294">
        <ele>-1.3</ele>
        <time>2019-05-27T12:59:45Z</time>
      </trkpt>
      <trkpt lat="43.01563" lon="6.12235">
        <ele>-1.79</ele>
        <time>2019-05-27T13:00:02Z</time>
      </trkpt>
      <trkpt lat="43.01566" lon="6.12163">
        <ele>-3.23</ele>
        <time>2019-05-27T13:00:23Z</time>
      </trkpt>
      <trkpt lat="43.01576" lon="6.1211">
        <ele>-5.15</ele>
        <time>2019-05-27T13:00:38Z</time>
      </trkpt>
      <trkpt lat="43.01581" lon="6.12049">
        <ele>-6.59</ele>
        <time>2019-05-27T13:00:56Z</time>
      </trkpt>
      <trkpt lat="43.01587" lon="6.11987">
        <ele>-3.23</ele>
        <time>2019-05-27T13:01:13Z</time>
      </trkpt>
      <trkpt lat="43.01591" lon="6.11935">
        <ele>-1.3</ele>
        <time>2019-05-27T13:01:28Z</time>
      </trkpt>
      <trkpt lat="43.01592" lon="6.11919">
        <ele>-1.3</ele>
        <time>2019-05-27T13:01:32Z</time>
      </trkpt>
      <trkpt lat="43.01594" lon="6.1187">
        <ele>-0.34</ele>
        <time>2019-05-27T13:01:45Z</time>
      </trkpt>
      <trkpt lat="43.01599" lon="6.11811">
        <ele>-0.34</ele>
        <time>2019-05-27T13:02:01Z</time>
      </trkpt>
      <trkpt lat="43.01601" lon="6.1176">
        <ele>-1.3</ele>
        <time>2019-05-27T13:02:15Z</time>
      </trkpt>
      <trkpt lat="43.01601" lon="6.11705">
        <ele>-0.82</ele>
        <time>2019-05-27T13:02:29Z</time>
      </trkpt>
      <trkpt lat="43.01601" lon="6.11644">
        <ele>-2.75</ele>
        <time>2019-05-27T13:02:44Z</time>
      </trkpt>
      <trkpt lat="43.01601" lon="6.11596">
        <ele>-4.19</ele>
        <time>2019-05-27T13:02:57Z</time>
      </trkpt>
      <trkpt lat="43.01603" lon="6.11543">
        <ele>-4.19</ele>
        <time>2019-05-27T13:03:10Z</time>
      </trkpt>
      <trkpt lat="43.01608" lon="6.11492">
        <ele>-2.27</ele>
        <time>2019-05-27T13:03:23Z</time>
      </trkpt>
      <trkpt lat="43.01612" lon="6.11452">
        <ele>-2.27</ele>
        <time>2019-05-27T13:03:34Z</time>
      </trkpt>
      <trkpt lat="43.01618" lon="6.11403">
        <ele>-2.75</ele>
        <time>2019-05-27T13:03:48Z</time>
      </trkpt>
      <trkpt lat="43.01627" lon="6.11346">
        <ele>-3.71</ele>
        <time>2019-05-27T13:04:04Z</time>
      </trkpt>
      <trkpt lat="43.0163" lon="6.11295">
        <ele>-7.07</ele>
        <time>2019-05-27T13:04:18Z</time>
      </trkpt>
      <trkpt lat="43.0163" lon="6.11292">
        <ele>-7.07</ele>
        <time>2019-05-27T13:04:19Z</time>
      </trkpt>
      <trkpt lat="43.01637" lon="6.11243">
        <ele>-7.55</ele>
        <time>2019-05-27T13:04:33Z</time>
      </trkpt>
      <trkpt lat="43.01649" lon="6.11187">
        <ele>-4.67</ele>
        <time>2019-05-27T13:04:50Z</time>
      </trkpt>
      <trkpt lat="43.01658" lon="6.11145">
        <ele>-2.75</ele>
        <time>2019-05-27T13:05:03Z</time>
      </trkpt>
      <trkpt lat="43.01667" lon="6.11107">
        <ele>-3.23</ele>
        <time>2019-05-27T13:05:15Z</time>
      </trkpt>
      <trkpt lat="43.01679" lon="6.11071">
        <ele>-2.27</ele>
        <time>2019-05-27T13:05:27Z</time>
      </trkpt>
      <trkpt lat="43.0169" lon="6.11031">
        <ele>-3.23</ele>
        <time>2019-05-27T13:05:41Z</time>
      </trkpt>
      <trkpt lat="43.01707" lon="6.10988">
        <ele>-3.23</ele>
        <time>2019-05-27T13:05:56Z</time>
      </trkpt>
      <trkpt lat="43.01722" lon="6.10946">
        <ele>-3.23</ele>
        <time>2019-05-27T13:06:11Z</time>
      </trkpt>
      <trkpt lat="43.01734" lon="6.10906">
        <ele>-3.23</ele>
        <time>2019-05-27T13:06:26Z</time>
      </trkpt>
      <trkpt lat="43.01743" lon="6.10871">
        <ele>-3.71</ele>
        <time>2019-05-27T13:06:38Z</time>
      </trkpt>
      <trkpt lat="43.01753" lon="6.10836">
        <ele>-3.23</ele>
        <time>2019-05-27T13:06:50Z</time>
      </trkpt>
      <trkpt lat="43.01766" lon="6.10799">
        <ele>-4.19</ele>
        <time>2019-05-27T13:07:02Z</time>
      </trkpt>
      <trkpt lat="43.01781" lon="6.10764">
        <ele>-6.11</ele>
        <time>2019-05-27T13:07:16Z</time>
      </trkpt>
      <trkpt lat="43.01796" lon="6.10728">
        <ele>-6.59</ele>
        <time>2019-05-27T13:07:30Z</time>
      </trkpt>
      <trkpt lat="43.01809" lon="6.10695">
        <ele>-6.11</ele>
        <time>2019-05-27T13:07:43Z</time>
      </trkpt>
      <trkpt lat="43.01822" lon="6.1065">
        <ele>-5.15</ele>
        <time>2019-05-27T13:07:59Z</time>
      </trkpt>
      <trkpt lat="43.01833" lon="6.10608">
        <ele>-3.23</ele>
        <time>2019-05-27T13:08:14Z</time>
      </trkpt>
      <trkpt lat="43.01844" lon="6.10566">
        <ele>-0.82</ele>
        <time>2019-05-27T13:08:28Z</time>
      </trkpt>
      <trkpt lat="43.01857" lon="6.1053">
        <ele>-0.82</ele>
        <time>2019-05-27T13:08:41Z</time>
      </trkpt>
      <trkpt lat="43.01868" lon="6.105">
        <ele>0.62</ele>
        <time>2019-05-27T13:08:52Z</time>
      </trkpt>
      <trkpt lat="43.01884" lon="6.10463">
        <ele>2.06</ele>
        <time>2019-05-27T13:09:07Z</time>
      </trkpt>
      <trkpt lat="43.01899" lon="6.10429">
        <ele>0.62</ele>
        <time>2019-05-27T13:09:21Z</time>
      </trkpt>
      <trkpt lat="43.0191" lon="6.10397">
        <ele>-0.82</ele>
        <time>2019-05-27T13:09:35Z</time>
      </trkpt>
      <trkpt lat="43.01919" lon="6.10373">
        <ele>-3.71</ele>
        <time>2019-05-27T13:09:46Z</time>
      </trkpt>
      <trkpt lat="43.01931" lon="6.10336">
        <ele>-4.67</ele>
        <time>2019-05-27T13:10:02Z</time>
      </trkpt>
      <trkpt lat="43.01943" lon="6.10293">
        <ele>-4.19</ele>
        <time>2019-05-27T13:10:18Z</time>
      </trkpt>
      <trkpt lat="43.01955" lon="6.1026">
        <ele>-3.71</ele>
        <time>2019-05-27T13:10:31Z</time>
      </trkpt>
      <trkpt lat="43.01968" lon="6.10227">
        <ele>-3.23</ele>
        <time>2019-05-27T13:10:44Z</time>
      </trkpt>
      <trkpt lat="43.01985" lon="6.10187">
        <ele>-3.71</ele>
        <time>2019-05-27T13:11:01Z</time>
      </trkpt>
      <trkpt lat="43.01997" lon="6.10156">
        <ele>-0.82</ele>
        <time>2019-05-27T13:11:14Z</time>
      </trkpt>
      <trkpt lat="43.02011" lon="6.10122">
        <ele>0.62</ele>
        <time>2019-05-27T13:11:30Z</time>
      </trkpt>
      <trkpt lat="43.0202" lon="6.10099">
        <ele>-0.82</ele>
        <time>2019-05-27T13:11:42Z</time>
      </trkpt>
      <trkpt lat="43.02023" lon="6.10091">
        <ele>-1.3</ele>
        <time>2019-05-27T13:11:46Z</time>
      </trkpt>
      <trkpt lat="43.02025" lon="6.10083">
        <ele>-1.79</ele>
        <time>2019-05-27T13:11:50Z</time>
      </trkpt>
      <trkpt lat="43.02034" lon="6.10062">
        <ele>-0.82</ele>
        <time>2019-05-27T13:12:02Z</time>
      </trkpt>
      <trkpt lat="43.02047" lon="6.10038">
        <ele>0.14</ele>
        <time>2019-05-27T13:12:17Z</time>
      </trkpt>
      <trkpt lat="43.02052" lon="6.10025">
        <ele>-2.27</ele>
        <time>2019-05-27T13:12:24Z</time>
      </trkpt>
      <trkpt lat="43.02054" lon="6.10023">
        <ele>-3.71</ele>
        <time>2019-05-27T13:12:26Z</time>
      </trkpt>
      <trkpt lat="43.02064" lon="6.09995">
        <ele>-6.11</ele>
        <time>2019-05-27T13:12:40Z</time>
      </trkpt>
      <trkpt lat="43.02069" lon="6.0998">
        <ele>-5.63</ele>
        <time>2019-05-27T13:12:47Z</time>
      </trkpt>
      <trkpt lat="43.02071" lon="6.09972">
        <ele>-5.15</ele>
        <time>2019-05-27T13:12:51Z</time>
      </trkpt>
      <trkpt lat="43.02084" lon="6.09938">
        <ele>-4.67</ele>
        <time>2019-05-27T13:13:06Z</time>
      </trkpt>
      <trkpt lat="43.02092" lon="6.09912">
        <ele>-5.15</ele>
        <time>2019-05-27T13:13:18Z</time>
      </trkpt>
      <trkpt lat="43.02109" lon="6.09873">
        <ele>-7.07</ele>
        <time>2019-05-27T13:13:37Z</time>
      </trkpt>
      <trkpt lat="43.02119" lon="6.09844">
        <ele>-6.11</ele>
        <time>2019-05-27T13:13:52Z</time>
      </trkpt>
      <trkpt lat="43.02121" lon="6.09837">
        <ele>-5.63</ele>
        <time>2019-05-27T13:13:55Z</time>
      </trkpt>
      <trkpt lat="43.02123" lon="6.09834">
        <ele>-5.15</ele>
        <time>2019-05-27T13:13:57Z</time>
      </trkpt>
      <trkpt lat="43.02132" lon="6.09809">
        <ele>-2.75</ele>
        <time>2019-05-27T13:14:10Z</time>
      </trkpt>
      <trkpt lat="43.02139" lon="6.09779">
        <ele>-2.27</ele>
        <time>2019-05-27T13:14:24Z</time>
      </trkpt>
      <trkpt lat="43.02147" lon="6.09743">
        <ele>-4.19</ele>
        <time>2019-05-27T13:14:39Z</time>
      </trkpt>
      <trkpt lat="43.02159" lon="6.09715">
        <ele>-5.15</ele>
        <time>2019-05-27T13:14:53Z</time>
      </trkpt>
      <trkpt lat="43.02171" lon="6.09687">
        <ele>-5.63</ele>
        <time>2019-05-27T13:15:08Z</time>
      </trkpt>
      <trkpt lat="43.02181" lon="6.09661">
        <ele>-5.63</ele>
        <time>2019-05-27T13:15:22Z</time>
      </trkpt>
      <trkpt lat="43.02193" lon="6.09637">
        <ele>-3.23</ele>
        <time>2019-05-27T13:15:36Z</time>
      </trkpt>
      <trkpt lat="43.02194" lon="6.09634">
        <ele>-2.75</ele>
        <time>2019-05-27T13:15:38Z</time>
      </trkpt>
      <trkpt lat="43.02197" lon="6.09626">
        <ele>-3.23</ele>
        <time>2019-05-27T13:15:42Z</time>
      </trkpt>
      <trkpt lat="43.02213" lon="6.0959">
        <ele>-5.63</ele>
        <time>2019-05-27T13:16:00Z</time>
      </trkpt>
      <trkpt lat="43.02229" lon="6.09554">
        <ele>-7.07</ele>
        <time>2019-05-27T13:16:16Z</time>
      </trkpt>
      <trkpt lat="43.02244" lon="6.09522">
        <ele>-8.51</ele>
        <time>2019-05-27T13:16:32Z</time>
      </trkpt>
      <trkpt lat="43.02257" lon="6.09493">
        <ele>-7.55</ele>
        <time>2019-05-27T13:16:45Z</time>
      </trkpt>
      <trkpt lat="43.02269" lon="6.09462">
        <ele>-4.19</ele>
        <time>2019-05-27T13:16:58Z</time>
      </trkpt>
      <trkpt lat="43.02285" lon="6.09422">
        <ele>-3.71</ele>
        <time>2019-05-27T13:17:13Z</time>
      </trkpt>
      <trkpt lat="43.02298" lon="6.09384">
        <ele>-2.75</ele>
        <time>2019-05-27T13:17:26Z</time>
      </trkpt>
      <trkpt lat="43.02314" lon="6.09346">
        <ele>-0.82</ele>
        <time>2019-05-27T13:17:40Z</time>
      </trkpt>
      <trkpt lat="43.02327" lon="6.09305">
        <ele>-0.82</ele>
        <time>2019-05-27T13:17:54Z</time>
      </trkpt>
      <trkpt lat="43.02341" lon="6.09272">
        <ele>0.14</ele>
        <time>2019-05-27T13:18:06Z</time>
      </trkpt>
      <trkpt lat="43.02362" lon="6.09232">
        <ele>0.62</ele>
        <time>2019-05-27T13:18:21Z</time>
      </trkpt>
      <trkpt lat="43.02378" lon="6.09194">
        <ele>0.14</ele>
        <time>2019-05-27T13:18:36Z</time>
      </trkpt>
      <trkpt lat="43.02404" lon="6.09142">
        <ele>-0.34</ele>
        <time>2019-05-27T13:18:56Z</time>
      </trkpt>
      <trkpt lat="43.02419" lon="6.09101">
        <ele>0.62</ele>
        <time>2019-05-27T13:19:11Z</time>
      </trkpt>
      <trkpt lat="43.02433" lon="6.09062">
        <ele>0.62</ele>
        <time>2019-05-27T13:19:25Z</time>
      </trkpt>
      <trkpt lat="43.02453" lon="6.09019">
        <ele>-0.34</ele>
        <time>2019-05-27T13:19:40Z</time>
      </trkpt>
      <trkpt lat="43.0247" lon="6.0898">
        <ele>-0.34</ele>
        <time>2019-05-27T13:19:54Z</time>
      </trkpt>
      <trkpt lat="43.02489" lon="6.08948">
        <ele>0.14</ele>
        <time>2019-05-27T13:20:08Z</time>
      </trkpt>
      <trkpt lat="43.02504" lon="6.08918">
        <ele>-0.34</ele>
        <time>2019-05-27T13:20:20Z</time>
      </trkpt>
      <trkpt lat="43.02509" lon="6.0891">
        <ele>-0.82</ele>
        <time>2019-05-27T13:20:24Z</time>
      </trkpt>
      <trkpt lat="43.02522" lon="6.08875">
        <ele>-1.3</ele>
        <time>2019-05-27T13:20:38Z</time>
      </trkpt>
      <trkpt lat="43.02538" lon="6.08845">
        <ele>-1.3</ele>
        <time>2019-05-27T13:20:51Z</time>
      </trkpt>
      <trkpt lat="43.02554" lon="6.08804">
        <ele>-1.3</ele>
        <time>2019-05-27T13:21:07Z</time>
      </trkpt>
      <trkpt lat="43.02568" lon="6.08765">
        <ele>-0.82</ele>
        <time>2019-05-27T13:21:21Z</time>
      </trkpt>
      <trkpt lat="43.02587" lon="6.08712">
        <ele>-0.34</ele>
        <time>2019-05-27T13:21:39Z</time>
      </trkpt>
      <trkpt lat="43.02607" lon="6.08673">
        <ele>-1.79</ele>
        <time>2019-05-27T13:21:53Z</time>
      </trkpt>
      <trkpt lat="43.02621" lon="6.08634">
        <ele>-1.79</ele>
        <time>2019-05-27T13:22:06Z</time>
      </trkpt>
      <trkpt lat="43.02638" lon="6.08594">
        <ele>-1.79</ele>
        <time>2019-05-27T13:22:20Z</time>
      </trkpt>
      <trkpt lat="43.02652" lon="6.08557">
        <ele>-2.27</ele>
        <time>2019-05-27T13:22:32Z</time>
      </trkpt>
      <trkpt lat="43.02673" lon="6.08513">
        <ele>-1.79</ele>
        <time>2019-05-27T13:22:47Z</time>
      </trkpt>
      <trkpt lat="43.0269" lon="6.08473">
        <ele>-2.27</ele>
        <time>2019-05-27T13:23:01Z</time>
      </trkpt>
      <trkpt lat="43.02709" lon="6.08437">
        <ele>-1.3</ele>
        <time>2019-05-27T13:23:15Z</time>
      </trkpt>
      <trkpt lat="43.02726" lon="6.08406">
        <ele>-1.79</ele>
        <time>2019-05-27T13:23:28Z</time>
      </trkpt>
      <trkpt lat="43.02746" lon="6.08374">
        <ele>-2.27</ele>
        <time>2019-05-27T13:23:41Z</time>
      </trkpt>
      <trkpt lat="43.02766" lon="6.08341">
        <ele>-0.82</ele>
        <time>2019-05-27T13:23:54Z</time>
      </trkpt>
      <trkpt lat="43.02781" lon="6.08309">
        <ele>-1.3</ele>
        <time>2019-05-27T13:24:06Z</time>
      </trkpt>
      <trkpt lat="43.02796" lon="6.08279">
        <ele>-2.75</ele>
        <time>2019-05-27T13:24:18Z</time>
      </trkpt>
      <trkpt lat="43.02811" lon="6.08251">
        <ele>-1.79</ele>
        <time>2019-05-27T13:24:30Z</time>
      </trkpt>
      <trkpt lat="43.02827" lon="6.08222">
        <ele>-2.27</ele>
        <time>2019-05-27T13:24:43Z</time>
      </trkpt>
      <trkpt lat="43.02843" lon="6.08189">
        <ele>-3.71</ele>
        <time>2019-05-27T13:24:56Z</time>
      </trkpt>
      <trkpt lat="43.02864" lon="6.08155">
        <ele>-2.75</ele>
        <time>2019-05-27T13:25:10Z</time>
      </trkpt>
      <trkpt lat="43.02882" lon="6.08118">
        <ele>-2.27</ele>
        <time>2019-05-27T13:25:24Z</time>
      </trkpt>
      <trkpt lat="43.02899" lon="6.08089">
        <ele>-1.79</ele>
        <time>2019-05-27T13:25:36Z</time>
      </trkpt>
      <trkpt lat="43.02919" lon="6.08055">
        <ele>-1.79</ele>
        <time>2019-05-27T13:25:50Z</time>
      </trkpt>
      <trkpt lat="43.0294" lon="6.08024">
        <ele>-1.79</ele>
        <time>2019-05-27T13:26:03Z</time>
      </trkpt>
      <trkpt lat="43.0296" lon="6.07992">
        <ele>-2.27</ele>
        <time>2019-05-27T13:26:16Z</time>
      </trkpt>
      <trkpt lat="43.02979" lon="6.07955">
        <ele>-0.82</ele>
        <time>2019-05-27T13:26:31Z</time>
      </trkpt>
      <trkpt lat="43.02996" lon="6.07928">
        <ele>-0.34</ele>
        <time>2019-05-27T13:26:43Z</time>
      </trkpt>
      <trkpt lat="43.03005" lon="6.07911">
        <ele>0.62</ele>
        <time>2019-05-27T13:26:50Z</time>
      </trkpt>
      <trkpt lat="43.03022" lon="6.07874">
        <ele>1.58</ele>
        <time>2019-05-27T13:27:05Z</time>
      </trkpt>
      <trkpt lat="43.03026" lon="6.07863">
        <ele>1.58</ele>
        <time>2019-05-27T13:27:09Z</time>
      </trkpt>
      <trkpt lat="43.0304" lon="6.07826">
        <ele>3.5</ele>
        <time>2019-05-27T13:27:24Z</time>
      </trkpt>
      <trkpt lat="43.03061" lon="6.07795">
        <ele>2.54</ele>
        <time>2019-05-27T13:27:39Z</time>
      </trkpt>
      <trkpt lat="43.03081" lon="6.07766">
        <ele>0.62</ele>
        <time>2019-05-27T13:27:54Z</time>
      </trkpt>
      <trkpt lat="43.03095" lon="6.07738">
        <ele>0.62</ele>
        <time>2019-05-27T13:28:06Z</time>
      </trkpt>
      <trkpt lat="43.03111" lon="6.07704">
        <ele>-0.34</ele>
        <time>2019-05-27T13:28:20Z</time>
      </trkpt>
      <trkpt lat="43.0313" lon="6.07665">
        <ele>-2.27</ele>
        <time>2019-05-27T13:28:35Z</time>
      </trkpt>
      <trkpt lat="43.03147" lon="6.0763">
        <ele>-2.27</ele>
        <time>2019-05-27T13:28:48Z</time>
      </trkpt>
      <trkpt lat="43.03164" lon="6.07594">
        <ele>-0.82</ele>
        <time>2019-05-27T13:29:02Z</time>
      </trkpt>
      <trkpt lat="43.03165" lon="6.07592">
        <ele>-0.82</ele>
        <time>2019-05-27T13:29:03Z</time>
      </trkpt>
      <trkpt lat="43.03171" lon="6.0758">
        <ele>-1.3</ele>
        <time>2019-05-27T13:29:08Z</time>
      </trkpt>
      <trkpt lat="43.03188" lon="6.07548">
        <ele>-1.3</ele>
        <time>2019-05-27T13:29:21Z</time>
      </trkpt>
      <trkpt lat="43.03206" lon="6.07514">
        <ele>-0.82</ele>
        <time>2019-05-27T13:29:34Z</time>
      </trkpt>
      <trkpt lat="43.03227" lon="6.07473">
        <ele>-0.34</ele>
        <time>2019-05-27T13:29:49Z</time>
      </trkpt>
      <trkpt lat="43.03244" lon="6.07436">
        <ele>-0.34</ele>
        <time>2019-05-27T13:30:02Z</time>
      </trkpt>
      <trkpt lat="43.03263" lon="6.07399">
        <ele>-0.34</ele>
        <time>2019-05-27T13:30:15Z</time>
      </trkpt>
      <trkpt lat="43.03283" lon="6.07362">
        <ele>-0.82</ele>
        <time>2019-05-27T13:30:29Z</time>
      </trkpt>
      <trkpt lat="43.03301" lon="6.07325">
        <ele>-0.34</ele>
        <time>2019-05-27T13:30:43Z</time>
      </trkpt>
      <trkpt lat="43.03319" lon="6.07288">
        <ele>0.14</ele>
        <time>2019-05-27T13:30:57Z</time>
      </trkpt>
      <trkpt lat="43.03335" lon="6.07257">
        <ele>-2.27</ele>
        <time>2019-05-27T13:31:10Z</time>
      </trkpt>
      <trkpt lat="43.03353" lon="6.07224">
        <ele>-2.75</ele>
        <time>2019-05-27T13:31:24Z</time>
      </trkpt>
      <trkpt lat="43.0337" lon="6.0719">
        <ele>-4.19</ele>
        <time>2019-05-27T13:31:37Z</time>
      </trkpt>
      <trkpt lat="43.03374" lon="6.07181">
        <ele>-4.67</ele>
        <time>2019-05-27T13:31:40Z</time>
      </trkpt>
      <trkpt lat="43.03388" lon="6.07157">
        <ele>-4.67</ele>
        <time>2019-05-27T13:31:51Z</time>
      </trkpt>
      <trkpt lat="43.03403" lon="6.07134">
        <ele>-5.15</ele>
        <time>2019-05-27T13:32:02Z</time>
      </trkpt>
      <trkpt lat="43.03419" lon="6.07107">
        <ele>-5.63</ele>
        <time>2019-05-27T13:32:14Z</time>
      </trkpt>
      <trkpt lat="43.03432" lon="6.07086">
        <ele>-6.11</ele>
        <time>2019-05-27T13:32:23Z</time>
      </trkpt>
      <trkpt lat="43.03439" lon="6.07072">
        <ele>-5.63</ele>
        <time>2019-05-27T13:32:29Z</time>
      </trkpt>
      <trkpt lat="43.03449" lon="6.07047">
        <ele>-5.63</ele>
        <time>2019-05-27T13:32:39Z</time>
      </trkpt>
      <trkpt lat="43.03459" lon="6.07029">
        <ele>-6.11</ele>
        <time>2019-05-27T13:32:47Z</time>
      </trkpt>
      <trkpt lat="43.03468" lon="6.07009">
        <ele>-4.67</ele>
        <time>2019-05-27T13:32:56Z</time>
      </trkpt>
      <trkpt lat="43.03471" lon="6.07004">
        <ele>-4.19</ele>
        <time>2019-05-27T13:32:58Z</time>
      </trkpt>
      <trkpt lat="43.03482" lon="6.06969">
        <ele>-4.19</ele>
        <time>2019-05-27T13:33:12Z</time>
      </trkpt>
      <trkpt lat="43.03496" lon="6.06935">
        <ele>-3.71</ele>
        <time>2019-05-27T13:33:25Z</time>
      </trkpt>
      <trkpt lat="43.03506" lon="6.06902">
        <ele>-2.75</ele>
        <time>2019-05-27T13:33:38Z</time>
      </trkpt>
      <trkpt lat="43.03521" lon="6.06867">
        <ele>-3.23</ele>
        <time>2019-05-27T13:33:51Z</time>
      </trkpt>
      <trkpt lat="43.03539" lon="6.06821">
        <ele>-2.75</ele>
        <time>2019-05-27T13:34:07Z</time>
      </trkpt>
      <trkpt lat="43.03558" lon="6.06782">
        <ele>-2.75</ele>
        <time>2019-05-27T13:34:21Z</time>
      </trkpt>
      <trkpt lat="43.03578" lon="6.06738">
        <ele>-2.75</ele>
        <time>2019-05-27T13:34:36Z</time>
      </trkpt>
      <trkpt lat="43.03593" lon="6.06702">
        <ele>-2.75</ele>
        <time>2019-05-27T13:34:49Z</time>
      </trkpt>
      <trkpt lat="43.03606" lon="6.06667">
        <ele>-2.27</ele>
        <time>2019-05-27T13:35:01Z</time>
      </trkpt>
      <trkpt lat="43.03617" lon="6.06642">
        <ele>-2.27</ele>
        <time>2019-05-27T13:35:09Z</time>
      </trkpt>
      <trkpt lat="43.03622" lon="6.06628">
        <ele>-1.79</ele>
        <time>2019-05-27T13:35:14Z</time>
      </trkpt>
      <trkpt lat="43.03643" lon="6.06593">
        <ele>-0.34</ele>
        <time>2019-05-27T13:35:29Z</time>
      </trkpt>
      <trkpt lat="43.03647" lon="6.06586">
        <ele>-0.34</ele>
        <time>2019-05-27T13:35:32Z</time>
      </trkpt>
      <trkpt lat="43.03664" lon="6.06564">
        <ele>-1.3</ele>
        <time>2019-05-27T13:35:43Z</time>
      </trkpt>
      <trkpt lat="43.03672" lon="6.06551">
        <ele>-1.3</ele>
        <time>2019-05-27T13:35:49Z</time>
      </trkpt>
      <trkpt lat="43.03692" lon="6.06531">
        <ele>-1.3</ele>
        <time>2019-05-27T13:36:02Z</time>
      </trkpt>
      <trkpt lat="43.03714" lon="6.06514">
        <ele>-0.34</ele>
        <time>2019-05-27T13:36:15Z</time>
      </trkpt>
      <trkpt lat="43.03739" lon="6.06493">
        <ele>-0.82</ele>
        <time>2019-05-27T13:36:30Z</time>
      </trkpt>
      <trkpt lat="43.03762" lon="6.06478">
        <ele>-2.27</ele>
        <time>2019-05-27T13:36:42Z</time>
      </trkpt>
      <trkpt lat="43.03784" lon="6.06459">
        <ele>-2.75</ele>
        <time>2019-05-27T13:36:53Z</time>
      </trkpt>
      <trkpt lat="43.03803" lon="6.06438">
        <ele>-1.79</ele>
        <time>2019-05-27T13:37:04Z</time>
      </trkpt>
      <trkpt lat="43.03828" lon="6.06416">
        <ele>-2.27</ele>
        <time>2019-05-27T13:37:17Z</time>
      </trkpt>
      <trkpt lat="43.03832" lon="6.06413">
        <ele>-2.27</ele>
        <time>2019-05-27T13:37:19Z</time>
      </trkpt>
      <trkpt lat="43.03845" lon="6.06404">
        <ele>-2.75</ele>
        <time>2019-05-27T13:37:26Z</time>
      </trkpt>
      <trkpt lat="43.03871" lon="6.06385">
        <ele>-3.71</ele>
        <time>2019-05-27T13:37:40Z</time>
      </trkpt>
      <trkpt lat="43.0389" lon="6.0637">
        <ele>-3.23</ele>
        <time>2019-05-27T13:37:50Z</time>
      </trkpt>
      <trkpt lat="43.03911" lon="6.06353">
        <ele>-2.75</ele>
        <time>2019-05-27T13:38:02Z</time>
      </trkpt>
      <trkpt lat="43.03937" lon="6.06333">
        <ele>-2.75</ele>
        <time>2019-05-27T13:38:17Z</time>
      </trkpt>
      <trkpt lat="43.0394" lon="6.0633">
        <ele>-2.75</ele>
        <time>2019-05-27T13:38:19Z</time>
      </trkpt>
      <trkpt lat="43.03944" lon="6.06326">
        <ele>-3.23</ele>
        <time>2019-05-27T13:38:22Z</time>
      </trkpt>
      <trkpt lat="43.03954" lon="6.06312">
        <ele>-2.75</ele>
        <time>2019-05-27T13:38:29Z</time>
      </trkpt>
      <trkpt lat="43.03976" lon="6.06292">
        <ele>-3.71</ele>
        <time>2019-05-27T13:38:42Z</time>
      </trkpt>
      <trkpt lat="43.03996" lon="6.06269">
        <ele>-3.71</ele>
        <time>2019-05-27T13:38:55Z</time>
      </trkpt>
      <trkpt lat="43.04019" lon="6.06245">
        <ele>-4.19</ele>
        <time>2019-05-27T13:39:08Z</time>
      </trkpt>
      <trkpt lat="43.04034" lon="6.0623">
        <ele>-4.67</ele>
        <time>2019-05-27T13:39:18Z</time>
      </trkpt>
      <trkpt lat="43.04043" lon="6.0622">
        <ele>-3.23</ele>
        <time>2019-05-27T13:39:24Z</time>
      </trkpt>
      <trkpt lat="43.04057" lon="6.06198">
        <ele>-2.27</ele>
        <time>2019-05-27T13:39:35Z</time>
      </trkpt>
      <trkpt lat="43.04065" lon="6.06185">
        <ele>-1.79</ele>
        <time>2019-05-27T13:39:41Z</time>
      </trkpt>
      <trkpt lat="43.04069" lon="6.06174">
        <ele>-0.82</ele>
        <time>2019-05-27T13:39:45Z</time>
      </trkpt>
      <trkpt lat="43.04076" lon="6.06156">
        <ele>-0.34</ele>
        <time>2019-05-27T13:39:53Z</time>
      </trkpt>
      <trkpt lat="43.04082" lon="6.0614">
        <ele>0.14</ele>
        <time>2019-05-27T13:39:59Z</time>
      </trkpt>
      <trkpt lat="43.04097" lon="6.06106">
        <ele>0.62</ele>
        <time>2019-05-27T13:40:11Z</time>
      </trkpt>
      <trkpt lat="43.04112" lon="6.06072">
        <ele>2.06</ele>
        <time>2019-05-27T13:40:24Z</time>
      </trkpt>
      <trkpt lat="43.04129" lon="6.06045">
        <ele>1.1</ele>
        <time>2019-05-27T13:40:36Z</time>
      </trkpt>
      <trkpt lat="43.04145" lon="6.06014">
        <ele>0.14</ele>
        <time>2019-05-27T13:40:49Z</time>
      </trkpt>
      <trkpt lat="43.04163" lon="6.05978">
        <ele>0.14</ele>
        <time>2019-05-27T13:41:03Z</time>
      </trkpt>
      <trkpt lat="43.04182" lon="6.05939">
        <ele>1.58</ele>
        <time>2019-05-27T13:41:19Z</time>
      </trkpt>
      <trkpt lat="43.04205" lon="6.05905">
        <ele>1.1</ele>
        <time>2019-05-27T13:41:36Z</time>
      </trkpt>
      <trkpt lat="43.0421" lon="6.05897">
        <ele>0.62</ele>
        <time>2019-05-27T13:41:40Z</time>
      </trkpt>
      <trkpt lat="43.04224" lon="6.05874">
        <ele>-0.82</ele>
        <time>2019-05-27T13:41:50Z</time>
      </trkpt>
      <trkpt lat="43.04231" lon="6.0586">
        <ele>-1.79</ele>
        <time>2019-05-27T13:41:56Z</time>
      </trkpt>
      <trkpt lat="43.04238" lon="6.05844">
        <ele>-1.79</ele>
        <time>2019-05-27T13:42:03Z</time>
      </trkpt>
      <trkpt lat="43.04245" lon="6.05828">
        <ele>-1.79</ele>
        <time>2019-05-27T13:42:10Z</time>
      </trkpt>
      <trkpt lat="43.04249" lon="6.05818">
        <ele>-2.75</ele>
        <time>2019-05-27T13:42:14Z</time>
      </trkpt>
      <trkpt lat="43.04252" lon="6.05814">
        <ele>-2.75</ele>
        <time>2019-05-27T13:42:16Z</time>
      </trkpt>
      <trkpt lat="43.04268" lon="6.0578">
        <ele>-3.23</ele>
        <time>2019-05-27T13:42:31Z</time>
      </trkpt>
      <trkpt lat="43.04279" lon="6.05757">
        <ele>-5.15</ele>
        <time>2019-05-27T13:42:42Z</time>
      </trkpt>
      <trkpt lat="43.04287" lon="6.0574">
        <ele>-5.15</ele>
        <time>2019-05-27T13:42:49Z</time>
      </trkpt>
      <trkpt lat="43.04299" lon="6.0571">
        <ele>-5.15</ele>
        <time>2019-05-27T13:43:01Z</time>
      </trkpt>
      <trkpt lat="43.04307" lon="6.05697">
        <ele>-6.11</ele>
        <time>2019-05-27T13:43:07Z</time>
      </trkpt>
      <trkpt lat="43.04319" lon="6.05682">
        <ele>-5.63</ele>
        <time>2019-05-27T13:43:15Z</time>
      </trkpt>
      <trkpt lat="43.04327" lon="6.05675">
        <ele>-6.11</ele>
        <time>2019-05-27T13:43:20Z</time>
      </trkpt>
      <trkpt lat="43.04338" lon="6.05667">
        <ele>-7.07</ele>
        <time>2019-05-27T13:43:27Z</time>
      </trkpt>
      <trkpt lat="43.04344" lon="6.0566">
        <ele>-5.63</ele>
        <time>2019-05-27T13:43:32Z</time>
      </trkpt>
      <trkpt lat="43.04369" lon="6.05645">
        <ele>-3.71</ele>
        <time>2019-05-27T13:43:45Z</time>
      </trkpt>
      <trkpt lat="43.04397" lon="6.0563">
        <ele>-4.19</ele>
        <time>2019-05-27T13:43:58Z</time>
      </trkpt>
      <trkpt lat="43.04427" lon="6.05612">
        <ele>-3.23</ele>
        <time>2019-05-27T13:44:13Z</time>
      </trkpt>
      <trkpt lat="43.04431" lon="6.05609">
        <ele>-2.75</ele>
        <time>2019-05-27T13:44:15Z</time>
      </trkpt>
      <trkpt lat="43.04445" lon="6.056">
        <ele>-2.27</ele>
        <time>2019-05-27T13:44:21Z</time>
      </trkpt>
      <trkpt lat="43.04472" lon="6.05582">
        <ele>-3.71</ele>
        <time>2019-05-27T13:44:34Z</time>
      </trkpt>
      <trkpt lat="43.04501" lon="6.05566">
        <ele>-2.75</ele>
        <time>2019-05-27T13:44:48Z</time>
      </trkpt>
      <trkpt lat="43.04528" lon="6.05546">
        <ele>-2.75</ele>
        <time>2019-05-27T13:45:02Z</time>
      </trkpt>
      <trkpt lat="43.04556" lon="6.05533">
        <ele>-3.71</ele>
        <time>2019-05-27T13:45:16Z</time>
      </trkpt>
      <trkpt lat="43.04581" lon="6.05523">
        <ele>-4.19</ele>
        <time>2019-05-27T13:45:28Z</time>
      </trkpt>
      <trkpt lat="43.04609" lon="6.05513">
        <ele>-5.15</ele>
        <time>2019-05-27T13:45:42Z</time>
      </trkpt>
      <trkpt lat="43.04639" lon="6.05503">
        <ele>-4.67</ele>
        <time>2019-05-27T13:45:57Z</time>
      </trkpt>
      <trkpt lat="43.04667" lon="6.05492">
        <ele>-3.23</ele>
        <time>2019-05-27T13:46:11Z</time>
      </trkpt>
      <trkpt lat="43.04691" lon="6.05482">
        <ele>-2.75</ele>
        <time>2019-05-27T13:46:23Z</time>
      </trkpt>
      <trkpt lat="43.04714" lon="6.0547">
        <ele>-3.23</ele>
        <time>2019-05-27T13:46:35Z</time>
      </trkpt>
      <trkpt lat="43.04724" lon="6.05465">
        <ele>-3.23</ele>
        <time>2019-05-27T13:46:40Z</time>
      </trkpt>
      <trkpt lat="43.04739" lon="6.05459">
        <ele>-2.27</ele>
        <time>2019-05-27T13:46:48Z</time>
      </trkpt>
      <trkpt lat="43.04763" lon="6.05448">
        <ele>-4.19</ele>
        <time>2019-05-27T13:47:00Z</time>
      </trkpt>
      <trkpt lat="43.04771" lon="6.05445">
        <ele>-3.71</ele>
        <time>2019-05-27T13:47:04Z</time>
      </trkpt>
      <trkpt lat="43.04777" lon="6.05443">
        <ele>-3.71</ele>
        <time>2019-05-27T13:47:07Z</time>
      </trkpt>
      <trkpt lat="43.04813" lon="6.05436">
        <ele>-1.3</ele>
        <time>2019-05-27T13:47:24Z</time>
      </trkpt>
      <trkpt lat="43.0483" lon="6.05432">
        <ele>-0.82</ele>
        <time>2019-05-27T13:47:34Z</time>
      </trkpt>
      <trkpt lat="43.04838" lon="6.05431">
        <ele>-1.79</ele>
        <time>2019-05-27T13:47:38Z</time>
      </trkpt>
      <trkpt lat="43.04868" lon="6.05428">
        <ele>-1.3</ele>
        <time>2019-05-27T13:47:53Z</time>
      </trkpt>
      <trkpt lat="43.04902" lon="6.05424">
        <ele>-0.34</ele>
        <time>2019-05-27T13:48:09Z</time>
      </trkpt>
      <trkpt lat="43.04933" lon="6.05415">
        <ele>0.14</ele>
        <time>2019-05-27T13:48:26Z</time>
      </trkpt>
      <trkpt lat="43.04961" lon="6.05415">
        <ele>0.62</ele>
        <time>2019-05-27T13:48:40Z</time>
      </trkpt>
      <trkpt lat="43.0499" lon="6.05418">
        <ele>-0.82</ele>
        <time>2019-05-27T13:48:54Z</time>
      </trkpt>
      <trkpt lat="43.05017" lon="6.0542">
        <ele>-0.82</ele>
        <time>2019-05-27T13:49:06Z</time>
      </trkpt>
      <trkpt lat="43.05026" lon="6.05415">
        <ele>-1.3</ele>
        <time>2019-05-27T13:49:11Z</time>
      </trkpt>
      <trkpt lat="43.0505" lon="6.0539">
        <ele>-2.27</ele>
        <time>2019-05-27T13:49:27Z</time>
      </trkpt>
      <trkpt lat="43.05067" lon="6.05359">
        <ele>-3.71</ele>
        <time>2019-05-27T13:49:40Z</time>
      </trkpt>
      <trkpt lat="43.05083" lon="6.05329">
        <ele>-3.71</ele>
        <time>2019-05-27T13:49:53Z</time>
      </trkpt>
      <trkpt lat="43.05099" lon="6.05293">
        <ele>-3.71</ele>
        <time>2019-05-27T13:50:07Z</time>
      </trkpt>
      <trkpt lat="43.05118" lon="6.05246">
        <ele>-3.71</ele>
        <time>2019-05-27T13:50:25Z</time>
      </trkpt>
      <trkpt lat="43.05139" lon="6.05205">
        <ele>-3.71</ele>
        <time>2019-05-27T13:50:41Z</time>
      </trkpt>
      <trkpt lat="43.05154" lon="6.05176">
        <ele>-2.75</ele>
        <time>2019-05-27T13:50:52Z</time>
      </trkpt>
      <trkpt lat="43.05172" lon="6.05134">
        <ele>-1.3</ele>
        <time>2019-05-27T13:51:07Z</time>
      </trkpt>
      <trkpt lat="43.05189" lon="6.05096">
        <ele>-0.34</ele>
        <time>2019-05-27T13:51:21Z</time>
      </trkpt>
      <trkpt lat="43.05205" lon="6.05058">
        <ele>-0.34</ele>
        <time>2019-05-27T13:51:35Z</time>
      </trkpt>
      <trkpt lat="43.0522" lon="6.05019">
        <ele>-0.34</ele>
        <time>2019-05-27T13:51:49Z</time>
      </trkpt>
      <trkpt lat="43.05235" lon="6.04987">
        <ele>0.14</ele>
        <time>2019-05-27T13:52:01Z</time>
      </trkpt>
      <trkpt lat="43.05252" lon="6.04947">
        <ele>-0.82</ele>
        <time>2019-05-27T13:52:15Z</time>
      </trkpt>
      <trkpt lat="43.05265" lon="6.04913">
        <ele>-0.34</ele>
        <time>2019-05-27T13:52:27Z</time>
      </trkpt>
      <trkpt lat="43.05278" lon="6.04872">
        <ele>0.62</ele>
        <time>2019-05-27T13:52:40Z</time>
      </trkpt>
      <trkpt lat="43.05295" lon="6.04827">
        <ele>-0.34</ele>
        <time>2019-05-27T13:52:54Z</time>
      </trkpt>
      <trkpt lat="43.05308" lon="6.04792">
        <ele>-1.79</ele>
        <time>2019-05-27T13:53:04Z</time>
      </trkpt>
      <trkpt lat="43.05321" lon="6.04758">
        <ele>-2.75</ele>
        <time>2019-05-27T13:53:14Z</time>
      </trkpt>
      <trkpt lat="43.05331" lon="6.04735">
        <ele>-3.71</ele>
        <time>2019-05-27T13:53:21Z</time>
      </trkpt>
      <trkpt lat="43.05347" lon="6.04701">
        <ele>-1.79</ele>
        <time>2019-05-27T13:53:33Z</time>
      </trkpt>
      <trkpt lat="43.05353" lon="6.04688">
        <ele>-1.3</ele>
        <time>2019-05-27T13:53:37Z</time>
      </trkpt>
      <trkpt lat="43.05372" lon="6.04645">
        <ele>-0.34</ele>
        <time>2019-05-27T13:53:51Z</time>
      </trkpt>
      <trkpt lat="43.05389" lon="6.04611">
        <ele>0.14</ele>
        <time>2019-05-27T13:54:03Z</time>
      </trkpt>
      <trkpt lat="43.05407" lon="6.04571">
        <ele>2.06</ele>
        <time>2019-05-27T13:54:17Z</time>
      </trkpt>
      <trkpt lat="43.0541" lon="6.04563">
        <ele>2.06</ele>
        <time>2019-05-27T13:54:20Z</time>
      </trkpt>
      <trkpt lat="43.05417" lon="6.04549">
        <ele>2.06</ele>
        <time>2019-05-27T13:54:25Z</time>
      </trkpt>
      <trkpt lat="43.05426" lon="6.0453">
        <ele>2.54</ele>
        <time>2019-05-27T13:54:32Z</time>
      </trkpt>
      <trkpt lat="43.05439" lon="6.04499">
        <ele>2.54</ele>
        <time>2019-05-27T13:54:43Z</time>
      </trkpt>
      <trkpt lat="43.05454" lon="6.0447">
        <ele>1.1</ele>
        <time>2019-05-27T13:54:54Z</time>
      </trkpt>
      <trkpt lat="43.05468" lon="6.04445">
        <ele>0.62</ele>
        <time>2019-05-27T13:55:04Z</time>
      </trkpt>
      <trkpt lat="43.05469" lon="6.04443">
        <ele>1.1</ele>
        <time>2019-05-27T13:55:05Z</time>
      </trkpt>
      <trkpt lat="43.0548" lon="6.04423">
        <ele>2.06</ele>
        <time>2019-05-27T13:55:13Z</time>
      </trkpt>
      <trkpt lat="43.0549" lon="6.04407">
        <ele>3.02</ele>
        <time>2019-05-27T13:55:20Z</time>
      </trkpt>
      <trkpt lat="43.05493" lon="6.04402">
        <ele>3.5</ele>
        <time>2019-05-27T13:55:22Z</time>
      </trkpt>
      <trkpt lat="43.05504" lon="6.04378">
        <ele>4.94</ele>
        <time>2019-05-27T13:55:31Z</time>
      </trkpt>
      <trkpt lat="43.0551" lon="6.04366">
        <ele>4.94</ele>
        <time>2019-05-27T13:55:35Z</time>
      </trkpt>
      <trkpt lat="43.05515" lon="6.04356">
        <ele>3.98</ele>
        <time>2019-05-27T13:55:39Z</time>
      </trkpt>
      <trkpt lat="43.0553" lon="6.04327">
        <ele>2.06</ele>
        <time>2019-05-27T13:55:50Z</time>
      </trkpt>
      <trkpt lat="43.05532" lon="6.04325">
        <ele>2.06</ele>
        <time>2019-05-27T13:55:51Z</time>
      </trkpt>
      <trkpt lat="43.05537" lon="6.04315">
        <ele>2.06</ele>
        <time>2019-05-27T13:55:55Z</time>
      </trkpt>
      <trkpt lat="43.05555" lon="6.04278">
        <ele>1.1</ele>
        <time>2019-05-27T13:56:09Z</time>
      </trkpt>
      <trkpt lat="43.05571" lon="6.04247">
        <ele>-1.3</ele>
        <time>2019-05-27T13:56:21Z</time>
      </trkpt>
      <trkpt lat="43.05579" lon="6.04229">
        <ele>0.14</ele>
        <time>2019-05-27T13:56:28Z</time>
      </trkpt>
      <trkpt lat="43.05584" lon="6.04215">
        <ele>0.14</ele>
        <time>2019-05-27T13:56:33Z</time>
      </trkpt>
      <trkpt lat="43.05597" lon="6.04182">
        <ele>0.14</ele>
        <time>2019-05-27T13:56:45Z</time>
      </trkpt>
      <trkpt lat="43.05615" lon="6.04144">
        <ele>-1.79</ele>
        <time>2019-05-27T13:56:59Z</time>
      </trkpt>
      <trkpt lat="43.05618" lon="6.04136">
        <ele>-0.82</ele>
        <time>2019-05-27T13:57:02Z</time>
      </trkpt>
      <trkpt lat="43.05625" lon="6.04119">
        <ele>-1.79</ele>
        <time>2019-05-27T13:57:08Z</time>
      </trkpt>
      <trkpt lat="43.05638" lon="6.04087">
        <ele>-3.23</ele>
        <time>2019-05-27T13:57:20Z</time>
      </trkpt>
      <trkpt lat="43.05654" lon="6.04054">
        <ele>-2.75</ele>
        <time>2019-05-27T13:57:33Z</time>
      </trkpt>
      <trkpt lat="43.05663" lon="6.04037">
        <ele>-1.3</ele>
        <time>2019-05-27T13:57:40Z</time>
      </trkpt>
      <trkpt lat="43.05668" lon="6.04026">
        <ele>-0.82</ele>
        <time>2019-05-27T13:57:45Z</time>
      </trkpt>
      <trkpt lat="43.05677" lon="6.04007">
        <ele>-0.34</ele>
        <time>2019-05-27T13:57:53Z</time>
      </trkpt>
      <trkpt lat="43.05683" lon="6.03994">
        <ele>0.62</ele>
        <time>2019-05-27T13:57:59Z</time>
      </trkpt>
      <trkpt lat="43.05694" lon="6.03968">
        <ele>2.06</ele>
        <time>2019-05-27T13:58:09Z</time>
      </trkpt>
      <trkpt lat="43.05705" lon="6.03947">
        <ele>0.62</ele>
        <time>2019-05-27T13:58:18Z</time>
      </trkpt>
      <trkpt lat="43.05728" lon="6.03904">
        <ele>-2.27</ele>
        <time>2019-05-27T13:58:36Z</time>
      </trkpt>
      <trkpt lat="43.0574" lon="6.03877">
        <ele>-4.19</ele>
        <time>2019-05-27T13:58:47Z</time>
      </trkpt>
      <trkpt lat="43.05752" lon="6.0385">
        <ele>-2.75</ele>
        <time>2019-05-27T13:58:58Z</time>
      </trkpt>
      <trkpt lat="43.05757" lon="6.03837">
        <ele>-1.79</ele>
        <time>2019-05-27T13:59:03Z</time>
      </trkpt>
      <trkpt lat="43.05761" lon="6.03826">
        <ele>-2.75</ele>
        <time>2019-05-27T13:59:07Z</time>
      </trkpt>
      <trkpt lat="43.05775" lon="6.03799">
        <ele>-2.75</ele>
        <time>2019-05-27T13:59:18Z</time>
      </trkpt>
      <trkpt lat="43.05779" lon="6.03789">
        <ele>-3.23</ele>
        <time>2019-05-27T13:59:22Z</time>
      </trkpt>
      <trkpt lat="43.05789" lon="6.03763">
        <ele>-2.27</ele>
        <time>2019-05-27T13:59:32Z</time>
      </trkpt>
      <trkpt lat="43.058" lon="6.03739">
        <ele>-3.71</ele>
        <time>2019-05-27T13:59:43Z</time>
      </trkpt>
      <trkpt lat="43.05806" lon="6.0372">
        <ele>-4.19</ele>
        <time>2019-05-27T13:59:50Z</time>
      </trkpt>
      <trkpt lat="43.05818" lon="6.03683">
        <ele>-3.23</ele>
        <time>2019-05-27T14:00:03Z</time>
      </trkpt>
      <trkpt lat="43.05832" lon="6.03645">
        <ele>-4.19</ele>
        <time>2019-05-27T14:00:17Z</time>
      </trkpt>
      <trkpt lat="43.05841" lon="6.03618">
        <ele>-3.23</ele>
        <time>2019-05-27T14:00:29Z</time>
      </trkpt>
      <trkpt lat="43.05852" lon="6.03581">
        <ele>-1.79</ele>
        <time>2019-05-27T14:00:43Z</time>
      </trkpt>
      <trkpt lat="43.05865" lon="6.03543">
        <ele>-2.27</ele>
        <time>2019-05-27T14:00:57Z</time>
      </trkpt>
      <trkpt lat="43.05867" lon="6.03538">
        <ele>-2.75</ele>
        <time>2019-05-27T14:00:59Z</time>
      </trkpt>
      <trkpt lat="43.05871" lon="6.03528">
        <ele>-2.75</ele>
        <time>2019-05-27T14:01:03Z</time>
      </trkpt>
      <trkpt lat="43.05889" lon="6.0349">
        <ele>-2.27</ele>
        <time>2019-05-27T14:01:19Z</time>
      </trkpt>
      <trkpt lat="43.05901" lon="6.03468">
        <ele>-1.3</ele>
        <time>2019-05-27T14:01:30Z</time>
      </trkpt>
      <trkpt lat="43.0591" lon="6.03449">
        <ele>-1.79</ele>
        <time>2019-05-27T14:01:39Z</time>
      </trkpt>
      <trkpt lat="43.05927" lon="6.03416">
        <ele>-1.79</ele>
        <time>2019-05-27T14:01:54Z</time>
      </trkpt>
      <trkpt lat="43.05942" lon="6.03385">
        <ele>-1.3</ele>
        <time>2019-05-27T14:02:08Z</time>
      </trkpt>
      <trkpt lat="43.0596" lon="6.03351">
        <ele>-0.34</ele>
        <time>2019-05-27T14:02:24Z</time>
      </trkpt>
      <trkpt lat="43.0598" lon="6.03312">
        <ele>-0.82</ele>
        <time>2019-05-27T14:02:42Z</time>
      </trkpt>
      <trkpt lat="43.05999" lon="6.03266">
        <ele>-2.75</ele>
        <time>2019-05-27T14:03:01Z</time>
      </trkpt>
      <trkpt lat="43.0601" lon="6.03232">
        <ele>-2.75</ele>
        <time>2019-05-27T14:03:14Z</time>
      </trkpt>
      <trkpt lat="43.06026" lon="6.03188">
        <ele>-3.23</ele>
        <time>2019-05-27T14:03:31Z</time>
      </trkpt>
      <trkpt lat="43.06044" lon="6.0315">
        <ele>-3.71</ele>
        <time>2019-05-27T14:03:47Z</time>
      </trkpt>
      <trkpt lat="43.06057" lon="6.03121">
        <ele>-4.19</ele>
        <time>2019-05-27T14:04:00Z</time>
      </trkpt>
      <trkpt lat="43.06073" lon="6.03077">
        <ele>-2.75</ele>
        <time>2019-05-27T14:04:18Z</time>
      </trkpt>
      <trkpt lat="43.06092" lon="6.03044">
        <ele>-2.27</ele>
        <time>2019-05-27T14:04:35Z</time>
      </trkpt>
      <trkpt lat="43.06115" lon="6.03023">
        <ele>-3.23</ele>
        <time>2019-05-27T14:04:51Z</time>
      </trkpt>
      <trkpt lat="43.06145" lon="6.02999">
        <ele>-3.23</ele>
        <time>2019-05-27T14:05:08Z</time>
      </trkpt>
      <trkpt lat="43.06179" lon="6.02974">
        <ele>-2.75</ele>
        <time>2019-05-27T14:05:27Z</time>
      </trkpt>
      <trkpt lat="43.06211" lon="6.0295">
        <ele>-2.75</ele>
        <time>2019-05-27T14:05:44Z</time>
      </trkpt>
      <trkpt lat="43.06239" lon="6.02931">
        <ele>-2.27</ele>
        <time>2019-05-27T14:06:00Z</time>
      </trkpt>
      <trkpt lat="43.06269" lon="6.02911">
        <ele>-0.82</ele>
        <time>2019-05-27T14:06:18Z</time>
      </trkpt>
      <trkpt lat="43.06293" lon="6.02895">
        <ele>-0.34</ele>
        <time>2019-05-27T14:06:33Z</time>
      </trkpt>
      <trkpt lat="43.06317" lon="6.02878">
        <ele>0.14</ele>
        <time>2019-05-27T14:06:48Z</time>
      </trkpt>
      <trkpt lat="43.06347" lon="6.02853">
        <ele>0.62</ele>
        <time>2019-05-27T14:07:07Z</time>
      </trkpt>
      <trkpt lat="43.06379" lon="6.02827">
        <ele>1.1</ele>
        <time>2019-05-27T14:07:27Z</time>
      </trkpt>
      <trkpt lat="43.06406" lon="6.02805">
        <ele>0.62</ele>
        <time>2019-05-27T14:07:44Z</time>
      </trkpt>
      <trkpt lat="43.06428" lon="6.02783">
        <ele>0.14</ele>
        <time>2019-05-27T14:07:59Z</time>
      </trkpt>
      <trkpt lat="43.06454" lon="6.02759">
        <ele>-0.34</ele>
        <time>2019-05-27T14:08:16Z</time>
      </trkpt>
      <trkpt lat="43.06475" lon="6.02737">
        <ele>0.14</ele>
        <time>2019-05-27T14:08:30Z</time>
      </trkpt>
      <trkpt lat="43.065" lon="6.02714">
        <ele>0.14</ele>
        <time>2019-05-27T14:08:46Z</time>
      </trkpt>
      <trkpt lat="43.0653" lon="6.02686">
        <ele>0.14</ele>
        <time>2019-05-27T14:09:05Z</time>
      </trkpt>
      <trkpt lat="43.06553" lon="6.02669">
        <ele>-0.34</ele>
        <time>2019-05-27T14:09:19Z</time>
      </trkpt>
      <trkpt lat="43.06573" lon="6.02651">
        <ele>0.62</ele>
        <time>2019-05-27T14:09:32Z</time>
      </trkpt>
      <trkpt lat="43.06598" lon="6.02628">
        <ele>-0.34</ele>
        <time>2019-05-27T14:09:48Z</time>
      </trkpt>
      <trkpt lat="43.06622" lon="6.0261">
        <ele>-0.82</ele>
        <time>2019-05-27T14:10:03Z</time>
      </trkpt>
      <trkpt lat="43.06646" lon="6.02587">
        <ele>-0.82</ele>
        <time>2019-05-27T14:10:19Z</time>
      </trkpt>
      <trkpt lat="43.0665" lon="6.02582">
        <ele>-1.3</ele>
        <time>2019-05-27T14:10:22Z</time>
      </trkpt>
      <trkpt lat="43.0666" lon="6.0257">
        <ele>-0.82</ele>
        <time>2019-05-27T14:10:29Z</time>
      </trkpt>
      <trkpt lat="43.06689" lon="6.02542">
        <ele>-0.82</ele>
        <time>2019-05-27T14:10:49Z</time>
      </trkpt>
      <trkpt lat="43.06691" lon="6.02541">
        <ele>-0.82</ele>
        <time>2019-05-27T14:10:50Z</time>
      </trkpt>
      <trkpt lat="43.0671" lon="6.02512">
        <ele>-2.27</ele>
        <time>2019-05-27T14:11:06Z</time>
      </trkpt>
      <trkpt lat="43.06728" lon="6.0249">
        <ele>-3.23</ele>
        <time>2019-05-27T14:11:20Z</time>
      </trkpt>
      <trkpt lat="43.06744" lon="6.02475">
        <ele>-3.23</ele>
        <time>2019-05-27T14:11:32Z</time>
      </trkpt>
      <trkpt lat="43.06761" lon="6.0246">
        <ele>-3.23</ele>
        <time>2019-05-27T14:11:43Z</time>
      </trkpt>
      <trkpt lat="43.06762" lon="6.02458">
        <ele>-3.23</ele>
        <time>2019-05-27T14:11:44Z</time>
      </trkpt>
      <trkpt lat="43.06775" lon="6.02445">
        <ele>-4.67</ele>
        <time>2019-05-27T14:11:53Z</time>
      </trkpt>
      <trkpt lat="43.0678" lon="6.02438">
        <ele>-5.15</ele>
        <time>2019-05-27T14:11:57Z</time>
      </trkpt>
      <trkpt lat="43.06786" lon="6.02432">
        <ele>-5.15</ele>
        <time>2019-05-27T14:12:01Z</time>
      </trkpt>
      <trkpt lat="43.06809" lon="6.0241">
        <ele>-4.19</ele>
        <time>2019-05-27T14:12:15Z</time>
      </trkpt>
      <trkpt lat="43.06826" lon="6.02392">
        <ele>-4.19</ele>
        <time>2019-05-27T14:12:26Z</time>
      </trkpt>
      <trkpt lat="43.06845" lon="6.02367">
        <ele>-3.71</ele>
        <time>2019-05-27T14:12:39Z</time>
      </trkpt>
      <trkpt lat="43.06872" lon="6.0234">
        <ele>-2.27</ele>
        <time>2019-05-27T14:12:57Z</time>
      </trkpt>
      <trkpt lat="43.06895" lon="6.02319">
        <ele>-2.27</ele>
        <time>2019-05-27T14:13:12Z</time>
      </trkpt>
      <trkpt lat="43.06924" lon="6.02292">
        <ele>-1.79</ele>
        <time>2019-05-27T14:13:30Z</time>
      </trkpt>
      <trkpt lat="43.06947" lon="6.02273">
        <ele>-2.27</ele>
        <time>2019-05-27T14:13:44Z</time>
      </trkpt>
      <trkpt lat="43.06971" lon="6.02253">
        <ele>-2.75</ele>
        <time>2019-05-27T14:13:58Z</time>
      </trkpt>
      <trkpt lat="43.06995" lon="6.02234">
        <ele>-4.19</ele>
        <time>2019-05-27T14:14:12Z</time>
      </trkpt>
      <trkpt lat="43.06999" lon="6.02232">
        <ele>-4.19</ele>
        <time>2019-05-27T14:14:14Z</time>
      </trkpt>
      <trkpt lat="43.07022" lon="6.02214">
        <ele>-2.75</ele>
        <time>2019-05-27T14:14:28Z</time>
      </trkpt>
      <trkpt lat="43.07041" lon="6.02195">
        <ele>-2.75</ele>
        <time>2019-05-27T14:14:41Z</time>
      </trkpt>
      <trkpt lat="43.07063" lon="6.02176">
        <ele>-2.27</ele>
        <time>2019-05-27T14:14:55Z</time>
      </trkpt>
      <trkpt lat="43.07085" lon="6.02156">
        <ele>-2.75</ele>
        <time>2019-05-27T14:15:09Z</time>
      </trkpt>
      <trkpt lat="43.07109" lon="6.02139">
        <ele>-4.19</ele>
        <time>2019-05-27T14:15:23Z</time>
      </trkpt>
      <trkpt lat="43.07131" lon="6.02121">
        <ele>-3.71</ele>
        <time>2019-05-27T14:15:36Z</time>
      </trkpt>
      <trkpt lat="43.07159" lon="6.02104">
        <ele>-3.23</ele>
        <time>2019-05-27T14:15:51Z</time>
      </trkpt>
      <trkpt lat="43.07182" lon="6.02084">
        <ele>-2.75</ele>
        <time>2019-05-27T14:16:04Z</time>
      </trkpt>
      <trkpt lat="43.07207" lon="6.02065">
        <ele>-2.27</ele>
        <time>2019-05-27T14:16:18Z</time>
      </trkpt>
      <trkpt lat="43.07242" lon="6.02041">
        <ele>-2.27</ele>
        <time>2019-05-27T14:16:37Z</time>
      </trkpt>
      <trkpt lat="43.0727" lon="6.02019">
        <ele>-1.79</ele>
        <time>2019-05-27T14:16:52Z</time>
      </trkpt>
      <trkpt lat="43.07306" lon="6.01988">
        <ele>-1.3</ele>
        <time>2019-05-27T14:17:12Z</time>
      </trkpt>
      <trkpt lat="43.07326" lon="6.01971">
        <ele>-1.79</ele>
        <time>2019-05-27T14:17:24Z</time>
      </trkpt>
      <trkpt lat="43.07355" lon="6.0195">
        <ele>-2.27</ele>
        <time>2019-05-27T14:17:40Z</time>
      </trkpt>
      <trkpt lat="43.07383" lon="6.01927">
        <ele>-1.79</ele>
        <time>2019-05-27T14:17:57Z</time>
      </trkpt>
      <trkpt lat="43.07416" lon="6.01905">
        <ele>-1.79</ele>
        <time>2019-05-27T14:18:15Z</time>
      </trkpt>
      <trkpt lat="43.0745" lon="6.01879">
        <ele>-1.3</ele>
        <time>2019-05-27T14:18:34Z</time>
      </trkpt>
      <trkpt lat="43.07483" lon="6.0186">
        <ele>-1.3</ele>
        <time>2019-05-27T14:18:52Z</time>
      </trkpt>
      <trkpt lat="43.07516" lon="6.01838">
        <ele>-1.3</ele>
        <time>2019-05-27T14:19:10Z</time>
      </trkpt>
      <trkpt lat="43.07544" lon="6.01819">
        <ele>-1.79</ele>
        <time>2019-05-27T14:19:25Z</time>
      </trkpt>
      <trkpt lat="43.0758" lon="6.01802">
        <ele>-0.82</ele>
        <time>2019-05-27T14:19:43Z</time>
      </trkpt>
      <trkpt lat="43.0761" lon="6.01784">
        <ele>-0.82</ele>
        <time>2019-05-27T14:19:58Z</time>
      </trkpt>
      <trkpt lat="43.07633" lon="6.01749">
        <ele>-0.34</ele>
        <time>2019-05-27T14:20:15Z</time>
      </trkpt>
      <trkpt lat="43.07646" lon="6.01719">
        <ele>0.14</ele>
        <time>2019-05-27T14:20:27Z</time>
      </trkpt>
      <trkpt lat="43.07667" lon="6.01675">
        <ele>0.14</ele>
        <time>2019-05-27T14:20:44Z</time>
      </trkpt>
      <trkpt lat="43.07688" lon="6.01609">
        <ele>-0.34</ele>
        <time>2019-05-27T14:21:06Z</time>
      </trkpt>
      <trkpt lat="43.07712" lon="6.01537">
        <ele>-1.3</ele>
        <time>2019-05-27T14:21:30Z</time>
      </trkpt>
      <trkpt lat="43.07724" lon="6.0149">
        <ele>-1.3</ele>
        <time>2019-05-27T14:21:44Z</time>
      </trkpt>
      <trkpt lat="43.07742" lon="6.01442">
        <ele>-2.27</ele>
        <time>2019-05-27T14:22:00Z</time>
      </trkpt>
      <trkpt lat="43.07767" lon="6.01386">
        <ele>-1.79</ele>
        <time>2019-05-27T14:22:19Z</time>
      </trkpt>
      <trkpt lat="43.07785" lon="6.01336">
        <ele>-3.71</ele>
        <time>2019-05-27T14:22:36Z</time>
      </trkpt>
      <trkpt lat="43.07804" lon="6.01284">
        <ele>-1.79</ele>
        <time>2019-05-27T14:22:54Z</time>
      </trkpt>
      <trkpt lat="43.07818" lon="6.01245">
        <ele>-2.75</ele>
        <time>2019-05-27T14:23:08Z</time>
      </trkpt>
      <trkpt lat="43.07833" lon="6.01203">
        <ele>-2.75</ele>
        <time>2019-05-27T14:23:23Z</time>
      </trkpt>
      <trkpt lat="43.07847" lon="6.0116">
        <ele>-2.75</ele>
        <time>2019-05-27T14:23:38Z</time>
      </trkpt>
      <trkpt lat="43.07865" lon="6.01114">
        <ele>-2.75</ele>
        <time>2019-05-27T14:23:55Z</time>
      </trkpt>
      <trkpt lat="43.0788" lon="6.01072">
        <ele>-3.23</ele>
        <time>2019-05-27T14:24:09Z</time>
      </trkpt>
      <trkpt lat="43.07894" lon="6.01032">
        <ele>-2.75</ele>
        <time>2019-05-27T14:24:22Z</time>
      </trkpt>
      <trkpt lat="43.0791" lon="6.00993">
        <ele>-1.79</ele>
        <time>2019-05-27T14:24:35Z</time>
      </trkpt>
      <trkpt lat="43.07924" lon="6.00947">
        <ele>-2.75</ele>
        <time>2019-05-27T14:24:50Z</time>
      </trkpt>
      <trkpt lat="43.07939" lon="6.00908">
        <ele>-1.79</ele>
        <time>2019-05-27T14:25:04Z</time>
      </trkpt>
      <trkpt lat="43.07954" lon="6.00866">
        <ele>-2.27</ele>
        <time>2019-05-27T14:25:19Z</time>
      </trkpt>
      <trkpt lat="43.07969" lon="6.00825">
        <ele>-2.75</ele>
        <time>2019-05-27T14:25:33Z</time>
      </trkpt>
      <trkpt lat="43.07982" lon="6.0078">
        <ele>-0.82</ele>
        <time>2019-05-27T14:25:47Z</time>
      </trkpt>
      <trkpt lat="43.07997" lon="6.00739">
        <ele>-1.79</ele>
        <time>2019-05-27T14:26:01Z</time>
      </trkpt>
      <trkpt lat="43.08012" lon="6.00694">
        <ele>-1.79</ele>
        <time>2019-05-27T14:26:16Z</time>
      </trkpt>
      <trkpt lat="43.08027" lon="6.00653">
        <ele>-2.27</ele>
        <time>2019-05-27T14:26:31Z</time>
      </trkpt>
      <trkpt lat="43.0804" lon="6.00609">
        <ele>-2.27</ele>
        <time>2019-05-27T14:26:46Z</time>
      </trkpt>
      <trkpt lat="43.08058" lon="6.00563">
        <ele>-1.79</ele>
        <time>2019-05-27T14:27:03Z</time>
      </trkpt>
      <trkpt lat="43.0807" lon="6.00531">
        <ele>-2.27</ele>
        <time>2019-05-27T14:27:15Z</time>
      </trkpt>
      <trkpt lat="43.0808" lon="6.00492">
        <ele>-3.23</ele>
        <time>2019-05-27T14:27:28Z</time>
      </trkpt>
      <trkpt lat="43.08097" lon="6.00443">
        <ele>-1.3</ele>
        <time>2019-05-27T14:27:45Z</time>
      </trkpt>
      <trkpt lat="43.08117" lon="6.00391">
        <ele>-2.27</ele>
        <time>2019-05-27T14:28:03Z</time>
      </trkpt>
      <trkpt lat="43.08133" lon="6.0034">
        <ele>-2.75</ele>
        <time>2019-05-27T14:28:20Z</time>
      </trkpt>
      <trkpt lat="43.08148" lon="6.00303">
        <ele>2.54</ele>
        <time>2019-05-27T14:28:34Z</time>
      </trkpt>
      <trkpt lat="43.08166" lon="6.00266">
        <ele>4.94</ele>
        <time>2019-05-27T14:28:50Z</time>
      </trkpt>
      <trkpt lat="43.082" lon="6.00235">
        <ele>3.98</ele>
        <time>2019-05-27T14:29:12Z</time>
      </trkpt>
      <trkpt lat="43.08222" lon="6.00213">
        <ele>-0.82</ele>
        <time>2019-05-27T14:29:25Z</time>
      </trkpt>
      <trkpt lat="43.0825" lon="6.00182">
        <ele>-1.79</ele>
        <time>2019-05-27T14:29:42Z</time>
      </trkpt>
      <trkpt lat="43.08275" lon="6.00154">
        <ele>-1.79</ele>
        <time>2019-05-27T14:29:57Z</time>
      </trkpt>
      <trkpt lat="43.08292" lon="6.0014">
        <ele>-1.79</ele>
        <time>2019-05-27T14:30:07Z</time>
      </trkpt>
      <trkpt lat="43.08312" lon="6.00123">
        <ele>-2.27</ele>
        <time>2019-05-27T14:30:18Z</time>
      </trkpt>
      <trkpt lat="43.08334" lon="6.00102">
        <ele>-1.79</ele>
        <time>2019-05-27T14:30:30Z</time>
      </trkpt>
      <trkpt lat="43.08358" lon="6.00077">
        <ele>-0.82</ele>
        <time>2019-05-27T14:30:43Z</time>
      </trkpt>
      <trkpt lat="43.08385" lon="6.00055">
        <ele>-1.3</ele>
        <time>2019-05-27T14:30:56Z</time>
      </trkpt>
      <trkpt lat="43.08416" lon="6.00031">
        <ele>-1.79</ele>
        <time>2019-05-27T14:31:11Z</time>
      </trkpt>
      <trkpt lat="43.08442" lon="6.00011">
        <ele>-2.27</ele>
        <time>2019-05-27T14:31:24Z</time>
      </trkpt>
      <trkpt lat="43.08449" lon="6.00003">
        <ele>-2.75</ele>
        <time>2019-05-27T14:31:28Z</time>
      </trkpt>
      <trkpt lat="43.08482" lon="5.9997">
        <ele>-2.75</ele>
        <time>2019-05-27T14:31:46Z</time>
      </trkpt>
      <trkpt lat="43.08512" lon="5.99931">
        <ele>-1.79</ele>
        <time>2019-05-27T14:32:03Z</time>
      </trkpt>
      <trkpt lat="43.08544" lon="5.99901">
        <ele>-1.79</ele>
        <time>2019-05-27T14:32:19Z</time>
      </trkpt>
      <trkpt lat="43.08576" lon="5.99865">
        <ele>-0.82</ele>
        <time>2019-05-27T14:32:37Z</time>
      </trkpt>
      <trkpt lat="43.08607" lon="5.99828">
        <ele>-1.3</ele>
        <time>2019-05-27T14:32:55Z</time>
      </trkpt>
      <trkpt lat="43.08638" lon="5.99796">
        <ele>-0.82</ele>
        <time>2019-05-27T14:33:11Z</time>
      </trkpt>
      <trkpt lat="43.08673" lon="5.99755">
        <ele>-0.34</ele>
        <time>2019-05-27T14:33:31Z</time>
      </trkpt>
      <trkpt lat="43.08701" lon="5.99724">
        <ele>-0.34</ele>
        <time>2019-05-27T14:33:47Z</time>
      </trkpt>
      <trkpt lat="43.08724" lon="5.99695">
        <ele>-1.3</ele>
        <time>2019-05-27T14:34:01Z</time>
      </trkpt>
      <trkpt lat="43.08753" lon="5.99657">
        <ele>-0.82</ele>
        <time>2019-05-27T14:34:19Z</time>
      </trkpt>
      <trkpt lat="43.08777" lon="5.99629">
        <ele>-0.34</ele>
        <time>2019-05-27T14:34:33Z</time>
      </trkpt>
      <trkpt lat="43.08803" lon="5.996">
        <ele>-1.3</ele>
        <time>2019-05-27T14:34:48Z</time>
      </trkpt>
      <trkpt lat="43.08828" lon="5.99568">
        <ele>-1.79</ele>
        <time>2019-05-27T14:35:03Z</time>
      </trkpt>
      <trkpt lat="43.08852" lon="5.9954">
        <ele>-1.79</ele>
        <time>2019-05-27T14:35:18Z</time>
      </trkpt>
      <trkpt lat="43.08873" lon="5.99511">
        <ele>-0.82</ele>
        <time>2019-05-27T14:35:32Z</time>
      </trkpt>
      <trkpt lat="43.08886" lon="5.99488">
        <ele>0.14</ele>
        <time>2019-05-27T14:35:42Z</time>
      </trkpt>
      <trkpt lat="43.08892" lon="5.99476">
        <ele>0.14</ele>
        <time>2019-05-27T14:35:47Z</time>
      </trkpt>
      <trkpt lat="43.08906" lon="5.99438">
        <ele>-0.82</ele>
        <time>2019-05-27T14:36:02Z</time>
      </trkpt>
      <trkpt lat="43.0892" lon="5.99402">
        <ele>-0.34</ele>
        <time>2019-05-27T14:36:16Z</time>
      </trkpt>
      <trkpt lat="43.08934" lon="5.99365">
        <ele>-0.34</ele>
        <time>2019-05-27T14:36:31Z</time>
      </trkpt>
      <trkpt lat="43.08948" lon="5.99316">
        <ele>-0.34</ele>
        <time>2019-05-27T14:36:50Z</time>
      </trkpt>
      <trkpt lat="43.0896" lon="5.99283">
        <ele>0.62</ele>
        <time>2019-05-27T14:37:04Z</time>
      </trkpt>
      <trkpt lat="43.08973" lon="5.99245">
        <ele>0.14</ele>
        <time>2019-05-27T14:37:19Z</time>
      </trkpt>
      <trkpt lat="43.08985" lon="5.99206">
        <ele>-0.34</ele>
        <time>2019-05-27T14:37:34Z</time>
      </trkpt>
      <trkpt lat="43.08998" lon="5.9917">
        <ele>0.62</ele>
        <time>2019-05-27T14:37:49Z</time>
      </trkpt>
      <trkpt lat="43.0901" lon="5.99129">
        <ele>0.14</ele>
        <time>2019-05-27T14:38:04Z</time>
      </trkpt>
      <trkpt lat="43.0902" lon="5.99081">
        <ele>0.14</ele>
        <time>2019-05-27T14:38:21Z</time>
      </trkpt>
      <trkpt lat="43.09027" lon="5.99048">
        <ele>0.62</ele>
        <time>2019-05-27T14:38:33Z</time>
      </trkpt>
      <trkpt lat="43.09042" lon="5.99005">
        <ele>1.58</ele>
        <time>2019-05-27T14:38:48Z</time>
      </trkpt>
      <trkpt lat="43.09057" lon="5.98956">
        <ele>2.06</ele>
        <time>2019-05-27T14:39:05Z</time>
      </trkpt>
      <trkpt lat="43.09067" lon="5.98916">
        <ele>1.1</ele>
        <time>2019-05-27T14:39:19Z</time>
      </trkpt>
      <trkpt lat="43.09079" lon="5.98873">
        <ele>0.62</ele>
        <time>2019-05-27T14:39:34Z</time>
      </trkpt>
      <trkpt lat="43.09095" lon="5.9883">
        <ele>0.62</ele>
        <time>2019-05-27T14:39:51Z</time>
      </trkpt>
      <trkpt lat="43.09112" lon="5.98782">
        <ele>0.62</ele>
        <time>2019-05-27T14:40:11Z</time>
      </trkpt>
      <trkpt lat="43.09125" lon="5.98722">
        <ele>0.14</ele>
        <time>2019-05-27T14:40:33Z</time>
      </trkpt>
      <trkpt lat="43.09138" lon="5.98667">
        <ele>0.14</ele>
        <time>2019-05-27T14:40:53Z</time>
      </trkpt>
      <trkpt lat="43.09148" lon="5.98627">
        <ele>0.14</ele>
        <time>2019-05-27T14:41:08Z</time>
      </trkpt>
      <trkpt lat="43.09165" lon="5.98581">
        <ele>-0.34</ele>
        <time>2019-05-27T14:41:27Z</time>
      </trkpt>
      <trkpt lat="43.09178" lon="5.98535">
        <ele>-0.34</ele>
        <time>2019-05-27T14:41:45Z</time>
      </trkpt>
      <trkpt lat="43.09193" lon="5.98488">
        <ele>1.1</ele>
        <time>2019-05-27T14:42:04Z</time>
      </trkpt>
      <trkpt lat="43.09205" lon="5.98446">
        <ele>0.14</ele>
        <time>2019-05-27T14:42:21Z</time>
      </trkpt>
      <trkpt lat="43.09217" lon="5.9841">
        <ele>1.1</ele>
        <time>2019-05-27T14:42:36Z</time>
      </trkpt>
      <trkpt lat="43.09229" lon="5.98363">
        <ele>2.06</ele>
        <time>2019-05-27T14:42:56Z</time>
      </trkpt>
      <trkpt lat="43.09242" lon="5.98327">
        <ele>1.1</ele>
        <time>2019-05-27T14:43:13Z</time>
      </trkpt>
      <trkpt lat="43.09253" lon="5.98291">
        <ele>0.14</ele>
        <time>2019-05-27T14:43:30Z</time>
      </trkpt>
      <trkpt lat="43.09265" lon="5.98254">
        <ele>-0.34</ele>
        <time>2019-05-27T14:43:48Z</time>
      </trkpt>
      <trkpt lat="43.09275" lon="5.98221">
        <ele>-0.82</ele>
        <time>2019-05-27T14:44:03Z</time>
      </trkpt>
      <trkpt lat="43.09286" lon="5.98171">
        <ele>-0.34</ele>
        <time>2019-05-27T14:44:22Z</time>
      </trkpt>
      <trkpt lat="43.09295" lon="5.98136">
        <ele>-1.3</ele>
        <time>2019-05-27T14:44:36Z</time>
      </trkpt>
      <trkpt lat="43.09303" lon="5.98097">
        <ele>-0.34</ele>
        <time>2019-05-27T14:44:52Z</time>
      </trkpt>
      <trkpt lat="43.09312" lon="5.98059">
        <ele>-0.82</ele>
        <time>2019-05-27T14:45:07Z</time>
      </trkpt>
      <trkpt lat="43.09324" lon="5.98024">
        <ele>0.14</ele>
        <time>2019-05-27T14:45:23Z</time>
      </trkpt>
      <trkpt lat="43.09335" lon="5.97989">
        <ele>0.14</ele>
        <time>2019-05-27T14:45:40Z</time>
      </trkpt>
      <trkpt lat="43.09345" lon="5.97958">
        <ele>0.62</ele>
        <time>2019-05-27T14:45:55Z</time>
      </trkpt>
      <trkpt lat="43.09352" lon="5.97926">
        <ele>0.62</ele>
        <time>2019-05-27T14:46:09Z</time>
      </trkpt>
      <trkpt lat="43.09359" lon="5.97893">
        <ele>-0.34</ele>
        <time>2019-05-27T14:46:22Z</time>
      </trkpt>
      <trkpt lat="43.09368" lon="5.9786">
        <ele>-0.34</ele>
        <time>2019-05-27T14:46:36Z</time>
      </trkpt>
      <trkpt lat="43.09377" lon="5.97832">
        <ele>-1.3</ele>
        <time>2019-05-27T14:46:48Z</time>
      </trkpt>
      <trkpt lat="43.09381" lon="5.97821">
        <ele>-1.79</ele>
        <time>2019-05-27T14:46:53Z</time>
      </trkpt>
      <trkpt lat="43.09392" lon="5.9779">
        <ele>-0.82</ele>
        <time>2019-05-27T14:47:07Z</time>
      </trkpt>
      <trkpt lat="43.09402" lon="5.97758">
        <ele>-0.82</ele>
        <time>2019-05-27T14:47:21Z</time>
      </trkpt>
      <trkpt lat="43.09408" lon="5.97729">
        <ele>-1.3</ele>
        <time>2019-05-27T14:47:33Z</time>
      </trkpt>
      <trkpt lat="43.09416" lon="5.97696">
        <ele>-1.3</ele>
        <time>2019-05-27T14:47:47Z</time>
      </trkpt>
      <trkpt lat="43.0942" lon="5.97683">
        <ele>-1.3</ele>
        <time>2019-05-27T14:47:53Z</time>
      </trkpt>
      <trkpt lat="43.09424" lon="5.97673">
        <ele>-0.82</ele>
        <time>2019-05-27T14:47:58Z</time>
      </trkpt>
      <trkpt lat="43.09432" lon="5.97632">
        <ele>0.14</ele>
        <time>2019-05-27T14:48:15Z</time>
      </trkpt>
      <trkpt lat="43.09442" lon="5.97604">
        <ele>0.14</ele>
        <time>2019-05-27T14:48:27Z</time>
      </trkpt>
      <trkpt lat="43.09448" lon="5.97573">
        <ele>-0.82</ele>
        <time>2019-05-27T14:48:40Z</time>
      </trkpt>
      <trkpt lat="43.09455" lon="5.97546">
        <ele>-1.79</ele>
        <time>2019-05-27T14:48:52Z</time>
      </trkpt>
      <trkpt lat="43.09462" lon="5.97507">
        <ele>-1.3</ele>
        <time>2019-05-27T14:49:08Z</time>
      </trkpt>
      <trkpt lat="43.0947" lon="5.97472">
        <ele>-0.82</ele>
        <time>2019-05-27T14:49:22Z</time>
      </trkpt>
      <trkpt lat="43.09476" lon="5.97434">
        <ele>-0.82</ele>
        <time>2019-05-27T14:49:37Z</time>
      </trkpt>
      <trkpt lat="43.09483" lon="5.97404">
        <ele>-0.82</ele>
        <time>2019-05-27T14:49:49Z</time>
      </trkpt>
      <trkpt lat="43.09492" lon="5.97363">
        <ele>-0.34</ele>
        <time>2019-05-27T14:50:05Z</time>
      </trkpt>
      <trkpt lat="43.09504" lon="5.9732">
        <ele>0.14</ele>
        <time>2019-05-27T14:50:23Z</time>
      </trkpt>
      <trkpt lat="43.09514" lon="5.97294">
        <ele>0.62</ele>
        <time>2019-05-27T14:50:36Z</time>
      </trkpt>
      <trkpt lat="43.09524" lon="5.97258">
        <ele>0.62</ele>
        <time>2019-05-27T14:50:53Z</time>
      </trkpt>
      <trkpt lat="43.09534" lon="5.97224">
        <ele>0.62</ele>
        <time>2019-05-27T14:51:09Z</time>
      </trkpt>
      <trkpt lat="43.09542" lon="5.97191">
        <ele>1.1</ele>
        <time>2019-05-27T14:51:24Z</time>
      </trkpt>
      <trkpt lat="43.09545" lon="5.97175">
        <ele>1.58</ele>
        <time>2019-05-27T14:51:31Z</time>
      </trkpt>
      <trkpt lat="43.09552" lon="5.97146">
        <ele>0.62</ele>
        <time>2019-05-27T14:51:44Z</time>
      </trkpt>
      <trkpt lat="43.0956" lon="5.97106">
        <ele>0.14</ele>
        <time>2019-05-27T14:52:02Z</time>
      </trkpt>
      <trkpt lat="43.09568" lon="5.97075">
        <ele>0.14</ele>
        <time>2019-05-27T14:52:16Z</time>
      </trkpt>
      <trkpt lat="43.09574" lon="5.97048">
        <ele>0.62</ele>
        <time>2019-05-27T14:52:28Z</time>
      </trkpt>
      <trkpt lat="43.09577" lon="5.97034">
        <ele>0.62</ele>
        <time>2019-05-27T14:52:34Z</time>
      </trkpt>
      <trkpt lat="43.09582" lon="5.97012">
        <ele>1.1</ele>
        <time>2019-05-27T14:52:45Z</time>
      </trkpt>
      <trkpt lat="43.09583" lon="5.9701">
        <ele>1.1</ele>
        <time>2019-05-27T14:52:46Z</time>
      </trkpt>
      <trkpt lat="43.0959" lon="5.9699">
        <ele>0.62</ele>
        <time>2019-05-27T14:52:56Z</time>
      </trkpt>
      <trkpt lat="43.09601" lon="5.96961">
        <ele>0.14</ele>
        <time>2019-05-27T14:53:11Z</time>
      </trkpt>
      <trkpt lat="43.09604" lon="5.96955">
        <ele>0.14</ele>
        <time>2019-05-27T14:53:14Z</time>
      </trkpt>
      <trkpt lat="43.09607" lon="5.96947">
        <ele>0.62</ele>
        <time>2019-05-27T14:53:18Z</time>
      </trkpt>
      <trkpt lat="43.09616" lon="5.96922">
        <ele>1.1</ele>
        <time>2019-05-27T14:53:30Z</time>
      </trkpt>
      <trkpt lat="43.09627" lon="5.96882">
        <ele>0.62</ele>
        <time>2019-05-27T14:53:47Z</time>
      </trkpt>
      <trkpt lat="43.09635" lon="5.96851">
        <ele>-0.82</ele>
        <time>2019-05-27T14:54:00Z</time>
      </trkpt>
      <trkpt lat="43.09647" lon="5.96808">
        <ele>-0.82</ele>
        <time>2019-05-27T14:54:19Z</time>
      </trkpt>
      <trkpt lat="43.09658" lon="5.96765">
        <ele>-0.82</ele>
        <time>2019-05-27T14:54:39Z</time>
      </trkpt>
      <trkpt lat="43.09668" lon="5.96737">
        <ele>-0.82</ele>
        <time>2019-05-27T14:54:54Z</time>
      </trkpt>
      <trkpt lat="43.09677" lon="5.9671">
        <ele>-0.34</ele>
        <time>2019-05-27T14:55:08Z</time>
      </trkpt>
      <trkpt lat="43.09681" lon="5.96694">
        <ele>-1.79</ele>
        <time>2019-05-27T14:55:17Z</time>
      </trkpt>
      <trkpt lat="43.09683" lon="5.96687">
        <ele>-2.27</ele>
        <time>2019-05-27T14:55:21Z</time>
      </trkpt>
      <trkpt lat="43.09687" lon="5.96671">
        <ele>-2.75</ele>
        <time>2019-05-27T14:55:29Z</time>
      </trkpt>
      <trkpt lat="43.09697" lon="5.96634">
        <ele>-2.27</ele>
        <time>2019-05-27T14:55:46Z</time>
      </trkpt>
      <trkpt lat="43.09706" lon="5.96602">
        <ele>-1.3</ele>
        <time>2019-05-27T14:56:00Z</time>
      </trkpt>
      <trkpt lat="43.09719" lon="5.96562">
        <ele>-1.79</ele>
        <time>2019-05-27T14:56:18Z</time>
      </trkpt>
      <trkpt lat="43.09726" lon="5.96522">
        <ele>-2.27</ele>
        <time>2019-05-27T14:56:34Z</time>
      </trkpt>
      <trkpt lat="43.09729" lon="5.96483">
        <ele>-2.27</ele>
        <time>2019-05-27T14:56:48Z</time>
      </trkpt>
      <trkpt lat="43.09737" lon="5.96441">
        <ele>-2.75</ele>
        <time>2019-05-27T14:57:03Z</time>
      </trkpt>
      <trkpt lat="43.09748" lon="5.96406">
        <ele>-2.75</ele>
        <time>2019-05-27T14:57:18Z</time>
      </trkpt>
      <trkpt lat="43.09763" lon="5.9637">
        <ele>-1.79</ele>
        <time>2019-05-27T14:57:35Z</time>
      </trkpt>
      <trkpt lat="43.09766" lon="5.96359">
        <ele>-1.3</ele>
        <time>2019-05-27T14:57:40Z</time>
      </trkpt>
      <trkpt lat="43.09777" lon="5.96325">
        <ele>-0.34</ele>
        <time>2019-05-27T14:57:56Z</time>
      </trkpt>
      <trkpt lat="43.09786" lon="5.96279">
        <ele>0.14</ele>
        <time>2019-05-27T14:58:17Z</time>
      </trkpt>
      <trkpt lat="43.09797" lon="5.96243">
        <ele>-2.27</ele>
        <time>2019-05-27T14:58:35Z</time>
      </trkpt>
      <trkpt lat="43.09805" lon="5.96214">
        <ele>-4.67</ele>
        <time>2019-05-27T14:58:50Z</time>
      </trkpt>
      <trkpt lat="43.09813" lon="5.96182">
        <ele>-5.63</ele>
        <time>2019-05-27T14:59:05Z</time>
      </trkpt>
      <trkpt lat="43.09825" lon="5.96138">
        <ele>-3.71</ele>
        <time>2019-05-27T14:59:25Z</time>
      </trkpt>
      <trkpt lat="43.09834" lon="5.96093">
        <ele>-4.67</ele>
        <time>2019-05-27T14:59:43Z</time>
      </trkpt>
      <trkpt lat="43.09844" lon="5.96044">
        <ele>-3.71</ele>
        <time>2019-05-27T15:00:02Z</time>
      </trkpt>
      <trkpt lat="43.09851" lon="5.96008">
        <ele>-4.19</ele>
        <time>2019-05-27T15:00:15Z</time>
      </trkpt>
      <trkpt lat="43.09861" lon="5.95962">
        <ele>-3.71</ele>
        <time>2019-05-27T15:00:32Z</time>
      </trkpt>
      <trkpt lat="43.09867" lon="5.95932">
        <ele>-3.23</ele>
        <time>2019-05-27T15:00:43Z</time>
      </trkpt>
      <trkpt lat="43.09872" lon="5.95896">
        <ele>-4.19</ele>
        <time>2019-05-27T15:00:56Z</time>
      </trkpt>
      <trkpt lat="43.09878" lon="5.95864">
        <ele>-3.23</ele>
        <time>2019-05-27T15:01:08Z</time>
      </trkpt>
      <trkpt lat="43.09888" lon="5.9582">
        <ele>-3.71</ele>
        <time>2019-05-27T15:01:25Z</time>
      </trkpt>
      <trkpt lat="43.09897" lon="5.9579">
        <ele>-3.71</ele>
        <time>2019-05-27T15:01:38Z</time>
      </trkpt>
      <trkpt lat="43.0991" lon="5.95751">
        <ele>-3.23</ele>
        <time>2019-05-27T15:01:55Z</time>
      </trkpt>
      <trkpt lat="43.09921" lon="5.95717">
        <ele>-1.79</ele>
        <time>2019-05-27T15:02:10Z</time>
      </trkpt>
      <trkpt lat="43.09929" lon="5.95686">
        <ele>-1.3</ele>
        <time>2019-05-27T15:02:23Z</time>
      </trkpt>
      <trkpt lat="43.0994" lon="5.95652">
        <ele>-0.34</ele>
        <time>2019-05-27T15:02:39Z</time>
      </trkpt>
      <trkpt lat="43.09956" lon="5.95619">
        <ele>-0.34</ele>
        <time>2019-05-27T15:02:57Z</time>
      </trkpt>
      <trkpt lat="43.09972" lon="5.95594">
        <ele>1.1</ele>
        <time>2019-05-27T15:03:13Z</time>
      </trkpt>
      <trkpt lat="43.09985" lon="5.95565">
        <ele>2.54</ele>
        <time>2019-05-27T15:03:28Z</time>
      </trkpt>
      <trkpt lat="43.09999" lon="5.95532">
        <ele>2.06</ele>
        <time>2019-05-27T15:03:46Z</time>
      </trkpt>
      <trkpt lat="43.10013" lon="5.95499">
        <ele>0.14</ele>
        <time>2019-05-27T15:04:04Z</time>
      </trkpt>
      <trkpt lat="43.10022" lon="5.95469">
        <ele>-1.3</ele>
        <time>2019-05-27T15:04:19Z</time>
      </trkpt>
      <trkpt lat="43.10031" lon="5.95436">
        <ele>-3.71</ele>
        <time>2019-05-27T15:04:36Z</time>
      </trkpt>
      <trkpt lat="43.10037" lon="5.95413">
        <ele>-5.15</ele>
        <time>2019-05-27T15:04:49Z</time>
      </trkpt>
      <trkpt lat="43.10044" lon="5.95384">
        <ele>-6.59</ele>
        <time>2019-05-27T15:05:03Z</time>
      </trkpt>
      <trkpt lat="43.1005" lon="5.95353">
        <ele>-7.55</ele>
        <time>2019-05-27T15:05:17Z</time>
      </trkpt>
      <trkpt lat="43.10056" lon="5.95327">
        <ele>-8.03</ele>
        <time>2019-05-27T15:05:29Z</time>
      </trkpt>
      <trkpt lat="43.10058" lon="5.95317">
        <ele>-8.51</ele>
        <time>2019-05-27T15:05:34Z</time>
      </trkpt>
      <trkpt lat="43.10067" lon="5.95287">
        <ele>-9</ele>
        <time>2019-05-27T15:05:49Z</time>
      </trkpt>
      <trkpt lat="43.10072" lon="5.95272">
        <ele>-9.96</ele>
        <time>2019-05-27T15:05:56Z</time>
      </trkpt>
      <trkpt lat="43.10082" lon="5.95243">
        <ele>-9.96</ele>
        <time>2019-05-27T15:06:10Z</time>
      </trkpt>
      <trkpt lat="43.10083" lon="5.95239">
        <ele>-9.96</ele>
        <time>2019-05-27T15:06:12Z</time>
      </trkpt>
      <trkpt lat="43.10086" lon="5.9523">
        <ele>-9.48</ele>
        <time>2019-05-27T15:06:16Z</time>
      </trkpt>
      <trkpt lat="43.10091" lon="5.95216">
        <ele>-9.48</ele>
        <time>2019-05-27T15:06:23Z</time>
      </trkpt>
      <trkpt lat="43.10096" lon="5.952">
        <ele>-9</ele>
        <time>2019-05-27T15:06:31Z</time>
      </trkpt>
      <trkpt lat="43.10098" lon="5.9519">
        <ele>-9.48</ele>
        <time>2019-05-27T15:06:36Z</time>
      </trkpt>
      <trkpt lat="43.10104" lon="5.95163">
        <ele>-10.92</ele>
        <time>2019-05-27T15:06:48Z</time>
      </trkpt>
      <trkpt lat="43.10112" lon="5.95136">
        <ele>-9.96</ele>
        <time>2019-05-27T15:07:01Z</time>
      </trkpt>
      <trkpt lat="43.10114" lon="5.95127">
        <ele>-9.48</ele>
        <time>2019-05-27T15:07:05Z</time>
      </trkpt>
      <trkpt lat="43.10124" lon="5.95102">
        <ele>-7.07</ele>
        <time>2019-05-27T15:07:18Z</time>
      </trkpt>
      <trkpt lat="43.10127" lon="5.95085">
        <ele>-7.55</ele>
        <time>2019-05-27T15:07:26Z</time>
      </trkpt>
      <trkpt lat="43.10136" lon="5.95065">
        <ele>-6.59</ele>
        <time>2019-05-27T15:07:37Z</time>
      </trkpt>
      <trkpt lat="43.10143" lon="5.95044">
        <ele>-6.11</ele>
        <time>2019-05-27T15:07:48Z</time>
      </trkpt>
      <trkpt lat="43.10146" lon="5.95034">
        <ele>-5.63</ele>
        <time>2019-05-27T15:07:53Z</time>
      </trkpt>
      <trkpt lat="43.10147" lon="5.95029">
        <ele>-5.63</ele>
        <time>2019-05-27T15:07:55Z</time>
      </trkpt>
      <trkpt lat="43.10152" lon="5.95007">
        <ele>-6.59</ele>
        <time>2019-05-27T15:08:05Z</time>
      </trkpt>
      <trkpt lat="43.10154" lon="5.95">
        <ele>-7.07</ele>
        <time>2019-05-27T15:08:08Z</time>
      </trkpt>
      <trkpt lat="43.10163" lon="5.94972">
        <ele>-6.59</ele>
        <time>2019-05-27T15:08:21Z</time>
      </trkpt>
      <trkpt lat="43.10173" lon="5.94943">
        <ele>-6.11</ele>
        <time>2019-05-27T15:08:35Z</time>
      </trkpt>
      <trkpt lat="43.10179" lon="5.94916">
        <ele>-7.55</ele>
        <time>2019-05-27T15:08:48Z</time>
      </trkpt>
      <trkpt lat="43.10186" lon="5.94891">
        <ele>-7.55</ele>
        <time>2019-05-27T15:09:00Z</time>
      </trkpt>
      <trkpt lat="43.10197" lon="5.94857">
        <ele>-7.07</ele>
        <time>2019-05-27T15:09:17Z</time>
      </trkpt>
      <trkpt lat="43.10206" lon="5.94828">
        <ele>-6.11</ele>
        <time>2019-05-27T15:09:32Z</time>
      </trkpt>
      <trkpt lat="43.10221" lon="5.94785">
        <ele>-4.19</ele>
        <time>2019-05-27T15:09:53Z</time>
      </trkpt>
      <trkpt lat="43.10224" lon="5.94774">
        <ele>-4.67</ele>
        <time>2019-05-27T15:09:58Z</time>
      </trkpt>
      <trkpt lat="43.10227" lon="5.94763">
        <ele>-4.19</ele>
        <time>2019-05-27T15:10:03Z</time>
      </trkpt>
      <trkpt lat="43.10232" lon="5.94747">
        <ele>-3.71</ele>
        <time>2019-05-27T15:10:11Z</time>
      </trkpt>
      <trkpt lat="43.10235" lon="5.94739">
        <ele>-3.71</ele>
        <time>2019-05-27T15:10:15Z</time>
      </trkpt>
      <trkpt lat="43.10243" lon="5.94711">
        <ele>-3.71</ele>
        <time>2019-05-27T15:10:29Z</time>
      </trkpt>
      <trkpt lat="43.1025" lon="5.94683">
        <ele>-4.19</ele>
        <time>2019-05-27T15:10:43Z</time>
      </trkpt>
      <trkpt lat="43.10257" lon="5.94659">
        <ele>-5.15</ele>
        <time>2019-05-27T15:10:56Z</time>
      </trkpt>
      <trkpt lat="43.1026" lon="5.94647">
        <ele>-5.15</ele>
        <time>2019-05-27T15:11:02Z</time>
      </trkpt>
      <trkpt lat="43.10261" lon="5.94642">
        <ele>-5.15</ele>
        <time>2019-05-27T15:11:05Z</time>
      </trkpt>
      <trkpt lat="43.10269" lon="5.94623">
        <ele>-5.15</ele>
        <time>2019-05-27T15:11:17Z</time>
      </trkpt>
      <trkpt lat="43.1027" lon="5.94621">
        <ele>-5.15</ele>
        <time>2019-05-27T15:11:18Z</time>
      </trkpt>
      <trkpt lat="43.1028" lon="5.94593">
        <ele>-4.67</ele>
        <time>2019-05-27T15:11:35Z</time>
      </trkpt>
      <trkpt lat="43.10288" lon="5.94563">
        <ele>-4.67</ele>
        <time>2019-05-27T15:11:52Z</time>
      </trkpt>
      <trkpt lat="43.10291" lon="5.94556">
        <ele>-4.19</ele>
        <time>2019-05-27T15:11:56Z</time>
      </trkpt>
      <trkpt lat="43.10307" lon="5.94515">
        <ele>-4.19</ele>
        <time>2019-05-27T15:12:19Z</time>
      </trkpt>
      <trkpt lat="43.10318" lon="5.94477">
        <ele>-4.19</ele>
        <time>2019-05-27T15:12:38Z</time>
      </trkpt>
      <trkpt lat="43.10324" lon="5.94447">
        <ele>-3.71</ele>
        <time>2019-05-27T15:12:51Z</time>
      </trkpt>
      <trkpt lat="43.10331" lon="5.94402">
        <ele>-3.23</ele>
        <time>2019-05-27T15:13:09Z</time>
      </trkpt>
      <trkpt lat="43.10333" lon="5.94378">
        <ele>-3.23</ele>
        <time>2019-05-27T15:13:19Z</time>
      </trkpt>
      <trkpt lat="43.10333" lon="5.94369">
        <ele>-3.23</ele>
        <time>2019-05-27T15:13:23Z</time>
      </trkpt>
      <trkpt lat="43.10333" lon="5.94353">
        <ele>-2.27</ele>
        <time>2019-05-27T15:13:29Z</time>
      </trkpt>
      <trkpt lat="43.10332" lon="5.94333">
        <ele>-1.79</ele>
        <time>2019-05-27T15:13:38Z</time>
      </trkpt>
      <trkpt lat="43.10326" lon="5.94312">
        <ele>-2.75</ele>
        <time>2019-05-27T15:13:47Z</time>
      </trkpt>
      <trkpt lat="43.10319" lon="5.94279">
        <ele>-3.23</ele>
        <time>2019-05-27T15:14:02Z</time>
      </trkpt>
      <trkpt lat="43.10321" lon="5.94252">
        <ele>-3.71</ele>
        <time>2019-05-27T15:14:15Z</time>
      </trkpt>
      <trkpt lat="43.10325" lon="5.94219">
        <ele>-3.71</ele>
        <time>2019-05-27T15:14:29Z</time>
      </trkpt>
      <trkpt lat="43.10315" lon="5.9419">
        <ele>-3.71</ele>
        <time>2019-05-27T15:14:41Z</time>
      </trkpt>
      <trkpt lat="43.10299" lon="5.94173">
        <ele>-3.23</ele>
        <time>2019-05-27T15:14:52Z</time>
      </trkpt>
      <trkpt lat="43.10277" lon="5.94166">
        <ele>-3.23</ele>
        <time>2019-05-27T15:15:06Z</time>
      </trkpt>
      <trkpt lat="43.10254" lon="5.9417">
        <ele>-4.19</ele>
        <time>2019-05-27T15:15:22Z</time>
      </trkpt>
      <trkpt lat="43.10238" lon="5.94185">
        <ele>-5.15</ele>
        <time>2019-05-27T15:15:35Z</time>
      </trkpt>
      <trkpt lat="43.10208" lon="5.94206">
        <ele>-5.15</ele>
        <time>2019-05-27T15:15:52Z</time>
      </trkpt>
      <trkpt lat="43.10186" lon="5.94213">
        <ele>-5.63</ele>
        <time>2019-05-27T15:16:05Z</time>
      </trkpt>
      <trkpt lat="43.10169" lon="5.94221">
        <ele>-6.11</ele>
        <time>2019-05-27T15:16:20Z</time>
      </trkpt>
      <trkpt lat="43.10158" lon="5.9423">
        <ele>-5.63</ele>
        <time>2019-05-27T15:16:36Z</time>
      </trkpt>
      <trkpt lat="43.10148" lon="5.94238">
        <ele>-5.15</ele>
        <time>2019-05-27T15:16:52Z</time>
      </trkpt>
      <trkpt lat="43.10138" lon="5.94243">
        <ele>-5.15</ele>
        <time>2019-05-27T15:17:10Z</time>
      </trkpt>
      <trkpt lat="43.1013" lon="5.94246">
        <ele>-4.67</ele>
        <time>2019-05-27T15:17:23Z</time>
      </trkpt>
      <trkpt lat="43.10119" lon="5.94253">
        <ele>-5.63</ele>
        <time>2019-05-27T15:17:34Z</time>
      </trkpt>
      <trkpt lat="43.10099" lon="5.94233">
        <ele>-5.15</ele>
        <time>2019-05-27T15:17:47Z</time>
      </trkpt>
      <trkpt lat="43.10098" lon="5.9423">
        <ele>-5.15</ele>
        <time>2019-05-27T15:17:48Z</time>
      </trkpt>
      <trkpt lat="43.10076" lon="5.94195">
        <ele>-6.11</ele>
        <time>2019-05-27T15:18:00Z</time>
      </trkpt>
      <trkpt lat="43.10038" lon="5.94154">
        <ele>-5.15</ele>
        <time>2019-05-27T15:18:16Z</time>
      </trkpt>
      <trkpt lat="43.10004" lon="5.94118">
        <ele>-5.15</ele>
        <time>2019-05-27T15:18:30Z</time>
      </trkpt>
      <trkpt lat="43.09968" lon="5.94074">
        <ele>-5.63</ele>
        <time>2019-05-27T15:18:46Z</time>
      </trkpt>
      <trkpt lat="43.09939" lon="5.94044">
        <ele>-5.15</ele>
        <time>2019-05-27T15:18:58Z</time>
      </trkpt>
      <trkpt lat="43.09907" lon="5.94006">
        <ele>-5.63</ele>
        <time>2019-05-27T15:19:12Z</time>
      </trkpt>
      <trkpt lat="43.09871" lon="5.93961">
        <ele>-5.63</ele>
        <time>2019-05-27T15:19:28Z</time>
      </trkpt>
      <trkpt lat="43.09862" lon="5.93945">
        <ele>-5.63</ele>
        <time>2019-05-27T15:19:33Z</time>
      </trkpt>
      <trkpt lat="43.09833" lon="5.93915">
        <ele>-7.07</ele>
        <time>2019-05-27T15:19:45Z</time>
      </trkpt>
      <trkpt lat="43.09788" lon="5.93866">
        <ele>-6.59</ele>
        <time>2019-05-27T15:20:04Z</time>
      </trkpt>
      <trkpt lat="43.09763" lon="5.93835">
        <ele>-5.15</ele>
        <time>2019-05-27T15:20:15Z</time>
      </trkpt>
      <trkpt lat="43.09725" lon="5.93788">
        <ele>-6.11</ele>
        <time>2019-05-27T15:20:32Z</time>
      </trkpt>
      <trkpt lat="43.09688" lon="5.93739">
        <ele>-4.67</ele>
        <time>2019-05-27T15:20:49Z</time>
      </trkpt>
      <trkpt lat="43.09662" lon="5.93698">
        <ele>-4.67</ele>
        <time>2019-05-27T15:21:02Z</time>
      </trkpt>
      <trkpt lat="43.09636" lon="5.93666">
        <ele>-4.67</ele>
        <time>2019-05-27T15:21:14Z</time>
      </trkpt>
      <trkpt lat="43.09597" lon="5.93637">
        <ele>-3.23</ele>
        <time>2019-05-27T15:21:29Z</time>
      </trkpt>
      <trkpt lat="43.09567" lon="5.93592">
        <ele>-3.71</ele>
        <time>2019-05-27T15:21:44Z</time>
      </trkpt>
      <trkpt lat="43.09529" lon="5.93555">
        <ele>-4.67</ele>
        <time>2019-05-27T15:21:59Z</time>
      </trkpt>
      <trkpt lat="43.09492" lon="5.93512">
        <ele>-3.71</ele>
        <time>2019-05-27T15:22:15Z</time>
      </trkpt>
      <trkpt lat="43.09462" lon="5.93471">
        <ele>-3.23</ele>
        <time>2019-05-27T15:22:29Z</time>
      </trkpt>
      <trkpt lat="43.09424" lon="5.93423">
        <ele>-3.71</ele>
        <time>2019-05-27T15:22:46Z</time>
      </trkpt>
      <trkpt lat="43.09392" lon="5.93384">
        <ele>-4.19</ele>
        <time>2019-05-27T15:23:00Z</time>
      </trkpt>
      <trkpt lat="43.09366" lon="5.93352">
        <ele>-4.19</ele>
        <time>2019-05-27T15:23:12Z</time>
      </trkpt>
      <trkpt lat="43.09346" lon="5.93328">
        <ele>-3.71</ele>
        <time>2019-05-27T15:23:25Z</time>
      </trkpt>
      <trkpt lat="43.09329" lon="5.93305">
        <ele>-3.71</ele>
        <time>2019-05-27T15:23:40Z</time>
      </trkpt>
      <trkpt lat="43.09316" lon="5.9329">
        <ele>-2.75</ele>
        <time>2019-05-27T15:23:53Z</time>
      </trkpt>
      <trkpt lat="43.09307" lon="5.93279">
        <ele>-2.27</ele>
        <time>2019-05-27T15:24:04Z</time>
      </trkpt>
      <trkpt lat="43.09296" lon="5.93267">
        <ele>-0.82</ele>
        <time>2019-05-27T15:24:17Z</time>
      </trkpt>
      <trkpt lat="43.09292" lon="5.93262">
        <ele>-0.82</ele>
        <time>2019-05-27T15:24:22Z</time>
      </trkpt>
      <trkpt lat="43.09283" lon="5.9325">
        <ele>-0.34</ele>
        <time>2019-05-27T15:24:33Z</time>
      </trkpt>
      <trkpt lat="43.0928" lon="5.93247">
        <ele>-0.82</ele>
        <time>2019-05-27T15:24:36Z</time>
      </trkpt>
      <trkpt lat="43.09267" lon="5.93232">
        <ele>-2.27</ele>
        <time>2019-05-27T15:24:50Z</time>
      </trkpt>
      <trkpt lat="43.09262" lon="5.93223">
        <ele>-2.27</ele>
        <time>2019-05-27T15:24:58Z</time>
      </trkpt>
      <trkpt lat="43.09249" lon="5.93208">
        <ele>-2.27</ele>
        <time>2019-05-27T15:25:13Z</time>
      </trkpt>
      <trkpt lat="43.0923" lon="5.93186">
        <ele>-3.71</ele>
        <time>2019-05-27T15:25:29Z</time>
      </trkpt>
      <trkpt lat="43.09214" lon="5.93167">
        <ele>-3.71</ele>
        <time>2019-05-27T15:25:42Z</time>
      </trkpt>
      <trkpt lat="43.09196" lon="5.93146">
        <ele>-3.71</ele>
        <time>2019-05-27T15:25:55Z</time>
      </trkpt>
      <trkpt lat="43.09176" lon="5.93127">
        <ele>-4.67</ele>
        <time>2019-05-27T15:26:08Z</time>
      </trkpt>
      <trkpt lat="43.09151" lon="5.931">
        <ele>-5.63</ele>
        <time>2019-05-27T15:26:25Z</time>
      </trkpt>
      <trkpt lat="43.0913" lon="5.93077">
        <ele>-6.11</ele>
        <time>2019-05-27T15:26:40Z</time>
      </trkpt>
      <trkpt lat="43.09109" lon="5.93056">
        <ele>-5.15</ele>
        <time>2019-05-27T15:26:54Z</time>
      </trkpt>
      <trkpt lat="43.09088" lon="5.93039">
        <ele>-4.19</ele>
        <time>2019-05-27T15:27:07Z</time>
      </trkpt>
      <trkpt lat="43.09061" lon="5.93017">
        <ele>-3.71</ele>
        <time>2019-05-27T15:27:24Z</time>
      </trkpt>
      <trkpt lat="43.09035" lon="5.92995">
        <ele>-4.67</ele>
        <time>2019-05-27T15:27:40Z</time>
      </trkpt>
      <trkpt lat="43.09014" lon="5.92977">
        <ele>-4.67</ele>
        <time>2019-05-27T15:27:53Z</time>
      </trkpt>
      <trkpt lat="43.08994" lon="5.92958">
        <ele>-4.67</ele>
        <time>2019-05-27T15:28:06Z</time>
      </trkpt>
      <trkpt lat="43.08964" lon="5.92932">
        <ele>-5.15</ele>
        <time>2019-05-27T15:28:24Z</time>
      </trkpt>
      <trkpt lat="43.08955" lon="5.92925">
        <ele>-5.15</ele>
        <time>2019-05-27T15:28:29Z</time>
      </trkpt>
      <trkpt lat="43.08919" lon="5.92896">
        <ele>-5.15</ele>
        <time>2019-05-27T15:28:48Z</time>
      </trkpt>
      <trkpt lat="43.08888" lon="5.92872">
        <ele>-7.07</ele>
        <time>2019-05-27T15:29:04Z</time>
      </trkpt>
      <trkpt lat="43.08854" lon="5.92845">
        <ele>-6.59</ele>
        <time>2019-05-27T15:29:21Z</time>
      </trkpt>
      <trkpt lat="43.0882" lon="5.92818">
        <ele>-8.03</ele>
        <time>2019-05-27T15:29:39Z</time>
      </trkpt>
      <trkpt lat="43.08787" lon="5.92794">
        <ele>-7.55</ele>
        <time>2019-05-27T15:29:56Z</time>
      </trkpt>
      <trkpt lat="43.08745" lon="5.92765">
        <ele>-5.15</ele>
        <time>2019-05-27T15:30:17Z</time>
      </trkpt>
      <trkpt lat="43.08714" lon="5.92745">
        <ele>-5.63</ele>
        <time>2019-05-27T15:30:32Z</time>
      </trkpt>
      <trkpt lat="43.08677" lon="5.92721">
        <ele>-6.11</ele>
        <time>2019-05-27T15:30:50Z</time>
      </trkpt>
      <trkpt lat="43.08635" lon="5.92695">
        <ele>-6.59</ele>
        <time>2019-05-27T15:31:11Z</time>
      </trkpt>
      <trkpt lat="43.08588" lon="5.92666">
        <ele>-7.55</ele>
        <time>2019-05-27T15:31:34Z</time>
      </trkpt>
      <trkpt lat="43.08547" lon="5.92641">
        <ele>-6.59</ele>
        <time>2019-05-27T15:31:54Z</time>
      </trkpt>
      <trkpt lat="43.08506" lon="5.92609">
        <ele>-4.19</ele>
        <time>2019-05-27T15:32:15Z</time>
      </trkpt>
      <trkpt lat="43.0847" lon="5.92578">
        <ele>-4.67</ele>
        <time>2019-05-27T15:32:34Z</time>
      </trkpt>
      <trkpt lat="43.08433" lon="5.92553">
        <ele>-4.67</ele>
        <time>2019-05-27T15:32:56Z</time>
      </trkpt>
      <trkpt lat="43.08407" lon="5.92536">
        <ele>-5.15</ele>
        <time>2019-05-27T15:33:13Z</time>
      </trkpt>
      <trkpt lat="43.08368" lon="5.92517">
        <ele>-4.19</ele>
        <time>2019-05-27T15:33:39Z</time>
      </trkpt>
      <trkpt lat="43.08337" lon="5.92505">
        <ele>-3.71</ele>
        <time>2019-05-27T15:33:59Z</time>
      </trkpt>
      <trkpt lat="43.083" lon="5.92497">
        <ele>-3.23</ele>
        <time>2019-05-27T15:34:23Z</time>
      </trkpt>
      <trkpt lat="43.0828" lon="5.92495">
        <ele>-3.71</ele>
        <time>2019-05-27T15:34:37Z</time>
      </trkpt>
      <trkpt lat="43.08252" lon="5.92491">
        <ele>-3.71</ele>
        <time>2019-05-27T15:35:03Z</time>
      </trkpt>
      <trkpt lat="43.08234" lon="5.92489">
        <ele>-3.71</ele>
        <time>2019-05-27T15:35:20Z</time>
      </trkpt>
      <trkpt lat="43.08208" lon="5.9249">
        <ele>-3.23</ele>
        <time>2019-05-27T15:35:46Z</time>
      </trkpt>
      <trkpt lat="43.08184" lon="5.92488">
        <ele>-4.19</ele>
        <time>2019-05-27T15:36:10Z</time>
      </trkpt>
      <trkpt lat="43.08151" lon="5.9249">
        <ele>-3.23</ele>
        <time>2019-05-27T15:36:44Z</time>
      </trkpt>
      <trkpt lat="43.08129" lon="5.92489">
        <ele>-2.27</ele>
        <time>2019-05-27T15:37:07Z</time>
      </trkpt>
      <trkpt lat="43.08106" lon="5.92487">
        <ele>-3.23</ele>
        <time>2019-05-27T15:37:33Z</time>
      </trkpt>
      <trkpt lat="43.08083" lon="5.9249">
        <ele>-2.75</ele>
        <time>2019-05-27T15:37:59Z</time>
      </trkpt>
      <trkpt lat="43.0806" lon="5.92493">
        <ele>-3.23</ele>
        <time>2019-05-27T15:38:25Z</time>
      </trkpt>
      <trkpt lat="43.08046" lon="5.92493">
        <ele>-2.75</ele>
        <time>2019-05-27T15:38:44Z</time>
      </trkpt>
      <trkpt lat="43.0804" lon="5.92493">
        <ele>-3.23</ele>
        <time>2019-05-27T15:38:57Z</time>
      </trkpt>
      <trkpt lat="43.08035" lon="5.92494">
        <ele>-4.19</ele>
        <time>2019-05-27T15:39:18Z</time>
      </trkpt>
      <trkpt lat="43.08033" lon="5.92494">
        <ele>-2.27</ele>
        <time>2019-05-27T15:39:34Z</time>
      </trkpt>
      <trkpt lat="43.08037" lon="5.92493">
        <ele>-1.79</ele>
        <time>2019-05-27T15:39:57Z</time>
      </trkpt>
      <trkpt lat="43.08027" lon="5.92501">
        <ele>-0.82</ele>
        <time>2019-05-27T15:40:14Z</time>
      </trkpt>
      <trkpt lat="43.08022" lon="5.92507">
        <ele>-1.79</ele>
        <time>2019-05-27T15:40:34Z</time>
      </trkpt>
      <trkpt lat="43.08024" lon="5.92506">
        <ele>-5.15</ele>
        <time>2019-05-27T15:40:51Z</time>
      </trkpt>
      <trkpt lat="43.08027" lon="5.92496">
        <ele>-4.67</ele>
        <time>2019-05-27T15:41:03Z</time>
      </trkpt>
      <trkpt lat="43.08029" lon="5.92491">
        <ele>-4.67</ele>
        <time>2019-05-27T15:41:09Z</time>
      </trkpt>
      <trkpt lat="43.08031" lon="5.92487">
        <ele>-3.71</ele>
        <time>2019-05-27T15:41:12Z</time>
      </trkpt>
      <trkpt lat="43.08043" lon="5.92469">
        <ele>-4.19</ele>
        <time>2019-05-27T15:41:30Z</time>
      </trkpt>
      <trkpt lat="43.08043" lon="5.92468">
        <ele>-4.19</ele>
        <time>2019-05-27T15:41:31Z</time>
      </trkpt>
      <trkpt lat="43.08046" lon="5.92463">
        <ele>-4.19</ele>
        <time>2019-05-27T15:41:43Z</time>
      </trkpt>
      <trkpt lat="43.08046" lon="5.92464">
        <ele>-3.71</ele>
        <time>2019-05-27T15:42:01Z</time>
      </trkpt>
      <trkpt lat="43.08047" lon="5.92465">
        <ele>-3.23</ele>
        <time>2019-05-27T15:42:18Z</time>
      </trkpt>
      <trkpt lat="43.08047" lon="5.92466">
        <ele>-3.23</ele>
        <time>2019-05-27T15:42:33Z</time>
      </trkpt>
      <trkpt lat="43.08048" lon="5.92467">
        <ele>-2.75</ele>
        <time>2019-05-27T15:42:47Z</time>
      </trkpt>
      <trkpt lat="43.08048" lon="5.92467">
        <ele>-2.75</ele>
        <time>2019-05-27T15:43:06Z</time>
      </trkpt>
      <trkpt lat="43.08048" lon="5.92468">
        <ele>-2.27</ele>
        <time>2019-05-27T15:43:27Z</time>
      </trkpt>
      <trkpt lat="43.08048" lon="5.92468">
        <ele>-2.27</ele>
        <time>2019-05-27T15:43:43Z</time>
      </trkpt>
      <trkpt lat="43.08048" lon="5.92468">
        <ele>-2.27</ele>
        <time>2019-05-27T15:43:59Z</time>
      </trkpt>
      <trkpt lat="43.08048" lon="5.92467">
        <ele>-2.75</ele>
        <time>2019-05-27T15:44:13Z</time>
      </trkpt>
      <trkpt lat="43.08048" lon="5.92462">
        <ele>-3.23</ele>
        <time>2019-05-27T15:44:36Z</time>
      </trkpt>
      <trkpt lat="43.08047" lon="5.92459">
        <ele>-3.71</ele>
        <time>2019-05-27T15:44:51Z</time>
      </trkpt>
      <trkpt lat="43.08047" lon="5.92458">
        <ele>-3.71</ele>
        <time>2019-05-27T15:45:14Z</time>
      </trkpt>
      <trkpt lat="43.08047" lon="5.92457">
        <ele>-4.19</ele>
        <time>2019-05-27T15:45:34Z</time>
      </trkpt>
      <trkpt lat="43.08047" lon="5.92458">
        <ele>-3.71</ele>
        <time>2019-05-27T15:45:56Z</time>
      </trkpt>
      <trkpt lat="43.08047" lon="5.92458">
        <ele>-4.67</ele>
        <time>2019-05-27T15:46:11Z</time>
      </trkpt>
      <trkpt lat="43.08047" lon="5.92459">
        <ele>-4.19</ele>
        <time>2019-05-27T15:46:27Z</time>
      </trkpt>
      <trkpt lat="43.08047" lon="5.92458">
        <ele>-3.71</ele>
        <time>2019-05-27T15:46:41Z</time>
      </trkpt>
      <trkpt lat="43.08047" lon="5.92458">
        <ele>-3.71</ele>
        <time>2019-05-27T15:46:42Z</time>
      </trkpt>
    </trkseg>
  </trk>
  <trk>
    <name><![CDATA[Tracé actuel: 29 MAI 2019 11:37]]></name>
    <trkseg>
      <trkpt lat="43.08014" lon="5.92468">
        <ele>-89.27</ele>
        <time>2019-05-29T09:37:12Z</time>
      </trkpt>
      <trkpt lat="43.08038" lon="5.92449">
        <ele>-71.96</ele>
        <time>2019-05-29T09:37:33Z</time>
      </trkpt>
      <trkpt lat="43.08042" lon="5.92446">
        <ele>-62.35</ele>
        <time>2019-05-29T09:38:00Z</time>
      </trkpt>
      <trkpt lat="43.08043" lon="5.92451">
        <ele>-49.37</ele>
        <time>2019-05-29T09:38:27Z</time>
      </trkpt>
      <trkpt lat="43.08041" lon="5.92461">
        <ele>-12.84</ele>
        <time>2019-05-29T09:38:49Z</time>
      </trkpt>
      <trkpt lat="43.0804" lon="5.92462">
        <ele>-1.3</ele>
        <time>2019-05-29T09:39:12Z</time>
      </trkpt>
      <trkpt lat="43.08041" lon="5.92462">
        <ele>1.58</ele>
        <time>2019-05-29T09:39:41Z</time>
      </trkpt>
      <trkpt lat="43.08042" lon="5.92462">
        <ele>1.58</ele>
        <time>2019-05-29T09:40:09Z</time>
      </trkpt>
      <trkpt lat="43.08042" lon="5.92462">
        <ele>1.1</ele>
        <time>2019-05-29T09:40:33Z</time>
      </trkpt>
      <trkpt lat="43.08042" lon="5.92462">
        <ele>1.58</ele>
        <time>2019-05-29T09:40:59Z</time>
      </trkpt>
      <trkpt lat="43.08042" lon="5.92461">
        <ele>1.1</ele>
        <time>2019-05-29T09:41:23Z</time>
      </trkpt>
      <trkpt lat="43.08042" lon="5.92461">
        <ele>1.1</ele>
        <time>2019-05-29T09:41:38Z</time>
      </trkpt>
      <trkpt lat="43.08046" lon="5.9246">
        <ele>0.14</ele>
        <time>2019-05-29T09:41:49Z</time>
      </trkpt>
      <trkpt lat="43.08047" lon="5.92459">
        <ele>-0.82</ele>
        <time>2019-05-29T09:42:05Z</time>
      </trkpt>
      <trkpt lat="43.08048" lon="5.92459">
        <ele>-1.79</ele>
        <time>2019-05-29T09:42:19Z</time>
      </trkpt>
      <trkpt lat="43.08045" lon="5.92461">
        <ele>-0.82</ele>
        <time>2019-05-29T09:42:29Z</time>
      </trkpt>
      <trkpt lat="43.08035" lon="5.92471">
        <ele>-0.82</ele>
        <time>2019-05-29T09:42:41Z</time>
      </trkpt>
      <trkpt lat="43.08032" lon="5.92479">
        <ele>-1.79</ele>
        <time>2019-05-29T09:42:47Z</time>
      </trkpt>
      <trkpt lat="43.08034" lon="5.92489">
        <ele>-0.82</ele>
        <time>2019-05-29T09:42:56Z</time>
      </trkpt>
      <trkpt lat="43.08041" lon="5.92499">
        <ele>0.14</ele>
        <time>2019-05-29T09:43:09Z</time>
      </trkpt>
      <trkpt lat="43.08047" lon="5.92504">
        <ele>0.62</ele>
        <time>2019-05-29T09:43:20Z</time>
      </trkpt>
      <trkpt lat="43.08053" lon="5.92506">
        <ele>0.14</ele>
        <time>2019-05-29T09:43:26Z</time>
      </trkpt>
      <trkpt lat="43.08076" lon="5.92508">
        <ele>0.62</ele>
        <time>2019-05-29T09:43:37Z</time>
      </trkpt>
      <trkpt lat="43.08112" lon="5.92504">
        <ele>-0.34</ele>
        <time>2019-05-29T09:43:51Z</time>
      </trkpt>
      <trkpt lat="43.08141" lon="5.92503">
        <ele>-1.79</ele>
        <time>2019-05-29T09:44:02Z</time>
      </trkpt>
      <trkpt lat="43.08178" lon="5.92499">
        <ele>-2.27</ele>
        <time>2019-05-29T09:44:16Z</time>
      </trkpt>
      <trkpt lat="43.08212" lon="5.92502">
        <ele>-2.75</ele>
        <time>2019-05-29T09:44:28Z</time>
      </trkpt>
      <trkpt lat="43.08237" lon="5.92502">
        <ele>-2.75</ele>
        <time>2019-05-29T09:44:38Z</time>
      </trkpt>
      <trkpt lat="43.08266" lon="5.92502">
        <ele>-1.79</ele>
        <time>2019-05-29T09:44:50Z</time>
      </trkpt>
      <trkpt lat="43.08304" lon="5.92503">
        <ele>-2.27</ele>
        <time>2019-05-29T09:45:05Z</time>
      </trkpt>
      <trkpt lat="43.08333" lon="5.92504">
        <ele>-1.3</ele>
        <time>2019-05-29T09:45:16Z</time>
      </trkpt>
      <trkpt lat="43.08362" lon="5.92508">
        <ele>-1.79</ele>
        <time>2019-05-29T09:45:27Z</time>
      </trkpt>
      <trkpt lat="43.08391" lon="5.92513">
        <ele>-1.79</ele>
        <time>2019-05-29T09:45:39Z</time>
      </trkpt>
      <trkpt lat="43.08419" lon="5.92519">
        <ele>-2.75</ele>
        <time>2019-05-29T09:45:50Z</time>
      </trkpt>
      <trkpt lat="43.08453" lon="5.92526">
        <ele>-3.23</ele>
        <time>2019-05-29T09:46:04Z</time>
      </trkpt>
      <trkpt lat="43.08491" lon="5.92536">
        <ele>-3.71</ele>
        <time>2019-05-29T09:46:19Z</time>
      </trkpt>
      <trkpt lat="43.08531" lon="5.92554">
        <ele>-4.19</ele>
        <time>2019-05-29T09:46:35Z</time>
      </trkpt>
      <trkpt lat="43.08561" lon="5.92567">
        <ele>-5.15</ele>
        <time>2019-05-29T09:46:47Z</time>
      </trkpt>
      <trkpt lat="43.08586" lon="5.92569">
        <ele>-3.71</ele>
        <time>2019-05-29T09:47:00Z</time>
      </trkpt>
      <trkpt lat="43.08592" lon="5.92565">
        <ele>-2.75</ele>
        <time>2019-05-29T09:47:05Z</time>
      </trkpt>
      <trkpt lat="43.08604" lon="5.92553">
        <ele>-3.71</ele>
        <time>2019-05-29T09:47:19Z</time>
      </trkpt>
      <trkpt lat="43.08609" lon="5.92539">
        <ele>-3.23</ele>
        <time>2019-05-29T09:47:33Z</time>
      </trkpt>
      <trkpt lat="43.08609" lon="5.92523">
        <ele>-3.71</ele>
        <time>2019-05-29T09:47:52Z</time>
      </trkpt>
      <trkpt lat="43.0861" lon="5.92516">
        <ele>-3.71</ele>
        <time>2019-05-29T09:48:02Z</time>
      </trkpt>
      <trkpt lat="43.0861" lon="5.92504">
        <ele>-2.75</ele>
        <time>2019-05-29T09:48:17Z</time>
      </trkpt>
      <trkpt lat="43.0861" lon="5.92496">
        <ele>-2.75</ele>
        <time>2019-05-29T09:48:28Z</time>
      </trkpt>
      <trkpt lat="43.08609" lon="5.92487">
        <ele>-1.79</ele>
        <time>2019-05-29T09:48:39Z</time>
      </trkpt>
      <trkpt lat="43.08608" lon="5.92472">
        <ele>-2.27</ele>
        <time>2019-05-29T09:48:55Z</time>
      </trkpt>
      <trkpt lat="43.08609" lon="5.92465">
        <ele>-2.27</ele>
        <time>2019-05-29T09:49:05Z</time>
      </trkpt>
      <trkpt lat="43.08611" lon="5.92456">
        <ele>-1.79</ele>
        <time>2019-05-29T09:49:18Z</time>
      </trkpt>
      <trkpt lat="43.08612" lon="5.92447">
        <ele>-1.79</ele>
        <time>2019-05-29T09:49:30Z</time>
      </trkpt>
      <trkpt lat="43.08613" lon="5.92436">
        <ele>-1.3</ele>
        <time>2019-05-29T09:49:47Z</time>
      </trkpt>
      <trkpt lat="43.08612" lon="5.92428">
        <ele>-2.27</ele>
        <time>2019-05-29T09:49:57Z</time>
      </trkpt>
      <trkpt lat="43.08613" lon="5.92423">
        <ele>-1.3</ele>
        <time>2019-05-29T09:50:07Z</time>
      </trkpt>
      <trkpt lat="43.08613" lon="5.92415">
        <ele>-0.34</ele>
        <time>2019-05-29T09:50:18Z</time>
      </trkpt>
      <trkpt lat="43.08617" lon="5.92407">
        <ele>-1.3</ele>
        <time>2019-05-29T09:50:23Z</time>
      </trkpt>
      <trkpt lat="43.08624" lon="5.92365">
        <ele>0.14</ele>
        <time>2019-05-29T09:50:39Z</time>
      </trkpt>
      <trkpt lat="43.08627" lon="5.92339">
        <ele>-0.82</ele>
        <time>2019-05-29T09:50:47Z</time>
      </trkpt>
      <trkpt lat="43.08635" lon="5.92304">
        <ele>-2.27</ele>
        <time>2019-05-29T09:50:59Z</time>
      </trkpt>
      <trkpt lat="43.08635" lon="5.92301">
        <ele>-2.27</ele>
        <time>2019-05-29T09:51:00Z</time>
      </trkpt>
      <trkpt lat="43.0864" lon="5.92274">
        <ele>-1.79</ele>
        <time>2019-05-29T09:51:11Z</time>
      </trkpt>
      <trkpt lat="43.08647" lon="5.9225">
        <ele>-1.3</ele>
        <time>2019-05-29T09:51:28Z</time>
      </trkpt>
      <trkpt lat="43.08648" lon="5.92248">
        <ele>-3.23</ele>
        <time>2019-05-29T09:51:31Z</time>
      </trkpt>
      <trkpt lat="43.08648" lon="5.9224">
        <ele>-3.71</ele>
        <time>2019-05-29T09:51:40Z</time>
      </trkpt>
      <trkpt lat="43.08648" lon="5.92232">
        <ele>-3.23</ele>
        <time>2019-05-29T09:51:51Z</time>
      </trkpt>
      <trkpt lat="43.08649" lon="5.92224">
        <ele>-2.27</ele>
        <time>2019-05-29T09:52:04Z</time>
      </trkpt>
      <trkpt lat="43.08647" lon="5.9222">
        <ele>-2.75</ele>
        <time>2019-05-29T09:52:13Z</time>
      </trkpt>
      <trkpt lat="43.08647" lon="5.92204">
        <ele>-3.23</ele>
        <time>2019-05-29T09:52:25Z</time>
      </trkpt>
      <trkpt lat="43.08649" lon="5.92202">
        <ele>-3.23</ele>
        <time>2019-05-29T09:52:28Z</time>
      </trkpt>
      <trkpt lat="43.08656" lon="5.92193">
        <ele>-2.75</ele>
        <time>2019-05-29T09:52:43Z</time>
      </trkpt>
      <trkpt lat="43.08658" lon="5.92189">
        <ele>-4.67</ele>
        <time>2019-05-29T09:52:52Z</time>
      </trkpt>
      <trkpt lat="43.08658" lon="5.92184">
        <ele>-3.71</ele>
        <time>2019-05-29T09:53:03Z</time>
      </trkpt>
      <trkpt lat="43.08657" lon="5.92182">
        <ele>-5.63</ele>
        <time>2019-05-29T09:53:14Z</time>
      </trkpt>
      <trkpt lat="43.08656" lon="5.92179">
        <ele>-5.15</ele>
        <time>2019-05-29T09:53:27Z</time>
      </trkpt>
      <trkpt lat="43.08654" lon="5.92171">
        <ele>-3.71</ele>
        <time>2019-05-29T09:53:42Z</time>
      </trkpt>
      <trkpt lat="43.08653" lon="5.92165">
        <ele>-4.19</ele>
        <time>2019-05-29T09:53:48Z</time>
      </trkpt>
      <trkpt lat="43.08651" lon="5.92159">
        <ele>-2.75</ele>
        <time>2019-05-29T09:53:52Z</time>
      </trkpt>
      <trkpt lat="43.08633" lon="5.92153">
        <ele>-2.27</ele>
        <time>2019-05-29T09:54:05Z</time>
      </trkpt>
      <trkpt lat="43.08628" lon="5.92158">
        <ele>-2.27</ele>
        <time>2019-05-29T09:54:08Z</time>
      </trkpt>
      <trkpt lat="43.08623" lon="5.92181">
        <ele>-4.19</ele>
        <time>2019-05-29T09:54:17Z</time>
      </trkpt>
      <trkpt lat="43.08619" lon="5.92194">
        <ele>-2.75</ele>
        <time>2019-05-29T09:54:22Z</time>
      </trkpt>
      <trkpt lat="43.08614" lon="5.92215">
        <ele>-2.27</ele>
        <time>2019-05-29T09:54:30Z</time>
      </trkpt>
      <trkpt lat="43.08601" lon="5.92257">
        <ele>-3.23</ele>
        <time>2019-05-29T09:54:43Z</time>
      </trkpt>
      <trkpt lat="43.08593" lon="5.92293">
        <ele>-4.67</ele>
        <time>2019-05-29T09:54:54Z</time>
      </trkpt>
      <trkpt lat="43.08585" lon="5.92337">
        <ele>-3.71</ele>
        <time>2019-05-29T09:55:07Z</time>
      </trkpt>
      <trkpt lat="43.08576" lon="5.92388">
        <ele>-1.3</ele>
        <time>2019-05-29T09:55:21Z</time>
      </trkpt>
      <trkpt lat="43.08563" lon="5.92435">
        <ele>-2.75</ele>
        <time>2019-05-29T09:55:35Z</time>
      </trkpt>
      <trkpt lat="43.08555" lon="5.92478">
        <ele>-5.15</ele>
        <time>2019-05-29T09:55:47Z</time>
      </trkpt>
      <trkpt lat="43.08554" lon="5.92488">
        <ele>-5.63</ele>
        <time>2019-05-29T09:55:50Z</time>
      </trkpt>
      <trkpt lat="43.08572" lon="5.92502">
        <ele>-4.19</ele>
        <time>2019-05-29T09:56:00Z</time>
      </trkpt>
      <trkpt lat="43.08575" lon="5.92501">
        <ele>-4.19</ele>
        <time>2019-05-29T09:56:02Z</time>
      </trkpt>
      <trkpt lat="43.08581" lon="5.92495">
        <ele>-4.67</ele>
        <time>2019-05-29T09:56:06Z</time>
      </trkpt>
      <trkpt lat="43.08595" lon="5.92474">
        <ele>-4.67</ele>
        <time>2019-05-29T09:56:22Z</time>
      </trkpt>
      <trkpt lat="43.08604" lon="5.92458">
        <ele>-4.67</ele>
        <time>2019-05-29T09:56:37Z</time>
      </trkpt>
      <trkpt lat="43.08608" lon="5.92449">
        <ele>-5.63</ele>
        <time>2019-05-29T09:56:44Z</time>
      </trkpt>
      <trkpt lat="43.08611" lon="5.92443">
        <ele>-5.63</ele>
        <time>2019-05-29T09:56:49Z</time>
      </trkpt>
      <trkpt lat="43.08613" lon="5.9244">
        <ele>-5.15</ele>
        <time>2019-05-29T09:56:51Z</time>
      </trkpt>
      <trkpt lat="43.08637" lon="5.92443">
        <ele>-4.67</ele>
        <time>2019-05-29T09:57:07Z</time>
      </trkpt>
      <trkpt lat="43.08659" lon="5.9248">
        <ele>-3.71</ele>
        <time>2019-05-29T09:57:19Z</time>
      </trkpt>
      <trkpt lat="43.08686" lon="5.92539">
        <ele>-2.75</ele>
        <time>2019-05-29T09:57:34Z</time>
      </trkpt>
      <trkpt lat="43.08711" lon="5.92586">
        <ele>-2.27</ele>
        <time>2019-05-29T09:57:48Z</time>
      </trkpt>
      <trkpt lat="43.08755" lon="5.92647">
        <ele>-1.3</ele>
        <time>2019-05-29T09:58:06Z</time>
      </trkpt>
      <trkpt lat="43.08792" lon="5.92702">
        <ele>-2.27</ele>
        <time>2019-05-29T09:58:21Z</time>
      </trkpt>
      <trkpt lat="43.08816" lon="5.92755">
        <ele>-3.71</ele>
        <time>2019-05-29T09:58:34Z</time>
      </trkpt>
      <trkpt lat="43.08849" lon="5.9282">
        <ele>-3.71</ele>
        <time>2019-05-29T09:58:51Z</time>
      </trkpt>
      <trkpt lat="43.08872" lon="5.92866">
        <ele>-4.19</ele>
        <time>2019-05-29T09:59:03Z</time>
      </trkpt>
      <trkpt lat="43.08892" lon="5.92907">
        <ele>-5.63</ele>
        <time>2019-05-29T09:59:14Z</time>
      </trkpt>
      <trkpt lat="43.08925" lon="5.92962">
        <ele>-5.63</ele>
        <time>2019-05-29T09:59:29Z</time>
      </trkpt>
      <trkpt lat="43.08957" lon="5.93005">
        <ele>-7.55</ele>
        <time>2019-05-29T09:59:42Z</time>
      </trkpt>
      <trkpt lat="43.08985" lon="5.93057">
        <ele>-5.63</ele>
        <time>2019-05-29T09:59:56Z</time>
      </trkpt>
      <trkpt lat="43.0902" lon="5.93124">
        <ele>-2.75</ele>
        <time>2019-05-29T10:00:13Z</time>
      </trkpt>
      <trkpt lat="43.09075" lon="5.93224">
        <ele>0.14</ele>
        <time>2019-05-29T10:00:39Z</time>
      </trkpt>
      <trkpt lat="43.09124" lon="5.93312">
        <ele>0.62</ele>
        <time>2019-05-29T10:01:02Z</time>
      </trkpt>
      <trkpt lat="43.0917" lon="5.93409">
        <ele>-0.34</ele>
        <time>2019-05-29T10:01:26Z</time>
      </trkpt>
      <trkpt lat="43.09201" lon="5.93491">
        <ele>0.14</ele>
        <time>2019-05-29T10:01:45Z</time>
      </trkpt>
      <trkpt lat="43.09234" lon="5.93577">
        <ele>-0.34</ele>
        <time>2019-05-29T10:02:05Z</time>
      </trkpt>
      <trkpt lat="43.09261" lon="5.93649">
        <ele>-0.34</ele>
        <time>2019-05-29T10:02:22Z</time>
      </trkpt>
      <trkpt lat="43.09282" lon="5.9371">
        <ele>0.14</ele>
        <time>2019-05-29T10:02:36Z</time>
      </trkpt>
      <trkpt lat="43.09317" lon="5.93791">
        <ele>-0.34</ele>
        <time>2019-05-29T10:02:55Z</time>
      </trkpt>
      <trkpt lat="43.09347" lon="5.93861">
        <ele>-0.34</ele>
        <time>2019-05-29T10:03:11Z</time>
      </trkpt>
      <trkpt lat="43.09391" lon="5.93941">
        <ele>-0.82</ele>
        <time>2019-05-29T10:03:30Z</time>
      </trkpt>
      <trkpt lat="43.09438" lon="5.94029">
        <ele>-0.82</ele>
        <time>2019-05-29T10:03:52Z</time>
      </trkpt>
      <trkpt lat="43.09482" lon="5.94098">
        <ele>-1.3</ele>
        <time>2019-05-29T10:04:11Z</time>
      </trkpt>
      <trkpt lat="43.09537" lon="5.94203">
        <ele>-1.3</ele>
        <time>2019-05-29T10:04:38Z</time>
      </trkpt>
      <trkpt lat="43.09581" lon="5.94273">
        <ele>-0.82</ele>
        <time>2019-05-29T10:04:57Z</time>
      </trkpt>
      <trkpt lat="43.0962" lon="5.94359">
        <ele>-0.82</ele>
        <time>2019-05-29T10:05:18Z</time>
      </trkpt>
      <trkpt lat="43.09669" lon="5.94454">
        <ele>0.14</ele>
        <time>2019-05-29T10:05:42Z</time>
      </trkpt>
      <trkpt lat="43.0972" lon="5.94526">
        <ele>-1.3</ele>
        <time>2019-05-29T10:06:03Z</time>
      </trkpt>
      <trkpt lat="43.0976" lon="5.94605">
        <ele>0.14</ele>
        <time>2019-05-29T10:06:23Z</time>
      </trkpt>
      <trkpt lat="43.09807" lon="5.94681">
        <ele>-0.34</ele>
        <time>2019-05-29T10:06:44Z</time>
      </trkpt>
      <trkpt lat="43.09846" lon="5.94724">
        <ele>-0.82</ele>
        <time>2019-05-29T10:07:02Z</time>
      </trkpt>
      <trkpt lat="43.09892" lon="5.94762">
        <ele>-0.82</ele>
        <time>2019-05-29T10:07:27Z</time>
      </trkpt>
      <trkpt lat="43.09931" lon="5.94796">
        <ele>-0.82</ele>
        <time>2019-05-29T10:07:49Z</time>
      </trkpt>
      <trkpt lat="43.09974" lon="5.94833">
        <ele>-0.34</ele>
        <time>2019-05-29T10:08:15Z</time>
      </trkpt>
      <trkpt lat="43.10004" lon="5.9486">
        <ele>0.62</ele>
        <time>2019-05-29T10:08:35Z</time>
      </trkpt>
      <trkpt lat="43.10034" lon="5.9489">
        <ele>0.14</ele>
        <time>2019-05-29T10:08:56Z</time>
      </trkpt>
      <trkpt lat="43.10061" lon="5.9492">
        <ele>-0.82</ele>
        <time>2019-05-29T10:09:14Z</time>
      </trkpt>
      <trkpt lat="43.10096" lon="5.94951">
        <ele>-0.34</ele>
        <time>2019-05-29T10:09:34Z</time>
      </trkpt>
      <trkpt lat="43.1014" lon="5.94981">
        <ele>0.62</ele>
        <time>2019-05-29T10:09:56Z</time>
      </trkpt>
      <trkpt lat="43.10186" lon="5.95015">
        <ele>0.14</ele>
        <time>2019-05-29T10:10:16Z</time>
      </trkpt>
      <trkpt lat="43.10233" lon="5.95053">
        <ele>0.14</ele>
        <time>2019-05-29T10:10:36Z</time>
      </trkpt>
      <trkpt lat="43.10277" lon="5.95072">
        <ele>1.1</ele>
        <time>2019-05-29T10:10:55Z</time>
      </trkpt>
      <trkpt lat="43.10337" lon="5.95093">
        <ele>1.1</ele>
        <time>2019-05-29T10:11:18Z</time>
      </trkpt>
      <trkpt lat="43.10393" lon="5.95123">
        <ele>0.14</ele>
        <time>2019-05-29T10:11:37Z</time>
      </trkpt>
      <trkpt lat="43.10392" lon="5.95104">
        <ele>-0.82</ele>
        <time>2019-05-29T10:11:46Z</time>
      </trkpt>
      <trkpt lat="43.10371" lon="5.95072">
        <ele>-0.82</ele>
        <time>2019-05-29T10:12:01Z</time>
      </trkpt>
      <trkpt lat="43.10341" lon="5.9504">
        <ele>-1.3</ele>
        <time>2019-05-29T10:12:17Z</time>
      </trkpt>
      <trkpt lat="43.10333" lon="5.94996">
        <ele>-0.34</ele>
        <time>2019-05-29T10:12:38Z</time>
      </trkpt>
      <trkpt lat="43.10326" lon="5.9496">
        <ele>0.62</ele>
        <time>2019-05-29T10:13:00Z</time>
      </trkpt>
      <trkpt lat="43.10324" lon="5.94923">
        <ele>-0.34</ele>
        <time>2019-05-29T10:13:19Z</time>
      </trkpt>
      <trkpt lat="43.1032" lon="5.94894">
        <ele>-0.34</ele>
        <time>2019-05-29T10:13:40Z</time>
      </trkpt>
      <trkpt lat="43.10311" lon="5.94876">
        <ele>0.62</ele>
        <time>2019-05-29T10:13:59Z</time>
      </trkpt>
      <trkpt lat="43.10302" lon="5.94861">
        <ele>0.62</ele>
        <time>2019-05-29T10:14:17Z</time>
      </trkpt>
      <trkpt lat="43.10293" lon="5.94848">
        <ele>0.62</ele>
        <time>2019-05-29T10:14:35Z</time>
      </trkpt>
      <trkpt lat="43.10277" lon="5.9483">
        <ele>0.62</ele>
        <time>2019-05-29T10:14:53Z</time>
      </trkpt>
      <trkpt lat="43.10261" lon="5.94805">
        <ele>-0.34</ele>
        <time>2019-05-29T10:15:14Z</time>
      </trkpt>
      <trkpt lat="43.10251" lon="5.9479">
        <ele>-0.82</ele>
        <time>2019-05-29T10:15:27Z</time>
      </trkpt>
      <trkpt lat="43.10218" lon="5.94767">
        <ele>-1.79</ele>
        <time>2019-05-29T10:15:50Z</time>
      </trkpt>
      <trkpt lat="43.10187" lon="5.94731">
        <ele>-1.3</ele>
        <time>2019-05-29T10:16:09Z</time>
      </trkpt>
      <trkpt lat="43.10159" lon="5.9468">
        <ele>-1.3</ele>
        <time>2019-05-29T10:16:30Z</time>
      </trkpt>
      <trkpt lat="43.1014" lon="5.94643">
        <ele>-1.3</ele>
        <time>2019-05-29T10:16:48Z</time>
      </trkpt>
      <trkpt lat="43.1011" lon="5.946">
        <ele>-0.82</ele>
        <time>2019-05-29T10:17:08Z</time>
      </trkpt>
      <trkpt lat="43.10076" lon="5.94543">
        <ele>-0.82</ele>
        <time>2019-05-29T10:17:31Z</time>
      </trkpt>
      <trkpt lat="43.10046" lon="5.94495">
        <ele>0.14</ele>
        <time>2019-05-29T10:17:52Z</time>
      </trkpt>
      <trkpt lat="43.10016" lon="5.94458">
        <ele>-1.3</ele>
        <time>2019-05-29T10:18:11Z</time>
      </trkpt>
      <trkpt lat="43.09982" lon="5.94423">
        <ele>-0.82</ele>
        <time>2019-05-29T10:18:34Z</time>
      </trkpt>
      <trkpt lat="43.09952" lon="5.9439">
        <ele>-0.82</ele>
        <time>2019-05-29T10:18:56Z</time>
      </trkpt>
      <trkpt lat="43.09917" lon="5.9435">
        <ele>-0.82</ele>
        <time>2019-05-29T10:19:17Z</time>
      </trkpt>
      <trkpt lat="43.09885" lon="5.94295">
        <ele>0.14</ele>
        <time>2019-05-29T10:19:36Z</time>
      </trkpt>
      <trkpt lat="43.09876" lon="5.94277">
        <ele>0.14</ele>
        <time>2019-05-29T10:19:42Z</time>
      </trkpt>
      <trkpt lat="43.09884" lon="5.94265">
        <ele>0.14</ele>
        <time>2019-05-29T10:19:49Z</time>
      </trkpt>
      <trkpt lat="43.09922" lon="5.94251">
        <ele>0.62</ele>
        <time>2019-05-29T10:20:07Z</time>
      </trkpt>
      <trkpt lat="43.09963" lon="5.9424">
        <ele>0.62</ele>
        <time>2019-05-29T10:20:26Z</time>
      </trkpt>
      <trkpt lat="43.1001" lon="5.94243">
        <ele>-0.34</ele>
        <time>2019-05-29T10:20:49Z</time>
      </trkpt>
      <trkpt lat="43.10045" lon="5.9425">
        <ele>-0.34</ele>
        <time>2019-05-29T10:21:08Z</time>
      </trkpt>
      <trkpt lat="43.10063" lon="5.94252">
        <ele>-0.34</ele>
        <time>2019-05-29T10:21:19Z</time>
      </trkpt>
      <trkpt lat="43.10059" lon="5.94232">
        <ele>-0.82</ele>
        <time>2019-05-29T10:21:31Z</time>
      </trkpt>
      <trkpt lat="43.10049" lon="5.94184">
        <ele>-0.82</ele>
        <time>2019-05-29T10:21:51Z</time>
      </trkpt>
      <trkpt lat="43.10039" lon="5.94132">
        <ele>-1.3</ele>
        <time>2019-05-29T10:22:10Z</time>
      </trkpt>
      <trkpt lat="43.10022" lon="5.94079">
        <ele>-1.3</ele>
        <time>2019-05-29T10:22:32Z</time>
      </trkpt>
      <trkpt lat="43.10007" lon="5.94035">
        <ele>-1.3</ele>
        <time>2019-05-29T10:22:52Z</time>
      </trkpt>
      <trkpt lat="43.09989" lon="5.93983">
        <ele>-0.82</ele>
        <time>2019-05-29T10:23:15Z</time>
      </trkpt>
      <trkpt lat="43.09973" lon="5.93953">
        <ele>-1.3</ele>
        <time>2019-05-29T10:23:33Z</time>
      </trkpt>
      <trkpt lat="43.09945" lon="5.93917">
        <ele>-1.3</ele>
        <time>2019-05-29T10:23:58Z</time>
      </trkpt>
      <trkpt lat="43.09915" lon="5.9388">
        <ele>-0.34</ele>
        <time>2019-05-29T10:24:20Z</time>
      </trkpt>
      <trkpt lat="43.09877" lon="5.93843">
        <ele>-1.3</ele>
        <time>2019-05-29T10:24:40Z</time>
      </trkpt>
      <trkpt lat="43.09835" lon="5.93805">
        <ele>-0.82</ele>
        <time>2019-05-29T10:25:03Z</time>
      </trkpt>
      <trkpt lat="43.09822" lon="5.9377">
        <ele>-0.34</ele>
        <time>2019-05-29T10:25:21Z</time>
      </trkpt>
      <trkpt lat="43.09845" lon="5.93756">
        <ele>-0.34</ele>
        <time>2019-05-29T10:25:44Z</time>
      </trkpt>
      <trkpt lat="43.0987" lon="5.93756">
        <ele>-0.34</ele>
        <time>2019-05-29T10:26:01Z</time>
      </trkpt>
      <trkpt lat="43.09901" lon="5.93761">
        <ele>-0.34</ele>
        <time>2019-05-29T10:26:19Z</time>
      </trkpt>
      <trkpt lat="43.09929" lon="5.93771">
        <ele>0.14</ele>
        <time>2019-05-29T10:26:38Z</time>
      </trkpt>
      <trkpt lat="43.09957" lon="5.9379">
        <ele>-0.34</ele>
        <time>2019-05-29T10:26:57Z</time>
      </trkpt>
      <trkpt lat="43.10004" lon="5.93823">
        <ele>-1.3</ele>
        <time>2019-05-29T10:27:21Z</time>
      </trkpt>
      <trkpt lat="43.1002" lon="5.93813">
        <ele>-0.82</ele>
        <time>2019-05-29T10:27:33Z</time>
      </trkpt>
      <trkpt lat="43.10008" lon="5.9377">
        <ele>-1.3</ele>
        <time>2019-05-29T10:27:51Z</time>
      </trkpt>
      <trkpt lat="43.09981" lon="5.93718">
        <ele>-2.27</ele>
        <time>2019-05-29T10:28:15Z</time>
      </trkpt>
      <trkpt lat="43.09957" lon="5.93678">
        <ele>-1.3</ele>
        <time>2019-05-29T10:28:37Z</time>
      </trkpt>
      <trkpt lat="43.09931" lon="5.93632">
        <ele>-1.3</ele>
        <time>2019-05-29T10:29:03Z</time>
      </trkpt>
      <trkpt lat="43.09909" lon="5.93595">
        <ele>-1.79</ele>
        <time>2019-05-29T10:29:22Z</time>
      </trkpt>
      <trkpt lat="43.09885" lon="5.93547">
        <ele>-1.79</ele>
        <time>2019-05-29T10:29:41Z</time>
      </trkpt>
      <trkpt lat="43.09865" lon="5.93506">
        <ele>-1.79</ele>
        <time>2019-05-29T10:29:58Z</time>
      </trkpt>
      <trkpt lat="43.09845" lon="5.93461">
        <ele>-1.79</ele>
        <time>2019-05-29T10:30:20Z</time>
      </trkpt>
      <trkpt lat="43.09844" lon="5.93459">
        <ele>-1.79</ele>
        <time>2019-05-29T10:30:21Z</time>
      </trkpt>
      <trkpt lat="43.09822" lon="5.93429">
        <ele>-1.3</ele>
        <time>2019-05-29T10:30:36Z</time>
      </trkpt>
      <trkpt lat="43.09813" lon="5.93409">
        <ele>-1.3</ele>
        <time>2019-05-29T10:30:42Z</time>
      </trkpt>
      <trkpt lat="43.09795" lon="5.93425">
        <ele>-0.82</ele>
        <time>2019-05-29T10:30:51Z</time>
      </trkpt>
      <trkpt lat="43.09787" lon="5.93485">
        <ele>-0.34</ele>
        <time>2019-05-29T10:31:09Z</time>
      </trkpt>
      <trkpt lat="43.09776" lon="5.9356">
        <ele>-0.34</ele>
        <time>2019-05-29T10:31:32Z</time>
      </trkpt>
      <trkpt lat="43.09769" lon="5.93625">
        <ele>-0.34</ele>
        <time>2019-05-29T10:31:54Z</time>
      </trkpt>
      <trkpt lat="43.09766" lon="5.93688">
        <ele>-0.82</ele>
        <time>2019-05-29T10:32:17Z</time>
      </trkpt>
      <trkpt lat="43.09772" lon="5.93747">
        <ele>-0.34</ele>
        <time>2019-05-29T10:32:40Z</time>
      </trkpt>
      <trkpt lat="43.09779" lon="5.93801">
        <ele>-0.82</ele>
        <time>2019-05-29T10:33:04Z</time>
      </trkpt>
      <trkpt lat="43.09786" lon="5.93847">
        <ele>0.62</ele>
        <time>2019-05-29T10:33:28Z</time>
      </trkpt>
      <trkpt lat="43.09794" lon="5.93886">
        <ele>-0.34</ele>
        <time>2019-05-29T10:33:51Z</time>
      </trkpt>
      <trkpt lat="43.09806" lon="5.93922">
        <ele>0.14</ele>
        <time>2019-05-29T10:34:14Z</time>
      </trkpt>
      <trkpt lat="43.09818" lon="5.93952">
        <ele>0.62</ele>
        <time>2019-05-29T10:34:33Z</time>
      </trkpt>
      <trkpt lat="43.09833" lon="5.93988">
        <ele>0.62</ele>
        <time>2019-05-29T10:34:55Z</time>
      </trkpt>
      <trkpt lat="43.09855" lon="5.94021">
        <ele>-0.82</ele>
        <time>2019-05-29T10:35:15Z</time>
      </trkpt>
      <trkpt lat="43.09883" lon="5.94033">
        <ele>-0.82</ele>
        <time>2019-05-29T10:35:30Z</time>
      </trkpt>
      <trkpt lat="43.09916" lon="5.94019">
        <ele>-0.82</ele>
        <time>2019-05-29T10:35:55Z</time>
      </trkpt>
      <trkpt lat="43.09935" lon="5.94029">
        <ele>-0.34</ele>
        <time>2019-05-29T10:36:10Z</time>
      </trkpt>
      <trkpt lat="43.09953" lon="5.94088">
        <ele>1.1</ele>
        <time>2019-05-29T10:36:32Z</time>
      </trkpt>
      <trkpt lat="43.09971" lon="5.94151">
        <ele>-0.34</ele>
        <time>2019-05-29T10:36:56Z</time>
      </trkpt>
      <trkpt lat="43.09989" lon="5.94211">
        <ele>0.62</ele>
        <time>2019-05-29T10:37:17Z</time>
      </trkpt>
      <trkpt lat="43.10009" lon="5.94284">
        <ele>-0.34</ele>
        <time>2019-05-29T10:37:42Z</time>
      </trkpt>
      <trkpt lat="43.10018" lon="5.94331">
        <ele>0.14</ele>
        <time>2019-05-29T10:38:00Z</time>
      </trkpt>
      <trkpt lat="43.10037" lon="5.94386">
        <ele>-0.34</ele>
        <time>2019-05-29T10:38:23Z</time>
      </trkpt>
      <trkpt lat="43.10047" lon="5.94437">
        <ele>0.62</ele>
        <time>2019-05-29T10:38:44Z</time>
      </trkpt>
      <trkpt lat="43.10051" lon="5.94486">
        <ele>-0.34</ele>
        <time>2019-05-29T10:39:04Z</time>
      </trkpt>
      <trkpt lat="43.10059" lon="5.94551">
        <ele>-0.82</ele>
        <time>2019-05-29T10:39:28Z</time>
      </trkpt>
      <trkpt lat="43.10061" lon="5.94599">
        <ele>-0.34</ele>
        <time>2019-05-29T10:39:46Z</time>
      </trkpt>
      <trkpt lat="43.10053" lon="5.94651">
        <ele>0.14</ele>
        <time>2019-05-29T10:40:08Z</time>
      </trkpt>
      <trkpt lat="43.10046" lon="5.94704">
        <ele>-0.34</ele>
        <time>2019-05-29T10:40:30Z</time>
      </trkpt>
      <trkpt lat="43.10045" lon="5.94761">
        <ele>-0.82</ele>
        <time>2019-05-29T10:40:50Z</time>
      </trkpt>
      <trkpt lat="43.10039" lon="5.94837">
        <ele>-0.34</ele>
        <time>2019-05-29T10:41:16Z</time>
      </trkpt>
      <trkpt lat="43.10035" lon="5.94917">
        <ele>-0.34</ele>
        <time>2019-05-29T10:41:43Z</time>
      </trkpt>
      <trkpt lat="43.10033" lon="5.94984">
        <ele>-0.82</ele>
        <time>2019-05-29T10:42:06Z</time>
      </trkpt>
      <trkpt lat="43.10033" lon="5.95045">
        <ele>-0.34</ele>
        <time>2019-05-29T10:42:27Z</time>
      </trkpt>
      <trkpt lat="43.10034" lon="5.95126">
        <ele>-0.34</ele>
        <time>2019-05-29T10:42:54Z</time>
      </trkpt>
      <trkpt lat="43.10036" lon="5.95194">
        <ele>0.14</ele>
        <time>2019-05-29T10:43:17Z</time>
      </trkpt>
      <trkpt lat="43.1004" lon="5.95263">
        <ele>0.14</ele>
        <time>2019-05-29T10:43:41Z</time>
      </trkpt>
      <trkpt lat="43.10039" lon="5.95332">
        <ele>-1.3</ele>
        <time>2019-05-29T10:44:05Z</time>
      </trkpt>
      <trkpt lat="43.10038" lon="5.95401">
        <ele>-0.34</ele>
        <time>2019-05-29T10:44:30Z</time>
      </trkpt>
      <trkpt lat="43.10041" lon="5.95464">
        <ele>-0.82</ele>
        <time>2019-05-29T10:44:52Z</time>
      </trkpt>
      <trkpt lat="43.10043" lon="5.95529">
        <ele>-1.3</ele>
        <time>2019-05-29T10:45:15Z</time>
      </trkpt>
      <trkpt lat="43.10048" lon="5.95589">
        <ele>-0.34</ele>
        <time>2019-05-29T10:45:36Z</time>
      </trkpt>
      <trkpt lat="43.10054" lon="5.95646">
        <ele>0.14</ele>
        <time>2019-05-29T10:45:56Z</time>
      </trkpt>
      <trkpt lat="43.10057" lon="5.95694">
        <ele>0.14</ele>
        <time>2019-05-29T10:46:13Z</time>
      </trkpt>
      <trkpt lat="43.10063" lon="5.95761">
        <ele>1.1</ele>
        <time>2019-05-29T10:46:36Z</time>
      </trkpt>
      <trkpt lat="43.10068" lon="5.95824">
        <ele>3.02</ele>
        <time>2019-05-29T10:46:59Z</time>
      </trkpt>
      <trkpt lat="43.10074" lon="5.95897">
        <ele>2.54</ele>
        <time>2019-05-29T10:47:23Z</time>
      </trkpt>
      <trkpt lat="43.10081" lon="5.95966">
        <ele>1.58</ele>
        <time>2019-05-29T10:47:45Z</time>
      </trkpt>
      <trkpt lat="43.1009" lon="5.96028">
        <ele>1.1</ele>
        <time>2019-05-29T10:48:07Z</time>
      </trkpt>
      <trkpt lat="43.10101" lon="5.96093">
        <ele>0.62</ele>
        <time>2019-05-29T10:48:28Z</time>
      </trkpt>
      <trkpt lat="43.1011" lon="5.96142">
        <ele>0.14</ele>
        <time>2019-05-29T10:48:43Z</time>
      </trkpt>
      <trkpt lat="43.10117" lon="5.96211">
        <ele>-0.34</ele>
        <time>2019-05-29T10:49:04Z</time>
      </trkpt>
      <trkpt lat="43.10111" lon="5.96272">
        <ele>-0.34</ele>
        <time>2019-05-29T10:49:24Z</time>
      </trkpt>
      <trkpt lat="43.10095" lon="5.96319">
        <ele>0.62</ele>
        <time>2019-05-29T10:49:40Z</time>
      </trkpt>
      <trkpt lat="43.10077" lon="5.96378">
        <ele>0.62</ele>
        <time>2019-05-29T10:50:00Z</time>
      </trkpt>
      <trkpt lat="43.10058" lon="5.96444">
        <ele>0.62</ele>
        <time>2019-05-29T10:50:23Z</time>
      </trkpt>
      <trkpt lat="43.10036" lon="5.96512">
        <ele>0.14</ele>
        <time>2019-05-29T10:50:45Z</time>
      </trkpt>
      <trkpt lat="43.10014" lon="5.96575">
        <ele>0.14</ele>
        <time>2019-05-29T10:51:04Z</time>
      </trkpt>
      <trkpt lat="43.09979" lon="5.96665">
        <ele>-0.34</ele>
        <time>2019-05-29T10:51:30Z</time>
      </trkpt>
      <trkpt lat="43.09943" lon="5.9675">
        <ele>-0.34</ele>
        <time>2019-05-29T10:51:55Z</time>
      </trkpt>
      <trkpt lat="43.09909" lon="5.96823">
        <ele>-0.34</ele>
        <time>2019-05-29T10:52:18Z</time>
      </trkpt>
      <trkpt lat="43.09879" lon="5.96892">
        <ele>1.1</ele>
        <time>2019-05-29T10:52:40Z</time>
      </trkpt>
      <trkpt lat="43.09865" lon="5.96929">
        <ele>0.14</ele>
        <time>2019-05-29T10:52:50Z</time>
      </trkpt>
      <trkpt lat="43.09835" lon="5.96991">
        <ele>-1.79</ele>
        <time>2019-05-29T10:53:07Z</time>
      </trkpt>
      <trkpt lat="43.09807" lon="5.97056">
        <ele>-1.3</ele>
        <time>2019-05-29T10:53:24Z</time>
      </trkpt>
      <trkpt lat="43.09775" lon="5.97129">
        <ele>-0.82</ele>
        <time>2019-05-29T10:53:43Z</time>
      </trkpt>
      <trkpt lat="43.09745" lon="5.97195">
        <ele>-0.82</ele>
        <time>2019-05-29T10:54:01Z</time>
      </trkpt>
      <trkpt lat="43.09713" lon="5.9726">
        <ele>0.62</ele>
        <time>2019-05-29T10:54:19Z</time>
      </trkpt>
      <trkpt lat="43.09685" lon="5.97321">
        <ele>-0.34</ele>
        <time>2019-05-29T10:54:35Z</time>
      </trkpt>
      <trkpt lat="43.09652" lon="5.97396">
        <ele>-1.79</ele>
        <time>2019-05-29T10:54:55Z</time>
      </trkpt>
      <trkpt lat="43.09622" lon="5.97468">
        <ele>-1.3</ele>
        <time>2019-05-29T10:55:14Z</time>
      </trkpt>
      <trkpt lat="43.09599" lon="5.9752">
        <ele>-1.3</ele>
        <time>2019-05-29T10:55:28Z</time>
      </trkpt>
      <trkpt lat="43.09576" lon="5.97571">
        <ele>-1.3</ele>
        <time>2019-05-29T10:55:42Z</time>
      </trkpt>
      <trkpt lat="43.09551" lon="5.97626">
        <ele>0.14</ele>
        <time>2019-05-29T10:55:57Z</time>
      </trkpt>
      <trkpt lat="43.09526" lon="5.97681">
        <ele>0.14</ele>
        <time>2019-05-29T10:56:12Z</time>
      </trkpt>
      <trkpt lat="43.09506" lon="5.9773">
        <ele>0.62</ele>
        <time>2019-05-29T10:56:26Z</time>
      </trkpt>
      <trkpt lat="43.0949" lon="5.97766">
        <ele>0.62</ele>
        <time>2019-05-29T10:56:37Z</time>
      </trkpt>
      <trkpt lat="43.09468" lon="5.97813">
        <ele>0.62</ele>
        <time>2019-05-29T10:56:50Z</time>
      </trkpt>
      <trkpt lat="43.0944" lon="5.97878">
        <ele>0.14</ele>
        <time>2019-05-29T10:57:08Z</time>
      </trkpt>
      <trkpt lat="43.0942" lon="5.97928">
        <ele>0.14</ele>
        <time>2019-05-29T10:57:22Z</time>
      </trkpt>
      <trkpt lat="43.09399" lon="5.97983">
        <ele>-0.82</ele>
        <time>2019-05-29T10:57:38Z</time>
      </trkpt>
      <trkpt lat="43.09377" lon="5.98038">
        <ele>-0.34</ele>
        <time>2019-05-29T10:57:54Z</time>
      </trkpt>
      <trkpt lat="43.09353" lon="5.98094">
        <ele>0.14</ele>
        <time>2019-05-29T10:58:11Z</time>
      </trkpt>
      <trkpt lat="43.09335" lon="5.98139">
        <ele>0.62</ele>
        <time>2019-05-29T10:58:24Z</time>
      </trkpt>
      <trkpt lat="43.09318" lon="5.98184">
        <ele>1.1</ele>
        <time>2019-05-29T10:58:38Z</time>
      </trkpt>
      <trkpt lat="43.09301" lon="5.98231">
        <ele>0.62</ele>
        <time>2019-05-29T10:58:53Z</time>
      </trkpt>
      <trkpt lat="43.09283" lon="5.98269">
        <ele>0.62</ele>
        <time>2019-05-29T10:59:07Z</time>
      </trkpt>
      <trkpt lat="43.09269" lon="5.98306">
        <ele>1.1</ele>
        <time>2019-05-29T10:59:20Z</time>
      </trkpt>
      <trkpt lat="43.09247" lon="5.98355">
        <ele>1.1</ele>
        <time>2019-05-29T10:59:38Z</time>
      </trkpt>
      <trkpt lat="43.09232" lon="5.98391">
        <ele>0.62</ele>
        <time>2019-05-29T10:59:50Z</time>
      </trkpt>
      <trkpt lat="43.09219" lon="5.98433">
        <ele>0.14</ele>
        <time>2019-05-29T11:00:03Z</time>
      </trkpt>
      <trkpt lat="43.09204" lon="5.98478">
        <ele>0.62</ele>
        <time>2019-05-29T11:00:18Z</time>
      </trkpt>
      <trkpt lat="43.09184" lon="5.98521">
        <ele>0.62</ele>
        <time>2019-05-29T11:00:34Z</time>
      </trkpt>
      <trkpt lat="43.09165" lon="5.98562">
        <ele>-0.34</ele>
        <time>2019-05-29T11:00:49Z</time>
      </trkpt>
      <trkpt lat="43.0915" lon="5.98595">
        <ele>-0.34</ele>
        <time>2019-05-29T11:01:00Z</time>
      </trkpt>
      <trkpt lat="43.09128" lon="5.98633">
        <ele>-0.34</ele>
        <time>2019-05-29T11:01:12Z</time>
      </trkpt>
      <trkpt lat="43.09098" lon="5.98691">
        <ele>-0.34</ele>
        <time>2019-05-29T11:01:28Z</time>
      </trkpt>
      <trkpt lat="43.09071" lon="5.98749">
        <ele>-0.34</ele>
        <time>2019-05-29T11:01:44Z</time>
      </trkpt>
      <trkpt lat="43.09045" lon="5.98806">
        <ele>0.14</ele>
        <time>2019-05-29T11:02:00Z</time>
      </trkpt>
      <trkpt lat="43.09022" lon="5.98862">
        <ele>0.14</ele>
        <time>2019-05-29T11:02:16Z</time>
      </trkpt>
      <trkpt lat="43.08997" lon="5.98915">
        <ele>0.14</ele>
        <time>2019-05-29T11:02:31Z</time>
      </trkpt>
      <trkpt lat="43.08976" lon="5.9896">
        <ele>0.14</ele>
        <time>2019-05-29T11:02:44Z</time>
      </trkpt>
      <trkpt lat="43.08955" lon="5.99005">
        <ele>0.14</ele>
        <time>2019-05-29T11:02:57Z</time>
      </trkpt>
      <trkpt lat="43.08933" lon="5.99046">
        <ele>-0.34</ele>
        <time>2019-05-29T11:03:09Z</time>
      </trkpt>
      <trkpt lat="43.08905" lon="5.99084">
        <ele>-0.34</ele>
        <time>2019-05-29T11:03:21Z</time>
      </trkpt>
      <trkpt lat="43.08903" lon="5.99087">
        <ele>-0.34</ele>
        <time>2019-05-29T11:03:22Z</time>
      </trkpt>
      <trkpt lat="43.0888" lon="5.99124">
        <ele>-1.3</ele>
        <time>2019-05-29T11:03:33Z</time>
      </trkpt>
      <trkpt lat="43.08861" lon="5.99168">
        <ele>-0.82</ele>
        <time>2019-05-29T11:03:47Z</time>
      </trkpt>
      <trkpt lat="43.08859" lon="5.99207">
        <ele>-0.82</ele>
        <time>2019-05-29T11:04:00Z</time>
      </trkpt>
      <trkpt lat="43.08858" lon="5.99219">
        <ele>-0.82</ele>
        <time>2019-05-29T11:04:04Z</time>
      </trkpt>
      <trkpt lat="43.0886" lon="5.99237">
        <ele>-0.82</ele>
        <time>2019-05-29T11:04:10Z</time>
      </trkpt>
      <trkpt lat="43.08858" lon="5.99267">
        <ele>-0.34</ele>
        <time>2019-05-29T11:04:20Z</time>
      </trkpt>
      <trkpt lat="43.08855" lon="5.99282">
        <ele>-0.34</ele>
        <time>2019-05-29T11:04:25Z</time>
      </trkpt>
      <trkpt lat="43.08853" lon="5.99298">
        <ele>-0.34</ele>
        <time>2019-05-29T11:04:30Z</time>
      </trkpt>
      <trkpt lat="43.08849" lon="5.99345">
        <ele>0.14</ele>
        <time>2019-05-29T11:04:43Z</time>
      </trkpt>
      <trkpt lat="43.08851" lon="5.99384">
        <ele>0.14</ele>
        <time>2019-05-29T11:04:53Z</time>
      </trkpt>
      <trkpt lat="43.08876" lon="5.99413">
        <ele>0.62</ele>
        <time>2019-05-29T11:05:04Z</time>
      </trkpt>
      <trkpt lat="43.08902" lon="5.99397">
        <ele>0.14</ele>
        <time>2019-05-29T11:05:14Z</time>
      </trkpt>
      <trkpt lat="43.08944" lon="5.99365">
        <ele>1.1</ele>
        <time>2019-05-29T11:05:29Z</time>
      </trkpt>
      <trkpt lat="43.08974" lon="5.99337">
        <ele>1.1</ele>
        <time>2019-05-29T11:05:40Z</time>
      </trkpt>
      <trkpt lat="43.09014" lon="5.99303">
        <ele>0.62</ele>
        <time>2019-05-29T11:05:53Z</time>
      </trkpt>
      <trkpt lat="43.09051" lon="5.99272">
        <ele>1.1</ele>
        <time>2019-05-29T11:06:05Z</time>
      </trkpt>
      <trkpt lat="43.0909" lon="5.99235">
        <ele>1.1</ele>
        <time>2019-05-29T11:06:18Z</time>
      </trkpt>
      <trkpt lat="43.09123" lon="5.99209">
        <ele>0.62</ele>
        <time>2019-05-29T11:06:29Z</time>
      </trkpt>
      <trkpt lat="43.09164" lon="5.99184">
        <ele>0.62</ele>
        <time>2019-05-29T11:06:42Z</time>
      </trkpt>
      <trkpt lat="43.09198" lon="5.99157">
        <ele>0.62</ele>
        <time>2019-05-29T11:06:54Z</time>
      </trkpt>
      <trkpt lat="43.09233" lon="5.99126">
        <ele>0.14</ele>
        <time>2019-05-29T11:07:07Z</time>
      </trkpt>
      <trkpt lat="43.09267" lon="5.99093">
        <ele>0.14</ele>
        <time>2019-05-29T11:07:20Z</time>
      </trkpt>
      <trkpt lat="43.09303" lon="5.99054">
        <ele>-0.34</ele>
        <time>2019-05-29T11:07:34Z</time>
      </trkpt>
      <trkpt lat="43.09339" lon="5.99011">
        <ele>-1.79</ele>
        <time>2019-05-29T11:07:49Z</time>
      </trkpt>
      <trkpt lat="43.09368" lon="5.98972">
        <ele>-1.3</ele>
        <time>2019-05-29T11:08:03Z</time>
      </trkpt>
      <trkpt lat="43.09396" lon="5.98937">
        <ele>-1.79</ele>
        <time>2019-05-29T11:08:16Z</time>
      </trkpt>
      <trkpt lat="43.09424" lon="5.989">
        <ele>-2.27</ele>
        <time>2019-05-29T11:08:29Z</time>
      </trkpt>
      <trkpt lat="43.09452" lon="5.98867">
        <ele>-1.79</ele>
        <time>2019-05-29T11:08:42Z</time>
      </trkpt>
      <trkpt lat="43.09483" lon="5.9883">
        <ele>-2.27</ele>
        <time>2019-05-29T11:08:58Z</time>
      </trkpt>
      <trkpt lat="43.0951" lon="5.98798">
        <ele>-1.3</ele>
        <time>2019-05-29T11:09:13Z</time>
      </trkpt>
      <trkpt lat="43.09538" lon="5.98769">
        <ele>-1.79</ele>
        <time>2019-05-29T11:09:27Z</time>
      </trkpt>
      <trkpt lat="43.09571" lon="5.98735">
        <ele>-2.27</ele>
        <time>2019-05-29T11:09:42Z</time>
      </trkpt>
      <trkpt lat="43.09595" lon="5.98704">
        <ele>-1.3</ele>
        <time>2019-05-29T11:09:54Z</time>
      </trkpt>
      <trkpt lat="43.09621" lon="5.98671">
        <ele>-0.82</ele>
        <time>2019-05-29T11:10:07Z</time>
      </trkpt>
      <trkpt lat="43.09647" lon="5.98641">
        <ele>-2.75</ele>
        <time>2019-05-29T11:10:19Z</time>
      </trkpt>
      <trkpt lat="43.09673" lon="5.98605">
        <ele>-1.79</ele>
        <time>2019-05-29T11:10:32Z</time>
      </trkpt>
      <trkpt lat="43.09697" lon="5.98572">
        <ele>-2.27</ele>
        <time>2019-05-29T11:10:44Z</time>
      </trkpt>
      <trkpt lat="43.09719" lon="5.98543">
        <ele>-1.3</ele>
        <time>2019-05-29T11:10:55Z</time>
      </trkpt>
      <trkpt lat="43.09746" lon="5.9851">
        <ele>1.1</ele>
        <time>2019-05-29T11:11:07Z</time>
      </trkpt>
      <trkpt lat="43.09776" lon="5.98476">
        <ele>1.1</ele>
        <time>2019-05-29T11:11:19Z</time>
      </trkpt>
      <trkpt lat="43.09809" lon="5.98438">
        <ele>-0.82</ele>
        <time>2019-05-29T11:11:32Z</time>
      </trkpt>
      <trkpt lat="43.09839" lon="5.98405">
        <ele>-0.82</ele>
        <time>2019-05-29T11:11:44Z</time>
      </trkpt>
      <trkpt lat="43.09873" lon="5.98372">
        <ele>-0.82</ele>
        <time>2019-05-29T11:11:57Z</time>
      </trkpt>
      <trkpt lat="43.09904" lon="5.98339">
        <ele>1.1</ele>
        <time>2019-05-29T11:12:10Z</time>
      </trkpt>
      <trkpt lat="43.09937" lon="5.98309">
        <ele>0.62</ele>
        <time>2019-05-29T11:12:23Z</time>
      </trkpt>
      <trkpt lat="43.09933" lon="5.98297">
        <ele>-0.34</ele>
        <time>2019-05-29T11:12:28Z</time>
      </trkpt>
      <trkpt lat="43.09915" lon="5.98275">
        <ele>-3.23</ele>
        <time>2019-05-29T11:12:41Z</time>
      </trkpt>
      <trkpt lat="43.09895" lon="5.98253">
        <ele>-5.63</ele>
        <time>2019-05-29T11:12:52Z</time>
      </trkpt>
      <trkpt lat="43.09871" lon="5.98223">
        <ele>-4.67</ele>
        <time>2019-05-29T11:13:04Z</time>
      </trkpt>
      <trkpt lat="43.09841" lon="5.98191">
        <ele>-5.15</ele>
        <time>2019-05-29T11:13:16Z</time>
      </trkpt>
      <trkpt lat="43.09811" lon="5.98157">
        <ele>-5.63</ele>
        <time>2019-05-29T11:13:28Z</time>
      </trkpt>
      <trkpt lat="43.09803" lon="5.98149">
        <ele>-4.19</ele>
        <time>2019-05-29T11:13:31Z</time>
      </trkpt>
      <trkpt lat="43.09771" lon="5.98115">
        <ele>-4.19</ele>
        <time>2019-05-29T11:13:43Z</time>
      </trkpt>
      <trkpt lat="43.09748" lon="5.98083">
        <ele>-5.15</ele>
        <time>2019-05-29T11:13:53Z</time>
      </trkpt>
      <trkpt lat="43.09719" lon="5.98051">
        <ele>-3.71</ele>
        <time>2019-05-29T11:14:04Z</time>
      </trkpt>
      <trkpt lat="43.09677" lon="5.97998">
        <ele>-7.07</ele>
        <time>2019-05-29T11:14:20Z</time>
      </trkpt>
      <trkpt lat="43.09649" lon="5.97963">
        <ele>-7.07</ele>
        <time>2019-05-29T11:14:31Z</time>
      </trkpt>
      <trkpt lat="43.09621" lon="5.9793">
        <ele>-6.11</ele>
        <time>2019-05-29T11:14:42Z</time>
      </trkpt>
      <trkpt lat="43.09586" lon="5.97892">
        <ele>-7.07</ele>
        <time>2019-05-29T11:14:54Z</time>
      </trkpt>
      <trkpt lat="43.0957" lon="5.97878">
        <ele>-6.59</ele>
        <time>2019-05-29T11:14:59Z</time>
      </trkpt>
      <trkpt lat="43.09529" lon="5.97836">
        <ele>-4.19</ele>
        <time>2019-05-29T11:15:14Z</time>
      </trkpt>
      <trkpt lat="43.09499" lon="5.97804">
        <ele>-3.71</ele>
        <time>2019-05-29T11:15:25Z</time>
      </trkpt>
      <trkpt lat="43.09471" lon="5.97772">
        <ele>-3.23</ele>
        <time>2019-05-29T11:15:36Z</time>
      </trkpt>
      <trkpt lat="43.09447" lon="5.97737">
        <ele>-2.75</ele>
        <time>2019-05-29T11:15:47Z</time>
      </trkpt>
      <trkpt lat="43.09419" lon="5.977">
        <ele>-3.23</ele>
        <time>2019-05-29T11:15:59Z</time>
      </trkpt>
      <trkpt lat="43.09384" lon="5.97653">
        <ele>-3.71</ele>
        <time>2019-05-29T11:16:14Z</time>
      </trkpt>
      <trkpt lat="43.09352" lon="5.97615">
        <ele>-4.67</ele>
        <time>2019-05-29T11:16:26Z</time>
      </trkpt>
      <trkpt lat="43.09322" lon="5.97569">
        <ele>-6.11</ele>
        <time>2019-05-29T11:16:39Z</time>
      </trkpt>
      <trkpt lat="43.09293" lon="5.97528">
        <ele>-5.63</ele>
        <time>2019-05-29T11:16:51Z</time>
      </trkpt>
      <trkpt lat="43.09266" lon="5.97488">
        <ele>-7.07</ele>
        <time>2019-05-29T11:17:03Z</time>
      </trkpt>
      <trkpt lat="43.09233" lon="5.97441">
        <ele>-6.59</ele>
        <time>2019-05-29T11:17:17Z</time>
      </trkpt>
      <trkpt lat="43.09204" lon="5.97404">
        <ele>-4.19</ele>
        <time>2019-05-29T11:17:29Z</time>
      </trkpt>
      <trkpt lat="43.09172" lon="5.97359">
        <ele>-5.15</ele>
        <time>2019-05-29T11:17:43Z</time>
      </trkpt>
      <trkpt lat="43.09136" lon="5.97316">
        <ele>-3.71</ele>
        <time>2019-05-29T11:17:58Z</time>
      </trkpt>
      <trkpt lat="43.09106" lon="5.97273">
        <ele>-4.19</ele>
        <time>2019-05-29T11:18:11Z</time>
      </trkpt>
      <trkpt lat="43.09073" lon="5.97222">
        <ele>-4.67</ele>
        <time>2019-05-29T11:18:26Z</time>
      </trkpt>
      <trkpt lat="43.09045" lon="5.97183">
        <ele>-4.19</ele>
        <time>2019-05-29T11:18:38Z</time>
      </trkpt>
      <trkpt lat="43.09017" lon="5.97145">
        <ele>-2.75</ele>
        <time>2019-05-29T11:18:50Z</time>
      </trkpt>
      <trkpt lat="43.08984" lon="5.97101">
        <ele>-2.75</ele>
        <time>2019-05-29T11:19:04Z</time>
      </trkpt>
      <trkpt lat="43.08956" lon="5.97064">
        <ele>-3.23</ele>
        <time>2019-05-29T11:19:16Z</time>
      </trkpt>
      <trkpt lat="43.0892" lon="5.97024">
        <ele>-4.19</ele>
        <time>2019-05-29T11:19:30Z</time>
      </trkpt>
      <trkpt lat="43.08893" lon="5.96987">
        <ele>-4.67</ele>
        <time>2019-05-29T11:19:41Z</time>
      </trkpt>
      <trkpt lat="43.08856" lon="5.96938">
        <ele>-3.71</ele>
        <time>2019-05-29T11:19:56Z</time>
      </trkpt>
      <trkpt lat="43.0882" lon="5.96891">
        <ele>-5.15</ele>
        <time>2019-05-29T11:20:10Z</time>
      </trkpt>
      <trkpt lat="43.08789" lon="5.96847">
        <ele>-3.23</ele>
        <time>2019-05-29T11:20:23Z</time>
      </trkpt>
      <trkpt lat="43.08765" lon="5.96808">
        <ele>-2.75</ele>
        <time>2019-05-29T11:20:34Z</time>
      </trkpt>
      <trkpt lat="43.08732" lon="5.96761">
        <ele>-2.27</ele>
        <time>2019-05-29T11:20:48Z</time>
      </trkpt>
      <trkpt lat="43.08704" lon="5.96721">
        <ele>-3.23</ele>
        <time>2019-05-29T11:21:00Z</time>
      </trkpt>
      <trkpt lat="43.08673" lon="5.96686">
        <ele>-6.11</ele>
        <time>2019-05-29T11:21:12Z</time>
      </trkpt>
      <trkpt lat="43.08666" lon="5.9667">
        <ele>-6.59</ele>
        <time>2019-05-29T11:21:16Z</time>
      </trkpt>
      <trkpt lat="43.08679" lon="5.96662">
        <ele>-5.63</ele>
        <time>2019-05-29T11:21:23Z</time>
      </trkpt>
      <trkpt lat="43.08712" lon="5.96637">
        <ele>-3.71</ele>
        <time>2019-05-29T11:21:39Z</time>
      </trkpt>
      <trkpt lat="43.08744" lon="5.96613">
        <ele>-2.75</ele>
        <time>2019-05-29T11:21:52Z</time>
      </trkpt>
      <trkpt lat="43.08777" lon="5.96592">
        <ele>-2.75</ele>
        <time>2019-05-29T11:22:05Z</time>
      </trkpt>
      <trkpt lat="43.0882" lon="5.96566">
        <ele>-2.27</ele>
        <time>2019-05-29T11:22:20Z</time>
      </trkpt>
      <trkpt lat="43.08856" lon="5.96543">
        <ele>-1.79</ele>
        <time>2019-05-29T11:22:33Z</time>
      </trkpt>
      <trkpt lat="43.08885" lon="5.9653">
        <ele>-2.27</ele>
        <time>2019-05-29T11:22:44Z</time>
      </trkpt>
      <trkpt lat="43.0889" lon="5.96524">
        <ele>-2.27</ele>
        <time>2019-05-29T11:22:47Z</time>
      </trkpt>
      <trkpt lat="43.08915" lon="5.9652">
        <ele>-1.3</ele>
        <time>2019-05-29T11:22:57Z</time>
      </trkpt>
      <trkpt lat="43.08947" lon="5.96489">
        <ele>-0.82</ele>
        <time>2019-05-29T11:23:13Z</time>
      </trkpt>
      <trkpt lat="43.08973" lon="5.96457">
        <ele>-1.3</ele>
        <time>2019-05-29T11:23:28Z</time>
      </trkpt>
      <trkpt lat="43.08979" lon="5.96445">
        <ele>-1.79</ele>
        <time>2019-05-29T11:23:33Z</time>
      </trkpt>
      <trkpt lat="43.09007" lon="5.96427">
        <ele>-1.79</ele>
        <time>2019-05-29T11:23:45Z</time>
      </trkpt>
      <trkpt lat="43.09038" lon="5.96396">
        <ele>-1.3</ele>
        <time>2019-05-29T11:23:58Z</time>
      </trkpt>
      <trkpt lat="43.09066" lon="5.96363">
        <ele>-0.34</ele>
        <time>2019-05-29T11:24:11Z</time>
      </trkpt>
      <trkpt lat="43.09092" lon="5.96333">
        <ele>-1.3</ele>
        <time>2019-05-29T11:24:23Z</time>
      </trkpt>
      <trkpt lat="43.09127" lon="5.96297">
        <ele>-2.27</ele>
        <time>2019-05-29T11:24:39Z</time>
      </trkpt>
      <trkpt lat="43.09154" lon="5.96262">
        <ele>-2.27</ele>
        <time>2019-05-29T11:24:53Z</time>
      </trkpt>
      <trkpt lat="43.09182" lon="5.96228">
        <ele>-1.79</ele>
        <time>2019-05-29T11:25:07Z</time>
      </trkpt>
      <trkpt lat="43.09211" lon="5.9619">
        <ele>-2.27</ele>
        <time>2019-05-29T11:25:23Z</time>
      </trkpt>
      <trkpt lat="43.0924" lon="5.96157">
        <ele>-1.79</ele>
        <time>2019-05-29T11:25:37Z</time>
      </trkpt>
      <trkpt lat="43.09276" lon="5.96124">
        <ele>-1.79</ele>
        <time>2019-05-29T11:25:52Z</time>
      </trkpt>
      <trkpt lat="43.09301" lon="5.96101">
        <ele>-1.3</ele>
        <time>2019-05-29T11:26:03Z</time>
      </trkpt>
      <trkpt lat="43.09332" lon="5.96075">
        <ele>-1.79</ele>
        <time>2019-05-29T11:26:15Z</time>
      </trkpt>
      <trkpt lat="43.09366" lon="5.96047">
        <ele>-1.79</ele>
        <time>2019-05-29T11:26:28Z</time>
      </trkpt>
      <trkpt lat="43.09396" lon="5.96022">
        <ele>-2.27</ele>
        <time>2019-05-29T11:26:40Z</time>
      </trkpt>
      <trkpt lat="43.09424" lon="5.96">
        <ele>-1.79</ele>
        <time>2019-05-29T11:26:51Z</time>
      </trkpt>
      <trkpt lat="43.09451" lon="5.95977">
        <ele>-3.23</ele>
        <time>2019-05-29T11:27:02Z</time>
      </trkpt>
      <trkpt lat="43.09486" lon="5.95951">
        <ele>-2.75</ele>
        <time>2019-05-29T11:27:15Z</time>
      </trkpt>
      <trkpt lat="43.09515" lon="5.9593">
        <ele>-3.71</ele>
        <time>2019-05-29T11:27:25Z</time>
      </trkpt>
      <trkpt lat="43.09551" lon="5.95905">
        <ele>-2.75</ele>
        <time>2019-05-29T11:27:37Z</time>
      </trkpt>
      <trkpt lat="43.09584" lon="5.95882">
        <ele>-2.75</ele>
        <time>2019-05-29T11:27:48Z</time>
      </trkpt>
      <trkpt lat="43.09621" lon="5.95859">
        <ele>-3.71</ele>
        <time>2019-05-29T11:28:00Z</time>
      </trkpt>
      <trkpt lat="43.09663" lon="5.95832">
        <ele>-4.19</ele>
        <time>2019-05-29T11:28:13Z</time>
      </trkpt>
      <trkpt lat="43.09701" lon="5.95808">
        <ele>-3.71</ele>
        <time>2019-05-29T11:28:25Z</time>
      </trkpt>
      <trkpt lat="43.09737" lon="5.95788">
        <ele>-4.19</ele>
        <time>2019-05-29T11:28:36Z</time>
      </trkpt>
      <trkpt lat="43.09767" lon="5.95769">
        <ele>-3.23</ele>
        <time>2019-05-29T11:28:46Z</time>
      </trkpt>
      <trkpt lat="43.09769" lon="5.95766">
        <ele>-3.23</ele>
        <time>2019-05-29T11:28:47Z</time>
      </trkpt>
      <trkpt lat="43.09756" lon="5.95749">
        <ele>-3.71</ele>
        <time>2019-05-29T11:28:56Z</time>
      </trkpt>
      <trkpt lat="43.09753" lon="5.95745">
        <ele>-4.19</ele>
        <time>2019-05-29T11:28:58Z</time>
      </trkpt>
      <trkpt lat="43.0973" lon="5.95718">
        <ele>-7.55</ele>
        <time>2019-05-29T11:29:10Z</time>
      </trkpt>
      <trkpt lat="43.09724" lon="5.9571">
        <ele>-7.55</ele>
        <time>2019-05-29T11:29:13Z</time>
      </trkpt>
      <trkpt lat="43.09694" lon="5.95675">
        <ele>-8.03</ele>
        <time>2019-05-29T11:29:27Z</time>
      </trkpt>
      <trkpt lat="43.09669" lon="5.95642">
        <ele>-7.07</ele>
        <time>2019-05-29T11:29:40Z</time>
      </trkpt>
      <trkpt lat="43.09641" lon="5.95616">
        <ele>-8.03</ele>
        <time>2019-05-29T11:29:51Z</time>
      </trkpt>
      <trkpt lat="43.09638" lon="5.95614">
        <ele>-8.51</ele>
        <time>2019-05-29T11:29:52Z</time>
      </trkpt>
      <trkpt lat="43.09596" lon="5.95586">
        <ele>-6.11</ele>
        <time>2019-05-29T11:30:05Z</time>
      </trkpt>
      <trkpt lat="43.09592" lon="5.95584">
        <ele>-6.11</ele>
        <time>2019-05-29T11:30:06Z</time>
      </trkpt>
      <trkpt lat="43.09553" lon="5.95552">
        <ele>-6.11</ele>
        <time>2019-05-29T11:30:19Z</time>
      </trkpt>
      <trkpt lat="43.09518" lon="5.95518">
        <ele>-8.51</ele>
        <time>2019-05-29T11:30:31Z</time>
      </trkpt>
      <trkpt lat="43.09482" lon="5.95484">
        <ele>-7.07</ele>
        <time>2019-05-29T11:30:44Z</time>
      </trkpt>
      <trkpt lat="43.09449" lon="5.95456">
        <ele>-8.51</ele>
        <time>2019-05-29T11:30:55Z</time>
      </trkpt>
      <trkpt lat="43.09404" lon="5.95418">
        <ele>-6.59</ele>
        <time>2019-05-29T11:31:10Z</time>
      </trkpt>
      <trkpt lat="43.09358" lon="5.95386">
        <ele>-6.11</ele>
        <time>2019-05-29T11:31:24Z</time>
      </trkpt>
      <trkpt lat="43.0934" lon="5.95369">
        <ele>-7.07</ele>
        <time>2019-05-29T11:31:30Z</time>
      </trkpt>
      <trkpt lat="43.09329" lon="5.95346">
        <ele>-6.11</ele>
        <time>2019-05-29T11:31:38Z</time>
      </trkpt>
      <trkpt lat="43.09334" lon="5.95345">
        <ele>-6.11</ele>
        <time>2019-05-29T11:31:40Z</time>
      </trkpt>
      <trkpt lat="43.09363" lon="5.95329">
        <ele>-4.67</ele>
        <time>2019-05-29T11:31:54Z</time>
      </trkpt>
      <trkpt lat="43.09389" lon="5.95307">
        <ele>-4.19</ele>
        <time>2019-05-29T11:32:06Z</time>
      </trkpt>
      <trkpt lat="43.09422" lon="5.95277">
        <ele>-5.15</ele>
        <time>2019-05-29T11:32:20Z</time>
      </trkpt>
      <trkpt lat="43.09458" lon="5.95243">
        <ele>-4.19</ele>
        <time>2019-05-29T11:32:34Z</time>
      </trkpt>
      <trkpt lat="43.09485" lon="5.9522">
        <ele>-2.75</ele>
        <time>2019-05-29T11:32:44Z</time>
      </trkpt>
      <trkpt lat="43.09526" lon="5.95188">
        <ele>-2.27</ele>
        <time>2019-05-29T11:32:58Z</time>
      </trkpt>
      <trkpt lat="43.09557" lon="5.95163">
        <ele>-2.27</ele>
        <time>2019-05-29T11:33:09Z</time>
      </trkpt>
      <trkpt lat="43.09587" lon="5.95134">
        <ele>-4.19</ele>
        <time>2019-05-29T11:33:21Z</time>
      </trkpt>
      <trkpt lat="43.09615" lon="5.95112">
        <ele>-3.71</ele>
        <time>2019-05-29T11:33:32Z</time>
      </trkpt>
      <trkpt lat="43.09649" lon="5.95081">
        <ele>-2.27</ele>
        <time>2019-05-29T11:33:46Z</time>
      </trkpt>
      <trkpt lat="43.09679" lon="5.95051">
        <ele>-2.75</ele>
        <time>2019-05-29T11:33:59Z</time>
      </trkpt>
      <trkpt lat="43.09716" lon="5.95011">
        <ele>-3.71</ele>
        <time>2019-05-29T11:34:14Z</time>
      </trkpt>
      <trkpt lat="43.09754" lon="5.94975">
        <ele>-3.71</ele>
        <time>2019-05-29T11:34:29Z</time>
      </trkpt>
      <trkpt lat="43.09782" lon="5.94943">
        <ele>-4.19</ele>
        <time>2019-05-29T11:34:41Z</time>
      </trkpt>
      <trkpt lat="43.09818" lon="5.94914">
        <ele>-3.71</ele>
        <time>2019-05-29T11:34:54Z</time>
      </trkpt>
      <trkpt lat="43.09864" lon="5.94875">
        <ele>-2.75</ele>
        <time>2019-05-29T11:35:10Z</time>
      </trkpt>
      <trkpt lat="43.09897" lon="5.94849">
        <ele>-4.19</ele>
        <time>2019-05-29T11:35:22Z</time>
      </trkpt>
      <trkpt lat="43.09935" lon="5.94823">
        <ele>-4.19</ele>
        <time>2019-05-29T11:35:35Z</time>
      </trkpt>
      <trkpt lat="43.09949" lon="5.94804">
        <ele>-3.23</ele>
        <time>2019-05-29T11:35:46Z</time>
      </trkpt>
      <trkpt lat="43.09948" lon="5.94799">
        <ele>-3.23</ele>
        <time>2019-05-29T11:35:50Z</time>
      </trkpt>
      <trkpt lat="43.09952" lon="5.94795">
        <ele>-3.23</ele>
        <time>2019-05-29T11:35:54Z</time>
      </trkpt>
      <trkpt lat="43.09985" lon="5.9478">
        <ele>-1.79</ele>
        <time>2019-05-29T11:36:06Z</time>
      </trkpt>
      <trkpt lat="43.10044" lon="5.94763">
        <ele>-1.3</ele>
        <time>2019-05-29T11:36:22Z</time>
      </trkpt>
      <trkpt lat="43.10091" lon="5.94735">
        <ele>-0.82</ele>
        <time>2019-05-29T11:36:37Z</time>
      </trkpt>
      <trkpt lat="43.10125" lon="5.94704">
        <ele>-0.82</ele>
        <time>2019-05-29T11:36:51Z</time>
      </trkpt>
      <trkpt lat="43.10142" lon="5.9469">
        <ele>-1.3</ele>
        <time>2019-05-29T11:36:57Z</time>
      </trkpt>
      <trkpt lat="43.10159" lon="5.94703">
        <ele>-1.3</ele>
        <time>2019-05-29T11:37:02Z</time>
      </trkpt>
      <trkpt lat="43.10205" lon="5.94784">
        <ele>-0.82</ele>
        <time>2019-05-29T11:37:21Z</time>
      </trkpt>
      <trkpt lat="43.10232" lon="5.94863">
        <ele>0.62</ele>
        <time>2019-05-29T11:37:38Z</time>
      </trkpt>
      <trkpt lat="43.10249" lon="5.94926">
        <ele>-0.34</ele>
        <time>2019-05-29T11:37:52Z</time>
      </trkpt>
      <trkpt lat="43.10262" lon="5.95015">
        <ele>-0.34</ele>
        <time>2019-05-29T11:38:11Z</time>
      </trkpt>
      <trkpt lat="43.1029" lon="5.95041">
        <ele>-0.82</ele>
        <time>2019-05-29T11:38:22Z</time>
      </trkpt>
      <trkpt lat="43.10317" lon="5.9502">
        <ele>-2.27</ele>
        <time>2019-05-29T11:38:36Z</time>
      </trkpt>
      <trkpt lat="43.10321" lon="5.94999">
        <ele>-3.23</ele>
        <time>2019-05-29T11:38:52Z</time>
      </trkpt>
      <trkpt lat="43.10324" lon="5.94995">
        <ele>-2.75</ele>
        <time>2019-05-29T11:39:09Z</time>
      </trkpt>
      <trkpt lat="43.10325" lon="5.94996">
        <ele>-2.75</ele>
        <time>2019-05-29T11:39:10Z</time>
      </trkpt>
      <trkpt lat="43.10342" lon="5.94991">
        <ele>-3.71</ele>
        <time>2019-05-29T11:39:26Z</time>
      </trkpt>
      <trkpt lat="43.10347" lon="5.94981">
        <ele>-3.71</ele>
        <time>2019-05-29T11:39:46Z</time>
      </trkpt>
      <trkpt lat="43.10346" lon="5.94979">
        <ele>-3.71</ele>
        <time>2019-05-29T11:39:47Z</time>
      </trkpt>
      <trkpt lat="43.10327" lon="5.9495">
        <ele>-5.15</ele>
        <time>2019-05-29T11:40:04Z</time>
      </trkpt>
      <trkpt lat="43.10314" lon="5.9492">
        <ele>-5.63</ele>
        <time>2019-05-29T11:40:18Z</time>
      </trkpt>
      <trkpt lat="43.10306" lon="5.94895">
        <ele>-8.51</ele>
        <time>2019-05-29T11:40:34Z</time>
      </trkpt>
      <trkpt lat="43.10297" lon="5.94878">
        <ele>-11.88</ele>
        <time>2019-05-29T11:40:49Z</time>
      </trkpt>
      <trkpt lat="43.10288" lon="5.94866">
        <ele>-13.8</ele>
        <time>2019-05-29T11:41:04Z</time>
      </trkpt>
      <trkpt lat="43.10286" lon="5.94865">
        <ele>-12.84</ele>
        <time>2019-05-29T11:41:07Z</time>
      </trkpt>
      <trkpt lat="43.10283" lon="5.94863">
        <ele>-11.4</ele>
        <time>2019-05-29T11:41:11Z</time>
      </trkpt>
      <trkpt lat="43.10265" lon="5.94846">
        <ele>-8.03</ele>
        <time>2019-05-29T11:41:35Z</time>
      </trkpt>
      <trkpt lat="43.10256" lon="5.94835">
        <ele>-6.59</ele>
        <time>2019-05-29T11:41:52Z</time>
      </trkpt>
      <trkpt lat="43.10237" lon="5.94819">
        <ele>-8.03</ele>
        <time>2019-05-29T11:42:09Z</time>
      </trkpt>
      <trkpt lat="43.10224" lon="5.948">
        <ele>-7.55</ele>
        <time>2019-05-29T11:42:25Z</time>
      </trkpt>
      <trkpt lat="43.10208" lon="5.94772">
        <ele>-7.55</ele>
        <time>2019-05-29T11:42:45Z</time>
      </trkpt>
      <trkpt lat="43.10198" lon="5.94749">
        <ele>-7.07</ele>
        <time>2019-05-29T11:42:59Z</time>
      </trkpt>
      <trkpt lat="43.10196" lon="5.94745">
        <ele>-6.59</ele>
        <time>2019-05-29T11:43:02Z</time>
      </trkpt>
      <trkpt lat="43.10194" lon="5.94742">
        <ele>-5.15</ele>
        <time>2019-05-29T11:43:04Z</time>
      </trkpt>
      <trkpt lat="43.1019" lon="5.94734">
        <ele>-4.19</ele>
        <time>2019-05-29T11:43:10Z</time>
      </trkpt>
      <trkpt lat="43.10185" lon="5.94723">
        <ele>-4.67</ele>
        <time>2019-05-29T11:43:16Z</time>
      </trkpt>
      <trkpt lat="43.10171" lon="5.94688">
        <ele>-4.67</ele>
        <time>2019-05-29T11:43:35Z</time>
      </trkpt>
      <trkpt lat="43.10156" lon="5.94668">
        <ele>-5.15</ele>
        <time>2019-05-29T11:43:52Z</time>
      </trkpt>
      <trkpt lat="43.10139" lon="5.9464">
        <ele>-4.67</ele>
        <time>2019-05-29T11:44:08Z</time>
      </trkpt>
      <trkpt lat="43.10133" lon="5.94631">
        <ele>-4.19</ele>
        <time>2019-05-29T11:44:14Z</time>
      </trkpt>
      <trkpt lat="43.10126" lon="5.94618">
        <ele>-4.19</ele>
        <time>2019-05-29T11:44:23Z</time>
      </trkpt>
      <trkpt lat="43.10114" lon="5.94596">
        <ele>-4.19</ele>
        <time>2019-05-29T11:44:38Z</time>
      </trkpt>
      <trkpt lat="43.10108" lon="5.94587">
        <ele>-4.19</ele>
        <time>2019-05-29T11:44:44Z</time>
      </trkpt>
      <trkpt lat="43.10103" lon="5.94579">
        <ele>-4.19</ele>
        <time>2019-05-29T11:44:50Z</time>
      </trkpt>
      <trkpt lat="43.10101" lon="5.94575">
        <ele>-5.15</ele>
        <time>2019-05-29T11:44:53Z</time>
      </trkpt>
      <trkpt lat="43.10085" lon="5.9455">
        <ele>-5.63</ele>
        <time>2019-05-29T11:45:08Z</time>
      </trkpt>
      <trkpt lat="43.10076" lon="5.94529">
        <ele>-4.19</ele>
        <time>2019-05-29T11:45:21Z</time>
      </trkpt>
      <trkpt lat="43.10074" lon="5.94525">
        <ele>-4.19</ele>
        <time>2019-05-29T11:45:24Z</time>
      </trkpt>
      <trkpt lat="43.10069" lon="5.94516">
        <ele>-4.67</ele>
        <time>2019-05-29T11:45:30Z</time>
      </trkpt>
      <trkpt lat="43.10048" lon="5.94487">
        <ele>-4.67</ele>
        <time>2019-05-29T11:45:50Z</time>
      </trkpt>
      <trkpt lat="43.10027" lon="5.94457">
        <ele>-4.19</ele>
        <time>2019-05-29T11:46:07Z</time>
      </trkpt>
      <trkpt lat="43.10014" lon="5.94431">
        <ele>-3.71</ele>
        <time>2019-05-29T11:46:22Z</time>
      </trkpt>
      <trkpt lat="43.10004" lon="5.94413">
        <ele>-4.67</ele>
        <time>2019-05-29T11:46:38Z</time>
      </trkpt>
      <trkpt lat="43.10003" lon="5.94412">
        <ele>-5.15</ele>
        <time>2019-05-29T11:46:39Z</time>
      </trkpt>
      <trkpt lat="43.10001" lon="5.94403">
        <ele>-5.15</ele>
        <time>2019-05-29T11:46:44Z</time>
      </trkpt>
      <trkpt lat="43.09987" lon="5.94378">
        <ele>-2.75</ele>
        <time>2019-05-29T11:46:56Z</time>
      </trkpt>
      <trkpt lat="43.09983" lon="5.94365">
        <ele>-3.23</ele>
        <time>2019-05-29T11:47:02Z</time>
      </trkpt>
      <trkpt lat="43.09962" lon="5.94337">
        <ele>-2.27</ele>
        <time>2019-05-29T11:47:21Z</time>
      </trkpt>
      <trkpt lat="43.09946" lon="5.94313">
        <ele>-2.75</ele>
        <time>2019-05-29T11:47:35Z</time>
      </trkpt>
      <trkpt lat="43.09925" lon="5.94282">
        <ele>-0.82</ele>
        <time>2019-05-29T11:47:58Z</time>
      </trkpt>
      <trkpt lat="43.09914" lon="5.94265">
        <ele>-3.71</ele>
        <time>2019-05-29T11:48:10Z</time>
      </trkpt>
      <trkpt lat="43.0991" lon="5.9426">
        <ele>-4.19</ele>
        <time>2019-05-29T11:48:16Z</time>
      </trkpt>
      <trkpt lat="43.09889" lon="5.94245">
        <ele>-5.15</ele>
        <time>2019-05-29T11:48:32Z</time>
      </trkpt>
      <trkpt lat="43.09878" lon="5.9423">
        <ele>-5.15</ele>
        <time>2019-05-29T11:48:42Z</time>
      </trkpt>
      <trkpt lat="43.09862" lon="5.94214">
        <ele>-4.67</ele>
        <time>2019-05-29T11:48:56Z</time>
      </trkpt>
      <trkpt lat="43.09841" lon="5.94192">
        <ele>-5.15</ele>
        <time>2019-05-29T11:49:12Z</time>
      </trkpt>
      <trkpt lat="43.09823" lon="5.94172">
        <ele>-6.59</ele>
        <time>2019-05-29T11:49:26Z</time>
      </trkpt>
      <trkpt lat="43.09801" lon="5.94149">
        <ele>-6.11</ele>
        <time>2019-05-29T11:49:43Z</time>
      </trkpt>
      <trkpt lat="43.09778" lon="5.94127">
        <ele>-6.11</ele>
        <time>2019-05-29T11:49:59Z</time>
      </trkpt>
      <trkpt lat="43.0976" lon="5.94105">
        <ele>-3.71</ele>
        <time>2019-05-29T11:50:12Z</time>
      </trkpt>
      <trkpt lat="43.09741" lon="5.94079">
        <ele>-6.59</ele>
        <time>2019-05-29T11:50:25Z</time>
      </trkpt>
      <trkpt lat="43.09727" lon="5.94056">
        <ele>-6.59</ele>
        <time>2019-05-29T11:50:38Z</time>
      </trkpt>
      <trkpt lat="43.09707" lon="5.94028">
        <ele>-6.59</ele>
        <time>2019-05-29T11:50:54Z</time>
      </trkpt>
      <trkpt lat="43.09686" lon="5.93994">
        <ele>-6.59</ele>
        <time>2019-05-29T11:51:11Z</time>
      </trkpt>
      <trkpt lat="43.09672" lon="5.9397">
        <ele>-5.63</ele>
        <time>2019-05-29T11:51:24Z</time>
      </trkpt>
      <trkpt lat="43.09657" lon="5.93945">
        <ele>-5.63</ele>
        <time>2019-05-29T11:51:39Z</time>
      </trkpt>
      <trkpt lat="43.09643" lon="5.93919">
        <ele>-6.11</ele>
        <time>2019-05-29T11:51:54Z</time>
      </trkpt>
      <trkpt lat="43.09631" lon="5.93899">
        <ele>-4.67</ele>
        <time>2019-05-29T11:52:09Z</time>
      </trkpt>
      <trkpt lat="43.09615" lon="5.93876">
        <ele>-5.63</ele>
        <time>2019-05-29T11:52:29Z</time>
      </trkpt>
      <trkpt lat="43.09601" lon="5.93854">
        <ele>-5.15</ele>
        <time>2019-05-29T11:52:45Z</time>
      </trkpt>
      <trkpt lat="43.09585" lon="5.93826">
        <ele>-4.67</ele>
        <time>2019-05-29T11:53:03Z</time>
      </trkpt>
      <trkpt lat="43.09579" lon="5.93814">
        <ele>-5.15</ele>
        <time>2019-05-29T11:53:10Z</time>
      </trkpt>
      <trkpt lat="43.0957" lon="5.93793">
        <ele>-4.67</ele>
        <time>2019-05-29T11:53:21Z</time>
      </trkpt>
      <trkpt lat="43.09558" lon="5.93767">
        <ele>-3.71</ele>
        <time>2019-05-29T11:53:37Z</time>
      </trkpt>
      <trkpt lat="43.09553" lon="5.93749">
        <ele>-3.71</ele>
        <time>2019-05-29T11:53:54Z</time>
      </trkpt>
      <trkpt lat="43.09551" lon="5.93746">
        <ele>-3.71</ele>
        <time>2019-05-29T11:53:58Z</time>
      </trkpt>
      <trkpt lat="43.09544" lon="5.93739">
        <ele>-4.19</ele>
        <time>2019-05-29T11:54:07Z</time>
      </trkpt>
      <trkpt lat="43.09541" lon="5.93737">
        <ele>-4.19</ele>
        <time>2019-05-29T11:54:11Z</time>
      </trkpt>
      <trkpt lat="43.09535" lon="5.93731">
        <ele>-5.15</ele>
        <time>2019-05-29T11:54:16Z</time>
      </trkpt>
      <trkpt lat="43.09513" lon="5.93706">
        <ele>-5.15</ele>
        <time>2019-05-29T11:54:32Z</time>
      </trkpt>
      <trkpt lat="43.09496" lon="5.93729">
        <ele>-3.71</ele>
        <time>2019-05-29T11:54:44Z</time>
      </trkpt>
      <trkpt lat="43.09486" lon="5.93786">
        <ele>-2.75</ele>
        <time>2019-05-29T11:55:03Z</time>
      </trkpt>
      <trkpt lat="43.09487" lon="5.9385">
        <ele>-2.27</ele>
        <time>2019-05-29T11:55:22Z</time>
      </trkpt>
      <trkpt lat="43.09503" lon="5.9392">
        <ele>-3.23</ele>
        <time>2019-05-29T11:55:42Z</time>
      </trkpt>
      <trkpt lat="43.09523" lon="5.93982">
        <ele>-3.71</ele>
        <time>2019-05-29T11:56:01Z</time>
      </trkpt>
      <trkpt lat="43.09555" lon="5.94044">
        <ele>-3.23</ele>
        <time>2019-05-29T11:56:22Z</time>
      </trkpt>
      <trkpt lat="43.09583" lon="5.94097">
        <ele>-3.23</ele>
        <time>2019-05-29T11:56:39Z</time>
      </trkpt>
      <trkpt lat="43.09611" lon="5.94165">
        <ele>-3.23</ele>
        <time>2019-05-29T11:56:59Z</time>
      </trkpt>
      <trkpt lat="43.09639" lon="5.94238">
        <ele>-3.23</ele>
        <time>2019-05-29T11:57:20Z</time>
      </trkpt>
      <trkpt lat="43.09667" lon="5.94308">
        <ele>-3.71</ele>
        <time>2019-05-29T11:57:42Z</time>
      </trkpt>
      <trkpt lat="43.09698" lon="5.9438">
        <ele>-3.71</ele>
        <time>2019-05-29T11:58:06Z</time>
      </trkpt>
      <trkpt lat="43.09724" lon="5.94437">
        <ele>-4.67</ele>
        <time>2019-05-29T11:58:26Z</time>
      </trkpt>
      <trkpt lat="43.09753" lon="5.94505">
        <ele>-4.19</ele>
        <time>2019-05-29T11:58:50Z</time>
      </trkpt>
      <trkpt lat="43.09782" lon="5.94567">
        <ele>-4.19</ele>
        <time>2019-05-29T11:59:10Z</time>
      </trkpt>
      <trkpt lat="43.09812" lon="5.94627">
        <ele>-3.71</ele>
        <time>2019-05-29T11:59:29Z</time>
      </trkpt>
      <trkpt lat="43.09832" lon="5.94687">
        <ele>-2.75</ele>
        <time>2019-05-29T11:59:46Z</time>
      </trkpt>
      <trkpt lat="43.09834" lon="5.94749">
        <ele>-2.27</ele>
        <time>2019-05-29T12:00:01Z</time>
      </trkpt>
      <trkpt lat="43.09811" lon="5.94762">
        <ele>-2.75</ele>
        <time>2019-05-29T12:00:11Z</time>
      </trkpt>
      <trkpt lat="43.09807" lon="5.94752">
        <ele>-2.75</ele>
        <time>2019-05-29T12:00:16Z</time>
      </trkpt>
      <trkpt lat="43.09783" lon="5.94725">
        <ele>-2.27</ele>
        <time>2019-05-29T12:00:30Z</time>
      </trkpt>
      <trkpt lat="43.09775" lon="5.947">
        <ele>-1.79</ele>
        <time>2019-05-29T12:00:43Z</time>
      </trkpt>
      <trkpt lat="43.09763" lon="5.94679">
        <ele>-3.23</ele>
        <time>2019-05-29T12:00:58Z</time>
      </trkpt>
      <trkpt lat="43.09756" lon="5.94664">
        <ele>-3.23</ele>
        <time>2019-05-29T12:01:07Z</time>
      </trkpt>
      <trkpt lat="43.09747" lon="5.94649">
        <ele>-2.75</ele>
        <time>2019-05-29T12:01:20Z</time>
      </trkpt>
      <trkpt lat="43.09741" lon="5.9464">
        <ele>-3.23</ele>
        <time>2019-05-29T12:01:29Z</time>
      </trkpt>
      <trkpt lat="43.0973" lon="5.94624">
        <ele>-4.19</ele>
        <time>2019-05-29T12:01:41Z</time>
      </trkpt>
      <trkpt lat="43.09725" lon="5.94616">
        <ele>-4.19</ele>
        <time>2019-05-29T12:01:47Z</time>
      </trkpt>
      <trkpt lat="43.09719" lon="5.94604">
        <ele>-4.19</ele>
        <time>2019-05-29T12:01:55Z</time>
      </trkpt>
      <trkpt lat="43.09709" lon="5.94586">
        <ele>-3.23</ele>
        <time>2019-05-29T12:02:09Z</time>
      </trkpt>
      <trkpt lat="43.09707" lon="5.9457">
        <ele>-3.23</ele>
        <time>2019-05-29T12:02:23Z</time>
      </trkpt>
      <trkpt lat="43.09712" lon="5.94566">
        <ele>-3.71</ele>
        <time>2019-05-29T12:02:28Z</time>
      </trkpt>
      <trkpt lat="43.09735" lon="5.94564">
        <ele>-4.67</ele>
        <time>2019-05-29T12:02:40Z</time>
      </trkpt>
      <trkpt lat="43.09759" lon="5.946">
        <ele>-4.19</ele>
        <time>2019-05-29T12:02:54Z</time>
      </trkpt>
      <trkpt lat="43.09777" lon="5.94644">
        <ele>-2.27</ele>
        <time>2019-05-29T12:03:08Z</time>
      </trkpt>
      <trkpt lat="43.09802" lon="5.94689">
        <ele>-2.27</ele>
        <time>2019-05-29T12:03:24Z</time>
      </trkpt>
      <trkpt lat="43.0983" lon="5.94728">
        <ele>-1.79</ele>
        <time>2019-05-29T12:03:40Z</time>
      </trkpt>
      <trkpt lat="43.09846" lon="5.94777">
        <ele>-1.3</ele>
        <time>2019-05-29T12:03:56Z</time>
      </trkpt>
      <trkpt lat="43.09869" lon="5.94838">
        <ele>-1.3</ele>
        <time>2019-05-29T12:04:17Z</time>
      </trkpt>
      <trkpt lat="43.09899" lon="5.94878">
        <ele>-2.27</ele>
        <time>2019-05-29T12:04:34Z</time>
      </trkpt>
      <trkpt lat="43.09928" lon="5.94907">
        <ele>-2.27</ele>
        <time>2019-05-29T12:04:48Z</time>
      </trkpt>
      <trkpt lat="43.09966" lon="5.94937">
        <ele>-2.27</ele>
        <time>2019-05-29T12:05:05Z</time>
      </trkpt>
      <trkpt lat="43.10006" lon="5.94959">
        <ele>-3.23</ele>
        <time>2019-05-29T12:05:21Z</time>
      </trkpt>
      <trkpt lat="43.10044" lon="5.9497">
        <ele>-1.79</ele>
        <time>2019-05-29T12:05:35Z</time>
      </trkpt>
      <trkpt lat="43.1008" lon="5.95008">
        <ele>-1.79</ele>
        <time>2019-05-29T12:05:51Z</time>
      </trkpt>
      <trkpt lat="43.10107" lon="5.9505">
        <ele>-2.27</ele>
        <time>2019-05-29T12:06:06Z</time>
      </trkpt>
      <trkpt lat="43.10143" lon="5.95084">
        <ele>-0.82</ele>
        <time>2019-05-29T12:06:23Z</time>
      </trkpt>
      <trkpt lat="43.10177" lon="5.95103">
        <ele>-1.3</ele>
        <time>2019-05-29T12:06:37Z</time>
      </trkpt>
      <trkpt lat="43.10211" lon="5.95118">
        <ele>-2.75</ele>
        <time>2019-05-29T12:06:50Z</time>
      </trkpt>
      <trkpt lat="43.10245" lon="5.95182">
        <ele>-3.23</ele>
        <time>2019-05-29T12:07:09Z</time>
      </trkpt>
      <trkpt lat="43.10262" lon="5.95252">
        <ele>-3.23</ele>
        <time>2019-05-29T12:07:27Z</time>
      </trkpt>
      <trkpt lat="43.10272" lon="5.9533">
        <ele>-3.23</ele>
        <time>2019-05-29T12:07:49Z</time>
      </trkpt>
      <trkpt lat="43.10283" lon="5.95388">
        <ele>-3.71</ele>
        <time>2019-05-29T12:08:07Z</time>
      </trkpt>
      <trkpt lat="43.1031" lon="5.95459">
        <ele>-3.23</ele>
        <time>2019-05-29T12:08:28Z</time>
      </trkpt>
      <trkpt lat="43.1034" lon="5.95515">
        <ele>-3.23</ele>
        <time>2019-05-29T12:08:45Z</time>
      </trkpt>
      <trkpt lat="43.10346" lon="5.95574">
        <ele>-2.75</ele>
        <time>2019-05-29T12:09:00Z</time>
      </trkpt>
      <trkpt lat="43.10331" lon="5.95627">
        <ele>-2.27</ele>
        <time>2019-05-29T12:09:14Z</time>
      </trkpt>
      <trkpt lat="43.1031" lon="5.95627">
        <ele>-4.19</ele>
        <time>2019-05-29T12:09:23Z</time>
      </trkpt>
      <trkpt lat="43.10301" lon="5.95609">
        <ele>-5.63</ele>
        <time>2019-05-29T12:09:33Z</time>
      </trkpt>
      <trkpt lat="43.10294" lon="5.95599">
        <ele>-4.19</ele>
        <time>2019-05-29T12:09:43Z</time>
      </trkpt>
      <trkpt lat="43.10284" lon="5.95587">
        <ele>-4.19</ele>
        <time>2019-05-29T12:09:58Z</time>
      </trkpt>
      <trkpt lat="43.10273" lon="5.95582">
        <ele>-3.23</ele>
        <time>2019-05-29T12:10:14Z</time>
      </trkpt>
      <trkpt lat="43.10265" lon="5.9558">
        <ele>-5.63</ele>
        <time>2019-05-29T12:10:32Z</time>
      </trkpt>
      <trkpt lat="43.10264" lon="5.9558">
        <ele>-5.15</ele>
        <time>2019-05-29T12:10:33Z</time>
      </trkpt>
      <trkpt lat="43.10257" lon="5.9558">
        <ele>-4.67</ele>
        <time>2019-05-29T12:10:41Z</time>
      </trkpt>
      <trkpt lat="43.10246" lon="5.95574">
        <ele>-3.71</ele>
        <time>2019-05-29T12:10:57Z</time>
      </trkpt>
      <trkpt lat="43.10243" lon="5.95572">
        <ele>-3.71</ele>
        <time>2019-05-29T12:11:09Z</time>
      </trkpt>
      <trkpt lat="43.10241" lon="5.95572">
        <ele>-3.71</ele>
        <time>2019-05-29T12:11:22Z</time>
      </trkpt>
      <trkpt lat="43.10225" lon="5.95566">
        <ele>-3.71</ele>
        <time>2019-05-29T12:11:32Z</time>
      </trkpt>
      <trkpt lat="43.10225" lon="5.95555">
        <ele>-0.82</ele>
        <time>2019-05-29T12:11:37Z</time>
      </trkpt>
      <trkpt lat="43.10226" lon="5.95533">
        <ele>-1.3</ele>
        <time>2019-05-29T12:11:53Z</time>
      </trkpt>
      <trkpt lat="43.10224" lon="5.95523">
        <ele>-2.75</ele>
        <time>2019-05-29T12:12:08Z</time>
      </trkpt>
      <trkpt lat="43.10219" lon="5.9552">
        <ele>-4.19</ele>
        <time>2019-05-29T12:12:18Z</time>
      </trkpt>
      <trkpt lat="43.10214" lon="5.9552">
        <ele>-5.63</ele>
        <time>2019-05-29T12:12:22Z</time>
      </trkpt>
      <trkpt lat="43.10212" lon="5.95518">
        <ele>-5.63</ele>
        <time>2019-05-29T12:12:24Z</time>
      </trkpt>
      <trkpt lat="43.10206" lon="5.95501">
        <ele>-4.67</ele>
        <time>2019-05-29T12:12:40Z</time>
      </trkpt>
      <trkpt lat="43.10204" lon="5.95493">
        <ele>-3.71</ele>
        <time>2019-05-29T12:12:49Z</time>
      </trkpt>
      <trkpt lat="43.102" lon="5.95486">
        <ele>-3.71</ele>
        <time>2019-05-29T12:13:03Z</time>
      </trkpt>
      <trkpt lat="43.10196" lon="5.95482">
        <ele>-4.19</ele>
        <time>2019-05-29T12:13:14Z</time>
      </trkpt>
      <trkpt lat="43.10185" lon="5.9548">
        <ele>-3.23</ele>
        <time>2019-05-29T12:13:30Z</time>
      </trkpt>
      <trkpt lat="43.10173" lon="5.95479">
        <ele>-4.67</ele>
        <time>2019-05-29T12:13:43Z</time>
      </trkpt>
      <trkpt lat="43.10157" lon="5.95465">
        <ele>-3.23</ele>
        <time>2019-05-29T12:13:57Z</time>
      </trkpt>
      <trkpt lat="43.10161" lon="5.95438">
        <ele>-1.3</ele>
        <time>2019-05-29T12:14:10Z</time>
      </trkpt>
      <trkpt lat="43.10169" lon="5.95398">
        <ele>-3.71</ele>
        <time>2019-05-29T12:14:26Z</time>
      </trkpt>
      <trkpt lat="43.10176" lon="5.95362">
        <ele>-3.23</ele>
        <time>2019-05-29T12:14:40Z</time>
      </trkpt>
      <trkpt lat="43.10185" lon="5.95328">
        <ele>-2.75</ele>
        <time>2019-05-29T12:14:57Z</time>
      </trkpt>
      <trkpt lat="43.10187" lon="5.95321">
        <ele>-2.75</ele>
        <time>2019-05-29T12:15:02Z</time>
      </trkpt>
      <trkpt lat="43.10188" lon="5.95314">
        <ele>-2.27</ele>
        <time>2019-05-29T12:15:06Z</time>
      </trkpt>
      <trkpt lat="43.10194" lon="5.95292">
        <ele>-2.75</ele>
        <time>2019-05-29T12:15:21Z</time>
      </trkpt>
      <trkpt lat="43.10202" lon="5.95269">
        <ele>-2.75</ele>
        <time>2019-05-29T12:15:38Z</time>
      </trkpt>
      <trkpt lat="43.10203" lon="5.95258">
        <ele>-2.27</ele>
        <time>2019-05-29T12:15:46Z</time>
      </trkpt>
      <trkpt lat="43.10201" lon="5.95246">
        <ele>-2.75</ele>
        <time>2019-05-29T12:15:57Z</time>
      </trkpt>
      <trkpt lat="43.10201" lon="5.95244">
        <ele>-2.75</ele>
        <time>2019-05-29T12:15:59Z</time>
      </trkpt>
      <trkpt lat="43.10201" lon="5.95234">
        <ele>-3.71</ele>
        <time>2019-05-29T12:16:10Z</time>
      </trkpt>
      <trkpt lat="43.10203" lon="5.95223">
        <ele>-3.71</ele>
        <time>2019-05-29T12:16:22Z</time>
      </trkpt>
      <trkpt lat="43.1021" lon="5.95208">
        <ele>-2.75</ele>
        <time>2019-05-29T12:16:35Z</time>
      </trkpt>
      <trkpt lat="43.10217" lon="5.95183">
        <ele>-4.19</ele>
        <time>2019-05-29T12:16:53Z</time>
      </trkpt>
      <trkpt lat="43.10214" lon="5.95161">
        <ele>-3.23</ele>
        <time>2019-05-29T12:17:08Z</time>
      </trkpt>
      <trkpt lat="43.10213" lon="5.95153">
        <ele>-2.27</ele>
        <time>2019-05-29T12:17:14Z</time>
      </trkpt>
      <trkpt lat="43.10213" lon="5.95134">
        <ele>-2.75</ele>
        <time>2019-05-29T12:17:29Z</time>
      </trkpt>
      <trkpt lat="43.10211" lon="5.95129">
        <ele>-3.23</ele>
        <time>2019-05-29T12:17:32Z</time>
      </trkpt>
      <trkpt lat="43.102" lon="5.95113">
        <ele>-5.15</ele>
        <time>2019-05-29T12:17:44Z</time>
      </trkpt>
      <trkpt lat="43.10195" lon="5.95112">
        <ele>-4.67</ele>
        <time>2019-05-29T12:17:46Z</time>
      </trkpt>
      <trkpt lat="43.10189" lon="5.95105">
        <ele>-5.15</ele>
        <time>2019-05-29T12:17:50Z</time>
      </trkpt>
      <trkpt lat="43.10171" lon="5.95081">
        <ele>-7.07</ele>
        <time>2019-05-29T12:18:03Z</time>
      </trkpt>
      <trkpt lat="43.10154" lon="5.95055">
        <ele>-4.67</ele>
        <time>2019-05-29T12:18:18Z</time>
      </trkpt>
      <trkpt lat="43.10139" lon="5.95029">
        <ele>-3.71</ele>
        <time>2019-05-29T12:18:34Z</time>
      </trkpt>
      <trkpt lat="43.10128" lon="5.95008">
        <ele>-4.19</ele>
        <time>2019-05-29T12:18:47Z</time>
      </trkpt>
      <trkpt lat="43.10117" lon="5.94985">
        <ele>-3.23</ele>
        <time>2019-05-29T12:19:04Z</time>
      </trkpt>
      <trkpt lat="43.10103" lon="5.94961">
        <ele>-4.67</ele>
        <time>2019-05-29T12:19:19Z</time>
      </trkpt>
      <trkpt lat="43.10091" lon="5.94946">
        <ele>-0.34</ele>
        <time>2019-05-29T12:19:31Z</time>
      </trkpt>
      <trkpt lat="43.10082" lon="5.94923">
        <ele>-3.23</ele>
        <time>2019-05-29T12:19:41Z</time>
      </trkpt>
      <trkpt lat="43.1007" lon="5.94903">
        <ele>-3.71</ele>
        <time>2019-05-29T12:19:53Z</time>
      </trkpt>
      <trkpt lat="43.10056" lon="5.9487">
        <ele>-5.63</ele>
        <time>2019-05-29T12:20:13Z</time>
      </trkpt>
      <trkpt lat="43.10035" lon="5.94844">
        <ele>-5.15</ele>
        <time>2019-05-29T12:20:29Z</time>
      </trkpt>
      <trkpt lat="43.10017" lon="5.94818">
        <ele>-4.19</ele>
        <time>2019-05-29T12:20:43Z</time>
      </trkpt>
      <trkpt lat="43.09998" lon="5.94781">
        <ele>-3.71</ele>
        <time>2019-05-29T12:21:02Z</time>
      </trkpt>
      <trkpt lat="43.09989" lon="5.94768">
        <ele>-4.19</ele>
        <time>2019-05-29T12:21:09Z</time>
      </trkpt>
      <trkpt lat="43.09982" lon="5.94759">
        <ele>-2.27</ele>
        <time>2019-05-29T12:21:15Z</time>
      </trkpt>
      <trkpt lat="43.09979" lon="5.94755">
        <ele>-1.79</ele>
        <time>2019-05-29T12:21:17Z</time>
      </trkpt>
      <trkpt lat="43.09967" lon="5.94735">
        <ele>-5.63</ele>
        <time>2019-05-29T12:21:28Z</time>
      </trkpt>
      <trkpt lat="43.09952" lon="5.94719">
        <ele>-6.11</ele>
        <time>2019-05-29T12:21:39Z</time>
      </trkpt>
      <trkpt lat="43.09944" lon="5.94713">
        <ele>-5.63</ele>
        <time>2019-05-29T12:21:44Z</time>
      </trkpt>
      <trkpt lat="43.09931" lon="5.94704">
        <ele>-5.15</ele>
        <time>2019-05-29T12:21:52Z</time>
      </trkpt>
      <trkpt lat="43.09924" lon="5.94694">
        <ele>-3.71</ele>
        <time>2019-05-29T12:21:59Z</time>
      </trkpt>
      <trkpt lat="43.09926" lon="5.94676">
        <ele>-0.34</ele>
        <time>2019-05-29T12:22:15Z</time>
      </trkpt>
      <trkpt lat="43.09929" lon="5.94673">
        <ele>1.1</ele>
        <time>2019-05-29T12:22:19Z</time>
      </trkpt>
      <trkpt lat="43.09943" lon="5.94653">
        <ele>3.02</ele>
        <time>2019-05-29T12:22:33Z</time>
      </trkpt>
      <trkpt lat="43.09955" lon="5.94631">
        <ele>2.54</ele>
        <time>2019-05-29T12:22:48Z</time>
      </trkpt>
      <trkpt lat="43.09962" lon="5.94624">
        <ele>3.02</ele>
        <time>2019-05-29T12:22:54Z</time>
      </trkpt>
      <trkpt lat="43.0998" lon="5.94607">
        <ele>6.39</ele>
        <time>2019-05-29T12:23:07Z</time>
      </trkpt>
      <trkpt lat="43.10005" lon="5.94589">
        <ele>5.91</ele>
        <time>2019-05-29T12:23:21Z</time>
      </trkpt>
      <trkpt lat="43.10019" lon="5.94588">
        <ele>6.87</ele>
        <time>2019-05-29T12:23:28Z</time>
      </trkpt>
      <trkpt lat="43.10047" lon="5.94597">
        <ele>7.83</ele>
        <time>2019-05-29T12:23:41Z</time>
      </trkpt>
      <trkpt lat="43.10071" lon="5.94616">
        <ele>6.87</ele>
        <time>2019-05-29T12:23:54Z</time>
      </trkpt>
      <trkpt lat="43.10094" lon="5.94636">
        <ele>5.91</ele>
        <time>2019-05-29T12:24:06Z</time>
      </trkpt>
      <trkpt lat="43.10114" lon="5.94673">
        <ele>4.94</ele>
        <time>2019-05-29T12:24:21Z</time>
      </trkpt>
      <trkpt lat="43.1014" lon="5.94706">
        <ele>3.5</ele>
        <time>2019-05-29T12:24:37Z</time>
      </trkpt>
      <trkpt lat="43.10159" lon="5.9474">
        <ele>1.1</ele>
        <time>2019-05-29T12:24:51Z</time>
      </trkpt>
      <trkpt lat="43.10174" lon="5.94788">
        <ele>0.14</ele>
        <time>2019-05-29T12:25:08Z</time>
      </trkpt>
      <trkpt lat="43.10182" lon="5.94838">
        <ele>-0.82</ele>
        <time>2019-05-29T12:25:25Z</time>
      </trkpt>
      <trkpt lat="43.10187" lon="5.94882">
        <ele>-2.27</ele>
        <time>2019-05-29T12:25:40Z</time>
      </trkpt>
      <trkpt lat="43.10194" lon="5.94926">
        <ele>-2.27</ele>
        <time>2019-05-29T12:25:55Z</time>
      </trkpt>
      <trkpt lat="43.10207" lon="5.94976">
        <ele>-2.75</ele>
        <time>2019-05-29T12:26:12Z</time>
      </trkpt>
      <trkpt lat="43.10212" lon="5.95022">
        <ele>-2.27</ele>
        <time>2019-05-29T12:26:28Z</time>
      </trkpt>
      <trkpt lat="43.10214" lon="5.95065">
        <ele>-2.27</ele>
        <time>2019-05-29T12:26:43Z</time>
      </trkpt>
      <trkpt lat="43.10205" lon="5.95105">
        <ele>-2.27</ele>
        <time>2019-05-29T12:26:57Z</time>
      </trkpt>
      <trkpt lat="43.10195" lon="5.9515">
        <ele>-2.27</ele>
        <time>2019-05-29T12:27:13Z</time>
      </trkpt>
      <trkpt lat="43.10187" lon="5.9519">
        <ele>-1.3</ele>
        <time>2019-05-29T12:27:26Z</time>
      </trkpt>
      <trkpt lat="43.10174" lon="5.95239">
        <ele>-1.3</ele>
        <time>2019-05-29T12:27:43Z</time>
      </trkpt>
      <trkpt lat="43.10174" lon="5.9529">
        <ele>-3.23</ele>
        <time>2019-05-29T12:28:01Z</time>
      </trkpt>
      <trkpt lat="43.10176" lon="5.9534">
        <ele>-3.71</ele>
        <time>2019-05-29T12:28:18Z</time>
      </trkpt>
      <trkpt lat="43.10156" lon="5.95381">
        <ele>-4.19</ele>
        <time>2019-05-29T12:28:35Z</time>
      </trkpt>
      <trkpt lat="43.10134" lon="5.95385">
        <ele>-5.15</ele>
        <time>2019-05-29T12:28:45Z</time>
      </trkpt>
      <trkpt lat="43.10126" lon="5.95371">
        <ele>-1.79</ele>
        <time>2019-05-29T12:28:54Z</time>
      </trkpt>
      <trkpt lat="43.10125" lon="5.95356">
        <ele>-1.3</ele>
        <time>2019-05-29T12:29:04Z</time>
      </trkpt>
      <trkpt lat="43.10129" lon="5.95348">
        <ele>-0.82</ele>
        <time>2019-05-29T12:29:10Z</time>
      </trkpt>
      <trkpt lat="43.10149" lon="5.9533">
        <ele>-1.3</ele>
        <time>2019-05-29T12:29:24Z</time>
      </trkpt>
      <trkpt lat="43.10169" lon="5.95305">
        <ele>-1.3</ele>
        <time>2019-05-29T12:29:38Z</time>
      </trkpt>
      <trkpt lat="43.10193" lon="5.95295">
        <ele>0.14</ele>
        <time>2019-05-29T12:29:50Z</time>
      </trkpt>
      <trkpt lat="43.10199" lon="5.95295">
        <ele>0.14</ele>
        <time>2019-05-29T12:29:53Z</time>
      </trkpt>
      <trkpt lat="43.10217" lon="5.95298">
        <ele>0.62</ele>
        <time>2019-05-29T12:30:02Z</time>
      </trkpt>
      <trkpt lat="43.10222" lon="5.95301">
        <ele>0.14</ele>
        <time>2019-05-29T12:30:05Z</time>
      </trkpt>
      <trkpt lat="43.10237" lon="5.95313">
        <ele>-0.34</ele>
        <time>2019-05-29T12:30:14Z</time>
      </trkpt>
      <trkpt lat="43.10259" lon="5.95337">
        <ele>-1.3</ele>
        <time>2019-05-29T12:30:29Z</time>
      </trkpt>
      <trkpt lat="43.10267" lon="5.95341">
        <ele>-1.79</ele>
        <time>2019-05-29T12:30:34Z</time>
      </trkpt>
      <trkpt lat="43.10291" lon="5.9535">
        <ele>-1.3</ele>
        <time>2019-05-29T12:30:48Z</time>
      </trkpt>
      <trkpt lat="43.10293" lon="5.9535">
        <ele>-1.3</ele>
        <time>2019-05-29T12:30:49Z</time>
      </trkpt>
      <trkpt lat="43.10298" lon="5.95352">
        <ele>-1.3</ele>
        <time>2019-05-29T12:30:52Z</time>
      </trkpt>
      <trkpt lat="43.10305" lon="5.95354">
        <ele>-1.79</ele>
        <time>2019-05-29T12:30:56Z</time>
      </trkpt>
      <trkpt lat="43.10324" lon="5.9536">
        <ele>-1.79</ele>
        <time>2019-05-29T12:31:07Z</time>
      </trkpt>
      <trkpt lat="43.10349" lon="5.95366">
        <ele>-1.79</ele>
        <time>2019-05-29T12:31:21Z</time>
      </trkpt>
      <trkpt lat="43.10363" lon="5.9537">
        <ele>-1.79</ele>
        <time>2019-05-29T12:31:28Z</time>
      </trkpt>
      <trkpt lat="43.10397" lon="5.9539">
        <ele>-1.79</ele>
        <time>2019-05-29T12:31:44Z</time>
      </trkpt>
      <trkpt lat="43.10416" lon="5.95422">
        <ele>-2.27</ele>
        <time>2019-05-29T12:31:57Z</time>
      </trkpt>
      <trkpt lat="43.10448" lon="5.95422">
        <ele>-2.75</ele>
        <time>2019-05-29T12:32:14Z</time>
      </trkpt>
      <trkpt lat="43.10454" lon="5.95412">
        <ele>-3.71</ele>
        <time>2019-05-29T12:32:21Z</time>
      </trkpt>
      <trkpt lat="43.10453" lon="5.95407">
        <ele>-4.19</ele>
        <time>2019-05-29T12:32:24Z</time>
      </trkpt>
      <trkpt lat="43.10434" lon="5.95398">
        <ele>-5.63</ele>
        <time>2019-05-29T12:32:37Z</time>
      </trkpt>
      <trkpt lat="43.1043" lon="5.95393">
        <ele>-5.63</ele>
        <time>2019-05-29T12:32:40Z</time>
      </trkpt>
      <trkpt lat="43.10424" lon="5.95384">
        <ele>-6.59</ele>
        <time>2019-05-29T12:32:45Z</time>
      </trkpt>
      <trkpt lat="43.10414" lon="5.95355">
        <ele>-4.19</ele>
        <time>2019-05-29T12:33:03Z</time>
      </trkpt>
      <trkpt lat="43.10406" lon="5.95342">
        <ele>-4.19</ele>
        <time>2019-05-29T12:33:15Z</time>
      </trkpt>
      <trkpt lat="43.10402" lon="5.95337">
        <ele>-2.75</ele>
        <time>2019-05-29T12:33:19Z</time>
      </trkpt>
      <trkpt lat="43.10393" lon="5.95333">
        <ele>-2.27</ele>
        <time>2019-05-29T12:33:23Z</time>
      </trkpt>
      <trkpt lat="43.1039" lon="5.95326">
        <ele>-2.75</ele>
        <time>2019-05-29T12:33:26Z</time>
      </trkpt>
      <trkpt lat="43.10391" lon="5.95317">
        <ele>-3.23</ele>
        <time>2019-05-29T12:33:31Z</time>
      </trkpt>
      <trkpt lat="43.10389" lon="5.9529">
        <ele>0.62</ele>
        <time>2019-05-29T12:33:48Z</time>
      </trkpt>
      <trkpt lat="43.10388" lon="5.95276">
        <ele>-0.82</ele>
        <time>2019-05-29T12:34:01Z</time>
      </trkpt>
      <trkpt lat="43.10375" lon="5.95264">
        <ele>-0.82</ele>
        <time>2019-05-29T12:34:15Z</time>
      </trkpt>
      <trkpt lat="43.1036" lon="5.95252">
        <ele>-4.67</ele>
        <time>2019-05-29T12:34:29Z</time>
      </trkpt>
      <trkpt lat="43.10354" lon="5.95239">
        <ele>-5.15</ele>
        <time>2019-05-29T12:34:41Z</time>
      </trkpt>
      <trkpt lat="43.10346" lon="5.95235">
        <ele>-6.59</ele>
        <time>2019-05-29T12:34:47Z</time>
      </trkpt>
      <trkpt lat="43.10329" lon="5.95218">
        <ele>-6.11</ele>
        <time>2019-05-29T12:35:05Z</time>
      </trkpt>
      <trkpt lat="43.10314" lon="5.95205">
        <ele>-3.23</ele>
        <time>2019-05-29T12:35:23Z</time>
      </trkpt>
      <trkpt lat="43.10306" lon="5.95199">
        <ele>-2.27</ele>
        <time>2019-05-29T12:35:30Z</time>
      </trkpt>
      <trkpt lat="43.10291" lon="5.95184">
        <ele>-4.19</ele>
        <time>2019-05-29T12:35:45Z</time>
      </trkpt>
      <trkpt lat="43.10269" lon="5.95169">
        <ele>-5.63</ele>
        <time>2019-05-29T12:35:58Z</time>
      </trkpt>
      <trkpt lat="43.10267" lon="5.95167">
        <ele>-5.15</ele>
        <time>2019-05-29T12:35:59Z</time>
      </trkpt>
      <trkpt lat="43.10253" lon="5.95152">
        <ele>-3.71</ele>
        <time>2019-05-29T12:36:09Z</time>
      </trkpt>
      <trkpt lat="43.10228" lon="5.95126">
        <ele>-3.71</ele>
        <time>2019-05-29T12:36:23Z</time>
      </trkpt>
      <trkpt lat="43.10208" lon="5.9511">
        <ele>-5.63</ele>
        <time>2019-05-29T12:36:32Z</time>
      </trkpt>
      <trkpt lat="43.10213" lon="5.95097">
        <ele>-5.63</ele>
        <time>2019-05-29T12:36:39Z</time>
      </trkpt>
      <trkpt lat="43.10226" lon="5.95079">
        <ele>-7.55</ele>
        <time>2019-05-29T12:36:53Z</time>
      </trkpt>
      <trkpt lat="43.10248" lon="5.95072">
        <ele>-5.63</ele>
        <time>2019-05-29T12:37:05Z</time>
      </trkpt>
      <trkpt lat="43.10258" lon="5.95067">
        <ele>-5.63</ele>
        <time>2019-05-29T12:37:10Z</time>
      </trkpt>
      <trkpt lat="43.10266" lon="5.95063">
        <ele>-6.11</ele>
        <time>2019-05-29T12:37:14Z</time>
      </trkpt>
      <trkpt lat="43.10308" lon="5.9505">
        <ele>-3.71</ele>
        <time>2019-05-29T12:37:31Z</time>
      </trkpt>
      <trkpt lat="43.10349" lon="5.95028">
        <ele>-4.67</ele>
        <time>2019-05-29T12:37:45Z</time>
      </trkpt>
      <trkpt lat="43.10385" lon="5.95012">
        <ele>-4.19</ele>
        <time>2019-05-29T12:37:56Z</time>
      </trkpt>
      <trkpt lat="43.10413" lon="5.94998">
        <ele>-5.15</ele>
        <time>2019-05-29T12:38:05Z</time>
      </trkpt>
      <trkpt lat="43.1045" lon="5.94979">
        <ele>-5.15</ele>
        <time>2019-05-29T12:38:17Z</time>
      </trkpt>
      <trkpt lat="43.1048" lon="5.94957">
        <ele>-5.15</ele>
        <time>2019-05-29T12:38:28Z</time>
      </trkpt>
      <trkpt lat="43.10493" lon="5.94945">
        <ele>-5.63</ele>
        <time>2019-05-29T12:38:33Z</time>
      </trkpt>
      <trkpt lat="43.10486" lon="5.94932">
        <ele>-6.11</ele>
        <time>2019-05-29T12:38:39Z</time>
      </trkpt>
      <trkpt lat="43.10465" lon="5.94906">
        <ele>-5.63</ele>
        <time>2019-05-29T12:38:52Z</time>
      </trkpt>
      <trkpt lat="43.10436" lon="5.94878">
        <ele>-7.07</ele>
        <time>2019-05-29T12:39:05Z</time>
      </trkpt>
      <trkpt lat="43.10397" lon="5.94842">
        <ele>-5.63</ele>
        <time>2019-05-29T12:39:20Z</time>
      </trkpt>
      <trkpt lat="43.10365" lon="5.94813">
        <ele>-4.67</ele>
        <time>2019-05-29T12:39:32Z</time>
      </trkpt>
      <trkpt lat="43.10334" lon="5.94782">
        <ele>-3.23</ele>
        <time>2019-05-29T12:39:45Z</time>
      </trkpt>
      <trkpt lat="43.10301" lon="5.94757">
        <ele>-4.19</ele>
        <time>2019-05-29T12:39:58Z</time>
      </trkpt>
      <trkpt lat="43.10265" lon="5.94734">
        <ele>-3.23</ele>
        <time>2019-05-29T12:40:10Z</time>
      </trkpt>
      <trkpt lat="43.10217" lon="5.94702">
        <ele>-1.79</ele>
        <time>2019-05-29T12:40:26Z</time>
      </trkpt>
      <trkpt lat="43.10174" lon="5.9467">
        <ele>-0.82</ele>
        <time>2019-05-29T12:40:41Z</time>
      </trkpt>
      <trkpt lat="43.1013" lon="5.94634">
        <ele>-2.27</ele>
        <time>2019-05-29T12:40:57Z</time>
      </trkpt>
      <trkpt lat="43.10098" lon="5.94603">
        <ele>-2.75</ele>
        <time>2019-05-29T12:41:09Z</time>
      </trkpt>
      <trkpt lat="43.1006" lon="5.94565">
        <ele>-4.19</ele>
        <time>2019-05-29T12:41:23Z</time>
      </trkpt>
      <trkpt lat="43.1002" lon="5.94518">
        <ele>-4.67</ele>
        <time>2019-05-29T12:41:39Z</time>
      </trkpt>
      <trkpt lat="43.09983" lon="5.94479">
        <ele>-4.19</ele>
        <time>2019-05-29T12:41:54Z</time>
      </trkpt>
      <trkpt lat="43.09953" lon="5.94444">
        <ele>-3.71</ele>
        <time>2019-05-29T12:42:08Z</time>
      </trkpt>
      <trkpt lat="43.09921" lon="5.94413">
        <ele>-4.19</ele>
        <time>2019-05-29T12:42:23Z</time>
      </trkpt>
      <trkpt lat="43.09878" lon="5.94382">
        <ele>-3.23</ele>
        <time>2019-05-29T12:42:40Z</time>
      </trkpt>
      <trkpt lat="43.09841" lon="5.94345">
        <ele>-3.71</ele>
        <time>2019-05-29T12:42:55Z</time>
      </trkpt>
      <trkpt lat="43.09847" lon="5.94333">
        <ele>-4.19</ele>
        <time>2019-05-29T12:43:01Z</time>
      </trkpt>
      <trkpt lat="43.09879" lon="5.94319">
        <ele>-3.71</ele>
        <time>2019-05-29T12:43:17Z</time>
      </trkpt>
      <trkpt lat="43.0992" lon="5.94303">
        <ele>-3.71</ele>
        <time>2019-05-29T12:43:33Z</time>
      </trkpt>
      <trkpt lat="43.09959" lon="5.94281">
        <ele>-4.19</ele>
        <time>2019-05-29T12:43:47Z</time>
      </trkpt>
      <trkpt lat="43.10001" lon="5.94246">
        <ele>-4.67</ele>
        <time>2019-05-29T12:44:02Z</time>
      </trkpt>
      <trkpt lat="43.10032" lon="5.94223">
        <ele>-6.11</ele>
        <time>2019-05-29T12:44:14Z</time>
      </trkpt>
      <trkpt lat="43.10076" lon="5.94198">
        <ele>-4.19</ele>
        <time>2019-05-29T12:44:29Z</time>
      </trkpt>
      <trkpt lat="43.10117" lon="5.94169">
        <ele>-4.67</ele>
        <time>2019-05-29T12:44:44Z</time>
      </trkpt>
      <trkpt lat="43.10156" lon="5.94154">
        <ele>-2.75</ele>
        <time>2019-05-29T12:44:57Z</time>
      </trkpt>
      <trkpt lat="43.10167" lon="5.94148">
        <ele>-2.75</ele>
        <time>2019-05-29T12:45:01Z</time>
      </trkpt>
      <trkpt lat="43.10166" lon="5.94138">
        <ele>-2.75</ele>
        <time>2019-05-29T12:45:05Z</time>
      </trkpt>
      <trkpt lat="43.10144" lon="5.94113">
        <ele>-4.67</ele>
        <time>2019-05-29T12:45:19Z</time>
      </trkpt>
      <trkpt lat="43.10121" lon="5.94082">
        <ele>-4.19</ele>
        <time>2019-05-29T12:45:30Z</time>
      </trkpt>
      <trkpt lat="43.10095" lon="5.94042">
        <ele>-1.79</ele>
        <time>2019-05-29T12:45:42Z</time>
      </trkpt>
      <trkpt lat="43.10074" lon="5.94006">
        <ele>-2.75</ele>
        <time>2019-05-29T12:45:53Z</time>
      </trkpt>
      <trkpt lat="43.10048" lon="5.93968">
        <ele>-3.71</ele>
        <time>2019-05-29T12:46:06Z</time>
      </trkpt>
      <trkpt lat="43.10023" lon="5.9392">
        <ele>-4.19</ele>
        <time>2019-05-29T12:46:19Z</time>
      </trkpt>
      <trkpt lat="43.09995" lon="5.93859">
        <ele>-3.71</ele>
        <time>2019-05-29T12:46:35Z</time>
      </trkpt>
      <trkpt lat="43.09974" lon="5.93809">
        <ele>-4.67</ele>
        <time>2019-05-29T12:46:49Z</time>
      </trkpt>
      <trkpt lat="43.09952" lon="5.93761">
        <ele>-2.75</ele>
        <time>2019-05-29T12:47:03Z</time>
      </trkpt>
      <trkpt lat="43.09931" lon="5.93718">
        <ele>-2.75</ele>
        <time>2019-05-29T12:47:17Z</time>
      </trkpt>
      <trkpt lat="43.09911" lon="5.93682">
        <ele>-3.23</ele>
        <time>2019-05-29T12:47:32Z</time>
      </trkpt>
      <trkpt lat="43.09889" lon="5.93653">
        <ele>-5.63</ele>
        <time>2019-05-29T12:47:44Z</time>
      </trkpt>
      <trkpt lat="43.09865" lon="5.9361">
        <ele>-3.23</ele>
        <time>2019-05-29T12:47:58Z</time>
      </trkpt>
      <trkpt lat="43.09861" lon="5.93603">
        <ele>-3.71</ele>
        <time>2019-05-29T12:48:00Z</time>
      </trkpt>
      <trkpt lat="43.09871" lon="5.93586">
        <ele>-5.15</ele>
        <time>2019-05-29T12:48:09Z</time>
      </trkpt>
      <trkpt lat="43.09908" lon="5.93574">
        <ele>-3.23</ele>
        <time>2019-05-29T12:48:26Z</time>
      </trkpt>
      <trkpt lat="43.09928" lon="5.9357">
        <ele>-4.19</ele>
        <time>2019-05-29T12:48:33Z</time>
      </trkpt>
      <trkpt lat="43.09932" lon="5.93566">
        <ele>-5.15</ele>
        <time>2019-05-29T12:48:35Z</time>
      </trkpt>
      <trkpt lat="43.0993" lon="5.93557">
        <ele>-4.19</ele>
        <time>2019-05-29T12:48:40Z</time>
      </trkpt>
      <trkpt lat="43.09908" lon="5.93534">
        <ele>-4.19</ele>
        <time>2019-05-29T12:48:54Z</time>
      </trkpt>
      <trkpt lat="43.09887" lon="5.93507">
        <ele>-4.67</ele>
        <time>2019-05-29T12:49:08Z</time>
      </trkpt>
      <trkpt lat="43.09851" lon="5.93464">
        <ele>-6.11</ele>
        <time>2019-05-29T12:49:28Z</time>
      </trkpt>
      <trkpt lat="43.09835" lon="5.93434">
        <ele>-5.15</ele>
        <time>2019-05-29T12:49:39Z</time>
      </trkpt>
      <trkpt lat="43.09811" lon="5.93425">
        <ele>-2.75</ele>
        <time>2019-05-29T12:49:49Z</time>
      </trkpt>
      <trkpt lat="43.09786" lon="5.93462">
        <ele>-1.3</ele>
        <time>2019-05-29T12:50:00Z</time>
      </trkpt>
      <trkpt lat="43.09763" lon="5.93523">
        <ele>-3.23</ele>
        <time>2019-05-29T12:50:14Z</time>
      </trkpt>
      <trkpt lat="43.09734" lon="5.93587">
        <ele>-4.19</ele>
        <time>2019-05-29T12:50:30Z</time>
      </trkpt>
      <trkpt lat="43.09708" lon="5.9365">
        <ele>-2.27</ele>
        <time>2019-05-29T12:50:46Z</time>
      </trkpt>
      <trkpt lat="43.0969" lon="5.93708">
        <ele>-1.79</ele>
        <time>2019-05-29T12:51:00Z</time>
      </trkpt>
      <trkpt lat="43.09672" lon="5.93763">
        <ele>-1.79</ele>
        <time>2019-05-29T12:51:14Z</time>
      </trkpt>
      <trkpt lat="43.09645" lon="5.93817">
        <ele>-2.75</ele>
        <time>2019-05-29T12:51:28Z</time>
      </trkpt>
      <trkpt lat="43.09614" lon="5.93883">
        <ele>-3.71</ele>
        <time>2019-05-29T12:51:44Z</time>
      </trkpt>
      <trkpt lat="43.09592" lon="5.93938">
        <ele>-3.23</ele>
        <time>2019-05-29T12:51:57Z</time>
      </trkpt>
      <trkpt lat="43.09578" lon="5.93992">
        <ele>-3.23</ele>
        <time>2019-05-29T12:52:09Z</time>
      </trkpt>
      <trkpt lat="43.09565" lon="5.94043">
        <ele>-2.27</ele>
        <time>2019-05-29T12:52:21Z</time>
      </trkpt>
      <trkpt lat="43.09544" lon="5.94104">
        <ele>-1.79</ele>
        <time>2019-05-29T12:52:35Z</time>
      </trkpt>
      <trkpt lat="43.09516" lon="5.94166">
        <ele>-3.23</ele>
        <time>2019-05-29T12:52:49Z</time>
      </trkpt>
      <trkpt lat="43.09496" lon="5.94227">
        <ele>-3.23</ele>
        <time>2019-05-29T12:53:02Z</time>
      </trkpt>
      <trkpt lat="43.09482" lon="5.94291">
        <ele>-3.71</ele>
        <time>2019-05-29T12:53:15Z</time>
      </trkpt>
      <trkpt lat="43.09476" lon="5.94362">
        <ele>-3.71</ele>
        <time>2019-05-29T12:53:30Z</time>
      </trkpt>
      <trkpt lat="43.09476" lon="5.94422">
        <ele>-3.23</ele>
        <time>2019-05-29T12:53:43Z</time>
      </trkpt>
      <trkpt lat="43.09479" lon="5.94478">
        <ele>-1.79</ele>
        <time>2019-05-29T12:53:55Z</time>
      </trkpt>
      <trkpt lat="43.09489" lon="5.94559">
        <ele>-2.75</ele>
        <time>2019-05-29T12:54:12Z</time>
      </trkpt>
      <trkpt lat="43.09498" lon="5.94648">
        <ele>-3.71</ele>
        <time>2019-05-29T12:54:30Z</time>
      </trkpt>
      <trkpt lat="43.09508" lon="5.94735">
        <ele>-5.15</ele>
        <time>2019-05-29T12:54:47Z</time>
      </trkpt>
      <trkpt lat="43.09514" lon="5.94814">
        <ele>-3.71</ele>
        <time>2019-05-29T12:55:03Z</time>
      </trkpt>
      <trkpt lat="43.0952" lon="5.94894">
        <ele>-4.19</ele>
        <time>2019-05-29T12:55:19Z</time>
      </trkpt>
      <trkpt lat="43.09531" lon="5.94986">
        <ele>-2.27</ele>
        <time>2019-05-29T12:55:37Z</time>
      </trkpt>
      <trkpt lat="43.09535" lon="5.95063">
        <ele>-2.27</ele>
        <time>2019-05-29T12:55:52Z</time>
      </trkpt>
      <trkpt lat="43.09547" lon="5.95135">
        <ele>-1.79</ele>
        <time>2019-05-29T12:56:07Z</time>
      </trkpt>
      <trkpt lat="43.0956" lon="5.95209">
        <ele>-3.23</ele>
        <time>2019-05-29T12:56:23Z</time>
      </trkpt>
      <trkpt lat="43.09573" lon="5.95284">
        <ele>-3.23</ele>
        <time>2019-05-29T12:56:39Z</time>
      </trkpt>
      <trkpt lat="43.09591" lon="5.95366">
        <ele>-3.71</ele>
        <time>2019-05-29T12:56:57Z</time>
      </trkpt>
      <trkpt lat="43.09601" lon="5.95442">
        <ele>-2.75</ele>
        <time>2019-05-29T12:57:14Z</time>
      </trkpt>
      <trkpt lat="43.09615" lon="5.95524">
        <ele>-3.23</ele>
        <time>2019-05-29T12:57:33Z</time>
      </trkpt>
      <trkpt lat="43.09624" lon="5.95602">
        <ele>-2.75</ele>
        <time>2019-05-29T12:57:51Z</time>
      </trkpt>
      <trkpt lat="43.09622" lon="5.95673">
        <ele>-3.71</ele>
        <time>2019-05-29T12:58:07Z</time>
      </trkpt>
      <trkpt lat="43.09618" lon="5.95737">
        <ele>-3.23</ele>
        <time>2019-05-29T12:58:22Z</time>
      </trkpt>
      <trkpt lat="43.09615" lon="5.95807">
        <ele>-4.19</ele>
        <time>2019-05-29T12:58:38Z</time>
      </trkpt>
      <trkpt lat="43.09613" lon="5.95878">
        <ele>-4.19</ele>
        <time>2019-05-29T12:58:55Z</time>
      </trkpt>
      <trkpt lat="43.09612" lon="5.95958">
        <ele>-3.71</ele>
        <time>2019-05-29T12:59:15Z</time>
      </trkpt>
      <trkpt lat="43.0961" lon="5.96028">
        <ele>-4.19</ele>
        <time>2019-05-29T12:59:31Z</time>
      </trkpt>
      <trkpt lat="43.09604" lon="5.96103">
        <ele>-3.23</ele>
        <time>2019-05-29T12:59:47Z</time>
      </trkpt>
      <trkpt lat="43.09586" lon="5.9616">
        <ele>-4.67</ele>
        <time>2019-05-29T13:00:00Z</time>
      </trkpt>
      <trkpt lat="43.09572" lon="5.96205">
        <ele>-5.15</ele>
        <time>2019-05-29T13:00:10Z</time>
      </trkpt>
      <trkpt lat="43.0955" lon="5.96264">
        <ele>-5.15</ele>
        <time>2019-05-29T13:00:23Z</time>
      </trkpt>
      <trkpt lat="43.09532" lon="5.96328">
        <ele>-6.11</ele>
        <time>2019-05-29T13:00:37Z</time>
      </trkpt>
      <trkpt lat="43.09512" lon="5.96391">
        <ele>-7.07</ele>
        <time>2019-05-29T13:00:51Z</time>
      </trkpt>
      <trkpt lat="43.09491" lon="5.96452">
        <ele>-7.07</ele>
        <time>2019-05-29T13:01:05Z</time>
      </trkpt>
      <trkpt lat="43.09476" lon="5.96505">
        <ele>-6.11</ele>
        <time>2019-05-29T13:01:17Z</time>
      </trkpt>
      <trkpt lat="43.09462" lon="5.96557">
        <ele>-5.15</ele>
        <time>2019-05-29T13:01:29Z</time>
      </trkpt>
      <trkpt lat="43.09446" lon="5.96608">
        <ele>-4.67</ele>
        <time>2019-05-29T13:01:41Z</time>
      </trkpt>
      <trkpt lat="43.09429" lon="5.96663">
        <ele>-2.75</ele>
        <time>2019-05-29T13:01:54Z</time>
      </trkpt>
      <trkpt lat="43.09417" lon="5.96711">
        <ele>-0.82</ele>
        <time>2019-05-29T13:02:05Z</time>
      </trkpt>
      <trkpt lat="43.094" lon="5.96772">
        <ele>-1.79</ele>
        <time>2019-05-29T13:02:19Z</time>
      </trkpt>
      <trkpt lat="43.09388" lon="5.96814">
        <ele>-0.34</ele>
        <time>2019-05-29T13:02:29Z</time>
      </trkpt>
      <trkpt lat="43.09376" lon="5.96865">
        <ele>0.62</ele>
        <time>2019-05-29T13:02:41Z</time>
      </trkpt>
      <trkpt lat="43.09365" lon="5.96917">
        <ele>-0.34</ele>
        <time>2019-05-29T13:02:53Z</time>
      </trkpt>
      <trkpt lat="43.09352" lon="5.96963">
        <ele>-0.82</ele>
        <time>2019-05-29T13:03:04Z</time>
      </trkpt>
      <trkpt lat="43.09342" lon="5.97006">
        <ele>-2.27</ele>
        <time>2019-05-29T13:03:14Z</time>
      </trkpt>
      <trkpt lat="43.0933" lon="5.97052">
        <ele>-1.79</ele>
        <time>2019-05-29T13:03:25Z</time>
      </trkpt>
      <trkpt lat="43.0932" lon="5.97097">
        <ele>-1.79</ele>
        <time>2019-05-29T13:03:36Z</time>
      </trkpt>
      <trkpt lat="43.09305" lon="5.97149">
        <ele>-4.67</ele>
        <time>2019-05-29T13:03:49Z</time>
      </trkpt>
      <trkpt lat="43.0929" lon="5.97191">
        <ele>-3.23</ele>
        <time>2019-05-29T13:04:00Z</time>
      </trkpt>
      <trkpt lat="43.09275" lon="5.9725">
        <ele>-2.27</ele>
        <time>2019-05-29T13:04:14Z</time>
      </trkpt>
      <trkpt lat="43.09263" lon="5.97301">
        <ele>-2.75</ele>
        <time>2019-05-29T13:04:26Z</time>
      </trkpt>
      <trkpt lat="43.09253" lon="5.97336">
        <ele>-2.27</ele>
        <time>2019-05-29T13:04:34Z</time>
      </trkpt>
      <trkpt lat="43.09236" lon="5.9739">
        <ele>-1.79</ele>
        <time>2019-05-29T13:04:46Z</time>
      </trkpt>
      <trkpt lat="43.09222" lon="5.97439">
        <ele>-0.82</ele>
        <time>2019-05-29T13:04:57Z</time>
      </trkpt>
      <trkpt lat="43.09206" lon="5.9749">
        <ele>-1.79</ele>
        <time>2019-05-29T13:05:08Z</time>
      </trkpt>
      <trkpt lat="43.09194" lon="5.97539">
        <ele>-1.3</ele>
        <time>2019-05-29T13:05:19Z</time>
      </trkpt>
      <trkpt lat="43.09177" lon="5.97589">
        <ele>-1.3</ele>
        <time>2019-05-29T13:05:31Z</time>
      </trkpt>
      <trkpt lat="43.09166" lon="5.97628">
        <ele>-0.34</ele>
        <time>2019-05-29T13:05:40Z</time>
      </trkpt>
      <trkpt lat="43.09158" lon="5.97664">
        <ele>1.58</ele>
        <time>2019-05-29T13:05:49Z</time>
      </trkpt>
      <trkpt lat="43.09145" lon="5.97705">
        <ele>4.46</ele>
        <time>2019-05-29T13:06:00Z</time>
      </trkpt>
      <trkpt lat="43.09136" lon="5.97757">
        <ele>3.02</ele>
        <time>2019-05-29T13:06:11Z</time>
      </trkpt>
      <trkpt lat="43.09127" lon="5.97801">
        <ele>-1.3</ele>
        <time>2019-05-29T13:06:21Z</time>
      </trkpt>
      <trkpt lat="43.09107" lon="5.97863">
        <ele>-2.27</ele>
        <time>2019-05-29T13:06:36Z</time>
      </trkpt>
      <trkpt lat="43.09102" lon="5.97885">
        <ele>-2.75</ele>
        <time>2019-05-29T13:06:41Z</time>
      </trkpt>
      <trkpt lat="43.09083" lon="5.97934">
        <ele>-5.15</ele>
        <time>2019-05-29T13:06:53Z</time>
      </trkpt>
      <trkpt lat="43.09072" lon="5.97971">
        <ele>-4.67</ele>
        <time>2019-05-29T13:07:02Z</time>
      </trkpt>
      <trkpt lat="43.09059" lon="5.98015">
        <ele>-4.67</ele>
        <time>2019-05-29T13:07:13Z</time>
      </trkpt>
      <trkpt lat="43.09046" lon="5.98062">
        <ele>-3.23</ele>
        <time>2019-05-29T13:07:25Z</time>
      </trkpt>
      <trkpt lat="43.09038" lon="5.98085">
        <ele>-4.19</ele>
        <time>2019-05-29T13:07:31Z</time>
      </trkpt>
      <trkpt lat="43.09035" lon="5.98102">
        <ele>-4.67</ele>
        <time>2019-05-29T13:07:36Z</time>
      </trkpt>
      <trkpt lat="43.09015" lon="5.9816">
        <ele>-5.63</ele>
        <time>2019-05-29T13:07:50Z</time>
      </trkpt>
      <trkpt lat="43.09" lon="5.98206">
        <ele>-4.19</ele>
        <time>2019-05-29T13:08:01Z</time>
      </trkpt>
      <trkpt lat="43.08978" lon="5.98261">
        <ele>-5.15</ele>
        <time>2019-05-29T13:08:14Z</time>
      </trkpt>
      <trkpt lat="43.08955" lon="5.98315">
        <ele>-5.63</ele>
        <time>2019-05-29T13:08:27Z</time>
      </trkpt>
      <trkpt lat="43.08933" lon="5.98368">
        <ele>-4.67</ele>
        <time>2019-05-29T13:08:40Z</time>
      </trkpt>
      <trkpt lat="43.08909" lon="5.9841">
        <ele>-6.11</ele>
        <time>2019-05-29T13:08:51Z</time>
      </trkpt>
      <trkpt lat="43.08907" lon="5.98413">
        <ele>-6.11</ele>
        <time>2019-05-29T13:08:52Z</time>
      </trkpt>
      <trkpt lat="43.0888" lon="5.9846">
        <ele>-5.15</ele>
        <time>2019-05-29T13:09:04Z</time>
      </trkpt>
      <trkpt lat="43.08853" lon="5.98527">
        <ele>-4.67</ele>
        <time>2019-05-29T13:09:21Z</time>
      </trkpt>
      <trkpt lat="43.08856" lon="5.98574">
        <ele>-4.19</ele>
        <time>2019-05-29T13:09:33Z</time>
      </trkpt>
      <trkpt lat="43.0886" lon="5.98621">
        <ele>-4.19</ele>
        <time>2019-05-29T13:09:44Z</time>
      </trkpt>
      <trkpt lat="43.08857" lon="5.98668">
        <ele>-4.67</ele>
        <time>2019-05-29T13:09:55Z</time>
      </trkpt>
      <trkpt lat="43.08851" lon="5.98716">
        <ele>-5.63</ele>
        <time>2019-05-29T13:10:06Z</time>
      </trkpt>
      <trkpt lat="43.08845" lon="5.9878">
        <ele>-4.67</ele>
        <time>2019-05-29T13:10:20Z</time>
      </trkpt>
      <trkpt lat="43.08846" lon="5.98833">
        <ele>-4.67</ele>
        <time>2019-05-29T13:10:31Z</time>
      </trkpt>
      <trkpt lat="43.08849" lon="5.98888">
        <ele>-4.67</ele>
        <time>2019-05-29T13:10:42Z</time>
      </trkpt>
      <trkpt lat="43.08847" lon="5.9894">
        <ele>-4.19</ele>
        <time>2019-05-29T13:10:53Z</time>
      </trkpt>
      <trkpt lat="43.08841" lon="5.98998">
        <ele>-4.19</ele>
        <time>2019-05-29T13:11:06Z</time>
      </trkpt>
      <trkpt lat="43.08827" lon="5.99054">
        <ele>-3.71</ele>
        <time>2019-05-29T13:11:19Z</time>
      </trkpt>
      <trkpt lat="43.08824" lon="5.99104">
        <ele>-4.19</ele>
        <time>2019-05-29T13:11:31Z</time>
      </trkpt>
      <trkpt lat="43.08828" lon="5.9916">
        <ele>-3.71</ele>
        <time>2019-05-29T13:11:44Z</time>
      </trkpt>
      <trkpt lat="43.08831" lon="5.9922">
        <ele>-5.15</ele>
        <time>2019-05-29T13:11:57Z</time>
      </trkpt>
      <trkpt lat="43.08837" lon="5.99274">
        <ele>-4.67</ele>
        <time>2019-05-29T13:12:09Z</time>
      </trkpt>
      <trkpt lat="43.08845" lon="5.9933">
        <ele>-3.71</ele>
        <time>2019-05-29T13:12:22Z</time>
      </trkpt>
      <trkpt lat="43.0886" lon="5.99385">
        <ele>-4.19</ele>
        <time>2019-05-29T13:12:35Z</time>
      </trkpt>
      <trkpt lat="43.08889" lon="5.99416">
        <ele>-3.23</ele>
        <time>2019-05-29T13:12:47Z</time>
      </trkpt>
      <trkpt lat="43.08915" lon="5.99395">
        <ele>-4.67</ele>
        <time>2019-05-29T13:12:57Z</time>
      </trkpt>
      <trkpt lat="43.08943" lon="5.99376">
        <ele>-4.19</ele>
        <time>2019-05-29T13:13:06Z</time>
      </trkpt>
      <trkpt lat="43.08962" lon="5.99349">
        <ele>-6.11</ele>
        <time>2019-05-29T13:13:16Z</time>
      </trkpt>
      <trkpt lat="43.08984" lon="5.99314">
        <ele>-5.63</ele>
        <time>2019-05-29T13:13:30Z</time>
      </trkpt>
      <trkpt lat="43.0899" lon="5.99304">
        <ele>-6.11</ele>
        <time>2019-05-29T13:13:34Z</time>
      </trkpt>
      <trkpt lat="43.09008" lon="5.99276">
        <ele>-5.15</ele>
        <time>2019-05-29T13:13:46Z</time>
      </trkpt>
      <trkpt lat="43.09024" lon="5.9925">
        <ele>-6.59</ele>
        <time>2019-05-29T13:13:56Z</time>
      </trkpt>
      <trkpt lat="43.09047" lon="5.99213">
        <ele>-5.63</ele>
        <time>2019-05-29T13:14:09Z</time>
      </trkpt>
      <trkpt lat="43.09068" lon="5.99183">
        <ele>-8.03</ele>
        <time>2019-05-29T13:14:20Z</time>
      </trkpt>
      <trkpt lat="43.09092" lon="5.99148">
        <ele>-8.03</ele>
        <time>2019-05-29T13:14:32Z</time>
      </trkpt>
      <trkpt lat="43.09114" lon="5.99115">
        <ele>-8.03</ele>
        <time>2019-05-29T13:14:43Z</time>
      </trkpt>
      <trkpt lat="43.0912" lon="5.99107">
        <ele>-8.03</ele>
        <time>2019-05-29T13:14:46Z</time>
      </trkpt>
      <trkpt lat="43.09145" lon="5.99069">
        <ele>-9</ele>
        <time>2019-05-29T13:14:59Z</time>
      </trkpt>
      <trkpt lat="43.0917" lon="5.99033">
        <ele>-9.96</ele>
        <time>2019-05-29T13:15:11Z</time>
      </trkpt>
      <trkpt lat="43.0919" lon="5.99004">
        <ele>-8.03</ele>
        <time>2019-05-29T13:15:21Z</time>
      </trkpt>
      <trkpt lat="43.09201" lon="5.98985">
        <ele>-9.96</ele>
        <time>2019-05-29T13:15:27Z</time>
      </trkpt>
      <trkpt lat="43.09223" lon="5.98953">
        <ele>-8.03</ele>
        <time>2019-05-29T13:15:38Z</time>
      </trkpt>
      <trkpt lat="43.09245" lon="5.98916">
        <ele>-7.55</ele>
        <time>2019-05-29T13:15:50Z</time>
      </trkpt>
      <trkpt lat="43.09254" lon="5.98904">
        <ele>-6.11</ele>
        <time>2019-05-29T13:15:54Z</time>
      </trkpt>
      <trkpt lat="43.09277" lon="5.9887">
        <ele>-6.59</ele>
        <time>2019-05-29T13:16:06Z</time>
      </trkpt>
      <trkpt lat="43.09286" lon="5.98859">
        <ele>-6.11</ele>
        <time>2019-05-29T13:16:10Z</time>
      </trkpt>
      <trkpt lat="43.09319" lon="5.9882">
        <ele>-3.71</ele>
        <time>2019-05-29T13:16:25Z</time>
      </trkpt>
      <trkpt lat="43.09356" lon="5.9878">
        <ele>-4.67</ele>
        <time>2019-05-29T13:16:40Z</time>
      </trkpt>
      <trkpt lat="43.09384" lon="5.98747">
        <ele>-4.19</ele>
        <time>2019-05-29T13:16:52Z</time>
      </trkpt>
      <trkpt lat="43.09412" lon="5.98716">
        <ele>-3.23</ele>
        <time>2019-05-29T13:17:03Z</time>
      </trkpt>
      <trkpt lat="43.0944" lon="5.98686">
        <ele>-2.27</ele>
        <time>2019-05-29T13:17:14Z</time>
      </trkpt>
      <trkpt lat="43.09485" lon="5.98649">
        <ele>-4.19</ele>
        <time>2019-05-29T13:17:29Z</time>
      </trkpt>
      <trkpt lat="43.0951" lon="5.98621">
        <ele>-6.11</ele>
        <time>2019-05-29T13:17:40Z</time>
      </trkpt>
      <trkpt lat="43.09535" lon="5.98603">
        <ele>-6.59</ele>
        <time>2019-05-29T13:17:50Z</time>
      </trkpt>
      <trkpt lat="43.09558" lon="5.9859">
        <ele>-5.15</ele>
        <time>2019-05-29T13:17:58Z</time>
      </trkpt>
      <trkpt lat="43.09594" lon="5.98573">
        <ele>-6.11</ele>
        <time>2019-05-29T13:18:10Z</time>
      </trkpt>
      <trkpt lat="43.09623" lon="5.98557">
        <ele>-5.15</ele>
        <time>2019-05-29T13:18:20Z</time>
      </trkpt>
      <trkpt lat="43.0965" lon="5.98545">
        <ele>-7.55</ele>
        <time>2019-05-29T13:18:29Z</time>
      </trkpt>
      <trkpt lat="43.09677" lon="5.98531">
        <ele>-7.55</ele>
        <time>2019-05-29T13:18:38Z</time>
      </trkpt>
      <trkpt lat="43.097" lon="5.98521">
        <ele>-6.59</ele>
        <time>2019-05-29T13:18:46Z</time>
      </trkpt>
      <trkpt lat="43.09712" lon="5.98517">
        <ele>-6.11</ele>
        <time>2019-05-29T13:18:50Z</time>
      </trkpt>
      <trkpt lat="43.09723" lon="5.98508">
        <ele>-7.55</ele>
        <time>2019-05-29T13:18:54Z</time>
      </trkpt>
      <trkpt lat="43.0975" lon="5.98504">
        <ele>-7.07</ele>
        <time>2019-05-29T13:19:02Z</time>
      </trkpt>
      <trkpt lat="43.09762" lon="5.98495">
        <ele>-6.59</ele>
        <time>2019-05-29T13:19:06Z</time>
      </trkpt>
      <trkpt lat="43.09781" lon="5.9849">
        <ele>-9.48</ele>
        <time>2019-05-29T13:19:12Z</time>
      </trkpt>
      <trkpt lat="43.09777" lon="5.98467">
        <ele>-9</ele>
        <time>2019-05-29T13:19:21Z</time>
      </trkpt>
      <trkpt lat="43.09776" lon="5.98465">
        <ele>-9</ele>
        <time>2019-05-29T13:19:22Z</time>
      </trkpt>
      <trkpt lat="43.09764" lon="5.98439">
        <ele>-9</ele>
        <time>2019-05-29T13:19:34Z</time>
      </trkpt>
      <trkpt lat="43.09744" lon="5.9841">
        <ele>-9</ele>
        <time>2019-05-29T13:19:47Z</time>
      </trkpt>
      <trkpt lat="43.09722" lon="5.98374">
        <ele>-5.63</ele>
        <time>2019-05-29T13:20:00Z</time>
      </trkpt>
      <trkpt lat="43.09701" lon="5.98344">
        <ele>-5.63</ele>
        <time>2019-05-29T13:20:12Z</time>
      </trkpt>
      <trkpt lat="43.09678" lon="5.98308">
        <ele>-5.15</ele>
        <time>2019-05-29T13:20:27Z</time>
      </trkpt>
      <trkpt lat="43.09655" lon="5.98284">
        <ele>-3.23</ele>
        <time>2019-05-29T13:20:38Z</time>
      </trkpt>
      <trkpt lat="43.0964" lon="5.98266">
        <ele>-1.79</ele>
        <time>2019-05-29T13:20:45Z</time>
      </trkpt>
      <trkpt lat="43.09605" lon="5.98222">
        <ele>-1.3</ele>
        <time>2019-05-29T13:21:00Z</time>
      </trkpt>
      <trkpt lat="43.09575" lon="5.98182">
        <ele>-4.19</ele>
        <time>2019-05-29T13:21:14Z</time>
      </trkpt>
      <trkpt lat="43.09548" lon="5.98147">
        <ele>-4.19</ele>
        <time>2019-05-29T13:21:27Z</time>
      </trkpt>
      <trkpt lat="43.09525" lon="5.98118">
        <ele>-4.67</ele>
        <time>2019-05-29T13:21:38Z</time>
      </trkpt>
      <trkpt lat="43.095" lon="5.98092">
        <ele>-5.15</ele>
        <time>2019-05-29T13:21:49Z</time>
      </trkpt>
      <trkpt lat="43.09477" lon="5.98061">
        <ele>-5.63</ele>
        <time>2019-05-29T13:22:00Z</time>
      </trkpt>
      <trkpt lat="43.0945" lon="5.98027">
        <ele>-5.15</ele>
        <time>2019-05-29T13:22:12Z</time>
      </trkpt>
      <trkpt lat="43.09418" lon="5.97992">
        <ele>-4.67</ele>
        <time>2019-05-29T13:22:26Z</time>
      </trkpt>
      <trkpt lat="43.09394" lon="5.97974">
        <ele>-4.19</ele>
        <time>2019-05-29T13:22:36Z</time>
      </trkpt>
      <trkpt lat="43.09382" lon="5.97959">
        <ele>-4.67</ele>
        <time>2019-05-29T13:22:42Z</time>
      </trkpt>
      <trkpt lat="43.09353" lon="5.97929">
        <ele>-5.63</ele>
        <time>2019-05-29T13:22:55Z</time>
      </trkpt>
      <trkpt lat="43.09346" lon="5.97912">
        <ele>-6.11</ele>
        <time>2019-05-29T13:23:00Z</time>
      </trkpt>
      <trkpt lat="43.09315" lon="5.97885">
        <ele>-4.67</ele>
        <time>2019-05-29T13:23:13Z</time>
      </trkpt>
      <trkpt lat="43.09281" lon="5.9784">
        <ele>-6.59</ele>
        <time>2019-05-29T13:23:27Z</time>
      </trkpt>
      <trkpt lat="43.09252" lon="5.97806">
        <ele>-8.03</ele>
        <time>2019-05-29T13:23:38Z</time>
      </trkpt>
      <trkpt lat="43.09213" lon="5.97766">
        <ele>-8.03</ele>
        <time>2019-05-29T13:23:52Z</time>
      </trkpt>
      <trkpt lat="43.09179" lon="5.97722">
        <ele>-7.55</ele>
        <time>2019-05-29T13:24:06Z</time>
      </trkpt>
      <trkpt lat="43.09176" lon="5.97707">
        <ele>-6.59</ele>
        <time>2019-05-29T13:24:11Z</time>
      </trkpt>
      <trkpt lat="43.09159" lon="5.97689">
        <ele>-6.59</ele>
        <time>2019-05-29T13:24:18Z</time>
      </trkpt>
      <trkpt lat="43.09155" lon="5.97679">
        <ele>-7.55</ele>
        <time>2019-05-29T13:24:21Z</time>
      </trkpt>
      <trkpt lat="43.09139" lon="5.97665">
        <ele>-7.55</ele>
        <time>2019-05-29T13:24:27Z</time>
      </trkpt>
      <trkpt lat="43.09126" lon="5.97656">
        <ele>-7.55</ele>
        <time>2019-05-29T13:24:31Z</time>
      </trkpt>
      <trkpt lat="43.09126" lon="5.97631">
        <ele>-6.59</ele>
        <time>2019-05-29T13:24:40Z</time>
      </trkpt>
      <trkpt lat="43.09131" lon="5.97627">
        <ele>-6.11</ele>
        <time>2019-05-29T13:24:43Z</time>
      </trkpt>
      <trkpt lat="43.09156" lon="5.9761">
        <ele>-9</ele>
        <time>2019-05-29T13:24:56Z</time>
      </trkpt>
      <trkpt lat="43.09186" lon="5.97588">
        <ele>-5.63</ele>
        <time>2019-05-29T13:25:09Z</time>
      </trkpt>
      <trkpt lat="43.09226" lon="5.97562">
        <ele>-7.55</ele>
        <time>2019-05-29T13:25:24Z</time>
      </trkpt>
      <trkpt lat="43.09263" lon="5.9753">
        <ele>-7.07</ele>
        <time>2019-05-29T13:25:37Z</time>
      </trkpt>
      <trkpt lat="43.093" lon="5.97493">
        <ele>-5.63</ele>
        <time>2019-05-29T13:25:51Z</time>
      </trkpt>
      <trkpt lat="43.09337" lon="5.97455">
        <ele>-6.59</ele>
        <time>2019-05-29T13:26:06Z</time>
      </trkpt>
      <trkpt lat="43.09366" lon="5.97423">
        <ele>-6.11</ele>
        <time>2019-05-29T13:26:19Z</time>
      </trkpt>
      <trkpt lat="43.09391" lon="5.97394">
        <ele>-7.07</ele>
        <time>2019-05-29T13:26:30Z</time>
      </trkpt>
      <trkpt lat="43.09419" lon="5.97364">
        <ele>-8.03</ele>
        <time>2019-05-29T13:26:42Z</time>
      </trkpt>
      <trkpt lat="43.09447" lon="5.97333">
        <ele>-8.03</ele>
        <time>2019-05-29T13:26:54Z</time>
      </trkpt>
      <trkpt lat="43.09476" lon="5.97297">
        <ele>-7.55</ele>
        <time>2019-05-29T13:27:08Z</time>
      </trkpt>
      <trkpt lat="43.09509" lon="5.9726">
        <ele>-7.55</ele>
        <time>2019-05-29T13:27:23Z</time>
      </trkpt>
      <trkpt lat="43.09537" lon="5.97228">
        <ele>-5.63</ele>
        <time>2019-05-29T13:27:36Z</time>
      </trkpt>
      <trkpt lat="43.0957" lon="5.97193">
        <ele>-5.63</ele>
        <time>2019-05-29T13:27:52Z</time>
      </trkpt>
      <trkpt lat="43.09602" lon="5.97156">
        <ele>-7.55</ele>
        <time>2019-05-29T13:28:08Z</time>
      </trkpt>
      <trkpt lat="43.09637" lon="5.97114">
        <ele>-7.07</ele>
        <time>2019-05-29T13:28:25Z</time>
      </trkpt>
      <trkpt lat="43.09668" lon="5.97078">
        <ele>-5.63</ele>
        <time>2019-05-29T13:28:38Z</time>
      </trkpt>
      <trkpt lat="43.09698" lon="5.97037">
        <ele>-4.67</ele>
        <time>2019-05-29T13:28:52Z</time>
      </trkpt>
      <trkpt lat="43.09725" lon="5.97">
        <ele>-2.27</ele>
        <time>2019-05-29T13:29:05Z</time>
      </trkpt>
      <trkpt lat="43.09753" lon="5.96969">
        <ele>-3.23</ele>
        <time>2019-05-29T13:29:18Z</time>
      </trkpt>
      <trkpt lat="43.09785" lon="5.96928">
        <ele>-2.27</ele>
        <time>2019-05-29T13:29:33Z</time>
      </trkpt>
      <trkpt lat="43.09817" lon="5.9688">
        <ele>-0.82</ele>
        <time>2019-05-29T13:29:50Z</time>
      </trkpt>
      <trkpt lat="43.09841" lon="5.96849">
        <ele>-2.27</ele>
        <time>2019-05-29T13:30:01Z</time>
      </trkpt>
      <trkpt lat="43.09879" lon="5.96814">
        <ele>-4.19</ele>
        <time>2019-05-29T13:30:14Z</time>
      </trkpt>
      <trkpt lat="43.09914" lon="5.96768">
        <ele>-1.3</ele>
        <time>2019-05-29T13:30:28Z</time>
      </trkpt>
      <trkpt lat="43.09948" lon="5.9672">
        <ele>-0.82</ele>
        <time>2019-05-29T13:30:42Z</time>
      </trkpt>
      <trkpt lat="43.09974" lon="5.96674">
        <ele>-0.34</ele>
        <time>2019-05-29T13:30:55Z</time>
      </trkpt>
      <trkpt lat="43.09993" lon="5.96634">
        <ele>1.58</ele>
        <time>2019-05-29T13:31:06Z</time>
      </trkpt>
      <trkpt lat="43.10023" lon="5.96588">
        <ele>1.58</ele>
        <time>2019-05-29T13:31:19Z</time>
      </trkpt>
      <trkpt lat="43.10052" lon="5.96546">
        <ele>1.58</ele>
        <time>2019-05-29T13:31:31Z</time>
      </trkpt>
      <trkpt lat="43.10086" lon="5.96496">
        <ele>0.62</ele>
        <time>2019-05-29T13:31:46Z</time>
      </trkpt>
      <trkpt lat="43.10089" lon="5.96489">
        <ele>0.14</ele>
        <time>2019-05-29T13:31:48Z</time>
      </trkpt>
      <trkpt lat="43.10085" lon="5.96481">
        <ele>-0.34</ele>
        <time>2019-05-29T13:31:52Z</time>
      </trkpt>
      <trkpt lat="43.1006" lon="5.96462">
        <ele>-3.23</ele>
        <time>2019-05-29T13:32:06Z</time>
      </trkpt>
      <trkpt lat="43.10027" lon="5.96434">
        <ele>-3.71</ele>
        <time>2019-05-29T13:32:21Z</time>
      </trkpt>
      <trkpt lat="43.10001" lon="5.96406">
        <ele>-4.19</ele>
        <time>2019-05-29T13:32:34Z</time>
      </trkpt>
      <trkpt lat="43.09968" lon="5.96375">
        <ele>-7.55</ele>
        <time>2019-05-29T13:32:47Z</time>
      </trkpt>
      <trkpt lat="43.09935" lon="5.96351">
        <ele>-9.96</ele>
        <time>2019-05-29T13:32:58Z</time>
      </trkpt>
      <trkpt lat="43.09902" lon="5.96325">
        <ele>-12.36</ele>
        <time>2019-05-29T13:33:09Z</time>
      </trkpt>
      <trkpt lat="43.09849" lon="5.96285">
        <ele>-12.84</ele>
        <time>2019-05-29T13:33:25Z</time>
      </trkpt>
      <trkpt lat="43.09815" lon="5.96251">
        <ele>-12.84</ele>
        <time>2019-05-29T13:33:36Z</time>
      </trkpt>
      <trkpt lat="43.09764" lon="5.9621">
        <ele>-9.96</ele>
        <time>2019-05-29T13:33:51Z</time>
      </trkpt>
      <trkpt lat="43.09714" lon="5.96171">
        <ele>-8.51</ele>
        <time>2019-05-29T13:34:07Z</time>
      </trkpt>
      <trkpt lat="43.09677" lon="5.96133">
        <ele>-8.03</ele>
        <time>2019-05-29T13:34:20Z</time>
      </trkpt>
      <trkpt lat="43.09632" lon="5.96088">
        <ele>-8.51</ele>
        <time>2019-05-29T13:34:36Z</time>
      </trkpt>
      <trkpt lat="43.09596" lon="5.96051">
        <ele>-10.44</ele>
        <time>2019-05-29T13:34:49Z</time>
      </trkpt>
      <trkpt lat="43.09548" lon="5.96006">
        <ele>-9.96</ele>
        <time>2019-05-29T13:35:06Z</time>
      </trkpt>
      <trkpt lat="43.09511" lon="5.95972">
        <ele>-10.44</ele>
        <time>2019-05-29T13:35:20Z</time>
      </trkpt>
      <trkpt lat="43.09469" lon="5.95937">
        <ele>-9.96</ele>
        <time>2019-05-29T13:35:35Z</time>
      </trkpt>
      <trkpt lat="43.09444" lon="5.95913">
        <ele>-12.36</ele>
        <time>2019-05-29T13:35:45Z</time>
      </trkpt>
      <trkpt lat="43.09407" lon="5.95885">
        <ele>-10.92</ele>
        <time>2019-05-29T13:35:59Z</time>
      </trkpt>
      <trkpt lat="43.0937" lon="5.95859">
        <ele>-9.96</ele>
        <time>2019-05-29T13:36:12Z</time>
      </trkpt>
      <trkpt lat="43.09327" lon="5.95827">
        <ele>-9.48</ele>
        <time>2019-05-29T13:36:26Z</time>
      </trkpt>
      <trkpt lat="43.0929" lon="5.95801">
        <ele>-8.51</ele>
        <time>2019-05-29T13:36:38Z</time>
      </trkpt>
      <trkpt lat="43.09253" lon="5.95774">
        <ele>-9</ele>
        <time>2019-05-29T13:36:51Z</time>
      </trkpt>
      <trkpt lat="43.09216" lon="5.95744">
        <ele>-9.48</ele>
        <time>2019-05-29T13:37:04Z</time>
      </trkpt>
      <trkpt lat="43.09181" lon="5.95714">
        <ele>-9.96</ele>
        <time>2019-05-29T13:37:16Z</time>
      </trkpt>
      <trkpt lat="43.09138" lon="5.9568">
        <ele>-9</ele>
        <time>2019-05-29T13:37:30Z</time>
      </trkpt>
      <trkpt lat="43.09122" lon="5.9567">
        <ele>-9</ele>
        <time>2019-05-29T13:37:35Z</time>
      </trkpt>
      <trkpt lat="43.09126" lon="5.95656">
        <ele>-7.55</ele>
        <time>2019-05-29T13:37:41Z</time>
      </trkpt>
      <trkpt lat="43.09132" lon="5.95655">
        <ele>-7.07</ele>
        <time>2019-05-29T13:37:44Z</time>
      </trkpt>
      <trkpt lat="43.09137" lon="5.95643">
        <ele>-6.59</ele>
        <time>2019-05-29T13:37:52Z</time>
      </trkpt>
      <trkpt lat="43.09153" lon="5.95628">
        <ele>-6.59</ele>
        <time>2019-05-29T13:38:02Z</time>
      </trkpt>
      <trkpt lat="43.09188" lon="5.95588">
        <ele>-6.11</ele>
        <time>2019-05-29T13:38:19Z</time>
      </trkpt>
      <trkpt lat="43.09235" lon="5.95538">
        <ele>-3.71</ele>
        <time>2019-05-29T13:38:37Z</time>
      </trkpt>
      <trkpt lat="43.09276" lon="5.95498">
        <ele>-4.67</ele>
        <time>2019-05-29T13:38:52Z</time>
      </trkpt>
      <trkpt lat="43.09318" lon="5.95456">
        <ele>-5.63</ele>
        <time>2019-05-29T13:39:08Z</time>
      </trkpt>
      <trkpt lat="43.09354" lon="5.95423">
        <ele>-6.59</ele>
        <time>2019-05-29T13:39:22Z</time>
      </trkpt>
      <trkpt lat="43.09393" lon="5.95381">
        <ele>-3.23</ele>
        <time>2019-05-29T13:39:38Z</time>
      </trkpt>
      <trkpt lat="43.09436" lon="5.95338">
        <ele>-4.19</ele>
        <time>2019-05-29T13:39:55Z</time>
      </trkpt>
      <trkpt lat="43.09478" lon="5.95297">
        <ele>-3.71</ele>
        <time>2019-05-29T13:40:12Z</time>
      </trkpt>
      <trkpt lat="43.09522" lon="5.95257">
        <ele>-4.67</ele>
        <time>2019-05-29T13:40:28Z</time>
      </trkpt>
      <trkpt lat="43.09568" lon="5.95215">
        <ele>-4.19</ele>
        <time>2019-05-29T13:40:44Z</time>
      </trkpt>
      <trkpt lat="43.09606" lon="5.95182">
        <ele>-4.67</ele>
        <time>2019-05-29T13:40:57Z</time>
      </trkpt>
      <trkpt lat="43.09656" lon="5.95134">
        <ele>-3.71</ele>
        <time>2019-05-29T13:41:15Z</time>
      </trkpt>
      <trkpt lat="43.097" lon="5.95092">
        <ele>-4.19</ele>
        <time>2019-05-29T13:41:31Z</time>
      </trkpt>
      <trkpt lat="43.09739" lon="5.95055">
        <ele>-4.67</ele>
        <time>2019-05-29T13:41:45Z</time>
      </trkpt>
      <trkpt lat="43.09772" lon="5.9502">
        <ele>-4.67</ele>
        <time>2019-05-29T13:41:59Z</time>
      </trkpt>
      <trkpt lat="43.0981" lon="5.94972">
        <ele>-4.67</ele>
        <time>2019-05-29T13:42:16Z</time>
      </trkpt>
      <trkpt lat="43.09847" lon="5.94923">
        <ele>-2.75</ele>
        <time>2019-05-29T13:42:33Z</time>
      </trkpt>
      <trkpt lat="43.09874" lon="5.94891">
        <ele>-2.75</ele>
        <time>2019-05-29T13:42:46Z</time>
      </trkpt>
      <trkpt lat="43.099" lon="5.94862">
        <ele>-2.75</ele>
        <time>2019-05-29T13:43:01Z</time>
      </trkpt>
      <trkpt lat="43.09923" lon="5.94851">
        <ele>-4.19</ele>
        <time>2019-05-29T13:43:13Z</time>
      </trkpt>
      <trkpt lat="43.0995" lon="5.94843">
        <ele>-3.71</ele>
        <time>2019-05-29T13:43:28Z</time>
      </trkpt>
      <trkpt lat="43.09977" lon="5.94835">
        <ele>-5.15</ele>
        <time>2019-05-29T13:43:42Z</time>
      </trkpt>
      <trkpt lat="43.10014" lon="5.94831">
        <ele>-3.71</ele>
        <time>2019-05-29T13:43:55Z</time>
      </trkpt>
      <trkpt lat="43.1004" lon="5.9483">
        <ele>-3.23</ele>
        <time>2019-05-29T13:44:03Z</time>
      </trkpt>
      <trkpt lat="43.10045" lon="5.9482">
        <ele>-4.67</ele>
        <time>2019-05-29T13:44:07Z</time>
      </trkpt>
      <trkpt lat="43.10022" lon="5.94777">
        <ele>-7.55</ele>
        <time>2019-05-29T13:44:22Z</time>
      </trkpt>
      <trkpt lat="43.0999" lon="5.94728">
        <ele>-8.51</ele>
        <time>2019-05-29T13:44:38Z</time>
      </trkpt>
      <trkpt lat="43.09955" lon="5.94669">
        <ele>-9.48</ele>
        <time>2019-05-29T13:44:56Z</time>
      </trkpt>
      <trkpt lat="43.09918" lon="5.94616">
        <ele>-10.44</ele>
        <time>2019-05-29T13:45:13Z</time>
      </trkpt>
      <trkpt lat="43.09891" lon="5.94564">
        <ele>-7.07</ele>
        <time>2019-05-29T13:45:29Z</time>
      </trkpt>
      <trkpt lat="43.09876" lon="5.94523">
        <ele>-8.51</ele>
        <time>2019-05-29T13:45:42Z</time>
      </trkpt>
      <trkpt lat="43.09857" lon="5.94474">
        <ele>-7.07</ele>
        <time>2019-05-29T13:45:58Z</time>
      </trkpt>
      <trkpt lat="43.09853" lon="5.94437">
        <ele>-7.55</ele>
        <time>2019-05-29T13:46:14Z</time>
      </trkpt>
      <trkpt lat="43.09846" lon="5.94417">
        <ele>-6.11</ele>
        <time>2019-05-29T13:46:23Z</time>
      </trkpt>
      <trkpt lat="43.09861" lon="5.94414">
        <ele>-4.19</ele>
        <time>2019-05-29T13:46:39Z</time>
      </trkpt>
      <trkpt lat="43.09875" lon="5.94412">
        <ele>-3.71</ele>
        <time>2019-05-29T13:46:59Z</time>
      </trkpt>
      <trkpt lat="43.09886" lon="5.94414">
        <ele>-4.19</ele>
        <time>2019-05-29T13:47:12Z</time>
      </trkpt>
      <trkpt lat="43.09892" lon="5.94417">
        <ele>-2.75</ele>
        <time>2019-05-29T13:47:17Z</time>
      </trkpt>
      <trkpt lat="43.09916" lon="5.94423">
        <ele>-1.79</ele>
        <time>2019-05-29T13:47:34Z</time>
      </trkpt>
      <trkpt lat="43.09924" lon="5.94411">
        <ele>-3.23</ele>
        <time>2019-05-29T13:47:48Z</time>
      </trkpt>
      <trkpt lat="43.09917" lon="5.94406">
        <ele>-3.71</ele>
        <time>2019-05-29T13:47:53Z</time>
      </trkpt>
      <trkpt lat="43.09893" lon="5.94365">
        <ele>-3.71</ele>
        <time>2019-05-29T13:48:11Z</time>
      </trkpt>
      <trkpt lat="43.09861" lon="5.94328">
        <ele>-3.23</ele>
        <time>2019-05-29T13:48:31Z</time>
      </trkpt>
      <trkpt lat="43.09827" lon="5.943">
        <ele>-4.19</ele>
        <time>2019-05-29T13:48:51Z</time>
      </trkpt>
      <trkpt lat="43.09793" lon="5.94272">
        <ele>-5.15</ele>
        <time>2019-05-29T13:49:07Z</time>
      </trkpt>
      <trkpt lat="43.09758" lon="5.94236">
        <ele>-6.59</ele>
        <time>2019-05-29T13:49:22Z</time>
      </trkpt>
      <trkpt lat="43.09717" lon="5.94192">
        <ele>-6.11</ele>
        <time>2019-05-29T13:49:38Z</time>
      </trkpt>
      <trkpt lat="43.09663" lon="5.94138">
        <ele>-9.96</ele>
        <time>2019-05-29T13:49:59Z</time>
      </trkpt>
      <trkpt lat="43.09613" lon="5.94103">
        <ele>-8.03</ele>
        <time>2019-05-29T13:50:17Z</time>
      </trkpt>
      <trkpt lat="43.0957" lon="5.94065">
        <ele>-8.51</ele>
        <time>2019-05-29T13:50:34Z</time>
      </trkpt>
      <trkpt lat="43.09529" lon="5.94012">
        <ele>-7.07</ele>
        <time>2019-05-29T13:50:54Z</time>
      </trkpt>
      <trkpt lat="43.095" lon="5.93969">
        <ele>-6.59</ele>
        <time>2019-05-29T13:51:11Z</time>
      </trkpt>
      <trkpt lat="43.0947" lon="5.93929">
        <ele>-6.11</ele>
        <time>2019-05-29T13:51:27Z</time>
      </trkpt>
      <trkpt lat="43.09436" lon="5.93894">
        <ele>-5.63</ele>
        <time>2019-05-29T13:51:44Z</time>
      </trkpt>
      <trkpt lat="43.09397" lon="5.93852">
        <ele>-6.59</ele>
        <time>2019-05-29T13:52:02Z</time>
      </trkpt>
      <trkpt lat="43.09364" lon="5.93815">
        <ele>-5.63</ele>
        <time>2019-05-29T13:52:17Z</time>
      </trkpt>
      <trkpt lat="43.09329" lon="5.93779">
        <ele>-6.11</ele>
        <time>2019-05-29T13:52:33Z</time>
      </trkpt>
      <trkpt lat="43.09306" lon="5.9374">
        <ele>-6.59</ele>
        <time>2019-05-29T13:52:47Z</time>
      </trkpt>
      <trkpt lat="43.09271" lon="5.93702">
        <ele>-8.03</ele>
        <time>2019-05-29T13:53:04Z</time>
      </trkpt>
      <trkpt lat="43.09256" lon="5.93667">
        <ele>-9</ele>
        <time>2019-05-29T13:53:15Z</time>
      </trkpt>
      <trkpt lat="43.0924" lon="5.93639">
        <ele>-9</ele>
        <time>2019-05-29T13:53:27Z</time>
      </trkpt>
      <trkpt lat="43.09212" lon="5.93614">
        <ele>-7.55</ele>
        <time>2019-05-29T13:53:43Z</time>
      </trkpt>
      <trkpt lat="43.09184" lon="5.93624">
        <ele>-5.15</ele>
        <time>2019-05-29T13:53:58Z</time>
      </trkpt>
      <trkpt lat="43.09169" lon="5.93652">
        <ele>-6.11</ele>
        <time>2019-05-29T13:54:10Z</time>
      </trkpt>
      <trkpt lat="43.09143" lon="5.93683">
        <ele>-4.67</ele>
        <time>2019-05-29T13:54:26Z</time>
      </trkpt>
      <trkpt lat="43.09108" lon="5.937">
        <ele>-3.23</ele>
        <time>2019-05-29T13:54:43Z</time>
      </trkpt>
      <trkpt lat="43.09082" lon="5.93707">
        <ele>-3.71</ele>
        <time>2019-05-29T13:54:57Z</time>
      </trkpt>
      <trkpt lat="43.0905" lon="5.93694">
        <ele>-5.15</ele>
        <time>2019-05-29T13:55:18Z</time>
      </trkpt>
      <trkpt lat="43.09023" lon="5.93669">
        <ele>-7.55</ele>
        <time>2019-05-29T13:55:37Z</time>
      </trkpt>
      <trkpt lat="43.08993" lon="5.93649">
        <ele>-9</ele>
        <time>2019-05-29T13:55:54Z</time>
      </trkpt>
      <trkpt lat="43.08976" lon="5.93625">
        <ele>-7.07</ele>
        <time>2019-05-29T13:56:10Z</time>
      </trkpt>
      <trkpt lat="43.08965" lon="5.93613">
        <ele>-8.51</ele>
        <time>2019-05-29T13:56:27Z</time>
      </trkpt>
      <trkpt lat="43.08964" lon="5.93606">
        <ele>-8.03</ele>
        <time>2019-05-29T13:56:45Z</time>
      </trkpt>
      <trkpt lat="43.08964" lon="5.93606">
        <ele>-7.55</ele>
        <time>2019-05-29T13:56:48Z</time>
      </trkpt>
      <trkpt lat="43.08974" lon="5.93594">
        <ele>-7.55</ele>
        <time>2019-05-29T13:56:58Z</time>
      </trkpt>
      <trkpt lat="43.0896" lon="5.93582">
        <ele>-6.59</ele>
        <time>2019-05-29T13:57:10Z</time>
      </trkpt>
      <trkpt lat="43.08958" lon="5.93604">
        <ele>-5.15</ele>
        <time>2019-05-29T13:57:17Z</time>
      </trkpt>
      <trkpt lat="43.08982" lon="5.93649">
        <ele>-4.67</ele>
        <time>2019-05-29T13:57:33Z</time>
      </trkpt>
      <trkpt lat="43.09" lon="5.93704">
        <ele>-4.19</ele>
        <time>2019-05-29T13:57:53Z</time>
      </trkpt>
      <trkpt lat="43.09005" lon="5.93729">
        <ele>-1.79</ele>
        <time>2019-05-29T13:58:10Z</time>
      </trkpt>
      <trkpt lat="43.09011" lon="5.93741">
        <ele>-1.3</ele>
        <time>2019-05-29T13:58:19Z</time>
      </trkpt>
      <trkpt lat="43.09027" lon="5.93753">
        <ele>-1.79</ele>
        <time>2019-05-29T13:58:34Z</time>
      </trkpt>
      <trkpt lat="43.0904" lon="5.9376">
        <ele>-1.79</ele>
        <time>2019-05-29T13:58:50Z</time>
      </trkpt>
      <trkpt lat="43.0905" lon="5.93766">
        <ele>-2.75</ele>
        <time>2019-05-29T13:59:03Z</time>
      </trkpt>
      <trkpt lat="43.09071" lon="5.93765">
        <ele>-4.19</ele>
        <time>2019-05-29T13:59:18Z</time>
      </trkpt>
      <trkpt lat="43.09073" lon="5.93758">
        <ele>-4.67</ele>
        <time>2019-05-29T13:59:21Z</time>
      </trkpt>
      <trkpt lat="43.09069" lon="5.93753">
        <ele>-4.67</ele>
        <time>2019-05-29T13:59:25Z</time>
      </trkpt>
      <trkpt lat="43.09038" lon="5.9373">
        <ele>-5.63</ele>
        <time>2019-05-29T13:59:43Z</time>
      </trkpt>
      <trkpt lat="43.09009" lon="5.93693">
        <ele>-7.55</ele>
        <time>2019-05-29T14:00:02Z</time>
      </trkpt>
      <trkpt lat="43.08981" lon="5.93662">
        <ele>-9</ele>
        <time>2019-05-29T14:00:19Z</time>
      </trkpt>
      <trkpt lat="43.08956" lon="5.93616">
        <ele>-10.92</ele>
        <time>2019-05-29T14:00:36Z</time>
      </trkpt>
      <trkpt lat="43.08936" lon="5.93557">
        <ele>-9</ele>
        <time>2019-05-29T14:00:54Z</time>
      </trkpt>
      <trkpt lat="43.08919" lon="5.93508">
        <ele>-7.55</ele>
        <time>2019-05-29T14:01:09Z</time>
      </trkpt>
      <trkpt lat="43.08899" lon="5.93447">
        <ele>-7.07</ele>
        <time>2019-05-29T14:01:28Z</time>
      </trkpt>
      <trkpt lat="43.08876" lon="5.93399">
        <ele>-6.11</ele>
        <time>2019-05-29T14:01:44Z</time>
      </trkpt>
      <trkpt lat="43.08862" lon="5.93347">
        <ele>-8.51</ele>
        <time>2019-05-29T14:02:00Z</time>
      </trkpt>
      <trkpt lat="43.08853" lon="5.93289">
        <ele>-10.44</ele>
        <time>2019-05-29T14:02:17Z</time>
      </trkpt>
      <trkpt lat="43.08833" lon="5.93234">
        <ele>-8.51</ele>
        <time>2019-05-29T14:02:34Z</time>
      </trkpt>
      <trkpt lat="43.088" lon="5.93186">
        <ele>-9.96</ele>
        <time>2019-05-29T14:02:52Z</time>
      </trkpt>
      <trkpt lat="43.0877" lon="5.93137">
        <ele>-8.51</ele>
        <time>2019-05-29T14:03:10Z</time>
      </trkpt>
      <trkpt lat="43.08752" lon="5.93093">
        <ele>-7.07</ele>
        <time>2019-05-29T14:03:24Z</time>
      </trkpt>
      <trkpt lat="43.08724" lon="5.93044">
        <ele>-7.55</ele>
        <time>2019-05-29T14:03:41Z</time>
      </trkpt>
      <trkpt lat="43.08697" lon="5.93003">
        <ele>-7.55</ele>
        <time>2019-05-29T14:03:56Z</time>
      </trkpt>
      <trkpt lat="43.08664" lon="5.92952">
        <ele>-7.07</ele>
        <time>2019-05-29T14:04:15Z</time>
      </trkpt>
      <trkpt lat="43.08646" lon="5.9293">
        <ele>-8.51</ele>
        <time>2019-05-29T14:04:30Z</time>
      </trkpt>
      <trkpt lat="43.08643" lon="5.92927">
        <ele>-8.51</ele>
        <time>2019-05-29T14:04:33Z</time>
      </trkpt>
      <trkpt lat="43.08626" lon="5.92906">
        <ele>-9.48</ele>
        <time>2019-05-29T14:04:52Z</time>
      </trkpt>
      <trkpt lat="43.08621" lon="5.92895">
        <ele>-9</ele>
        <time>2019-05-29T14:05:01Z</time>
      </trkpt>
      <trkpt lat="43.08617" lon="5.92884">
        <ele>-9</ele>
        <time>2019-05-29T14:05:10Z</time>
      </trkpt>
      <trkpt lat="43.08608" lon="5.92858">
        <ele>-9.96</ele>
        <time>2019-05-29T14:05:22Z</time>
      </trkpt>
      <trkpt lat="43.08583" lon="5.92821">
        <ele>-10.92</ele>
        <time>2019-05-29T14:05:37Z</time>
      </trkpt>
      <trkpt lat="43.08556" lon="5.92782">
        <ele>-10.92</ele>
        <time>2019-05-29T14:05:52Z</time>
      </trkpt>
      <trkpt lat="43.08515" lon="5.92736">
        <ele>-10.44</ele>
        <time>2019-05-29T14:06:12Z</time>
      </trkpt>
      <trkpt lat="43.08491" lon="5.92707">
        <ele>-10.92</ele>
        <time>2019-05-29T14:06:24Z</time>
      </trkpt>
      <trkpt lat="43.08464" lon="5.92673">
        <ele>-9.96</ele>
        <time>2019-05-29T14:06:38Z</time>
      </trkpt>
      <trkpt lat="43.08444" lon="5.92645">
        <ele>-9.48</ele>
        <time>2019-05-29T14:06:53Z</time>
      </trkpt>
      <trkpt lat="43.08427" lon="5.92619">
        <ele>-9.48</ele>
        <time>2019-05-29T14:07:10Z</time>
      </trkpt>
      <trkpt lat="43.08408" lon="5.92592">
        <ele>-8.03</ele>
        <time>2019-05-29T14:07:26Z</time>
      </trkpt>
      <trkpt lat="43.08372" lon="5.92552">
        <ele>-6.59</ele>
        <time>2019-05-29T14:07:44Z</time>
      </trkpt>
      <trkpt lat="43.08336" lon="5.92526">
        <ele>-6.59</ele>
        <time>2019-05-29T14:07:59Z</time>
      </trkpt>
      <trkpt lat="43.0829" lon="5.92519">
        <ele>-5.63</ele>
        <time>2019-05-29T14:08:21Z</time>
      </trkpt>
      <trkpt lat="43.08249" lon="5.92514">
        <ele>-4.19</ele>
        <time>2019-05-29T14:08:44Z</time>
      </trkpt>
      <trkpt lat="43.08214" lon="5.92513">
        <ele>-3.71</ele>
        <time>2019-05-29T14:09:07Z</time>
      </trkpt>
      <trkpt lat="43.08196" lon="5.92512">
        <ele>-3.23</ele>
        <time>2019-05-29T14:09:20Z</time>
      </trkpt>
      <trkpt lat="43.082" lon="5.92492">
        <ele>-4.67</ele>
        <time>2019-05-29T14:09:35Z</time>
      </trkpt>
      <trkpt lat="43.08206" lon="5.92495">
        <ele>-4.67</ele>
        <time>2019-05-29T14:09:43Z</time>
      </trkpt>
      <trkpt lat="43.08212" lon="5.92508">
        <ele>-2.75</ele>
        <time>2019-05-29T14:09:54Z</time>
      </trkpt>
      <trkpt lat="43.08222" lon="5.92508">
        <ele>-2.27</ele>
        <time>2019-05-29T14:10:06Z</time>
      </trkpt>
      <trkpt lat="43.08231" lon="5.92499">
        <ele>-1.79</ele>
        <time>2019-05-29T14:10:20Z</time>
      </trkpt>
      <trkpt lat="43.08223" lon="5.92487">
        <ele>-3.23</ele>
        <time>2019-05-29T14:10:39Z</time>
      </trkpt>
      <trkpt lat="43.08209" lon="5.92474">
        <ele>-4.67</ele>
        <time>2019-05-29T14:10:59Z</time>
      </trkpt>
      <trkpt lat="43.08196" lon="5.92457">
        <ele>-2.27</ele>
        <time>2019-05-29T14:11:20Z</time>
      </trkpt>
      <trkpt lat="43.08194" lon="5.92456">
        <ele>-2.27</ele>
        <time>2019-05-29T14:11:22Z</time>
      </trkpt>
      <trkpt lat="43.08158" lon="5.92463">
        <ele>-1.3</ele>
        <time>2019-05-29T14:11:46Z</time>
      </trkpt>
      <trkpt lat="43.08114" lon="5.92483">
        <ele>1.58</ele>
        <time>2019-05-29T14:12:07Z</time>
      </trkpt>
      <trkpt lat="43.0808" lon="5.92495">
        <ele>2.06</ele>
        <time>2019-05-29T14:12:28Z</time>
      </trkpt>
      <trkpt lat="43.08044" lon="5.92504">
        <ele>0.62</ele>
        <time>2019-05-29T14:12:55Z</time>
      </trkpt>
      <trkpt lat="43.0802" lon="5.92505">
        <ele>1.58</ele>
        <time>2019-05-29T14:13:14Z</time>
      </trkpt>
      <trkpt lat="43.08013" lon="5.92507">
        <ele>1.58</ele>
        <time>2019-05-29T14:13:34Z</time>
      </trkpt>
      <trkpt lat="43.08023" lon="5.92509">
        <ele>1.58</ele>
        <time>2019-05-29T14:13:48Z</time>
      </trkpt>
      <trkpt lat="43.08033" lon="5.92491">
        <ele>-0.82</ele>
        <time>2019-05-29T14:14:03Z</time>
      </trkpt>
      <trkpt lat="43.08036" lon="5.92471">
        <ele>-2.75</ele>
        <time>2019-05-29T14:14:19Z</time>
      </trkpt>
      <trkpt lat="43.08039" lon="5.92454">
        <ele>-2.75</ele>
        <time>2019-05-29T14:14:35Z</time>
      </trkpt>
      <trkpt lat="43.08041" lon="5.92443">
        <ele>-1.79</ele>
        <time>2019-05-29T14:14:47Z</time>
      </trkpt>
      <trkpt lat="43.08041" lon="5.92438">
        <ele>-0.34</ele>
        <time>2019-05-29T14:15:03Z</time>
      </trkpt>
      <trkpt lat="43.08042" lon="5.92435">
        <ele>-0.34</ele>
        <time>2019-05-29T14:15:18Z</time>
      </trkpt>
      <trkpt lat="43.08043" lon="5.92436">
        <ele>-2.75</ele>
        <time>2019-05-29T14:15:41Z</time>
      </trkpt>
      <trkpt lat="43.08043" lon="5.92435">
        <ele>-2.75</ele>
        <time>2019-05-29T14:16:06Z</time>
      </trkpt>
      <trkpt lat="43.08044" lon="5.92432">
        <ele>-4.19</ele>
        <time>2019-05-29T14:16:26Z</time>
      </trkpt>
      <trkpt lat="43.08045" lon="5.92432">
        <ele>-4.19</ele>
        <time>2019-05-29T14:16:45Z</time>
      </trkpt>
      <trkpt lat="43.08045" lon="5.92431">
        <ele>-4.67</ele>
        <time>2019-05-29T14:17:09Z</time>
      </trkpt>
      <trkpt lat="43.08045" lon="5.92431">
        <ele>-4.19</ele>
        <time>2019-05-29T14:17:33Z</time>
      </trkpt>
      <trkpt lat="43.08045" lon="5.92432">
        <ele>-3.71</ele>
        <time>2019-05-29T14:17:49Z</time>
      </trkpt>
    </trkseg>
  </trk>
  <trk>
    <name><![CDATA[Tracé actuel: 30 MAI 2019 09:34]]></name>
    <trkseg>
      <trkpt lat="43.08023" lon="5.92413">
        <ele>12.63</ele>
        <time>2019-05-30T07:34:47Z</time>
      </trkpt>
      <trkpt lat="43.08034" lon="5.9241">
        <ele>16</ele>
        <time>2019-05-30T07:35:01Z</time>
      </trkpt>
      <trkpt lat="43.08033" lon="5.92406">
        <ele>23.69</ele>
        <time>2019-05-30T07:35:21Z</time>
      </trkpt>
      <trkpt lat="43.08038" lon="5.92404">
        <ele>25.13</ele>
        <time>2019-05-30T07:35:41Z</time>
      </trkpt>
      <trkpt lat="43.08043" lon="5.92406">
        <ele>24.17</ele>
        <time>2019-05-30T07:36:06Z</time>
      </trkpt>
      <trkpt lat="43.08047" lon="5.92423">
        <ele>8.79</ele>
        <time>2019-05-30T07:36:28Z</time>
      </trkpt>
      <trkpt lat="43.08045" lon="5.92428">
        <ele>1.58</ele>
        <time>2019-05-30T07:36:48Z</time>
      </trkpt>
      <trkpt lat="43.08044" lon="5.92429">
        <ele>-1.3</ele>
        <time>2019-05-30T07:37:10Z</time>
      </trkpt>
      <trkpt lat="43.08043" lon="5.9243">
        <ele>-1.79</ele>
        <time>2019-05-30T07:37:31Z</time>
      </trkpt>
      <trkpt lat="43.08043" lon="5.92431">
        <ele>-2.75</ele>
        <time>2019-05-30T07:37:57Z</time>
      </trkpt>
      <trkpt lat="43.08043" lon="5.92432">
        <ele>-2.75</ele>
        <time>2019-05-30T07:38:23Z</time>
      </trkpt>
      <trkpt lat="43.08043" lon="5.92432">
        <ele>-2.27</ele>
        <time>2019-05-30T07:38:46Z</time>
      </trkpt>
      <trkpt lat="43.08043" lon="5.92432">
        <ele>-2.27</ele>
        <time>2019-05-30T07:39:03Z</time>
      </trkpt>
      <trkpt lat="43.08043" lon="5.92432">
        <ele>-2.27</ele>
        <time>2019-05-30T07:39:21Z</time>
      </trkpt>
      <trkpt lat="43.08044" lon="5.92432">
        <ele>-2.27</ele>
        <time>2019-05-30T07:39:41Z</time>
      </trkpt>
      <trkpt lat="43.08043" lon="5.92432">
        <ele>-2.27</ele>
        <time>2019-05-30T07:40:00Z</time>
      </trkpt>
      <trkpt lat="43.08044" lon="5.92432">
        <ele>-2.27</ele>
        <time>2019-05-30T07:40:24Z</time>
      </trkpt>
      <trkpt lat="43.08043" lon="5.92432">
        <ele>-2.27</ele>
        <time>2019-05-30T07:40:44Z</time>
      </trkpt>
      <trkpt lat="43.08043" lon="5.92432">
        <ele>-2.75</ele>
        <time>2019-05-30T07:41:05Z</time>
      </trkpt>
      <trkpt lat="43.08043" lon="5.92433">
        <ele>-3.23</ele>
        <time>2019-05-30T07:41:30Z</time>
      </trkpt>
      <trkpt lat="43.08038" lon="5.9244">
        <ele>-1.79</ele>
        <time>2019-05-30T07:41:49Z</time>
      </trkpt>
      <trkpt lat="43.08037" lon="5.92445">
        <ele>-1.3</ele>
        <time>2019-05-30T07:41:53Z</time>
      </trkpt>
      <trkpt lat="43.08044" lon="5.92481">
        <ele>0.14</ele>
        <time>2019-05-30T07:42:17Z</time>
      </trkpt>
      <trkpt lat="43.08061" lon="5.92501">
        <ele>0.14</ele>
        <time>2019-05-30T07:42:37Z</time>
      </trkpt>
      <trkpt lat="43.08096" lon="5.92506">
        <ele>-1.3</ele>
        <time>2019-05-30T07:42:55Z</time>
      </trkpt>
      <trkpt lat="43.08141" lon="5.92507">
        <ele>-2.27</ele>
        <time>2019-05-30T07:43:15Z</time>
      </trkpt>
      <trkpt lat="43.08193" lon="5.92504">
        <ele>-2.75</ele>
        <time>2019-05-30T07:43:36Z</time>
      </trkpt>
      <trkpt lat="43.08255" lon="5.92502">
        <ele>-4.67</ele>
        <time>2019-05-30T07:44:02Z</time>
      </trkpt>
      <trkpt lat="43.08313" lon="5.92507">
        <ele>-4.19</ele>
        <time>2019-05-30T07:44:26Z</time>
      </trkpt>
      <trkpt lat="43.08358" lon="5.92521">
        <ele>-3.71</ele>
        <time>2019-05-30T07:44:45Z</time>
      </trkpt>
      <trkpt lat="43.08408" lon="5.92556">
        <ele>-3.23</ele>
        <time>2019-05-30T07:45:08Z</time>
      </trkpt>
      <trkpt lat="43.08452" lon="5.92593">
        <ele>-3.71</ele>
        <time>2019-05-30T07:45:29Z</time>
      </trkpt>
      <trkpt lat="43.08495" lon="5.92633">
        <ele>-3.71</ele>
        <time>2019-05-30T07:45:50Z</time>
      </trkpt>
      <trkpt lat="43.08532" lon="5.92661">
        <ele>-3.71</ele>
        <time>2019-05-30T07:46:07Z</time>
      </trkpt>
      <trkpt lat="43.08579" lon="5.92697">
        <ele>-1.79</ele>
        <time>2019-05-30T07:46:27Z</time>
      </trkpt>
      <trkpt lat="43.08623" lon="5.92736">
        <ele>-2.27</ele>
        <time>2019-05-30T07:46:45Z</time>
      </trkpt>
      <trkpt lat="43.08658" lon="5.92768">
        <ele>-2.27</ele>
        <time>2019-05-30T07:47:00Z</time>
      </trkpt>
      <trkpt lat="43.08701" lon="5.92809">
        <ele>-3.23</ele>
        <time>2019-05-30T07:47:19Z</time>
      </trkpt>
      <trkpt lat="43.08744" lon="5.92847">
        <ele>-2.27</ele>
        <time>2019-05-30T07:47:38Z</time>
      </trkpt>
      <trkpt lat="43.08778" lon="5.92877">
        <ele>-2.27</ele>
        <time>2019-05-30T07:47:54Z</time>
      </trkpt>
      <trkpt lat="43.08827" lon="5.92918">
        <ele>-2.27</ele>
        <time>2019-05-30T07:48:14Z</time>
      </trkpt>
      <trkpt lat="43.08873" lon="5.92956">
        <ele>-1.3</ele>
        <time>2019-05-30T07:48:32Z</time>
      </trkpt>
      <trkpt lat="43.08924" lon="5.92998">
        <ele>-2.27</ele>
        <time>2019-05-30T07:48:52Z</time>
      </trkpt>
      <trkpt lat="43.08977" lon="5.93038">
        <ele>-2.75</ele>
        <time>2019-05-30T07:49:12Z</time>
      </trkpt>
      <trkpt lat="43.09034" lon="5.93079">
        <ele>-2.75</ele>
        <time>2019-05-30T07:49:33Z</time>
      </trkpt>
      <trkpt lat="43.09079" lon="5.9312">
        <ele>-3.23</ele>
        <time>2019-05-30T07:49:51Z</time>
      </trkpt>
      <trkpt lat="43.09114" lon="5.93154">
        <ele>-3.71</ele>
        <time>2019-05-30T07:50:05Z</time>
      </trkpt>
      <trkpt lat="43.09161" lon="5.93199">
        <ele>-3.23</ele>
        <time>2019-05-30T07:50:24Z</time>
      </trkpt>
      <trkpt lat="43.09201" lon="5.93217">
        <ele>-2.27</ele>
        <time>2019-05-30T07:50:40Z</time>
      </trkpt>
      <trkpt lat="43.09237" lon="5.93225">
        <ele>-1.79</ele>
        <time>2019-05-30T07:51:00Z</time>
      </trkpt>
      <trkpt lat="43.09258" lon="5.93203">
        <ele>-2.27</ele>
        <time>2019-05-30T07:51:20Z</time>
      </trkpt>
      <trkpt lat="43.09271" lon="5.93178">
        <ele>-1.79</ele>
        <time>2019-05-30T07:51:37Z</time>
      </trkpt>
      <trkpt lat="43.09278" lon="5.93158">
        <ele>-1.3</ele>
        <time>2019-05-30T07:51:51Z</time>
      </trkpt>
      <trkpt lat="43.09273" lon="5.93125">
        <ele>-1.79</ele>
        <time>2019-05-30T07:52:11Z</time>
      </trkpt>
      <trkpt lat="43.09265" lon="5.93091">
        <ele>-2.27</ele>
        <time>2019-05-30T07:52:32Z</time>
      </trkpt>
      <trkpt lat="43.09258" lon="5.93063">
        <ele>-2.27</ele>
        <time>2019-05-30T07:52:49Z</time>
      </trkpt>
      <trkpt lat="43.09252" lon="5.93028">
        <ele>-2.27</ele>
        <time>2019-05-30T07:53:11Z</time>
      </trkpt>
      <trkpt lat="43.09245" lon="5.92996">
        <ele>-3.23</ele>
        <time>2019-05-30T07:53:30Z</time>
      </trkpt>
      <trkpt lat="43.09257" lon="5.9298">
        <ele>-3.23</ele>
        <time>2019-05-30T07:53:46Z</time>
      </trkpt>
      <trkpt lat="43.09262" lon="5.92983">
        <ele>-3.71</ele>
        <time>2019-05-30T07:53:52Z</time>
      </trkpt>
      <trkpt lat="43.0927" lon="5.93017">
        <ele>-4.67</ele>
        <time>2019-05-30T07:54:12Z</time>
      </trkpt>
      <trkpt lat="43.09284" lon="5.93067">
        <ele>-4.67</ele>
        <time>2019-05-30T07:54:36Z</time>
      </trkpt>
      <trkpt lat="43.09301" lon="5.93101">
        <ele>-4.19</ele>
        <time>2019-05-30T07:54:54Z</time>
      </trkpt>
      <trkpt lat="43.09325" lon="5.93146">
        <ele>-3.71</ele>
        <time>2019-05-30T07:55:17Z</time>
      </trkpt>
      <trkpt lat="43.09345" lon="5.93187">
        <ele>-3.71</ele>
        <time>2019-05-30T07:55:37Z</time>
      </trkpt>
      <trkpt lat="43.09365" lon="5.93236">
        <ele>-4.19</ele>
        <time>2019-05-30T07:56:00Z</time>
      </trkpt>
      <trkpt lat="43.09386" lon="5.9327">
        <ele>-3.71</ele>
        <time>2019-05-30T07:56:19Z</time>
      </trkpt>
      <trkpt lat="43.09412" lon="5.93305">
        <ele>-2.75</ele>
        <time>2019-05-30T07:56:34Z</time>
      </trkpt>
      <trkpt lat="43.09453" lon="5.93362">
        <ele>-3.23</ele>
        <time>2019-05-30T07:56:54Z</time>
      </trkpt>
      <trkpt lat="43.09485" lon="5.934">
        <ele>-3.23</ele>
        <time>2019-05-30T07:57:08Z</time>
      </trkpt>
      <trkpt lat="43.09536" lon="5.93461">
        <ele>-2.75</ele>
        <time>2019-05-30T07:57:30Z</time>
      </trkpt>
      <trkpt lat="43.09583" lon="5.9351">
        <ele>-3.23</ele>
        <time>2019-05-30T07:57:49Z</time>
      </trkpt>
      <trkpt lat="43.0962" lon="5.93553">
        <ele>-3.23</ele>
        <time>2019-05-30T07:58:05Z</time>
      </trkpt>
      <trkpt lat="43.09662" lon="5.93613">
        <ele>-3.71</ele>
        <time>2019-05-30T07:58:25Z</time>
      </trkpt>
      <trkpt lat="43.09701" lon="5.93676">
        <ele>-2.27</ele>
        <time>2019-05-30T07:58:45Z</time>
      </trkpt>
      <trkpt lat="43.09741" lon="5.93729">
        <ele>-3.23</ele>
        <time>2019-05-30T07:59:06Z</time>
      </trkpt>
      <trkpt lat="43.09775" lon="5.9377">
        <ele>-2.75</ele>
        <time>2019-05-30T07:59:24Z</time>
      </trkpt>
      <trkpt lat="43.09816" lon="5.93822">
        <ele>-0.82</ele>
        <time>2019-05-30T07:59:47Z</time>
      </trkpt>
      <trkpt lat="43.0985" lon="5.93872">
        <ele>-0.34</ele>
        <time>2019-05-30T08:00:07Z</time>
      </trkpt>
      <trkpt lat="43.09885" lon="5.93917">
        <ele>-0.82</ele>
        <time>2019-05-30T08:00:27Z</time>
      </trkpt>
      <trkpt lat="43.09916" lon="5.9395">
        <ele>-0.82</ele>
        <time>2019-05-30T08:00:43Z</time>
      </trkpt>
      <trkpt lat="43.09952" lon="5.93989">
        <ele>-1.3</ele>
        <time>2019-05-30T08:01:02Z</time>
      </trkpt>
      <trkpt lat="43.09982" lon="5.94018">
        <ele>-2.27</ele>
        <time>2019-05-30T08:01:22Z</time>
      </trkpt>
      <trkpt lat="43.1" lon="5.94036">
        <ele>-2.75</ele>
        <time>2019-05-30T08:01:38Z</time>
      </trkpt>
      <trkpt lat="43.10015" lon="5.94055">
        <ele>-2.75</ele>
        <time>2019-05-30T08:01:54Z</time>
      </trkpt>
      <trkpt lat="43.10028" lon="5.94079">
        <ele>-2.75</ele>
        <time>2019-05-30T08:02:13Z</time>
      </trkpt>
      <trkpt lat="43.10024" lon="5.94111">
        <ele>-1.79</ele>
        <time>2019-05-30T08:02:35Z</time>
      </trkpt>
      <trkpt lat="43.10022" lon="5.94144">
        <ele>-1.3</ele>
        <time>2019-05-30T08:02:58Z</time>
      </trkpt>
      <trkpt lat="43.10022" lon="5.94171">
        <ele>-0.34</ele>
        <time>2019-05-30T08:03:17Z</time>
      </trkpt>
      <trkpt lat="43.10025" lon="5.94197">
        <ele>-0.82</ele>
        <time>2019-05-30T08:03:35Z</time>
      </trkpt>
      <trkpt lat="43.10029" lon="5.94218">
        <ele>-1.3</ele>
        <time>2019-05-30T08:03:50Z</time>
      </trkpt>
      <trkpt lat="43.10035" lon="5.94249">
        <ele>-1.3</ele>
        <time>2019-05-30T08:04:12Z</time>
      </trkpt>
      <trkpt lat="43.10047" lon="5.9427">
        <ele>-1.3</ele>
        <time>2019-05-30T08:04:32Z</time>
      </trkpt>
      <trkpt lat="43.10059" lon="5.94287">
        <ele>-0.82</ele>
        <time>2019-05-30T08:04:48Z</time>
      </trkpt>
      <trkpt lat="43.10073" lon="5.94306">
        <ele>-0.82</ele>
        <time>2019-05-30T08:05:06Z</time>
      </trkpt>
      <trkpt lat="43.10081" lon="5.94334">
        <ele>-1.3</ele>
        <time>2019-05-30T08:05:26Z</time>
      </trkpt>
      <trkpt lat="43.10085" lon="5.94366">
        <ele>-1.79</ele>
        <time>2019-05-30T08:05:49Z</time>
      </trkpt>
      <trkpt lat="43.10098" lon="5.94396">
        <ele>-1.3</ele>
        <time>2019-05-30T08:06:12Z</time>
      </trkpt>
      <trkpt lat="43.10095" lon="5.94419">
        <ele>-1.3</ele>
        <time>2019-05-30T08:06:27Z</time>
      </trkpt>
      <trkpt lat="43.10079" lon="5.94413">
        <ele>-2.27</ele>
        <time>2019-05-30T08:06:41Z</time>
      </trkpt>
      <trkpt lat="43.10081" lon="5.94377">
        <ele>-1.3</ele>
        <time>2019-05-30T08:07:04Z</time>
      </trkpt>
      <trkpt lat="43.10079" lon="5.9435">
        <ele>-1.79</ele>
        <time>2019-05-30T08:07:22Z</time>
      </trkpt>
      <trkpt lat="43.10074" lon="5.94322">
        <ele>-2.27</ele>
        <time>2019-05-30T08:07:39Z</time>
      </trkpt>
      <trkpt lat="43.10066" lon="5.94284">
        <ele>-1.79</ele>
        <time>2019-05-30T08:08:01Z</time>
      </trkpt>
      <trkpt lat="43.10076" lon="5.94262">
        <ele>-1.79</ele>
        <time>2019-05-30T08:08:16Z</time>
      </trkpt>
      <trkpt lat="43.10101" lon="5.94269">
        <ele>-0.82</ele>
        <time>2019-05-30T08:08:41Z</time>
      </trkpt>
      <trkpt lat="43.10103" lon="5.94271">
        <ele>-0.82</ele>
        <time>2019-05-30T08:08:43Z</time>
      </trkpt>
      <trkpt lat="43.10107" lon="5.94276">
        <ele>-1.3</ele>
        <time>2019-05-30T08:08:47Z</time>
      </trkpt>
      <trkpt lat="43.10099" lon="5.94296">
        <ele>-0.82</ele>
        <time>2019-05-30T08:09:03Z</time>
      </trkpt>
      <trkpt lat="43.10083" lon="5.9428">
        <ele>-2.75</ele>
        <time>2019-05-30T08:09:21Z</time>
      </trkpt>
      <trkpt lat="43.10075" lon="5.94268">
        <ele>-2.75</ele>
        <time>2019-05-30T08:09:30Z</time>
      </trkpt>
      <trkpt lat="43.10072" lon="5.94261">
        <ele>-2.75</ele>
        <time>2019-05-30T08:09:35Z</time>
      </trkpt>
      <trkpt lat="43.10071" lon="5.9423">
        <ele>-2.27</ele>
        <time>2019-05-30T08:09:54Z</time>
      </trkpt>
      <trkpt lat="43.1008" lon="5.94203">
        <ele>-0.82</ele>
        <time>2019-05-30T08:10:13Z</time>
      </trkpt>
      <trkpt lat="43.10079" lon="5.94168">
        <ele>-1.79</ele>
        <time>2019-05-30T08:10:34Z</time>
      </trkpt>
      <trkpt lat="43.10078" lon="5.94131">
        <ele>-2.27</ele>
        <time>2019-05-30T08:10:55Z</time>
      </trkpt>
      <trkpt lat="43.10089" lon="5.94098">
        <ele>-1.79</ele>
        <time>2019-05-30T08:11:17Z</time>
      </trkpt>
      <trkpt lat="43.10107" lon="5.94075">
        <ele>-1.3</ele>
        <time>2019-05-30T08:11:38Z</time>
      </trkpt>
      <trkpt lat="43.10129" lon="5.94065">
        <ele>-0.82</ele>
        <time>2019-05-30T08:11:57Z</time>
      </trkpt>
      <trkpt lat="43.1015" lon="5.94065">
        <ele>-0.34</ele>
        <time>2019-05-30T08:12:15Z</time>
      </trkpt>
      <trkpt lat="43.10172" lon="5.94066">
        <ele>-0.82</ele>
        <time>2019-05-30T08:12:35Z</time>
      </trkpt>
      <trkpt lat="43.10189" lon="5.94079">
        <ele>-0.82</ele>
        <time>2019-05-30T08:12:54Z</time>
      </trkpt>
      <trkpt lat="43.10205" lon="5.94094">
        <ele>-0.82</ele>
        <time>2019-05-30T08:13:12Z</time>
      </trkpt>
      <trkpt lat="43.10224" lon="5.94102">
        <ele>-0.82</ele>
        <time>2019-05-30T08:13:30Z</time>
      </trkpt>
      <trkpt lat="43.10249" lon="5.94107">
        <ele>-0.34</ele>
        <time>2019-05-30T08:13:52Z</time>
      </trkpt>
      <trkpt lat="43.10271" lon="5.94121">
        <ele>-0.82</ele>
        <time>2019-05-30T08:14:14Z</time>
      </trkpt>
      <trkpt lat="43.10271" lon="5.94145">
        <ele>-1.79</ele>
        <time>2019-05-30T08:14:32Z</time>
      </trkpt>
      <trkpt lat="43.10271" lon="5.94174">
        <ele>-0.82</ele>
        <time>2019-05-30T08:14:52Z</time>
      </trkpt>
      <trkpt lat="43.10272" lon="5.94204">
        <ele>-0.34</ele>
        <time>2019-05-30T08:15:14Z</time>
      </trkpt>
      <trkpt lat="43.10285" lon="5.94227">
        <ele>-0.82</ele>
        <time>2019-05-30T08:15:35Z</time>
      </trkpt>
      <trkpt lat="43.10305" lon="5.94226">
        <ele>-0.82</ele>
        <time>2019-05-30T08:15:54Z</time>
      </trkpt>
      <trkpt lat="43.10315" lon="5.9419">
        <ele>-0.82</ele>
        <time>2019-05-30T08:16:19Z</time>
      </trkpt>
      <trkpt lat="43.10316" lon="5.94159">
        <ele>-1.3</ele>
        <time>2019-05-30T08:16:39Z</time>
      </trkpt>
      <trkpt lat="43.1031" lon="5.94131">
        <ele>-1.79</ele>
        <time>2019-05-30T08:16:56Z</time>
      </trkpt>
      <trkpt lat="43.10305" lon="5.94107">
        <ele>-1.79</ele>
        <time>2019-05-30T08:17:11Z</time>
      </trkpt>
      <trkpt lat="43.10311" lon="5.9407">
        <ele>-2.75</ele>
        <time>2019-05-30T08:17:33Z</time>
      </trkpt>
      <trkpt lat="43.10332" lon="5.94043">
        <ele>-3.23</ele>
        <time>2019-05-30T08:17:58Z</time>
      </trkpt>
      <trkpt lat="43.10352" lon="5.94017">
        <ele>-2.75</ele>
        <time>2019-05-30T08:18:21Z</time>
      </trkpt>
      <trkpt lat="43.10348" lon="5.93994">
        <ele>-1.79</ele>
        <time>2019-05-30T08:18:39Z</time>
      </trkpt>
      <trkpt lat="43.10334" lon="5.94003">
        <ele>-2.27</ele>
        <time>2019-05-30T08:18:56Z</time>
      </trkpt>
      <trkpt lat="43.10319" lon="5.94027">
        <ele>-2.27</ele>
        <time>2019-05-30T08:19:19Z</time>
      </trkpt>
      <trkpt lat="43.10318" lon="5.94053">
        <ele>-0.34</ele>
        <time>2019-05-30T08:19:40Z</time>
      </trkpt>
      <trkpt lat="43.10318" lon="5.94059">
        <ele>-0.34</ele>
        <time>2019-05-30T08:19:44Z</time>
      </trkpt>
      <trkpt lat="43.10324" lon="5.94087">
        <ele>0.14</ele>
        <time>2019-05-30T08:20:04Z</time>
      </trkpt>
      <trkpt lat="43.10335" lon="5.94104">
        <ele>-0.82</ele>
        <time>2019-05-30T08:20:18Z</time>
      </trkpt>
      <trkpt lat="43.1036" lon="5.94092">
        <ele>-1.79</ele>
        <time>2019-05-30T08:20:36Z</time>
      </trkpt>
      <trkpt lat="43.10372" lon="5.94064">
        <ele>-2.27</ele>
        <time>2019-05-30T08:20:52Z</time>
      </trkpt>
      <trkpt lat="43.1039" lon="5.9403">
        <ele>-1.79</ele>
        <time>2019-05-30T08:21:14Z</time>
      </trkpt>
      <trkpt lat="43.10393" lon="5.94012">
        <ele>-0.82</ele>
        <time>2019-05-30T08:21:24Z</time>
      </trkpt>
      <trkpt lat="43.10397" lon="5.93992">
        <ele>-1.79</ele>
        <time>2019-05-30T08:21:37Z</time>
      </trkpt>
      <trkpt lat="43.10397" lon="5.93983">
        <ele>-1.79</ele>
        <time>2019-05-30T08:21:42Z</time>
      </trkpt>
      <trkpt lat="43.10393" lon="5.93978">
        <ele>-2.27</ele>
        <time>2019-05-30T08:21:47Z</time>
      </trkpt>
      <trkpt lat="43.10387" lon="5.93968">
        <ele>-3.23</ele>
        <time>2019-05-30T08:21:55Z</time>
      </trkpt>
      <trkpt lat="43.10382" lon="5.9395">
        <ele>-2.75</ele>
        <time>2019-05-30T08:22:09Z</time>
      </trkpt>
      <trkpt lat="43.10371" lon="5.93954">
        <ele>-2.75</ele>
        <time>2019-05-30T08:22:23Z</time>
      </trkpt>
      <trkpt lat="43.10355" lon="5.93959">
        <ele>-1.79</ele>
        <time>2019-05-30T08:22:41Z</time>
      </trkpt>
      <trkpt lat="43.10337" lon="5.93969">
        <ele>-1.3</ele>
        <time>2019-05-30T08:23:03Z</time>
      </trkpt>
      <trkpt lat="43.10315" lon="5.93982">
        <ele>-2.75</ele>
        <time>2019-05-30T08:23:30Z</time>
      </trkpt>
      <trkpt lat="43.10297" lon="5.93993">
        <ele>-2.27</ele>
        <time>2019-05-30T08:23:54Z</time>
      </trkpt>
      <trkpt lat="43.10282" lon="5.94001">
        <ele>-2.75</ele>
        <time>2019-05-30T08:24:15Z</time>
      </trkpt>
      <trkpt lat="43.10269" lon="5.94014">
        <ele>-3.23</ele>
        <time>2019-05-30T08:24:38Z</time>
      </trkpt>
      <trkpt lat="43.10261" lon="5.94025">
        <ele>-3.23</ele>
        <time>2019-05-30T08:24:57Z</time>
      </trkpt>
      <trkpt lat="43.10252" lon="5.94035">
        <ele>-3.71</ele>
        <time>2019-05-30T08:25:18Z</time>
      </trkpt>
      <trkpt lat="43.10245" lon="5.94046">
        <ele>-3.23</ele>
        <time>2019-05-30T08:25:40Z</time>
      </trkpt>
      <trkpt lat="43.1024" lon="5.94052">
        <ele>-3.71</ele>
        <time>2019-05-30T08:25:58Z</time>
      </trkpt>
      <trkpt lat="43.10231" lon="5.94058">
        <ele>-3.23</ele>
        <time>2019-05-30T08:26:21Z</time>
      </trkpt>
      <trkpt lat="43.10226" lon="5.94064">
        <ele>-3.23</ele>
        <time>2019-05-30T08:26:38Z</time>
      </trkpt>
      <trkpt lat="43.10219" lon="5.9407">
        <ele>-3.71</ele>
        <time>2019-05-30T08:26:58Z</time>
      </trkpt>
      <trkpt lat="43.10212" lon="5.94075">
        <ele>-3.71</ele>
        <time>2019-05-30T08:27:17Z</time>
      </trkpt>
      <trkpt lat="43.10205" lon="5.94081">
        <ele>-3.71</ele>
        <time>2019-05-30T08:27:37Z</time>
      </trkpt>
      <trkpt lat="43.10199" lon="5.94085">
        <ele>-3.71</ele>
        <time>2019-05-30T08:27:56Z</time>
      </trkpt>
      <trkpt lat="43.1019" lon="5.94088">
        <ele>-3.23</ele>
        <time>2019-05-30T08:28:20Z</time>
      </trkpt>
      <trkpt lat="43.10187" lon="5.9409">
        <ele>-2.75</ele>
        <time>2019-05-30T08:28:37Z</time>
      </trkpt>
      <trkpt lat="43.10181" lon="5.94095">
        <ele>-2.75</ele>
        <time>2019-05-30T08:28:55Z</time>
      </trkpt>
      <trkpt lat="43.10173" lon="5.94101">
        <ele>-2.75</ele>
        <time>2019-05-30T08:29:16Z</time>
      </trkpt>
      <trkpt lat="43.10161" lon="5.94109">
        <ele>-1.79</ele>
        <time>2019-05-30T08:29:46Z</time>
      </trkpt>
      <trkpt lat="43.10157" lon="5.94112">
        <ele>-2.27</ele>
        <time>2019-05-30T08:30:06Z</time>
      </trkpt>
      <trkpt lat="43.10146" lon="5.94122">
        <ele>-2.27</ele>
        <time>2019-05-30T08:30:26Z</time>
      </trkpt>
      <trkpt lat="43.10134" lon="5.9413">
        <ele>-1.79</ele>
        <time>2019-05-30T08:30:51Z</time>
      </trkpt>
      <trkpt lat="43.10123" lon="5.94137">
        <ele>-0.82</ele>
        <time>2019-05-30T08:31:14Z</time>
      </trkpt>
      <trkpt lat="43.1011" lon="5.94144">
        <ele>-1.3</ele>
        <time>2019-05-30T08:31:41Z</time>
      </trkpt>
      <trkpt lat="43.10102" lon="5.94151">
        <ele>-1.79</ele>
        <time>2019-05-30T08:32:01Z</time>
      </trkpt>
      <trkpt lat="43.10092" lon="5.9416">
        <ele>-1.79</ele>
        <time>2019-05-30T08:32:22Z</time>
      </trkpt>
      <trkpt lat="43.10084" lon="5.9417">
        <ele>-1.3</ele>
        <time>2019-05-30T08:32:45Z</time>
      </trkpt>
      <trkpt lat="43.10074" lon="5.94182">
        <ele>-2.27</ele>
        <time>2019-05-30T08:33:09Z</time>
      </trkpt>
      <trkpt lat="43.10066" lon="5.94192">
        <ele>-2.75</ele>
        <time>2019-05-30T08:33:28Z</time>
      </trkpt>
      <trkpt lat="43.10057" lon="5.94203">
        <ele>-3.23</ele>
        <time>2019-05-30T08:33:50Z</time>
      </trkpt>
      <trkpt lat="43.1005" lon="5.94213">
        <ele>-2.75</ele>
        <time>2019-05-30T08:34:12Z</time>
      </trkpt>
      <trkpt lat="43.10041" lon="5.94223">
        <ele>-2.75</ele>
        <time>2019-05-30T08:34:35Z</time>
      </trkpt>
      <trkpt lat="43.10032" lon="5.94233">
        <ele>-3.71</ele>
        <time>2019-05-30T08:34:56Z</time>
      </trkpt>
      <trkpt lat="43.10023" lon="5.94245">
        <ele>-4.67</ele>
        <time>2019-05-30T08:35:20Z</time>
      </trkpt>
      <trkpt lat="43.10015" lon="5.94255">
        <ele>-3.71</ele>
        <time>2019-05-30T08:35:42Z</time>
      </trkpt>
      <trkpt lat="43.10007" lon="5.94266">
        <ele>-4.19</ele>
        <time>2019-05-30T08:36:02Z</time>
      </trkpt>
      <trkpt lat="43.09998" lon="5.94277">
        <ele>-4.67</ele>
        <time>2019-05-30T08:36:24Z</time>
      </trkpt>
      <trkpt lat="43.09991" lon="5.94286">
        <ele>-3.71</ele>
        <time>2019-05-30T08:36:42Z</time>
      </trkpt>
      <trkpt lat="43.09984" lon="5.94293">
        <ele>-2.75</ele>
        <time>2019-05-30T08:37:01Z</time>
      </trkpt>
      <trkpt lat="43.0998" lon="5.94299">
        <ele>-3.71</ele>
        <time>2019-05-30T08:37:21Z</time>
      </trkpt>
      <trkpt lat="43.09974" lon="5.94306">
        <ele>-3.23</ele>
        <time>2019-05-30T08:37:40Z</time>
      </trkpt>
      <trkpt lat="43.0997" lon="5.94314">
        <ele>-3.71</ele>
        <time>2019-05-30T08:37:56Z</time>
      </trkpt>
      <trkpt lat="43.09967" lon="5.94321">
        <ele>-3.23</ele>
        <time>2019-05-30T08:38:11Z</time>
      </trkpt>
      <trkpt lat="43.09963" lon="5.94328">
        <ele>-1.79</ele>
        <time>2019-05-30T08:38:28Z</time>
      </trkpt>
      <trkpt lat="43.09958" lon="5.94335">
        <ele>-2.75</ele>
        <time>2019-05-30T08:38:45Z</time>
      </trkpt>
      <trkpt lat="43.09954" lon="5.94339">
        <ele>-4.19</ele>
        <time>2019-05-30T08:38:59Z</time>
      </trkpt>
      <trkpt lat="43.09947" lon="5.94346">
        <ele>-3.23</ele>
        <time>2019-05-30T08:39:20Z</time>
      </trkpt>
      <trkpt lat="43.09943" lon="5.94351">
        <ele>-4.19</ele>
        <time>2019-05-30T08:39:37Z</time>
      </trkpt>
      <trkpt lat="43.09939" lon="5.94355">
        <ele>-4.19</ele>
        <time>2019-05-30T08:39:52Z</time>
      </trkpt>
      <trkpt lat="43.09933" lon="5.94361">
        <ele>-4.19</ele>
        <time>2019-05-30T08:40:13Z</time>
      </trkpt>
      <trkpt lat="43.09929" lon="5.94365">
        <ele>-4.67</ele>
        <time>2019-05-30T08:40:31Z</time>
      </trkpt>
      <trkpt lat="43.09925" lon="5.94369">
        <ele>-3.71</ele>
        <time>2019-05-30T08:40:47Z</time>
      </trkpt>
      <trkpt lat="43.09919" lon="5.94374">
        <ele>-2.75</ele>
        <time>2019-05-30T08:41:07Z</time>
      </trkpt>
      <trkpt lat="43.09917" lon="5.94377">
        <ele>-2.27</ele>
        <time>2019-05-30T08:41:20Z</time>
      </trkpt>
      <trkpt lat="43.09915" lon="5.9438">
        <ele>-1.79</ele>
        <time>2019-05-30T08:41:32Z</time>
      </trkpt>
      <trkpt lat="43.09912" lon="5.94383">
        <ele>-2.27</ele>
        <time>2019-05-30T08:41:45Z</time>
      </trkpt>
      <trkpt lat="43.09909" lon="5.94387">
        <ele>-1.79</ele>
        <time>2019-05-30T08:42:01Z</time>
      </trkpt>
      <trkpt lat="43.09906" lon="5.9439">
        <ele>-1.79</ele>
        <time>2019-05-30T08:42:17Z</time>
      </trkpt>
      <trkpt lat="43.09903" lon="5.94393">
        <ele>-1.3</ele>
        <time>2019-05-30T08:42:32Z</time>
      </trkpt>
      <trkpt lat="43.09901" lon="5.94396">
        <ele>-1.3</ele>
        <time>2019-05-30T08:42:44Z</time>
      </trkpt>
      <trkpt lat="43.09897" lon="5.94398">
        <ele>-1.3</ele>
        <time>2019-05-30T08:43:01Z</time>
      </trkpt>
      <trkpt lat="43.09895" lon="5.94401">
        <ele>-1.79</ele>
        <time>2019-05-30T08:43:15Z</time>
      </trkpt>
      <trkpt lat="43.09892" lon="5.94402">
        <ele>-2.27</ele>
        <time>2019-05-30T08:43:28Z</time>
      </trkpt>
      <trkpt lat="43.09889" lon="5.94405">
        <ele>-2.27</ele>
        <time>2019-05-30T08:43:40Z</time>
      </trkpt>
      <trkpt lat="43.09887" lon="5.94408">
        <ele>-1.79</ele>
        <time>2019-05-30T08:43:50Z</time>
      </trkpt>
      <trkpt lat="43.09885" lon="5.9441">
        <ele>-2.75</ele>
        <time>2019-05-30T08:44:05Z</time>
      </trkpt>
      <trkpt lat="43.09881" lon="5.94414">
        <ele>-3.23</ele>
        <time>2019-05-30T08:44:24Z</time>
      </trkpt>
      <trkpt lat="43.09878" lon="5.94416">
        <ele>-3.71</ele>
        <time>2019-05-30T08:44:39Z</time>
      </trkpt>
      <trkpt lat="43.09874" lon="5.94422">
        <ele>-2.75</ele>
        <time>2019-05-30T08:45:01Z</time>
      </trkpt>
      <trkpt lat="43.0987" lon="5.94425">
        <ele>-1.79</ele>
        <time>2019-05-30T08:45:17Z</time>
      </trkpt>
      <trkpt lat="43.09867" lon="5.94428">
        <ele>-1.79</ele>
        <time>2019-05-30T08:45:32Z</time>
      </trkpt>
      <trkpt lat="43.09862" lon="5.94431">
        <ele>-1.79</ele>
        <time>2019-05-30T08:45:53Z</time>
      </trkpt>
      <trkpt lat="43.0986" lon="5.94433">
        <ele>-1.79</ele>
        <time>2019-05-30T08:46:10Z</time>
      </trkpt>
      <trkpt lat="43.09855" lon="5.94437">
        <ele>-1.79</ele>
        <time>2019-05-30T08:46:28Z</time>
      </trkpt>
      <trkpt lat="43.09853" lon="5.9444">
        <ele>-1.79</ele>
        <time>2019-05-30T08:46:43Z</time>
      </trkpt>
      <trkpt lat="43.0985" lon="5.94446">
        <ele>-1.3</ele>
        <time>2019-05-30T08:46:59Z</time>
      </trkpt>
      <trkpt lat="43.09846" lon="5.94449">
        <ele>-1.79</ele>
        <time>2019-05-30T08:47:13Z</time>
      </trkpt>
      <trkpt lat="43.09844" lon="5.94451">
        <ele>-1.79</ele>
        <time>2019-05-30T08:47:24Z</time>
      </trkpt>
      <trkpt lat="43.09842" lon="5.94454">
        <ele>-1.3</ele>
        <time>2019-05-30T08:47:37Z</time>
      </trkpt>
      <trkpt lat="43.09839" lon="5.94458">
        <ele>-0.82</ele>
        <time>2019-05-30T08:47:54Z</time>
      </trkpt>
      <trkpt lat="43.09834" lon="5.94463">
        <ele>-1.3</ele>
        <time>2019-05-30T08:48:12Z</time>
      </trkpt>
      <trkpt lat="43.09832" lon="5.94466">
        <ele>-1.79</ele>
        <time>2019-05-30T08:48:27Z</time>
      </trkpt>
      <trkpt lat="43.09827" lon="5.9447">
        <ele>-2.27</ele>
        <time>2019-05-30T08:48:46Z</time>
      </trkpt>
      <trkpt lat="43.09824" lon="5.94473">
        <ele>-1.3</ele>
        <time>2019-05-30T08:48:59Z</time>
      </trkpt>
      <trkpt lat="43.09821" lon="5.94476">
        <ele>-1.3</ele>
        <time>2019-05-30T08:49:16Z</time>
      </trkpt>
      <trkpt lat="43.0982" lon="5.94479">
        <ele>-1.79</ele>
        <time>2019-05-30T08:49:30Z</time>
      </trkpt>
      <trkpt lat="43.09817" lon="5.94482">
        <ele>-1.3</ele>
        <time>2019-05-30T08:49:45Z</time>
      </trkpt>
      <trkpt lat="43.09813" lon="5.94485">
        <ele>-1.3</ele>
        <time>2019-05-30T08:50:00Z</time>
      </trkpt>
      <trkpt lat="43.09811" lon="5.94488">
        <ele>-0.82</ele>
        <time>2019-05-30T08:50:17Z</time>
      </trkpt>
      <trkpt lat="43.0981" lon="5.9449">
        <ele>-0.82</ele>
        <time>2019-05-30T08:50:34Z</time>
      </trkpt>
      <trkpt lat="43.09809" lon="5.94492">
        <ele>-0.34</ele>
        <time>2019-05-30T08:50:49Z</time>
      </trkpt>
      <trkpt lat="43.09808" lon="5.94494">
        <ele>-0.82</ele>
        <time>2019-05-30T08:51:05Z</time>
      </trkpt>
      <trkpt lat="43.09807" lon="5.94497">
        <ele>-1.3</ele>
        <time>2019-05-30T08:51:21Z</time>
      </trkpt>
      <trkpt lat="43.09805" lon="5.94502">
        <ele>-1.79</ele>
        <time>2019-05-30T08:51:35Z</time>
      </trkpt>
      <trkpt lat="43.09802" lon="5.94508">
        <ele>-2.27</ele>
        <time>2019-05-30T08:51:50Z</time>
      </trkpt>
      <trkpt lat="43.09799" lon="5.94513">
        <ele>-2.75</ele>
        <time>2019-05-30T08:52:10Z</time>
      </trkpt>
      <trkpt lat="43.09796" lon="5.94515">
        <ele>-3.71</ele>
        <time>2019-05-30T08:52:25Z</time>
      </trkpt>
      <trkpt lat="43.09792" lon="5.9452">
        <ele>-3.71</ele>
        <time>2019-05-30T08:52:42Z</time>
      </trkpt>
      <trkpt lat="43.09787" lon="5.94525">
        <ele>-2.75</ele>
        <time>2019-05-30T08:52:57Z</time>
      </trkpt>
      <trkpt lat="43.09782" lon="5.94532">
        <ele>-2.27</ele>
        <time>2019-05-30T08:53:16Z</time>
      </trkpt>
      <trkpt lat="43.09778" lon="5.94538">
        <ele>-1.3</ele>
        <time>2019-05-30T08:53:29Z</time>
      </trkpt>
      <trkpt lat="43.09776" lon="5.94539">
        <ele>-1.3</ele>
        <time>2019-05-30T08:53:39Z</time>
      </trkpt>
      <trkpt lat="43.09774" lon="5.94542">
        <ele>-1.3</ele>
        <time>2019-05-30T08:53:50Z</time>
      </trkpt>
      <trkpt lat="43.09771" lon="5.94545">
        <ele>-1.79</ele>
        <time>2019-05-30T08:54:04Z</time>
      </trkpt>
      <trkpt lat="43.09768" lon="5.94548">
        <ele>-2.75</ele>
        <time>2019-05-30T08:54:17Z</time>
      </trkpt>
      <trkpt lat="43.09766" lon="5.94551">
        <ele>-3.23</ele>
        <time>2019-05-30T08:54:33Z</time>
      </trkpt>
      <trkpt lat="43.09764" lon="5.94553">
        <ele>-3.23</ele>
        <time>2019-05-30T08:54:46Z</time>
      </trkpt>
      <trkpt lat="43.09761" lon="5.94556">
        <ele>-3.71</ele>
        <time>2019-05-30T08:54:58Z</time>
      </trkpt>
      <trkpt lat="43.09758" lon="5.94559">
        <ele>-3.23</ele>
        <time>2019-05-30T08:55:17Z</time>
      </trkpt>
      <trkpt lat="43.09755" lon="5.94563">
        <ele>-2.27</ele>
        <time>2019-05-30T08:55:33Z</time>
      </trkpt>
      <trkpt lat="43.09753" lon="5.94565">
        <ele>-1.79</ele>
        <time>2019-05-30T08:55:47Z</time>
      </trkpt>
      <trkpt lat="43.09752" lon="5.94568">
        <ele>-1.3</ele>
        <time>2019-05-30T08:56:04Z</time>
      </trkpt>
      <trkpt lat="43.0975" lon="5.94572">
        <ele>-2.75</ele>
        <time>2019-05-30T08:56:16Z</time>
      </trkpt>
      <trkpt lat="43.09747" lon="5.94575">
        <ele>-2.27</ele>
        <time>2019-05-30T08:56:30Z</time>
      </trkpt>
      <trkpt lat="43.09745" lon="5.94577">
        <ele>-2.27</ele>
        <time>2019-05-30T08:56:41Z</time>
      </trkpt>
      <trkpt lat="43.09743" lon="5.94579">
        <ele>-2.27</ele>
        <time>2019-05-30T08:56:56Z</time>
      </trkpt>
      <trkpt lat="43.09742" lon="5.9458">
        <ele>-1.79</ele>
        <time>2019-05-30T08:57:07Z</time>
      </trkpt>
      <trkpt lat="43.0974" lon="5.94581">
        <ele>-2.27</ele>
        <time>2019-05-30T08:57:23Z</time>
      </trkpt>
      <trkpt lat="43.09739" lon="5.94582">
        <ele>-2.27</ele>
        <time>2019-05-30T08:57:42Z</time>
      </trkpt>
      <trkpt lat="43.09734" lon="5.94591">
        <ele>-1.3</ele>
        <time>2019-05-30T08:58:06Z</time>
      </trkpt>
      <trkpt lat="43.09732" lon="5.94594">
        <ele>-0.82</ele>
        <time>2019-05-30T08:58:28Z</time>
      </trkpt>
      <trkpt lat="43.09728" lon="5.94604">
        <ele>-0.34</ele>
        <time>2019-05-30T08:58:53Z</time>
      </trkpt>
      <trkpt lat="43.09719" lon="5.94623">
        <ele>0.62</ele>
        <time>2019-05-30T08:59:15Z</time>
      </trkpt>
      <trkpt lat="43.09712" lon="5.94636">
        <ele>2.06</ele>
        <time>2019-05-30T08:59:39Z</time>
      </trkpt>
      <trkpt lat="43.09709" lon="5.94644">
        <ele>-0.82</ele>
        <time>2019-05-30T08:59:57Z</time>
      </trkpt>
      <trkpt lat="43.09702" lon="5.94654">
        <ele>-0.82</ele>
        <time>2019-05-30T09:00:18Z</time>
      </trkpt>
      <trkpt lat="43.09698" lon="5.9466">
        <ele>-2.27</ele>
        <time>2019-05-30T09:00:30Z</time>
      </trkpt>
      <trkpt lat="43.09695" lon="5.94666">
        <ele>-1.79</ele>
        <time>2019-05-30T09:00:40Z</time>
      </trkpt>
      <trkpt lat="43.09689" lon="5.94675">
        <ele>-0.34</ele>
        <time>2019-05-30T09:00:56Z</time>
      </trkpt>
      <trkpt lat="43.09682" lon="5.94686">
        <ele>-0.82</ele>
        <time>2019-05-30T09:01:17Z</time>
      </trkpt>
      <trkpt lat="43.09677" lon="5.94695">
        <ele>-0.82</ele>
        <time>2019-05-30T09:01:33Z</time>
      </trkpt>
      <trkpt lat="43.09671" lon="5.94706">
        <ele>-1.79</ele>
        <time>2019-05-30T09:01:49Z</time>
      </trkpt>
      <trkpt lat="43.09663" lon="5.94719">
        <ele>-1.79</ele>
        <time>2019-05-30T09:02:06Z</time>
      </trkpt>
      <trkpt lat="43.09658" lon="5.94728">
        <ele>-2.27</ele>
        <time>2019-05-30T09:02:18Z</time>
      </trkpt>
      <trkpt lat="43.09652" lon="5.94738">
        <ele>-1.79</ele>
        <time>2019-05-30T09:02:30Z</time>
      </trkpt>
      <trkpt lat="43.09646" lon="5.94747">
        <ele>-0.82</ele>
        <time>2019-05-30T09:02:42Z</time>
      </trkpt>
      <trkpt lat="43.09639" lon="5.94759">
        <ele>-0.82</ele>
        <time>2019-05-30T09:02:55Z</time>
      </trkpt>
      <trkpt lat="43.09633" lon="5.94771">
        <ele>-1.3</ele>
        <time>2019-05-30T09:03:07Z</time>
      </trkpt>
      <trkpt lat="43.09632" lon="5.94773">
        <ele>-1.3</ele>
        <time>2019-05-30T09:03:10Z</time>
      </trkpt>
      <trkpt lat="43.09624" lon="5.94786">
        <ele>-1.79</ele>
        <time>2019-05-30T09:03:24Z</time>
      </trkpt>
      <trkpt lat="43.09616" lon="5.94801">
        <ele>-0.82</ele>
        <time>2019-05-30T09:03:39Z</time>
      </trkpt>
      <trkpt lat="43.09606" lon="5.94818">
        <ele>-0.82</ele>
        <time>2019-05-30T09:03:55Z</time>
      </trkpt>
      <trkpt lat="43.09597" lon="5.94832">
        <ele>-1.3</ele>
        <time>2019-05-30T09:04:08Z</time>
      </trkpt>
      <trkpt lat="43.09591" lon="5.9484">
        <ele>-1.3</ele>
        <time>2019-05-30T09:04:16Z</time>
      </trkpt>
      <trkpt lat="43.09577" lon="5.94857">
        <ele>-1.79</ele>
        <time>2019-05-30T09:04:33Z</time>
      </trkpt>
      <trkpt lat="43.09571" lon="5.94867">
        <ele>-0.34</ele>
        <time>2019-05-30T09:04:41Z</time>
      </trkpt>
      <trkpt lat="43.09565" lon="5.94876">
        <ele>-0.34</ele>
        <time>2019-05-30T09:04:48Z</time>
      </trkpt>
      <trkpt lat="43.09552" lon="5.94897">
        <ele>0.14</ele>
        <time>2019-05-30T09:05:04Z</time>
      </trkpt>
      <trkpt lat="43.09534" lon="5.94929">
        <ele>-0.82</ele>
        <time>2019-05-30T09:05:25Z</time>
      </trkpt>
      <trkpt lat="43.09521" lon="5.9495">
        <ele>-0.34</ele>
        <time>2019-05-30T09:05:39Z</time>
      </trkpt>
      <trkpt lat="43.0951" lon="5.94968">
        <ele>-0.34</ele>
        <time>2019-05-30T09:05:51Z</time>
      </trkpt>
      <trkpt lat="43.09495" lon="5.94994">
        <ele>-1.3</ele>
        <time>2019-05-30T09:06:07Z</time>
      </trkpt>
      <trkpt lat="43.09482" lon="5.95019">
        <ele>-1.79</ele>
        <time>2019-05-30T09:06:20Z</time>
      </trkpt>
      <trkpt lat="43.09465" lon="5.95049">
        <ele>-0.34</ele>
        <time>2019-05-30T09:06:37Z</time>
      </trkpt>
      <trkpt lat="43.0945" lon="5.95075">
        <ele>-0.34</ele>
        <time>2019-05-30T09:06:54Z</time>
      </trkpt>
      <trkpt lat="43.0944" lon="5.95096">
        <ele>0.62</ele>
        <time>2019-05-30T09:07:08Z</time>
      </trkpt>
      <trkpt lat="43.09434" lon="5.95111">
        <ele>-1.3</ele>
        <time>2019-05-30T09:07:17Z</time>
      </trkpt>
      <trkpt lat="43.0943" lon="5.95122">
        <ele>-1.79</ele>
        <time>2019-05-30T09:07:22Z</time>
      </trkpt>
      <trkpt lat="43.09424" lon="5.95133">
        <ele>-1.79</ele>
        <time>2019-05-30T09:07:30Z</time>
      </trkpt>
      <trkpt lat="43.09418" lon="5.95147">
        <ele>-1.79</ele>
        <time>2019-05-30T09:07:38Z</time>
      </trkpt>
      <trkpt lat="43.09403" lon="5.9518">
        <ele>-1.79</ele>
        <time>2019-05-30T09:07:59Z</time>
      </trkpt>
      <trkpt lat="43.0939" lon="5.9521">
        <ele>-3.23</ele>
        <time>2019-05-30T09:08:16Z</time>
      </trkpt>
      <trkpt lat="43.09381" lon="5.95228">
        <ele>-2.27</ele>
        <time>2019-05-30T09:08:30Z</time>
      </trkpt>
      <trkpt lat="43.09371" lon="5.95246">
        <ele>-1.79</ele>
        <time>2019-05-30T09:08:46Z</time>
      </trkpt>
      <trkpt lat="43.09368" lon="5.9525">
        <ele>-1.3</ele>
        <time>2019-05-30T09:08:51Z</time>
      </trkpt>
      <trkpt lat="43.09365" lon="5.95258">
        <ele>-0.34</ele>
        <time>2019-05-30T09:08:58Z</time>
      </trkpt>
      <trkpt lat="43.09358" lon="5.95272">
        <ele>-0.82</ele>
        <time>2019-05-30T09:09:12Z</time>
      </trkpt>
      <trkpt lat="43.09357" lon="5.95278">
        <ele>-0.82</ele>
        <time>2019-05-30T09:09:21Z</time>
      </trkpt>
      <trkpt lat="43.09355" lon="5.95293">
        <ele>-0.82</ele>
        <time>2019-05-30T09:09:35Z</time>
      </trkpt>
      <trkpt lat="43.09347" lon="5.95303">
        <ele>-1.3</ele>
        <time>2019-05-30T09:09:48Z</time>
      </trkpt>
      <trkpt lat="43.09342" lon="5.95315">
        <ele>-1.79</ele>
        <time>2019-05-30T09:10:05Z</time>
      </trkpt>
      <trkpt lat="43.09339" lon="5.95325">
        <ele>-0.82</ele>
        <time>2019-05-30T09:10:22Z</time>
      </trkpt>
      <trkpt lat="43.09338" lon="5.95332">
        <ele>-0.82</ele>
        <time>2019-05-30T09:10:37Z</time>
      </trkpt>
      <trkpt lat="43.09337" lon="5.95336">
        <ele>-0.82</ele>
        <time>2019-05-30T09:10:49Z</time>
      </trkpt>
      <trkpt lat="43.09333" lon="5.95343">
        <ele>0.62</ele>
        <time>2019-05-30T09:11:06Z</time>
      </trkpt>
      <trkpt lat="43.09332" lon="5.95352">
        <ele>-0.82</ele>
        <time>2019-05-30T09:11:18Z</time>
      </trkpt>
      <trkpt lat="43.0933" lon="5.9536">
        <ele>-1.79</ele>
        <time>2019-05-30T09:11:36Z</time>
      </trkpt>
      <trkpt lat="43.09328" lon="5.95365">
        <ele>-1.3</ele>
        <time>2019-05-30T09:11:51Z</time>
      </trkpt>
      <trkpt lat="43.09325" lon="5.95372">
        <ele>0.62</ele>
        <time>2019-05-30T09:12:06Z</time>
      </trkpt>
      <trkpt lat="43.09324" lon="5.95376">
        <ele>0.62</ele>
        <time>2019-05-30T09:12:22Z</time>
      </trkpt>
      <trkpt lat="43.09322" lon="5.95384">
        <ele>-0.82</ele>
        <time>2019-05-30T09:12:36Z</time>
      </trkpt>
      <trkpt lat="43.09322" lon="5.95386">
        <ele>-1.3</ele>
        <time>2019-05-30T09:12:51Z</time>
      </trkpt>
      <trkpt lat="43.0932" lon="5.95395">
        <ele>-2.27</ele>
        <time>2019-05-30T09:13:11Z</time>
      </trkpt>
      <trkpt lat="43.09315" lon="5.95408">
        <ele>-0.82</ele>
        <time>2019-05-30T09:13:31Z</time>
      </trkpt>
      <trkpt lat="43.09308" lon="5.95422">
        <ele>-1.79</ele>
        <time>2019-05-30T09:13:49Z</time>
      </trkpt>
      <trkpt lat="43.09302" lon="5.95435">
        <ele>-0.82</ele>
        <time>2019-05-30T09:14:04Z</time>
      </trkpt>
      <trkpt lat="43.09297" lon="5.95443">
        <ele>-0.82</ele>
        <time>2019-05-30T09:14:13Z</time>
      </trkpt>
      <trkpt lat="43.09289" lon="5.95462">
        <ele>-1.3</ele>
        <time>2019-05-30T09:14:30Z</time>
      </trkpt>
      <trkpt lat="43.09277" lon="5.95485">
        <ele>-1.79</ele>
        <time>2019-05-30T09:14:48Z</time>
      </trkpt>
      <trkpt lat="43.09264" lon="5.95508">
        <ele>-1.79</ele>
        <time>2019-05-30T09:15:07Z</time>
      </trkpt>
      <trkpt lat="43.09247" lon="5.9554">
        <ele>-2.75</ele>
        <time>2019-05-30T09:15:30Z</time>
      </trkpt>
      <trkpt lat="43.09237" lon="5.95561">
        <ele>-1.79</ele>
        <time>2019-05-30T09:15:47Z</time>
      </trkpt>
      <trkpt lat="43.09227" lon="5.9558">
        <ele>0.62</ele>
        <time>2019-05-30T09:16:02Z</time>
      </trkpt>
      <trkpt lat="43.0922" lon="5.956">
        <ele>0.62</ele>
        <time>2019-05-30T09:16:17Z</time>
      </trkpt>
      <trkpt lat="43.09214" lon="5.95611">
        <ele>-0.34</ele>
        <time>2019-05-30T09:16:25Z</time>
      </trkpt>
      <trkpt lat="43.09211" lon="5.95618">
        <ele>-0.82</ele>
        <time>2019-05-30T09:16:32Z</time>
      </trkpt>
      <trkpt lat="43.09209" lon="5.95621">
        <ele>-2.27</ele>
        <time>2019-05-30T09:16:35Z</time>
      </trkpt>
      <trkpt lat="43.09208" lon="5.95625">
        <ele>-2.27</ele>
        <time>2019-05-30T09:16:38Z</time>
      </trkpt>
      <trkpt lat="43.09199" lon="5.95645">
        <ele>-1.79</ele>
        <time>2019-05-30T09:16:52Z</time>
      </trkpt>
      <trkpt lat="43.09195" lon="5.95653">
        <ele>-2.27</ele>
        <time>2019-05-30T09:16:58Z</time>
      </trkpt>
      <trkpt lat="43.09192" lon="5.9566">
        <ele>-2.27</ele>
        <time>2019-05-30T09:17:02Z</time>
      </trkpt>
      <trkpt lat="43.09182" lon="5.95684">
        <ele>-1.3</ele>
        <time>2019-05-30T09:17:18Z</time>
      </trkpt>
      <trkpt lat="43.09173" lon="5.95706">
        <ele>-1.79</ele>
        <time>2019-05-30T09:17:31Z</time>
      </trkpt>
      <trkpt lat="43.09162" lon="5.95726">
        <ele>-1.3</ele>
        <time>2019-05-30T09:17:43Z</time>
      </trkpt>
      <trkpt lat="43.09157" lon="5.95735">
        <ele>-0.82</ele>
        <time>2019-05-30T09:17:48Z</time>
      </trkpt>
      <trkpt lat="43.09144" lon="5.95761">
        <ele>-1.3</ele>
        <time>2019-05-30T09:18:03Z</time>
      </trkpt>
      <trkpt lat="43.09126" lon="5.95791">
        <ele>1.1</ele>
        <time>2019-05-30T09:18:22Z</time>
      </trkpt>
      <trkpt lat="43.09109" lon="5.95817">
        <ele>-0.34</ele>
        <time>2019-05-30T09:18:38Z</time>
      </trkpt>
      <trkpt lat="43.09103" lon="5.95828">
        <ele>-0.34</ele>
        <time>2019-05-30T09:18:44Z</time>
      </trkpt>
      <trkpt lat="43.09099" lon="5.95835">
        <ele>-0.82</ele>
        <time>2019-05-30T09:18:48Z</time>
      </trkpt>
      <trkpt lat="43.09089" lon="5.95856">
        <ele>-1.79</ele>
        <time>2019-05-30T09:19:01Z</time>
      </trkpt>
      <trkpt lat="43.09068" lon="5.95892">
        <ele>6.87</ele>
        <time>2019-05-30T09:19:21Z</time>
      </trkpt>
      <trkpt lat="43.09062" lon="5.95901">
        <ele>5.91</ele>
        <time>2019-05-30T09:19:26Z</time>
      </trkpt>
      <trkpt lat="43.09054" lon="5.95914">
        <ele>3.02</ele>
        <time>2019-05-30T09:19:33Z</time>
      </trkpt>
      <trkpt lat="43.09049" lon="5.95921">
        <ele>2.06</ele>
        <time>2019-05-30T09:19:37Z</time>
      </trkpt>
      <trkpt lat="43.09026" lon="5.95938">
        <ele>0.62</ele>
        <time>2019-05-30T09:19:52Z</time>
      </trkpt>
      <trkpt lat="43.09018" lon="5.95942">
        <ele>-0.34</ele>
        <time>2019-05-30T09:19:57Z</time>
      </trkpt>
      <trkpt lat="43.09009" lon="5.95945">
        <ele>-0.82</ele>
        <time>2019-05-30T09:20:01Z</time>
      </trkpt>
      <trkpt lat="43.08989" lon="5.95953">
        <ele>-0.34</ele>
        <time>2019-05-30T09:20:13Z</time>
      </trkpt>
      <trkpt lat="43.08983" lon="5.95955">
        <ele>-0.34</ele>
        <time>2019-05-30T09:20:18Z</time>
      </trkpt>
      <trkpt lat="43.08979" lon="5.95958">
        <ele>-0.82</ele>
        <time>2019-05-30T09:20:22Z</time>
      </trkpt>
      <trkpt lat="43.08969" lon="5.95963">
        <ele>-2.27</ele>
        <time>2019-05-30T09:20:31Z</time>
      </trkpt>
      <trkpt lat="43.08966" lon="5.95963">
        <ele>-2.75</ele>
        <time>2019-05-30T09:20:34Z</time>
      </trkpt>
      <trkpt lat="43.0895" lon="5.95967">
        <ele>-4.67</ele>
        <time>2019-05-30T09:20:48Z</time>
      </trkpt>
      <trkpt lat="43.08945" lon="5.95969">
        <ele>-4.19</ele>
        <time>2019-05-30T09:20:52Z</time>
      </trkpt>
      <trkpt lat="43.08939" lon="5.95971">
        <ele>-4.19</ele>
        <time>2019-05-30T09:20:57Z</time>
      </trkpt>
      <trkpt lat="43.08922" lon="5.95978">
        <ele>-4.67</ele>
        <time>2019-05-30T09:21:11Z</time>
      </trkpt>
      <trkpt lat="43.08904" lon="5.95985">
        <ele>-2.75</ele>
        <time>2019-05-30T09:21:26Z</time>
      </trkpt>
      <trkpt lat="43.08889" lon="5.9599">
        <ele>-2.75</ele>
        <time>2019-05-30T09:21:37Z</time>
      </trkpt>
      <trkpt lat="43.08883" lon="5.95993">
        <ele>-2.27</ele>
        <time>2019-05-30T09:21:42Z</time>
      </trkpt>
      <trkpt lat="43.08879" lon="5.95994">
        <ele>-2.27</ele>
        <time>2019-05-30T09:21:46Z</time>
      </trkpt>
      <trkpt lat="43.0886" lon="5.96002">
        <ele>-0.34</ele>
        <time>2019-05-30T09:22:01Z</time>
      </trkpt>
      <trkpt lat="43.08845" lon="5.9601">
        <ele>-0.82</ele>
        <time>2019-05-30T09:22:14Z</time>
      </trkpt>
      <trkpt lat="43.08821" lon="5.96021">
        <ele>1.1</ele>
        <time>2019-05-30T09:22:34Z</time>
      </trkpt>
      <trkpt lat="43.08795" lon="5.96034">
        <ele>-0.34</ele>
        <time>2019-05-30T09:22:56Z</time>
      </trkpt>
      <trkpt lat="43.08775" lon="5.96049">
        <ele>-2.27</ele>
        <time>2019-05-30T09:23:18Z</time>
      </trkpt>
      <trkpt lat="43.08758" lon="5.96061">
        <ele>-1.3</ele>
        <time>2019-05-30T09:23:39Z</time>
      </trkpt>
      <trkpt lat="43.08758" lon="5.96062">
        <ele>-1.3</ele>
        <time>2019-05-30T09:23:40Z</time>
      </trkpt>
      <trkpt lat="43.08739" lon="5.96081">
        <ele>-1.3</ele>
        <time>2019-05-30T09:23:59Z</time>
      </trkpt>
      <trkpt lat="43.08714" lon="5.96101">
        <ele>0.62</ele>
        <time>2019-05-30T09:24:19Z</time>
      </trkpt>
      <trkpt lat="43.08688" lon="5.96123">
        <ele>0.62</ele>
        <time>2019-05-30T09:24:40Z</time>
      </trkpt>
      <trkpt lat="43.08665" lon="5.96143">
        <ele>1.1</ele>
        <time>2019-05-30T09:24:58Z</time>
      </trkpt>
      <trkpt lat="43.08644" lon="5.96163">
        <ele>1.1</ele>
        <time>2019-05-30T09:25:14Z</time>
      </trkpt>
      <trkpt lat="43.08615" lon="5.96186">
        <ele>-0.34</ele>
        <time>2019-05-30T09:25:33Z</time>
      </trkpt>
      <trkpt lat="43.0859" lon="5.96207">
        <ele>-1.3</ele>
        <time>2019-05-30T09:25:49Z</time>
      </trkpt>
      <trkpt lat="43.08556" lon="5.96231">
        <ele>-1.3</ele>
        <time>2019-05-30T09:26:09Z</time>
      </trkpt>
      <trkpt lat="43.08528" lon="5.96251">
        <ele>-0.34</ele>
        <time>2019-05-30T09:26:25Z</time>
      </trkpt>
      <trkpt lat="43.08505" lon="5.96267">
        <ele>0.14</ele>
        <time>2019-05-30T09:26:39Z</time>
      </trkpt>
      <trkpt lat="43.08475" lon="5.96289">
        <ele>-4.67</ele>
        <time>2019-05-30T09:26:57Z</time>
      </trkpt>
      <trkpt lat="43.08445" lon="5.96308">
        <ele>-7.55</ele>
        <time>2019-05-30T09:27:15Z</time>
      </trkpt>
      <trkpt lat="43.08414" lon="5.96328">
        <ele>-5.63</ele>
        <time>2019-05-30T09:27:35Z</time>
      </trkpt>
      <trkpt lat="43.08384" lon="5.96347">
        <ele>-2.75</ele>
        <time>2019-05-30T09:27:52Z</time>
      </trkpt>
      <trkpt lat="43.08354" lon="5.96367">
        <ele>-1.79</ele>
        <time>2019-05-30T09:28:09Z</time>
      </trkpt>
      <trkpt lat="43.0832" lon="5.96387">
        <ele>-1.79</ele>
        <time>2019-05-30T09:28:28Z</time>
      </trkpt>
      <trkpt lat="43.08298" lon="5.96399">
        <ele>-1.3</ele>
        <time>2019-05-30T09:28:43Z</time>
      </trkpt>
      <trkpt lat="43.08274" lon="5.96415">
        <ele>-2.75</ele>
        <time>2019-05-30T09:29:00Z</time>
      </trkpt>
      <trkpt lat="43.08255" lon="5.96424">
        <ele>-1.3</ele>
        <time>2019-05-30T09:29:14Z</time>
      </trkpt>
      <trkpt lat="43.08245" lon="5.96429">
        <ele>-2.27</ele>
        <time>2019-05-30T09:29:22Z</time>
      </trkpt>
      <trkpt lat="43.08223" lon="5.96446">
        <ele>-0.34</ele>
        <time>2019-05-30T09:29:40Z</time>
      </trkpt>
      <trkpt lat="43.082" lon="5.96464">
        <ele>-0.34</ele>
        <time>2019-05-30T09:29:57Z</time>
      </trkpt>
      <trkpt lat="43.08177" lon="5.96468">
        <ele>-0.34</ele>
        <time>2019-05-30T09:30:14Z</time>
      </trkpt>
      <trkpt lat="43.08182" lon="5.96442">
        <ele>-1.3</ele>
        <time>2019-05-30T09:30:29Z</time>
      </trkpt>
      <trkpt lat="43.08189" lon="5.96403">
        <ele>0.14</ele>
        <time>2019-05-30T09:30:44Z</time>
      </trkpt>
      <trkpt lat="43.08196" lon="5.96358">
        <ele>-2.75</ele>
        <time>2019-05-30T09:30:58Z</time>
      </trkpt>
      <trkpt lat="43.08204" lon="5.96307">
        <ele>-2.75</ele>
        <time>2019-05-30T09:31:13Z</time>
      </trkpt>
      <trkpt lat="43.08211" lon="5.9625">
        <ele>-2.75</ele>
        <time>2019-05-30T09:31:29Z</time>
      </trkpt>
      <trkpt lat="43.08214" lon="5.96196">
        <ele>-3.23</ele>
        <time>2019-05-30T09:31:43Z</time>
      </trkpt>
      <trkpt lat="43.08217" lon="5.9613">
        <ele>-1.79</ele>
        <time>2019-05-30T09:31:59Z</time>
      </trkpt>
      <trkpt lat="43.08221" lon="5.96061">
        <ele>-1.79</ele>
        <time>2019-05-30T09:32:16Z</time>
      </trkpt>
      <trkpt lat="43.08224" lon="5.95998">
        <ele>-2.75</ele>
        <time>2019-05-30T09:32:32Z</time>
      </trkpt>
      <trkpt lat="43.08225" lon="5.9595">
        <ele>-2.75</ele>
        <time>2019-05-30T09:32:44Z</time>
      </trkpt>
      <trkpt lat="43.08225" lon="5.95874">
        <ele>-2.27</ele>
        <time>2019-05-30T09:33:03Z</time>
      </trkpt>
      <trkpt lat="43.08223" lon="5.95812">
        <ele>-2.75</ele>
        <time>2019-05-30T09:33:19Z</time>
      </trkpt>
      <trkpt lat="43.08219" lon="5.95767">
        <ele>-2.27</ele>
        <time>2019-05-30T09:33:31Z</time>
      </trkpt>
      <trkpt lat="43.08201" lon="5.95774">
        <ele>-1.79</ele>
        <time>2019-05-30T09:33:43Z</time>
      </trkpt>
      <trkpt lat="43.08195" lon="5.9578">
        <ele>-1.3</ele>
        <time>2019-05-30T09:33:48Z</time>
      </trkpt>
      <trkpt lat="43.08181" lon="5.95791">
        <ele>-2.27</ele>
        <time>2019-05-30T09:33:59Z</time>
      </trkpt>
      <trkpt lat="43.08171" lon="5.95802">
        <ele>-1.3</ele>
        <time>2019-05-30T09:34:08Z</time>
      </trkpt>
      <trkpt lat="43.08143" lon="5.95834">
        <ele>-2.27</ele>
        <time>2019-05-30T09:34:28Z</time>
      </trkpt>
      <trkpt lat="43.08117" lon="5.95858">
        <ele>-1.3</ele>
        <time>2019-05-30T09:34:44Z</time>
      </trkpt>
      <trkpt lat="43.08088" lon="5.95886">
        <ele>-3.71</ele>
        <time>2019-05-30T09:35:01Z</time>
      </trkpt>
      <trkpt lat="43.08053" lon="5.9591">
        <ele>-4.19</ele>
        <time>2019-05-30T09:35:19Z</time>
      </trkpt>
      <trkpt lat="43.08016" lon="5.95934">
        <ele>-4.19</ele>
        <time>2019-05-30T09:35:39Z</time>
      </trkpt>
      <trkpt lat="43.07986" lon="5.95953">
        <ele>-2.27</ele>
        <time>2019-05-30T09:35:56Z</time>
      </trkpt>
      <trkpt lat="43.07956" lon="5.9597">
        <ele>-1.79</ele>
        <time>2019-05-30T09:36:13Z</time>
      </trkpt>
      <trkpt lat="43.0792" lon="5.95988">
        <ele>-0.82</ele>
        <time>2019-05-30T09:36:32Z</time>
      </trkpt>
      <trkpt lat="43.07894" lon="5.96">
        <ele>0.14</ele>
        <time>2019-05-30T09:36:46Z</time>
      </trkpt>
      <trkpt lat="43.07863" lon="5.96016">
        <ele>-2.27</ele>
        <time>2019-05-30T09:37:03Z</time>
      </trkpt>
      <trkpt lat="43.07826" lon="5.96035">
        <ele>-4.19</ele>
        <time>2019-05-30T09:37:24Z</time>
      </trkpt>
      <trkpt lat="43.07792" lon="5.96061">
        <ele>-5.15</ele>
        <time>2019-05-30T09:37:44Z</time>
      </trkpt>
      <trkpt lat="43.07766" lon="5.96084">
        <ele>-4.19</ele>
        <time>2019-05-30T09:37:59Z</time>
      </trkpt>
      <trkpt lat="43.07735" lon="5.96109">
        <ele>-4.19</ele>
        <time>2019-05-30T09:38:16Z</time>
      </trkpt>
      <trkpt lat="43.07697" lon="5.96137">
        <ele>-3.71</ele>
        <time>2019-05-30T09:38:36Z</time>
      </trkpt>
      <trkpt lat="43.07667" lon="5.9616">
        <ele>-3.71</ele>
        <time>2019-05-30T09:38:53Z</time>
      </trkpt>
      <trkpt lat="43.07642" lon="5.96181">
        <ele>-2.75</ele>
        <time>2019-05-30T09:39:07Z</time>
      </trkpt>
      <trkpt lat="43.07611" lon="5.96201">
        <ele>-3.71</ele>
        <time>2019-05-30T09:39:23Z</time>
      </trkpt>
      <trkpt lat="43.0758" lon="5.96227">
        <ele>-2.27</ele>
        <time>2019-05-30T09:39:40Z</time>
      </trkpt>
      <trkpt lat="43.07548" lon="5.9625">
        <ele>-2.75</ele>
        <time>2019-05-30T09:39:56Z</time>
      </trkpt>
      <trkpt lat="43.07518" lon="5.96268">
        <ele>-2.75</ele>
        <time>2019-05-30T09:40:10Z</time>
      </trkpt>
      <trkpt lat="43.07512" lon="5.96243">
        <ele>-2.75</ele>
        <time>2019-05-30T09:40:22Z</time>
      </trkpt>
      <trkpt lat="43.07512" lon="5.96235">
        <ele>-2.75</ele>
        <time>2019-05-30T09:40:26Z</time>
      </trkpt>
      <trkpt lat="43.07514" lon="5.96206">
        <ele>-2.75</ele>
        <time>2019-05-30T09:40:38Z</time>
      </trkpt>
      <trkpt lat="43.07515" lon="5.96174">
        <ele>-1.3</ele>
        <time>2019-05-30T09:40:50Z</time>
      </trkpt>
      <trkpt lat="43.07518" lon="5.96153">
        <ele>-0.34</ele>
        <time>2019-05-30T09:40:57Z</time>
      </trkpt>
      <trkpt lat="43.07519" lon="5.96141">
        <ele>-2.27</ele>
        <time>2019-05-30T09:41:01Z</time>
      </trkpt>
      <trkpt lat="43.07526" lon="5.96092">
        <ele>-2.27</ele>
        <time>2019-05-30T09:41:17Z</time>
      </trkpt>
      <trkpt lat="43.07529" lon="5.96073">
        <ele>-3.23</ele>
        <time>2019-05-30T09:41:23Z</time>
      </trkpt>
      <trkpt lat="43.07532" lon="5.96052">
        <ele>-7.07</ele>
        <time>2019-05-30T09:41:30Z</time>
      </trkpt>
      <trkpt lat="43.0754" lon="5.96013">
        <ele>-6.59</ele>
        <time>2019-05-30T09:41:43Z</time>
      </trkpt>
      <trkpt lat="43.07552" lon="5.9596">
        <ele>-4.19</ele>
        <time>2019-05-30T09:42:00Z</time>
      </trkpt>
      <trkpt lat="43.07558" lon="5.95923">
        <ele>-3.71</ele>
        <time>2019-05-30T09:42:12Z</time>
      </trkpt>
      <trkpt lat="43.07565" lon="5.95882">
        <ele>-3.71</ele>
        <time>2019-05-30T09:42:25Z</time>
      </trkpt>
      <trkpt lat="43.07573" lon="5.95846">
        <ele>-4.19</ele>
        <time>2019-05-30T09:42:36Z</time>
      </trkpt>
      <trkpt lat="43.07584" lon="5.958">
        <ele>-2.75</ele>
        <time>2019-05-30T09:42:52Z</time>
      </trkpt>
      <trkpt lat="43.07594" lon="5.95747">
        <ele>-2.27</ele>
        <time>2019-05-30T09:43:10Z</time>
      </trkpt>
      <trkpt lat="43.07599" lon="5.95695">
        <ele>-2.27</ele>
        <time>2019-05-30T09:43:27Z</time>
      </trkpt>
      <trkpt lat="43.07606" lon="5.95635">
        <ele>-3.23</ele>
        <time>2019-05-30T09:43:46Z</time>
      </trkpt>
      <trkpt lat="43.07613" lon="5.95573">
        <ele>-4.67</ele>
        <time>2019-05-30T09:44:06Z</time>
      </trkpt>
      <trkpt lat="43.07621" lon="5.95517">
        <ele>-4.67</ele>
        <time>2019-05-30T09:44:25Z</time>
      </trkpt>
      <trkpt lat="43.07613" lon="5.955">
        <ele>-3.71</ele>
        <time>2019-05-30T09:44:35Z</time>
      </trkpt>
      <trkpt lat="43.07595" lon="5.95509">
        <ele>-3.71</ele>
        <time>2019-05-30T09:44:50Z</time>
      </trkpt>
      <trkpt lat="43.07579" lon="5.95519">
        <ele>-2.27</ele>
        <time>2019-05-30T09:45:02Z</time>
      </trkpt>
      <trkpt lat="43.0757" lon="5.95526">
        <ele>-4.19</ele>
        <time>2019-05-30T09:45:11Z</time>
      </trkpt>
      <trkpt lat="43.07555" lon="5.95537">
        <ele>-3.71</ele>
        <time>2019-05-30T09:45:22Z</time>
      </trkpt>
      <trkpt lat="43.0755" lon="5.9554">
        <ele>-2.27</ele>
        <time>2019-05-30T09:45:26Z</time>
      </trkpt>
      <trkpt lat="43.07529" lon="5.95555">
        <ele>-3.23</ele>
        <time>2019-05-30T09:45:43Z</time>
      </trkpt>
      <trkpt lat="43.07508" lon="5.95573">
        <ele>-3.71</ele>
        <time>2019-05-30T09:45:59Z</time>
      </trkpt>
      <trkpt lat="43.0749" lon="5.9559">
        <ele>-4.19</ele>
        <time>2019-05-30T09:46:12Z</time>
      </trkpt>
      <trkpt lat="43.0747" lon="5.95609">
        <ele>-2.27</ele>
        <time>2019-05-30T09:46:25Z</time>
      </trkpt>
      <trkpt lat="43.07446" lon="5.95631">
        <ele>-2.75</ele>
        <time>2019-05-30T09:46:40Z</time>
      </trkpt>
      <trkpt lat="43.0742" lon="5.95653">
        <ele>-1.79</ele>
        <time>2019-05-30T09:46:56Z</time>
      </trkpt>
      <trkpt lat="43.07398" lon="5.95673">
        <ele>-1.3</ele>
        <time>2019-05-30T09:47:10Z</time>
      </trkpt>
      <trkpt lat="43.07366" lon="5.957">
        <ele>-0.34</ele>
        <time>2019-05-30T09:47:29Z</time>
      </trkpt>
      <trkpt lat="43.0734" lon="5.95717">
        <ele>-4.19</ele>
        <time>2019-05-30T09:47:43Z</time>
      </trkpt>
      <trkpt lat="43.07333" lon="5.95723">
        <ele>-5.15</ele>
        <time>2019-05-30T09:47:48Z</time>
      </trkpt>
      <trkpt lat="43.07316" lon="5.95737">
        <ele>-5.15</ele>
        <time>2019-05-30T09:47:59Z</time>
      </trkpt>
      <trkpt lat="43.07302" lon="5.95753">
        <ele>-3.23</ele>
        <time>2019-05-30T09:48:09Z</time>
      </trkpt>
      <trkpt lat="43.07274" lon="5.95774">
        <ele>-2.75</ele>
        <time>2019-05-30T09:48:25Z</time>
      </trkpt>
      <trkpt lat="43.07246" lon="5.95797">
        <ele>-5.63</ele>
        <time>2019-05-30T09:48:41Z</time>
      </trkpt>
      <trkpt lat="43.07218" lon="5.95817">
        <ele>-5.63</ele>
        <time>2019-05-30T09:48:57Z</time>
      </trkpt>
      <trkpt lat="43.07182" lon="5.95843">
        <ele>-5.63</ele>
        <time>2019-05-30T09:49:16Z</time>
      </trkpt>
      <trkpt lat="43.0715" lon="5.95865">
        <ele>-5.15</ele>
        <time>2019-05-30T09:49:32Z</time>
      </trkpt>
      <trkpt lat="43.07119" lon="5.95887">
        <ele>-4.67</ele>
        <time>2019-05-30T09:49:48Z</time>
      </trkpt>
      <trkpt lat="43.07088" lon="5.95911">
        <ele>-1.79</ele>
        <time>2019-05-30T09:50:04Z</time>
      </trkpt>
      <trkpt lat="43.07052" lon="5.95931">
        <ele>-3.23</ele>
        <time>2019-05-30T09:50:21Z</time>
      </trkpt>
      <trkpt lat="43.07017" lon="5.95951">
        <ele>-2.27</ele>
        <time>2019-05-30T09:50:37Z</time>
      </trkpt>
      <trkpt lat="43.06984" lon="5.95966">
        <ele>-2.75</ele>
        <time>2019-05-30T09:50:53Z</time>
      </trkpt>
      <trkpt lat="43.06957" lon="5.95981">
        <ele>-1.3</ele>
        <time>2019-05-30T09:51:07Z</time>
      </trkpt>
      <trkpt lat="43.06918" lon="5.96003">
        <ele>-4.19</ele>
        <time>2019-05-30T09:51:25Z</time>
      </trkpt>
      <trkpt lat="43.0688" lon="5.96022">
        <ele>-5.63</ele>
        <time>2019-05-30T09:51:44Z</time>
      </trkpt>
      <trkpt lat="43.0685" lon="5.96032">
        <ele>-3.71</ele>
        <time>2019-05-30T09:52:00Z</time>
      </trkpt>
      <trkpt lat="43.06837" lon="5.96037">
        <ele>-3.71</ele>
        <time>2019-05-30T09:52:07Z</time>
      </trkpt>
      <trkpt lat="43.06832" lon="5.96027">
        <ele>-3.23</ele>
        <time>2019-05-30T09:52:13Z</time>
      </trkpt>
      <trkpt lat="43.06832" lon="5.96004">
        <ele>-2.75</ele>
        <time>2019-05-30T09:52:25Z</time>
      </trkpt>
      <trkpt lat="43.06835" lon="5.95976">
        <ele>-5.15</ele>
        <time>2019-05-30T09:52:37Z</time>
      </trkpt>
      <trkpt lat="43.0684" lon="5.95942">
        <ele>-4.67</ele>
        <time>2019-05-30T09:52:51Z</time>
      </trkpt>
      <trkpt lat="43.06841" lon="5.95939">
        <ele>-4.67</ele>
        <time>2019-05-30T09:52:52Z</time>
      </trkpt>
      <trkpt lat="43.06845" lon="5.95919">
        <ele>-4.19</ele>
        <time>2019-05-30T09:52:59Z</time>
      </trkpt>
      <trkpt lat="43.06858" lon="5.95876">
        <ele>-4.19</ele>
        <time>2019-05-30T09:53:14Z</time>
      </trkpt>
      <trkpt lat="43.06874" lon="5.95832">
        <ele>-4.19</ele>
        <time>2019-05-30T09:53:29Z</time>
      </trkpt>
      <trkpt lat="43.06887" lon="5.95799">
        <ele>-2.27</ele>
        <time>2019-05-30T09:53:41Z</time>
      </trkpt>
      <trkpt lat="43.06902" lon="5.9576">
        <ele>-2.75</ele>
        <time>2019-05-30T09:53:55Z</time>
      </trkpt>
      <trkpt lat="43.06903" lon="5.95757">
        <ele>-2.75</ele>
        <time>2019-05-30T09:53:56Z</time>
      </trkpt>
      <trkpt lat="43.06913" lon="5.95735">
        <ele>-2.27</ele>
        <time>2019-05-30T09:54:04Z</time>
      </trkpt>
      <trkpt lat="43.06931" lon="5.95694">
        <ele>-1.3</ele>
        <time>2019-05-30T09:54:20Z</time>
      </trkpt>
      <trkpt lat="43.06944" lon="5.95656">
        <ele>-0.82</ele>
        <time>2019-05-30T09:54:34Z</time>
      </trkpt>
      <trkpt lat="43.06958" lon="5.95617">
        <ele>-0.34</ele>
        <time>2019-05-30T09:54:48Z</time>
      </trkpt>
      <trkpt lat="43.06969" lon="5.95583">
        <ele>-1.79</ele>
        <time>2019-05-30T09:55:00Z</time>
      </trkpt>
      <trkpt lat="43.06957" lon="5.95578">
        <ele>-2.75</ele>
        <time>2019-05-30T09:55:08Z</time>
      </trkpt>
      <trkpt lat="43.06947" lon="5.9558">
        <ele>-3.71</ele>
        <time>2019-05-30T09:55:14Z</time>
      </trkpt>
      <trkpt lat="43.0693" lon="5.95581">
        <ele>-5.63</ele>
        <time>2019-05-30T09:55:27Z</time>
      </trkpt>
      <trkpt lat="43.06906" lon="5.95585">
        <ele>-1.79</ele>
        <time>2019-05-30T09:55:43Z</time>
      </trkpt>
      <trkpt lat="43.06882" lon="5.95591">
        <ele>-0.34</ele>
        <time>2019-05-30T09:55:59Z</time>
      </trkpt>
      <trkpt lat="43.0686" lon="5.95595">
        <ele>-5.15</ele>
        <time>2019-05-30T09:56:13Z</time>
      </trkpt>
      <trkpt lat="43.06837" lon="5.95601">
        <ele>-6.11</ele>
        <time>2019-05-30T09:56:28Z</time>
      </trkpt>
      <trkpt lat="43.06829" lon="5.95603">
        <ele>-4.19</ele>
        <time>2019-05-30T09:56:33Z</time>
      </trkpt>
      <trkpt lat="43.0681" lon="5.95609">
        <ele>-5.15</ele>
        <time>2019-05-30T09:56:45Z</time>
      </trkpt>
      <trkpt lat="43.06792" lon="5.95615">
        <ele>-3.71</ele>
        <time>2019-05-30T09:56:56Z</time>
      </trkpt>
      <trkpt lat="43.06781" lon="5.95619">
        <ele>-2.75</ele>
        <time>2019-05-30T09:57:03Z</time>
      </trkpt>
      <trkpt lat="43.06757" lon="5.95624">
        <ele>-2.75</ele>
        <time>2019-05-30T09:57:17Z</time>
      </trkpt>
      <trkpt lat="43.06734" lon="5.9563">
        <ele>-1.79</ele>
        <time>2019-05-30T09:57:31Z</time>
      </trkpt>
      <trkpt lat="43.06729" lon="5.9563">
        <ele>-1.79</ele>
        <time>2019-05-30T09:57:34Z</time>
      </trkpt>
      <trkpt lat="43.06723" lon="5.95631">
        <ele>-2.27</ele>
        <time>2019-05-30T09:57:38Z</time>
      </trkpt>
      <trkpt lat="43.067" lon="5.95634">
        <ele>-1.3</ele>
        <time>2019-05-30T09:57:50Z</time>
      </trkpt>
      <trkpt lat="43.06679" lon="5.9564">
        <ele>-2.27</ele>
        <time>2019-05-30T09:58:04Z</time>
      </trkpt>
      <trkpt lat="43.0666" lon="5.95645">
        <ele>-1.79</ele>
        <time>2019-05-30T09:58:16Z</time>
      </trkpt>
      <trkpt lat="43.06638" lon="5.95654">
        <ele>-2.75</ele>
        <time>2019-05-30T09:58:30Z</time>
      </trkpt>
      <trkpt lat="43.06613" lon="5.95662">
        <ele>-2.27</ele>
        <time>2019-05-30T09:58:44Z</time>
      </trkpt>
      <trkpt lat="43.06587" lon="5.9567">
        <ele>-2.75</ele>
        <time>2019-05-30T09:58:58Z</time>
      </trkpt>
      <trkpt lat="43.06563" lon="5.95681">
        <ele>-3.23</ele>
        <time>2019-05-30T09:59:11Z</time>
      </trkpt>
      <trkpt lat="43.06536" lon="5.95692">
        <ele>-3.23</ele>
        <time>2019-05-30T09:59:26Z</time>
      </trkpt>
      <trkpt lat="43.06511" lon="5.95701">
        <ele>-3.71</ele>
        <time>2019-05-30T09:59:39Z</time>
      </trkpt>
      <trkpt lat="43.06479" lon="5.95713">
        <ele>-3.71</ele>
        <time>2019-05-30T09:59:55Z</time>
      </trkpt>
      <trkpt lat="43.06452" lon="5.95724">
        <ele>-3.71</ele>
        <time>2019-05-30T10:00:10Z</time>
      </trkpt>
      <trkpt lat="43.06436" lon="5.9573">
        <ele>-3.23</ele>
        <time>2019-05-30T10:00:19Z</time>
      </trkpt>
      <trkpt lat="43.06416" lon="5.95736">
        <ele>-4.67</ele>
        <time>2019-05-30T10:00:29Z</time>
      </trkpt>
      <trkpt lat="43.06396" lon="5.95743">
        <ele>-5.15</ele>
        <time>2019-05-30T10:00:40Z</time>
      </trkpt>
      <trkpt lat="43.06377" lon="5.95748">
        <ele>-4.67</ele>
        <time>2019-05-30T10:00:50Z</time>
      </trkpt>
      <trkpt lat="43.06357" lon="5.95755">
        <ele>-5.15</ele>
        <time>2019-05-30T10:01:01Z</time>
      </trkpt>
      <trkpt lat="43.06338" lon="5.95761">
        <ele>-5.15</ele>
        <time>2019-05-30T10:01:12Z</time>
      </trkpt>
      <trkpt lat="43.06315" lon="5.95769">
        <ele>-5.63</ele>
        <time>2019-05-30T10:01:25Z</time>
      </trkpt>
      <trkpt lat="43.06291" lon="5.9578">
        <ele>-6.11</ele>
        <time>2019-05-30T10:01:40Z</time>
      </trkpt>
      <trkpt lat="43.06269" lon="5.95789">
        <ele>-5.63</ele>
        <time>2019-05-30T10:01:52Z</time>
      </trkpt>
      <trkpt lat="43.06258" lon="5.95792">
        <ele>-5.63</ele>
        <time>2019-05-30T10:01:58Z</time>
      </trkpt>
      <trkpt lat="43.06249" lon="5.95796">
        <ele>-5.63</ele>
        <time>2019-05-30T10:02:03Z</time>
      </trkpt>
      <trkpt lat="43.06227" lon="5.95804">
        <ele>-5.15</ele>
        <time>2019-05-30T10:02:15Z</time>
      </trkpt>
      <trkpt lat="43.06209" lon="5.9581">
        <ele>-6.11</ele>
        <time>2019-05-30T10:02:25Z</time>
      </trkpt>
      <trkpt lat="43.06184" lon="5.95816">
        <ele>-6.11</ele>
        <time>2019-05-30T10:02:39Z</time>
      </trkpt>
      <trkpt lat="43.06178" lon="5.95811">
        <ele>-6.11</ele>
        <time>2019-05-30T10:02:44Z</time>
      </trkpt>
      <trkpt lat="43.06175" lon="5.95789">
        <ele>-4.19</ele>
        <time>2019-05-30T10:02:57Z</time>
      </trkpt>
      <trkpt lat="43.06176" lon="5.95767">
        <ele>-4.19</ele>
        <time>2019-05-30T10:03:08Z</time>
      </trkpt>
      <trkpt lat="43.06175" lon="5.95742">
        <ele>-4.19</ele>
        <time>2019-05-30T10:03:20Z</time>
      </trkpt>
      <trkpt lat="43.06173" lon="5.95718">
        <ele>-3.71</ele>
        <time>2019-05-30T10:03:31Z</time>
      </trkpt>
      <trkpt lat="43.0617" lon="5.95691">
        <ele>-3.71</ele>
        <time>2019-05-30T10:03:43Z</time>
      </trkpt>
      <trkpt lat="43.06168" lon="5.95661">
        <ele>-2.75</ele>
        <time>2019-05-30T10:03:56Z</time>
      </trkpt>
      <trkpt lat="43.06165" lon="5.95631">
        <ele>-4.19</ele>
        <time>2019-05-30T10:04:09Z</time>
      </trkpt>
      <trkpt lat="43.06164" lon="5.95603">
        <ele>-4.19</ele>
        <time>2019-05-30T10:04:20Z</time>
      </trkpt>
      <trkpt lat="43.06162" lon="5.95576">
        <ele>-4.19</ele>
        <time>2019-05-30T10:04:30Z</time>
      </trkpt>
      <trkpt lat="43.0616" lon="5.95548">
        <ele>-4.19</ele>
        <time>2019-05-30T10:04:40Z</time>
      </trkpt>
      <trkpt lat="43.06158" lon="5.95519">
        <ele>-4.67</ele>
        <time>2019-05-30T10:04:50Z</time>
      </trkpt>
      <trkpt lat="43.06154" lon="5.95487">
        <ele>-4.67</ele>
        <time>2019-05-30T10:05:01Z</time>
      </trkpt>
      <trkpt lat="43.06151" lon="5.95453">
        <ele>-4.67</ele>
        <time>2019-05-30T10:05:13Z</time>
      </trkpt>
      <trkpt lat="43.06148" lon="5.95422">
        <ele>-3.71</ele>
        <time>2019-05-30T10:05:24Z</time>
      </trkpt>
      <trkpt lat="43.06145" lon="5.95387">
        <ele>-3.23</ele>
        <time>2019-05-30T10:05:36Z</time>
      </trkpt>
      <trkpt lat="43.06142" lon="5.95341">
        <ele>-3.71</ele>
        <time>2019-05-30T10:05:52Z</time>
      </trkpt>
      <trkpt lat="43.06137" lon="5.95312">
        <ele>-3.71</ele>
        <time>2019-05-30T10:06:03Z</time>
      </trkpt>
      <trkpt lat="43.06133" lon="5.95281">
        <ele>-5.15</ele>
        <time>2019-05-30T10:06:14Z</time>
      </trkpt>
      <trkpt lat="43.06129" lon="5.95247">
        <ele>-5.15</ele>
        <time>2019-05-30T10:06:26Z</time>
      </trkpt>
      <trkpt lat="43.06125" lon="5.95209">
        <ele>-5.15</ele>
        <time>2019-05-30T10:06:39Z</time>
      </trkpt>
      <trkpt lat="43.06122" lon="5.95181">
        <ele>-4.67</ele>
        <time>2019-05-30T10:06:49Z</time>
      </trkpt>
      <trkpt lat="43.06118" lon="5.95144">
        <ele>-4.67</ele>
        <time>2019-05-30T10:07:02Z</time>
      </trkpt>
      <trkpt lat="43.06115" lon="5.95115">
        <ele>-3.23</ele>
        <time>2019-05-30T10:07:12Z</time>
      </trkpt>
      <trkpt lat="43.06115" lon="5.95112">
        <ele>-3.23</ele>
        <time>2019-05-30T10:07:13Z</time>
      </trkpt>
      <trkpt lat="43.06113" lon="5.95101">
        <ele>-3.71</ele>
        <time>2019-05-30T10:07:17Z</time>
      </trkpt>
      <trkpt lat="43.0611" lon="5.9507">
        <ele>-2.75</ele>
        <time>2019-05-30T10:07:28Z</time>
      </trkpt>
      <trkpt lat="43.06108" lon="5.95044">
        <ele>-2.75</ele>
        <time>2019-05-30T10:07:37Z</time>
      </trkpt>
      <trkpt lat="43.06107" lon="5.95018">
        <ele>-3.71</ele>
        <time>2019-05-30T10:07:47Z</time>
      </trkpt>
      <trkpt lat="43.06105" lon="5.94987">
        <ele>-4.19</ele>
        <time>2019-05-30T10:07:59Z</time>
      </trkpt>
      <trkpt lat="43.06104" lon="5.94975">
        <ele>-4.19</ele>
        <time>2019-05-30T10:08:03Z</time>
      </trkpt>
      <trkpt lat="43.06102" lon="5.9493">
        <ele>-3.71</ele>
        <time>2019-05-30T10:08:20Z</time>
      </trkpt>
      <trkpt lat="43.061" lon="5.94899">
        <ele>-4.19</ele>
        <time>2019-05-30T10:08:31Z</time>
      </trkpt>
      <trkpt lat="43.06099" lon="5.94866">
        <ele>-5.15</ele>
        <time>2019-05-30T10:08:43Z</time>
      </trkpt>
      <trkpt lat="43.06097" lon="5.94837">
        <ele>-5.63</ele>
        <time>2019-05-30T10:08:53Z</time>
      </trkpt>
      <trkpt lat="43.06095" lon="5.94806">
        <ele>-6.11</ele>
        <time>2019-05-30T10:09:04Z</time>
      </trkpt>
      <trkpt lat="43.06093" lon="5.94769">
        <ele>-5.63</ele>
        <time>2019-05-30T10:09:16Z</time>
      </trkpt>
      <trkpt lat="43.06089" lon="5.94727">
        <ele>-4.67</ele>
        <time>2019-05-30T10:09:29Z</time>
      </trkpt>
      <trkpt lat="43.06087" lon="5.9468">
        <ele>-5.15</ele>
        <time>2019-05-30T10:09:44Z</time>
      </trkpt>
      <trkpt lat="43.06084" lon="5.94649">
        <ele>-6.11</ele>
        <time>2019-05-30T10:09:54Z</time>
      </trkpt>
      <trkpt lat="43.0608" lon="5.94613">
        <ele>-5.63</ele>
        <time>2019-05-30T10:10:05Z</time>
      </trkpt>
      <trkpt lat="43.06076" lon="5.9457">
        <ele>-3.71</ele>
        <time>2019-05-30T10:10:19Z</time>
      </trkpt>
      <trkpt lat="43.06072" lon="5.94536">
        <ele>-4.19</ele>
        <time>2019-05-30T10:10:30Z</time>
      </trkpt>
      <trkpt lat="43.06068" lon="5.94499">
        <ele>-5.63</ele>
        <time>2019-05-30T10:10:42Z</time>
      </trkpt>
      <trkpt lat="43.06062" lon="5.94458">
        <ele>-6.11</ele>
        <time>2019-05-30T10:10:55Z</time>
      </trkpt>
      <trkpt lat="43.06057" lon="5.94415">
        <ele>-4.19</ele>
        <time>2019-05-30T10:11:08Z</time>
      </trkpt>
      <trkpt lat="43.06052" lon="5.94381">
        <ele>-3.23</ele>
        <time>2019-05-30T10:11:18Z</time>
      </trkpt>
      <trkpt lat="43.06048" lon="5.94356">
        <ele>-3.23</ele>
        <time>2019-05-30T10:11:26Z</time>
      </trkpt>
      <trkpt lat="43.06044" lon="5.94317">
        <ele>-2.75</ele>
        <time>2019-05-30T10:11:38Z</time>
      </trkpt>
      <trkpt lat="43.0604" lon="5.94283">
        <ele>-2.27</ele>
        <time>2019-05-30T10:11:49Z</time>
      </trkpt>
      <trkpt lat="43.06035" lon="5.94246">
        <ele>-3.23</ele>
        <time>2019-05-30T10:12:01Z</time>
      </trkpt>
      <trkpt lat="43.06034" lon="5.94236">
        <ele>-3.23</ele>
        <time>2019-05-30T10:12:04Z</time>
      </trkpt>
      <trkpt lat="43.06033" lon="5.94224">
        <ele>-3.23</ele>
        <time>2019-05-30T10:12:08Z</time>
      </trkpt>
      <trkpt lat="43.0603" lon="5.94192">
        <ele>-3.23</ele>
        <time>2019-05-30T10:12:18Z</time>
      </trkpt>
      <trkpt lat="43.06028" lon="5.94177">
        <ele>-2.75</ele>
        <time>2019-05-30T10:12:23Z</time>
      </trkpt>
      <trkpt lat="43.06026" lon="5.94163">
        <ele>-3.23</ele>
        <time>2019-05-30T10:12:28Z</time>
      </trkpt>
      <trkpt lat="43.06024" lon="5.94155">
        <ele>-3.23</ele>
        <time>2019-05-30T10:12:31Z</time>
      </trkpt>
      <trkpt lat="43.06023" lon="5.94145">
        <ele>-3.23</ele>
        <time>2019-05-30T10:12:35Z</time>
      </trkpt>
      <trkpt lat="43.06019" lon="5.94127">
        <ele>-3.23</ele>
        <time>2019-05-30T10:12:42Z</time>
      </trkpt>
      <trkpt lat="43.06015" lon="5.9411">
        <ele>-2.75</ele>
        <time>2019-05-30T10:12:49Z</time>
      </trkpt>
      <trkpt lat="43.0601" lon="5.94069">
        <ele>-2.75</ele>
        <time>2019-05-30T10:13:04Z</time>
      </trkpt>
      <trkpt lat="43.06008" lon="5.94038">
        <ele>-4.19</ele>
        <time>2019-05-30T10:13:15Z</time>
      </trkpt>
      <trkpt lat="43.06005" lon="5.93996">
        <ele>-4.67</ele>
        <time>2019-05-30T10:13:30Z</time>
      </trkpt>
      <trkpt lat="43.06002" lon="5.93951">
        <ele>-5.15</ele>
        <time>2019-05-30T10:13:45Z</time>
      </trkpt>
      <trkpt lat="43.05998" lon="5.93902">
        <ele>-4.19</ele>
        <time>2019-05-30T10:14:01Z</time>
      </trkpt>
      <trkpt lat="43.05994" lon="5.93856">
        <ele>-4.19</ele>
        <time>2019-05-30T10:14:16Z</time>
      </trkpt>
      <trkpt lat="43.05988" lon="5.93807">
        <ele>-3.71</ele>
        <time>2019-05-30T10:14:32Z</time>
      </trkpt>
      <trkpt lat="43.05984" lon="5.93763">
        <ele>-3.23</ele>
        <time>2019-05-30T10:14:46Z</time>
      </trkpt>
      <trkpt lat="43.05981" lon="5.93725">
        <ele>-3.71</ele>
        <time>2019-05-30T10:14:58Z</time>
      </trkpt>
      <trkpt lat="43.05978" lon="5.93689">
        <ele>-4.19</ele>
        <time>2019-05-30T10:15:09Z</time>
      </trkpt>
      <trkpt lat="43.05975" lon="5.93651">
        <ele>-4.67</ele>
        <time>2019-05-30T10:15:21Z</time>
      </trkpt>
      <trkpt lat="43.05973" lon="5.93611">
        <ele>-4.19</ele>
        <time>2019-05-30T10:15:33Z</time>
      </trkpt>
      <trkpt lat="43.05969" lon="5.93572">
        <ele>-5.15</ele>
        <time>2019-05-30T10:15:45Z</time>
      </trkpt>
      <trkpt lat="43.05966" lon="5.93529">
        <ele>-4.67</ele>
        <time>2019-05-30T10:15:59Z</time>
      </trkpt>
      <trkpt lat="43.05962" lon="5.93496">
        <ele>-4.67</ele>
        <time>2019-05-30T10:16:10Z</time>
      </trkpt>
      <trkpt lat="43.05959" lon="5.93455">
        <ele>-4.19</ele>
        <time>2019-05-30T10:16:23Z</time>
      </trkpt>
      <trkpt lat="43.05955" lon="5.93412">
        <ele>-4.67</ele>
        <time>2019-05-30T10:16:37Z</time>
      </trkpt>
      <trkpt lat="43.05953" lon="5.93381">
        <ele>-4.67</ele>
        <time>2019-05-30T10:16:47Z</time>
      </trkpt>
      <trkpt lat="43.0595" lon="5.93343">
        <ele>-4.67</ele>
        <time>2019-05-30T10:16:59Z</time>
      </trkpt>
      <trkpt lat="43.05948" lon="5.933">
        <ele>-5.15</ele>
        <time>2019-05-30T10:17:12Z</time>
      </trkpt>
      <trkpt lat="43.05944" lon="5.93257">
        <ele>-5.63</ele>
        <time>2019-05-30T10:17:26Z</time>
      </trkpt>
      <trkpt lat="43.05941" lon="5.93222">
        <ele>-5.63</ele>
        <time>2019-05-30T10:17:37Z</time>
      </trkpt>
      <trkpt lat="43.05939" lon="5.9319">
        <ele>-5.63</ele>
        <time>2019-05-30T10:17:48Z</time>
      </trkpt>
      <trkpt lat="43.05935" lon="5.93158">
        <ele>-5.15</ele>
        <time>2019-05-30T10:17:59Z</time>
      </trkpt>
      <trkpt lat="43.05935" lon="5.9313">
        <ele>-4.19</ele>
        <time>2019-05-30T10:18:09Z</time>
      </trkpt>
      <trkpt lat="43.05935" lon="5.93105">
        <ele>-4.19</ele>
        <time>2019-05-30T10:18:18Z</time>
      </trkpt>
      <trkpt lat="43.05934" lon="5.93064">
        <ele>-3.71</ele>
        <time>2019-05-30T10:18:32Z</time>
      </trkpt>
      <trkpt lat="43.05933" lon="5.93026">
        <ele>-3.23</ele>
        <time>2019-05-30T10:18:45Z</time>
      </trkpt>
      <trkpt lat="43.0593" lon="5.92979">
        <ele>-4.19</ele>
        <time>2019-05-30T10:19:00Z</time>
      </trkpt>
      <trkpt lat="43.05926" lon="5.9294">
        <ele>-4.19</ele>
        <time>2019-05-30T10:19:13Z</time>
      </trkpt>
      <trkpt lat="43.05923" lon="5.92901">
        <ele>-5.15</ele>
        <time>2019-05-30T10:19:26Z</time>
      </trkpt>
      <trkpt lat="43.05919" lon="5.9286">
        <ele>-5.15</ele>
        <time>2019-05-30T10:19:40Z</time>
      </trkpt>
      <trkpt lat="43.05916" lon="5.92825">
        <ele>-5.15</ele>
        <time>2019-05-30T10:19:52Z</time>
      </trkpt>
      <trkpt lat="43.05913" lon="5.92783">
        <ele>-4.19</ele>
        <time>2019-05-30T10:20:06Z</time>
      </trkpt>
      <trkpt lat="43.0591" lon="5.92742">
        <ele>-4.19</ele>
        <time>2019-05-30T10:20:19Z</time>
      </trkpt>
      <trkpt lat="43.05906" lon="5.92701">
        <ele>-5.15</ele>
        <time>2019-05-30T10:20:33Z</time>
      </trkpt>
      <trkpt lat="43.05901" lon="5.92669">
        <ele>-4.67</ele>
        <time>2019-05-30T10:20:44Z</time>
      </trkpt>
      <trkpt lat="43.05895" lon="5.92632">
        <ele>-4.67</ele>
        <time>2019-05-30T10:20:57Z</time>
      </trkpt>
      <trkpt lat="43.05888" lon="5.92583">
        <ele>-4.19</ele>
        <time>2019-05-30T10:21:14Z</time>
      </trkpt>
      <trkpt lat="43.05882" lon="5.92535">
        <ele>-3.71</ele>
        <time>2019-05-30T10:21:31Z</time>
      </trkpt>
      <trkpt lat="43.05877" lon="5.92492">
        <ele>-3.71</ele>
        <time>2019-05-30T10:21:46Z</time>
      </trkpt>
      <trkpt lat="43.05872" lon="5.92448">
        <ele>-3.71</ele>
        <time>2019-05-30T10:22:00Z</time>
      </trkpt>
      <trkpt lat="43.05866" lon="5.92397">
        <ele>-4.19</ele>
        <time>2019-05-30T10:22:16Z</time>
      </trkpt>
      <trkpt lat="43.05861" lon="5.92346">
        <ele>-3.71</ele>
        <time>2019-05-30T10:22:32Z</time>
      </trkpt>
      <trkpt lat="43.05856" lon="5.92298">
        <ele>-4.19</ele>
        <time>2019-05-30T10:22:47Z</time>
      </trkpt>
      <trkpt lat="43.05854" lon="5.9226">
        <ele>-4.19</ele>
        <time>2019-05-30T10:22:59Z</time>
      </trkpt>
      <trkpt lat="43.05849" lon="5.92222">
        <ele>-3.71</ele>
        <time>2019-05-30T10:23:11Z</time>
      </trkpt>
      <trkpt lat="43.05845" lon="5.92177">
        <ele>-3.71</ele>
        <time>2019-05-30T10:23:26Z</time>
      </trkpt>
      <trkpt lat="43.05843" lon="5.92129">
        <ele>-3.23</ele>
        <time>2019-05-30T10:23:41Z</time>
      </trkpt>
      <trkpt lat="43.05843" lon="5.92072">
        <ele>-4.19</ele>
        <time>2019-05-30T10:23:58Z</time>
      </trkpt>
      <trkpt lat="43.05846" lon="5.92031">
        <ele>-4.19</ele>
        <time>2019-05-30T10:24:10Z</time>
      </trkpt>
      <trkpt lat="43.05853" lon="5.91982">
        <ele>-3.71</ele>
        <time>2019-05-30T10:24:24Z</time>
      </trkpt>
      <trkpt lat="43.05856" lon="5.91929">
        <ele>-4.19</ele>
        <time>2019-05-30T10:24:40Z</time>
      </trkpt>
      <trkpt lat="43.05846" lon="5.91913">
        <ele>-5.15</ele>
        <time>2019-05-30T10:24:50Z</time>
      </trkpt>
      <trkpt lat="43.05842" lon="5.91916">
        <ele>-4.67</ele>
        <time>2019-05-30T10:24:53Z</time>
      </trkpt>
      <trkpt lat="43.05834" lon="5.9192">
        <ele>-4.67</ele>
        <time>2019-05-30T10:24:59Z</time>
      </trkpt>
      <trkpt lat="43.05815" lon="5.91929">
        <ele>-5.63</ele>
        <time>2019-05-30T10:25:13Z</time>
      </trkpt>
      <trkpt lat="43.05787" lon="5.91945">
        <ele>-6.11</ele>
        <time>2019-05-30T10:25:30Z</time>
      </trkpt>
      <trkpt lat="43.05774" lon="5.91953">
        <ele>-5.15</ele>
        <time>2019-05-30T10:25:38Z</time>
      </trkpt>
      <trkpt lat="43.05753" lon="5.91962">
        <ele>-5.63</ele>
        <time>2019-05-30T10:25:50Z</time>
      </trkpt>
      <trkpt lat="43.05726" lon="5.91978">
        <ele>-5.15</ele>
        <time>2019-05-30T10:26:06Z</time>
      </trkpt>
      <trkpt lat="43.05701" lon="5.91996">
        <ele>-5.63</ele>
        <time>2019-05-30T10:26:21Z</time>
      </trkpt>
      <trkpt lat="43.05676" lon="5.92015">
        <ele>-5.15</ele>
        <time>2019-05-30T10:26:34Z</time>
      </trkpt>
      <trkpt lat="43.05648" lon="5.92035">
        <ele>-4.67</ele>
        <time>2019-05-30T10:26:48Z</time>
      </trkpt>
      <trkpt lat="43.0562" lon="5.92063">
        <ele>-4.19</ele>
        <time>2019-05-30T10:27:02Z</time>
      </trkpt>
      <trkpt lat="43.05595" lon="5.92094">
        <ele>-4.19</ele>
        <time>2019-05-30T10:27:15Z</time>
      </trkpt>
      <trkpt lat="43.05591" lon="5.92126">
        <ele>-4.19</ele>
        <time>2019-05-30T10:27:25Z</time>
      </trkpt>
      <trkpt lat="43.05598" lon="5.92165">
        <ele>-5.63</ele>
        <time>2019-05-30T10:27:39Z</time>
      </trkpt>
      <trkpt lat="43.05604" lon="5.92201">
        <ele>-6.59</ele>
        <time>2019-05-30T10:27:55Z</time>
      </trkpt>
      <trkpt lat="43.0561" lon="5.92238">
        <ele>-7.07</ele>
        <time>2019-05-30T10:28:13Z</time>
      </trkpt>
      <trkpt lat="43.0562" lon="5.92266">
        <ele>-8.03</ele>
        <time>2019-05-30T10:28:30Z</time>
      </trkpt>
      <trkpt lat="43.05627" lon="5.92298">
        <ele>-7.07</ele>
        <time>2019-05-30T10:28:49Z</time>
      </trkpt>
      <trkpt lat="43.05636" lon="5.92327">
        <ele>-8.03</ele>
        <time>2019-05-30T10:29:07Z</time>
      </trkpt>
      <trkpt lat="43.05645" lon="5.92357">
        <ele>-8.03</ele>
        <time>2019-05-30T10:29:26Z</time>
      </trkpt>
      <trkpt lat="43.05647" lon="5.92374">
        <ele>-7.55</ele>
        <time>2019-05-30T10:29:36Z</time>
      </trkpt>
      <trkpt lat="43.05651" lon="5.92397">
        <ele>-7.55</ele>
        <time>2019-05-30T10:29:49Z</time>
      </trkpt>
      <trkpt lat="43.05654" lon="5.9242">
        <ele>-8.03</ele>
        <time>2019-05-30T10:30:02Z</time>
      </trkpt>
      <trkpt lat="43.05661" lon="5.92448">
        <ele>-8.03</ele>
        <time>2019-05-30T10:30:17Z</time>
      </trkpt>
      <trkpt lat="43.0567" lon="5.92476">
        <ele>-8.51</ele>
        <time>2019-05-30T10:30:33Z</time>
      </trkpt>
      <trkpt lat="43.05679" lon="5.92506">
        <ele>-9</ele>
        <time>2019-05-30T10:30:51Z</time>
      </trkpt>
      <trkpt lat="43.05689" lon="5.92532">
        <ele>-8.51</ele>
        <time>2019-05-30T10:31:09Z</time>
      </trkpt>
      <trkpt lat="43.05693" lon="5.92563">
        <ele>-6.59</ele>
        <time>2019-05-30T10:31:28Z</time>
      </trkpt>
      <trkpt lat="43.05695" lon="5.92591">
        <ele>-6.11</ele>
        <time>2019-05-30T10:31:44Z</time>
      </trkpt>
      <trkpt lat="43.05697" lon="5.92623">
        <ele>-5.63</ele>
        <time>2019-05-30T10:32:01Z</time>
      </trkpt>
      <trkpt lat="43.05703" lon="5.92652">
        <ele>-6.11</ele>
        <time>2019-05-30T10:32:18Z</time>
      </trkpt>
      <trkpt lat="43.05708" lon="5.9268">
        <ele>-5.63</ele>
        <time>2019-05-30T10:32:35Z</time>
      </trkpt>
      <trkpt lat="43.05713" lon="5.92706">
        <ele>-6.11</ele>
        <time>2019-05-30T10:32:52Z</time>
      </trkpt>
      <trkpt lat="43.05715" lon="5.92737">
        <ele>-6.11</ele>
        <time>2019-05-30T10:33:10Z</time>
      </trkpt>
      <trkpt lat="43.0572" lon="5.92767">
        <ele>-6.59</ele>
        <time>2019-05-30T10:33:28Z</time>
      </trkpt>
      <trkpt lat="43.05724" lon="5.92798">
        <ele>-5.63</ele>
        <time>2019-05-30T10:33:46Z</time>
      </trkpt>
      <trkpt lat="43.05727" lon="5.92829">
        <ele>-5.15</ele>
        <time>2019-05-30T10:34:05Z</time>
      </trkpt>
      <trkpt lat="43.0573" lon="5.92859">
        <ele>-5.15</ele>
        <time>2019-05-30T10:34:22Z</time>
      </trkpt>
      <trkpt lat="43.05735" lon="5.92892">
        <ele>-5.63</ele>
        <time>2019-05-30T10:34:42Z</time>
      </trkpt>
      <trkpt lat="43.05743" lon="5.92921">
        <ele>-5.63</ele>
        <time>2019-05-30T10:35:00Z</time>
      </trkpt>
      <trkpt lat="43.05751" lon="5.92947">
        <ele>-5.15</ele>
        <time>2019-05-30T10:35:19Z</time>
      </trkpt>
      <trkpt lat="43.05764" lon="5.92972">
        <ele>-4.67</ele>
        <time>2019-05-30T10:35:39Z</time>
      </trkpt>
      <trkpt lat="43.05776" lon="5.92999">
        <ele>-4.19</ele>
        <time>2019-05-30T10:35:58Z</time>
      </trkpt>
      <trkpt lat="43.05788" lon="5.93028">
        <ele>-3.71</ele>
        <time>2019-05-30T10:36:17Z</time>
      </trkpt>
      <trkpt lat="43.05799" lon="5.93057">
        <ele>-3.23</ele>
        <time>2019-05-30T10:36:36Z</time>
      </trkpt>
      <trkpt lat="43.05811" lon="5.93086">
        <ele>-4.19</ele>
        <time>2019-05-30T10:36:55Z</time>
      </trkpt>
      <trkpt lat="43.05823" lon="5.93109">
        <ele>-4.19</ele>
        <time>2019-05-30T10:37:11Z</time>
      </trkpt>
      <trkpt lat="43.05825" lon="5.93113">
        <ele>-4.19</ele>
        <time>2019-05-30T10:37:14Z</time>
      </trkpt>
      <trkpt lat="43.05836" lon="5.93137">
        <ele>-4.67</ele>
        <time>2019-05-30T10:37:31Z</time>
      </trkpt>
      <trkpt lat="43.05846" lon="5.9316">
        <ele>-5.15</ele>
        <time>2019-05-30T10:37:48Z</time>
      </trkpt>
      <trkpt lat="43.05849" lon="5.93167">
        <ele>-5.15</ele>
        <time>2019-05-30T10:37:53Z</time>
      </trkpt>
      <trkpt lat="43.05858" lon="5.93189">
        <ele>-4.67</ele>
        <time>2019-05-30T10:38:09Z</time>
      </trkpt>
      <trkpt lat="43.05868" lon="5.93218">
        <ele>-4.19</ele>
        <time>2019-05-30T10:38:28Z</time>
      </trkpt>
      <trkpt lat="43.05879" lon="5.93252">
        <ele>-4.19</ele>
        <time>2019-05-30T10:38:49Z</time>
      </trkpt>
      <trkpt lat="43.05889" lon="5.93281">
        <ele>-3.71</ele>
        <time>2019-05-30T10:39:07Z</time>
      </trkpt>
      <trkpt lat="43.05898" lon="5.93309">
        <ele>-3.71</ele>
        <time>2019-05-30T10:39:25Z</time>
      </trkpt>
      <trkpt lat="43.05908" lon="5.93338">
        <ele>-3.23</ele>
        <time>2019-05-30T10:39:44Z</time>
      </trkpt>
      <trkpt lat="43.05918" lon="5.93366">
        <ele>-3.23</ele>
        <time>2019-05-30T10:40:02Z</time>
      </trkpt>
      <trkpt lat="43.05928" lon="5.93391">
        <ele>-3.71</ele>
        <time>2019-05-30T10:40:19Z</time>
      </trkpt>
      <trkpt lat="43.05938" lon="5.93416">
        <ele>-3.71</ele>
        <time>2019-05-30T10:40:37Z</time>
      </trkpt>
      <trkpt lat="43.05949" lon="5.93438">
        <ele>-4.67</ele>
        <time>2019-05-30T10:40:53Z</time>
      </trkpt>
      <trkpt lat="43.05959" lon="5.93464">
        <ele>-4.19</ele>
        <time>2019-05-30T10:41:12Z</time>
      </trkpt>
      <trkpt lat="43.05969" lon="5.93491">
        <ele>-4.67</ele>
        <time>2019-05-30T10:41:33Z</time>
      </trkpt>
      <trkpt lat="43.0597" lon="5.93495">
        <ele>-4.19</ele>
        <time>2019-05-30T10:41:35Z</time>
      </trkpt>
      <trkpt lat="43.05979" lon="5.93518">
        <ele>-4.19</ele>
        <time>2019-05-30T10:41:52Z</time>
      </trkpt>
      <trkpt lat="43.05988" lon="5.93539">
        <ele>-4.19</ele>
        <time>2019-05-30T10:42:08Z</time>
      </trkpt>
      <trkpt lat="43.05991" lon="5.9355">
        <ele>-4.67</ele>
        <time>2019-05-30T10:42:16Z</time>
      </trkpt>
      <trkpt lat="43.05992" lon="5.93558">
        <ele>-4.67</ele>
        <time>2019-05-30T10:42:21Z</time>
      </trkpt>
      <trkpt lat="43.05993" lon="5.93589">
        <ele>-4.67</ele>
        <time>2019-05-30T10:42:39Z</time>
      </trkpt>
      <trkpt lat="43.05996" lon="5.93615">
        <ele>-5.15</ele>
        <time>2019-05-30T10:42:54Z</time>
      </trkpt>
      <trkpt lat="43.05997" lon="5.93628">
        <ele>-5.63</ele>
        <time>2019-05-30T10:43:01Z</time>
      </trkpt>
      <trkpt lat="43.06002" lon="5.93659">
        <ele>-5.63</ele>
        <time>2019-05-30T10:43:18Z</time>
      </trkpt>
      <trkpt lat="43.06007" lon="5.93685">
        <ele>-5.63</ele>
        <time>2019-05-30T10:43:34Z</time>
      </trkpt>
      <trkpt lat="43.06009" lon="5.9371">
        <ele>-5.15</ele>
        <time>2019-05-30T10:43:49Z</time>
      </trkpt>
      <trkpt lat="43.06011" lon="5.93728">
        <ele>-5.15</ele>
        <time>2019-05-30T10:44:00Z</time>
      </trkpt>
      <trkpt lat="43.06013" lon="5.93749">
        <ele>-5.15</ele>
        <time>2019-05-30T10:44:13Z</time>
      </trkpt>
      <trkpt lat="43.06016" lon="5.93771">
        <ele>-5.15</ele>
        <time>2019-05-30T10:44:27Z</time>
      </trkpt>
      <trkpt lat="43.06018" lon="5.93798">
        <ele>-5.63</ele>
        <time>2019-05-30T10:44:45Z</time>
      </trkpt>
      <trkpt lat="43.06021" lon="5.93823">
        <ele>-5.63</ele>
        <time>2019-05-30T10:45:01Z</time>
      </trkpt>
      <trkpt lat="43.06023" lon="5.93845">
        <ele>-5.63</ele>
        <time>2019-05-30T10:45:15Z</time>
      </trkpt>
      <trkpt lat="43.06027" lon="5.93867">
        <ele>-5.63</ele>
        <time>2019-05-30T10:45:31Z</time>
      </trkpt>
      <trkpt lat="43.0603" lon="5.93895">
        <ele>-6.11</ele>
        <time>2019-05-30T10:45:50Z</time>
      </trkpt>
      <trkpt lat="43.06033" lon="5.93921">
        <ele>-6.11</ele>
        <time>2019-05-30T10:46:07Z</time>
      </trkpt>
      <trkpt lat="43.06038" lon="5.93947">
        <ele>-6.11</ele>
        <time>2019-05-30T10:46:25Z</time>
      </trkpt>
      <trkpt lat="43.06043" lon="5.93969">
        <ele>-5.63</ele>
        <time>2019-05-30T10:46:42Z</time>
      </trkpt>
      <trkpt lat="43.0605" lon="5.93988">
        <ele>-5.63</ele>
        <time>2019-05-30T10:46:59Z</time>
      </trkpt>
      <trkpt lat="43.06056" lon="5.94006">
        <ele>-4.67</ele>
        <time>2019-05-30T10:47:14Z</time>
      </trkpt>
      <trkpt lat="43.06062" lon="5.94019">
        <ele>-4.19</ele>
        <time>2019-05-30T10:47:28Z</time>
      </trkpt>
      <trkpt lat="43.06067" lon="5.94037">
        <ele>-4.67</ele>
        <time>2019-05-30T10:47:44Z</time>
      </trkpt>
      <trkpt lat="43.06073" lon="5.94056">
        <ele>-5.15</ele>
        <time>2019-05-30T10:48:01Z</time>
      </trkpt>
      <trkpt lat="43.0608" lon="5.94075">
        <ele>-4.19</ele>
        <time>2019-05-30T10:48:18Z</time>
      </trkpt>
      <trkpt lat="43.06087" lon="5.94099">
        <ele>-5.15</ele>
        <time>2019-05-30T10:48:38Z</time>
      </trkpt>
      <trkpt lat="43.06093" lon="5.94123">
        <ele>-5.63</ele>
        <time>2019-05-30T10:48:57Z</time>
      </trkpt>
      <trkpt lat="43.06098" lon="5.94143">
        <ele>-6.11</ele>
        <time>2019-05-30T10:49:12Z</time>
      </trkpt>
      <trkpt lat="43.06102" lon="5.94163">
        <ele>-5.63</ele>
        <time>2019-05-30T10:49:28Z</time>
      </trkpt>
      <trkpt lat="43.06106" lon="5.94181">
        <ele>-6.11</ele>
        <time>2019-05-30T10:49:41Z</time>
      </trkpt>
      <trkpt lat="43.06107" lon="5.94184">
        <ele>-6.11</ele>
        <time>2019-05-30T10:49:44Z</time>
      </trkpt>
      <trkpt lat="43.06109" lon="5.94192">
        <ele>-6.11</ele>
        <time>2019-05-30T10:49:50Z</time>
      </trkpt>
      <trkpt lat="43.06116" lon="5.94214">
        <ele>-5.15</ele>
        <time>2019-05-30T10:50:08Z</time>
      </trkpt>
      <trkpt lat="43.06123" lon="5.94236">
        <ele>-5.15</ele>
        <time>2019-05-30T10:50:24Z</time>
      </trkpt>
      <trkpt lat="43.06129" lon="5.94256">
        <ele>-5.63</ele>
        <time>2019-05-30T10:50:40Z</time>
      </trkpt>
      <trkpt lat="43.06136" lon="5.94277">
        <ele>-5.63</ele>
        <time>2019-05-30T10:50:57Z</time>
      </trkpt>
      <trkpt lat="43.06144" lon="5.94295">
        <ele>-5.63</ele>
        <time>2019-05-30T10:51:12Z</time>
      </trkpt>
      <trkpt lat="43.06149" lon="5.94312">
        <ele>-5.63</ele>
        <time>2019-05-30T10:51:26Z</time>
      </trkpt>
      <trkpt lat="43.06155" lon="5.94334">
        <ele>-6.59</ele>
        <time>2019-05-30T10:51:44Z</time>
      </trkpt>
      <trkpt lat="43.06161" lon="5.9435">
        <ele>-7.07</ele>
        <time>2019-05-30T10:51:58Z</time>
      </trkpt>
      <trkpt lat="43.06167" lon="5.94372">
        <ele>-5.63</ele>
        <time>2019-05-30T10:52:16Z</time>
      </trkpt>
      <trkpt lat="43.06175" lon="5.94392">
        <ele>-5.15</ele>
        <time>2019-05-30T10:52:32Z</time>
      </trkpt>
      <trkpt lat="43.06182" lon="5.94413">
        <ele>-5.15</ele>
        <time>2019-05-30T10:52:49Z</time>
      </trkpt>
      <trkpt lat="43.06191" lon="5.94432">
        <ele>-5.15</ele>
        <time>2019-05-30T10:53:06Z</time>
      </trkpt>
      <trkpt lat="43.06197" lon="5.94455">
        <ele>-5.15</ele>
        <time>2019-05-30T10:53:22Z</time>
      </trkpt>
      <trkpt lat="43.06201" lon="5.94469">
        <ele>-5.63</ele>
        <time>2019-05-30T10:53:33Z</time>
      </trkpt>
      <trkpt lat="43.06205" lon="5.94491">
        <ele>-5.63</ele>
        <time>2019-05-30T10:53:48Z</time>
      </trkpt>
      <trkpt lat="43.06211" lon="5.9451">
        <ele>-5.63</ele>
        <time>2019-05-30T10:54:02Z</time>
      </trkpt>
      <trkpt lat="43.0622" lon="5.94533">
        <ele>-5.15</ele>
        <time>2019-05-30T10:54:19Z</time>
      </trkpt>
      <trkpt lat="43.0623" lon="5.94553">
        <ele>-4.67</ele>
        <time>2019-05-30T10:54:36Z</time>
      </trkpt>
      <trkpt lat="43.06238" lon="5.9457">
        <ele>-4.67</ele>
        <time>2019-05-30T10:54:52Z</time>
      </trkpt>
      <trkpt lat="43.0625" lon="5.94591">
        <ele>-3.71</ele>
        <time>2019-05-30T10:55:12Z</time>
      </trkpt>
      <trkpt lat="43.06259" lon="5.94606">
        <ele>-3.71</ele>
        <time>2019-05-30T10:55:26Z</time>
      </trkpt>
      <trkpt lat="43.06269" lon="5.94621">
        <ele>-3.71</ele>
        <time>2019-05-30T10:55:41Z</time>
      </trkpt>
      <trkpt lat="43.0628" lon="5.9464">
        <ele>-3.71</ele>
        <time>2019-05-30T10:55:58Z</time>
      </trkpt>
      <trkpt lat="43.06291" lon="5.94657">
        <ele>-3.71</ele>
        <time>2019-05-30T10:56:16Z</time>
      </trkpt>
      <trkpt lat="43.06302" lon="5.94672">
        <ele>-3.71</ele>
        <time>2019-05-30T10:56:33Z</time>
      </trkpt>
      <trkpt lat="43.06316" lon="5.94689">
        <ele>-3.23</ele>
        <time>2019-05-30T10:56:53Z</time>
      </trkpt>
      <trkpt lat="43.06328" lon="5.947">
        <ele>-3.71</ele>
        <time>2019-05-30T10:57:10Z</time>
      </trkpt>
      <trkpt lat="43.06338" lon="5.94715">
        <ele>-4.19</ele>
        <time>2019-05-30T10:57:27Z</time>
      </trkpt>
      <trkpt lat="43.06347" lon="5.94731">
        <ele>-4.19</ele>
        <time>2019-05-30T10:57:45Z</time>
      </trkpt>
      <trkpt lat="43.06357" lon="5.94747">
        <ele>-4.19</ele>
        <time>2019-05-30T10:58:03Z</time>
      </trkpt>
      <trkpt lat="43.06366" lon="5.94765">
        <ele>-4.67</ele>
        <time>2019-05-30T10:58:20Z</time>
      </trkpt>
      <trkpt lat="43.06374" lon="5.94782">
        <ele>-4.67</ele>
        <time>2019-05-30T10:58:37Z</time>
      </trkpt>
      <trkpt lat="43.06382" lon="5.94796">
        <ele>-4.67</ele>
        <time>2019-05-30T10:58:51Z</time>
      </trkpt>
      <trkpt lat="43.06391" lon="5.94813">
        <ele>-4.67</ele>
        <time>2019-05-30T10:59:07Z</time>
      </trkpt>
      <trkpt lat="43.06403" lon="5.94834">
        <ele>-4.67</ele>
        <time>2019-05-30T10:59:26Z</time>
      </trkpt>
      <trkpt lat="43.06413" lon="5.94849">
        <ele>-5.15</ele>
        <time>2019-05-30T10:59:40Z</time>
      </trkpt>
      <trkpt lat="43.06428" lon="5.94866">
        <ele>-4.67</ele>
        <time>2019-05-30T10:59:58Z</time>
      </trkpt>
      <trkpt lat="43.06439" lon="5.94877">
        <ele>-4.19</ele>
        <time>2019-05-30T11:00:10Z</time>
      </trkpt>
      <trkpt lat="43.06441" lon="5.94879">
        <ele>-4.19</ele>
        <time>2019-05-30T11:00:12Z</time>
      </trkpt>
      <trkpt lat="43.06443" lon="5.94881">
        <ele>-3.71</ele>
        <time>2019-05-30T11:00:15Z</time>
      </trkpt>
      <trkpt lat="43.06449" lon="5.94885">
        <ele>-3.23</ele>
        <time>2019-05-30T11:00:21Z</time>
      </trkpt>
      <trkpt lat="43.06461" lon="5.94894">
        <ele>-3.71</ele>
        <time>2019-05-30T11:00:33Z</time>
      </trkpt>
      <trkpt lat="43.06473" lon="5.94907">
        <ele>-4.19</ele>
        <time>2019-05-30T11:00:47Z</time>
      </trkpt>
      <trkpt lat="43.06485" lon="5.94921">
        <ele>-4.67</ele>
        <time>2019-05-30T11:01:00Z</time>
      </trkpt>
      <trkpt lat="43.06499" lon="5.94938">
        <ele>-5.15</ele>
        <time>2019-05-30T11:01:16Z</time>
      </trkpt>
      <trkpt lat="43.06516" lon="5.94957">
        <ele>-5.63</ele>
        <time>2019-05-30T11:01:34Z</time>
      </trkpt>
      <trkpt lat="43.0653" lon="5.94972">
        <ele>-5.15</ele>
        <time>2019-05-30T11:01:49Z</time>
      </trkpt>
      <trkpt lat="43.06546" lon="5.94992">
        <ele>-4.67</ele>
        <time>2019-05-30T11:02:07Z</time>
      </trkpt>
      <trkpt lat="43.06557" lon="5.9501">
        <ele>-5.63</ele>
        <time>2019-05-30T11:02:22Z</time>
      </trkpt>
      <trkpt lat="43.06571" lon="5.95026">
        <ele>-5.63</ele>
        <time>2019-05-30T11:02:38Z</time>
      </trkpt>
      <trkpt lat="43.06587" lon="5.95039">
        <ele>-5.15</ele>
        <time>2019-05-30T11:02:55Z</time>
      </trkpt>
      <trkpt lat="43.06604" lon="5.95052">
        <ele>-5.15</ele>
        <time>2019-05-30T11:03:12Z</time>
      </trkpt>
      <trkpt lat="43.0662" lon="5.95067">
        <ele>-4.67</ele>
        <time>2019-05-30T11:03:29Z</time>
      </trkpt>
      <trkpt lat="43.06634" lon="5.9508">
        <ele>-4.67</ele>
        <time>2019-05-30T11:03:44Z</time>
      </trkpt>
      <trkpt lat="43.06649" lon="5.95097">
        <ele>-4.67</ele>
        <time>2019-05-30T11:04:01Z</time>
      </trkpt>
      <trkpt lat="43.06661" lon="5.95117">
        <ele>-4.19</ele>
        <time>2019-05-30T11:04:18Z</time>
      </trkpt>
      <trkpt lat="43.06676" lon="5.95135">
        <ele>-4.67</ele>
        <time>2019-05-30T11:04:36Z</time>
      </trkpt>
      <trkpt lat="43.06689" lon="5.95152">
        <ele>-5.15</ele>
        <time>2019-05-30T11:04:52Z</time>
      </trkpt>
      <trkpt lat="43.06701" lon="5.95169">
        <ele>-5.15</ele>
        <time>2019-05-30T11:05:07Z</time>
      </trkpt>
      <trkpt lat="43.06715" lon="5.95186">
        <ele>-5.15</ele>
        <time>2019-05-30T11:05:23Z</time>
      </trkpt>
      <trkpt lat="43.06736" lon="5.95205">
        <ele>-4.67</ele>
        <time>2019-05-30T11:05:43Z</time>
      </trkpt>
      <trkpt lat="43.06751" lon="5.9522">
        <ele>-4.67</ele>
        <time>2019-05-30T11:05:58Z</time>
      </trkpt>
      <trkpt lat="43.06767" lon="5.95235">
        <ele>-4.19</ele>
        <time>2019-05-30T11:06:13Z</time>
      </trkpt>
      <trkpt lat="43.06783" lon="5.95249">
        <ele>-4.67</ele>
        <time>2019-05-30T11:06:28Z</time>
      </trkpt>
      <trkpt lat="43.06799" lon="5.95264">
        <ele>-4.19</ele>
        <time>2019-05-30T11:06:44Z</time>
      </trkpt>
      <trkpt lat="43.06821" lon="5.95286">
        <ele>-4.19</ele>
        <time>2019-05-30T11:07:06Z</time>
      </trkpt>
      <trkpt lat="43.06838" lon="5.95302">
        <ele>-3.71</ele>
        <time>2019-05-30T11:07:23Z</time>
      </trkpt>
      <trkpt lat="43.06859" lon="5.95323">
        <ele>-3.23</ele>
        <time>2019-05-30T11:07:43Z</time>
      </trkpt>
      <trkpt lat="43.06881" lon="5.95342">
        <ele>-3.71</ele>
        <time>2019-05-30T11:08:03Z</time>
      </trkpt>
      <trkpt lat="43.06897" lon="5.95359">
        <ele>-4.67</ele>
        <time>2019-05-30T11:08:19Z</time>
      </trkpt>
      <trkpt lat="43.06915" lon="5.95376">
        <ele>-4.67</ele>
        <time>2019-05-30T11:08:36Z</time>
      </trkpt>
      <trkpt lat="43.06934" lon="5.95395">
        <ele>-4.67</ele>
        <time>2019-05-30T11:08:55Z</time>
      </trkpt>
      <trkpt lat="43.06952" lon="5.95414">
        <ele>-5.15</ele>
        <time>2019-05-30T11:09:13Z</time>
      </trkpt>
      <trkpt lat="43.0697" lon="5.95431">
        <ele>-5.15</ele>
        <time>2019-05-30T11:09:31Z</time>
      </trkpt>
      <trkpt lat="43.06988" lon="5.95449">
        <ele>-4.67</ele>
        <time>2019-05-30T11:09:50Z</time>
      </trkpt>
      <trkpt lat="43.07001" lon="5.95463">
        <ele>-5.15</ele>
        <time>2019-05-30T11:10:04Z</time>
      </trkpt>
      <trkpt lat="43.07017" lon="5.95479">
        <ele>-6.11</ele>
        <time>2019-05-30T11:10:20Z</time>
      </trkpt>
      <trkpt lat="43.07027" lon="5.95492">
        <ele>-5.63</ele>
        <time>2019-05-30T11:10:32Z</time>
      </trkpt>
      <trkpt lat="43.07043" lon="5.95509">
        <ele>-5.63</ele>
        <time>2019-05-30T11:10:50Z</time>
      </trkpt>
      <trkpt lat="43.07059" lon="5.95525">
        <ele>-5.15</ele>
        <time>2019-05-30T11:11:07Z</time>
      </trkpt>
      <trkpt lat="43.07072" lon="5.95541">
        <ele>-5.63</ele>
        <time>2019-05-30T11:11:23Z</time>
      </trkpt>
      <trkpt lat="43.07089" lon="5.95559">
        <ele>-5.63</ele>
        <time>2019-05-30T11:11:41Z</time>
      </trkpt>
      <trkpt lat="43.07105" lon="5.95576">
        <ele>-6.11</ele>
        <time>2019-05-30T11:11:58Z</time>
      </trkpt>
      <trkpt lat="43.07121" lon="5.95597">
        <ele>-6.11</ele>
        <time>2019-05-30T11:12:16Z</time>
      </trkpt>
      <trkpt lat="43.07128" lon="5.95605">
        <ele>-5.63</ele>
        <time>2019-05-30T11:12:24Z</time>
      </trkpt>
      <trkpt lat="43.0714" lon="5.95621">
        <ele>-4.67</ele>
        <time>2019-05-30T11:12:39Z</time>
      </trkpt>
      <trkpt lat="43.07151" lon="5.95635">
        <ele>-4.67</ele>
        <time>2019-05-30T11:12:52Z</time>
      </trkpt>
      <trkpt lat="43.07166" lon="5.95653">
        <ele>-5.15</ele>
        <time>2019-05-30T11:13:09Z</time>
      </trkpt>
      <trkpt lat="43.07182" lon="5.95669">
        <ele>-5.15</ele>
        <time>2019-05-30T11:13:25Z</time>
      </trkpt>
      <trkpt lat="43.07196" lon="5.95684">
        <ele>-5.15</ele>
        <time>2019-05-30T11:13:40Z</time>
      </trkpt>
      <trkpt lat="43.07211" lon="5.957">
        <ele>-4.67</ele>
        <time>2019-05-30T11:13:55Z</time>
      </trkpt>
      <trkpt lat="43.07231" lon="5.95721">
        <ele>-5.15</ele>
        <time>2019-05-30T11:14:14Z</time>
      </trkpt>
      <trkpt lat="43.0725" lon="5.95742">
        <ele>-5.63</ele>
        <time>2019-05-30T11:14:32Z</time>
      </trkpt>
      <trkpt lat="43.07254" lon="5.95747">
        <ele>-5.63</ele>
        <time>2019-05-30T11:14:36Z</time>
      </trkpt>
      <trkpt lat="43.07261" lon="5.95755">
        <ele>-5.63</ele>
        <time>2019-05-30T11:14:43Z</time>
      </trkpt>
      <trkpt lat="43.07265" lon="5.95762">
        <ele>-5.15</ele>
        <time>2019-05-30T11:14:48Z</time>
      </trkpt>
      <trkpt lat="43.07284" lon="5.95782">
        <ele>-5.15</ele>
        <time>2019-05-30T11:15:06Z</time>
      </trkpt>
      <trkpt lat="43.07307" lon="5.95804">
        <ele>-4.67</ele>
        <time>2019-05-30T11:15:25Z</time>
      </trkpt>
      <trkpt lat="43.07336" lon="5.95826">
        <ele>-4.67</ele>
        <time>2019-05-30T11:15:46Z</time>
      </trkpt>
      <trkpt lat="43.07364" lon="5.95844">
        <ele>-5.63</ele>
        <time>2019-05-30T11:16:04Z</time>
      </trkpt>
      <trkpt lat="43.07391" lon="5.95861">
        <ele>-5.63</ele>
        <time>2019-05-30T11:16:22Z</time>
      </trkpt>
      <trkpt lat="43.07418" lon="5.9588">
        <ele>-6.11</ele>
        <time>2019-05-30T11:16:39Z</time>
      </trkpt>
      <trkpt lat="43.07447" lon="5.95899">
        <ele>-5.63</ele>
        <time>2019-05-30T11:16:58Z</time>
      </trkpt>
      <trkpt lat="43.0748" lon="5.95918">
        <ele>-5.63</ele>
        <time>2019-05-30T11:17:18Z</time>
      </trkpt>
      <trkpt lat="43.07506" lon="5.95935">
        <ele>-5.63</ele>
        <time>2019-05-30T11:17:34Z</time>
      </trkpt>
      <trkpt lat="43.07536" lon="5.95953">
        <ele>-5.63</ele>
        <time>2019-05-30T11:17:52Z</time>
      </trkpt>
      <trkpt lat="43.07563" lon="5.95964">
        <ele>-6.11</ele>
        <time>2019-05-30T11:18:09Z</time>
      </trkpt>
      <trkpt lat="43.07596" lon="5.95963">
        <ele>-4.67</ele>
        <time>2019-05-30T11:18:29Z</time>
      </trkpt>
      <trkpt lat="43.07633" lon="5.95946">
        <ele>-4.67</ele>
        <time>2019-05-30T11:18:50Z</time>
      </trkpt>
      <trkpt lat="43.0767" lon="5.95926">
        <ele>-4.67</ele>
        <time>2019-05-30T11:19:10Z</time>
      </trkpt>
      <trkpt lat="43.07711" lon="5.95906">
        <ele>-5.15</ele>
        <time>2019-05-30T11:19:30Z</time>
      </trkpt>
      <trkpt lat="43.07753" lon="5.9588">
        <ele>-4.67</ele>
        <time>2019-05-30T11:19:52Z</time>
      </trkpt>
      <trkpt lat="43.07793" lon="5.95856">
        <ele>-4.67</ele>
        <time>2019-05-30T11:20:13Z</time>
      </trkpt>
      <trkpt lat="43.07831" lon="5.95837">
        <ele>-5.15</ele>
        <time>2019-05-30T11:20:32Z</time>
      </trkpt>
      <trkpt lat="43.07873" lon="5.95812">
        <ele>-4.67</ele>
        <time>2019-05-30T11:20:53Z</time>
      </trkpt>
      <trkpt lat="43.07916" lon="5.95786">
        <ele>-4.67</ele>
        <time>2019-05-30T11:21:15Z</time>
      </trkpt>
      <trkpt lat="43.07947" lon="5.95764">
        <ele>-4.19</ele>
        <time>2019-05-30T11:21:31Z</time>
      </trkpt>
      <trkpt lat="43.07986" lon="5.95739">
        <ele>-3.71</ele>
        <time>2019-05-30T11:21:51Z</time>
      </trkpt>
      <trkpt lat="43.08019" lon="5.95718">
        <ele>-4.19</ele>
        <time>2019-05-30T11:22:09Z</time>
      </trkpt>
      <trkpt lat="43.08058" lon="5.95694">
        <ele>-3.23</ele>
        <time>2019-05-30T11:22:30Z</time>
      </trkpt>
      <trkpt lat="43.08101" lon="5.95669">
        <ele>-3.71</ele>
        <time>2019-05-30T11:22:53Z</time>
      </trkpt>
      <trkpt lat="43.08139" lon="5.95649">
        <ele>-3.71</ele>
        <time>2019-05-30T11:23:14Z</time>
      </trkpt>
      <trkpt lat="43.08177" lon="5.9563">
        <ele>-3.71</ele>
        <time>2019-05-30T11:23:35Z</time>
      </trkpt>
      <trkpt lat="43.08214" lon="5.9561">
        <ele>-4.67</ele>
        <time>2019-05-30T11:23:56Z</time>
      </trkpt>
      <trkpt lat="43.08252" lon="5.9559">
        <ele>-4.67</ele>
        <time>2019-05-30T11:24:19Z</time>
      </trkpt>
      <trkpt lat="43.08285" lon="5.95569">
        <ele>-5.15</ele>
        <time>2019-05-30T11:24:38Z</time>
      </trkpt>
      <trkpt lat="43.08324" lon="5.95547">
        <ele>-5.15</ele>
        <time>2019-05-30T11:25:01Z</time>
      </trkpt>
      <trkpt lat="43.08361" lon="5.95527">
        <ele>-4.67</ele>
        <time>2019-05-30T11:25:23Z</time>
      </trkpt>
      <trkpt lat="43.08407" lon="5.95503">
        <ele>-5.15</ele>
        <time>2019-05-30T11:25:49Z</time>
      </trkpt>
      <trkpt lat="43.08448" lon="5.95481">
        <ele>-5.63</ele>
        <time>2019-05-30T11:26:12Z</time>
      </trkpt>
      <trkpt lat="43.08489" lon="5.95459">
        <ele>-5.15</ele>
        <time>2019-05-30T11:26:36Z</time>
      </trkpt>
      <trkpt lat="43.08527" lon="5.95439">
        <ele>-5.15</ele>
        <time>2019-05-30T11:26:59Z</time>
      </trkpt>
      <trkpt lat="43.08571" lon="5.95417">
        <ele>-5.15</ele>
        <time>2019-05-30T11:27:25Z</time>
      </trkpt>
      <trkpt lat="43.08608" lon="5.95396">
        <ele>-4.67</ele>
        <time>2019-05-30T11:27:46Z</time>
      </trkpt>
      <trkpt lat="43.08647" lon="5.95376">
        <ele>-5.63</ele>
        <time>2019-05-30T11:28:08Z</time>
      </trkpt>
      <trkpt lat="43.08688" lon="5.95354">
        <ele>-6.11</ele>
        <time>2019-05-30T11:28:30Z</time>
      </trkpt>
      <trkpt lat="43.08732" lon="5.95332">
        <ele>-6.11</ele>
        <time>2019-05-30T11:28:55Z</time>
      </trkpt>
      <trkpt lat="43.0877" lon="5.95314">
        <ele>-5.63</ele>
        <time>2019-05-30T11:29:19Z</time>
      </trkpt>
      <trkpt lat="43.08802" lon="5.95297">
        <ele>-6.11</ele>
        <time>2019-05-30T11:29:42Z</time>
      </trkpt>
      <trkpt lat="43.08834" lon="5.95283">
        <ele>-5.15</ele>
        <time>2019-05-30T11:30:05Z</time>
      </trkpt>
      <trkpt lat="43.08867" lon="5.95271">
        <ele>-3.71</ele>
        <time>2019-05-30T11:30:29Z</time>
      </trkpt>
      <trkpt lat="43.08896" lon="5.95265">
        <ele>-4.19</ele>
        <time>2019-05-30T11:30:51Z</time>
      </trkpt>
      <trkpt lat="43.08925" lon="5.95257">
        <ele>-5.15</ele>
        <time>2019-05-30T11:31:15Z</time>
      </trkpt>
      <trkpt lat="43.08952" lon="5.95247">
        <ele>-3.71</ele>
        <time>2019-05-30T11:31:36Z</time>
      </trkpt>
      <trkpt lat="43.08976" lon="5.95243">
        <ele>-3.71</ele>
        <time>2019-05-30T11:31:55Z</time>
      </trkpt>
      <trkpt lat="43.09004" lon="5.95242">
        <ele>-4.67</ele>
        <time>2019-05-30T11:32:16Z</time>
      </trkpt>
      <trkpt lat="43.09027" lon="5.95245">
        <ele>-5.15</ele>
        <time>2019-05-30T11:32:33Z</time>
      </trkpt>
      <trkpt lat="43.09053" lon="5.95247">
        <ele>-5.15</ele>
        <time>2019-05-30T11:32:52Z</time>
      </trkpt>
      <trkpt lat="43.09083" lon="5.95251">
        <ele>-5.15</ele>
        <time>2019-05-30T11:33:13Z</time>
      </trkpt>
      <trkpt lat="43.09111" lon="5.95249">
        <ele>-4.67</ele>
        <time>2019-05-30T11:33:34Z</time>
      </trkpt>
      <trkpt lat="43.09138" lon="5.95243">
        <ele>-4.19</ele>
        <time>2019-05-30T11:33:52Z</time>
      </trkpt>
      <trkpt lat="43.09173" lon="5.95235">
        <ele>-4.19</ele>
        <time>2019-05-30T11:34:14Z</time>
      </trkpt>
      <trkpt lat="43.092" lon="5.9523">
        <ele>-4.67</ele>
        <time>2019-05-30T11:34:32Z</time>
      </trkpt>
      <trkpt lat="43.09231" lon="5.95226">
        <ele>-4.19</ele>
        <time>2019-05-30T11:34:53Z</time>
      </trkpt>
      <trkpt lat="43.09266" lon="5.95222">
        <ele>-4.19</ele>
        <time>2019-05-30T11:35:15Z</time>
      </trkpt>
      <trkpt lat="43.09299" lon="5.95218">
        <ele>-4.19</ele>
        <time>2019-05-30T11:35:36Z</time>
      </trkpt>
      <trkpt lat="43.09331" lon="5.95212">
        <ele>-3.71</ele>
        <time>2019-05-30T11:35:56Z</time>
      </trkpt>
      <trkpt lat="43.09361" lon="5.95209">
        <ele>-3.71</ele>
        <time>2019-05-30T11:36:16Z</time>
      </trkpt>
      <trkpt lat="43.09386" lon="5.95206">
        <ele>-3.23</ele>
        <time>2019-05-30T11:36:33Z</time>
      </trkpt>
      <trkpt lat="43.09416" lon="5.95202">
        <ele>-2.75</ele>
        <time>2019-05-30T11:36:55Z</time>
      </trkpt>
      <trkpt lat="43.09448" lon="5.95201">
        <ele>-4.19</ele>
        <time>2019-05-30T11:37:18Z</time>
      </trkpt>
      <trkpt lat="43.09473" lon="5.95198">
        <ele>-5.63</ele>
        <time>2019-05-30T11:37:36Z</time>
      </trkpt>
      <trkpt lat="43.09506" lon="5.95173">
        <ele>-5.63</ele>
        <time>2019-05-30T11:38:01Z</time>
      </trkpt>
      <trkpt lat="43.09538" lon="5.9515">
        <ele>-5.63</ele>
        <time>2019-05-30T11:38:23Z</time>
      </trkpt>
      <trkpt lat="43.09571" lon="5.95124">
        <ele>-6.11</ele>
        <time>2019-05-30T11:38:47Z</time>
      </trkpt>
      <trkpt lat="43.09601" lon="5.95095">
        <ele>-6.11</ele>
        <time>2019-05-30T11:39:11Z</time>
      </trkpt>
      <trkpt lat="43.09628" lon="5.95069">
        <ele>-6.59</ele>
        <time>2019-05-30T11:39:34Z</time>
      </trkpt>
      <trkpt lat="43.09657" lon="5.95042">
        <ele>-6.59</ele>
        <time>2019-05-30T11:40:00Z</time>
      </trkpt>
      <trkpt lat="43.09684" lon="5.95018">
        <ele>-6.59</ele>
        <time>2019-05-30T11:40:25Z</time>
      </trkpt>
      <trkpt lat="43.09711" lon="5.94995">
        <ele>-7.07</ele>
        <time>2019-05-30T11:40:50Z</time>
      </trkpt>
      <trkpt lat="43.09736" lon="5.94974">
        <ele>-6.59</ele>
        <time>2019-05-30T11:41:13Z</time>
      </trkpt>
      <trkpt lat="43.09768" lon="5.94948">
        <ele>-7.07</ele>
        <time>2019-05-30T11:41:37Z</time>
      </trkpt>
      <trkpt lat="43.09809" lon="5.94913">
        <ele>-6.59</ele>
        <time>2019-05-30T11:42:02Z</time>
      </trkpt>
      <trkpt lat="43.09841" lon="5.94883">
        <ele>-6.59</ele>
        <time>2019-05-30T11:42:21Z</time>
      </trkpt>
      <trkpt lat="43.09872" lon="5.94853">
        <ele>-6.11</ele>
        <time>2019-05-30T11:42:40Z</time>
      </trkpt>
      <trkpt lat="43.09911" lon="5.94816">
        <ele>-5.63</ele>
        <time>2019-05-30T11:43:02Z</time>
      </trkpt>
      <trkpt lat="43.09949" lon="5.94779">
        <ele>-5.15</ele>
        <time>2019-05-30T11:43:23Z</time>
      </trkpt>
      <trkpt lat="43.09991" lon="5.94742">
        <ele>-5.63</ele>
        <time>2019-05-30T11:43:46Z</time>
      </trkpt>
      <trkpt lat="43.10036" lon="5.94707">
        <ele>-5.63</ele>
        <time>2019-05-30T11:44:10Z</time>
      </trkpt>
      <trkpt lat="43.10071" lon="5.94679">
        <ele>-5.63</ele>
        <time>2019-05-30T11:44:30Z</time>
      </trkpt>
      <trkpt lat="43.10109" lon="5.94648">
        <ele>-5.15</ele>
        <time>2019-05-30T11:44:51Z</time>
      </trkpt>
      <trkpt lat="43.10153" lon="5.94612">
        <ele>-5.63</ele>
        <time>2019-05-30T11:45:15Z</time>
      </trkpt>
      <trkpt lat="43.10191" lon="5.94578">
        <ele>-5.63</ele>
        <time>2019-05-30T11:45:36Z</time>
      </trkpt>
      <trkpt lat="43.10237" lon="5.94531">
        <ele>-5.63</ele>
        <time>2019-05-30T11:46:03Z</time>
      </trkpt>
      <trkpt lat="43.10287" lon="5.94473">
        <ele>-5.15</ele>
        <time>2019-05-30T11:46:32Z</time>
      </trkpt>
      <trkpt lat="43.10328" lon="5.94419">
        <ele>-4.67</ele>
        <time>2019-05-30T11:46:56Z</time>
      </trkpt>
      <trkpt lat="43.10337" lon="5.94367">
        <ele>-4.19</ele>
        <time>2019-05-30T11:47:13Z</time>
      </trkpt>
      <trkpt lat="43.10331" lon="5.94304">
        <ele>-4.67</ele>
        <time>2019-05-30T11:47:33Z</time>
      </trkpt>
      <trkpt lat="43.10312" lon="5.94253">
        <ele>-4.67</ele>
        <time>2019-05-30T11:47:53Z</time>
      </trkpt>
      <trkpt lat="43.10297" lon="5.94216">
        <ele>-5.15</ele>
        <time>2019-05-30T11:48:11Z</time>
      </trkpt>
      <trkpt lat="43.10304" lon="5.94156">
        <ele>-3.71</ele>
        <time>2019-05-30T11:48:31Z</time>
      </trkpt>
      <trkpt lat="43.10295" lon="5.94093">
        <ele>-5.63</ele>
        <time>2019-05-30T11:48:50Z</time>
      </trkpt>
      <trkpt lat="43.10277" lon="5.94035">
        <ele>-4.67</ele>
        <time>2019-05-30T11:49:09Z</time>
      </trkpt>
      <trkpt lat="43.10262" lon="5.93958">
        <ele>-5.15</ele>
        <time>2019-05-30T11:49:32Z</time>
      </trkpt>
      <trkpt lat="43.10245" lon="5.9387">
        <ele>-5.15</ele>
        <time>2019-05-30T11:49:56Z</time>
      </trkpt>
      <trkpt lat="43.10228" lon="5.93803">
        <ele>-4.67</ele>
        <time>2019-05-30T11:50:14Z</time>
      </trkpt>
      <trkpt lat="43.10207" lon="5.93739">
        <ele>-5.15</ele>
        <time>2019-05-30T11:50:32Z</time>
      </trkpt>
      <trkpt lat="43.10177" lon="5.93655">
        <ele>-6.11</ele>
        <time>2019-05-30T11:50:56Z</time>
      </trkpt>
      <trkpt lat="43.10149" lon="5.93575">
        <ele>-6.59</ele>
        <time>2019-05-30T11:51:18Z</time>
      </trkpt>
      <trkpt lat="43.10113" lon="5.93485">
        <ele>-5.63</ele>
        <time>2019-05-30T11:51:44Z</time>
      </trkpt>
      <trkpt lat="43.10086" lon="5.93407">
        <ele>-6.11</ele>
        <time>2019-05-30T11:52:07Z</time>
      </trkpt>
      <trkpt lat="43.10052" lon="5.93314">
        <ele>-5.63</ele>
        <time>2019-05-30T11:52:32Z</time>
      </trkpt>
      <trkpt lat="43.1002" lon="5.93212">
        <ele>-5.63</ele>
        <time>2019-05-30T11:52:58Z</time>
      </trkpt>
      <trkpt lat="43.09992" lon="5.93134">
        <ele>-5.15</ele>
        <time>2019-05-30T11:53:18Z</time>
      </trkpt>
      <trkpt lat="43.09961" lon="5.93042">
        <ele>-5.63</ele>
        <time>2019-05-30T11:53:42Z</time>
      </trkpt>
      <trkpt lat="43.09938" lon="5.93033">
        <ele>-5.63</ele>
        <time>2019-05-30T11:53:53Z</time>
      </trkpt>
      <trkpt lat="43.09908" lon="5.93066">
        <ele>-4.67</ele>
        <time>2019-05-30T11:54:14Z</time>
      </trkpt>
      <trkpt lat="43.09878" lon="5.93102">
        <ele>-3.71</ele>
        <time>2019-05-30T11:54:35Z</time>
      </trkpt>
      <trkpt lat="43.09847" lon="5.93148">
        <ele>-3.23</ele>
        <time>2019-05-30T11:54:54Z</time>
      </trkpt>
      <trkpt lat="43.09813" lon="5.93189">
        <ele>-3.71</ele>
        <time>2019-05-30T11:55:12Z</time>
      </trkpt>
      <trkpt lat="43.09784" lon="5.93215">
        <ele>-3.71</ele>
        <time>2019-05-30T11:55:29Z</time>
      </trkpt>
      <trkpt lat="43.09756" lon="5.93253">
        <ele>-3.71</ele>
        <time>2019-05-30T11:55:46Z</time>
      </trkpt>
      <trkpt lat="43.09735" lon="5.9328">
        <ele>-3.23</ele>
        <time>2019-05-30T11:55:59Z</time>
      </trkpt>
      <trkpt lat="43.09709" lon="5.9332">
        <ele>-2.75</ele>
        <time>2019-05-30T11:56:15Z</time>
      </trkpt>
      <trkpt lat="43.09669" lon="5.93373">
        <ele>-2.75</ele>
        <time>2019-05-30T11:56:37Z</time>
      </trkpt>
      <trkpt lat="43.09638" lon="5.93414">
        <ele>-2.75</ele>
        <time>2019-05-30T11:56:54Z</time>
      </trkpt>
      <trkpt lat="43.0961" lon="5.93453">
        <ele>-2.75</ele>
        <time>2019-05-30T11:57:09Z</time>
      </trkpt>
      <trkpt lat="43.09587" lon="5.93508">
        <ele>-4.19</ele>
        <time>2019-05-30T11:57:25Z</time>
      </trkpt>
      <trkpt lat="43.09557" lon="5.9358">
        <ele>-4.19</ele>
        <time>2019-05-30T11:57:45Z</time>
      </trkpt>
      <trkpt lat="43.0953" lon="5.93634">
        <ele>-4.19</ele>
        <time>2019-05-30T11:58:01Z</time>
      </trkpt>
      <trkpt lat="43.095" lon="5.93692">
        <ele>-4.19</ele>
        <time>2019-05-30T11:58:18Z</time>
      </trkpt>
      <trkpt lat="43.09465" lon="5.93762">
        <ele>-4.67</ele>
        <time>2019-05-30T11:58:38Z</time>
      </trkpt>
      <trkpt lat="43.0943" lon="5.93796">
        <ele>-4.67</ele>
        <time>2019-05-30T11:58:54Z</time>
      </trkpt>
      <trkpt lat="43.09415" lon="5.93768">
        <ele>-4.19</ele>
        <time>2019-05-30T11:59:07Z</time>
      </trkpt>
      <trkpt lat="43.09401" lon="5.93725">
        <ele>-4.67</ele>
        <time>2019-05-30T11:59:25Z</time>
      </trkpt>
      <trkpt lat="43.09384" lon="5.93677">
        <ele>-3.71</ele>
        <time>2019-05-30T11:59:43Z</time>
      </trkpt>
      <trkpt lat="43.09361" lon="5.93624">
        <ele>-3.23</ele>
        <time>2019-05-30T12:00:04Z</time>
      </trkpt>
      <trkpt lat="43.09341" lon="5.93565">
        <ele>-2.75</ele>
        <time>2019-05-30T12:00:24Z</time>
      </trkpt>
      <trkpt lat="43.09319" lon="5.93497">
        <ele>-2.75</ele>
        <time>2019-05-30T12:00:45Z</time>
      </trkpt>
      <trkpt lat="43.09312" lon="5.93432">
        <ele>-3.23</ele>
        <time>2019-05-30T12:01:02Z</time>
      </trkpt>
      <trkpt lat="43.09301" lon="5.93336">
        <ele>-4.67</ele>
        <time>2019-05-30T12:01:26Z</time>
      </trkpt>
      <trkpt lat="43.09276" lon="5.93255">
        <ele>-3.71</ele>
        <time>2019-05-30T12:01:47Z</time>
      </trkpt>
      <trkpt lat="43.09259" lon="5.93185">
        <ele>-3.71</ele>
        <time>2019-05-30T12:02:05Z</time>
      </trkpt>
      <trkpt lat="43.09247" lon="5.93121">
        <ele>-2.27</ele>
        <time>2019-05-30T12:02:22Z</time>
      </trkpt>
      <trkpt lat="43.09228" lon="5.93035">
        <ele>-2.75</ele>
        <time>2019-05-30T12:02:46Z</time>
      </trkpt>
      <trkpt lat="43.09211" lon="5.92966">
        <ele>-3.71</ele>
        <time>2019-05-30T12:03:06Z</time>
      </trkpt>
      <trkpt lat="43.09183" lon="5.92912">
        <ele>-4.19</ele>
        <time>2019-05-30T12:03:27Z</time>
      </trkpt>
      <trkpt lat="43.09177" lon="5.92943">
        <ele>-4.19</ele>
        <time>2019-05-30T12:03:39Z</time>
      </trkpt>
      <trkpt lat="43.09162" lon="5.92998">
        <ele>-4.19</ele>
        <time>2019-05-30T12:03:58Z</time>
      </trkpt>
      <trkpt lat="43.09155" lon="5.93049">
        <ele>-4.67</ele>
        <time>2019-05-30T12:04:14Z</time>
      </trkpt>
      <trkpt lat="43.09168" lon="5.93112">
        <ele>-3.23</ele>
        <time>2019-05-30T12:04:35Z</time>
      </trkpt>
      <trkpt lat="43.09177" lon="5.9316">
        <ele>-3.71</ele>
        <time>2019-05-30T12:04:55Z</time>
      </trkpt>
      <trkpt lat="43.09169" lon="5.93199">
        <ele>-3.23</ele>
        <time>2019-05-30T12:05:11Z</time>
      </trkpt>
      <trkpt lat="43.09138" lon="5.93229">
        <ele>-4.19</ele>
        <time>2019-05-30T12:05:29Z</time>
      </trkpt>
      <trkpt lat="43.09108" lon="5.93203">
        <ele>-3.71</ele>
        <time>2019-05-30T12:05:48Z</time>
      </trkpt>
      <trkpt lat="43.09091" lon="5.93175">
        <ele>-4.19</ele>
        <time>2019-05-30T12:06:05Z</time>
      </trkpt>
      <trkpt lat="43.09079" lon="5.93133">
        <ele>-4.19</ele>
        <time>2019-05-30T12:06:27Z</time>
      </trkpt>
      <trkpt lat="43.09058" lon="5.93112">
        <ele>-4.67</ele>
        <time>2019-05-30T12:06:48Z</time>
      </trkpt>
      <trkpt lat="43.09036" lon="5.93111">
        <ele>-4.67</ele>
        <time>2019-05-30T12:07:08Z</time>
      </trkpt>
      <trkpt lat="43.09013" lon="5.93111">
        <ele>-3.71</ele>
        <time>2019-05-30T12:07:31Z</time>
      </trkpt>
      <trkpt lat="43.0899" lon="5.93112">
        <ele>-3.71</ele>
        <time>2019-05-30T12:07:58Z</time>
      </trkpt>
      <trkpt lat="43.08969" lon="5.93112">
        <ele>-4.67</ele>
        <time>2019-05-30T12:08:20Z</time>
      </trkpt>
      <trkpt lat="43.08948" lon="5.93099">
        <ele>-3.71</ele>
        <time>2019-05-30T12:08:40Z</time>
      </trkpt>
      <trkpt lat="43.08924" lon="5.93061">
        <ele>-2.75</ele>
        <time>2019-05-30T12:09:05Z</time>
      </trkpt>
      <trkpt lat="43.08899" lon="5.9302">
        <ele>-3.23</ele>
        <time>2019-05-30T12:09:28Z</time>
      </trkpt>
      <trkpt lat="43.08863" lon="5.92979">
        <ele>-2.75</ele>
        <time>2019-05-30T12:09:56Z</time>
      </trkpt>
      <trkpt lat="43.08829" lon="5.92941">
        <ele>-2.75</ele>
        <time>2019-05-30T12:10:22Z</time>
      </trkpt>
      <trkpt lat="43.08803" lon="5.92913">
        <ele>-2.27</ele>
        <time>2019-05-30T12:10:42Z</time>
      </trkpt>
      <trkpt lat="43.08775" lon="5.92882">
        <ele>-2.27</ele>
        <time>2019-05-30T12:11:04Z</time>
      </trkpt>
      <trkpt lat="43.08746" lon="5.92853">
        <ele>-2.27</ele>
        <time>2019-05-30T12:11:26Z</time>
      </trkpt>
      <trkpt lat="43.08713" lon="5.92826">
        <ele>-2.27</ele>
        <time>2019-05-30T12:11:49Z</time>
      </trkpt>
      <trkpt lat="43.08692" lon="5.92788">
        <ele>-2.75</ele>
        <time>2019-05-30T12:12:10Z</time>
      </trkpt>
      <trkpt lat="43.08657" lon="5.92744">
        <ele>-2.27</ele>
        <time>2019-05-30T12:12:38Z</time>
      </trkpt>
      <trkpt lat="43.08618" lon="5.92708">
        <ele>-1.79</ele>
        <time>2019-05-30T12:13:05Z</time>
      </trkpt>
      <trkpt lat="43.08584" lon="5.92682">
        <ele>-2.75</ele>
        <time>2019-05-30T12:13:29Z</time>
      </trkpt>
      <trkpt lat="43.08554" lon="5.9266">
        <ele>-1.79</ele>
        <time>2019-05-30T12:13:50Z</time>
      </trkpt>
      <trkpt lat="43.08524" lon="5.92633">
        <ele>-1.79</ele>
        <time>2019-05-30T12:14:12Z</time>
      </trkpt>
      <trkpt lat="43.08489" lon="5.92592">
        <ele>-2.27</ele>
        <time>2019-05-30T12:14:39Z</time>
      </trkpt>
      <trkpt lat="43.08458" lon="5.92583">
        <ele>-3.23</ele>
        <time>2019-05-30T12:14:58Z</time>
      </trkpt>
      <trkpt lat="43.08423" lon="5.92566">
        <ele>-4.67</ele>
        <time>2019-05-30T12:15:21Z</time>
      </trkpt>
      <trkpt lat="43.08394" lon="5.92546">
        <ele>-5.15</ele>
        <time>2019-05-30T12:15:41Z</time>
      </trkpt>
      <trkpt lat="43.08363" lon="5.92515">
        <ele>-5.15</ele>
        <time>2019-05-30T12:16:05Z</time>
      </trkpt>
      <trkpt lat="43.08334" lon="5.92488">
        <ele>-5.15</ele>
        <time>2019-05-30T12:16:28Z</time>
      </trkpt>
      <trkpt lat="43.08297" lon="5.9248">
        <ele>-5.63</ele>
        <time>2019-05-30T12:16:52Z</time>
      </trkpt>
      <trkpt lat="43.08257" lon="5.9248">
        <ele>-5.63</ele>
        <time>2019-05-30T12:17:17Z</time>
      </trkpt>
      <trkpt lat="43.08214" lon="5.92479">
        <ele>-7.55</ele>
        <time>2019-05-30T12:17:43Z</time>
      </trkpt>
      <trkpt lat="43.08181" lon="5.92482">
        <ele>-7.55</ele>
        <time>2019-05-30T12:18:10Z</time>
      </trkpt>
      <trkpt lat="43.0815" lon="5.92486">
        <ele>-4.19</ele>
        <time>2019-05-30T12:18:41Z</time>
      </trkpt>
      <trkpt lat="43.08118" lon="5.92489">
        <ele>-2.27</ele>
        <time>2019-05-30T12:19:16Z</time>
      </trkpt>
      <trkpt lat="43.08092" lon="5.92489">
        <ele>-0.82</ele>
        <time>2019-05-30T12:19:46Z</time>
      </trkpt>
      <trkpt lat="43.08071" lon="5.92492">
        <ele>-1.79</ele>
        <time>2019-05-30T12:20:13Z</time>
      </trkpt>
      <trkpt lat="43.08044" lon="5.92496">
        <ele>-3.23</ele>
        <time>2019-05-30T12:20:43Z</time>
      </trkpt>
      <trkpt lat="43.08019" lon="5.925">
        <ele>-2.75</ele>
        <time>2019-05-30T12:21:13Z</time>
      </trkpt>
      <trkpt lat="43.08014" lon="5.92503">
        <ele>-2.27</ele>
        <time>2019-05-30T12:21:38Z</time>
      </trkpt>
      <trkpt lat="43.0801" lon="5.92517">
        <ele>-3.23</ele>
        <time>2019-05-30T12:21:56Z</time>
      </trkpt>
      <trkpt lat="43.07997" lon="5.92518">
        <ele>-2.75</ele>
        <time>2019-05-30T12:22:18Z</time>
      </trkpt>
      <trkpt lat="43.07991" lon="5.92514">
        <ele>-3.23</ele>
        <time>2019-05-30T12:22:43Z</time>
      </trkpt>
      <trkpt lat="43.0799" lon="5.9251">
        <ele>-2.27</ele>
        <time>2019-05-30T12:23:11Z</time>
      </trkpt>
      <trkpt lat="43.0799" lon="5.92508">
        <ele>-1.79</ele>
        <time>2019-05-30T12:23:35Z</time>
      </trkpt>
      <trkpt lat="43.07989" lon="5.92505">
        <ele>-1.79</ele>
        <time>2019-05-30T12:23:57Z</time>
      </trkpt>
      <trkpt lat="43.07989" lon="5.92501">
        <ele>-2.75</ele>
        <time>2019-05-30T12:24:20Z</time>
      </trkpt>
      <trkpt lat="43.07993" lon="5.92506">
        <ele>-1.79</ele>
        <time>2019-05-30T12:24:49Z</time>
      </trkpt>
      <trkpt lat="43.07995" lon="5.92518">
        <ele>-2.75</ele>
        <time>2019-05-30T12:25:08Z</time>
      </trkpt>
      <trkpt lat="43.07995" lon="5.92511">
        <ele>-3.23</ele>
        <time>2019-05-30T12:25:33Z</time>
      </trkpt>
      <trkpt lat="43.07997" lon="5.92511">
        <ele>-4.67</ele>
        <time>2019-05-30T12:26:01Z</time>
      </trkpt>
      <trkpt lat="43.08001" lon="5.92507">
        <ele>-4.19</ele>
        <time>2019-05-30T12:26:25Z</time>
      </trkpt>
      <trkpt lat="43.0802" lon="5.92509">
        <ele>-3.23</ele>
        <time>2019-05-30T12:26:49Z</time>
      </trkpt>
      <trkpt lat="43.08027" lon="5.92495">
        <ele>-6.11</ele>
        <time>2019-05-30T12:27:15Z</time>
      </trkpt>
      <trkpt lat="43.08035" lon="5.92473">
        <ele>-5.63</ele>
        <time>2019-05-30T12:27:38Z</time>
      </trkpt>
      <trkpt lat="43.0804" lon="5.92457">
        <ele>-5.63</ele>
        <time>2019-05-30T12:28:04Z</time>
      </trkpt>
      <trkpt lat="43.08039" lon="5.92454">
        <ele>-5.15</ele>
        <time>2019-05-30T12:28:23Z</time>
      </trkpt>
      <trkpt lat="43.08039" lon="5.92451">
        <ele>-5.15</ele>
        <time>2019-05-30T12:28:49Z</time>
      </trkpt>
      <trkpt lat="43.08039" lon="5.92449">
        <ele>-5.63</ele>
        <time>2019-05-30T12:29:16Z</time>
      </trkpt>
      <trkpt lat="43.08039" lon="5.92449">
        <ele>-5.15</ele>
        <time>2019-05-30T12:29:41Z</time>
      </trkpt>
      <trkpt lat="43.0804" lon="5.9245">
        <ele>-5.15</ele>
        <time>2019-05-30T12:30:09Z</time>
      </trkpt>
      <trkpt lat="43.0804" lon="5.92449">
        <ele>-4.67</ele>
        <time>2019-05-30T12:30:35Z</time>
      </trkpt>
      <trkpt lat="43.0804" lon="5.92447">
        <ele>-5.15</ele>
        <time>2019-05-30T12:31:10Z</time>
      </trkpt>
      <trkpt lat="43.0804" lon="5.92445">
        <ele>-4.67</ele>
        <time>2019-05-30T12:31:45Z</time>
      </trkpt>
      <trkpt lat="43.08041" lon="5.92445">
        <ele>-4.67</ele>
        <time>2019-05-30T12:32:17Z</time>
      </trkpt>
      <trkpt lat="43.08041" lon="5.92445">
        <ele>-5.63</ele>
        <time>2019-05-30T12:32:45Z</time>
      </trkpt>
      <trkpt lat="43.08041" lon="5.92443">
        <ele>-5.63</ele>
        <time>2019-05-30T12:33:14Z</time>
      </trkpt>
      <trkpt lat="43.08041" lon="5.92445">
        <ele>-5.15</ele>
        <time>2019-05-30T12:33:45Z</time>
      </trkpt>
      <trkpt lat="43.08041" lon="5.92445">
        <ele>-5.63</ele>
        <time>2019-05-30T12:34:17Z</time>
      </trkpt>
      <trkpt lat="43.08042" lon="5.92444">
        <ele>-5.15</ele>
        <time>2019-05-30T12:34:50Z</time>
      </trkpt>
      <trkpt lat="43.08042" lon="5.92444">
        <ele>-4.67</ele>
        <time>2019-05-30T12:35:21Z</time>
      </trkpt>
      <trkpt lat="43.08042" lon="5.92444">
        <ele>-4.67</ele>
        <time>2019-05-30T12:35:53Z</time>
      </trkpt>
      <trkpt lat="43.08042" lon="5.92444">
        <ele>-4.19</ele>
        <time>2019-05-30T12:36:29Z</time>
      </trkpt>
      <trkpt lat="43.08041" lon="5.92444">
        <ele>-5.15</ele>
        <time>2019-05-30T12:37:08Z</time>
      </trkpt>
      <trkpt lat="43.08041" lon="5.92444">
        <ele>-6.11</ele>
        <time>2019-05-30T12:37:47Z</time>
      </trkpt>
      <trkpt lat="43.08041" lon="5.92443">
        <ele>-6.59</ele>
        <time>2019-05-30T12:38:19Z</time>
      </trkpt>
      <trkpt lat="43.08041" lon="5.92443">
        <ele>-7.07</ele>
        <time>2019-05-30T12:38:54Z</time>
      </trkpt>
      <trkpt lat="43.08041" lon="5.92443">
        <ele>-6.59</ele>
        <time>2019-05-30T12:39:27Z</time>
      </trkpt>
      <trkpt lat="43.0804" lon="5.92443">
        <ele>-6.11</ele>
        <time>2019-05-30T12:39:58Z</time>
      </trkpt>
      <trkpt lat="43.0804" lon="5.92443">
        <ele>-6.11</ele>
        <time>2019-05-30T12:40:28Z</time>
      </trkpt>
      <trkpt lat="43.0804" lon="5.92443">
        <ele>-6.11</ele>
        <time>2019-05-30T12:41:03Z</time>
      </trkpt>
      <trkpt lat="43.08039" lon="5.92443">
        <ele>-5.15</ele>
        <time>2019-05-30T12:41:37Z</time>
      </trkpt>
      <trkpt lat="43.0804" lon="5.92443">
        <ele>-4.67</ele>
        <time>2019-05-30T12:42:06Z</time>
      </trkpt>
      <trkpt lat="43.0804" lon="5.92442">
        <ele>-4.67</ele>
        <time>2019-05-30T12:42:29Z</time>
      </trkpt>
      <trkpt lat="43.0804" lon="5.92443">
        <ele>-4.67</ele>
        <time>2019-05-30T12:42:58Z</time>
      </trkpt>
      <trkpt lat="43.0804" lon="5.92443">
        <ele>-4.67</ele>
        <time>2019-05-30T12:43:30Z</time>
      </trkpt>
      <trkpt lat="43.0804" lon="5.92444">
        <ele>-3.71</ele>
        <time>2019-05-30T12:44:03Z</time>
      </trkpt>
      <trkpt lat="43.08041" lon="5.92443">
        <ele>-2.75</ele>
        <time>2019-05-30T12:44:36Z</time>
      </trkpt>
      <trkpt lat="43.08041" lon="5.92444">
        <ele>-2.27</ele>
        <time>2019-05-30T12:45:08Z</time>
      </trkpt>
      <trkpt lat="43.0804" lon="5.92444">
        <ele>-2.27</ele>
        <time>2019-05-30T12:45:41Z</time>
      </trkpt>
      <trkpt lat="43.08039" lon="5.92444">
        <ele>-2.75</ele>
        <time>2019-05-30T12:46:19Z</time>
      </trkpt>
      <trkpt lat="43.08039" lon="5.92444">
        <ele>-3.23</ele>
        <time>2019-05-30T12:46:50Z</time>
      </trkpt>
      <trkpt lat="43.0804" lon="5.92445">
        <ele>-3.23</ele>
        <time>2019-05-30T12:47:23Z</time>
      </trkpt>
      <trkpt lat="43.0804" lon="5.92445">
        <ele>-2.27</ele>
        <time>2019-05-30T12:47:58Z</time>
      </trkpt>
      <trkpt lat="43.08039" lon="5.92445">
        <ele>-2.75</ele>
        <time>2019-05-30T12:48:31Z</time>
      </trkpt>
      <trkpt lat="43.08039" lon="5.92445">
        <ele>-3.71</ele>
        <time>2019-05-30T12:49:05Z</time>
      </trkpt>
      <trkpt lat="43.08038" lon="5.92444">
        <ele>-3.71</ele>
        <time>2019-05-30T12:49:39Z</time>
      </trkpt>
      <trkpt lat="43.08038" lon="5.92445">
        <ele>-4.67</ele>
        <time>2019-05-30T12:50:11Z</time>
      </trkpt>
      <trkpt lat="43.08038" lon="5.92444">
        <ele>-5.15</ele>
        <time>2019-05-30T12:50:37Z</time>
      </trkpt>
      <trkpt lat="43.08039" lon="5.92445">
        <ele>-4.67</ele>
        <time>2019-05-30T12:51:12Z</time>
      </trkpt>
      <trkpt lat="43.0804" lon="5.92445">
        <ele>-4.67</ele>
        <time>2019-05-30T12:51:43Z</time>
      </trkpt>
      <trkpt lat="43.0804" lon="5.92445">
        <ele>-4.67</ele>
        <time>2019-05-30T12:51:52Z</time>
      </trkpt>
    </trkseg>
  </trk>
  <trk>
    <name><![CDATA[Tracé actuel: 31 MAI 2019 13:45]]></name>
    <trkseg>
      <trkpt lat="43.0804" lon="5.92438">
        <ele>5.91</ele>
        <time>2019-05-31T11:45:18Z</time>
      </trkpt>
      <trkpt lat="43.08037" lon="5.92443">
        <ele>6.87</ele>
        <time>2019-05-31T11:45:29Z</time>
      </trkpt>
      <trkpt lat="43.08034" lon="5.92448">
        <ele>6.87</ele>
        <time>2019-05-31T11:45:41Z</time>
      </trkpt>
      <trkpt lat="43.08036" lon="5.92449">
        <ele>7.83</ele>
        <time>2019-05-31T11:45:53Z</time>
      </trkpt>
      <trkpt lat="43.08035" lon="5.92448">
        <ele>8.79</ele>
        <time>2019-05-31T11:46:03Z</time>
      </trkpt>
      <trkpt lat="43.08035" lon="5.92448">
        <ele>10.71</ele>
        <time>2019-05-31T11:46:16Z</time>
      </trkpt>
      <trkpt lat="43.08038" lon="5.92449">
        <ele>10.71</ele>
        <time>2019-05-31T11:46:27Z</time>
      </trkpt>
      <trkpt lat="43.08038" lon="5.92449">
        <ele>11.19</ele>
        <time>2019-05-31T11:46:29Z</time>
      </trkpt>
      <trkpt lat="43.08041" lon="5.92447">
        <ele>10.71</ele>
        <time>2019-05-31T11:46:42Z</time>
      </trkpt>
      <trkpt lat="43.0804" lon="5.92448">
        <ele>11.19</ele>
        <time>2019-05-31T11:46:55Z</time>
      </trkpt>
      <trkpt lat="43.0804" lon="5.9245">
        <ele>11.67</ele>
        <time>2019-05-31T11:47:06Z</time>
      </trkpt>
      <trkpt lat="43.08041" lon="5.9245">
        <ele>11.19</ele>
        <time>2019-05-31T11:47:19Z</time>
      </trkpt>
      <trkpt lat="43.08041" lon="5.92451">
        <ele>11.19</ele>
        <time>2019-05-31T11:47:29Z</time>
      </trkpt>
      <trkpt lat="43.08039" lon="5.9245">
        <ele>12.15</ele>
        <time>2019-05-31T11:47:41Z</time>
      </trkpt>
      <trkpt lat="43.08039" lon="5.92449">
        <ele>11.67</ele>
        <time>2019-05-31T11:47:56Z</time>
      </trkpt>
      <trkpt lat="43.08039" lon="5.92449">
        <ele>11.19</ele>
        <time>2019-05-31T11:48:06Z</time>
      </trkpt>
      <trkpt lat="43.0804" lon="5.92447">
        <ele>9.27</ele>
        <time>2019-05-31T11:48:23Z</time>
      </trkpt>
      <trkpt lat="43.0804" lon="5.92446">
        <ele>8.31</ele>
        <time>2019-05-31T11:48:34Z</time>
      </trkpt>
      <trkpt lat="43.08036" lon="5.92446">
        <ele>7.35</ele>
        <time>2019-05-31T11:48:45Z</time>
      </trkpt>
      <trkpt lat="43.08039" lon="5.92445">
        <ele>-0.34</ele>
        <time>2019-05-31T11:49:07Z</time>
      </trkpt>
      <trkpt lat="43.08039" lon="5.92445">
        <ele>-1.3</ele>
        <time>2019-05-31T11:49:25Z</time>
      </trkpt>
      <trkpt lat="43.0804" lon="5.92446">
        <ele>-2.75</ele>
        <time>2019-05-31T11:49:42Z</time>
      </trkpt>
      <trkpt lat="43.08042" lon="5.92446">
        <ele>-3.71</ele>
        <time>2019-05-31T11:49:52Z</time>
      </trkpt>
      <trkpt lat="43.0804" lon="5.92446">
        <ele>-4.19</ele>
        <time>2019-05-31T11:50:01Z</time>
      </trkpt>
      <trkpt lat="43.08039" lon="5.92447">
        <ele>-4.67</ele>
        <time>2019-05-31T11:50:03Z</time>
      </trkpt>
      <trkpt lat="43.08037" lon="5.92446">
        <ele>-4.67</ele>
        <time>2019-05-31T11:50:15Z</time>
      </trkpt>
      <trkpt lat="43.08036" lon="5.92446">
        <ele>-5.63</ele>
        <time>2019-05-31T11:50:25Z</time>
      </trkpt>
      <trkpt lat="43.08043" lon="5.92446">
        <ele>-6.59</ele>
        <time>2019-05-31T11:50:37Z</time>
      </trkpt>
      <trkpt lat="43.08043" lon="5.92447">
        <ele>-6.59</ele>
        <time>2019-05-31T11:50:52Z</time>
      </trkpt>
      <trkpt lat="43.08041" lon="5.92448">
        <ele>-7.55</ele>
        <time>2019-05-31T11:51:02Z</time>
      </trkpt>
      <trkpt lat="43.08037" lon="5.92448">
        <ele>-7.55</ele>
        <time>2019-05-31T11:51:11Z</time>
      </trkpt>
      <trkpt lat="43.08034" lon="5.9245">
        <ele>-7.55</ele>
        <time>2019-05-31T11:51:14Z</time>
      </trkpt>
      <trkpt lat="43.08026" lon="5.92459">
        <ele>-8.03</ele>
        <time>2019-05-31T11:51:24Z</time>
      </trkpt>
      <trkpt lat="43.08027" lon="5.92463">
        <ele>-7.07</ele>
        <time>2019-05-31T11:51:35Z</time>
      </trkpt>
      <trkpt lat="43.08027" lon="5.92464">
        <ele>-7.07</ele>
        <time>2019-05-31T11:51:36Z</time>
      </trkpt>
      <trkpt lat="43.08036" lon="5.9248">
        <ele>-5.63</ele>
        <time>2019-05-31T11:51:49Z</time>
      </trkpt>
      <trkpt lat="43.08039" lon="5.92484">
        <ele>-5.63</ele>
        <time>2019-05-31T11:51:52Z</time>
      </trkpt>
      <trkpt lat="43.08043" lon="5.92488">
        <ele>-5.15</ele>
        <time>2019-05-31T11:51:55Z</time>
      </trkpt>
      <trkpt lat="43.08063" lon="5.92496">
        <ele>-4.19</ele>
        <time>2019-05-31T11:52:07Z</time>
      </trkpt>
      <trkpt lat="43.08095" lon="5.92492">
        <ele>-2.75</ele>
        <time>2019-05-31T11:52:21Z</time>
      </trkpt>
      <trkpt lat="43.08131" lon="5.92486">
        <ele>-1.3</ele>
        <time>2019-05-31T11:52:35Z</time>
      </trkpt>
      <trkpt lat="43.08166" lon="5.92482">
        <ele>-1.3</ele>
        <time>2019-05-31T11:52:48Z</time>
      </trkpt>
      <trkpt lat="43.08203" lon="5.92478">
        <ele>-2.27</ele>
        <time>2019-05-31T11:53:02Z</time>
      </trkpt>
      <trkpt lat="43.08237" lon="5.92473">
        <ele>-2.75</ele>
        <time>2019-05-31T11:53:16Z</time>
      </trkpt>
      <trkpt lat="43.08272" lon="5.92466">
        <ele>-4.19</ele>
        <time>2019-05-31T11:53:29Z</time>
      </trkpt>
      <trkpt lat="43.08334" lon="5.92454">
        <ele>-2.75</ele>
        <time>2019-05-31T11:53:50Z</time>
      </trkpt>
      <trkpt lat="43.08368" lon="5.92443">
        <ele>-3.71</ele>
        <time>2019-05-31T11:54:02Z</time>
      </trkpt>
      <trkpt lat="43.0843" lon="5.92418">
        <ele>-5.63</ele>
        <time>2019-05-31T11:54:24Z</time>
      </trkpt>
      <trkpt lat="43.08474" lon="5.92395">
        <ele>-7.07</ele>
        <time>2019-05-31T11:54:40Z</time>
      </trkpt>
      <trkpt lat="43.08508" lon="5.92378">
        <ele>-6.11</ele>
        <time>2019-05-31T11:54:52Z</time>
      </trkpt>
      <trkpt lat="43.08542" lon="5.92365">
        <ele>-7.07</ele>
        <time>2019-05-31T11:55:04Z</time>
      </trkpt>
      <trkpt lat="43.0858" lon="5.92356">
        <ele>-6.59</ele>
        <time>2019-05-31T11:55:17Z</time>
      </trkpt>
      <trkpt lat="43.08623" lon="5.92348">
        <ele>-5.63</ele>
        <time>2019-05-31T11:55:31Z</time>
      </trkpt>
      <trkpt lat="43.08677" lon="5.92339">
        <ele>-6.11</ele>
        <time>2019-05-31T11:55:49Z</time>
      </trkpt>
      <trkpt lat="43.08729" lon="5.9233">
        <ele>-6.11</ele>
        <time>2019-05-31T11:56:06Z</time>
      </trkpt>
      <trkpt lat="43.08775" lon="5.92312">
        <ele>-7.07</ele>
        <time>2019-05-31T11:56:21Z</time>
      </trkpt>
      <trkpt lat="43.08821" lon="5.92292">
        <ele>-6.59</ele>
        <time>2019-05-31T11:56:36Z</time>
      </trkpt>
      <trkpt lat="43.08862" lon="5.92276">
        <ele>-7.07</ele>
        <time>2019-05-31T11:56:50Z</time>
      </trkpt>
      <trkpt lat="43.08916" lon="5.92259">
        <ele>-7.07</ele>
        <time>2019-05-31T11:57:08Z</time>
      </trkpt>
      <trkpt lat="43.0896" lon="5.92243">
        <ele>-6.11</ele>
        <time>2019-05-31T11:57:22Z</time>
      </trkpt>
      <trkpt lat="43.09016" lon="5.92211">
        <ele>-5.15</ele>
        <time>2019-05-31T11:57:41Z</time>
      </trkpt>
      <trkpt lat="43.09053" lon="5.92188">
        <ele>-4.67</ele>
        <time>2019-05-31T11:57:54Z</time>
      </trkpt>
      <trkpt lat="43.09091" lon="5.92168">
        <ele>-4.19</ele>
        <time>2019-05-31T11:58:07Z</time>
      </trkpt>
      <trkpt lat="43.09131" lon="5.92146">
        <ele>-5.63</ele>
        <time>2019-05-31T11:58:21Z</time>
      </trkpt>
      <trkpt lat="43.09174" lon="5.92137">
        <ele>-5.63</ele>
        <time>2019-05-31T11:58:35Z</time>
      </trkpt>
      <trkpt lat="43.09218" lon="5.92121">
        <ele>-5.63</ele>
        <time>2019-05-31T11:58:50Z</time>
      </trkpt>
      <trkpt lat="43.0927" lon="5.92106">
        <ele>-5.63</ele>
        <time>2019-05-31T11:59:07Z</time>
      </trkpt>
      <trkpt lat="43.09327" lon="5.92088">
        <ele>-5.63</ele>
        <time>2019-05-31T11:59:26Z</time>
      </trkpt>
      <trkpt lat="43.09376" lon="5.92074">
        <ele>-4.67</ele>
        <time>2019-05-31T11:59:42Z</time>
      </trkpt>
      <trkpt lat="43.0943" lon="5.92061">
        <ele>-4.19</ele>
        <time>2019-05-31T12:00:00Z</time>
      </trkpt>
      <trkpt lat="43.0949" lon="5.92044">
        <ele>-3.71</ele>
        <time>2019-05-31T12:00:20Z</time>
      </trkpt>
      <trkpt lat="43.0954" lon="5.92024">
        <ele>-3.71</ele>
        <time>2019-05-31T12:00:37Z</time>
      </trkpt>
      <trkpt lat="43.09593" lon="5.92007">
        <ele>-4.19</ele>
        <time>2019-05-31T12:00:55Z</time>
      </trkpt>
      <trkpt lat="43.09644" lon="5.91992">
        <ele>-4.19</ele>
        <time>2019-05-31T12:01:12Z</time>
      </trkpt>
      <trkpt lat="43.0971" lon="5.91973">
        <ele>-3.71</ele>
        <time>2019-05-31T12:01:34Z</time>
      </trkpt>
      <trkpt lat="43.09764" lon="5.91959">
        <ele>-3.23</ele>
        <time>2019-05-31T12:01:52Z</time>
      </trkpt>
      <trkpt lat="43.09827" lon="5.91942">
        <ele>-3.71</ele>
        <time>2019-05-31T12:02:13Z</time>
      </trkpt>
      <trkpt lat="43.09884" lon="5.9193">
        <ele>-3.71</ele>
        <time>2019-05-31T12:02:32Z</time>
      </trkpt>
      <trkpt lat="43.09927" lon="5.9192">
        <ele>-2.27</ele>
        <time>2019-05-31T12:02:46Z</time>
      </trkpt>
      <trkpt lat="43.0997" lon="5.91912">
        <ele>-3.71</ele>
        <time>2019-05-31T12:03:00Z</time>
      </trkpt>
      <trkpt lat="43.10028" lon="5.91911">
        <ele>-3.23</ele>
        <time>2019-05-31T12:03:18Z</time>
      </trkpt>
      <trkpt lat="43.10071" lon="5.9192">
        <ele>-2.27</ele>
        <time>2019-05-31T12:03:31Z</time>
      </trkpt>
      <trkpt lat="43.10119" lon="5.91934">
        <ele>-2.27</ele>
        <time>2019-05-31T12:03:47Z</time>
      </trkpt>
      <trkpt lat="43.10155" lon="5.91952">
        <ele>-2.75</ele>
        <time>2019-05-31T12:04:00Z</time>
      </trkpt>
      <trkpt lat="43.10185" lon="5.91966">
        <ele>-3.71</ele>
        <time>2019-05-31T12:04:11Z</time>
      </trkpt>
      <trkpt lat="43.10227" lon="5.91983">
        <ele>-3.71</ele>
        <time>2019-05-31T12:04:25Z</time>
      </trkpt>
      <trkpt lat="43.10268" lon="5.91999">
        <ele>-3.71</ele>
        <time>2019-05-31T12:04:39Z</time>
      </trkpt>
      <trkpt lat="43.10304" lon="5.92011">
        <ele>-3.71</ele>
        <time>2019-05-31T12:04:51Z</time>
      </trkpt>
      <trkpt lat="43.10349" lon="5.92028">
        <ele>-3.23</ele>
        <time>2019-05-31T12:05:06Z</time>
      </trkpt>
      <trkpt lat="43.10392" lon="5.92047">
        <ele>-3.71</ele>
        <time>2019-05-31T12:05:21Z</time>
      </trkpt>
      <trkpt lat="43.10434" lon="5.92069">
        <ele>-3.71</ele>
        <time>2019-05-31T12:05:36Z</time>
      </trkpt>
      <trkpt lat="43.10492" lon="5.92093">
        <ele>-2.27</ele>
        <time>2019-05-31T12:05:56Z</time>
      </trkpt>
      <trkpt lat="43.10553" lon="5.9212">
        <ele>-1.79</ele>
        <time>2019-05-31T12:06:17Z</time>
      </trkpt>
      <trkpt lat="43.10596" lon="5.92141">
        <ele>-1.3</ele>
        <time>2019-05-31T12:06:32Z</time>
      </trkpt>
      <trkpt lat="43.10657" lon="5.92171">
        <ele>-2.27</ele>
        <time>2019-05-31T12:06:53Z</time>
      </trkpt>
      <trkpt lat="43.10712" lon="5.92197">
        <ele>-2.75</ele>
        <time>2019-05-31T12:07:12Z</time>
      </trkpt>
      <trkpt lat="43.10741" lon="5.92212">
        <ele>-3.71</ele>
        <time>2019-05-31T12:07:23Z</time>
      </trkpt>
      <trkpt lat="43.10779" lon="5.92232">
        <ele>-2.75</ele>
        <time>2019-05-31T12:07:38Z</time>
      </trkpt>
      <trkpt lat="43.1082" lon="5.92254">
        <ele>-2.27</ele>
        <time>2019-05-31T12:07:54Z</time>
      </trkpt>
      <trkpt lat="43.10851" lon="5.92272">
        <ele>-2.27</ele>
        <time>2019-05-31T12:08:07Z</time>
      </trkpt>
      <trkpt lat="43.10888" lon="5.92295">
        <ele>-2.27</ele>
        <time>2019-05-31T12:08:23Z</time>
      </trkpt>
      <trkpt lat="43.10916" lon="5.92312">
        <ele>-1.3</ele>
        <time>2019-05-31T12:08:35Z</time>
      </trkpt>
      <trkpt lat="43.10945" lon="5.92329">
        <ele>-0.82</ele>
        <time>2019-05-31T12:08:47Z</time>
      </trkpt>
      <trkpt lat="43.10977" lon="5.92348">
        <ele>-0.34</ele>
        <time>2019-05-31T12:09:02Z</time>
      </trkpt>
      <trkpt lat="43.11007" lon="5.92363">
        <ele>-2.75</ele>
        <time>2019-05-31T12:09:15Z</time>
      </trkpt>
      <trkpt lat="43.11035" lon="5.9238">
        <ele>-2.75</ele>
        <time>2019-05-31T12:09:27Z</time>
      </trkpt>
      <trkpt lat="43.11083" lon="5.92407">
        <ele>-2.75</ele>
        <time>2019-05-31T12:09:47Z</time>
      </trkpt>
      <trkpt lat="43.11128" lon="5.92437">
        <ele>-2.27</ele>
        <time>2019-05-31T12:10:07Z</time>
      </trkpt>
      <trkpt lat="43.11165" lon="5.92463">
        <ele>-5.15</ele>
        <time>2019-05-31T12:10:23Z</time>
      </trkpt>
      <trkpt lat="43.11219" lon="5.92497">
        <ele>-5.63</ele>
        <time>2019-05-31T12:10:46Z</time>
      </trkpt>
      <trkpt lat="43.11263" lon="5.92524">
        <ele>-5.63</ele>
        <time>2019-05-31T12:11:05Z</time>
      </trkpt>
      <trkpt lat="43.11302" lon="5.92551">
        <ele>-7.07</ele>
        <time>2019-05-31T12:11:22Z</time>
      </trkpt>
      <trkpt lat="43.1134" lon="5.92577">
        <ele>-6.11</ele>
        <time>2019-05-31T12:11:39Z</time>
      </trkpt>
      <trkpt lat="43.11375" lon="5.92599">
        <ele>-5.15</ele>
        <time>2019-05-31T12:11:54Z</time>
      </trkpt>
      <trkpt lat="43.11412" lon="5.92627">
        <ele>-6.59</ele>
        <time>2019-05-31T12:12:12Z</time>
      </trkpt>
      <trkpt lat="43.11439" lon="5.92647">
        <ele>-6.11</ele>
        <time>2019-05-31T12:12:28Z</time>
      </trkpt>
      <trkpt lat="43.11465" lon="5.92668">
        <ele>-5.63</ele>
        <time>2019-05-31T12:12:44Z</time>
      </trkpt>
      <trkpt lat="43.11498" lon="5.92696">
        <ele>-5.63</ele>
        <time>2019-05-31T12:13:07Z</time>
      </trkpt>
      <trkpt lat="43.11531" lon="5.92723">
        <ele>-4.67</ele>
        <time>2019-05-31T12:13:29Z</time>
      </trkpt>
      <trkpt lat="43.11569" lon="5.92753">
        <ele>-6.11</ele>
        <time>2019-05-31T12:13:55Z</time>
      </trkpt>
      <trkpt lat="43.11603" lon="5.92785">
        <ele>-4.67</ele>
        <time>2019-05-31T12:14:20Z</time>
      </trkpt>
      <trkpt lat="43.1165" lon="5.92827">
        <ele>-4.67</ele>
        <time>2019-05-31T12:14:52Z</time>
      </trkpt>
      <trkpt lat="43.11686" lon="5.92859">
        <ele>-3.23</ele>
        <time>2019-05-31T12:15:16Z</time>
      </trkpt>
      <trkpt lat="43.11727" lon="5.92891">
        <ele>-2.27</ele>
        <time>2019-05-31T12:15:42Z</time>
      </trkpt>
      <trkpt lat="43.11743" lon="5.92911">
        <ele>-1.79</ele>
        <time>2019-05-31T12:15:54Z</time>
      </trkpt>
      <trkpt lat="43.11755" lon="5.92918">
        <ele>-2.75</ele>
        <time>2019-05-31T12:16:04Z</time>
      </trkpt>
      <trkpt lat="43.11772" lon="5.92929">
        <ele>-3.23</ele>
        <time>2019-05-31T12:16:17Z</time>
      </trkpt>
      <trkpt lat="43.11792" lon="5.92951">
        <ele>-2.27</ele>
        <time>2019-05-31T12:16:37Z</time>
      </trkpt>
      <trkpt lat="43.11806" lon="5.92971">
        <ele>-1.79</ele>
        <time>2019-05-31T12:16:58Z</time>
      </trkpt>
      <trkpt lat="43.11811" lon="5.92975">
        <ele>-2.27</ele>
        <time>2019-05-31T12:17:15Z</time>
      </trkpt>
      <trkpt lat="43.11815" lon="5.92973">
        <ele>-2.27</ele>
        <time>2019-05-31T12:17:36Z</time>
      </trkpt>
      <trkpt lat="43.11816" lon="5.92969">
        <ele>-0.34</ele>
        <time>2019-05-31T12:17:52Z</time>
      </trkpt>
      <trkpt lat="43.11813" lon="5.92963">
        <ele>0.62</ele>
        <time>2019-05-31T12:18:06Z</time>
      </trkpt>
      <trkpt lat="43.11805" lon="5.92959">
        <ele>3.02</ele>
        <time>2019-05-31T12:18:22Z</time>
      </trkpt>
      <trkpt lat="43.11795" lon="5.92964">
        <ele>2.54</ele>
        <time>2019-05-31T12:18:38Z</time>
      </trkpt>
      <trkpt lat="43.11785" lon="5.92968">
        <ele>-1.3</ele>
        <time>2019-05-31T12:18:59Z</time>
      </trkpt>
      <trkpt lat="43.11774" lon="5.92973">
        <ele>-2.27</ele>
        <time>2019-05-31T12:19:22Z</time>
      </trkpt>
      <trkpt lat="43.11771" lon="5.92973">
        <ele>-2.27</ele>
        <time>2019-05-31T12:19:39Z</time>
      </trkpt>
      <trkpt lat="43.11771" lon="5.92974">
        <ele>-2.27</ele>
        <time>2019-05-31T12:20:04Z</time>
      </trkpt>
      <trkpt lat="43.1177" lon="5.92975">
        <ele>-3.71</ele>
        <time>2019-05-31T12:20:24Z</time>
      </trkpt>
      <trkpt lat="43.1177" lon="5.92974">
        <ele>-3.23</ele>
        <time>2019-05-31T12:20:48Z</time>
      </trkpt>
      <trkpt lat="43.1177" lon="5.92974">
        <ele>-3.23</ele>
        <time>2019-05-31T12:21:11Z</time>
      </trkpt>
      <trkpt lat="43.1177" lon="5.92974">
        <ele>-4.19</ele>
        <time>2019-05-31T12:21:33Z</time>
      </trkpt>
      <trkpt lat="43.11769" lon="5.92975">
        <ele>-3.71</ele>
        <time>2019-05-31T12:21:57Z</time>
      </trkpt>
      <trkpt lat="43.11769" lon="5.92974">
        <ele>-3.71</ele>
        <time>2019-05-31T12:22:22Z</time>
      </trkpt>
      <trkpt lat="43.11769" lon="5.92974">
        <ele>-3.71</ele>
        <time>2019-05-31T12:22:48Z</time>
      </trkpt>
      <trkpt lat="43.1177" lon="5.92973">
        <ele>-3.71</ele>
        <time>2019-05-31T12:23:20Z</time>
      </trkpt>
      <trkpt lat="43.1177" lon="5.92973">
        <ele>-4.19</ele>
        <time>2019-05-31T12:23:39Z</time>
      </trkpt>
      <trkpt lat="43.1177" lon="5.92972">
        <ele>-4.67</ele>
        <time>2019-05-31T12:23:51Z</time>
      </trkpt>
      <trkpt lat="43.11771" lon="5.92972">
        <ele>-4.67</ele>
        <time>2019-05-31T12:24:04Z</time>
      </trkpt>
      <trkpt lat="43.11772" lon="5.92971">
        <ele>-4.19</ele>
        <time>2019-05-31T12:24:27Z</time>
      </trkpt>
      <trkpt lat="43.11773" lon="5.92971">
        <ele>-3.71</ele>
        <time>2019-05-31T12:24:58Z</time>
      </trkpt>
      <trkpt lat="43.11774" lon="5.92972">
        <ele>-4.19</ele>
        <time>2019-05-31T12:25:21Z</time>
      </trkpt>
      <trkpt lat="43.11774" lon="5.92972">
        <ele>-5.15</ele>
        <time>2019-05-31T12:25:40Z</time>
      </trkpt>
      <trkpt lat="43.11774" lon="5.92971">
        <ele>-5.15</ele>
        <time>2019-05-31T12:26:05Z</time>
      </trkpt>
      <trkpt lat="43.11774" lon="5.9297">
        <ele>-4.19</ele>
        <time>2019-05-31T12:26:35Z</time>
      </trkpt>
      <trkpt lat="43.11774" lon="5.92969">
        <ele>-4.19</ele>
        <time>2019-05-31T12:26:58Z</time>
      </trkpt>
      <trkpt lat="43.11774" lon="5.9297">
        <ele>-4.19</ele>
        <time>2019-05-31T12:27:23Z</time>
      </trkpt>
      <trkpt lat="43.11774" lon="5.9297">
        <ele>-4.67</ele>
        <time>2019-05-31T12:27:49Z</time>
      </trkpt>
      <trkpt lat="43.11773" lon="5.9297">
        <ele>-4.19</ele>
        <time>2019-05-31T12:28:12Z</time>
      </trkpt>
      <trkpt lat="43.11772" lon="5.9297">
        <ele>-3.71</ele>
        <time>2019-05-31T12:28:36Z</time>
      </trkpt>
      <trkpt lat="43.11772" lon="5.9297">
        <ele>-3.23</ele>
        <time>2019-05-31T12:28:57Z</time>
      </trkpt>
      <trkpt lat="43.11773" lon="5.92971">
        <ele>-2.75</ele>
        <time>2019-05-31T12:29:16Z</time>
      </trkpt>
      <trkpt lat="43.11773" lon="5.92971">
        <ele>-1.79</ele>
        <time>2019-05-31T12:29:40Z</time>
      </trkpt>
      <trkpt lat="43.11774" lon="5.92971">
        <ele>-1.79</ele>
        <time>2019-05-31T12:30:04Z</time>
      </trkpt>
      <trkpt lat="43.11774" lon="5.92972">
        <ele>-2.27</ele>
        <time>2019-05-31T12:30:29Z</time>
      </trkpt>
      <trkpt lat="43.11779" lon="5.92967">
        <ele>-2.75</ele>
        <time>2019-05-31T12:30:44Z</time>
      </trkpt>
      <trkpt lat="43.11779" lon="5.92926">
        <ele>-5.15</ele>
        <time>2019-05-31T12:31:02Z</time>
      </trkpt>
      <trkpt lat="43.11752" lon="5.9289">
        <ele>-7.07</ele>
        <time>2019-05-31T12:31:25Z</time>
      </trkpt>
      <trkpt lat="43.11727" lon="5.92861">
        <ele>-8.51</ele>
        <time>2019-05-31T12:31:41Z</time>
      </trkpt>
      <trkpt lat="43.11697" lon="5.92826">
        <ele>-9</ele>
        <time>2019-05-31T12:32:01Z</time>
      </trkpt>
      <trkpt lat="43.11658" lon="5.92776">
        <ele>-7.07</ele>
        <time>2019-05-31T12:32:27Z</time>
      </trkpt>
      <trkpt lat="43.11618" lon="5.92743">
        <ele>-6.11</ele>
        <time>2019-05-31T12:32:49Z</time>
      </trkpt>
      <trkpt lat="43.11583" lon="5.92711">
        <ele>-6.59</ele>
        <time>2019-05-31T12:33:09Z</time>
      </trkpt>
      <trkpt lat="43.11548" lon="5.9269">
        <ele>-5.63</ele>
        <time>2019-05-31T12:33:28Z</time>
      </trkpt>
      <trkpt lat="43.11515" lon="5.92679">
        <ele>-5.15</ele>
        <time>2019-05-31T12:33:45Z</time>
      </trkpt>
      <trkpt lat="43.11486" lon="5.92673">
        <ele>-4.19</ele>
        <time>2019-05-31T12:34:00Z</time>
      </trkpt>
      <trkpt lat="43.11453" lon="5.92677">
        <ele>-4.19</ele>
        <time>2019-05-31T12:34:16Z</time>
      </trkpt>
      <trkpt lat="43.11431" lon="5.92707">
        <ele>-5.15</ele>
        <time>2019-05-31T12:34:35Z</time>
      </trkpt>
      <trkpt lat="43.11416" lon="5.92733">
        <ele>-5.15</ele>
        <time>2019-05-31T12:34:55Z</time>
      </trkpt>
      <trkpt lat="43.11402" lon="5.92754">
        <ele>-5.63</ele>
        <time>2019-05-31T12:35:15Z</time>
      </trkpt>
      <trkpt lat="43.11391" lon="5.92772">
        <ele>-5.15</ele>
        <time>2019-05-31T12:35:33Z</time>
      </trkpt>
      <trkpt lat="43.1138" lon="5.92784">
        <ele>-4.67</ele>
        <time>2019-05-31T12:35:49Z</time>
      </trkpt>
      <trkpt lat="43.11373" lon="5.92782">
        <ele>-4.19</ele>
        <time>2019-05-31T12:35:57Z</time>
      </trkpt>
      <trkpt lat="43.11354" lon="5.92754">
        <ele>-4.19</ele>
        <time>2019-05-31T12:36:20Z</time>
      </trkpt>
      <trkpt lat="43.11334" lon="5.92718">
        <ele>-5.15</ele>
        <time>2019-05-31T12:36:42Z</time>
      </trkpt>
      <trkpt lat="43.11308" lon="5.92677">
        <ele>-4.67</ele>
        <time>2019-05-31T12:37:05Z</time>
      </trkpt>
      <trkpt lat="43.11284" lon="5.92619">
        <ele>-4.19</ele>
        <time>2019-05-31T12:37:27Z</time>
      </trkpt>
      <trkpt lat="43.1126" lon="5.92562">
        <ele>-4.19</ele>
        <time>2019-05-31T12:37:47Z</time>
      </trkpt>
      <trkpt lat="43.11237" lon="5.92503">
        <ele>-4.19</ele>
        <time>2019-05-31T12:38:08Z</time>
      </trkpt>
      <trkpt lat="43.11208" lon="5.92456">
        <ele>-5.15</ele>
        <time>2019-05-31T12:38:28Z</time>
      </trkpt>
      <trkpt lat="43.11174" lon="5.92411">
        <ele>-5.15</ele>
        <time>2019-05-31T12:38:47Z</time>
      </trkpt>
      <trkpt lat="43.11138" lon="5.92369">
        <ele>-4.19</ele>
        <time>2019-05-31T12:39:04Z</time>
      </trkpt>
      <trkpt lat="43.11098" lon="5.92328">
        <ele>-4.19</ele>
        <time>2019-05-31T12:39:23Z</time>
      </trkpt>
      <trkpt lat="43.11058" lon="5.9229">
        <ele>-2.75</ele>
        <time>2019-05-31T12:39:41Z</time>
      </trkpt>
      <trkpt lat="43.11013" lon="5.9225">
        <ele>-3.23</ele>
        <time>2019-05-31T12:40:00Z</time>
      </trkpt>
      <trkpt lat="43.10968" lon="5.92212">
        <ele>-3.71</ele>
        <time>2019-05-31T12:40:20Z</time>
      </trkpt>
      <trkpt lat="43.10929" lon="5.92182">
        <ele>-3.23</ele>
        <time>2019-05-31T12:40:36Z</time>
      </trkpt>
      <trkpt lat="43.10894" lon="5.92156">
        <ele>-2.75</ele>
        <time>2019-05-31T12:40:49Z</time>
      </trkpt>
      <trkpt lat="43.10858" lon="5.92129">
        <ele>-3.23</ele>
        <time>2019-05-31T12:41:04Z</time>
      </trkpt>
      <trkpt lat="43.10823" lon="5.92101">
        <ele>-3.23</ele>
        <time>2019-05-31T12:41:19Z</time>
      </trkpt>
      <trkpt lat="43.10786" lon="5.92075">
        <ele>-4.19</ele>
        <time>2019-05-31T12:41:35Z</time>
      </trkpt>
      <trkpt lat="43.10749" lon="5.92049">
        <ele>-3.71</ele>
        <time>2019-05-31T12:41:50Z</time>
      </trkpt>
      <trkpt lat="43.10718" lon="5.92018">
        <ele>-2.75</ele>
        <time>2019-05-31T12:42:03Z</time>
      </trkpt>
      <trkpt lat="43.10706" lon="5.92009">
        <ele>-3.23</ele>
        <time>2019-05-31T12:42:08Z</time>
      </trkpt>
      <trkpt lat="43.10683" lon="5.91992">
        <ele>-3.71</ele>
        <time>2019-05-31T12:42:17Z</time>
      </trkpt>
      <trkpt lat="43.1065" lon="5.91965">
        <ele>-3.23</ele>
        <time>2019-05-31T12:42:31Z</time>
      </trkpt>
      <trkpt lat="43.10596" lon="5.91927">
        <ele>-4.19</ele>
        <time>2019-05-31T12:42:53Z</time>
      </trkpt>
      <trkpt lat="43.10556" lon="5.91894">
        <ele>-3.71</ele>
        <time>2019-05-31T12:43:10Z</time>
      </trkpt>
      <trkpt lat="43.10513" lon="5.91857">
        <ele>-3.23</ele>
        <time>2019-05-31T12:43:29Z</time>
      </trkpt>
      <trkpt lat="43.10469" lon="5.91834">
        <ele>-3.71</ele>
        <time>2019-05-31T12:43:47Z</time>
      </trkpt>
      <trkpt lat="43.10423" lon="5.91824">
        <ele>-3.71</ele>
        <time>2019-05-31T12:44:06Z</time>
      </trkpt>
      <trkpt lat="43.10383" lon="5.91821">
        <ele>-4.19</ele>
        <time>2019-05-31T12:44:23Z</time>
      </trkpt>
      <trkpt lat="43.10347" lon="5.91827">
        <ele>-4.19</ele>
        <time>2019-05-31T12:44:38Z</time>
      </trkpt>
      <trkpt lat="43.10313" lon="5.9183">
        <ele>-5.15</ele>
        <time>2019-05-31T12:44:53Z</time>
      </trkpt>
      <trkpt lat="43.10264" lon="5.91837">
        <ele>-5.15</ele>
        <time>2019-05-31T12:45:13Z</time>
      </trkpt>
      <trkpt lat="43.10222" lon="5.91848">
        <ele>-4.67</ele>
        <time>2019-05-31T12:45:30Z</time>
      </trkpt>
      <trkpt lat="43.10176" lon="5.91862">
        <ele>-4.19</ele>
        <time>2019-05-31T12:45:50Z</time>
      </trkpt>
      <trkpt lat="43.10137" lon="5.91866">
        <ele>-5.15</ele>
        <time>2019-05-31T12:46:07Z</time>
      </trkpt>
      <trkpt lat="43.10093" lon="5.91882">
        <ele>-4.19</ele>
        <time>2019-05-31T12:46:26Z</time>
      </trkpt>
      <trkpt lat="43.10065" lon="5.91893">
        <ele>-4.19</ele>
        <time>2019-05-31T12:46:40Z</time>
      </trkpt>
      <trkpt lat="43.10035" lon="5.919">
        <ele>-4.67</ele>
        <time>2019-05-31T12:46:53Z</time>
      </trkpt>
      <trkpt lat="43.1" lon="5.91909">
        <ele>-3.71</ele>
        <time>2019-05-31T12:47:07Z</time>
      </trkpt>
      <trkpt lat="43.09961" lon="5.91918">
        <ele>-4.19</ele>
        <time>2019-05-31T12:47:22Z</time>
      </trkpt>
      <trkpt lat="43.0992" lon="5.91924">
        <ele>-4.19</ele>
        <time>2019-05-31T12:47:37Z</time>
      </trkpt>
      <trkpt lat="43.09869" lon="5.91928">
        <ele>-4.19</ele>
        <time>2019-05-31T12:47:55Z</time>
      </trkpt>
      <trkpt lat="43.0981" lon="5.91933">
        <ele>-5.15</ele>
        <time>2019-05-31T12:48:15Z</time>
      </trkpt>
      <trkpt lat="43.09748" lon="5.9194">
        <ele>-5.63</ele>
        <time>2019-05-31T12:48:36Z</time>
      </trkpt>
      <trkpt lat="43.09704" lon="5.91949">
        <ele>-5.15</ele>
        <time>2019-05-31T12:48:52Z</time>
      </trkpt>
      <trkpt lat="43.09652" lon="5.91956">
        <ele>-5.15</ele>
        <time>2019-05-31T12:49:11Z</time>
      </trkpt>
      <trkpt lat="43.09597" lon="5.91963">
        <ele>-5.63</ele>
        <time>2019-05-31T12:49:31Z</time>
      </trkpt>
      <trkpt lat="43.09552" lon="5.91967">
        <ele>-5.15</ele>
        <time>2019-05-31T12:49:47Z</time>
      </trkpt>
      <trkpt lat="43.09515" lon="5.91971">
        <ele>-4.67</ele>
        <time>2019-05-31T12:50:01Z</time>
      </trkpt>
      <trkpt lat="43.09482" lon="5.91976">
        <ele>-3.71</ele>
        <time>2019-05-31T12:50:14Z</time>
      </trkpt>
      <trkpt lat="43.09455" lon="5.91981">
        <ele>-3.71</ele>
        <time>2019-05-31T12:50:26Z</time>
      </trkpt>
      <trkpt lat="43.0943" lon="5.91985">
        <ele>-3.23</ele>
        <time>2019-05-31T12:50:38Z</time>
      </trkpt>
      <trkpt lat="43.094" lon="5.91985">
        <ele>-4.19</ele>
        <time>2019-05-31T12:50:52Z</time>
      </trkpt>
      <trkpt lat="43.09356" lon="5.91989">
        <ele>-3.71</ele>
        <time>2019-05-31T12:51:13Z</time>
      </trkpt>
      <trkpt lat="43.09304" lon="5.91996">
        <ele>-2.75</ele>
        <time>2019-05-31T12:51:37Z</time>
      </trkpt>
      <trkpt lat="43.09267" lon="5.92003">
        <ele>-3.23</ele>
        <time>2019-05-31T12:51:56Z</time>
      </trkpt>
      <trkpt lat="43.09204" lon="5.9202">
        <ele>-3.71</ele>
        <time>2019-05-31T12:52:24Z</time>
      </trkpt>
      <trkpt lat="43.09183" lon="5.92027">
        <ele>-3.71</ele>
        <time>2019-05-31T12:52:35Z</time>
      </trkpt>
      <trkpt lat="43.09152" lon="5.92029">
        <ele>-4.19</ele>
        <time>2019-05-31T12:52:52Z</time>
      </trkpt>
      <trkpt lat="43.09116" lon="5.92029">
        <ele>-5.15</ele>
        <time>2019-05-31T12:53:16Z</time>
      </trkpt>
      <trkpt lat="43.0909" lon="5.9201">
        <ele>-4.19</ele>
        <time>2019-05-31T12:53:34Z</time>
      </trkpt>
      <trkpt lat="43.0905" lon="5.91989">
        <ele>-3.71</ele>
        <time>2019-05-31T12:53:57Z</time>
      </trkpt>
      <trkpt lat="43.09023" lon="5.91984">
        <ele>-3.71</ele>
        <time>2019-05-31T12:54:12Z</time>
      </trkpt>
      <trkpt lat="43.08997" lon="5.91976">
        <ele>-4.19</ele>
        <time>2019-05-31T12:54:26Z</time>
      </trkpt>
      <trkpt lat="43.08965" lon="5.9197">
        <ele>-5.15</ele>
        <time>2019-05-31T12:54:43Z</time>
      </trkpt>
      <trkpt lat="43.08916" lon="5.91959">
        <ele>-5.63</ele>
        <time>2019-05-31T12:55:05Z</time>
      </trkpt>
      <trkpt lat="43.08869" lon="5.91945">
        <ele>-5.15</ele>
        <time>2019-05-31T12:55:24Z</time>
      </trkpt>
      <trkpt lat="43.08824" lon="5.91928">
        <ele>-5.15</ele>
        <time>2019-05-31T12:55:43Z</time>
      </trkpt>
      <trkpt lat="43.08784" lon="5.91928">
        <ele>-4.67</ele>
        <time>2019-05-31T12:56:01Z</time>
      </trkpt>
      <trkpt lat="43.08785" lon="5.91952">
        <ele>-4.19</ele>
        <time>2019-05-31T12:56:13Z</time>
      </trkpt>
      <trkpt lat="43.08795" lon="5.91989">
        <ele>-3.71</ele>
        <time>2019-05-31T12:56:31Z</time>
      </trkpt>
      <trkpt lat="43.08809" lon="5.92036">
        <ele>-4.19</ele>
        <time>2019-05-31T12:56:48Z</time>
      </trkpt>
      <trkpt lat="43.08818" lon="5.92094">
        <ele>-4.19</ele>
        <time>2019-05-31T12:57:03Z</time>
      </trkpt>
      <trkpt lat="43.08819" lon="5.92162">
        <ele>-3.71</ele>
        <time>2019-05-31T12:57:20Z</time>
      </trkpt>
      <trkpt lat="43.08813" lon="5.92228">
        <ele>-2.27</ele>
        <time>2019-05-31T12:57:39Z</time>
      </trkpt>
      <trkpt lat="43.08809" lon="5.9228">
        <ele>-2.75</ele>
        <time>2019-05-31T12:57:57Z</time>
      </trkpt>
      <trkpt lat="43.08805" lon="5.92336">
        <ele>-2.27</ele>
        <time>2019-05-31T12:58:15Z</time>
      </trkpt>
      <trkpt lat="43.08814" lon="5.92387">
        <ele>-3.23</ele>
        <time>2019-05-31T12:58:31Z</time>
      </trkpt>
      <trkpt lat="43.08834" lon="5.92456">
        <ele>-3.71</ele>
        <time>2019-05-31T12:58:50Z</time>
      </trkpt>
      <trkpt lat="43.08848" lon="5.92511">
        <ele>-3.23</ele>
        <time>2019-05-31T12:59:04Z</time>
      </trkpt>
      <trkpt lat="43.08856" lon="5.92567">
        <ele>-3.23</ele>
        <time>2019-05-31T12:59:18Z</time>
      </trkpt>
      <trkpt lat="43.08861" lon="5.9263">
        <ele>-3.71</ele>
        <time>2019-05-31T12:59:34Z</time>
      </trkpt>
      <trkpt lat="43.08862" lon="5.92686">
        <ele>-2.75</ele>
        <time>2019-05-31T12:59:48Z</time>
      </trkpt>
      <trkpt lat="43.08863" lon="5.92746">
        <ele>-2.75</ele>
        <time>2019-05-31T13:00:05Z</time>
      </trkpt>
      <trkpt lat="43.08862" lon="5.92783">
        <ele>-2.75</ele>
        <time>2019-05-31T13:00:17Z</time>
      </trkpt>
      <trkpt lat="43.08864" lon="5.9282">
        <ele>-1.79</ele>
        <time>2019-05-31T13:00:30Z</time>
      </trkpt>
      <trkpt lat="43.0887" lon="5.92853">
        <ele>-2.75</ele>
        <time>2019-05-31T13:00:42Z</time>
      </trkpt>
      <trkpt lat="43.08879" lon="5.92898">
        <ele>-3.71</ele>
        <time>2019-05-31T13:00:57Z</time>
      </trkpt>
      <trkpt lat="43.08891" lon="5.92933">
        <ele>-2.75</ele>
        <time>2019-05-31T13:01:08Z</time>
      </trkpt>
      <trkpt lat="43.08907" lon="5.92987">
        <ele>-2.75</ele>
        <time>2019-05-31T13:01:23Z</time>
      </trkpt>
      <trkpt lat="43.08927" lon="5.93042">
        <ele>-3.71</ele>
        <time>2019-05-31T13:01:37Z</time>
      </trkpt>
      <trkpt lat="43.08945" lon="5.93099">
        <ele>-3.23</ele>
        <time>2019-05-31T13:01:51Z</time>
      </trkpt>
      <trkpt lat="43.08953" lon="5.93132">
        <ele>-2.75</ele>
        <time>2019-05-31T13:01:59Z</time>
      </trkpt>
      <trkpt lat="43.08963" lon="5.93168">
        <ele>-2.75</ele>
        <time>2019-05-31T13:02:08Z</time>
      </trkpt>
      <trkpt lat="43.08975" lon="5.93216">
        <ele>-2.27</ele>
        <time>2019-05-31T13:02:20Z</time>
      </trkpt>
      <trkpt lat="43.08991" lon="5.9327">
        <ele>-3.23</ele>
        <time>2019-05-31T13:02:34Z</time>
      </trkpt>
      <trkpt lat="43.09008" lon="5.93328">
        <ele>-3.23</ele>
        <time>2019-05-31T13:02:49Z</time>
      </trkpt>
      <trkpt lat="43.09024" lon="5.93384">
        <ele>-3.23</ele>
        <time>2019-05-31T13:03:03Z</time>
      </trkpt>
      <trkpt lat="43.09033" lon="5.93421">
        <ele>-3.23</ele>
        <time>2019-05-31T13:03:12Z</time>
      </trkpt>
      <trkpt lat="43.0904" lon="5.93445">
        <ele>-3.23</ele>
        <time>2019-05-31T13:03:18Z</time>
      </trkpt>
      <trkpt lat="43.09058" lon="5.93486">
        <ele>-2.75</ele>
        <time>2019-05-31T13:03:28Z</time>
      </trkpt>
      <trkpt lat="43.09074" lon="5.93526">
        <ele>-2.27</ele>
        <time>2019-05-31T13:03:38Z</time>
      </trkpt>
      <trkpt lat="43.09089" lon="5.9357">
        <ele>-2.75</ele>
        <time>2019-05-31T13:03:49Z</time>
      </trkpt>
      <trkpt lat="43.091" lon="5.93611">
        <ele>-2.75</ele>
        <time>2019-05-31T13:03:59Z</time>
      </trkpt>
      <trkpt lat="43.09111" lon="5.93646">
        <ele>-2.75</ele>
        <time>2019-05-31T13:04:08Z</time>
      </trkpt>
      <trkpt lat="43.09121" lon="5.93689">
        <ele>-2.75</ele>
        <time>2019-05-31T13:04:19Z</time>
      </trkpt>
      <trkpt lat="43.09133" lon="5.93739">
        <ele>-3.71</ele>
        <time>2019-05-31T13:04:31Z</time>
      </trkpt>
      <trkpt lat="43.09143" lon="5.93784">
        <ele>-3.71</ele>
        <time>2019-05-31T13:04:42Z</time>
      </trkpt>
      <trkpt lat="43.09152" lon="5.93825">
        <ele>-3.71</ele>
        <time>2019-05-31T13:04:52Z</time>
      </trkpt>
      <trkpt lat="43.09162" lon="5.93869">
        <ele>-3.71</ele>
        <time>2019-05-31T13:05:03Z</time>
      </trkpt>
      <trkpt lat="43.0917" lon="5.93909">
        <ele>-3.71</ele>
        <time>2019-05-31T13:05:13Z</time>
      </trkpt>
      <trkpt lat="43.09177" lon="5.93941">
        <ele>-3.23</ele>
        <time>2019-05-31T13:05:21Z</time>
      </trkpt>
      <trkpt lat="43.09184" lon="5.93988">
        <ele>-2.27</ele>
        <time>2019-05-31T13:05:33Z</time>
      </trkpt>
      <trkpt lat="43.09189" lon="5.94019">
        <ele>-1.79</ele>
        <time>2019-05-31T13:05:41Z</time>
      </trkpt>
      <trkpt lat="43.09193" lon="5.94054">
        <ele>-2.27</ele>
        <time>2019-05-31T13:05:50Z</time>
      </trkpt>
      <trkpt lat="43.09198" lon="5.94097">
        <ele>-3.23</ele>
        <time>2019-05-31T13:06:01Z</time>
      </trkpt>
      <trkpt lat="43.09201" lon="5.94131">
        <ele>-3.71</ele>
        <time>2019-05-31T13:06:10Z</time>
      </trkpt>
      <trkpt lat="43.09207" lon="5.9417">
        <ele>-3.71</ele>
        <time>2019-05-31T13:06:20Z</time>
      </trkpt>
      <trkpt lat="43.09219" lon="5.94214">
        <ele>-3.23</ele>
        <time>2019-05-31T13:06:32Z</time>
      </trkpt>
      <trkpt lat="43.09233" lon="5.94266">
        <ele>-3.71</ele>
        <time>2019-05-31T13:06:45Z</time>
      </trkpt>
      <trkpt lat="43.09244" lon="5.94311">
        <ele>-2.27</ele>
        <time>2019-05-31T13:06:56Z</time>
      </trkpt>
      <trkpt lat="43.09256" lon="5.94351">
        <ele>-3.23</ele>
        <time>2019-05-31T13:07:06Z</time>
      </trkpt>
      <trkpt lat="43.09271" lon="5.94398">
        <ele>-3.23</ele>
        <time>2019-05-31T13:07:18Z</time>
      </trkpt>
      <trkpt lat="43.09275" lon="5.9441">
        <ele>-3.23</ele>
        <time>2019-05-31T13:07:21Z</time>
      </trkpt>
      <trkpt lat="43.09284" lon="5.94443">
        <ele>-3.23</ele>
        <time>2019-05-31T13:07:29Z</time>
      </trkpt>
      <trkpt lat="43.09292" lon="5.94475">
        <ele>-3.23</ele>
        <time>2019-05-31T13:07:37Z</time>
      </trkpt>
      <trkpt lat="43.093" lon="5.94508">
        <ele>-2.27</ele>
        <time>2019-05-31T13:07:45Z</time>
      </trkpt>
      <trkpt lat="43.09312" lon="5.94554">
        <ele>-1.79</ele>
        <time>2019-05-31T13:07:56Z</time>
      </trkpt>
      <trkpt lat="43.09323" lon="5.94595">
        <ele>-1.79</ele>
        <time>2019-05-31T13:08:06Z</time>
      </trkpt>
      <trkpt lat="43.09335" lon="5.94642">
        <ele>-2.75</ele>
        <time>2019-05-31T13:08:17Z</time>
      </trkpt>
      <trkpt lat="43.0935" lon="5.94699">
        <ele>-3.23</ele>
        <time>2019-05-31T13:08:31Z</time>
      </trkpt>
      <trkpt lat="43.09363" lon="5.94746">
        <ele>-2.75</ele>
        <time>2019-05-31T13:08:43Z</time>
      </trkpt>
      <trkpt lat="43.09369" lon="5.94787">
        <ele>-2.27</ele>
        <time>2019-05-31T13:08:53Z</time>
      </trkpt>
      <trkpt lat="43.09375" lon="5.94821">
        <ele>-2.75</ele>
        <time>2019-05-31T13:09:02Z</time>
      </trkpt>
      <trkpt lat="43.09378" lon="5.9486">
        <ele>-2.75</ele>
        <time>2019-05-31T13:09:12Z</time>
      </trkpt>
      <trkpt lat="43.09383" lon="5.94893">
        <ele>-3.23</ele>
        <time>2019-05-31T13:09:21Z</time>
      </trkpt>
      <trkpt lat="43.09386" lon="5.94918">
        <ele>-3.23</ele>
        <time>2019-05-31T13:09:28Z</time>
      </trkpt>
      <trkpt lat="43.09384" lon="5.94923">
        <ele>-3.23</ele>
        <time>2019-05-31T13:09:30Z</time>
      </trkpt>
      <trkpt lat="43.09368" lon="5.94916">
        <ele>-2.75</ele>
        <time>2019-05-31T13:09:40Z</time>
      </trkpt>
      <trkpt lat="43.0935" lon="5.94909">
        <ele>-3.23</ele>
        <time>2019-05-31T13:09:50Z</time>
      </trkpt>
      <trkpt lat="43.09336" lon="5.94903">
        <ele>-3.23</ele>
        <time>2019-05-31T13:09:58Z</time>
      </trkpt>
      <trkpt lat="43.09314" lon="5.94892">
        <ele>-3.23</ele>
        <time>2019-05-31T13:10:09Z</time>
      </trkpt>
      <trkpt lat="43.09286" lon="5.94885">
        <ele>-4.19</ele>
        <time>2019-05-31T13:10:23Z</time>
      </trkpt>
      <trkpt lat="43.0926" lon="5.94869">
        <ele>-4.67</ele>
        <time>2019-05-31T13:10:36Z</time>
      </trkpt>
      <trkpt lat="43.09234" lon="5.9485">
        <ele>-3.71</ele>
        <time>2019-05-31T13:10:47Z</time>
      </trkpt>
      <trkpt lat="43.092" lon="5.94835">
        <ele>-4.19</ele>
        <time>2019-05-31T13:11:00Z</time>
      </trkpt>
      <trkpt lat="43.09177" lon="5.94825">
        <ele>-4.67</ele>
        <time>2019-05-31T13:11:09Z</time>
      </trkpt>
      <trkpt lat="43.0915" lon="5.94815">
        <ele>-5.15</ele>
        <time>2019-05-31T13:11:20Z</time>
      </trkpt>
      <trkpt lat="43.09123" lon="5.94808">
        <ele>-4.19</ele>
        <time>2019-05-31T13:11:31Z</time>
      </trkpt>
      <trkpt lat="43.09101" lon="5.94801">
        <ele>-3.71</ele>
        <time>2019-05-31T13:11:40Z</time>
      </trkpt>
      <trkpt lat="43.09078" lon="5.94798">
        <ele>-4.19</ele>
        <time>2019-05-31T13:11:50Z</time>
      </trkpt>
      <trkpt lat="43.09052" lon="5.94795">
        <ele>-4.19</ele>
        <time>2019-05-31T13:12:02Z</time>
      </trkpt>
      <trkpt lat="43.09025" lon="5.94787">
        <ele>-4.19</ele>
        <time>2019-05-31T13:12:13Z</time>
      </trkpt>
      <trkpt lat="43.08996" lon="5.9478">
        <ele>-4.67</ele>
        <time>2019-05-31T13:12:25Z</time>
      </trkpt>
      <trkpt lat="43.08971" lon="5.94773">
        <ele>-5.15</ele>
        <time>2019-05-31T13:12:35Z</time>
      </trkpt>
      <trkpt lat="43.08941" lon="5.94767">
        <ele>-5.15</ele>
        <time>2019-05-31T13:12:47Z</time>
      </trkpt>
      <trkpt lat="43.08913" lon="5.94757">
        <ele>-5.15</ele>
        <time>2019-05-31T13:12:58Z</time>
      </trkpt>
      <trkpt lat="43.08884" lon="5.94748">
        <ele>-6.59</ele>
        <time>2019-05-31T13:13:09Z</time>
      </trkpt>
      <trkpt lat="43.08861" lon="5.94742">
        <ele>-6.11</ele>
        <time>2019-05-31T13:13:18Z</time>
      </trkpt>
      <trkpt lat="43.0883" lon="5.94731">
        <ele>-4.67</ele>
        <time>2019-05-31T13:13:30Z</time>
      </trkpt>
      <trkpt lat="43.08807" lon="5.94722">
        <ele>-4.19</ele>
        <time>2019-05-31T13:13:39Z</time>
      </trkpt>
      <trkpt lat="43.08783" lon="5.94711">
        <ele>-3.71</ele>
        <time>2019-05-31T13:13:48Z</time>
      </trkpt>
      <trkpt lat="43.08755" lon="5.94702">
        <ele>-5.15</ele>
        <time>2019-05-31T13:13:58Z</time>
      </trkpt>
      <trkpt lat="43.08733" lon="5.94695">
        <ele>-5.15</ele>
        <time>2019-05-31T13:14:07Z</time>
      </trkpt>
      <trkpt lat="43.0872" lon="5.94691">
        <ele>-5.15</ele>
        <time>2019-05-31T13:14:12Z</time>
      </trkpt>
      <trkpt lat="43.08685" lon="5.94681">
        <ele>-4.67</ele>
        <time>2019-05-31T13:14:26Z</time>
      </trkpt>
      <trkpt lat="43.08653" lon="5.94674">
        <ele>-4.67</ele>
        <time>2019-05-31T13:14:39Z</time>
      </trkpt>
      <trkpt lat="43.08637" lon="5.94685">
        <ele>-4.67</ele>
        <time>2019-05-31T13:14:49Z</time>
      </trkpt>
      <trkpt lat="43.0864" lon="5.94706">
        <ele>-3.23</ele>
        <time>2019-05-31T13:14:59Z</time>
      </trkpt>
      <trkpt lat="43.08643" lon="5.94728">
        <ele>-2.27</ele>
        <time>2019-05-31T13:15:10Z</time>
      </trkpt>
      <trkpt lat="43.08646" lon="5.9475">
        <ele>-2.75</ele>
        <time>2019-05-31T13:15:20Z</time>
      </trkpt>
      <trkpt lat="43.0865" lon="5.94773">
        <ele>-2.27</ele>
        <time>2019-05-31T13:15:30Z</time>
      </trkpt>
      <trkpt lat="43.08652" lon="5.94797">
        <ele>-3.23</ele>
        <time>2019-05-31T13:15:40Z</time>
      </trkpt>
      <trkpt lat="43.08655" lon="5.9482">
        <ele>-4.19</ele>
        <time>2019-05-31T13:15:50Z</time>
      </trkpt>
      <trkpt lat="43.08657" lon="5.94846">
        <ele>-4.67</ele>
        <time>2019-05-31T13:16:01Z</time>
      </trkpt>
      <trkpt lat="43.08658" lon="5.94853">
        <ele>-5.15</ele>
        <time>2019-05-31T13:16:04Z</time>
      </trkpt>
      <trkpt lat="43.0866" lon="5.94874">
        <ele>-5.63</ele>
        <time>2019-05-31T13:16:13Z</time>
      </trkpt>
      <trkpt lat="43.08661" lon="5.94882">
        <ele>-5.63</ele>
        <time>2019-05-31T13:16:17Z</time>
      </trkpt>
      <trkpt lat="43.08664" lon="5.94907">
        <ele>-6.59</ele>
        <time>2019-05-31T13:16:27Z</time>
      </trkpt>
      <trkpt lat="43.08673" lon="5.94938">
        <ele>-7.07</ele>
        <time>2019-05-31T13:16:39Z</time>
      </trkpt>
      <trkpt lat="43.08685" lon="5.94972">
        <ele>-7.55</ele>
        <time>2019-05-31T13:16:51Z</time>
      </trkpt>
      <trkpt lat="43.08692" lon="5.95001">
        <ele>-7.55</ele>
        <time>2019-05-31T13:17:01Z</time>
      </trkpt>
      <trkpt lat="43.08697" lon="5.95016">
        <ele>-7.07</ele>
        <time>2019-05-31T13:17:06Z</time>
      </trkpt>
      <trkpt lat="43.08704" lon="5.95045">
        <ele>-7.07</ele>
        <time>2019-05-31T13:17:16Z</time>
      </trkpt>
      <trkpt lat="43.08705" lon="5.95048">
        <ele>-7.07</ele>
        <time>2019-05-31T13:17:17Z</time>
      </trkpt>
      <trkpt lat="43.08714" lon="5.95087">
        <ele>-7.07</ele>
        <time>2019-05-31T13:17:30Z</time>
      </trkpt>
      <trkpt lat="43.08722" lon="5.95123">
        <ele>-7.07</ele>
        <time>2019-05-31T13:17:42Z</time>
      </trkpt>
      <trkpt lat="43.08728" lon="5.95157">
        <ele>-7.55</ele>
        <time>2019-05-31T13:17:54Z</time>
      </trkpt>
      <trkpt lat="43.08735" lon="5.9519">
        <ele>-7.55</ele>
        <time>2019-05-31T13:18:06Z</time>
      </trkpt>
      <trkpt lat="43.08744" lon="5.95225">
        <ele>-7.07</ele>
        <time>2019-05-31T13:18:18Z</time>
      </trkpt>
      <trkpt lat="43.08753" lon="5.95258">
        <ele>-7.07</ele>
        <time>2019-05-31T13:18:29Z</time>
      </trkpt>
      <trkpt lat="43.08761" lon="5.95288">
        <ele>-7.07</ele>
        <time>2019-05-31T13:18:39Z</time>
      </trkpt>
      <trkpt lat="43.08764" lon="5.95303">
        <ele>-7.07</ele>
        <time>2019-05-31T13:18:44Z</time>
      </trkpt>
      <trkpt lat="43.08771" lon="5.95335">
        <ele>-7.07</ele>
        <time>2019-05-31T13:18:55Z</time>
      </trkpt>
      <trkpt lat="43.08772" lon="5.9535">
        <ele>-7.07</ele>
        <time>2019-05-31T13:19:01Z</time>
      </trkpt>
      <trkpt lat="43.08772" lon="5.95359">
        <ele>-6.59</ele>
        <time>2019-05-31T13:19:05Z</time>
      </trkpt>
      <trkpt lat="43.08774" lon="5.95379">
        <ele>-6.11</ele>
        <time>2019-05-31T13:19:15Z</time>
      </trkpt>
      <trkpt lat="43.08779" lon="5.95393">
        <ele>-6.59</ele>
        <time>2019-05-31T13:19:22Z</time>
      </trkpt>
      <trkpt lat="43.08783" lon="5.95407">
        <ele>-7.07</ele>
        <time>2019-05-31T13:19:28Z</time>
      </trkpt>
      <trkpt lat="43.08786" lon="5.95416">
        <ele>-7.07</ele>
        <time>2019-05-31T13:19:32Z</time>
      </trkpt>
      <trkpt lat="43.08794" lon="5.95446">
        <ele>-6.59</ele>
        <time>2019-05-31T13:19:44Z</time>
      </trkpt>
      <trkpt lat="43.08796" lon="5.95457">
        <ele>-6.59</ele>
        <time>2019-05-31T13:19:48Z</time>
      </trkpt>
      <trkpt lat="43.088" lon="5.95471">
        <ele>-6.11</ele>
        <time>2019-05-31T13:19:54Z</time>
      </trkpt>
      <trkpt lat="43.08809" lon="5.95507">
        <ele>-6.11</ele>
        <time>2019-05-31T13:20:07Z</time>
      </trkpt>
      <trkpt lat="43.08813" lon="5.95524">
        <ele>-6.11</ele>
        <time>2019-05-31T13:20:13Z</time>
      </trkpt>
      <trkpt lat="43.08822" lon="5.95561">
        <ele>-5.63</ele>
        <time>2019-05-31T13:20:26Z</time>
      </trkpt>
      <trkpt lat="43.08832" lon="5.956">
        <ele>-4.67</ele>
        <time>2019-05-31T13:20:40Z</time>
      </trkpt>
      <trkpt lat="43.0884" lon="5.95629">
        <ele>-3.71</ele>
        <time>2019-05-31T13:20:51Z</time>
      </trkpt>
      <trkpt lat="43.08847" lon="5.95666">
        <ele>-4.19</ele>
        <time>2019-05-31T13:21:04Z</time>
      </trkpt>
      <trkpt lat="43.08857" lon="5.95699">
        <ele>-4.19</ele>
        <time>2019-05-31T13:21:16Z</time>
      </trkpt>
      <trkpt lat="43.08865" lon="5.9573">
        <ele>-3.71</ele>
        <time>2019-05-31T13:21:27Z</time>
      </trkpt>
      <trkpt lat="43.08871" lon="5.95755">
        <ele>-3.71</ele>
        <time>2019-05-31T13:21:36Z</time>
      </trkpt>
      <trkpt lat="43.08872" lon="5.95758">
        <ele>-3.71</ele>
        <time>2019-05-31T13:21:37Z</time>
      </trkpt>
      <trkpt lat="43.08878" lon="5.95784">
        <ele>-3.71</ele>
        <time>2019-05-31T13:21:46Z</time>
      </trkpt>
      <trkpt lat="43.08885" lon="5.95815">
        <ele>-3.71</ele>
        <time>2019-05-31T13:21:57Z</time>
      </trkpt>
      <trkpt lat="43.08894" lon="5.95843">
        <ele>-3.71</ele>
        <time>2019-05-31T13:22:07Z</time>
      </trkpt>
      <trkpt lat="43.08906" lon="5.95877">
        <ele>-2.75</ele>
        <time>2019-05-31T13:22:19Z</time>
      </trkpt>
      <trkpt lat="43.0893" lon="5.95905">
        <ele>-3.23</ele>
        <time>2019-05-31T13:22:31Z</time>
      </trkpt>
      <trkpt lat="43.08964" lon="5.95915">
        <ele>-3.23</ele>
        <time>2019-05-31T13:22:44Z</time>
      </trkpt>
      <trkpt lat="43.08985" lon="5.9593">
        <ele>-4.19</ele>
        <time>2019-05-31T13:22:54Z</time>
      </trkpt>
      <trkpt lat="43.09012" lon="5.95942">
        <ele>-3.71</ele>
        <time>2019-05-31T13:23:05Z</time>
      </trkpt>
      <trkpt lat="43.09044" lon="5.95959">
        <ele>-3.71</ele>
        <time>2019-05-31T13:23:19Z</time>
      </trkpt>
      <trkpt lat="43.09077" lon="5.95958">
        <ele>-3.71</ele>
        <time>2019-05-31T13:23:33Z</time>
      </trkpt>
      <trkpt lat="43.09111" lon="5.95956">
        <ele>-2.75</ele>
        <time>2019-05-31T13:23:49Z</time>
      </trkpt>
      <trkpt lat="43.09148" lon="5.95955">
        <ele>-1.79</ele>
        <time>2019-05-31T13:24:08Z</time>
      </trkpt>
      <trkpt lat="43.09179" lon="5.95951">
        <ele>-2.27</ele>
        <time>2019-05-31T13:24:24Z</time>
      </trkpt>
      <trkpt lat="43.09207" lon="5.95949">
        <ele>-2.75</ele>
        <time>2019-05-31T13:24:39Z</time>
      </trkpt>
      <trkpt lat="43.09241" lon="5.95942">
        <ele>-3.23</ele>
        <time>2019-05-31T13:24:58Z</time>
      </trkpt>
      <trkpt lat="43.09267" lon="5.95941">
        <ele>-2.75</ele>
        <time>2019-05-31T13:25:12Z</time>
      </trkpt>
      <trkpt lat="43.09298" lon="5.95938">
        <ele>-2.27</ele>
        <time>2019-05-31T13:25:29Z</time>
      </trkpt>
      <trkpt lat="43.09324" lon="5.95935">
        <ele>-2.75</ele>
        <time>2019-05-31T13:25:43Z</time>
      </trkpt>
      <trkpt lat="43.09356" lon="5.95931">
        <ele>-2.75</ele>
        <time>2019-05-31T13:26:00Z</time>
      </trkpt>
      <trkpt lat="43.09387" lon="5.95927">
        <ele>-2.75</ele>
        <time>2019-05-31T13:26:17Z</time>
      </trkpt>
      <trkpt lat="43.09415" lon="5.95924">
        <ele>-3.23</ele>
        <time>2019-05-31T13:26:33Z</time>
      </trkpt>
      <trkpt lat="43.09442" lon="5.9592">
        <ele>-3.71</ele>
        <time>2019-05-31T13:26:48Z</time>
      </trkpt>
      <trkpt lat="43.0947" lon="5.95915">
        <ele>-3.23</ele>
        <time>2019-05-31T13:27:04Z</time>
      </trkpt>
      <trkpt lat="43.09492" lon="5.95911">
        <ele>-3.23</ele>
        <time>2019-05-31T13:27:17Z</time>
      </trkpt>
      <trkpt lat="43.09526" lon="5.95905">
        <ele>-2.75</ele>
        <time>2019-05-31T13:27:37Z</time>
      </trkpt>
      <trkpt lat="43.09552" lon="5.95901">
        <ele>-2.75</ele>
        <time>2019-05-31T13:27:52Z</time>
      </trkpt>
      <trkpt lat="43.09583" lon="5.95897">
        <ele>-2.75</ele>
        <time>2019-05-31T13:28:09Z</time>
      </trkpt>
      <trkpt lat="43.09619" lon="5.9589">
        <ele>-2.75</ele>
        <time>2019-05-31T13:28:29Z</time>
      </trkpt>
      <trkpt lat="43.09651" lon="5.95883">
        <ele>-3.23</ele>
        <time>2019-05-31T13:28:47Z</time>
      </trkpt>
      <trkpt lat="43.09685" lon="5.95877">
        <ele>-3.23</ele>
        <time>2019-05-31T13:29:06Z</time>
      </trkpt>
      <trkpt lat="43.09714" lon="5.95872">
        <ele>-3.23</ele>
        <time>2019-05-31T13:29:21Z</time>
      </trkpt>
      <trkpt lat="43.09745" lon="5.95866">
        <ele>-3.23</ele>
        <time>2019-05-31T13:29:37Z</time>
      </trkpt>
      <trkpt lat="43.09775" lon="5.95862">
        <ele>-3.23</ele>
        <time>2019-05-31T13:29:53Z</time>
      </trkpt>
      <trkpt lat="43.09807" lon="5.95854">
        <ele>-2.75</ele>
        <time>2019-05-31T13:30:10Z</time>
      </trkpt>
      <trkpt lat="43.09837" lon="5.95841">
        <ele>-3.23</ele>
        <time>2019-05-31T13:30:27Z</time>
      </trkpt>
      <trkpt lat="43.09862" lon="5.95816">
        <ele>-2.75</ele>
        <time>2019-05-31T13:30:47Z</time>
      </trkpt>
      <trkpt lat="43.09889" lon="5.95798">
        <ele>-2.27</ele>
        <time>2019-05-31T13:31:05Z</time>
      </trkpt>
      <trkpt lat="43.09914" lon="5.95778">
        <ele>-3.71</ele>
        <time>2019-05-31T13:31:21Z</time>
      </trkpt>
      <trkpt lat="43.09941" lon="5.95749">
        <ele>-3.23</ele>
        <time>2019-05-31T13:31:41Z</time>
      </trkpt>
      <trkpt lat="43.0996" lon="5.9573">
        <ele>-3.23</ele>
        <time>2019-05-31T13:31:55Z</time>
      </trkpt>
      <trkpt lat="43.09984" lon="5.95702">
        <ele>-4.19</ele>
        <time>2019-05-31T13:32:13Z</time>
      </trkpt>
      <trkpt lat="43.10006" lon="5.95676">
        <ele>-3.71</ele>
        <time>2019-05-31T13:32:29Z</time>
      </trkpt>
      <trkpt lat="43.1003" lon="5.9565">
        <ele>-4.19</ele>
        <time>2019-05-31T13:32:47Z</time>
      </trkpt>
      <trkpt lat="43.10052" lon="5.95621">
        <ele>-4.19</ele>
        <time>2019-05-31T13:33:05Z</time>
      </trkpt>
      <trkpt lat="43.10075" lon="5.95592">
        <ele>-4.19</ele>
        <time>2019-05-31T13:33:24Z</time>
      </trkpt>
      <trkpt lat="43.10101" lon="5.95564">
        <ele>-3.71</ele>
        <time>2019-05-31T13:33:43Z</time>
      </trkpt>
      <trkpt lat="43.10128" lon="5.95541">
        <ele>-3.23</ele>
        <time>2019-05-31T13:34:01Z</time>
      </trkpt>
      <trkpt lat="43.10154" lon="5.9552">
        <ele>-3.23</ele>
        <time>2019-05-31T13:34:18Z</time>
      </trkpt>
      <trkpt lat="43.10176" lon="5.95497">
        <ele>-3.71</ele>
        <time>2019-05-31T13:34:34Z</time>
      </trkpt>
      <trkpt lat="43.10197" lon="5.95467">
        <ele>-3.71</ele>
        <time>2019-05-31T13:34:52Z</time>
      </trkpt>
      <trkpt lat="43.10212" lon="5.95439">
        <ele>-3.71</ele>
        <time>2019-05-31T13:35:08Z</time>
      </trkpt>
      <trkpt lat="43.10223" lon="5.95406">
        <ele>-3.71</ele>
        <time>2019-05-31T13:35:24Z</time>
      </trkpt>
      <trkpt lat="43.10229" lon="5.95374">
        <ele>-3.71</ele>
        <time>2019-05-31T13:35:38Z</time>
      </trkpt>
      <trkpt lat="43.10234" lon="5.95337">
        <ele>-3.23</ele>
        <time>2019-05-31T13:35:53Z</time>
      </trkpt>
      <trkpt lat="43.10239" lon="5.95302">
        <ele>-2.75</ele>
        <time>2019-05-31T13:36:06Z</time>
      </trkpt>
      <trkpt lat="43.10245" lon="5.95262">
        <ele>-3.23</ele>
        <time>2019-05-31T13:36:21Z</time>
      </trkpt>
      <trkpt lat="43.10249" lon="5.95225">
        <ele>-4.19</ele>
        <time>2019-05-31T13:36:35Z</time>
      </trkpt>
      <trkpt lat="43.10257" lon="5.95174">
        <ele>-4.19</ele>
        <time>2019-05-31T13:36:55Z</time>
      </trkpt>
      <trkpt lat="43.10266" lon="5.95121">
        <ele>-4.67</ele>
        <time>2019-05-31T13:37:15Z</time>
      </trkpt>
      <trkpt lat="43.10273" lon="5.9508">
        <ele>-5.15</ele>
        <time>2019-05-31T13:37:31Z</time>
      </trkpt>
      <trkpt lat="43.10274" lon="5.95045">
        <ele>-4.19</ele>
        <time>2019-05-31T13:37:45Z</time>
      </trkpt>
      <trkpt lat="43.10269" lon="5.95013">
        <ele>-4.19</ele>
        <time>2019-05-31T13:37:58Z</time>
      </trkpt>
      <trkpt lat="43.1026" lon="5.94985">
        <ele>-4.19</ele>
        <time>2019-05-31T13:38:10Z</time>
      </trkpt>
      <trkpt lat="43.10248" lon="5.94949">
        <ele>-3.71</ele>
        <time>2019-05-31T13:38:25Z</time>
      </trkpt>
      <trkpt lat="43.10237" lon="5.94917">
        <ele>-3.71</ele>
        <time>2019-05-31T13:38:38Z</time>
      </trkpt>
      <trkpt lat="43.10227" lon="5.94888">
        <ele>-3.23</ele>
        <time>2019-05-31T13:38:49Z</time>
      </trkpt>
      <trkpt lat="43.10215" lon="5.94853">
        <ele>-2.75</ele>
        <time>2019-05-31T13:39:02Z</time>
      </trkpt>
      <trkpt lat="43.10201" lon="5.94819">
        <ele>-2.75</ele>
        <time>2019-05-31T13:39:16Z</time>
      </trkpt>
      <trkpt lat="43.10189" lon="5.94788">
        <ele>-3.23</ele>
        <time>2019-05-31T13:39:29Z</time>
      </trkpt>
      <trkpt lat="43.10173" lon="5.9475">
        <ele>-2.75</ele>
        <time>2019-05-31T13:39:46Z</time>
      </trkpt>
      <trkpt lat="43.10172" lon="5.94747">
        <ele>-2.75</ele>
        <time>2019-05-31T13:39:47Z</time>
      </trkpt>
      <trkpt lat="43.10163" lon="5.94731">
        <ele>-2.27</ele>
        <time>2019-05-31T13:39:55Z</time>
      </trkpt>
      <trkpt lat="43.10153" lon="5.94699">
        <ele>-1.79</ele>
        <time>2019-05-31T13:40:10Z</time>
      </trkpt>
      <trkpt lat="43.10146" lon="5.94674">
        <ele>-2.75</ele>
        <time>2019-05-31T13:40:22Z</time>
      </trkpt>
      <trkpt lat="43.10143" lon="5.94663">
        <ele>-3.23</ele>
        <time>2019-05-31T13:40:28Z</time>
      </trkpt>
      <trkpt lat="43.10135" lon="5.94644">
        <ele>-3.23</ele>
        <time>2019-05-31T13:40:39Z</time>
      </trkpt>
      <trkpt lat="43.1013" lon="5.94634">
        <ele>-3.23</ele>
        <time>2019-05-31T13:40:45Z</time>
      </trkpt>
      <trkpt lat="43.10127" lon="5.94627">
        <ele>-3.23</ele>
        <time>2019-05-31T13:40:49Z</time>
      </trkpt>
      <trkpt lat="43.10125" lon="5.94622">
        <ele>-2.75</ele>
        <time>2019-05-31T13:40:52Z</time>
      </trkpt>
      <trkpt lat="43.1012" lon="5.9461">
        <ele>-2.75</ele>
        <time>2019-05-31T13:40:59Z</time>
      </trkpt>
      <trkpt lat="43.10114" lon="5.94601">
        <ele>-1.79</ele>
        <time>2019-05-31T13:41:05Z</time>
      </trkpt>
      <trkpt lat="43.10105" lon="5.94581">
        <ele>-1.79</ele>
        <time>2019-05-31T13:41:17Z</time>
      </trkpt>
      <trkpt lat="43.10103" lon="5.94577">
        <ele>-1.79</ele>
        <time>2019-05-31T13:41:19Z</time>
      </trkpt>
      <trkpt lat="43.101" lon="5.94569">
        <ele>-1.79</ele>
        <time>2019-05-31T13:41:24Z</time>
      </trkpt>
      <trkpt lat="43.10093" lon="5.94553">
        <ele>-2.27</ele>
        <time>2019-05-31T13:41:33Z</time>
      </trkpt>
      <trkpt lat="43.1009" lon="5.94547">
        <ele>-2.27</ele>
        <time>2019-05-31T13:41:37Z</time>
      </trkpt>
      <trkpt lat="43.10079" lon="5.94525">
        <ele>-1.79</ele>
        <time>2019-05-31T13:41:50Z</time>
      </trkpt>
      <trkpt lat="43.10069" lon="5.94504">
        <ele>-1.79</ele>
        <time>2019-05-31T13:42:02Z</time>
      </trkpt>
      <trkpt lat="43.10057" lon="5.94481">
        <ele>-1.79</ele>
        <time>2019-05-31T13:42:16Z</time>
      </trkpt>
      <trkpt lat="43.10045" lon="5.94457">
        <ele>-1.3</ele>
        <time>2019-05-31T13:42:30Z</time>
      </trkpt>
      <trkpt lat="43.10035" lon="5.94436">
        <ele>-1.3</ele>
        <time>2019-05-31T13:42:42Z</time>
      </trkpt>
      <trkpt lat="43.10031" lon="5.94428">
        <ele>-1.3</ele>
        <time>2019-05-31T13:42:46Z</time>
      </trkpt>
      <trkpt lat="43.10021" lon="5.94408">
        <ele>-2.75</ele>
        <time>2019-05-31T13:42:57Z</time>
      </trkpt>
      <trkpt lat="43.10014" lon="5.94395">
        <ele>-2.75</ele>
        <time>2019-05-31T13:43:04Z</time>
      </trkpt>
      <trkpt lat="43.10008" lon="5.94384">
        <ele>-2.75</ele>
        <time>2019-05-31T13:43:10Z</time>
      </trkpt>
      <trkpt lat="43.0999" lon="5.9435">
        <ele>-2.75</ele>
        <time>2019-05-31T13:43:27Z</time>
      </trkpt>
      <trkpt lat="43.09976" lon="5.94322">
        <ele>-2.75</ele>
        <time>2019-05-31T13:43:41Z</time>
      </trkpt>
      <trkpt lat="43.0996" lon="5.94295">
        <ele>-3.23</ele>
        <time>2019-05-31T13:43:55Z</time>
      </trkpt>
      <trkpt lat="43.09943" lon="5.94266">
        <ele>-2.75</ele>
        <time>2019-05-31T13:44:10Z</time>
      </trkpt>
      <trkpt lat="43.09941" lon="5.94265">
        <ele>-2.75</ele>
        <time>2019-05-31T13:44:11Z</time>
      </trkpt>
      <trkpt lat="43.09934" lon="5.94254">
        <ele>-2.75</ele>
        <time>2019-05-31T13:44:17Z</time>
      </trkpt>
      <trkpt lat="43.09928" lon="5.94247">
        <ele>-2.75</ele>
        <time>2019-05-31T13:44:21Z</time>
      </trkpt>
      <trkpt lat="43.0992" lon="5.94233">
        <ele>-2.75</ele>
        <time>2019-05-31T13:44:28Z</time>
      </trkpt>
      <trkpt lat="43.09903" lon="5.94206">
        <ele>-3.23</ele>
        <time>2019-05-31T13:44:41Z</time>
      </trkpt>
      <trkpt lat="43.09895" lon="5.94195">
        <ele>-3.23</ele>
        <time>2019-05-31T13:44:47Z</time>
      </trkpt>
      <trkpt lat="43.09879" lon="5.94173">
        <ele>-3.71</ele>
        <time>2019-05-31T13:44:58Z</time>
      </trkpt>
      <trkpt lat="43.09861" lon="5.94147">
        <ele>-3.71</ele>
        <time>2019-05-31T13:45:11Z</time>
      </trkpt>
      <trkpt lat="43.09846" lon="5.94124">
        <ele>-3.71</ele>
        <time>2019-05-31T13:45:22Z</time>
      </trkpt>
      <trkpt lat="43.09841" lon="5.94116">
        <ele>-3.71</ele>
        <time>2019-05-31T13:45:26Z</time>
      </trkpt>
      <trkpt lat="43.09834" lon="5.94107">
        <ele>-3.71</ele>
        <time>2019-05-31T13:45:31Z</time>
      </trkpt>
      <trkpt lat="43.0983" lon="5.94102">
        <ele>-3.23</ele>
        <time>2019-05-31T13:45:34Z</time>
      </trkpt>
      <trkpt lat="43.09821" lon="5.94087">
        <ele>-3.23</ele>
        <time>2019-05-31T13:45:41Z</time>
      </trkpt>
      <trkpt lat="43.098" lon="5.94057">
        <ele>-3.23</ele>
        <time>2019-05-31T13:45:56Z</time>
      </trkpt>
      <trkpt lat="43.09782" lon="5.9403">
        <ele>-3.23</ele>
        <time>2019-05-31T13:46:10Z</time>
      </trkpt>
      <trkpt lat="43.09763" lon="5.94004">
        <ele>-2.27</ele>
        <time>2019-05-31T13:46:24Z</time>
      </trkpt>
      <trkpt lat="43.09744" lon="5.93975">
        <ele>-2.27</ele>
        <time>2019-05-31T13:46:38Z</time>
      </trkpt>
      <trkpt lat="43.09722" lon="5.93941">
        <ele>-2.75</ele>
        <time>2019-05-31T13:46:55Z</time>
      </trkpt>
      <trkpt lat="43.09703" lon="5.93914">
        <ele>-3.23</ele>
        <time>2019-05-31T13:47:09Z</time>
      </trkpt>
      <trkpt lat="43.09684" lon="5.93887">
        <ele>-4.19</ele>
        <time>2019-05-31T13:47:23Z</time>
      </trkpt>
      <trkpt lat="43.09665" lon="5.93861">
        <ele>-3.71</ele>
        <time>2019-05-31T13:47:37Z</time>
      </trkpt>
      <trkpt lat="43.09646" lon="5.93834">
        <ele>-4.19</ele>
        <time>2019-05-31T13:47:51Z</time>
      </trkpt>
      <trkpt lat="43.09629" lon="5.93809">
        <ele>-4.67</ele>
        <time>2019-05-31T13:48:04Z</time>
      </trkpt>
      <trkpt lat="43.09599" lon="5.93768">
        <ele>-4.67</ele>
        <time>2019-05-31T13:48:25Z</time>
      </trkpt>
      <trkpt lat="43.09573" lon="5.93734">
        <ele>-4.67</ele>
        <time>2019-05-31T13:48:43Z</time>
      </trkpt>
      <trkpt lat="43.09555" lon="5.93709">
        <ele>-4.19</ele>
        <time>2019-05-31T13:48:56Z</time>
      </trkpt>
      <trkpt lat="43.09537" lon="5.93683">
        <ele>-4.19</ele>
        <time>2019-05-31T13:49:09Z</time>
      </trkpt>
      <trkpt lat="43.09519" lon="5.93661">
        <ele>-4.67</ele>
        <time>2019-05-31T13:49:20Z</time>
      </trkpt>
      <trkpt lat="43.09499" lon="5.93635">
        <ele>-5.63</ele>
        <time>2019-05-31T13:49:33Z</time>
      </trkpt>
      <trkpt lat="43.09479" lon="5.93609">
        <ele>-6.11</ele>
        <time>2019-05-31T13:49:46Z</time>
      </trkpt>
      <trkpt lat="43.09454" lon="5.93576">
        <ele>-4.67</ele>
        <time>2019-05-31T13:50:03Z</time>
      </trkpt>
      <trkpt lat="43.09433" lon="5.93549">
        <ele>-3.71</ele>
        <time>2019-05-31T13:50:17Z</time>
      </trkpt>
      <trkpt lat="43.09426" lon="5.9354">
        <ele>-4.19</ele>
        <time>2019-05-31T13:50:22Z</time>
      </trkpt>
      <trkpt lat="43.09407" lon="5.93515">
        <ele>-3.71</ele>
        <time>2019-05-31T13:50:36Z</time>
      </trkpt>
      <trkpt lat="43.09397" lon="5.93501">
        <ele>-3.23</ele>
        <time>2019-05-31T13:50:44Z</time>
      </trkpt>
      <trkpt lat="43.09382" lon="5.93481">
        <ele>-3.23</ele>
        <time>2019-05-31T13:50:56Z</time>
      </trkpt>
      <trkpt lat="43.09377" lon="5.93472">
        <ele>-3.23</ele>
        <time>2019-05-31T13:51:01Z</time>
      </trkpt>
      <trkpt lat="43.0936" lon="5.93451">
        <ele>-3.71</ele>
        <time>2019-05-31T13:51:16Z</time>
      </trkpt>
      <trkpt lat="43.09352" lon="5.93441">
        <ele>-3.71</ele>
        <time>2019-05-31T13:51:23Z</time>
      </trkpt>
      <trkpt lat="43.09336" lon="5.93423">
        <ele>-3.23</ele>
        <time>2019-05-31T13:51:38Z</time>
      </trkpt>
      <trkpt lat="43.09322" lon="5.93403">
        <ele>-2.75</ele>
        <time>2019-05-31T13:51:53Z</time>
      </trkpt>
      <trkpt lat="43.09306" lon="5.93385">
        <ele>-2.27</ele>
        <time>2019-05-31T13:52:09Z</time>
      </trkpt>
      <trkpt lat="43.09293" lon="5.93369">
        <ele>-2.75</ele>
        <time>2019-05-31T13:52:22Z</time>
      </trkpt>
      <trkpt lat="43.09276" lon="5.93349">
        <ele>-2.75</ele>
        <time>2019-05-31T13:52:33Z</time>
      </trkpt>
      <trkpt lat="43.0925" lon="5.93319">
        <ele>-2.75</ele>
        <time>2019-05-31T13:52:47Z</time>
      </trkpt>
      <trkpt lat="43.09221" lon="5.93287">
        <ele>-1.79</ele>
        <time>2019-05-31T13:53:01Z</time>
      </trkpt>
      <trkpt lat="43.09194" lon="5.93253">
        <ele>-1.79</ele>
        <time>2019-05-31T13:53:14Z</time>
      </trkpt>
      <trkpt lat="43.09177" lon="5.93223">
        <ele>-2.27</ele>
        <time>2019-05-31T13:53:24Z</time>
      </trkpt>
      <trkpt lat="43.09153" lon="5.9317">
        <ele>-3.71</ele>
        <time>2019-05-31T13:53:40Z</time>
      </trkpt>
      <trkpt lat="43.09131" lon="5.93127">
        <ele>-4.19</ele>
        <time>2019-05-31T13:53:54Z</time>
      </trkpt>
      <trkpt lat="43.09098" lon="5.93061">
        <ele>-3.23</ele>
        <time>2019-05-31T13:54:15Z</time>
      </trkpt>
      <trkpt lat="43.09062" lon="5.92991">
        <ele>-3.23</ele>
        <time>2019-05-31T13:54:35Z</time>
      </trkpt>
      <trkpt lat="43.09029" lon="5.92926">
        <ele>-3.23</ele>
        <time>2019-05-31T13:54:53Z</time>
      </trkpt>
      <trkpt lat="43.09002" lon="5.92865">
        <ele>-3.23</ele>
        <time>2019-05-31T13:55:09Z</time>
      </trkpt>
      <trkpt lat="43.08969" lon="5.9281">
        <ele>-3.71</ele>
        <time>2019-05-31T13:55:25Z</time>
      </trkpt>
      <trkpt lat="43.0893" lon="5.92762">
        <ele>-3.23</ele>
        <time>2019-05-31T13:55:43Z</time>
      </trkpt>
      <trkpt lat="43.08901" lon="5.92731">
        <ele>-3.23</ele>
        <time>2019-05-31T13:55:57Z</time>
      </trkpt>
      <trkpt lat="43.08867" lon="5.92663">
        <ele>-3.23</ele>
        <time>2019-05-31T13:56:17Z</time>
      </trkpt>
      <trkpt lat="43.08847" lon="5.9258">
        <ele>-3.71</ele>
        <time>2019-05-31T13:56:37Z</time>
      </trkpt>
      <trkpt lat="43.08843" lon="5.92516">
        <ele>-3.23</ele>
        <time>2019-05-31T13:56:52Z</time>
      </trkpt>
      <trkpt lat="43.0884" lon="5.9244">
        <ele>-3.23</ele>
        <time>2019-05-31T13:57:09Z</time>
      </trkpt>
      <trkpt lat="43.08844" lon="5.92365">
        <ele>-1.79</ele>
        <time>2019-05-31T13:57:26Z</time>
      </trkpt>
      <trkpt lat="43.08849" lon="5.92265">
        <ele>-0.82</ele>
        <time>2019-05-31T13:57:48Z</time>
      </trkpt>
      <trkpt lat="43.08849" lon="5.92178">
        <ele>-0.34</ele>
        <time>2019-05-31T13:58:07Z</time>
      </trkpt>
      <trkpt lat="43.08853" lon="5.92092">
        <ele>-1.3</ele>
        <time>2019-05-31T13:58:26Z</time>
      </trkpt>
      <trkpt lat="43.08863" lon="5.92011">
        <ele>-2.27</ele>
        <time>2019-05-31T13:58:45Z</time>
      </trkpt>
      <trkpt lat="43.0888" lon="5.91927">
        <ele>-1.79</ele>
        <time>2019-05-31T13:59:05Z</time>
      </trkpt>
      <trkpt lat="43.08887" lon="5.9181">
        <ele>-0.82</ele>
        <time>2019-05-31T13:59:31Z</time>
      </trkpt>
      <trkpt lat="43.08886" lon="5.91729">
        <ele>-0.34</ele>
        <time>2019-05-31T13:59:49Z</time>
      </trkpt>
      <trkpt lat="43.08885" lon="5.91652">
        <ele>-0.82</ele>
        <time>2019-05-31T14:00:06Z</time>
      </trkpt>
      <trkpt lat="43.08886" lon="5.91572">
        <ele>-0.34</ele>
        <time>2019-05-31T14:00:24Z</time>
      </trkpt>
      <trkpt lat="43.08884" lon="5.91498">
        <ele>0.14</ele>
        <time>2019-05-31T14:00:43Z</time>
      </trkpt>
      <trkpt lat="43.0886" lon="5.91486">
        <ele>-0.34</ele>
        <time>2019-05-31T14:00:57Z</time>
      </trkpt>
      <trkpt lat="43.08843" lon="5.91501">
        <ele>-1.3</ele>
        <time>2019-05-31T14:01:11Z</time>
      </trkpt>
      <trkpt lat="43.08826" lon="5.91508">
        <ele>-1.3</ele>
        <time>2019-05-31T14:01:26Z</time>
      </trkpt>
      <trkpt lat="43.08811" lon="5.91518">
        <ele>-2.27</ele>
        <time>2019-05-31T14:01:41Z</time>
      </trkpt>
      <trkpt lat="43.08796" lon="5.9153">
        <ele>-2.75</ele>
        <time>2019-05-31T14:01:57Z</time>
      </trkpt>
      <trkpt lat="43.08779" lon="5.91542">
        <ele>-3.23</ele>
        <time>2019-05-31T14:02:16Z</time>
      </trkpt>
      <trkpt lat="43.08763" lon="5.9156">
        <ele>-3.71</ele>
        <time>2019-05-31T14:02:38Z</time>
      </trkpt>
      <trkpt lat="43.08745" lon="5.91574">
        <ele>-3.71</ele>
        <time>2019-05-31T14:02:58Z</time>
      </trkpt>
      <trkpt lat="43.08733" lon="5.91589">
        <ele>-3.71</ele>
        <time>2019-05-31T14:03:16Z</time>
      </trkpt>
      <trkpt lat="43.08713" lon="5.91606">
        <ele>-2.27</ele>
        <time>2019-05-31T14:03:33Z</time>
      </trkpt>
      <trkpt lat="43.08709" lon="5.91581">
        <ele>-2.75</ele>
        <time>2019-05-31T14:03:43Z</time>
      </trkpt>
      <trkpt lat="43.08707" lon="5.91512">
        <ele>-2.27</ele>
        <time>2019-05-31T14:04:01Z</time>
      </trkpt>
      <trkpt lat="43.08684" lon="5.91424">
        <ele>-3.71</ele>
        <time>2019-05-31T14:04:24Z</time>
      </trkpt>
      <trkpt lat="43.08654" lon="5.91339">
        <ele>-5.63</ele>
        <time>2019-05-31T14:04:47Z</time>
      </trkpt>
      <trkpt lat="43.08622" lon="5.91266">
        <ele>-4.67</ele>
        <time>2019-05-31T14:05:08Z</time>
      </trkpt>
      <trkpt lat="43.08582" lon="5.91193">
        <ele>-3.23</ele>
        <time>2019-05-31T14:05:31Z</time>
      </trkpt>
      <trkpt lat="43.08558" lon="5.9114">
        <ele>-3.23</ele>
        <time>2019-05-31T14:05:51Z</time>
      </trkpt>
      <trkpt lat="43.08517" lon="5.91071">
        <ele>-3.23</ele>
        <time>2019-05-31T14:06:16Z</time>
      </trkpt>
      <trkpt lat="43.08468" lon="5.91018">
        <ele>-2.27</ele>
        <time>2019-05-31T14:06:40Z</time>
      </trkpt>
      <trkpt lat="43.08425" lon="5.90974">
        <ele>-1.79</ele>
        <time>2019-05-31T14:07:01Z</time>
      </trkpt>
      <trkpt lat="43.08374" lon="5.90923">
        <ele>-2.27</ele>
        <time>2019-05-31T14:07:27Z</time>
      </trkpt>
      <trkpt lat="43.08333" lon="5.90889">
        <ele>-2.75</ele>
        <time>2019-05-31T14:07:51Z</time>
      </trkpt>
      <trkpt lat="43.08299" lon="5.90856">
        <ele>-2.27</ele>
        <time>2019-05-31T14:08:19Z</time>
      </trkpt>
      <trkpt lat="43.08278" lon="5.90832">
        <ele>-1.79</ele>
        <time>2019-05-31T14:08:43Z</time>
      </trkpt>
      <trkpt lat="43.08251" lon="5.90803">
        <ele>-1.79</ele>
        <time>2019-05-31T14:09:14Z</time>
      </trkpt>
      <trkpt lat="43.08229" lon="5.90781">
        <ele>-1.3</ele>
        <time>2019-05-31T14:09:41Z</time>
      </trkpt>
      <trkpt lat="43.08204" lon="5.90755">
        <ele>-1.3</ele>
        <time>2019-05-31T14:10:11Z</time>
      </trkpt>
      <trkpt lat="43.08182" lon="5.90727">
        <ele>-1.79</ele>
        <time>2019-05-31T14:10:38Z</time>
      </trkpt>
      <trkpt lat="43.08159" lon="5.90703">
        <ele>0.14</ele>
        <time>2019-05-31T14:11:03Z</time>
      </trkpt>
      <trkpt lat="43.08135" lon="5.90685">
        <ele>-2.27</ele>
        <time>2019-05-31T14:11:30Z</time>
      </trkpt>
      <trkpt lat="43.08107" lon="5.90679">
        <ele>-3.71</ele>
        <time>2019-05-31T14:11:57Z</time>
      </trkpt>
      <trkpt lat="43.08099" lon="5.90665">
        <ele>-2.75</ele>
        <time>2019-05-31T14:12:17Z</time>
      </trkpt>
      <trkpt lat="43.08103" lon="5.9066">
        <ele>-3.71</ele>
        <time>2019-05-31T14:12:44Z</time>
      </trkpt>
      <trkpt lat="43.08103" lon="5.90659">
        <ele>-3.71</ele>
        <time>2019-05-31T14:13:04Z</time>
      </trkpt>
      <trkpt lat="43.08095" lon="5.90663">
        <ele>-4.19</ele>
        <time>2019-05-31T14:13:27Z</time>
      </trkpt>
      <trkpt lat="43.08088" lon="5.90681">
        <ele>-3.71</ele>
        <time>2019-05-31T14:13:50Z</time>
      </trkpt>
      <trkpt lat="43.08084" lon="5.90709">
        <ele>-3.71</ele>
        <time>2019-05-31T14:14:19Z</time>
      </trkpt>
      <trkpt lat="43.08066" lon="5.90713">
        <ele>-3.71</ele>
        <time>2019-05-31T14:14:45Z</time>
      </trkpt>
      <trkpt lat="43.08046" lon="5.90706">
        <ele>-4.19</ele>
        <time>2019-05-31T14:15:10Z</time>
      </trkpt>
      <trkpt lat="43.08031" lon="5.90699">
        <ele>-4.19</ele>
        <time>2019-05-31T14:15:30Z</time>
      </trkpt>
      <trkpt lat="43.08018" lon="5.90687">
        <ele>-2.75</ele>
        <time>2019-05-31T14:15:51Z</time>
      </trkpt>
      <trkpt lat="43.08017" lon="5.90675">
        <ele>0.62</ele>
        <time>2019-05-31T14:16:15Z</time>
      </trkpt>
      <trkpt lat="43.08017" lon="5.90676">
        <ele>2.06</ele>
        <time>2019-05-31T14:16:35Z</time>
      </trkpt>
      <trkpt lat="43.08017" lon="5.90676">
        <ele>3.5</ele>
        <time>2019-05-31T14:17:00Z</time>
      </trkpt>
      <trkpt lat="43.08017" lon="5.90676">
        <ele>4.46</ele>
        <time>2019-05-31T14:17:29Z</time>
      </trkpt>
      <trkpt lat="43.08017" lon="5.90676">
        <ele>4.46</ele>
        <time>2019-05-31T14:17:56Z</time>
      </trkpt>
      <trkpt lat="43.08017" lon="5.90677">
        <ele>3.5</ele>
        <time>2019-05-31T14:18:25Z</time>
      </trkpt>
      <trkpt lat="43.08016" lon="5.90676">
        <ele>2.06</ele>
        <time>2019-05-31T14:18:53Z</time>
      </trkpt>
      <trkpt lat="43.08015" lon="5.90677">
        <ele>2.54</ele>
        <time>2019-05-31T14:19:25Z</time>
      </trkpt>
      <trkpt lat="43.08017" lon="5.90675">
        <ele>2.54</ele>
        <time>2019-05-31T14:19:53Z</time>
      </trkpt>
      <trkpt lat="43.08017" lon="5.90675">
        <ele>2.06</ele>
        <time>2019-05-31T14:20:19Z</time>
      </trkpt>
      <trkpt lat="43.08017" lon="5.90675">
        <ele>2.06</ele>
        <time>2019-05-31T14:20:46Z</time>
      </trkpt>
      <trkpt lat="43.08017" lon="5.90675">
        <ele>2.06</ele>
        <time>2019-05-31T14:21:11Z</time>
      </trkpt>
      <trkpt lat="43.08017" lon="5.90675">
        <ele>2.54</ele>
        <time>2019-05-31T14:21:38Z</time>
      </trkpt>
      <trkpt lat="43.08017" lon="5.90675">
        <ele>2.54</ele>
        <time>2019-05-31T14:22:05Z</time>
      </trkpt>
      <trkpt lat="43.08016" lon="5.90676">
        <ele>1.58</ele>
        <time>2019-05-31T14:22:30Z</time>
      </trkpt>
      <trkpt lat="43.08016" lon="5.90676">
        <ele>1.1</ele>
        <time>2019-05-31T14:22:56Z</time>
      </trkpt>
      <trkpt lat="43.08017" lon="5.90677">
        <ele>0.62</ele>
        <time>2019-05-31T14:23:22Z</time>
      </trkpt>
      <trkpt lat="43.08017" lon="5.90677">
        <ele>0.62</ele>
        <time>2019-05-31T14:23:46Z</time>
      </trkpt>
      <trkpt lat="43.08017" lon="5.90677">
        <ele>0.62</ele>
        <time>2019-05-31T14:24:08Z</time>
      </trkpt>
      <trkpt lat="43.08017" lon="5.90677">
        <ele>0.62</ele>
        <time>2019-05-31T14:24:32Z</time>
      </trkpt>
      <trkpt lat="43.08017" lon="5.90677">
        <ele>0.62</ele>
        <time>2019-05-31T14:24:54Z</time>
      </trkpt>
      <trkpt lat="43.08018" lon="5.90676">
        <ele>1.1</ele>
        <time>2019-05-31T14:25:21Z</time>
      </trkpt>
      <trkpt lat="43.08018" lon="5.90676">
        <ele>1.1</ele>
        <time>2019-05-31T14:25:36Z</time>
      </trkpt>
      <trkpt lat="43.08018" lon="5.90676">
        <ele>0.62</ele>
        <time>2019-05-31T14:26:04Z</time>
      </trkpt>
      <trkpt lat="43.08018" lon="5.90675">
        <ele>0.14</ele>
        <time>2019-05-31T14:26:30Z</time>
      </trkpt>
      <trkpt lat="43.08018" lon="5.90675">
        <ele>0.62</ele>
        <time>2019-05-31T14:26:58Z</time>
      </trkpt>
      <trkpt lat="43.08018" lon="5.90675">
        <ele>0.62</ele>
        <time>2019-05-31T14:27:29Z</time>
      </trkpt>
      <trkpt lat="43.08018" lon="5.90675">
        <ele>0.62</ele>
        <time>2019-05-31T14:27:59Z</time>
      </trkpt>
      <trkpt lat="43.08018" lon="5.90675">
        <ele>0.62</ele>
        <time>2019-05-31T14:28:28Z</time>
      </trkpt>
      <trkpt lat="43.08018" lon="5.90675">
        <ele>0.62</ele>
        <time>2019-05-31T14:28:53Z</time>
      </trkpt>
      <trkpt lat="43.08018" lon="5.90676">
        <ele>1.1</ele>
        <time>2019-05-31T14:29:23Z</time>
      </trkpt>
      <trkpt lat="43.08018" lon="5.90676">
        <ele>1.1</ele>
        <time>2019-05-31T14:29:43Z</time>
      </trkpt>
      <trkpt lat="43.08018" lon="5.90676">
        <ele>1.1</ele>
        <time>2019-05-31T14:30:11Z</time>
      </trkpt>
      <trkpt lat="43.08018" lon="5.90676">
        <ele>1.1</ele>
        <time>2019-05-31T14:30:40Z</time>
      </trkpt>
      <trkpt lat="43.08017" lon="5.90677">
        <ele>1.58</ele>
        <time>2019-05-31T14:31:06Z</time>
      </trkpt>
      <trkpt lat="43.08018" lon="5.90676">
        <ele>2.06</ele>
        <time>2019-05-31T14:31:28Z</time>
      </trkpt>
      <trkpt lat="43.08018" lon="5.90676">
        <ele>2.54</ele>
        <time>2019-05-31T14:31:41Z</time>
      </trkpt>
    </trkseg>
  </trk>
</gpx>